<?xml version="1.0" encoding="UTF-8" standalone="no" ?>
<gpx xmlns="http://www.topografix.com/GPX/1/1" xmlns:xsi="http://www.w3.org/2001/XMLSchema-instance" xsi:schemaLocation="http://www.topografix.com/GPX/1/1 http://www.topografix.com/GPX/1/1/gpx.xsd" version="1.1" creator="VisuGPX - https://www.visugpx.com">
  <metadata>
    <name>Tour d'Europe: étape 030</name>
    <desc><![CDATA[Étape 030]]></desc>
  </metadata>
  <trk>
    <name><![CDATA[Tour d'Europe: étape 030]]></name>
    <trkseg>
      <trkpt lat="61.44963" lon="5.89372">
        <ele>50.576668</ele>
        <time>2020-07-28T06:58:46.195Z</time>
      </trkpt>
      <trkpt lat="61.44953" lon="5.89372">
        <ele>50.576668</ele>
        <time>2020-07-28T06:58:50.195Z</time>
      </trkpt>
      <trkpt lat="61.44949" lon="5.89347">
        <ele>50.576668</ele>
        <time>2020-07-28T06:58:54.166Z</time>
      </trkpt>
      <trkpt lat="61.44949" lon="5.89326">
        <ele>50.576668</ele>
        <time>2020-07-28T06:58:57.168Z</time>
      </trkpt>
      <trkpt lat="61.44948" lon="5.89306">
        <ele>50.576668</ele>
        <time>2020-07-28T06:59:00.183Z</time>
      </trkpt>
      <trkpt lat="61.44947" lon="5.89281">
        <ele>50.576668</ele>
        <time>2020-07-28T06:59:04.195Z</time>
      </trkpt>
      <trkpt lat="61.44946" lon="5.89259">
        <ele>50.576668</ele>
        <time>2020-07-28T06:59:08.172Z</time>
      </trkpt>
      <trkpt lat="61.44944" lon="5.89239">
        <ele>50.576668</ele>
        <time>2020-07-28T06:59:12.206Z</time>
      </trkpt>
      <trkpt lat="61.44946" lon="5.89219">
        <ele>50.576668</ele>
        <time>2020-07-28T06:59:17.186Z</time>
      </trkpt>
      <trkpt lat="61.4494" lon="5.89174">
        <ele>51.075781</ele>
        <time>2020-07-28T07:00:31.174Z</time>
      </trkpt>
      <trkpt lat="61.44939" lon="5.89154">
        <ele>51.370131</ele>
        <time>2020-07-28T07:00:34.190Z</time>
      </trkpt>
      <trkpt lat="61.44938" lon="5.89134">
        <ele>51.663979</ele>
        <time>2020-07-28T07:00:37.179Z</time>
      </trkpt>
      <trkpt lat="61.44938" lon="5.89113">
        <ele>51.964373</ele>
        <time>2020-07-28T07:00:40.173Z</time>
      </trkpt>
      <trkpt lat="61.44938" lon="5.89092">
        <ele>52.272201</ele>
        <time>2020-07-28T07:00:43.171Z</time>
      </trkpt>
      <trkpt lat="61.44936" lon="5.89071">
        <ele>52.579796</ele>
        <time>2020-07-28T07:00:46.200Z</time>
      </trkpt>
      <trkpt lat="61.44935" lon="5.8905">
        <ele>52.880538</ele>
        <time>2020-07-28T07:00:49.196Z</time>
      </trkpt>
      <trkpt lat="61.44935" lon="5.89029">
        <ele>53.188141</ele>
        <time>2020-07-28T07:00:52.192Z</time>
      </trkpt>
      <trkpt lat="61.44934" lon="5.89006">
        <ele>53.519625</ele>
        <time>2020-07-28T07:00:55.214Z</time>
      </trkpt>
      <trkpt lat="61.44935" lon="5.88982">
        <ele>53.866865</ele>
        <time>2020-07-28T07:00:58.199Z</time>
      </trkpt>
      <trkpt lat="61.44941" lon="5.8896">
        <ele>54.23668</ele>
        <time>2020-07-28T07:01:01.173Z</time>
      </trkpt>
      <trkpt lat="61.44948" lon="5.88939">
        <ele>54.603996</ele>
        <time>2020-07-28T07:01:04.199Z</time>
      </trkpt>
      <trkpt lat="61.44956" lon="5.88922">
        <ele>54.963769</ele>
        <time>2020-07-28T07:01:07.174Z</time>
      </trkpt>
      <trkpt lat="61.44965" lon="5.88907">
        <ele>55.310373</ele>
        <time>2020-07-28T07:01:10.183Z</time>
      </trkpt>
      <trkpt lat="61.44974" lon="5.88896">
        <ele>55.616364</ele>
        <time>2020-07-28T07:01:13.167Z</time>
      </trkpt>
      <trkpt lat="61.44983" lon="5.88887">
        <ele>55.936003</ele>
        <time>2020-07-28T07:01:16.186Z</time>
      </trkpt>
      <trkpt lat="61.44991" lon="5.88877">
        <ele>56.010772</ele>
        <time>2020-07-28T07:01:19.163Z</time>
      </trkpt>
      <trkpt lat="61.44999" lon="5.88865">
        <ele>55.966425</ele>
        <time>2020-07-28T07:01:23.188Z</time>
      </trkpt>
      <trkpt lat="61.45005" lon="5.8885">
        <ele>55.922616</ele>
        <time>2020-07-28T07:01:27.193Z</time>
      </trkpt>
      <trkpt lat="61.45006" lon="5.8883">
        <ele>55.878991</ele>
        <time>2020-07-28T07:01:30.177Z</time>
      </trkpt>
      <trkpt lat="61.45" lon="5.8881">
        <ele>55.826899</ele>
        <time>2020-07-28T07:01:33.175Z</time>
      </trkpt>
      <trkpt lat="61.44993" lon="5.8879">
        <ele>55.772014</ele>
        <time>2020-07-28T07:01:36.194Z</time>
      </trkpt>
      <trkpt lat="61.44984" lon="5.88773">
        <ele>55.716616</ele>
        <time>2020-07-28T07:01:39.184Z</time>
      </trkpt>
      <trkpt lat="61.44975" lon="5.88755">
        <ele>55.660331</ele>
        <time>2020-07-28T07:01:42.187Z</time>
      </trkpt>
      <trkpt lat="61.44965" lon="5.88739">
        <ele>55.601896</ele>
        <time>2020-07-28T07:01:45.176Z</time>
      </trkpt>
      <trkpt lat="61.44955" lon="5.88722">
        <ele>55.542875</ele>
        <time>2020-07-28T07:01:48.165Z</time>
      </trkpt>
      <trkpt lat="61.44948" lon="5.88711">
        <ele>55.501637</ele>
        <time>2020-07-28T07:01:50.161Z</time>
      </trkpt>
      <trkpt lat="61.4494" lon="5.88698">
        <ele>55.458948</ele>
        <time>2020-07-28T07:01:52.221Z</time>
      </trkpt>
      <trkpt lat="61.44934" lon="5.88685">
        <ele>55.417603</ele>
        <time>2020-07-28T07:01:54.188Z</time>
      </trkpt>
      <trkpt lat="61.44925" lon="5.88665">
        <ele>55.356661</ele>
        <time>2020-07-28T07:01:57.179Z</time>
      </trkpt>
      <trkpt lat="61.44919" lon="5.88642">
        <ele>55.300171</ele>
        <time>2020-07-28T07:02:00.163Z</time>
      </trkpt>
      <trkpt lat="61.44912" lon="5.88621">
        <ele>55.245048</ele>
        <time>2020-07-28T07:02:03.185Z</time>
      </trkpt>
      <trkpt lat="61.449" lon="5.88611">
        <ele>55.322748</ele>
        <time>2020-07-28T07:02:06.189Z</time>
      </trkpt>
      <trkpt lat="61.44891" lon="5.88602">
        <ele>55.500373</ele>
        <time>2020-07-28T07:02:09.165Z</time>
      </trkpt>
      <trkpt lat="61.44886" lon="5.88583">
        <ele>55.685078</ele>
        <time>2020-07-28T07:02:13.192Z</time>
      </trkpt>
      <trkpt lat="61.44877" lon="5.88571">
        <ele>55.864022</ele>
        <time>2020-07-28T07:02:16.195Z</time>
      </trkpt>
      <trkpt lat="61.44869" lon="5.88557">
        <ele>56.054864</ele>
        <time>2020-07-28T07:02:19.202Z</time>
      </trkpt>
      <trkpt lat="61.4486" lon="5.88543">
        <ele>56.245185</ele>
        <time>2020-07-28T07:02:22.194Z</time>
      </trkpt>
      <trkpt lat="61.44852" lon="5.88529">
        <ele>56.431537</ele>
        <time>2020-07-28T07:02:25.188Z</time>
      </trkpt>
      <trkpt lat="61.44843" lon="5.88515">
        <ele>56.631383</ele>
        <time>2020-07-28T07:02:28.182Z</time>
      </trkpt>
      <trkpt lat="61.44834" lon="5.885">
        <ele>56.832977</ele>
        <time>2020-07-28T07:02:31.193Z</time>
      </trkpt>
      <trkpt lat="61.44825" lon="5.88484">
        <ele>57.03754</ele>
        <time>2020-07-28T07:02:34.175Z</time>
      </trkpt>
      <trkpt lat="61.44817" lon="5.88468">
        <ele>57.230981</ele>
        <time>2020-07-28T07:02:37.184Z</time>
      </trkpt>
      <trkpt lat="61.44811" lon="5.88449">
        <ele>57.420666</ele>
        <time>2020-07-28T07:02:40.161Z</time>
      </trkpt>
      <trkpt lat="61.44807" lon="5.88428">
        <ele>57.613254</ele>
        <time>2020-07-28T07:02:43.204Z</time>
      </trkpt>
      <trkpt lat="61.44804" lon="5.88407">
        <ele>57.795949</ele>
        <time>2020-07-28T07:02:46.178Z</time>
      </trkpt>
      <trkpt lat="61.448" lon="5.88388">
        <ele>57.975037</ele>
        <time>2020-07-28T07:02:49.193Z</time>
      </trkpt>
      <trkpt lat="61.44794" lon="5.88369">
        <ele>58.160954</ele>
        <time>2020-07-28T07:02:52.201Z</time>
      </trkpt>
      <trkpt lat="61.44788" lon="5.88354">
        <ele>58.334888</ele>
        <time>2020-07-28T07:02:55.185Z</time>
      </trkpt>
      <trkpt lat="61.44782" lon="5.88336">
        <ele>58.369733</ele>
        <time>2020-07-28T07:02:58.168Z</time>
      </trkpt>
      <trkpt lat="61.44779" lon="5.88313">
        <ele>58.357822</ele>
        <time>2020-07-28T07:03:01.187Z</time>
      </trkpt>
      <trkpt lat="61.44778" lon="5.88288">
        <ele>58.345366</ele>
        <time>2020-07-28T07:03:04.190Z</time>
      </trkpt>
      <trkpt lat="61.4478" lon="5.8827">
        <ele>58.335908</ele>
        <time>2020-07-28T07:03:06.166Z</time>
      </trkpt>
      <trkpt lat="61.44782" lon="5.88251">
        <ele>58.326274</ele>
        <time>2020-07-28T07:03:08.198Z</time>
      </trkpt>
      <trkpt lat="61.44784" lon="5.88225">
        <ele>58.312808</ele>
        <time>2020-07-28T07:03:11.190Z</time>
      </trkpt>
      <trkpt lat="61.44787" lon="5.88199">
        <ele>58.299909</ele>
        <time>2020-07-28T07:03:14.186Z</time>
      </trkpt>
      <trkpt lat="61.4479" lon="5.88176">
        <ele>58.287472</ele>
        <time>2020-07-28T07:03:17.213Z</time>
      </trkpt>
      <trkpt lat="61.44792" lon="5.88155">
        <ele>58.276903</ele>
        <time>2020-07-28T07:03:20.180Z</time>
      </trkpt>
      <trkpt lat="61.44791" lon="5.88135">
        <ele>58.266809</ele>
        <time>2020-07-28T07:03:25.222Z</time>
      </trkpt>
      <trkpt lat="61.44796" lon="5.88114">
        <ele>58.255225</ele>
        <time>2020-07-28T07:03:28.197Z</time>
      </trkpt>
      <trkpt lat="61.44801" lon="5.8809">
        <ele>58.242197</ele>
        <time>2020-07-28T07:03:31.176Z</time>
      </trkpt>
      <trkpt lat="61.44805" lon="5.88065">
        <ele>58.228816</ele>
        <time>2020-07-28T07:03:34.180Z</time>
      </trkpt>
      <trkpt lat="61.44809" lon="5.88039">
        <ele>58.214927</ele>
        <time>2020-07-28T07:03:37.173Z</time>
      </trkpt>
      <trkpt lat="61.44812" lon="5.8802">
        <ele>58.20505</ele>
        <time>2020-07-28T07:03:39.187Z</time>
      </trkpt>
      <trkpt lat="61.44815" lon="5.88">
        <ele>58.194571</ele>
        <time>2020-07-28T07:03:41.174Z</time>
      </trkpt>
      <trkpt lat="61.44819" lon="5.87979">
        <ele>58.068566</ele>
        <time>2020-07-28T07:03:43.181Z</time>
      </trkpt>
      <trkpt lat="61.44822" lon="5.87957">
        <ele>57.833386</ele>
        <time>2020-07-28T07:03:45.161Z</time>
      </trkpt>
      <trkpt lat="61.44825" lon="5.87934">
        <ele>57.594294</ele>
        <time>2020-07-28T07:03:47.201Z</time>
      </trkpt>
      <trkpt lat="61.44828" lon="5.87911">
        <ele>57.352675</ele>
        <time>2020-07-28T07:03:49.165Z</time>
      </trkpt>
      <trkpt lat="61.44831" lon="5.87888">
        <ele>57.105</ele>
        <time>2020-07-28T07:03:51.181Z</time>
      </trkpt>
      <trkpt lat="61.44834" lon="5.87864">
        <ele>56.850502</ele>
        <time>2020-07-28T07:03:53.196Z</time>
      </trkpt>
      <trkpt lat="61.44838" lon="5.87839">
        <ele>56.590143</ele>
        <time>2020-07-28T07:03:55.173Z</time>
      </trkpt>
      <trkpt lat="61.44841" lon="5.87813">
        <ele>56.32306</ele>
        <time>2020-07-28T07:03:57.170Z</time>
      </trkpt>
      <trkpt lat="61.44843" lon="5.87787">
        <ele>56.051838</ele>
        <time>2020-07-28T07:03:59.191Z</time>
      </trkpt>
      <trkpt lat="61.44845" lon="5.87761">
        <ele>55.779791</ele>
        <time>2020-07-28T07:04:01.168Z</time>
      </trkpt>
      <trkpt lat="61.44847" lon="5.87733">
        <ele>55.499728</ele>
        <time>2020-07-28T07:04:03.181Z</time>
      </trkpt>
      <trkpt lat="61.44849" lon="5.87707">
        <ele>55.225278</ele>
        <time>2020-07-28T07:04:05.172Z</time>
      </trkpt>
      <trkpt lat="61.44851" lon="5.8768">
        <ele>54.947912</ele>
        <time>2020-07-28T07:04:07.177Z</time>
      </trkpt>
      <trkpt lat="61.44853" lon="5.87652">
        <ele>54.669858</ele>
        <time>2020-07-28T07:04:09.201Z</time>
      </trkpt>
      <trkpt lat="61.44854" lon="5.87625">
        <ele>54.389885</ele>
        <time>2020-07-28T07:04:11.171Z</time>
      </trkpt>
      <trkpt lat="61.44856" lon="5.87599">
        <ele>54.205855</ele>
        <time>2020-07-28T07:04:13.181Z</time>
      </trkpt>
      <trkpt lat="61.44857" lon="5.87572">
        <ele>54.029894</ele>
        <time>2020-07-28T07:04:15.175Z</time>
      </trkpt>
      <trkpt lat="61.44859" lon="5.87546">
        <ele>53.855252</ele>
        <time>2020-07-28T07:04:17.194Z</time>
      </trkpt>
      <trkpt lat="61.44861" lon="5.87521">
        <ele>53.68289</ele>
        <time>2020-07-28T07:04:19.229Z</time>
      </trkpt>
      <trkpt lat="61.44862" lon="5.87495">
        <ele>53.509568</ele>
        <time>2020-07-28T07:04:21.166Z</time>
      </trkpt>
      <trkpt lat="61.44864" lon="5.87468">
        <ele>53.332778</ele>
        <time>2020-07-28T07:04:23.169Z</time>
      </trkpt>
      <trkpt lat="61.44865" lon="5.87442">
        <ele>53.156648</ele>
        <time>2020-07-28T07:04:25.215Z</time>
      </trkpt>
      <trkpt lat="61.44866" lon="5.87416">
        <ele>52.984686</ele>
        <time>2020-07-28T07:04:27.179Z</time>
      </trkpt>
      <trkpt lat="61.44867" lon="5.8739">
        <ele>52.813675</ele>
        <time>2020-07-28T07:04:29.199Z</time>
      </trkpt>
      <trkpt lat="61.44867" lon="5.87365">
        <ele>52.647538</ele>
        <time>2020-07-28T07:04:31.165Z</time>
      </trkpt>
      <trkpt lat="61.44868" lon="5.87341">
        <ele>52.482496</ele>
        <time>2020-07-28T07:04:33.173Z</time>
      </trkpt>
      <trkpt lat="61.44869" lon="5.87316">
        <ele>52.314915</ele>
        <time>2020-07-28T07:04:35.194Z</time>
      </trkpt>
      <trkpt lat="61.4487" lon="5.8729">
        <ele>52.144821</ele>
        <time>2020-07-28T07:04:37.179Z</time>
      </trkpt>
      <trkpt lat="61.44872" lon="5.87266">
        <ele>51.982218</ele>
        <time>2020-07-28T07:04:39.174Z</time>
      </trkpt>
      <trkpt lat="61.44873" lon="5.87241">
        <ele>51.909747</ele>
        <time>2020-07-28T07:04:41.176Z</time>
      </trkpt>
      <trkpt lat="61.44875" lon="5.87217">
        <ele>52.042901</ele>
        <time>2020-07-28T07:04:43.184Z</time>
      </trkpt>
      <trkpt lat="61.44877" lon="5.87193">
        <ele>52.172728</ele>
        <time>2020-07-28T07:04:45.163Z</time>
      </trkpt>
      <trkpt lat="61.4488" lon="5.8717">
        <ele>52.301337</ele>
        <time>2020-07-28T07:04:47.203Z</time>
      </trkpt>
      <trkpt lat="61.44884" lon="5.87148">
        <ele>52.427604</ele>
        <time>2020-07-28T07:04:49.164Z</time>
      </trkpt>
      <trkpt lat="61.4489" lon="5.87127">
        <ele>52.556493</ele>
        <time>2020-07-28T07:04:51.181Z</time>
      </trkpt>
      <trkpt lat="61.44896" lon="5.87108">
        <ele>52.683235</ele>
        <time>2020-07-28T07:04:53.185Z</time>
      </trkpt>
      <trkpt lat="61.449" lon="5.87088">
        <ele>52.80011</ele>
        <time>2020-07-28T07:04:55.198Z</time>
      </trkpt>
      <trkpt lat="61.44899" lon="5.87067">
        <ele>52.915817</ele>
        <time>2020-07-28T07:04:57.174Z</time>
      </trkpt>
      <trkpt lat="61.44898" lon="5.87039">
        <ele>53.064014</ele>
        <time>2020-07-28T07:05:00.170Z</time>
      </trkpt>
      <trkpt lat="61.44904" lon="5.87019">
        <ele>53.194919</ele>
        <time>2020-07-28T07:05:03.162Z</time>
      </trkpt>
      <trkpt lat="61.44908" lon="5.86997">
        <ele>53.318783</ele>
        <time>2020-07-28T07:05:06.175Z</time>
      </trkpt>
      <trkpt lat="61.4491" lon="5.86971">
        <ele>53.460624</ele>
        <time>2020-07-28T07:05:09.194Z</time>
      </trkpt>
      <trkpt lat="61.44913" lon="5.86946">
        <ele>53.602864</ele>
        <time>2020-07-28T07:05:12.172Z</time>
      </trkpt>
      <trkpt lat="61.44916" lon="5.86921">
        <ele>53.743076</ele>
        <time>2020-07-28T07:05:15.168Z</time>
      </trkpt>
      <trkpt lat="61.4492" lon="5.86896">
        <ele>53.88113</ele>
        <time>2020-07-28T07:05:18.190Z</time>
      </trkpt>
      <trkpt lat="61.44924" lon="5.86871">
        <ele>54.175434</ele>
        <time>2020-07-28T07:05:21.195Z</time>
      </trkpt>
      <trkpt lat="61.44928" lon="5.86844">
        <ele>54.496079</ele>
        <time>2020-07-28T07:05:24.191Z</time>
      </trkpt>
      <trkpt lat="61.44932" lon="5.86827">
        <ele>54.713473</ele>
        <time>2020-07-28T07:05:26.184Z</time>
      </trkpt>
      <trkpt lat="61.44936" lon="5.86801">
        <ele>55.021942</ele>
        <time>2020-07-28T07:05:29.166Z</time>
      </trkpt>
      <trkpt lat="61.4494" lon="5.86775">
        <ele>55.339374</ele>
        <time>2020-07-28T07:05:32.193Z</time>
      </trkpt>
      <trkpt lat="61.44943" lon="5.86749">
        <ele>55.648868</ele>
        <time>2020-07-28T07:05:35.182Z</time>
      </trkpt>
      <trkpt lat="61.44946" lon="5.86723">
        <ele>55.952219</ele>
        <time>2020-07-28T07:05:38.210Z</time>
      </trkpt>
      <trkpt lat="61.44948" lon="5.86697">
        <ele>56.260414</ele>
        <time>2020-07-28T07:05:41.179Z</time>
      </trkpt>
      <trkpt lat="61.44949" lon="5.86678">
        <ele>56.480275</ele>
        <time>2020-07-28T07:05:43.186Z</time>
      </trkpt>
      <trkpt lat="61.4495" lon="5.86657">
        <ele>56.720025</ele>
        <time>2020-07-28T07:05:45.184Z</time>
      </trkpt>
      <trkpt lat="61.44952" lon="5.86636">
        <ele>56.957585</ele>
        <time>2020-07-28T07:05:47.206Z</time>
      </trkpt>
      <trkpt lat="61.44953" lon="5.86616">
        <ele>57.194337</ele>
        <time>2020-07-28T07:05:49.165Z</time>
      </trkpt>
      <trkpt lat="61.44955" lon="5.86596">
        <ele>57.424268</ele>
        <time>2020-07-28T07:05:51.180Z</time>
      </trkpt>
      <trkpt lat="61.44956" lon="5.86576">
        <ele>57.66175</ele>
        <time>2020-07-28T07:05:53.199Z</time>
      </trkpt>
      <trkpt lat="61.44958" lon="5.86556">
        <ele>57.894446</ele>
        <time>2020-07-28T07:05:55.182Z</time>
      </trkpt>
      <trkpt lat="61.44959" lon="5.86537">
        <ele>58.118761</ele>
        <time>2020-07-28T07:05:57.175Z</time>
      </trkpt>
      <trkpt lat="61.4496" lon="5.86517">
        <ele>58.257078</ele>
        <time>2020-07-28T07:05:59.175Z</time>
      </trkpt>
      <trkpt lat="61.44961" lon="5.86497">
        <ele>58.324944</ele>
        <time>2020-07-28T07:06:01.180Z</time>
      </trkpt>
      <trkpt lat="61.44962" lon="5.86478">
        <ele>58.392192</ele>
        <time>2020-07-28T07:06:03.204Z</time>
      </trkpt>
      <trkpt lat="61.44963" lon="5.86458">
        <ele>58.459734</ele>
        <time>2020-07-28T07:06:05.169Z</time>
      </trkpt>
      <trkpt lat="61.44964" lon="5.86438">
        <ele>58.52913</ele>
        <time>2020-07-28T07:06:07.165Z</time>
      </trkpt>
      <trkpt lat="61.44966" lon="5.86417">
        <ele>58.602939</ele>
        <time>2020-07-28T07:06:09.175Z</time>
      </trkpt>
      <trkpt lat="61.44968" lon="5.86398">
        <ele>58.671715</ele>
        <time>2020-07-28T07:06:11.180Z</time>
      </trkpt>
      <trkpt lat="61.44969" lon="5.8637">
        <ele>58.766732</ele>
        <time>2020-07-28T07:06:14.199Z</time>
      </trkpt>
      <trkpt lat="61.4497" lon="5.86351">
        <ele>58.832951</ele>
        <time>2020-07-28T07:06:16.172Z</time>
      </trkpt>
      <trkpt lat="61.44971" lon="5.86323">
        <ele>58.927964</ele>
        <time>2020-07-28T07:06:19.176Z</time>
      </trkpt>
      <trkpt lat="61.44971" lon="5.86297">
        <ele>59.019485</ele>
        <time>2020-07-28T07:06:22.186Z</time>
      </trkpt>
      <trkpt lat="61.4497" lon="5.86271">
        <ele>59.107322</ele>
        <time>2020-07-28T07:06:25.199Z</time>
      </trkpt>
      <trkpt lat="61.4497" lon="5.86252">
        <ele>59.173447</ele>
        <time>2020-07-28T07:06:27.185Z</time>
      </trkpt>
      <trkpt lat="61.4497" lon="5.86233">
        <ele>59.239537</ele>
        <time>2020-07-28T07:06:29.213Z</time>
      </trkpt>
      <trkpt lat="61.44971" lon="5.86214">
        <ele>59.305414</ele>
        <time>2020-07-28T07:06:31.183Z</time>
      </trkpt>
      <trkpt lat="61.44969" lon="5.86187">
        <ele>59.398505</ele>
        <time>2020-07-28T07:06:34.204Z</time>
      </trkpt>
      <trkpt lat="61.44964" lon="5.86164">
        <ele>59.4852</ele>
        <time>2020-07-28T07:06:37.182Z</time>
      </trkpt>
      <trkpt lat="61.44959" lon="5.86145">
        <ele>59.353798</ele>
        <time>2020-07-28T07:06:40.188Z</time>
      </trkpt>
      <trkpt lat="61.44955" lon="5.86122">
        <ele>59.058573</ele>
        <time>2020-07-28T07:06:43.162Z</time>
      </trkpt>
      <trkpt lat="61.44949" lon="5.861">
        <ele>58.762346</ele>
        <time>2020-07-28T07:06:46.194Z</time>
      </trkpt>
      <trkpt lat="61.44944" lon="5.86075">
        <ele>58.441366</ele>
        <time>2020-07-28T07:06:49.204Z</time>
      </trkpt>
      <trkpt lat="61.44943" lon="5.86055">
        <ele>58.202773</ele>
        <time>2020-07-28T07:06:51.164Z</time>
      </trkpt>
      <trkpt lat="61.44942" lon="5.86035">
        <ele>57.965909</ele>
        <time>2020-07-28T07:06:53.198Z</time>
      </trkpt>
      <trkpt lat="61.44943" lon="5.86015">
        <ele>57.721767</ele>
        <time>2020-07-28T07:06:55.186Z</time>
      </trkpt>
      <trkpt lat="61.44945" lon="5.85995">
        <ele>57.481176</ele>
        <time>2020-07-28T07:06:57.199Z</time>
      </trkpt>
      <trkpt lat="61.44947" lon="5.85975">
        <ele>57.242567</ele>
        <time>2020-07-28T07:06:59.176Z</time>
      </trkpt>
      <trkpt lat="61.4495" lon="5.85956">
        <ele>57.006379</ele>
        <time>2020-07-28T07:07:01.181Z</time>
      </trkpt>
      <trkpt lat="61.44953" lon="5.85938">
        <ele>56.777978</ele>
        <time>2020-07-28T07:07:03.194Z</time>
      </trkpt>
      <trkpt lat="61.44958" lon="5.85912">
        <ele>56.447989</ele>
        <time>2020-07-28T07:07:06.195Z</time>
      </trkpt>
      <trkpt lat="61.44961" lon="5.85895">
        <ele>56.226286</ele>
        <time>2020-07-28T07:07:08.201Z</time>
      </trkpt>
      <trkpt lat="61.44965" lon="5.85869">
        <ele>55.899408</ele>
        <time>2020-07-28T07:07:11.164Z</time>
      </trkpt>
      <trkpt lat="61.44966" lon="5.85848">
        <ele>55.648564</ele>
        <time>2020-07-28T07:07:14.183Z</time>
      </trkpt>
      <trkpt lat="61.44958" lon="5.8583">
        <ele>55.365913</ele>
        <time>2020-07-28T07:07:18.195Z</time>
      </trkpt>
      <trkpt lat="61.44953" lon="5.8581">
        <ele>55.092838</ele>
        <time>2020-07-28T07:07:22.170Z</time>
      </trkpt>
      <trkpt lat="61.44953" lon="5.85791">
        <ele>55.551993</ele>
        <time>2020-07-28T07:07:24.191Z</time>
      </trkpt>
      <trkpt lat="61.44954" lon="5.85773">
        <ele>56.211522</ele>
        <time>2020-07-28T07:07:26.180Z</time>
      </trkpt>
      <trkpt lat="61.44956" lon="5.85749">
        <ele>57.031958</ele>
        <time>2020-07-28T07:07:29.175Z</time>
      </trkpt>
      <trkpt lat="61.44958" lon="5.85729">
        <ele>57.744942</ele>
        <time>2020-07-28T07:07:32.181Z</time>
      </trkpt>
      <trkpt lat="61.44959" lon="5.8571">
        <ele>58.444721</ele>
        <time>2020-07-28T07:07:36.213Z</time>
      </trkpt>
      <trkpt lat="61.4496" lon="5.85689">
        <ele>59.183023</ele>
        <time>2020-07-28T07:07:41.185Z</time>
      </trkpt>
      <trkpt lat="61.44965" lon="5.85669">
        <ele>59.956397</ele>
        <time>2020-07-28T07:07:46.172Z</time>
      </trkpt>
      <trkpt lat="61.44975" lon="5.85663">
        <ele>60.688163</ele>
        <time>2020-07-28T07:07:49.197Z</time>
      </trkpt>
      <trkpt lat="61.44985" lon="5.85665">
        <ele>61.419939</ele>
        <time>2020-07-28T07:07:51.196Z</time>
      </trkpt>
      <trkpt lat="61.44994" lon="5.85667">
        <ele>62.119254</ele>
        <time>2020-07-28T07:07:53.184Z</time>
      </trkpt>
      <trkpt lat="61.45007" lon="5.85671">
        <ele>63.079984</ele>
        <time>2020-07-28T07:07:56.172Z</time>
      </trkpt>
      <trkpt lat="61.45018" lon="5.85672">
        <ele>63.884306</ele>
        <time>2020-07-28T07:07:59.172Z</time>
      </trkpt>
      <trkpt lat="61.45029" lon="5.85675">
        <ele>64.680024</ele>
        <time>2020-07-28T07:08:02.168Z</time>
      </trkpt>
      <trkpt lat="61.45038" lon="5.85666">
        <ele>65.367704</ele>
        <time>2020-07-28T07:08:08.242Z</time>
      </trkpt>
      <trkpt lat="61.45038" lon="5.85647">
        <ele>66.058876</ele>
        <time>2020-07-28T07:08:12.185Z</time>
      </trkpt>
      <trkpt lat="61.45036" lon="5.85621">
        <ele>66.95759</ele>
        <time>2020-07-28T07:08:16.176Z</time>
      </trkpt>
      <trkpt lat="61.45032" lon="5.85598">
        <ele>67.806792</ele>
        <time>2020-07-28T07:08:19.192Z</time>
      </trkpt>
      <trkpt lat="61.4503" lon="5.85574">
        <ele>68.188955</ele>
        <time>2020-07-28T07:08:22.212Z</time>
      </trkpt>
      <trkpt lat="61.45027" lon="5.85548">
        <ele>68.207546</ele>
        <time>2020-07-28T07:08:25.169Z</time>
      </trkpt>
      <trkpt lat="61.45024" lon="5.85522">
        <ele>68.226371</ele>
        <time>2020-07-28T07:08:28.194Z</time>
      </trkpt>
      <trkpt lat="61.45022" lon="5.85502">
        <ele>68.240633</ele>
        <time>2020-07-28T07:08:30.179Z</time>
      </trkpt>
      <trkpt lat="61.45021" lon="5.85482">
        <ele>68.254182</ele>
        <time>2020-07-28T07:08:32.201Z</time>
      </trkpt>
      <trkpt lat="61.4502" lon="5.85455">
        <ele>68.273213</ele>
        <time>2020-07-28T07:08:35.174Z</time>
      </trkpt>
      <trkpt lat="61.4502" lon="5.85429">
        <ele>68.291611</ele>
        <time>2020-07-28T07:08:38.166Z</time>
      </trkpt>
      <trkpt lat="61.45017" lon="5.85405">
        <ele>68.308815</ele>
        <time>2020-07-28T07:08:41.195Z</time>
      </trkpt>
      <trkpt lat="61.45015" lon="5.8538">
        <ele>68.326114</ele>
        <time>2020-07-28T07:08:44.176Z</time>
      </trkpt>
      <trkpt lat="61.45012" lon="5.85358">
        <ele>68.342202</ele>
        <time>2020-07-28T07:08:47.186Z</time>
      </trkpt>
      <trkpt lat="61.45008" lon="5.85337">
        <ele>68.358187</ele>
        <time>2020-07-28T07:08:50.187Z</time>
      </trkpt>
      <trkpt lat="61.45004" lon="5.85312">
        <ele>68.37594</ele>
        <time>2020-07-28T07:08:53.185Z</time>
      </trkpt>
      <trkpt lat="61.45005" lon="5.85291">
        <ele>68.391026</ele>
        <time>2020-07-28T07:08:56.215Z</time>
      </trkpt>
      <trkpt lat="61.45009" lon="5.8527">
        <ele>68.406262</ele>
        <time>2020-07-28T07:08:59.170Z</time>
      </trkpt>
      <trkpt lat="61.45007" lon="5.8525">
        <ele>68.420653</ele>
        <time>2020-07-28T07:09:02.184Z</time>
      </trkpt>
      <trkpt lat="61.45003" lon="5.85228">
        <ele>68.436691</ele>
        <time>2020-07-28T07:09:05.173Z</time>
      </trkpt>
      <trkpt lat="61.45" lon="5.85206">
        <ele>68.176412</ele>
        <time>2020-07-28T07:09:08.175Z</time>
      </trkpt>
      <trkpt lat="61.44997" lon="5.85185">
        <ele>67.834845</ele>
        <time>2020-07-28T07:09:11.179Z</time>
      </trkpt>
      <trkpt lat="61.44999" lon="5.85161">
        <ele>67.44524</ele>
        <time>2020-07-28T07:09:14.215Z</time>
      </trkpt>
      <trkpt lat="61.45004" lon="5.85137">
        <ele>67.030239</ele>
        <time>2020-07-28T07:09:17.172Z</time>
      </trkpt>
      <trkpt lat="61.45007" lon="5.85112">
        <ele>66.629401</ele>
        <time>2020-07-28T07:09:20.180Z</time>
      </trkpt>
      <trkpt lat="61.45009" lon="5.8509">
        <ele>66.269217</ele>
        <time>2020-07-28T07:09:23.177Z</time>
      </trkpt>
      <trkpt lat="61.45014" lon="5.85069">
        <ele>65.90726</ele>
        <time>2020-07-28T07:09:26.196Z</time>
      </trkpt>
      <trkpt lat="61.45018" lon="5.85047">
        <ele>65.522292</ele>
        <time>2020-07-28T07:09:29.206Z</time>
      </trkpt>
      <trkpt lat="61.45021" lon="5.85024">
        <ele>65.159815</ele>
        <time>2020-07-28T07:09:32.170Z</time>
      </trkpt>
      <trkpt lat="61.45023" lon="5.85003">
        <ele>64.80889</ele>
        <time>2020-07-28T07:09:35.168Z</time>
      </trkpt>
      <trkpt lat="61.45032" lon="5.84992">
        <ele>64.46657</ele>
        <time>2020-07-28T07:09:39.194Z</time>
      </trkpt>
      <trkpt lat="61.45044" lon="5.84992">
        <ele>64.093216</ele>
        <time>2020-07-28T07:09:43.175Z</time>
      </trkpt>
      <trkpt lat="61.45055" lon="5.84993">
        <ele>63.702433</ele>
        <time>2020-07-28T07:09:47.200Z</time>
      </trkpt>
      <trkpt lat="61.45065" lon="5.84995">
        <ele>63.394134</ele>
        <time>2020-07-28T07:09:50.178Z</time>
      </trkpt>
      <trkpt lat="61.45074" lon="5.84995">
        <ele>63.076896</ele>
        <time>2020-07-28T07:09:53.179Z</time>
      </trkpt>
      <trkpt lat="61.45084" lon="5.84996">
        <ele>62.749776</ele>
        <time>2020-07-28T07:09:56.182Z</time>
      </trkpt>
      <trkpt lat="61.45096" lon="5.84998">
        <ele>62.729493</ele>
        <time>2020-07-28T07:09:59.184Z</time>
      </trkpt>
      <trkpt lat="61.45105" lon="5.85">
        <ele>63.218747</ele>
        <time>2020-07-28T07:10:01.176Z</time>
      </trkpt>
      <trkpt lat="61.45116" lon="5.85002">
        <ele>63.775817</ele>
        <time>2020-07-28T07:10:03.192Z</time>
      </trkpt>
      <trkpt lat="61.45127" lon="5.85005">
        <ele>64.359661</ele>
        <time>2020-07-28T07:10:05.176Z</time>
      </trkpt>
      <trkpt lat="61.45137" lon="5.85006">
        <ele>64.926828</ele>
        <time>2020-07-28T07:10:07.174Z</time>
      </trkpt>
      <trkpt lat="61.45148" lon="5.85007">
        <ele>65.482179</ele>
        <time>2020-07-28T07:10:09.226Z</time>
      </trkpt>
      <trkpt lat="61.45158" lon="5.85009">
        <ele>66.011406</ele>
        <time>2020-07-28T07:10:11.169Z</time>
      </trkpt>
      <trkpt lat="61.45167" lon="5.85012">
        <ele>66.513432</ele>
        <time>2020-07-28T07:10:13.177Z</time>
      </trkpt>
      <trkpt lat="61.4518" lon="5.85013">
        <ele>67.175273</ele>
        <time>2020-07-28T07:10:16.176Z</time>
      </trkpt>
      <trkpt lat="61.4519" lon="5.85014">
        <ele>67.709131</ele>
        <time>2020-07-28T07:10:19.192Z</time>
      </trkpt>
      <trkpt lat="61.452" lon="5.85015">
        <ele>68.222036</ele>
        <time>2020-07-28T07:10:22.176Z</time>
      </trkpt>
      <trkpt lat="61.45211" lon="5.85017">
        <ele>68.800157</ele>
        <time>2020-07-28T07:10:26.163Z</time>
      </trkpt>
      <trkpt lat="61.45218" lon="5.85028">
        <ele>69.292923</ele>
        <time>2020-07-28T07:10:30.200Z</time>
      </trkpt>
      <trkpt lat="61.45229" lon="5.85033">
        <ele>69.896969</ele>
        <time>2020-07-28T07:10:35.163Z</time>
      </trkpt>
      <trkpt lat="61.45239" lon="5.85028">
        <ele>70.445928</ele>
        <time>2020-07-28T07:10:39.167Z</time>
      </trkpt>
      <trkpt lat="61.45248" lon="5.8502">
        <ele>70.942172</ele>
        <time>2020-07-28T07:10:42.176Z</time>
      </trkpt>
      <trkpt lat="61.4526" lon="5.85017">
        <ele>71.565609</ele>
        <time>2020-07-28T07:10:45.168Z</time>
      </trkpt>
      <trkpt lat="61.45269" lon="5.85015">
        <ele>71.977317</ele>
        <time>2020-07-28T07:10:47.202Z</time>
      </trkpt>
      <trkpt lat="61.45281" lon="5.85015">
        <ele>71.627937</ele>
        <time>2020-07-28T07:10:50.224Z</time>
      </trkpt>
      <trkpt lat="61.45294" lon="5.85014">
        <ele>71.270122</ele>
        <time>2020-07-28T07:10:53.172Z</time>
      </trkpt>
      <trkpt lat="61.45306" lon="5.85015">
        <ele>70.912294</ele>
        <time>2020-07-28T07:10:56.185Z</time>
      </trkpt>
      <trkpt lat="61.45319" lon="5.85016">
        <ele>70.55134</ele>
        <time>2020-07-28T07:10:59.166Z</time>
      </trkpt>
      <trkpt lat="61.45328" lon="5.85016">
        <ele>70.289959</ele>
        <time>2020-07-28T07:11:01.178Z</time>
      </trkpt>
      <trkpt lat="61.45341" lon="5.85016">
        <ele>69.912277</ele>
        <time>2020-07-28T07:11:04.184Z</time>
      </trkpt>
      <trkpt lat="61.45354" lon="5.85018">
        <ele>69.551058</ele>
        <time>2020-07-28T07:11:07.187Z</time>
      </trkpt>
      <trkpt lat="61.45366" lon="5.85022">
        <ele>69.213488</ele>
        <time>2020-07-28T07:11:10.161Z</time>
      </trkpt>
      <trkpt lat="61.45374" lon="5.85036">
        <ele>68.909642</ele>
        <time>2020-07-28T07:11:13.192Z</time>
      </trkpt>
      <trkpt lat="61.45384" lon="5.85038">
        <ele>68.641192</ele>
        <time>2020-07-28T07:11:16.224Z</time>
      </trkpt>
      <trkpt lat="61.45394" lon="5.85028">
        <ele>68.326181</ele>
        <time>2020-07-28T07:11:19.177Z</time>
      </trkpt>
      <trkpt lat="61.45405" lon="5.85023">
        <ele>67.99236</ele>
        <time>2020-07-28T07:11:22.195Z</time>
      </trkpt>
      <trkpt lat="61.45417" lon="5.85024">
        <ele>67.662816</ele>
        <time>2020-07-28T07:11:25.201Z</time>
      </trkpt>
      <trkpt lat="61.45429" lon="5.85024">
        <ele>67.327685</ele>
        <time>2020-07-28T07:11:28.174Z</time>
      </trkpt>
      <trkpt lat="61.45439" lon="5.85023">
        <ele>67.026427</ele>
        <time>2020-07-28T07:11:31.187Z</time>
      </trkpt>
      <trkpt lat="61.45449" lon="5.85021">
        <ele>66.419216</ele>
        <time>2020-07-28T07:11:34.205Z</time>
      </trkpt>
      <trkpt lat="61.45459" lon="5.85021">
        <ele>65.518908</ele>
        <time>2020-07-28T07:11:37.183Z</time>
      </trkpt>
      <trkpt lat="61.45473" lon="5.85022">
        <ele>64.311421</ele>
        <time>2020-07-28T07:11:40.168Z</time>
      </trkpt>
      <trkpt lat="61.45482" lon="5.85023">
        <ele>63.455409</ele>
        <time>2020-07-28T07:11:42.168Z</time>
      </trkpt>
      <trkpt lat="61.45492" lon="5.85025">
        <ele>62.586563</ele>
        <time>2020-07-28T07:11:44.179Z</time>
      </trkpt>
      <trkpt lat="61.45501" lon="5.85026">
        <ele>61.740035</ele>
        <time>2020-07-28T07:11:46.179Z</time>
      </trkpt>
      <trkpt lat="61.4551" lon="5.85026">
        <ele>60.929803</ele>
        <time>2020-07-28T07:11:48.191Z</time>
      </trkpt>
      <trkpt lat="61.45523" lon="5.85027">
        <ele>59.74998</ele>
        <time>2020-07-28T07:11:51.179Z</time>
      </trkpt>
      <trkpt lat="61.45536" lon="5.8503">
        <ele>58.632028</ele>
        <time>2020-07-28T07:11:54.185Z</time>
      </trkpt>
      <trkpt lat="61.45545" lon="5.85044">
        <ele>57.608104</ele>
        <time>2020-07-28T07:11:57.189Z</time>
      </trkpt>
      <trkpt lat="61.45553" lon="5.85061">
        <ele>56.606465</ele>
        <time>2020-07-28T07:12:00.202Z</time>
      </trkpt>
      <trkpt lat="61.45563" lon="5.85065">
        <ele>55.632015</ele>
        <time>2020-07-28T07:12:04.180Z</time>
      </trkpt>
      <trkpt lat="61.45574" lon="5.85061">
        <ele>54.675185</ele>
        <time>2020-07-28T07:12:08.166Z</time>
      </trkpt>
      <trkpt lat="61.4558" lon="5.85042">
        <ele>53.657581</ele>
        <time>2020-07-28T07:12:11.163Z</time>
      </trkpt>
      <trkpt lat="61.45589" lon="5.85029">
        <ele>52.680493</ele>
        <time>2020-07-28T07:12:14.186Z</time>
      </trkpt>
      <trkpt lat="61.45601" lon="5.8503">
        <ele>51.600243</ele>
        <time>2020-07-28T07:12:17.166Z</time>
      </trkpt>
      <trkpt lat="61.45614" lon="5.8503">
        <ele>50.693909</ele>
        <time>2020-07-28T07:12:20.205Z</time>
      </trkpt>
      <trkpt lat="61.45625" lon="5.8503">
        <ele>50.638155</ele>
        <time>2020-07-28T07:12:23.180Z</time>
      </trkpt>
      <trkpt lat="61.45637" lon="5.85029">
        <ele>50.582392</ele>
        <time>2020-07-28T07:12:26.167Z</time>
      </trkpt>
      <trkpt lat="61.4565" lon="5.8503">
        <ele>50.519969</ele>
        <time>2020-07-28T07:12:29.189Z</time>
      </trkpt>
      <trkpt lat="61.45662" lon="5.8503">
        <ele>50.461835</ele>
        <time>2020-07-28T07:12:32.173Z</time>
      </trkpt>
      <trkpt lat="61.45673" lon="5.85028">
        <ele>50.408252</ele>
        <time>2020-07-28T07:12:35.189Z</time>
      </trkpt>
      <trkpt lat="61.45685" lon="5.85026">
        <ele>50.355201</ele>
        <time>2020-07-28T07:12:38.202Z</time>
      </trkpt>
      <trkpt lat="61.45698" lon="5.85028">
        <ele>50.290695</ele>
        <time>2020-07-28T07:12:41.181Z</time>
      </trkpt>
      <trkpt lat="61.45707" lon="5.85033">
        <ele>50.246439</ele>
        <time>2020-07-28T07:12:43.164Z</time>
      </trkpt>
      <trkpt lat="61.45718" lon="5.85043">
        <ele>50.18907</ele>
        <time>2020-07-28T07:12:46.181Z</time>
      </trkpt>
      <trkpt lat="61.45729" lon="5.85049">
        <ele>50.133629</ele>
        <time>2020-07-28T07:12:49.187Z</time>
      </trkpt>
      <trkpt lat="61.45741" lon="5.85043">
        <ele>50.076173</ele>
        <time>2020-07-28T07:12:52.185Z</time>
      </trkpt>
      <trkpt lat="61.45751" lon="5.85032">
        <ele>50.020231</ele>
        <time>2020-07-28T07:12:55.190Z</time>
      </trkpt>
      <trkpt lat="61.45764" lon="5.85025">
        <ele>49.958227</ele>
        <time>2020-07-28T07:12:58.201Z</time>
      </trkpt>
      <trkpt lat="61.45776" lon="5.85019">
        <ele>49.898509</ele>
        <time>2020-07-28T07:13:01.172Z</time>
      </trkpt>
      <trkpt lat="61.45787" lon="5.85011">
        <ele>49.889785</ele>
        <time>2020-07-28T07:13:04.181Z</time>
      </trkpt>
      <trkpt lat="61.45797" lon="5.85002">
        <ele>50.454604</ele>
        <time>2020-07-28T07:13:07.169Z</time>
      </trkpt>
      <trkpt lat="61.45806" lon="5.84995">
        <ele>50.99085</ele>
        <time>2020-07-28T07:13:10.192Z</time>
      </trkpt>
      <trkpt lat="61.45816" lon="5.84987">
        <ele>51.548194</ele>
        <time>2020-07-28T07:13:13.180Z</time>
      </trkpt>
      <trkpt lat="61.45825" lon="5.8498">
        <ele>52.040332</ele>
        <time>2020-07-28T07:13:16.177Z</time>
      </trkpt>
      <trkpt lat="61.45833" lon="5.84967">
        <ele>52.597874</ele>
        <time>2020-07-28T07:13:23.207Z</time>
      </trkpt>
      <trkpt lat="61.45842" lon="5.84957">
        <ele>53.153407</ele>
        <time>2020-07-28T07:13:27.184Z</time>
      </trkpt>
      <trkpt lat="61.45853" lon="5.84946">
        <ele>53.759618</ele>
        <time>2020-07-28T07:13:31.181Z</time>
      </trkpt>
      <trkpt lat="61.45861" lon="5.84938">
        <ele>54.237108</ele>
        <time>2020-07-28T07:13:34.169Z</time>
      </trkpt>
      <trkpt lat="61.45869" lon="5.84931">
        <ele>54.729246</ele>
        <time>2020-07-28T07:13:37.195Z</time>
      </trkpt>
      <trkpt lat="61.45878" lon="5.84923">
        <ele>55.219569</ele>
        <time>2020-07-28T07:13:40.193Z</time>
      </trkpt>
      <trkpt lat="61.45888" lon="5.84913">
        <ele>55.803755</ele>
        <time>2020-07-28T07:13:44.179Z</time>
      </trkpt>
      <trkpt lat="61.45898" lon="5.84901">
        <ele>56.41716</ele>
        <time>2020-07-28T07:13:48.181Z</time>
      </trkpt>
      <trkpt lat="61.45906" lon="5.84891">
        <ele>56.959031</ele>
        <time>2020-07-28T07:13:51.175Z</time>
      </trkpt>
      <trkpt lat="61.45915" lon="5.8488">
        <ele>57.493744</ele>
        <time>2020-07-28T07:13:54.175Z</time>
      </trkpt>
      <trkpt lat="61.45923" lon="5.8487">
        <ele>57.991184</ele>
        <time>2020-07-28T07:13:57.187Z</time>
      </trkpt>
      <trkpt lat="61.45931" lon="5.8486">
        <ele>58.477737</ele>
        <time>2020-07-28T07:14:00.193Z</time>
      </trkpt>
      <trkpt lat="61.45941" lon="5.84848">
        <ele>59.071299</ele>
        <time>2020-07-28T07:14:04.172Z</time>
      </trkpt>
      <trkpt lat="61.4595" lon="5.84839">
        <ele>59.538183</ele>
        <time>2020-07-28T07:14:08.166Z</time>
      </trkpt>
      <trkpt lat="61.4596" lon="5.84835">
        <ele>59.901194</ele>
        <time>2020-07-28T07:14:13.182Z</time>
      </trkpt>
      <trkpt lat="61.45969" lon="5.84826">
        <ele>60.228774</ele>
        <time>2020-07-28T07:14:17.214Z</time>
      </trkpt>
      <trkpt lat="61.45975" lon="5.84811">
        <ele>60.548015</ele>
        <time>2020-07-28T07:14:21.158Z</time>
      </trkpt>
      <trkpt lat="61.45978" lon="5.84791">
        <ele>60.890312</ele>
        <time>2020-07-28T07:14:29.167Z</time>
      </trkpt>
      <trkpt lat="61.45983" lon="5.84774">
        <ele>61.209789</ele>
        <time>2020-07-28T07:14:36.199Z</time>
      </trkpt>
      <trkpt lat="61.45988" lon="5.84759">
        <ele>61.518556</ele>
        <time>2020-07-28T07:14:41.167Z</time>
      </trkpt>
      <trkpt lat="61.45994" lon="5.84744">
        <ele>61.830154</ele>
        <time>2020-07-28T07:14:46.198Z</time>
      </trkpt>
      <trkpt lat="61.46001" lon="5.8473">
        <ele>62.158246</ele>
        <time>2020-07-28T07:14:52.193Z</time>
      </trkpt>
      <trkpt lat="61.46009" lon="5.84714">
        <ele>62.537762</ele>
        <time>2020-07-28T07:14:57.182Z</time>
      </trkpt>
      <trkpt lat="61.46017" lon="5.84702">
        <ele>62.884044</ele>
        <time>2020-07-28T07:15:03.171Z</time>
      </trkpt>
      <trkpt lat="61.46213" lon="5.8435">
        <ele>69.127507</ele>
        <time>2020-07-28T07:16:54.271Z</time>
      </trkpt>
      <trkpt lat="61.46223" lon="5.84346">
        <ele>69.164655</ele>
        <time>2020-07-28T07:16:57.186Z</time>
      </trkpt>
      <trkpt lat="61.46229" lon="5.8433">
        <ele>69.198021</ele>
        <time>2020-07-28T07:17:00.173Z</time>
      </trkpt>
      <trkpt lat="61.46236" lon="5.84315">
        <ele>69.232056</ele>
        <time>2020-07-28T07:17:04.178Z</time>
      </trkpt>
      <trkpt lat="61.46243" lon="5.843">
        <ele>69.268909</ele>
        <time>2020-07-28T07:17:08.176Z</time>
      </trkpt>
      <trkpt lat="61.46253" lon="5.84285">
        <ele>69.309328</ele>
        <time>2020-07-28T07:17:12.188Z</time>
      </trkpt>
      <trkpt lat="61.46261" lon="5.84272">
        <ele>69.344663</ele>
        <time>2020-07-28T07:17:15.176Z</time>
      </trkpt>
      <trkpt lat="61.46269" lon="5.84257">
        <ele>69.381918</ele>
        <time>2020-07-28T07:17:18.201Z</time>
      </trkpt>
      <trkpt lat="61.46278" lon="5.84238">
        <ele>69.426184</ele>
        <time>2020-07-28T07:17:21.171Z</time>
      </trkpt>
      <trkpt lat="61.46287" lon="5.84219">
        <ele>69.470359</ele>
        <time>2020-07-28T07:17:24.187Z</time>
      </trkpt>
      <trkpt lat="61.46297" lon="5.84201">
        <ele>69.515856</ele>
        <time>2020-07-28T07:17:27.207Z</time>
      </trkpt>
      <trkpt lat="61.46307" lon="5.84182">
        <ele>69.562235</ele>
        <time>2020-07-28T07:17:30.181Z</time>
      </trkpt>
      <trkpt lat="61.46314" lon="5.84168">
        <ele>69.595134</ele>
        <time>2020-07-28T07:17:32.168Z</time>
      </trkpt>
      <trkpt lat="61.46321" lon="5.84154">
        <ele>69.627619</ele>
        <time>2020-07-28T07:17:34.172Z</time>
      </trkpt>
      <trkpt lat="61.46326" lon="5.84139">
        <ele>69.659161</ele>
        <time>2020-07-28T07:17:36.182Z</time>
      </trkpt>
      <trkpt lat="61.46334" lon="5.84118">
        <ele>69.703719</ele>
        <time>2020-07-28T07:17:39.199Z</time>
      </trkpt>
      <trkpt lat="61.46339" lon="5.84101">
        <ele>69.735551</ele>
        <time>2020-07-28T07:17:41.193Z</time>
      </trkpt>
      <trkpt lat="61.46344" lon="5.84083">
        <ele>69.803371</ele>
        <time>2020-07-28T07:17:43.171Z</time>
      </trkpt>
      <trkpt lat="61.46349" lon="5.84063">
        <ele>69.904244</ele>
        <time>2020-07-28T07:17:45.176Z</time>
      </trkpt>
      <trkpt lat="61.46354" lon="5.84041">
        <ele>70.012661</ele>
        <time>2020-07-28T07:17:47.199Z</time>
      </trkpt>
      <trkpt lat="61.4636" lon="5.8402">
        <ele>70.121828</ele>
        <time>2020-07-28T07:17:49.182Z</time>
      </trkpt>
      <trkpt lat="61.46366" lon="5.83998">
        <ele>70.232704</ele>
        <time>2020-07-28T07:17:51.197Z</time>
      </trkpt>
      <trkpt lat="61.46371" lon="5.83977">
        <ele>70.339097</ele>
        <time>2020-07-28T07:17:53.187Z</time>
      </trkpt>
      <trkpt lat="61.46378" lon="5.83958">
        <ele>70.444531</ele>
        <time>2020-07-28T07:17:55.176Z</time>
      </trkpt>
      <trkpt lat="61.46385" lon="5.83941">
        <ele>70.544213</ele>
        <time>2020-07-28T07:17:57.163Z</time>
      </trkpt>
      <trkpt lat="61.46391" lon="5.83926">
        <ele>70.633415</ele>
        <time>2020-07-28T07:17:59.164Z</time>
      </trkpt>
      <trkpt lat="61.46397" lon="5.83911">
        <ele>70.71731</ele>
        <time>2020-07-28T07:18:01.176Z</time>
      </trkpt>
      <trkpt lat="61.46403" lon="5.83889">
        <ele>70.831574</ele>
        <time>2020-07-28T07:18:04.222Z</time>
      </trkpt>
      <trkpt lat="61.46408" lon="5.83867">
        <ele>70.935967</ele>
        <time>2020-07-28T07:18:07.180Z</time>
      </trkpt>
      <trkpt lat="61.46411" lon="5.83847">
        <ele>71.033782</ele>
        <time>2020-07-28T07:18:10.206Z</time>
      </trkpt>
      <trkpt lat="61.46415" lon="5.83825">
        <ele>71.135149</ele>
        <time>2020-07-28T07:18:14.174Z</time>
      </trkpt>
      <trkpt lat="61.46418" lon="5.83807">
        <ele>71.223268</ele>
        <time>2020-07-28T07:18:18.175Z</time>
      </trkpt>
      <trkpt lat="61.46421" lon="5.83785">
        <ele>71.325591</ele>
        <time>2020-07-28T07:18:23.218Z</time>
      </trkpt>
      <trkpt lat="61.46425" lon="5.83765">
        <ele>71.419736</ele>
        <time>2020-07-28T07:18:28.196Z</time>
      </trkpt>
      <trkpt lat="61.46428" lon="5.83746">
        <ele>71.495177</ele>
        <time>2020-07-28T07:18:32.164Z</time>
      </trkpt>
      <trkpt lat="61.46431" lon="5.83723">
        <ele>71.58523</ele>
        <time>2020-07-28T07:18:36.169Z</time>
      </trkpt>
      <trkpt lat="61.46434" lon="5.83702">
        <ele>71.667156</ele>
        <time>2020-07-28T07:18:40.219Z</time>
      </trkpt>
      <trkpt lat="61.46437" lon="5.83683">
        <ele>71.743042</ele>
        <time>2020-07-28T07:18:44.193Z</time>
      </trkpt>
      <trkpt lat="61.4644" lon="5.83665">
        <ele>71.814905</ele>
        <time>2020-07-28T07:18:48.164Z</time>
      </trkpt>
      <trkpt lat="61.46443" lon="5.83646">
        <ele>71.891041</ele>
        <time>2020-07-28T07:18:53.183Z</time>
      </trkpt>
      <trkpt lat="61.46446" lon="5.83627">
        <ele>71.966568</ele>
        <time>2020-07-28T07:18:58.190Z</time>
      </trkpt>
      <trkpt lat="61.46453" lon="5.83615">
        <ele>72.041696</ele>
        <time>2020-07-28T07:19:04.187Z</time>
      </trkpt>
      <trkpt lat="61.4646" lon="5.83631">
        <ele>72.120928</ele>
        <time>2020-07-28T07:19:10.196Z</time>
      </trkpt>
      <trkpt lat="61.46463" lon="5.83649">
        <ele>72.192267</ele>
        <time>2020-07-28T07:19:15.185Z</time>
      </trkpt>
      <trkpt lat="61.46471" lon="5.83641">
        <ele>72.264231</ele>
        <time>2020-07-28T07:19:19.184Z</time>
      </trkpt>
      <trkpt lat="61.46474" lon="5.83617">
        <ele>72.360491</ele>
        <time>2020-07-28T07:19:22.189Z</time>
      </trkpt>
      <trkpt lat="61.46474" lon="5.83597">
        <ele>72.435259</ele>
        <time>2020-07-28T07:19:24.179Z</time>
      </trkpt>
      <trkpt lat="61.46472" lon="5.83576">
        <ele>72.515186</ele>
        <time>2020-07-28T07:19:26.193Z</time>
      </trkpt>
      <trkpt lat="61.4647" lon="5.83556">
        <ele>72.591368</ele>
        <time>2020-07-28T07:19:28.175Z</time>
      </trkpt>
      <trkpt lat="61.46469" lon="5.83536">
        <ele>72.666514</ele>
        <time>2020-07-28T07:19:30.173Z</time>
      </trkpt>
      <trkpt lat="61.46472" lon="5.83513">
        <ele>72.758017</ele>
        <time>2020-07-28T07:19:33.170Z</time>
      </trkpt>
      <trkpt lat="61.46478" lon="5.83492">
        <ele>72.840642</ele>
        <time>2020-07-28T07:19:36.187Z</time>
      </trkpt>
      <trkpt lat="61.46484" lon="5.83471">
        <ele>72.685057</ele>
        <time>2020-07-28T07:19:39.191Z</time>
      </trkpt>
      <trkpt lat="61.46489" lon="5.83447">
        <ele>72.521094</ele>
        <time>2020-07-28T07:19:42.189Z</time>
      </trkpt>
      <trkpt lat="61.46494" lon="5.8343">
        <ele>72.396062</ele>
        <time>2020-07-28T07:19:44.174Z</time>
      </trkpt>
      <trkpt lat="61.46498" lon="5.83412">
        <ele>72.267628</ele>
        <time>2020-07-28T07:19:46.195Z</time>
      </trkpt>
      <trkpt lat="61.46502" lon="5.83392">
        <ele>72.131173</ele>
        <time>2020-07-28T07:19:48.186Z</time>
      </trkpt>
      <trkpt lat="61.46507" lon="5.83372">
        <ele>71.989506</ele>
        <time>2020-07-28T07:19:50.187Z</time>
      </trkpt>
      <trkpt lat="61.46511" lon="5.83351">
        <ele>71.84217</ele>
        <time>2020-07-28T07:19:52.200Z</time>
      </trkpt>
      <trkpt lat="61.46517" lon="5.83329">
        <ele>71.680849</ele>
        <time>2020-07-28T07:19:54.218Z</time>
      </trkpt>
      <trkpt lat="61.46522" lon="5.83306">
        <ele>71.519179</ele>
        <time>2020-07-28T07:19:56.192Z</time>
      </trkpt>
      <trkpt lat="61.46528" lon="5.83282">
        <ele>71.351204</ele>
        <time>2020-07-28T07:19:58.176Z</time>
      </trkpt>
      <trkpt lat="61.46534" lon="5.83257">
        <ele>71.172908</ele>
        <time>2020-07-28T07:20:00.168Z</time>
      </trkpt>
      <trkpt lat="61.46539" lon="5.8323">
        <ele>70.987642</ele>
        <time>2020-07-28T07:20:02.175Z</time>
      </trkpt>
      <trkpt lat="61.46544" lon="5.83202">
        <ele>70.797255</ele>
        <time>2020-07-28T07:20:04.175Z</time>
      </trkpt>
      <trkpt lat="61.46548" lon="5.83172">
        <ele>70.598396</ele>
        <time>2020-07-28T07:20:06.175Z</time>
      </trkpt>
      <trkpt lat="61.46552" lon="5.83141">
        <ele>70.284207</ele>
        <time>2020-07-28T07:20:08.191Z</time>
      </trkpt>
      <trkpt lat="61.46554" lon="5.8311">
        <ele>69.693156</ele>
        <time>2020-07-28T07:20:10.187Z</time>
      </trkpt>
      <trkpt lat="61.46554" lon="5.83078">
        <ele>69.094732</ele>
        <time>2020-07-28T07:20:12.172Z</time>
      </trkpt>
      <trkpt lat="61.46552" lon="5.83046">
        <ele>68.47711</ele>
        <time>2020-07-28T07:20:14.176Z</time>
      </trkpt>
      <trkpt lat="61.46549" lon="5.83013">
        <ele>67.841123</ele>
        <time>2020-07-28T07:20:16.217Z</time>
      </trkpt>
      <trkpt lat="61.46545" lon="5.82979">
        <ele>67.199315</ele>
        <time>2020-07-28T07:20:18.167Z</time>
      </trkpt>
      <trkpt lat="61.46542" lon="5.82945">
        <ele>66.541907</ele>
        <time>2020-07-28T07:20:20.186Z</time>
      </trkpt>
      <trkpt lat="61.46539" lon="5.8291">
        <ele>65.871333</ele>
        <time>2020-07-28T07:20:22.218Z</time>
      </trkpt>
      <trkpt lat="61.46537" lon="5.82876">
        <ele>65.212436</ele>
        <time>2020-07-28T07:20:24.170Z</time>
      </trkpt>
      <trkpt lat="61.46536" lon="5.82841">
        <ele>64.551148</ele>
        <time>2020-07-28T07:20:26.218Z</time>
      </trkpt>
      <trkpt lat="61.46537" lon="5.82806">
        <ele>63.887974</ele>
        <time>2020-07-28T07:20:28.172Z</time>
      </trkpt>
      <trkpt lat="61.46539" lon="5.82771">
        <ele>63.298473</ele>
        <time>2020-07-28T07:20:30.167Z</time>
      </trkpt>
      <trkpt lat="61.46544" lon="5.82737">
        <ele>63.037273</ele>
        <time>2020-07-28T07:20:32.191Z</time>
      </trkpt>
      <trkpt lat="61.4655" lon="5.82705">
        <ele>62.775705</ele>
        <time>2020-07-28T07:20:34.184Z</time>
      </trkpt>
      <trkpt lat="61.46559" lon="5.82673">
        <ele>62.501613</ele>
        <time>2020-07-28T07:20:36.169Z</time>
      </trkpt>
      <trkpt lat="61.46569" lon="5.82643">
        <ele>62.223995</ele>
        <time>2020-07-28T07:20:38.196Z</time>
      </trkpt>
      <trkpt lat="61.4658" lon="5.82615">
        <ele>61.949023</ele>
        <time>2020-07-28T07:20:40.173Z</time>
      </trkpt>
      <trkpt lat="61.46593" lon="5.82591">
        <ele>61.673991</ele>
        <time>2020-07-28T07:20:42.170Z</time>
      </trkpt>
      <trkpt lat="61.46608" lon="5.82569">
        <ele>61.397622</ele>
        <time>2020-07-28T07:20:44.180Z</time>
      </trkpt>
      <trkpt lat="61.46623" lon="5.82551">
        <ele>61.121804</ele>
        <time>2020-07-28T07:20:46.199Z</time>
      </trkpt>
      <trkpt lat="61.46639" lon="5.82537">
        <ele>60.843265</ele>
        <time>2020-07-28T07:20:48.178Z</time>
      </trkpt>
      <trkpt lat="61.46657" lon="5.82528">
        <ele>60.560261</ele>
        <time>2020-07-28T07:20:50.205Z</time>
      </trkpt>
      <trkpt lat="61.46666" lon="5.82525">
        <ele>60.500479</ele>
        <time>2020-07-28T07:20:51.207Z</time>
      </trkpt>
      <trkpt lat="61.46675" lon="5.82523">
        <ele>60.470478</ele>
        <time>2020-07-28T07:20:52.165Z</time>
      </trkpt>
      <trkpt lat="61.46685" lon="5.82521">
        <ele>60.440883</ele>
        <time>2020-07-28T07:20:53.178Z</time>
      </trkpt>
      <trkpt lat="61.46693" lon="5.8252">
        <ele>60.411946</ele>
        <time>2020-07-28T07:20:54.212Z</time>
      </trkpt>
      <trkpt lat="61.4671" lon="5.82518">
        <ele>60.357663</ele>
        <time>2020-07-28T07:20:56.170Z</time>
      </trkpt>
      <trkpt lat="61.46726" lon="5.82515">
        <ele>60.305276</ele>
        <time>2020-07-28T07:20:58.206Z</time>
      </trkpt>
      <trkpt lat="61.46741" lon="5.82512">
        <ele>60.256094</ele>
        <time>2020-07-28T07:21:00.174Z</time>
      </trkpt>
      <trkpt lat="61.46755" lon="5.82508">
        <ele>60.210474</ele>
        <time>2020-07-28T07:21:02.192Z</time>
      </trkpt>
      <trkpt lat="61.46768" lon="5.82501">
        <ele>60.167753</ele>
        <time>2020-07-28T07:21:04.175Z</time>
      </trkpt>
      <trkpt lat="61.4678" lon="5.82493">
        <ele>60.127215</ele>
        <time>2020-07-28T07:21:06.174Z</time>
      </trkpt>
      <trkpt lat="61.46791" lon="5.82484">
        <ele>60.089578</ele>
        <time>2020-07-28T07:21:08.166Z</time>
      </trkpt>
      <trkpt lat="61.468" lon="5.82474">
        <ele>60.0548</ele>
        <time>2020-07-28T07:21:10.168Z</time>
      </trkpt>
      <trkpt lat="61.46809" lon="5.82463">
        <ele>60.023147</ele>
        <time>2020-07-28T07:21:12.179Z</time>
      </trkpt>
      <trkpt lat="61.46816" lon="5.82453">
        <ele>59.993426</ele>
        <time>2020-07-28T07:21:14.258Z</time>
      </trkpt>
      <trkpt lat="61.46825" lon="5.82443">
        <ele>59.962878</ele>
        <time>2020-07-28T07:21:16.186Z</time>
      </trkpt>
      <trkpt lat="61.46833" lon="5.82428">
        <ele>60.264666</ele>
        <time>2020-07-28T07:21:19.170Z</time>
      </trkpt>
      <trkpt lat="61.46841" lon="5.82414">
        <ele>61.014099</ele>
        <time>2020-07-28T07:21:22.200Z</time>
      </trkpt>
      <trkpt lat="61.46849" lon="5.82399">
        <ele>61.776817</ele>
        <time>2020-07-28T07:21:25.187Z</time>
      </trkpt>
      <trkpt lat="61.46858" lon="5.82383">
        <ele>62.674239</ele>
        <time>2020-07-28T07:21:29.186Z</time>
      </trkpt>
      <trkpt lat="61.46866" lon="5.82369">
        <ele>63.418716</ele>
        <time>2020-07-28T07:21:32.166Z</time>
      </trkpt>
      <trkpt lat="61.46875" lon="5.82354">
        <ele>64.280435</ele>
        <time>2020-07-28T07:21:36.178Z</time>
      </trkpt>
      <trkpt lat="61.46884" lon="5.82338">
        <ele>65.133997</ele>
        <time>2020-07-28T07:21:40.189Z</time>
      </trkpt>
      <trkpt lat="61.46893" lon="5.82324">
        <ele>65.965416</ele>
        <time>2020-07-28T07:21:44.228Z</time>
      </trkpt>
      <trkpt lat="61.46901" lon="5.8231">
        <ele>66.754303</ele>
        <time>2020-07-28T07:21:48.178Z</time>
      </trkpt>
      <trkpt lat="61.46909" lon="5.82296">
        <ele>67.486611</ele>
        <time>2020-07-28T07:21:52.186Z</time>
      </trkpt>
      <trkpt lat="61.46918" lon="5.82281">
        <ele>68.316671</ele>
        <time>2020-07-28T07:21:56.174Z</time>
      </trkpt>
      <trkpt lat="61.46927" lon="5.82266">
        <ele>69.178384</ele>
        <time>2020-07-28T07:22:00.184Z</time>
      </trkpt>
      <trkpt lat="61.46935" lon="5.82252">
        <ele>69.935529</ele>
        <time>2020-07-28T07:22:04.223Z</time>
      </trkpt>
      <trkpt lat="61.46943" lon="5.8224">
        <ele>70.642198</ele>
        <time>2020-07-28T07:22:08.176Z</time>
      </trkpt>
      <trkpt lat="61.46949" lon="5.82227">
        <ele>71.300383</ele>
        <time>2020-07-28T07:22:12.171Z</time>
      </trkpt>
      <trkpt lat="61.46957" lon="5.82216">
        <ele>71.976287</ele>
        <time>2020-07-28T07:22:16.196Z</time>
      </trkpt>
      <trkpt lat="61.46964" lon="5.82204">
        <ele>72.657832</ele>
        <time>2020-07-28T07:22:20.200Z</time>
      </trkpt>
      <trkpt lat="61.46971" lon="5.82191">
        <ele>73.278444</ele>
        <time>2020-07-28T07:22:24.165Z</time>
      </trkpt>
      <trkpt lat="61.46979" lon="5.82177">
        <ele>73.831056</ele>
        <time>2020-07-28T07:22:29.184Z</time>
      </trkpt>
      <trkpt lat="61.46987" lon="5.82161">
        <ele>74.40288</ele>
        <time>2020-07-28T07:22:34.192Z</time>
      </trkpt>
      <trkpt lat="61.46995" lon="5.82145">
        <ele>74.981985</ele>
        <time>2020-07-28T07:22:39.202Z</time>
      </trkpt>
      <trkpt lat="61.47001" lon="5.82132">
        <ele>75.464093</ele>
        <time>2020-07-28T07:22:43.200Z</time>
      </trkpt>
      <trkpt lat="61.47009" lon="5.82115">
        <ele>76.055239</ele>
        <time>2020-07-28T07:22:48.236Z</time>
      </trkpt>
      <trkpt lat="61.47015" lon="5.82101">
        <ele>76.54452</ele>
        <time>2020-07-28T07:22:52.175Z</time>
      </trkpt>
      <trkpt lat="61.47021" lon="5.82083">
        <ele>77.073587</ele>
        <time>2020-07-28T07:22:56.223Z</time>
      </trkpt>
      <trkpt lat="61.47026" lon="5.82065">
        <ele>77.608392</ele>
        <time>2020-07-28T07:23:00.188Z</time>
      </trkpt>
      <trkpt lat="61.47032" lon="5.82046">
        <ele>78.161768</ele>
        <time>2020-07-28T07:23:04.170Z</time>
      </trkpt>
      <trkpt lat="61.47037" lon="5.8203">
        <ele>78.653541</ele>
        <time>2020-07-28T07:23:08.230Z</time>
      </trkpt>
      <trkpt lat="61.4704" lon="5.8201">
        <ele>79.179324</ele>
        <time>2020-07-28T07:23:12.219Z</time>
      </trkpt>
      <trkpt lat="61.47044" lon="5.81991">
        <ele>79.718322</ele>
        <time>2020-07-28T07:23:16.198Z</time>
      </trkpt>
      <trkpt lat="61.47047" lon="5.81971">
        <ele>80.237581</ele>
        <time>2020-07-28T07:23:20.197Z</time>
      </trkpt>
      <trkpt lat="61.4705" lon="5.81951">
        <ele>80.752652</ele>
        <time>2020-07-28T07:23:24.195Z</time>
      </trkpt>
      <trkpt lat="61.47053" lon="5.81929">
        <ele>81.321784</ele>
        <time>2020-07-28T07:23:29.170Z</time>
      </trkpt>
      <trkpt lat="61.47056" lon="5.81907">
        <ele>81.895762</ele>
        <time>2020-07-28T07:23:34.181Z</time>
      </trkpt>
      <trkpt lat="61.47058" lon="5.81886">
        <ele>82.44136</ele>
        <time>2020-07-28T07:23:39.185Z</time>
      </trkpt>
      <trkpt lat="61.4706" lon="5.81864">
        <ele>82.022301</ele>
        <time>2020-07-28T07:23:44.193Z</time>
      </trkpt>
      <trkpt lat="61.47061" lon="5.81841">
        <ele>81.197894</ele>
        <time>2020-07-28T07:23:49.196Z</time>
      </trkpt>
      <trkpt lat="61.47063" lon="5.81818">
        <ele>80.391915</ele>
        <time>2020-07-28T07:23:54.177Z</time>
      </trkpt>
      <trkpt lat="61.47065" lon="5.81796">
        <ele>79.581223</ele>
        <time>2020-07-28T07:23:59.224Z</time>
      </trkpt>
      <trkpt lat="61.47067" lon="5.81777">
        <ele>78.906009</ele>
        <time>2020-07-28T07:24:03.172Z</time>
      </trkpt>
      <trkpt lat="61.47069" lon="5.81758">
        <ele>78.20783</ele>
        <time>2020-07-28T07:24:09.186Z</time>
      </trkpt>
      <trkpt lat="61.47202" lon="5.81625">
        <ele>72.748903</ele>
        <time>2020-07-28T07:25:06.346Z</time>
      </trkpt>
      <trkpt lat="61.47194" lon="5.8149">
        <ele>81.284491</ele>
        <time>2020-07-28T07:25:07.226Z</time>
      </trkpt>
      <trkpt lat="61.4719" lon="5.81462">
        <ele>83.093086</ele>
        <time>2020-07-28T07:25:08.164Z</time>
      </trkpt>
      <trkpt lat="61.47204" lon="5.81478">
        <ele>85.159074</ele>
        <time>2020-07-28T07:25:10.172Z</time>
      </trkpt>
      <trkpt lat="61.47214" lon="5.81472">
        <ele>86.534408</ele>
        <time>2020-07-28T07:25:13.198Z</time>
      </trkpt>
      <trkpt lat="61.47223" lon="5.81461">
        <ele>87.898119</ele>
        <time>2020-07-28T07:25:16.215Z</time>
      </trkpt>
      <trkpt lat="61.47233" lon="5.81449">
        <ele>89.459611</ele>
        <time>2020-07-28T07:25:19.207Z</time>
      </trkpt>
      <trkpt lat="61.47242" lon="5.81434">
        <ele>90.932253</ele>
        <time>2020-07-28T07:25:22.196Z</time>
      </trkpt>
      <trkpt lat="61.4725" lon="5.81419">
        <ele>92.38542</ele>
        <time>2020-07-28T07:25:25.184Z</time>
      </trkpt>
      <trkpt lat="61.47259" lon="5.81402">
        <ele>92.795332</ele>
        <time>2020-07-28T07:25:28.183Z</time>
      </trkpt>
      <trkpt lat="61.47266" lon="5.81385">
        <ele>92.657793</ele>
        <time>2020-07-28T07:25:31.197Z</time>
      </trkpt>
      <trkpt lat="61.47273" lon="5.81369">
        <ele>92.529283</ele>
        <time>2020-07-28T07:25:34.177Z</time>
      </trkpt>
      <trkpt lat="61.47279" lon="5.81352">
        <ele>92.398137</ele>
        <time>2020-07-28T07:25:37.202Z</time>
      </trkpt>
      <trkpt lat="61.47285" lon="5.81331">
        <ele>92.257037</ele>
        <time>2020-07-28T07:25:40.179Z</time>
      </trkpt>
      <trkpt lat="61.47291" lon="5.81309">
        <ele>92.099479</ele>
        <time>2020-07-28T07:25:43.183Z</time>
      </trkpt>
      <trkpt lat="61.47295" lon="5.81291">
        <ele>91.9824</ele>
        <time>2020-07-28T07:25:45.183Z</time>
      </trkpt>
      <trkpt lat="61.473" lon="5.81273">
        <ele>91.861189</ele>
        <time>2020-07-28T07:25:47.186Z</time>
      </trkpt>
      <trkpt lat="61.47304" lon="5.81255">
        <ele>91.737563</ele>
        <time>2020-07-28T07:25:49.165Z</time>
      </trkpt>
      <trkpt lat="61.47309" lon="5.81237">
        <ele>91.616792</ele>
        <time>2020-07-28T07:25:51.174Z</time>
      </trkpt>
      <trkpt lat="61.47313" lon="5.81218">
        <ele>91.489609</ele>
        <time>2020-07-28T07:25:53.181Z</time>
      </trkpt>
      <trkpt lat="61.47317" lon="5.81198">
        <ele>91.355782</ele>
        <time>2020-07-28T07:25:55.182Z</time>
      </trkpt>
      <trkpt lat="61.47321" lon="5.81177">
        <ele>91.224717</ele>
        <time>2020-07-28T07:25:57.198Z</time>
      </trkpt>
      <trkpt lat="61.4759" lon="5.80847">
        <ele>82.084118</ele>
        <time>2020-07-28T07:26:29.189Z</time>
      </trkpt>
      <trkpt lat="61.47605" lon="5.8088">
        <ele>79.874647</ele>
        <time>2020-07-28T07:26:30.225Z</time>
      </trkpt>
      <trkpt lat="61.47626" lon="5.80854">
        <ele>77.397532</ele>
        <time>2020-07-28T07:26:33.184Z</time>
      </trkpt>
      <trkpt lat="61.47638" lon="5.80832">
        <ele>75.762837</ele>
        <time>2020-07-28T07:26:35.187Z</time>
      </trkpt>
      <trkpt lat="61.4765" lon="5.8081">
        <ele>74.140734</ele>
        <time>2020-07-28T07:26:37.175Z</time>
      </trkpt>
      <trkpt lat="61.47663" lon="5.80789">
        <ele>72.511703</ele>
        <time>2020-07-28T07:26:39.168Z</time>
      </trkpt>
      <trkpt lat="61.47675" lon="5.80771">
        <ele>72.044211</ele>
        <time>2020-07-28T07:26:41.205Z</time>
      </trkpt>
      <trkpt lat="61.47687" lon="5.80755">
        <ele>71.664764</ele>
        <time>2020-07-28T07:26:43.215Z</time>
      </trkpt>
      <trkpt lat="61.47699" lon="5.80741">
        <ele>71.280426</ele>
        <time>2020-07-28T07:26:45.163Z</time>
      </trkpt>
      <trkpt lat="61.4771" lon="5.80729">
        <ele>70.936691</ele>
        <time>2020-07-28T07:26:47.183Z</time>
      </trkpt>
      <trkpt lat="61.47721" lon="5.80722">
        <ele>70.627651</ele>
        <time>2020-07-28T07:26:49.168Z</time>
      </trkpt>
      <trkpt lat="61.47732" lon="5.80717">
        <ele>70.331098</ele>
        <time>2020-07-28T07:26:51.173Z</time>
      </trkpt>
      <trkpt lat="61.47742" lon="5.80713">
        <ele>70.037191</ele>
        <time>2020-07-28T07:26:53.172Z</time>
      </trkpt>
      <trkpt lat="61.47752" lon="5.8071">
        <ele>69.76106</ele>
        <time>2020-07-28T07:26:55.176Z</time>
      </trkpt>
      <trkpt lat="61.47763" lon="5.80709">
        <ele>69.480788</ele>
        <time>2020-07-28T07:26:57.174Z</time>
      </trkpt>
      <trkpt lat="61.47773" lon="5.80711">
        <ele>69.180381</ele>
        <time>2020-07-28T07:26:59.184Z</time>
      </trkpt>
      <trkpt lat="61.47784" lon="5.80715">
        <ele>68.886044</ele>
        <time>2020-07-28T07:27:01.234Z</time>
      </trkpt>
      <trkpt lat="61.47794" lon="5.80718">
        <ele>68.606659</ele>
        <time>2020-07-28T07:27:03.180Z</time>
      </trkpt>
      <trkpt lat="61.47804" lon="5.80723">
        <ele>68.328825</ele>
        <time>2020-07-28T07:27:05.188Z</time>
      </trkpt>
      <trkpt lat="61.47814" lon="5.8073">
        <ele>68.039829</ele>
        <time>2020-07-28T07:27:07.171Z</time>
      </trkpt>
      <trkpt lat="61.47824" lon="5.80736">
        <ele>67.765631</ele>
        <time>2020-07-28T07:27:09.177Z</time>
      </trkpt>
      <trkpt lat="61.47833" lon="5.80743">
        <ele>67.515569</ele>
        <time>2020-07-28T07:27:11.178Z</time>
      </trkpt>
      <trkpt lat="61.47843" lon="5.80751">
        <ele>67.495212</ele>
        <time>2020-07-28T07:27:13.173Z</time>
      </trkpt>
      <trkpt lat="61.47851" lon="5.80759">
        <ele>67.476241</ele>
        <time>2020-07-28T07:27:15.244Z</time>
      </trkpt>
      <trkpt lat="61.47861" lon="5.80766">
        <ele>67.456762</ele>
        <time>2020-07-28T07:27:17.170Z</time>
      </trkpt>
      <trkpt lat="61.4787" lon="5.80776">
        <ele>67.435959</ele>
        <time>2020-07-28T07:27:19.179Z</time>
      </trkpt>
      <trkpt lat="61.47879" lon="5.80788">
        <ele>67.414077</ele>
        <time>2020-07-28T07:27:21.181Z</time>
      </trkpt>
      <trkpt lat="61.47888" lon="5.808">
        <ele>67.393427</ele>
        <time>2020-07-28T07:27:23.175Z</time>
      </trkpt>
      <trkpt lat="61.47897" lon="5.80811">
        <ele>67.373658</ele>
        <time>2020-07-28T07:27:25.174Z</time>
      </trkpt>
      <trkpt lat="61.47904" lon="5.80824">
        <ele>67.354472</ele>
        <time>2020-07-28T07:27:27.162Z</time>
      </trkpt>
      <trkpt lat="61.47911" lon="5.80837">
        <ele>67.335556</ele>
        <time>2020-07-28T07:27:29.179Z</time>
      </trkpt>
      <trkpt lat="61.47918" lon="5.80854">
        <ele>67.315423</ele>
        <time>2020-07-28T07:27:31.212Z</time>
      </trkpt>
      <trkpt lat="61.47924" lon="5.80872">
        <ele>67.294424</ele>
        <time>2020-07-28T07:27:33.195Z</time>
      </trkpt>
      <trkpt lat="61.47928" lon="5.8089">
        <ele>67.274577</ele>
        <time>2020-07-28T07:27:35.179Z</time>
      </trkpt>
      <trkpt lat="61.47933" lon="5.80908">
        <ele>67.255928</ele>
        <time>2020-07-28T07:27:37.186Z</time>
      </trkpt>
      <trkpt lat="61.47938" lon="5.80925">
        <ele>67.237043</ele>
        <time>2020-07-28T07:27:39.183Z</time>
      </trkpt>
      <trkpt lat="61.47942" lon="5.80944">
        <ele>67.216807</ele>
        <time>2020-07-28T07:27:41.178Z</time>
      </trkpt>
      <trkpt lat="61.47946" lon="5.80963">
        <ele>67.197677</ele>
        <time>2020-07-28T07:27:43.215Z</time>
      </trkpt>
      <trkpt lat="61.4795" lon="5.80981">
        <ele>67.179065</ele>
        <time>2020-07-28T07:27:45.186Z</time>
      </trkpt>
      <trkpt lat="61.47954" lon="5.80999">
        <ele>67.157818</ele>
        <time>2020-07-28T07:27:47.165Z</time>
      </trkpt>
      <trkpt lat="61.47958" lon="5.81016">
        <ele>66.975856</ele>
        <time>2020-07-28T07:27:49.199Z</time>
      </trkpt>
      <trkpt lat="61.47962" lon="5.81034">
        <ele>66.785625</ele>
        <time>2020-07-28T07:27:51.177Z</time>
      </trkpt>
      <trkpt lat="61.47967" lon="5.81054">
        <ele>66.581098</ele>
        <time>2020-07-28T07:27:53.199Z</time>
      </trkpt>
      <trkpt lat="61.47972" lon="5.81073">
        <ele>66.37024</ele>
        <time>2020-07-28T07:27:55.173Z</time>
      </trkpt>
      <trkpt lat="61.47978" lon="5.81094">
        <ele>66.152852</ele>
        <time>2020-07-28T07:27:57.217Z</time>
      </trkpt>
      <trkpt lat="61.47983" lon="5.81114">
        <ele>65.937361</ele>
        <time>2020-07-28T07:27:59.182Z</time>
      </trkpt>
      <trkpt lat="61.47988" lon="5.81134">
        <ele>65.727742</ele>
        <time>2020-07-28T07:28:01.169Z</time>
      </trkpt>
      <trkpt lat="61.47993" lon="5.81155">
        <ele>65.51281</ele>
        <time>2020-07-28T07:28:03.186Z</time>
      </trkpt>
      <trkpt lat="61.47998" lon="5.81176">
        <ele>65.283859</ele>
        <time>2020-07-28T07:28:05.183Z</time>
      </trkpt>
      <trkpt lat="61.48004" lon="5.81198">
        <ele>65.050452</ele>
        <time>2020-07-28T07:28:07.174Z</time>
      </trkpt>
      <trkpt lat="61.4801" lon="5.8122">
        <ele>64.818232</ele>
        <time>2020-07-28T07:28:09.193Z</time>
      </trkpt>
      <trkpt lat="61.48016" lon="5.81242">
        <ele>64.581183</ele>
        <time>2020-07-28T07:28:11.210Z</time>
      </trkpt>
      <trkpt lat="61.48023" lon="5.81263">
        <ele>64.339923</ele>
        <time>2020-07-28T07:28:13.179Z</time>
      </trkpt>
      <trkpt lat="61.48031" lon="5.81284">
        <ele>64.092561</ele>
        <time>2020-07-28T07:28:15.195Z</time>
      </trkpt>
      <trkpt lat="61.4804" lon="5.81304">
        <ele>63.840338</ele>
        <time>2020-07-28T07:28:17.181Z</time>
      </trkpt>
      <trkpt lat="61.4805" lon="5.8132">
        <ele>63.598646</ele>
        <time>2020-07-28T07:28:19.183Z</time>
      </trkpt>
      <trkpt lat="61.4806" lon="5.81337">
        <ele>63.355821</ele>
        <time>2020-07-28T07:28:21.178Z</time>
      </trkpt>
      <trkpt lat="61.48071" lon="5.81352">
        <ele>63.119355</ele>
        <time>2020-07-28T07:28:23.188Z</time>
      </trkpt>
      <trkpt lat="61.48082" lon="5.81362">
        <ele>62.892723</ele>
        <time>2020-07-28T07:28:25.204Z</time>
      </trkpt>
      <trkpt lat="61.48093" lon="5.81371">
        <ele>62.661928</ele>
        <time>2020-07-28T07:28:27.174Z</time>
      </trkpt>
      <trkpt lat="61.48105" lon="5.8138">
        <ele>62.42883</ele>
        <time>2020-07-28T07:28:29.184Z</time>
      </trkpt>
      <trkpt lat="61.48117" lon="5.81388">
        <ele>62.209713</ele>
        <time>2020-07-28T07:28:31.202Z</time>
      </trkpt>
      <trkpt lat="61.48128" lon="5.81394">
        <ele>61.994491</ele>
        <time>2020-07-28T07:28:33.172Z</time>
      </trkpt>
      <trkpt lat="61.48138" lon="5.81398">
        <ele>61.794895</ele>
        <time>2020-07-28T07:28:35.202Z</time>
      </trkpt>
      <trkpt lat="61.48148" lon="5.81401">
        <ele>61.612928</ele>
        <time>2020-07-28T07:28:37.195Z</time>
      </trkpt>
      <trkpt lat="61.48158" lon="5.81404">
        <ele>61.436993</ele>
        <time>2020-07-28T07:28:39.180Z</time>
      </trkpt>
      <trkpt lat="61.48167" lon="5.81406">
        <ele>61.26397</ele>
        <time>2020-07-28T07:28:41.183Z</time>
      </trkpt>
      <trkpt lat="61.48176" lon="5.81407">
        <ele>61.089802</ele>
        <time>2020-07-28T07:28:43.179Z</time>
      </trkpt>
      <trkpt lat="61.48186" lon="5.81406">
        <ele>60.913891</ele>
        <time>2020-07-28T07:28:45.164Z</time>
      </trkpt>
      <trkpt lat="61.48195" lon="5.81404">
        <ele>60.738649</ele>
        <time>2020-07-28T07:28:47.178Z</time>
      </trkpt>
      <trkpt lat="61.48205" lon="5.81402">
        <ele>60.55808</ele>
        <time>2020-07-28T07:28:49.202Z</time>
      </trkpt>
      <trkpt lat="61.48214" lon="5.814">
        <ele>60.386409</ele>
        <time>2020-07-28T07:28:51.184Z</time>
      </trkpt>
      <trkpt lat="61.48227" lon="5.81396">
        <ele>60.300271</ele>
        <time>2020-07-28T07:28:54.183Z</time>
      </trkpt>
      <trkpt lat="61.4824" lon="5.81392">
        <ele>60.276343</ele>
        <time>2020-07-28T07:28:57.173Z</time>
      </trkpt>
      <trkpt lat="61.48253" lon="5.8139">
        <ele>60.251825</ele>
        <time>2020-07-28T07:29:00.200Z</time>
      </trkpt>
      <trkpt lat="61.48263" lon="5.81388">
        <ele>60.234859</ele>
        <time>2020-07-28T07:29:02.166Z</time>
      </trkpt>
      <trkpt lat="61.48272" lon="5.81387">
        <ele>60.217378</ele>
        <time>2020-07-28T07:29:04.174Z</time>
      </trkpt>
      <trkpt lat="61.48282" lon="5.81388">
        <ele>60.199174</ele>
        <time>2020-07-28T07:29:06.180Z</time>
      </trkpt>
      <trkpt lat="61.48292" lon="5.8139">
        <ele>60.181262</ele>
        <time>2020-07-28T07:29:08.189Z</time>
      </trkpt>
      <trkpt lat="61.48301" lon="5.81392">
        <ele>60.163182</ele>
        <time>2020-07-28T07:29:10.169Z</time>
      </trkpt>
      <trkpt lat="61.48312" lon="5.81395">
        <ele>60.144471</ele>
        <time>2020-07-28T07:29:12.189Z</time>
      </trkpt>
      <trkpt lat="61.48322" lon="5.81399">
        <ele>60.125054</ele>
        <time>2020-07-28T07:29:14.186Z</time>
      </trkpt>
      <trkpt lat="61.48333" lon="5.81404">
        <ele>60.103893</ele>
        <time>2020-07-28T07:29:16.192Z</time>
      </trkpt>
      <trkpt lat="61.48344" lon="5.81412">
        <ele>60.082108</ele>
        <time>2020-07-28T07:29:18.176Z</time>
      </trkpt>
      <trkpt lat="61.48356" lon="5.81421">
        <ele>60.059219</ele>
        <time>2020-07-28T07:29:20.216Z</time>
      </trkpt>
      <trkpt lat="61.48368" lon="5.81431">
        <ele>60.035485</ele>
        <time>2020-07-28T07:29:22.187Z</time>
      </trkpt>
      <trkpt lat="61.48381" lon="5.81442">
        <ele>60.010499</ele>
        <time>2020-07-28T07:29:24.184Z</time>
      </trkpt>
      <trkpt lat="61.48393" lon="5.81454">
        <ele>59.99918</ele>
        <time>2020-07-28T07:29:26.192Z</time>
      </trkpt>
      <trkpt lat="61.48405" lon="5.81465">
        <ele>60.18421</ele>
        <time>2020-07-28T07:29:28.193Z</time>
      </trkpt>
      <trkpt lat="61.48417" lon="5.81475">
        <ele>60.361557</ele>
        <time>2020-07-28T07:29:30.171Z</time>
      </trkpt>
      <trkpt lat="61.48428" lon="5.81484">
        <ele>60.524573</ele>
        <time>2020-07-28T07:29:32.201Z</time>
      </trkpt>
      <trkpt lat="61.48438" lon="5.81492">
        <ele>60.667675</ele>
        <time>2020-07-28T07:29:34.178Z</time>
      </trkpt>
      <trkpt lat="61.48446" lon="5.81499">
        <ele>60.797363</ele>
        <time>2020-07-28T07:29:36.173Z</time>
      </trkpt>
      <trkpt lat="61.48458" lon="5.81509">
        <ele>60.977287</ele>
        <time>2020-07-28T07:29:39.179Z</time>
      </trkpt>
      <trkpt lat="61.48469" lon="5.81519">
        <ele>61.139785</ele>
        <time>2020-07-28T07:29:42.204Z</time>
      </trkpt>
      <trkpt lat="61.48479" lon="5.81527">
        <ele>61.289002</ele>
        <time>2020-07-28T07:29:45.188Z</time>
      </trkpt>
      <trkpt lat="61.48488" lon="5.81535">
        <ele>61.414963</ele>
        <time>2020-07-28T07:29:48.198Z</time>
      </trkpt>
      <trkpt lat="61.48498" lon="5.81542">
        <ele>61.567524</ele>
        <time>2020-07-28T07:29:52.179Z</time>
      </trkpt>
      <trkpt lat="61.48509" lon="5.81553">
        <ele>61.729091</ele>
        <time>2020-07-28T07:29:56.226Z</time>
      </trkpt>
      <trkpt lat="61.48517" lon="5.8156">
        <ele>61.858373</ele>
        <time>2020-07-28T07:29:59.174Z</time>
      </trkpt>
      <trkpt lat="61.48526" lon="5.81567">
        <ele>61.994376</ele>
        <time>2020-07-28T07:30:02.192Z</time>
      </trkpt>
      <trkpt lat="61.48535" lon="5.81573">
        <ele>62.120349</ele>
        <time>2020-07-28T07:30:05.175Z</time>
      </trkpt>
      <trkpt lat="61.48546" lon="5.81581">
        <ele>62.27946</ele>
        <time>2020-07-28T07:30:09.198Z</time>
      </trkpt>
      <trkpt lat="61.48556" lon="5.8159">
        <ele>62.434083</ele>
        <time>2020-07-28T07:30:13.188Z</time>
      </trkpt>
      <trkpt lat="61.48567" lon="5.81598">
        <ele>62.611411</ele>
        <time>2020-07-28T07:30:17.172Z</time>
      </trkpt>
      <trkpt lat="61.48577" lon="5.81606">
        <ele>62.774539</ele>
        <time>2020-07-28T07:30:21.172Z</time>
      </trkpt>
      <trkpt lat="61.48586" lon="5.81613">
        <ele>62.934447</ele>
        <time>2020-07-28T07:30:25.189Z</time>
      </trkpt>
      <trkpt lat="61.48596" lon="5.81621">
        <ele>63.097837</ele>
        <time>2020-07-28T07:30:29.174Z</time>
      </trkpt>
      <trkpt lat="61.48607" lon="5.8163">
        <ele>63.282682</ele>
        <time>2020-07-28T07:30:33.186Z</time>
      </trkpt>
      <trkpt lat="61.48617" lon="5.8164">
        <ele>63.452916</ele>
        <time>2020-07-28T07:30:36.206Z</time>
      </trkpt>
      <trkpt lat="61.48627" lon="5.81648">
        <ele>63.622342</ele>
        <time>2020-07-28T07:30:39.178Z</time>
      </trkpt>
      <trkpt lat="61.48636" lon="5.81655">
        <ele>63.785455</ele>
        <time>2020-07-28T07:30:42.177Z</time>
      </trkpt>
      <trkpt lat="61.48646" lon="5.81663">
        <ele>63.95407</ele>
        <time>2020-07-28T07:30:45.183Z</time>
      </trkpt>
      <trkpt lat="61.48656" lon="5.81672">
        <ele>64.1235</ele>
        <time>2020-07-28T07:30:48.199Z</time>
      </trkpt>
      <trkpt lat="61.48666" lon="5.81681">
        <ele>64.295813</ele>
        <time>2020-07-28T07:30:51.180Z</time>
      </trkpt>
      <trkpt lat="61.48676" lon="5.81689">
        <ele>64.46433</ele>
        <time>2020-07-28T07:30:54.219Z</time>
      </trkpt>
      <trkpt lat="61.48687" lon="5.81696">
        <ele>64.644246</ele>
        <time>2020-07-28T07:30:57.192Z</time>
      </trkpt>
      <trkpt lat="61.48698" lon="5.81701">
        <ele>64.826939</ele>
        <time>2020-07-28T07:31:00.172Z</time>
      </trkpt>
      <trkpt lat="61.48711" lon="5.81705">
        <ele>65.023094</ele>
        <time>2020-07-28T07:31:03.190Z</time>
      </trkpt>
      <trkpt lat="61.48724" lon="5.81708">
        <ele>65.23126</ele>
        <time>2020-07-28T07:31:06.216Z</time>
      </trkpt>
      <trkpt lat="61.48733" lon="5.8171">
        <ele>65.306023</ele>
        <time>2020-07-28T07:31:08.258Z</time>
      </trkpt>
      <trkpt lat="61.48742" lon="5.81711">
        <ele>65.281835</ele>
        <time>2020-07-28T07:31:10.197Z</time>
      </trkpt>
      <trkpt lat="61.48751" lon="5.8171">
        <ele>65.25711</ele>
        <time>2020-07-28T07:31:12.176Z</time>
      </trkpt>
      <trkpt lat="61.4876" lon="5.8171">
        <ele>65.232925</ele>
        <time>2020-07-28T07:31:14.230Z</time>
      </trkpt>
      <trkpt lat="61.48773" lon="5.81707">
        <ele>65.197608</ele>
        <time>2020-07-28T07:31:17.179Z</time>
      </trkpt>
      <trkpt lat="61.48786" lon="5.81704">
        <ele>65.161828</ele>
        <time>2020-07-28T07:31:20.185Z</time>
      </trkpt>
      <trkpt lat="61.48796" lon="5.817">
        <ele>65.137038</ele>
        <time>2020-07-28T07:31:22.187Z</time>
      </trkpt>
      <trkpt lat="61.48805" lon="5.81696">
        <ele>65.110753</ele>
        <time>2020-07-28T07:31:24.208Z</time>
      </trkpt>
      <trkpt lat="61.48815" lon="5.8169">
        <ele>65.083463</ele>
        <time>2020-07-28T07:31:26.197Z</time>
      </trkpt>
      <trkpt lat="61.48825" lon="5.81684">
        <ele>65.056397</ele>
        <time>2020-07-28T07:31:28.170Z</time>
      </trkpt>
      <trkpt lat="61.48834" lon="5.81677">
        <ele>65.029088</ele>
        <time>2020-07-28T07:31:30.183Z</time>
      </trkpt>
      <trkpt lat="61.48844" lon="5.8167">
        <ele>64.999792</ele>
        <time>2020-07-28T07:31:32.175Z</time>
      </trkpt>
      <trkpt lat="61.48854" lon="5.81663">
        <ele>64.973371</ele>
        <time>2020-07-28T07:31:34.172Z</time>
      </trkpt>
      <trkpt lat="61.48863" lon="5.81655">
        <ele>64.947052</ele>
        <time>2020-07-28T07:31:36.194Z</time>
      </trkpt>
      <trkpt lat="61.48871" lon="5.81648">
        <ele>64.922315</ele>
        <time>2020-07-28T07:31:38.195Z</time>
      </trkpt>
      <trkpt lat="61.4888" lon="5.81638">
        <ele>64.896966</ele>
        <time>2020-07-28T07:31:40.194Z</time>
      </trkpt>
      <trkpt lat="61.48888" lon="5.81629">
        <ele>64.871381</ele>
        <time>2020-07-28T07:31:42.180Z</time>
      </trkpt>
      <trkpt lat="61.48896" lon="5.81617">
        <ele>64.844717</ele>
        <time>2020-07-28T07:31:44.178Z</time>
      </trkpt>
      <trkpt lat="61.48905" lon="5.81605">
        <ele>65.045779</ele>
        <time>2020-07-28T07:31:46.177Z</time>
      </trkpt>
      <trkpt lat="61.48912" lon="5.81592">
        <ele>65.407699</ele>
        <time>2020-07-28T07:31:48.212Z</time>
      </trkpt>
      <trkpt lat="61.4892" lon="5.81579">
        <ele>65.763578</ele>
        <time>2020-07-28T07:31:50.171Z</time>
      </trkpt>
      <trkpt lat="61.48927" lon="5.81564">
        <ele>66.127779</ele>
        <time>2020-07-28T07:31:52.173Z</time>
      </trkpt>
      <trkpt lat="61.48934" lon="5.81549">
        <ele>66.47695</ele>
        <time>2020-07-28T07:31:54.179Z</time>
      </trkpt>
      <trkpt lat="61.48941" lon="5.81535">
        <ele>66.812515</ele>
        <time>2020-07-28T07:31:56.166Z</time>
      </trkpt>
      <trkpt lat="61.48947" lon="5.8152">
        <ele>67.157011</ele>
        <time>2020-07-28T07:31:58.197Z</time>
      </trkpt>
      <trkpt lat="61.48953" lon="5.81506">
        <ele>67.480394</ele>
        <time>2020-07-28T07:32:00.197Z</time>
      </trkpt>
      <trkpt lat="61.48959" lon="5.81492">
        <ele>67.810027</ele>
        <time>2020-07-28T07:32:02.180Z</time>
      </trkpt>
      <trkpt lat="61.48965" lon="5.81477">
        <ele>68.143141</ele>
        <time>2020-07-28T07:32:04.176Z</time>
      </trkpt>
      <trkpt lat="61.48971" lon="5.81462">
        <ele>68.468045</ele>
        <time>2020-07-28T07:32:06.192Z</time>
      </trkpt>
      <trkpt lat="61.48977" lon="5.81447">
        <ele>68.811485</ele>
        <time>2020-07-28T07:32:08.195Z</time>
      </trkpt>
      <trkpt lat="61.48983" lon="5.81431">
        <ele>69.170421</ele>
        <time>2020-07-28T07:32:10.174Z</time>
      </trkpt>
      <trkpt lat="61.48989" lon="5.81414">
        <ele>69.527277</ele>
        <time>2020-07-28T07:32:12.180Z</time>
      </trkpt>
      <trkpt lat="61.48994" lon="5.81397">
        <ele>69.871215</ele>
        <time>2020-07-28T07:32:14.174Z</time>
      </trkpt>
      <trkpt lat="61.49" lon="5.8138">
        <ele>70.233794</ele>
        <time>2020-07-28T07:32:16.174Z</time>
      </trkpt>
      <trkpt lat="61.49006" lon="5.81363">
        <ele>70.59553</ele>
        <time>2020-07-28T07:32:18.213Z</time>
      </trkpt>
      <trkpt lat="61.49011" lon="5.81346">
        <ele>70.946876</ele>
        <time>2020-07-28T07:32:20.180Z</time>
      </trkpt>
      <trkpt lat="61.49017" lon="5.81328">
        <ele>71.305346</ele>
        <time>2020-07-28T07:32:22.210Z</time>
      </trkpt>
      <trkpt lat="61.49022" lon="5.81312">
        <ele>71.255518</ele>
        <time>2020-07-28T07:32:24.212Z</time>
      </trkpt>
      <trkpt lat="61.49028" lon="5.81296">
        <ele>71.207081</ele>
        <time>2020-07-28T07:32:26.183Z</time>
      </trkpt>
      <trkpt lat="61.49034" lon="5.81282">
        <ele>71.160434</ele>
        <time>2020-07-28T07:32:28.178Z</time>
      </trkpt>
      <trkpt lat="61.4904" lon="5.81267">
        <ele>71.113706</ele>
        <time>2020-07-28T07:32:30.176Z</time>
      </trkpt>
      <trkpt lat="61.49045" lon="5.81251">
        <ele>71.067153</ele>
        <time>2020-07-28T07:32:32.185Z</time>
      </trkpt>
      <trkpt lat="61.4905" lon="5.81234">
        <ele>71.015934</ele>
        <time>2020-07-28T07:32:34.176Z</time>
      </trkpt>
      <trkpt lat="61.49056" lon="5.81217">
        <ele>70.965613</ele>
        <time>2020-07-28T07:32:36.174Z</time>
      </trkpt>
      <trkpt lat="61.49062" lon="5.812">
        <ele>70.914394</ele>
        <time>2020-07-28T07:32:38.187Z</time>
      </trkpt>
      <trkpt lat="61.49067" lon="5.81183">
        <ele>70.86467</ele>
        <time>2020-07-28T07:32:40.200Z</time>
      </trkpt>
      <trkpt lat="61.49072" lon="5.81166">
        <ele>70.814728</ele>
        <time>2020-07-28T07:32:42.175Z</time>
      </trkpt>
      <trkpt lat="61.49078" lon="5.8115">
        <ele>70.765409</ele>
        <time>2020-07-28T07:32:44.173Z</time>
      </trkpt>
      <trkpt lat="61.49084" lon="5.81133">
        <ele>70.71568</ele>
        <time>2020-07-28T07:32:46.192Z</time>
      </trkpt>
      <trkpt lat="61.49089" lon="5.81118">
        <ele>70.668348</ele>
        <time>2020-07-28T07:32:48.176Z</time>
      </trkpt>
      <trkpt lat="61.49094" lon="5.81102">
        <ele>70.62151</ele>
        <time>2020-07-28T07:32:50.202Z</time>
      </trkpt>
      <trkpt lat="61.491" lon="5.81085">
        <ele>70.571992</ele>
        <time>2020-07-28T07:32:52.181Z</time>
      </trkpt>
      <trkpt lat="61.49104" lon="5.81069">
        <ele>70.524121</ele>
        <time>2020-07-28T07:32:54.186Z</time>
      </trkpt>
      <trkpt lat="61.49109" lon="5.81051">
        <ele>70.47535</ele>
        <time>2020-07-28T07:32:56.193Z</time>
      </trkpt>
      <trkpt lat="61.49113" lon="5.81033">
        <ele>70.42632</ele>
        <time>2020-07-28T07:32:58.177Z</time>
      </trkpt>
      <trkpt lat="61.49117" lon="5.81015">
        <ele>70.362397</ele>
        <time>2020-07-28T07:33:00.180Z</time>
      </trkpt>
      <trkpt lat="61.49121" lon="5.80997">
        <ele>70.152786</ele>
        <time>2020-07-28T07:33:02.180Z</time>
      </trkpt>
      <trkpt lat="61.49127" lon="5.80972">
        <ele>69.850551</ele>
        <time>2020-07-28T07:33:05.170Z</time>
      </trkpt>
      <trkpt lat="61.4913" lon="5.80954">
        <ele>69.641932</ele>
        <time>2020-07-28T07:33:07.191Z</time>
      </trkpt>
      <trkpt lat="61.49132" lon="5.80934">
        <ele>69.428096</ele>
        <time>2020-07-28T07:33:09.171Z</time>
      </trkpt>
      <trkpt lat="61.49134" lon="5.80915">
        <ele>69.219278</ele>
        <time>2020-07-28T07:33:11.191Z</time>
      </trkpt>
      <trkpt lat="61.49135" lon="5.80895">
        <ele>68.998785</ele>
        <time>2020-07-28T07:33:13.175Z</time>
      </trkpt>
      <trkpt lat="61.49136" lon="5.80873">
        <ele>68.763024</ele>
        <time>2020-07-28T07:33:15.204Z</time>
      </trkpt>
      <trkpt lat="61.49136" lon="5.8085">
        <ele>68.513329</ele>
        <time>2020-07-28T07:33:17.196Z</time>
      </trkpt>
      <trkpt lat="61.49137" lon="5.80826">
        <ele>68.254353</ele>
        <time>2020-07-28T07:33:19.186Z</time>
      </trkpt>
      <trkpt lat="61.49139" lon="5.80802">
        <ele>67.987233</ele>
        <time>2020-07-28T07:33:21.184Z</time>
      </trkpt>
      <trkpt lat="61.4914" lon="5.80778">
        <ele>67.722834</ele>
        <time>2020-07-28T07:33:23.191Z</time>
      </trkpt>
      <trkpt lat="61.49142" lon="5.80754">
        <ele>67.465343</ele>
        <time>2020-07-28T07:33:25.180Z</time>
      </trkpt>
      <trkpt lat="61.49143" lon="5.8073">
        <ele>67.204947</ele>
        <time>2020-07-28T07:33:27.196Z</time>
      </trkpt>
      <trkpt lat="61.49144" lon="5.80707">
        <ele>66.949126</ele>
        <time>2020-07-28T07:33:29.206Z</time>
      </trkpt>
      <trkpt lat="61.49146" lon="5.80683">
        <ele>66.686589</ele>
        <time>2020-07-28T07:33:31.207Z</time>
      </trkpt>
      <trkpt lat="61.49148" lon="5.80658">
        <ele>66.416865</ele>
        <time>2020-07-28T07:33:33.176Z</time>
      </trkpt>
      <trkpt lat="61.49151" lon="5.80635">
        <ele>66.276883</ele>
        <time>2020-07-28T07:33:35.187Z</time>
      </trkpt>
      <trkpt lat="61.49155" lon="5.80613">
        <ele>66.223399</ele>
        <time>2020-07-28T07:33:37.173Z</time>
      </trkpt>
      <trkpt lat="61.49159" lon="5.80594">
        <ele>66.172646</ele>
        <time>2020-07-28T07:33:39.162Z</time>
      </trkpt>
      <trkpt lat="61.49163" lon="5.80576">
        <ele>66.125915</ele>
        <time>2020-07-28T07:33:41.204Z</time>
      </trkpt>
      <trkpt lat="61.49168" lon="5.80559">
        <ele>66.080652</ele>
        <time>2020-07-28T07:33:43.226Z</time>
      </trkpt>
      <trkpt lat="61.49173" lon="5.80544">
        <ele>66.035416</ele>
        <time>2020-07-28T07:33:45.187Z</time>
      </trkpt>
      <trkpt lat="61.49181" lon="5.80522">
        <ele>65.971744</ele>
        <time>2020-07-28T07:33:48.174Z</time>
      </trkpt>
      <trkpt lat="61.4919" lon="5.80503">
        <ele>65.909024</ele>
        <time>2020-07-28T07:33:51.192Z</time>
      </trkpt>
      <trkpt lat="61.49201" lon="5.80488">
        <ele>65.847323</ele>
        <time>2020-07-28T07:33:54.224Z</time>
      </trkpt>
      <trkpt lat="61.49208" lon="5.80477">
        <ele>65.800783</ele>
        <time>2020-07-28T07:33:56.172Z</time>
      </trkpt>
      <trkpt lat="61.49217" lon="5.80467">
        <ele>65.751005</ele>
        <time>2020-07-28T07:33:58.176Z</time>
      </trkpt>
      <trkpt lat="61.49226" lon="5.80458">
        <ele>65.705018</ele>
        <time>2020-07-28T07:34:00.173Z</time>
      </trkpt>
      <trkpt lat="61.49234" lon="5.8045">
        <ele>65.659287</ele>
        <time>2020-07-28T07:34:02.181Z</time>
      </trkpt>
      <trkpt lat="61.49243" lon="5.80443">
        <ele>65.613716</ele>
        <time>2020-07-28T07:34:04.203Z</time>
      </trkpt>
      <trkpt lat="61.49256" lon="5.80434">
        <ele>65.547454</ele>
        <time>2020-07-28T07:34:07.177Z</time>
      </trkpt>
      <trkpt lat="61.49265" lon="5.80428">
        <ele>65.502044</ele>
        <time>2020-07-28T07:34:09.205Z</time>
      </trkpt>
      <trkpt lat="61.49273" lon="5.80421">
        <ele>65.456391</ele>
        <time>2020-07-28T07:34:11.213Z</time>
      </trkpt>
      <trkpt lat="61.49282" lon="5.80414">
        <ele>65.484364</ele>
        <time>2020-07-28T07:34:13.177Z</time>
      </trkpt>
      <trkpt lat="61.49291" lon="5.80407">
        <ele>65.637263</ele>
        <time>2020-07-28T07:34:15.181Z</time>
      </trkpt>
      <trkpt lat="61.49299" lon="5.80399">
        <ele>65.786783</ele>
        <time>2020-07-28T07:34:17.195Z</time>
      </trkpt>
      <trkpt lat="61.49307" lon="5.80391">
        <ele>65.937194</ele>
        <time>2020-07-28T07:34:19.192Z</time>
      </trkpt>
      <trkpt lat="61.49315" lon="5.80382">
        <ele>66.091259</ele>
        <time>2020-07-28T07:34:21.209Z</time>
      </trkpt>
      <trkpt lat="61.49323" lon="5.80371">
        <ele>66.245329</ele>
        <time>2020-07-28T07:34:23.203Z</time>
      </trkpt>
      <trkpt lat="61.49331" lon="5.8036">
        <ele>66.401436</ele>
        <time>2020-07-28T07:34:25.197Z</time>
      </trkpt>
      <trkpt lat="61.49339" lon="5.80349">
        <ele>66.556164</ele>
        <time>2020-07-28T07:34:27.175Z</time>
      </trkpt>
      <trkpt lat="61.49345" lon="5.80337">
        <ele>66.705555</ele>
        <time>2020-07-28T07:34:29.176Z</time>
      </trkpt>
      <trkpt lat="61.49355" lon="5.80317">
        <ele>66.927984</ele>
        <time>2020-07-28T07:34:32.228Z</time>
      </trkpt>
      <trkpt lat="61.49361" lon="5.80303">
        <ele>67.083365</ele>
        <time>2020-07-28T07:34:34.182Z</time>
      </trkpt>
      <trkpt lat="61.49368" lon="5.80288">
        <ele>67.242799</ele>
        <time>2020-07-28T07:34:36.213Z</time>
      </trkpt>
      <trkpt lat="61.49374" lon="5.80272">
        <ele>67.399715</ele>
        <time>2020-07-28T07:34:38.193Z</time>
      </trkpt>
      <trkpt lat="61.49379" lon="5.80257">
        <ele>67.552893</ele>
        <time>2020-07-28T07:34:40.171Z</time>
      </trkpt>
      <trkpt lat="61.49385" lon="5.80242">
        <ele>67.706484</ele>
        <time>2020-07-28T07:34:42.227Z</time>
      </trkpt>
      <trkpt lat="61.49391" lon="5.80226">
        <ele>67.868893</ele>
        <time>2020-07-28T07:34:44.194Z</time>
      </trkpt>
      <trkpt lat="61.49397" lon="5.80212">
        <ele>68.020963</ele>
        <time>2020-07-28T07:34:46.167Z</time>
      </trkpt>
      <trkpt lat="61.49403" lon="5.80198">
        <ele>68.17135</ele>
        <time>2020-07-28T07:34:48.180Z</time>
      </trkpt>
      <trkpt lat="61.4941" lon="5.80184">
        <ele>68.32153</ele>
        <time>2020-07-28T07:34:50.182Z</time>
      </trkpt>
      <trkpt lat="61.49416" lon="5.80168">
        <ele>68.394906</ele>
        <time>2020-07-28T07:34:52.185Z</time>
      </trkpt>
      <trkpt lat="61.49423" lon="5.80153">
        <ele>68.34963</ele>
        <time>2020-07-28T07:34:54.185Z</time>
      </trkpt>
      <trkpt lat="61.49431" lon="5.80139">
        <ele>68.304214</ele>
        <time>2020-07-28T07:34:56.193Z</time>
      </trkpt>
      <trkpt lat="61.49439" lon="5.80127">
        <ele>68.261748</ele>
        <time>2020-07-28T07:34:58.191Z</time>
      </trkpt>
      <trkpt lat="61.49446" lon="5.80113">
        <ele>68.218158</ele>
        <time>2020-07-28T07:35:00.166Z</time>
      </trkpt>
      <trkpt lat="61.49454" lon="5.801">
        <ele>68.172741</ele>
        <time>2020-07-28T07:35:02.202Z</time>
      </trkpt>
      <trkpt lat="61.49462" lon="5.80088">
        <ele>68.129829</ele>
        <time>2020-07-28T07:35:04.188Z</time>
      </trkpt>
      <trkpt lat="61.49469" lon="5.80075">
        <ele>68.088201</ele>
        <time>2020-07-28T07:35:06.185Z</time>
      </trkpt>
      <trkpt lat="61.49476" lon="5.8006">
        <ele>68.045579</ele>
        <time>2020-07-28T07:35:08.179Z</time>
      </trkpt>
      <trkpt lat="61.49482" lon="5.80047">
        <ele>68.004769</ele>
        <time>2020-07-28T07:35:10.198Z</time>
      </trkpt>
      <trkpt lat="61.49489" lon="5.80033">
        <ele>67.965198</ele>
        <time>2020-07-28T07:35:12.178Z</time>
      </trkpt>
      <trkpt lat="61.49495" lon="5.80017">
        <ele>67.921717</ele>
        <time>2020-07-28T07:35:14.178Z</time>
      </trkpt>
      <trkpt lat="61.49501" lon="5.80001">
        <ele>67.877094</ele>
        <time>2020-07-28T07:35:16.195Z</time>
      </trkpt>
      <trkpt lat="61.49508" lon="5.79983">
        <ele>67.829171</ele>
        <time>2020-07-28T07:35:18.184Z</time>
      </trkpt>
      <trkpt lat="61.49515" lon="5.79966">
        <ele>67.781967</ele>
        <time>2020-07-28T07:35:20.184Z</time>
      </trkpt>
      <trkpt lat="61.49522" lon="5.79948">
        <ele>67.732714</ele>
        <time>2020-07-28T07:35:22.217Z</time>
      </trkpt>
      <trkpt lat="61.4953" lon="5.79929">
        <ele>67.680673</ele>
        <time>2020-07-28T07:35:24.180Z</time>
      </trkpt>
      <trkpt lat="61.49536" lon="5.79909">
        <ele>67.62875</ele>
        <time>2020-07-28T07:35:26.175Z</time>
      </trkpt>
      <trkpt lat="61.49544" lon="5.7989">
        <ele>67.572761</ele>
        <time>2020-07-28T07:35:28.192Z</time>
      </trkpt>
      <trkpt lat="61.49551" lon="5.79869">
        <ele>67.513168</ele>
        <time>2020-07-28T07:35:30.176Z</time>
      </trkpt>
      <trkpt lat="61.49557" lon="5.79848">
        <ele>67.453653</ele>
        <time>2020-07-28T07:35:32.182Z</time>
      </trkpt>
      <trkpt lat="61.49563" lon="5.79825">
        <ele>67.394298</ele>
        <time>2020-07-28T07:35:34.193Z</time>
      </trkpt>
      <trkpt lat="61.49569" lon="5.79804">
        <ele>67.337158</ele>
        <time>2020-07-28T07:35:36.180Z</time>
      </trkpt>
      <trkpt lat="61.49574" lon="5.79784">
        <ele>67.283188</ele>
        <time>2020-07-28T07:35:38.188Z</time>
      </trkpt>
      <trkpt lat="61.49579" lon="5.79762">
        <ele>67.225743</ele>
        <time>2020-07-28T07:35:40.178Z</time>
      </trkpt>
      <trkpt lat="61.49583" lon="5.79738">
        <ele>67.1646</ele>
        <time>2020-07-28T07:35:42.178Z</time>
      </trkpt>
      <trkpt lat="61.49587" lon="5.79713">
        <ele>67.104541</ele>
        <time>2020-07-28T07:35:44.200Z</time>
      </trkpt>
      <trkpt lat="61.4959" lon="5.7969">
        <ele>67.046693</ele>
        <time>2020-07-28T07:35:46.221Z</time>
      </trkpt>
      <trkpt lat="61.49593" lon="5.79665">
        <ele>66.987407</ele>
        <time>2020-07-28T07:35:48.194Z</time>
      </trkpt>
      <trkpt lat="61.49596" lon="5.79641">
        <ele>66.929147</ele>
        <time>2020-07-28T07:35:50.172Z</time>
      </trkpt>
      <trkpt lat="61.49598" lon="5.79618">
        <ele>66.874324</ele>
        <time>2020-07-28T07:35:52.189Z</time>
      </trkpt>
      <trkpt lat="61.49599" lon="5.79596">
        <ele>66.821963</ele>
        <time>2020-07-28T07:35:54.180Z</time>
      </trkpt>
      <trkpt lat="61.496" lon="5.79574">
        <ele>66.769776</ele>
        <time>2020-07-28T07:35:56.242Z</time>
      </trkpt>
      <trkpt lat="61.49601" lon="5.79552">
        <ele>66.694472</ele>
        <time>2020-07-28T07:35:58.189Z</time>
      </trkpt>
      <trkpt lat="61.49601" lon="5.79529">
        <ele>66.56531</ele>
        <time>2020-07-28T07:36:00.200Z</time>
      </trkpt>
      <trkpt lat="61.49602" lon="5.79506">
        <ele>66.437886</ele>
        <time>2020-07-28T07:36:02.177Z</time>
      </trkpt>
      <trkpt lat="61.49601" lon="5.79483">
        <ele>66.308223</ele>
        <time>2020-07-28T07:36:04.183Z</time>
      </trkpt>
      <trkpt lat="61.496" lon="5.7946">
        <ele>66.179165</ele>
        <time>2020-07-28T07:36:06.177Z</time>
      </trkpt>
      <trkpt lat="61.49599" lon="5.79436">
        <ele>66.045524</ele>
        <time>2020-07-28T07:36:08.178Z</time>
      </trkpt>
      <trkpt lat="61.49597" lon="5.79412">
        <ele>65.906698</ele>
        <time>2020-07-28T07:36:10.199Z</time>
      </trkpt>
      <trkpt lat="61.49596" lon="5.79386">
        <ele>65.762876</ele>
        <time>2020-07-28T07:36:12.167Z</time>
      </trkpt>
      <trkpt lat="61.49593" lon="5.79359">
        <ele>65.60818</ele>
        <time>2020-07-28T07:36:14.177Z</time>
      </trkpt>
      <trkpt lat="61.49591" lon="5.79331">
        <ele>65.446452</ele>
        <time>2020-07-28T07:36:16.175Z</time>
      </trkpt>
      <trkpt lat="61.49589" lon="5.79302">
        <ele>65.284724</ele>
        <time>2020-07-28T07:36:18.199Z</time>
      </trkpt>
      <trkpt lat="61.49586" lon="5.79273">
        <ele>65.117821</ele>
        <time>2020-07-28T07:36:20.166Z</time>
      </trkpt>
      <trkpt lat="61.49583" lon="5.79244">
        <ele>64.952912</ele>
        <time>2020-07-28T07:36:22.170Z</time>
      </trkpt>
      <trkpt lat="61.49581" lon="5.79215">
        <ele>64.786765</ele>
        <time>2020-07-28T07:36:24.191Z</time>
      </trkpt>
      <trkpt lat="61.49578" lon="5.79187">
        <ele>64.623361</ele>
        <time>2020-07-28T07:36:26.170Z</time>
      </trkpt>
      <trkpt lat="61.49575" lon="5.79159">
        <ele>64.508346</ele>
        <time>2020-07-28T07:36:28.185Z</time>
      </trkpt>
      <trkpt lat="61.49572" lon="5.79133">
        <ele>64.402815</ele>
        <time>2020-07-28T07:36:30.196Z</time>
      </trkpt>
      <trkpt lat="61.4957" lon="5.79109">
        <ele>64.304072</ele>
        <time>2020-07-28T07:36:32.215Z</time>
      </trkpt>
      <trkpt lat="61.49568" lon="5.79086">
        <ele>64.209909</ele>
        <time>2020-07-28T07:36:34.214Z</time>
      </trkpt>
      <trkpt lat="61.49566" lon="5.79063">
        <ele>64.117868</ele>
        <time>2020-07-28T07:36:36.179Z</time>
      </trkpt>
      <trkpt lat="61.49565" lon="5.79042">
        <ele>64.029944</ele>
        <time>2020-07-28T07:36:38.183Z</time>
      </trkpt>
      <trkpt lat="61.49565" lon="5.79021">
        <ele>63.946114</ele>
        <time>2020-07-28T07:36:40.175Z</time>
      </trkpt>
      <trkpt lat="61.49566" lon="5.79">
        <ele>63.861976</ele>
        <time>2020-07-28T07:36:42.195Z</time>
      </trkpt>
      <trkpt lat="61.49568" lon="5.7898">
        <ele>63.781406</ele>
        <time>2020-07-28T07:36:44.174Z</time>
      </trkpt>
      <trkpt lat="61.49571" lon="5.78961">
        <ele>63.701509</ele>
        <time>2020-07-28T07:36:46.182Z</time>
      </trkpt>
      <trkpt lat="61.49574" lon="5.78942">
        <ele>63.61937</ele>
        <time>2020-07-28T07:36:48.184Z</time>
      </trkpt>
      <trkpt lat="61.49578" lon="5.78924">
        <ele>63.541159</ele>
        <time>2020-07-28T07:36:50.176Z</time>
      </trkpt>
      <trkpt lat="61.49583" lon="5.78908">
        <ele>63.463744</ele>
        <time>2020-07-28T07:36:52.179Z</time>
      </trkpt>
      <trkpt lat="61.49588" lon="5.78891">
        <ele>63.385438</ele>
        <time>2020-07-28T07:36:54.235Z</time>
      </trkpt>
      <trkpt lat="61.49594" lon="5.78876">
        <ele>63.307694</ele>
        <time>2020-07-28T07:36:56.177Z</time>
      </trkpt>
      <trkpt lat="61.496" lon="5.78862">
        <ele>63.231098</ele>
        <time>2020-07-28T07:36:58.174Z</time>
      </trkpt>
      <trkpt lat="61.4961" lon="5.78844">
        <ele>63.119778</ele>
        <time>2020-07-28T07:37:01.189Z</time>
      </trkpt>
      <trkpt lat="61.49618" lon="5.78833">
        <ele>63.033215</ele>
        <time>2020-07-28T07:37:03.180Z</time>
      </trkpt>
      <trkpt lat="61.49626" lon="5.78824">
        <ele>62.945218</ele>
        <time>2020-07-28T07:37:05.208Z</time>
      </trkpt>
      <trkpt lat="61.49634" lon="5.78814">
        <ele>62.854128</ele>
        <time>2020-07-28T07:37:07.174Z</time>
      </trkpt>
      <trkpt lat="61.49643" lon="5.78806">
        <ele>62.758562</ele>
        <time>2020-07-28T07:37:09.164Z</time>
      </trkpt>
      <trkpt lat="61.49653" lon="5.78798">
        <ele>62.658875</ele>
        <time>2020-07-28T07:37:11.180Z</time>
      </trkpt>
      <trkpt lat="61.49663" lon="5.78791">
        <ele>62.556046</ele>
        <time>2020-07-28T07:37:13.191Z</time>
      </trkpt>
      <trkpt lat="61.49673" lon="5.78782">
        <ele>62.453225</ele>
        <time>2020-07-28T07:37:15.196Z</time>
      </trkpt>
      <trkpt lat="61.49682" lon="5.78773">
        <ele>62.355749</ele>
        <time>2020-07-28T07:37:17.176Z</time>
      </trkpt>
      <trkpt lat="61.49691" lon="5.78764">
        <ele>62.256804</ele>
        <time>2020-07-28T07:37:19.193Z</time>
      </trkpt>
      <trkpt lat="61.497" lon="5.78753">
        <ele>62.157733</ele>
        <time>2020-07-28T07:37:21.166Z</time>
      </trkpt>
      <trkpt lat="61.49709" lon="5.7874">
        <ele>62.055818</ele>
        <time>2020-07-28T07:37:23.171Z</time>
      </trkpt>
      <trkpt lat="61.49717" lon="5.78726">
        <ele>61.951081</ele>
        <time>2020-07-28T07:37:25.193Z</time>
      </trkpt>
      <trkpt lat="61.49725" lon="5.7871">
        <ele>61.844842</ele>
        <time>2020-07-28T07:37:27.209Z</time>
      </trkpt>
      <trkpt lat="61.49734" lon="5.78696">
        <ele>61.740183</ele>
        <time>2020-07-28T07:37:29.185Z</time>
      </trkpt>
      <trkpt lat="61.49743" lon="5.78681">
        <ele>61.632942</ele>
        <time>2020-07-28T07:37:31.169Z</time>
      </trkpt>
      <trkpt lat="61.49751" lon="5.78664">
        <ele>61.521114</ele>
        <time>2020-07-28T07:37:33.201Z</time>
      </trkpt>
      <trkpt lat="61.49759" lon="5.78647">
        <ele>61.410902</ele>
        <time>2020-07-28T07:37:35.171Z</time>
      </trkpt>
      <trkpt lat="61.49768" lon="5.78632">
        <ele>61.409705</ele>
        <time>2020-07-28T07:37:37.205Z</time>
      </trkpt>
      <trkpt lat="61.49776" lon="5.78619">
        <ele>61.446831</ele>
        <time>2020-07-28T07:37:39.179Z</time>
      </trkpt>
      <trkpt lat="61.49785" lon="5.78607">
        <ele>61.483614</ele>
        <time>2020-07-28T07:37:41.193Z</time>
      </trkpt>
      <trkpt lat="61.49795" lon="5.78595">
        <ele>61.522335</ele>
        <time>2020-07-28T07:37:43.178Z</time>
      </trkpt>
      <trkpt lat="61.49805" lon="5.78582">
        <ele>61.561782</ele>
        <time>2020-07-28T07:37:45.213Z</time>
      </trkpt>
      <trkpt lat="61.49815" lon="5.78572">
        <ele>61.601019</ele>
        <time>2020-07-28T07:37:47.200Z</time>
      </trkpt>
      <trkpt lat="61.49826" lon="5.78564">
        <ele>61.6417</ele>
        <time>2020-07-28T07:37:49.186Z</time>
      </trkpt>
      <trkpt lat="61.49837" lon="5.78556">
        <ele>61.681511</ele>
        <time>2020-07-28T07:37:51.168Z</time>
      </trkpt>
      <trkpt lat="61.49846" lon="5.78546">
        <ele>61.718278</ele>
        <time>2020-07-28T07:37:53.224Z</time>
      </trkpt>
      <trkpt lat="61.49856" lon="5.78534">
        <ele>61.756237</ele>
        <time>2020-07-28T07:37:55.181Z</time>
      </trkpt>
      <trkpt lat="61.49864" lon="5.7852">
        <ele>61.792796</ele>
        <time>2020-07-28T07:37:57.183Z</time>
      </trkpt>
      <trkpt lat="61.49871" lon="5.78504">
        <ele>61.828031</ele>
        <time>2020-07-28T07:37:59.216Z</time>
      </trkpt>
      <trkpt lat="61.49876" lon="5.78487">
        <ele>61.86251</ele>
        <time>2020-07-28T07:38:01.205Z</time>
      </trkpt>
      <trkpt lat="61.49881" lon="5.78468">
        <ele>61.897148</ele>
        <time>2020-07-28T07:38:03.170Z</time>
      </trkpt>
      <trkpt lat="61.49885" lon="5.7845">
        <ele>61.930497</ele>
        <time>2020-07-28T07:38:05.179Z</time>
      </trkpt>
      <trkpt lat="61.49889" lon="5.78431">
        <ele>61.964802</ele>
        <time>2020-07-28T07:38:07.175Z</time>
      </trkpt>
      <trkpt lat="61.49892" lon="5.78412">
        <ele>61.998073</ele>
        <time>2020-07-28T07:38:09.165Z</time>
      </trkpt>
      <trkpt lat="61.49895" lon="5.78393">
        <ele>62.20454</ele>
        <time>2020-07-28T07:38:11.223Z</time>
      </trkpt>
      <trkpt lat="61.49898" lon="5.78368">
        <ele>62.533857</ele>
        <time>2020-07-28T07:38:14.164Z</time>
      </trkpt>
      <trkpt lat="61.49899" lon="5.78343">
        <ele>62.845654</ele>
        <time>2020-07-28T07:38:17.225Z</time>
      </trkpt>
      <trkpt lat="61.49899" lon="5.78318">
        <ele>63.169272</ele>
        <time>2020-07-28T07:38:20.194Z</time>
      </trkpt>
      <trkpt lat="61.49899" lon="5.78292">
        <ele>63.488986</ele>
        <time>2020-07-28T07:38:23.179Z</time>
      </trkpt>
      <trkpt lat="61.49899" lon="5.78266">
        <ele>63.815045</ele>
        <time>2020-07-28T07:38:26.169Z</time>
      </trkpt>
      <trkpt lat="61.49899" lon="5.7824">
        <ele>64.152377</ele>
        <time>2020-07-28T07:38:29.197Z</time>
      </trkpt>
      <trkpt lat="61.49899" lon="5.78214">
        <ele>64.479599</ele>
        <time>2020-07-28T07:38:32.200Z</time>
      </trkpt>
      <trkpt lat="61.49899" lon="5.78189">
        <ele>64.795494</ele>
        <time>2020-07-28T07:38:35.178Z</time>
      </trkpt>
      <trkpt lat="61.49898" lon="5.78166">
        <ele>65.086158</ele>
        <time>2020-07-28T07:38:38.171Z</time>
      </trkpt>
      <trkpt lat="61.49896" lon="5.78143">
        <ele>65.374948</ele>
        <time>2020-07-28T07:38:41.167Z</time>
      </trkpt>
      <trkpt lat="61.49894" lon="5.78121">
        <ele>65.662085</ele>
        <time>2020-07-28T07:38:44.179Z</time>
      </trkpt>
      <trkpt lat="61.49891" lon="5.78097">
        <ele>65.968938</ele>
        <time>2020-07-28T07:38:47.185Z</time>
      </trkpt>
      <trkpt lat="61.49888" lon="5.78075">
        <ele>66.263191</ele>
        <time>2020-07-28T07:38:50.171Z</time>
      </trkpt>
      <trkpt lat="61.49884" lon="5.78052">
        <ele>66.572466</ele>
        <time>2020-07-28T07:38:53.172Z</time>
      </trkpt>
      <trkpt lat="61.4988" lon="5.78029">
        <ele>66.71719</ele>
        <time>2020-07-28T07:38:56.183Z</time>
      </trkpt>
      <trkpt lat="61.49875" lon="5.78006">
        <ele>66.64911</ele>
        <time>2020-07-28T07:38:59.177Z</time>
      </trkpt>
      <trkpt lat="61.49871" lon="5.77984">
        <ele>66.585698</ele>
        <time>2020-07-28T07:39:02.171Z</time>
      </trkpt>
      <trkpt lat="61.49868" lon="5.77962">
        <ele>66.520344</ele>
        <time>2020-07-28T07:39:05.169Z</time>
      </trkpt>
      <trkpt lat="61.49864" lon="5.77939">
        <ele>66.453517</ele>
        <time>2020-07-28T07:39:08.173Z</time>
      </trkpt>
      <trkpt lat="61.4986" lon="5.77915">
        <ele>66.383929</ele>
        <time>2020-07-28T07:39:11.188Z</time>
      </trkpt>
      <trkpt lat="61.49857" lon="5.77891">
        <ele>66.313248</ele>
        <time>2020-07-28T07:39:14.183Z</time>
      </trkpt>
      <trkpt lat="61.49854" lon="5.77866">
        <ele>66.242433</ele>
        <time>2020-07-28T07:39:17.200Z</time>
      </trkpt>
      <trkpt lat="61.49852" lon="5.7784">
        <ele>66.170155</ele>
        <time>2020-07-28T07:39:20.198Z</time>
      </trkpt>
      <trkpt lat="61.49852" lon="5.77812">
        <ele>66.092612</ele>
        <time>2020-07-28T07:39:23.184Z</time>
      </trkpt>
      <trkpt lat="61.49852" lon="5.77793">
        <ele>66.039728</ele>
        <time>2020-07-28T07:39:25.174Z</time>
      </trkpt>
      <trkpt lat="61.49852" lon="5.77773">
        <ele>65.984592</ele>
        <time>2020-07-28T07:39:27.166Z</time>
      </trkpt>
      <trkpt lat="61.49854" lon="5.77752">
        <ele>65.924631</ele>
        <time>2020-07-28T07:39:29.173Z</time>
      </trkpt>
      <trkpt lat="61.49856" lon="5.77728">
        <ele>65.858768</ele>
        <time>2020-07-28T07:39:31.192Z</time>
      </trkpt>
      <trkpt lat="61.49859" lon="5.77704">
        <ele>65.789698</ele>
        <time>2020-07-28T07:39:33.166Z</time>
      </trkpt>
      <trkpt lat="61.49863" lon="5.7768">
        <ele>65.718386</ele>
        <time>2020-07-28T07:39:35.168Z</time>
      </trkpt>
      <trkpt lat="61.49868" lon="5.77654">
        <ele>65.116081</ele>
        <time>2020-07-28T07:39:37.202Z</time>
      </trkpt>
      <trkpt lat="61.49873" lon="5.7763">
        <ele>64.372429</ele>
        <time>2020-07-28T07:39:39.211Z</time>
      </trkpt>
      <trkpt lat="61.49879" lon="5.77605">
        <ele>63.638538</ele>
        <time>2020-07-28T07:39:41.199Z</time>
      </trkpt>
      <trkpt lat="61.49885" lon="5.77582">
        <ele>62.9253</ele>
        <time>2020-07-28T07:39:43.197Z</time>
      </trkpt>
      <trkpt lat="61.49891" lon="5.77561">
        <ele>62.241464</ele>
        <time>2020-07-28T07:39:45.193Z</time>
      </trkpt>
      <trkpt lat="61.49896" lon="5.77539">
        <ele>61.597757</ele>
        <time>2020-07-28T07:39:47.191Z</time>
      </trkpt>
      <trkpt lat="61.49901" lon="5.77517">
        <ele>60.953604</ele>
        <time>2020-07-28T07:39:49.205Z</time>
      </trkpt>
      <trkpt lat="61.49906" lon="5.77495">
        <ele>60.287822</ele>
        <time>2020-07-28T07:39:51.175Z</time>
      </trkpt>
      <trkpt lat="61.49912" lon="5.77473">
        <ele>59.59007</ele>
        <time>2020-07-28T07:39:53.213Z</time>
      </trkpt>
      <trkpt lat="61.49918" lon="5.77449">
        <ele>58.868345</ele>
        <time>2020-07-28T07:39:55.178Z</time>
      </trkpt>
      <trkpt lat="61.49923" lon="5.77424">
        <ele>58.144194</ele>
        <time>2020-07-28T07:39:57.178Z</time>
      </trkpt>
      <trkpt lat="61.49929" lon="5.774">
        <ele>57.412748</ele>
        <time>2020-07-28T07:39:59.178Z</time>
      </trkpt>
      <trkpt lat="61.49935" lon="5.77376">
        <ele>56.68839</ele>
        <time>2020-07-28T07:40:01.177Z</time>
      </trkpt>
      <trkpt lat="61.4994" lon="5.77353">
        <ele>55.993486</ele>
        <time>2020-07-28T07:40:03.174Z</time>
      </trkpt>
      <trkpt lat="61.49946" lon="5.77331">
        <ele>55.522864</ele>
        <time>2020-07-28T07:40:05.187Z</time>
      </trkpt>
      <trkpt lat="61.49952" lon="5.77311">
        <ele>55.530243</ele>
        <time>2020-07-28T07:40:07.192Z</time>
      </trkpt>
      <trkpt lat="61.49961" lon="5.77295">
        <ele>55.537529</ele>
        <time>2020-07-28T07:40:09.210Z</time>
      </trkpt>
      <trkpt lat="61.49969" lon="5.7728">
        <ele>55.544817</ele>
        <time>2020-07-28T07:40:11.204Z</time>
      </trkpt>
      <trkpt lat="61.49978" lon="5.77264">
        <ele>55.552125</ele>
        <time>2020-07-28T07:40:13.192Z</time>
      </trkpt>
      <trkpt lat="61.49987" lon="5.77249">
        <ele>55.559364</ele>
        <time>2020-07-28T07:40:15.182Z</time>
      </trkpt>
      <trkpt lat="61.49996" lon="5.77236">
        <ele>55.566636</ele>
        <time>2020-07-28T07:40:17.178Z</time>
      </trkpt>
      <trkpt lat="61.50006" lon="5.77225">
        <ele>55.573587</ele>
        <time>2020-07-28T07:40:19.171Z</time>
      </trkpt>
      <trkpt lat="61.50015" lon="5.77214">
        <ele>55.580291</ele>
        <time>2020-07-28T07:40:21.179Z</time>
      </trkpt>
      <trkpt lat="61.50023" lon="5.77202">
        <ele>55.586832</ele>
        <time>2020-07-28T07:40:23.178Z</time>
      </trkpt>
      <trkpt lat="61.50032" lon="5.77189">
        <ele>55.593481</ele>
        <time>2020-07-28T07:40:25.184Z</time>
      </trkpt>
      <trkpt lat="61.5004" lon="5.77176">
        <ele>55.600099</ele>
        <time>2020-07-28T07:40:27.162Z</time>
      </trkpt>
      <trkpt lat="61.50048" lon="5.77163">
        <ele>55.606471</ele>
        <time>2020-07-28T07:40:29.187Z</time>
      </trkpt>
      <trkpt lat="61.50056" lon="5.77151">
        <ele>55.612767</ele>
        <time>2020-07-28T07:40:31.221Z</time>
      </trkpt>
      <trkpt lat="61.50064" lon="5.77141">
        <ele>55.61892</ele>
        <time>2020-07-28T07:40:33.206Z</time>
      </trkpt>
      <trkpt lat="61.50073" lon="5.77133">
        <ele>55.624832</ele>
        <time>2020-07-28T07:40:35.215Z</time>
      </trkpt>
      <trkpt lat="61.5008" lon="5.77122">
        <ele>55.630819</ele>
        <time>2020-07-28T07:40:37.168Z</time>
      </trkpt>
      <trkpt lat="61.50089" lon="5.77113">
        <ele>55.653362</ele>
        <time>2020-07-28T07:40:39.169Z</time>
      </trkpt>
      <trkpt lat="61.50097" lon="5.77101">
        <ele>55.718394</ele>
        <time>2020-07-28T07:40:41.189Z</time>
      </trkpt>
      <trkpt lat="61.50104" lon="5.77087">
        <ele>55.785499</ele>
        <time>2020-07-28T07:40:43.168Z</time>
      </trkpt>
      <trkpt lat="61.50111" lon="5.77073">
        <ele>55.852656</ele>
        <time>2020-07-28T07:40:45.210Z</time>
      </trkpt>
      <trkpt lat="61.50119" lon="5.77058">
        <ele>55.922147</ele>
        <time>2020-07-28T07:40:47.180Z</time>
      </trkpt>
      <trkpt lat="61.50126" lon="5.77041">
        <ele>55.998166</ele>
        <time>2020-07-28T07:40:49.193Z</time>
      </trkpt>
      <trkpt lat="61.50133" lon="5.77025">
        <ele>56.066973</ele>
        <time>2020-07-28T07:40:51.184Z</time>
      </trkpt>
      <trkpt lat="61.50139" lon="5.77009">
        <ele>56.132945</ele>
        <time>2020-07-28T07:40:53.179Z</time>
      </trkpt>
      <trkpt lat="61.50144" lon="5.76991">
        <ele>56.202037</ele>
        <time>2020-07-28T07:40:55.213Z</time>
      </trkpt>
      <trkpt lat="61.50149" lon="5.76972">
        <ele>56.27273</ele>
        <time>2020-07-28T07:40:57.204Z</time>
      </trkpt>
      <trkpt lat="61.50154" lon="5.76952">
        <ele>56.347653</ele>
        <time>2020-07-28T07:40:59.190Z</time>
      </trkpt>
      <trkpt lat="61.50158" lon="5.76932">
        <ele>56.419519</ele>
        <time>2020-07-28T07:41:01.214Z</time>
      </trkpt>
      <trkpt lat="61.50162" lon="5.76912">
        <ele>56.488468</ele>
        <time>2020-07-28T07:41:03.174Z</time>
      </trkpt>
      <trkpt lat="61.50166" lon="5.76893">
        <ele>56.555648</ele>
        <time>2020-07-28T07:41:05.225Z</time>
      </trkpt>
      <trkpt lat="61.5017" lon="5.76872">
        <ele>56.629144</ele>
        <time>2020-07-28T07:41:07.184Z</time>
      </trkpt>
      <trkpt lat="61.50173" lon="5.76852">
        <ele>56.695781</ele>
        <time>2020-07-28T07:41:09.175Z</time>
      </trkpt>
      <trkpt lat="61.50176" lon="5.76834">
        <ele>56.760459</ele>
        <time>2020-07-28T07:41:11.194Z</time>
      </trkpt>
      <trkpt lat="61.50179" lon="5.76814">
        <ele>56.827956</ele>
        <time>2020-07-28T07:41:13.204Z</time>
      </trkpt>
      <trkpt lat="61.50182" lon="5.76787">
        <ele>57.099058</ele>
        <time>2020-07-28T07:41:16.185Z</time>
      </trkpt>
      <trkpt lat="61.50184" lon="5.76768">
        <ele>57.363559</ele>
        <time>2020-07-28T07:41:18.174Z</time>
      </trkpt>
      <trkpt lat="61.50185" lon="5.76748">
        <ele>57.648805</ele>
        <time>2020-07-28T07:41:20.188Z</time>
      </trkpt>
      <trkpt lat="61.50186" lon="5.76727">
        <ele>57.941867</ele>
        <time>2020-07-28T07:41:22.174Z</time>
      </trkpt>
      <trkpt lat="61.50187" lon="5.76707">
        <ele>58.223993</ele>
        <time>2020-07-28T07:41:24.182Z</time>
      </trkpt>
      <trkpt lat="61.50189" lon="5.76688">
        <ele>58.49533</ele>
        <time>2020-07-28T07:41:26.221Z</time>
      </trkpt>
      <trkpt lat="61.5019" lon="5.76668">
        <ele>58.779849</ele>
        <time>2020-07-28T07:41:28.169Z</time>
      </trkpt>
      <trkpt lat="61.50191" lon="5.76648">
        <ele>59.051781</ele>
        <time>2020-07-28T07:41:30.235Z</time>
      </trkpt>
      <trkpt lat="61.50192" lon="5.76629">
        <ele>59.326983</ele>
        <time>2020-07-28T07:41:32.178Z</time>
      </trkpt>
      <trkpt lat="61.50193" lon="5.76609">
        <ele>59.610551</ele>
        <time>2020-07-28T07:41:34.186Z</time>
      </trkpt>
      <trkpt lat="61.50194" lon="5.76589">
        <ele>59.888289</ele>
        <time>2020-07-28T07:41:36.172Z</time>
      </trkpt>
      <trkpt lat="61.50196" lon="5.76562">
        <ele>60.273776</ele>
        <time>2020-07-28T07:41:39.175Z</time>
      </trkpt>
      <trkpt lat="61.50198" lon="5.76536">
        <ele>60.642548</ele>
        <time>2020-07-28T07:41:42.165Z</time>
      </trkpt>
      <trkpt lat="61.50201" lon="5.76509">
        <ele>61.026011</ele>
        <time>2020-07-28T07:41:45.203Z</time>
      </trkpt>
      <trkpt lat="61.50204" lon="5.76483">
        <ele>61.403969</ele>
        <time>2020-07-28T07:41:48.219Z</time>
      </trkpt>
      <trkpt lat="61.50207" lon="5.76456">
        <ele>61.792579</ele>
        <time>2020-07-28T07:41:51.199Z</time>
      </trkpt>
      <trkpt lat="61.5021" lon="5.76438">
        <ele>62.057641</ele>
        <time>2020-07-28T07:41:53.203Z</time>
      </trkpt>
      <trkpt lat="61.50215" lon="5.76412">
        <ele>62.150748</ele>
        <time>2020-07-28T07:41:56.172Z</time>
      </trkpt>
      <trkpt lat="61.50219" lon="5.76395">
        <ele>62.164821</ele>
        <time>2020-07-28T07:41:58.196Z</time>
      </trkpt>
      <trkpt lat="61.50224" lon="5.76377">
        <ele>62.179707</ele>
        <time>2020-07-28T07:42:00.189Z</time>
      </trkpt>
      <trkpt lat="61.50228" lon="5.76359">
        <ele>62.194374</ele>
        <time>2020-07-28T07:42:02.181Z</time>
      </trkpt>
      <trkpt lat="61.50234" lon="5.7634">
        <ele>62.210221</ele>
        <time>2020-07-28T07:42:04.199Z</time>
      </trkpt>
      <trkpt lat="61.50239" lon="5.76323">
        <ele>62.224933</ele>
        <time>2020-07-28T07:42:06.176Z</time>
      </trkpt>
      <trkpt lat="61.50245" lon="5.76306">
        <ele>62.240698</ele>
        <time>2020-07-28T07:42:08.180Z</time>
      </trkpt>
      <trkpt lat="61.50252" lon="5.76289">
        <ele>62.256763</ele>
        <time>2020-07-28T07:42:10.175Z</time>
      </trkpt>
      <trkpt lat="61.50258" lon="5.76271">
        <ele>62.272944</ele>
        <time>2020-07-28T07:42:12.193Z</time>
      </trkpt>
      <trkpt lat="61.50265" lon="5.76251">
        <ele>62.291106</ele>
        <time>2020-07-28T07:42:14.174Z</time>
      </trkpt>
      <trkpt lat="61.50272" lon="5.7623">
        <ele>62.309549</ele>
        <time>2020-07-28T07:42:16.212Z</time>
      </trkpt>
      <trkpt lat="61.50278" lon="5.7621">
        <ele>62.327095</ele>
        <time>2020-07-28T07:42:18.188Z</time>
      </trkpt>
      <trkpt lat="61.50285" lon="5.76191">
        <ele>62.344167</ele>
        <time>2020-07-28T07:42:20.178Z</time>
      </trkpt>
      <trkpt lat="61.50291" lon="5.76172">
        <ele>62.361592</ele>
        <time>2020-07-28T07:42:22.225Z</time>
      </trkpt>
      <trkpt lat="61.50298" lon="5.76152">
        <ele>62.37875</ele>
        <time>2020-07-28T07:42:24.179Z</time>
      </trkpt>
      <trkpt lat="61.50304" lon="5.76132">
        <ele>62.39626</ele>
        <time>2020-07-28T07:42:26.165Z</time>
      </trkpt>
      <trkpt lat="61.50311" lon="5.76113">
        <ele>62.412385</ele>
        <time>2020-07-28T07:42:28.187Z</time>
      </trkpt>
      <trkpt lat="61.50317" lon="5.76094">
        <ele>62.425272</ele>
        <time>2020-07-28T07:42:30.183Z</time>
      </trkpt>
      <trkpt lat="61.50322" lon="5.76075">
        <ele>62.438048</ele>
        <time>2020-07-28T07:42:32.182Z</time>
      </trkpt>
      <trkpt lat="61.50328" lon="5.76058">
        <ele>62.450212</ele>
        <time>2020-07-28T07:42:34.185Z</time>
      </trkpt>
      <trkpt lat="61.50334" lon="5.76043">
        <ele>62.461884</ele>
        <time>2020-07-28T07:42:36.185Z</time>
      </trkpt>
      <trkpt lat="61.50341" lon="5.76027">
        <ele>62.473733</ele>
        <time>2020-07-28T07:42:38.187Z</time>
      </trkpt>
      <trkpt lat="61.50346" lon="5.76009">
        <ele>62.48604</ele>
        <time>2020-07-28T07:42:40.178Z</time>
      </trkpt>
      <trkpt lat="61.50351" lon="5.75989">
        <ele>62.4985</ele>
        <time>2020-07-28T07:42:42.190Z</time>
      </trkpt>
      <trkpt lat="61.50356" lon="5.7597">
        <ele>62.510961</ele>
        <time>2020-07-28T07:42:44.180Z</time>
      </trkpt>
      <trkpt lat="61.50359" lon="5.75949">
        <ele>62.523513</ele>
        <time>2020-07-28T07:42:46.193Z</time>
      </trkpt>
      <trkpt lat="61.50362" lon="5.7593">
        <ele>62.535302</ele>
        <time>2020-07-28T07:42:48.203Z</time>
      </trkpt>
      <trkpt lat="61.50365" lon="5.75909">
        <ele>62.54739</ele>
        <time>2020-07-28T07:42:50.174Z</time>
      </trkpt>
      <trkpt lat="61.50366" lon="5.75887">
        <ele>62.559972</ele>
        <time>2020-07-28T07:42:52.179Z</time>
      </trkpt>
      <trkpt lat="61.50368" lon="5.75866">
        <ele>62.572264</ele>
        <time>2020-07-28T07:42:54.209Z</time>
      </trkpt>
      <trkpt lat="61.50369" lon="5.75845">
        <ele>62.584335</ele>
        <time>2020-07-28T07:42:56.217Z</time>
      </trkpt>
      <trkpt lat="61.5037" lon="5.75824">
        <ele>62.596504</ele>
        <time>2020-07-28T07:42:58.181Z</time>
      </trkpt>
      <trkpt lat="61.50372" lon="5.75803">
        <ele>62.608704</ele>
        <time>2020-07-28T07:43:00.206Z</time>
      </trkpt>
      <trkpt lat="61.50373" lon="5.75782">
        <ele>62.621075</ele>
        <time>2020-07-28T07:43:02.174Z</time>
      </trkpt>
      <trkpt lat="61.50375" lon="5.7576">
        <ele>62.528641</ele>
        <time>2020-07-28T07:43:04.176Z</time>
      </trkpt>
      <trkpt lat="61.50376" lon="5.75738">
        <ele>62.389152</ele>
        <time>2020-07-28T07:43:06.196Z</time>
      </trkpt>
      <trkpt lat="61.50378" lon="5.75718">
        <ele>62.257319</ele>
        <time>2020-07-28T07:43:08.180Z</time>
      </trkpt>
      <trkpt lat="61.50381" lon="5.75697">
        <ele>62.115535</ele>
        <time>2020-07-28T07:43:10.212Z</time>
      </trkpt>
      <trkpt lat="61.50383" lon="5.75676">
        <ele>61.974669</ele>
        <time>2020-07-28T07:43:12.175Z</time>
      </trkpt>
      <trkpt lat="61.50385" lon="5.75653">
        <ele>61.829664</ele>
        <time>2020-07-28T07:43:14.182Z</time>
      </trkpt>
      <trkpt lat="61.50387" lon="5.7563">
        <ele>61.680472</ele>
        <time>2020-07-28T07:43:16.244Z</time>
      </trkpt>
      <trkpt lat="61.50389" lon="5.75609">
        <ele>61.543526</ele>
        <time>2020-07-28T07:43:18.180Z</time>
      </trkpt>
      <trkpt lat="61.50391" lon="5.75589">
        <ele>61.4123</ele>
        <time>2020-07-28T07:43:20.178Z</time>
      </trkpt>
      <trkpt lat="61.50394" lon="5.7557">
        <ele>61.282208</ele>
        <time>2020-07-28T07:43:22.191Z</time>
      </trkpt>
      <trkpt lat="61.50396" lon="5.7555">
        <ele>61.152116</ele>
        <time>2020-07-28T07:43:24.173Z</time>
      </trkpt>
      <trkpt lat="61.50399" lon="5.7553">
        <ele>61.014352</ele>
        <time>2020-07-28T07:43:26.171Z</time>
      </trkpt>
      <trkpt lat="61.50402" lon="5.75509">
        <ele>60.874649</ele>
        <time>2020-07-28T07:43:28.184Z</time>
      </trkpt>
      <trkpt lat="61.50404" lon="5.75488">
        <ele>60.740031</ele>
        <time>2020-07-28T07:43:30.176Z</time>
      </trkpt>
      <trkpt lat="61.50407" lon="5.75468">
        <ele>60.60686</ele>
        <time>2020-07-28T07:43:32.191Z</time>
      </trkpt>
      <trkpt lat="61.5041" lon="5.75448">
        <ele>60.470604</ele>
        <time>2020-07-28T07:43:34.178Z</time>
      </trkpt>
      <trkpt lat="61.50412" lon="5.75427">
        <ele>60.334119</ele>
        <time>2020-07-28T07:43:36.189Z</time>
      </trkpt>
      <trkpt lat="61.50415" lon="5.75407">
        <ele>60.216711</ele>
        <time>2020-07-28T07:43:38.194Z</time>
      </trkpt>
      <trkpt lat="61.50416" lon="5.75387">
        <ele>60.331117</ele>
        <time>2020-07-28T07:43:40.186Z</time>
      </trkpt>
      <trkpt lat="61.50419" lon="5.75367">
        <ele>60.447394</ele>
        <time>2020-07-28T07:43:42.188Z</time>
      </trkpt>
      <trkpt lat="61.5042" lon="5.75347">
        <ele>60.566045</ele>
        <time>2020-07-28T07:43:44.200Z</time>
      </trkpt>
      <trkpt lat="61.50422" lon="5.75327">
        <ele>60.683726</ele>
        <time>2020-07-28T07:43:46.194Z</time>
      </trkpt>
      <trkpt lat="61.50424" lon="5.75307">
        <ele>60.798073</ele>
        <time>2020-07-28T07:43:48.196Z</time>
      </trkpt>
      <trkpt lat="61.50427" lon="5.75288">
        <ele>60.909952</ele>
        <time>2020-07-28T07:43:50.214Z</time>
      </trkpt>
      <trkpt lat="61.50429" lon="5.75269">
        <ele>61.02356</ele>
        <time>2020-07-28T07:43:52.198Z</time>
      </trkpt>
      <trkpt lat="61.50431" lon="5.75249">
        <ele>61.135735</ele>
        <time>2020-07-28T07:43:54.181Z</time>
      </trkpt>
      <trkpt lat="61.50433" lon="5.75229">
        <ele>61.252706</ele>
        <time>2020-07-28T07:43:56.179Z</time>
      </trkpt>
      <trkpt lat="61.50435" lon="5.75209">
        <ele>61.370025</ele>
        <time>2020-07-28T07:43:58.174Z</time>
      </trkpt>
      <trkpt lat="61.50437" lon="5.75189">
        <ele>61.488819</ele>
        <time>2020-07-28T07:44:00.193Z</time>
      </trkpt>
      <trkpt lat="61.50438" lon="5.75168">
        <ele>61.605572</ele>
        <time>2020-07-28T07:44:02.200Z</time>
      </trkpt>
      <trkpt lat="61.50439" lon="5.75148">
        <ele>61.723564</ele>
        <time>2020-07-28T07:44:04.188Z</time>
      </trkpt>
      <trkpt lat="61.50439" lon="5.75125">
        <ele>61.849954</ele>
        <time>2020-07-28T07:44:06.181Z</time>
      </trkpt>
      <trkpt lat="61.50438" lon="5.75103">
        <ele>61.977344</ele>
        <time>2020-07-28T07:44:08.210Z</time>
      </trkpt>
      <trkpt lat="61.50437" lon="5.75081">
        <ele>62.101331</ele>
        <time>2020-07-28T07:44:10.223Z</time>
      </trkpt>
      <trkpt lat="61.50436" lon="5.7506">
        <ele>62.224751</ele>
        <time>2020-07-28T07:44:12.192Z</time>
      </trkpt>
      <trkpt lat="61.50435" lon="5.75039">
        <ele>62.346577</ele>
        <time>2020-07-28T07:44:14.230Z</time>
      </trkpt>
      <trkpt lat="61.50434" lon="5.75018">
        <ele>62.336034</ele>
        <time>2020-07-28T07:44:16.185Z</time>
      </trkpt>
      <trkpt lat="61.50433" lon="5.74999">
        <ele>62.316212</ele>
        <time>2020-07-28T07:44:18.193Z</time>
      </trkpt>
      <trkpt lat="61.50431" lon="5.74978">
        <ele>62.295022</ele>
        <time>2020-07-28T07:44:20.186Z</time>
      </trkpt>
      <trkpt lat="61.5043" lon="5.74957">
        <ele>62.273574</ele>
        <time>2020-07-28T07:44:22.214Z</time>
      </trkpt>
      <trkpt lat="61.5043" lon="5.74936">
        <ele>62.252283</ele>
        <time>2020-07-28T07:44:24.227Z</time>
      </trkpt>
      <trkpt lat="61.50429" lon="5.74916">
        <ele>62.231538</ele>
        <time>2020-07-28T07:44:26.208Z</time>
      </trkpt>
      <trkpt lat="61.50429" lon="5.74887">
        <ele>62.20223</ele>
        <time>2020-07-28T07:44:29.179Z</time>
      </trkpt>
      <trkpt lat="61.50429" lon="5.74868">
        <ele>62.182698</ele>
        <time>2020-07-28T07:44:31.184Z</time>
      </trkpt>
      <trkpt lat="61.50428" lon="5.7485">
        <ele>62.163444</ele>
        <time>2020-07-28T07:44:33.204Z</time>
      </trkpt>
      <trkpt lat="61.50428" lon="5.74823">
        <ele>62.136168</ele>
        <time>2020-07-28T07:44:36.185Z</time>
      </trkpt>
      <trkpt lat="61.50428" lon="5.74795">
        <ele>62.107578</ele>
        <time>2020-07-28T07:44:39.181Z</time>
      </trkpt>
      <trkpt lat="61.50427" lon="5.74775">
        <ele>62.087626</ele>
        <time>2020-07-28T07:44:41.176Z</time>
      </trkpt>
      <trkpt lat="61.50427" lon="5.74755">
        <ele>62.066575</ele>
        <time>2020-07-28T07:44:43.183Z</time>
      </trkpt>
      <trkpt lat="61.50426" lon="5.74734">
        <ele>62.045434</ele>
        <time>2020-07-28T07:44:45.183Z</time>
      </trkpt>
      <trkpt lat="61.50426" lon="5.74713">
        <ele>62.02348</ele>
        <time>2020-07-28T07:44:47.193Z</time>
      </trkpt>
      <trkpt lat="61.50427" lon="5.7469">
        <ele>62.000905</ele>
        <time>2020-07-28T07:44:49.214Z</time>
      </trkpt>
      <trkpt lat="61.50427" lon="5.74667">
        <ele>61.977315</ele>
        <time>2020-07-28T07:44:51.191Z</time>
      </trkpt>
      <trkpt lat="61.50427" lon="5.74644">
        <ele>61.920436</ele>
        <time>2020-07-28T07:44:53.180Z</time>
      </trkpt>
      <trkpt lat="61.50428" lon="5.7462">
        <ele>61.852327</ele>
        <time>2020-07-28T07:44:55.203Z</time>
      </trkpt>
      <trkpt lat="61.50429" lon="5.74597">
        <ele>61.783055</ele>
        <time>2020-07-28T07:44:57.173Z</time>
      </trkpt>
      <trkpt lat="61.50431" lon="5.74573">
        <ele>61.713202</ele>
        <time>2020-07-28T07:44:59.178Z</time>
      </trkpt>
      <trkpt lat="61.50431" lon="5.7455">
        <ele>61.645583</ele>
        <time>2020-07-28T07:45:01.216Z</time>
      </trkpt>
      <trkpt lat="61.50432" lon="5.74527">
        <ele>61.578614</ele>
        <time>2020-07-28T07:45:03.178Z</time>
      </trkpt>
      <trkpt lat="61.50432" lon="5.74505">
        <ele>61.512881</ele>
        <time>2020-07-28T07:45:05.187Z</time>
      </trkpt>
      <trkpt lat="61.50432" lon="5.74482">
        <ele>61.445957</ele>
        <time>2020-07-28T07:45:07.168Z</time>
      </trkpt>
      <trkpt lat="61.50431" lon="5.74458">
        <ele>61.377906</ele>
        <time>2020-07-28T07:45:09.200Z</time>
      </trkpt>
      <trkpt lat="61.50429" lon="5.74436">
        <ele>61.31133</ele>
        <time>2020-07-28T07:45:11.173Z</time>
      </trkpt>
      <trkpt lat="61.50428" lon="5.74414">
        <ele>61.245912</ele>
        <time>2020-07-28T07:45:13.191Z</time>
      </trkpt>
      <trkpt lat="61.50426" lon="5.7439">
        <ele>61.177671</ele>
        <time>2020-07-28T07:45:15.175Z</time>
      </trkpt>
      <trkpt lat="61.50424" lon="5.74366">
        <ele>61.106209</ele>
        <time>2020-07-28T07:45:17.178Z</time>
      </trkpt>
      <trkpt lat="61.50422" lon="5.74342">
        <ele>61.033589</ele>
        <time>2020-07-28T07:45:19.172Z</time>
      </trkpt>
      <trkpt lat="61.50419" lon="5.74317">
        <ele>60.958422</ele>
        <time>2020-07-28T07:45:21.219Z</time>
      </trkpt>
      <trkpt lat="61.50416" lon="5.74291">
        <ele>60.880698</ele>
        <time>2020-07-28T07:45:23.177Z</time>
      </trkpt>
      <trkpt lat="61.50414" lon="5.74264">
        <ele>60.800406</ele>
        <time>2020-07-28T07:45:25.212Z</time>
      </trkpt>
      <trkpt lat="61.50411" lon="5.74237">
        <ele>60.719773</ele>
        <time>2020-07-28T07:45:27.169Z</time>
      </trkpt>
      <trkpt lat="61.50409" lon="5.7421">
        <ele>60.640752</ele>
        <time>2020-07-28T07:45:29.181Z</time>
      </trkpt>
      <trkpt lat="61.50406" lon="5.74183">
        <ele>60.560469</ele>
        <time>2020-07-28T07:45:31.194Z</time>
      </trkpt>
      <trkpt lat="61.50404" lon="5.74157">
        <ele>60.482069</ele>
        <time>2020-07-28T07:45:33.194Z</time>
      </trkpt>
      <trkpt lat="61.50402" lon="5.74133">
        <ele>60.410576</ele>
        <time>2020-07-28T07:45:35.172Z</time>
      </trkpt>
      <trkpt lat="61.504" lon="5.74109">
        <ele>60.340526</ele>
        <time>2020-07-28T07:45:37.184Z</time>
      </trkpt>
      <trkpt lat="61.50398" lon="5.74086">
        <ele>60.27053</ele>
        <time>2020-07-28T07:45:39.187Z</time>
      </trkpt>
      <trkpt lat="61.50395" lon="5.74063">
        <ele>60.200959</ele>
        <time>2020-07-28T07:45:41.212Z</time>
      </trkpt>
      <trkpt lat="61.50392" lon="5.74039">
        <ele>60.129904</ele>
        <time>2020-07-28T07:45:43.183Z</time>
      </trkpt>
      <trkpt lat="61.50389" lon="5.74016">
        <ele>60.059333</ele>
        <time>2020-07-28T07:45:45.173Z</time>
      </trkpt>
      <trkpt lat="61.50387" lon="5.73993">
        <ele>59.990166</ele>
        <time>2020-07-28T07:45:47.205Z</time>
      </trkpt>
      <trkpt lat="61.50384" lon="5.7397">
        <ele>59.922713</ele>
        <time>2020-07-28T07:45:49.178Z</time>
      </trkpt>
      <trkpt lat="61.50383" lon="5.73948">
        <ele>59.856217</ele>
        <time>2020-07-28T07:45:51.234Z</time>
      </trkpt>
      <trkpt lat="61.50382" lon="5.73925">
        <ele>59.789092</ele>
        <time>2020-07-28T07:45:53.183Z</time>
      </trkpt>
      <trkpt lat="61.50381" lon="5.73903">
        <ele>59.845332</ele>
        <time>2020-07-28T07:45:55.188Z</time>
      </trkpt>
      <trkpt lat="61.50381" lon="5.7388">
        <ele>59.959253</ele>
        <time>2020-07-28T07:45:57.214Z</time>
      </trkpt>
      <trkpt lat="61.50381" lon="5.73858">
        <ele>60.072842</ele>
        <time>2020-07-28T07:45:59.198Z</time>
      </trkpt>
      <trkpt lat="61.50382" lon="5.73836">
        <ele>60.187346</ele>
        <time>2020-07-28T07:46:01.174Z</time>
      </trkpt>
      <trkpt lat="61.50382" lon="5.73813">
        <ele>60.30228</ele>
        <time>2020-07-28T07:46:03.188Z</time>
      </trkpt>
      <trkpt lat="61.50382" lon="5.73791">
        <ele>60.415688</ele>
        <time>2020-07-28T07:46:05.185Z</time>
      </trkpt>
      <trkpt lat="61.50382" lon="5.73769">
        <ele>60.525542</ele>
        <time>2020-07-28T07:46:07.185Z</time>
      </trkpt>
      <trkpt lat="61.50382" lon="5.73748">
        <ele>60.633864</ele>
        <time>2020-07-28T07:46:09.208Z</time>
      </trkpt>
      <trkpt lat="61.50382" lon="5.73727">
        <ele>60.737747</ele>
        <time>2020-07-28T07:46:11.208Z</time>
      </trkpt>
      <trkpt lat="61.50382" lon="5.73708">
        <ele>60.837932</ele>
        <time>2020-07-28T07:46:13.203Z</time>
      </trkpt>
      <trkpt lat="61.50382" lon="5.73687">
        <ele>60.945497</ele>
        <time>2020-07-28T07:46:15.190Z</time>
      </trkpt>
      <trkpt lat="61.50381" lon="5.73666">
        <ele>61.052485</ele>
        <time>2020-07-28T07:46:17.167Z</time>
      </trkpt>
      <trkpt lat="61.5038" lon="5.73645">
        <ele>61.160045</ele>
        <time>2020-07-28T07:46:19.198Z</time>
      </trkpt>
      <trkpt lat="61.50377" lon="5.73623">
        <ele>61.274319</ele>
        <time>2020-07-28T07:46:21.183Z</time>
      </trkpt>
      <trkpt lat="61.50375" lon="5.73602">
        <ele>61.383178</ele>
        <time>2020-07-28T07:46:23.215Z</time>
      </trkpt>
      <trkpt lat="61.50372" lon="5.73581">
        <ele>61.492756</ele>
        <time>2020-07-28T07:46:25.177Z</time>
      </trkpt>
      <trkpt lat="61.50371" lon="5.73559">
        <ele>61.604484</ele>
        <time>2020-07-28T07:46:27.200Z</time>
      </trkpt>
      <trkpt lat="61.50369" lon="5.73538">
        <ele>61.636928</ele>
        <time>2020-07-28T07:46:29.167Z</time>
      </trkpt>
      <trkpt lat="61.50368" lon="5.73517">
        <ele>61.44655</ele>
        <time>2020-07-28T07:46:31.214Z</time>
      </trkpt>
      <trkpt lat="61.50367" lon="5.73496">
        <ele>61.259239</ele>
        <time>2020-07-28T07:46:33.195Z</time>
      </trkpt>
      <trkpt lat="61.50367" lon="5.73475">
        <ele>61.070847</ele>
        <time>2020-07-28T07:46:35.185Z</time>
      </trkpt>
      <trkpt lat="61.50367" lon="5.73452">
        <ele>60.863952</ele>
        <time>2020-07-28T07:46:37.179Z</time>
      </trkpt>
      <trkpt lat="61.50366" lon="5.73428">
        <ele>60.655963</ele>
        <time>2020-07-28T07:46:39.195Z</time>
      </trkpt>
      <trkpt lat="61.50366" lon="5.73405">
        <ele>60.448865</ele>
        <time>2020-07-28T07:46:41.178Z</time>
      </trkpt>
      <trkpt lat="61.50365" lon="5.73382">
        <ele>60.245468</ele>
        <time>2020-07-28T07:46:43.184Z</time>
      </trkpt>
      <trkpt lat="61.50366" lon="5.73359">
        <ele>60.034048</ele>
        <time>2020-07-28T07:46:45.195Z</time>
      </trkpt>
      <trkpt lat="61.50366" lon="5.73334">
        <ele>59.814605</ele>
        <time>2020-07-28T07:46:47.190Z</time>
      </trkpt>
      <trkpt lat="61.50366" lon="5.73311">
        <ele>59.605901</ele>
        <time>2020-07-28T07:46:49.217Z</time>
      </trkpt>
      <trkpt lat="61.50366" lon="5.73288">
        <ele>59.403395</ele>
        <time>2020-07-28T07:46:51.199Z</time>
      </trkpt>
      <trkpt lat="61.50366" lon="5.73265">
        <ele>59.198258</ele>
        <time>2020-07-28T07:46:53.184Z</time>
      </trkpt>
      <trkpt lat="61.50366" lon="5.73242">
        <ele>58.995519</ele>
        <time>2020-07-28T07:46:55.171Z</time>
      </trkpt>
      <trkpt lat="61.50365" lon="5.73219">
        <ele>58.79011</ele>
        <time>2020-07-28T07:46:57.184Z</time>
      </trkpt>
      <trkpt lat="61.50364" lon="5.73195">
        <ele>58.576317</ele>
        <time>2020-07-28T07:46:59.185Z</time>
      </trkpt>
      <trkpt lat="61.50362" lon="5.73171">
        <ele>58.353774</ele>
        <time>2020-07-28T07:47:01.211Z</time>
      </trkpt>
      <trkpt lat="61.50361" lon="5.73146">
        <ele>58.288243</ele>
        <time>2020-07-28T07:47:03.199Z</time>
      </trkpt>
      <trkpt lat="61.50359" lon="5.73121">
        <ele>58.246321</ele>
        <time>2020-07-28T07:47:05.190Z</time>
      </trkpt>
      <trkpt lat="61.50357" lon="5.73096">
        <ele>58.204345</ele>
        <time>2020-07-28T07:47:07.200Z</time>
      </trkpt>
      <trkpt lat="61.50355" lon="5.73071">
        <ele>58.161647</ele>
        <time>2020-07-28T07:47:09.177Z</time>
      </trkpt>
      <trkpt lat="61.50353" lon="5.73047">
        <ele>58.121485</ele>
        <time>2020-07-28T07:47:11.201Z</time>
      </trkpt>
      <trkpt lat="61.50352" lon="5.73023">
        <ele>58.079893</ele>
        <time>2020-07-28T07:47:13.198Z</time>
      </trkpt>
      <trkpt lat="61.5035" lon="5.72998">
        <ele>58.03757</ele>
        <time>2020-07-28T07:47:15.179Z</time>
      </trkpt>
      <trkpt lat="61.50349" lon="5.72973">
        <ele>57.996997</ele>
        <time>2020-07-28T07:47:17.194Z</time>
      </trkpt>
      <trkpt lat="61.50348" lon="5.7295">
        <ele>57.956835</ele>
        <time>2020-07-28T07:47:19.177Z</time>
      </trkpt>
      <trkpt lat="61.50347" lon="5.72927">
        <ele>57.918537</ele>
        <time>2020-07-28T07:47:21.184Z</time>
      </trkpt>
      <trkpt lat="61.50345" lon="5.72905">
        <ele>57.881324</ele>
        <time>2020-07-28T07:47:23.215Z</time>
      </trkpt>
      <trkpt lat="61.50344" lon="5.72883">
        <ele>57.845012</ele>
        <time>2020-07-28T07:47:25.172Z</time>
      </trkpt>
      <trkpt lat="61.50342" lon="5.72862">
        <ele>57.808482</ele>
        <time>2020-07-28T07:47:27.220Z</time>
      </trkpt>
      <trkpt lat="61.50341" lon="5.72841">
        <ele>57.774097</ele>
        <time>2020-07-28T07:47:29.194Z</time>
      </trkpt>
      <trkpt lat="61.50339" lon="5.72822">
        <ele>57.740804</ele>
        <time>2020-07-28T07:47:31.186Z</time>
      </trkpt>
      <trkpt lat="61.50338" lon="5.72802">
        <ele>57.708321</ele>
        <time>2020-07-28T07:47:33.186Z</time>
      </trkpt>
      <trkpt lat="61.50337" lon="5.72783">
        <ele>57.673006</ele>
        <time>2020-07-28T07:47:35.191Z</time>
      </trkpt>
      <trkpt lat="61.50336" lon="5.72762">
        <ele>57.635262</ele>
        <time>2020-07-28T07:47:37.219Z</time>
      </trkpt>
      <trkpt lat="61.50334" lon="5.72743">
        <ele>57.598975</ele>
        <time>2020-07-28T07:47:39.196Z</time>
      </trkpt>
      <trkpt lat="61.50331" lon="5.72716">
        <ele>57.548433</ele>
        <time>2020-07-28T07:47:42.192Z</time>
      </trkpt>
      <trkpt lat="61.50329" lon="5.7269">
        <ele>57.499532</ele>
        <time>2020-07-28T07:47:45.172Z</time>
      </trkpt>
      <trkpt lat="61.50327" lon="5.72663">
        <ele>57.44899</ele>
        <time>2020-07-28T07:47:48.194Z</time>
      </trkpt>
      <trkpt lat="61.50326" lon="5.72636">
        <ele>57.399723</ele>
        <time>2020-07-28T07:47:51.205Z</time>
      </trkpt>
      <trkpt lat="61.50327" lon="5.72608">
        <ele>57.347849</ele>
        <time>2020-07-28T07:47:54.178Z</time>
      </trkpt>
      <trkpt lat="61.50327" lon="5.72589">
        <ele>57.312801</ele>
        <time>2020-07-28T07:47:56.179Z</time>
      </trkpt>
      <trkpt lat="61.50328" lon="5.7257">
        <ele>57.277605</ele>
        <time>2020-07-28T07:47:58.178Z</time>
      </trkpt>
      <trkpt lat="61.5033" lon="5.7255">
        <ele>57.240003</ele>
        <time>2020-07-28T07:48:00.175Z</time>
      </trkpt>
      <trkpt lat="61.50332" lon="5.72532">
        <ele>57.205085</ele>
        <time>2020-07-28T07:48:02.177Z</time>
      </trkpt>
      <trkpt lat="61.50335" lon="5.72505">
        <ele>57.153355</ele>
        <time>2020-07-28T07:48:05.192Z</time>
      </trkpt>
      <trkpt lat="61.50338" lon="5.72486">
        <ele>57.116302</ele>
        <time>2020-07-28T07:48:07.170Z</time>
      </trkpt>
      <trkpt lat="61.50342" lon="5.72467">
        <ele>57.079297</ele>
        <time>2020-07-28T07:48:09.211Z</time>
      </trkpt>
      <trkpt lat="61.50345" lon="5.72449">
        <ele>57.043679</ele>
        <time>2020-07-28T07:48:11.183Z</time>
      </trkpt>
      <trkpt lat="61.5035" lon="5.72424">
        <ele>57.012231</ele>
        <time>2020-07-28T07:48:14.216Z</time>
      </trkpt>
      <trkpt lat="61.50356" lon="5.724">
        <ele>57.167273</ele>
        <time>2020-07-28T07:48:17.216Z</time>
      </trkpt>
      <trkpt lat="61.50364" lon="5.72377">
        <ele>57.325105</ele>
        <time>2020-07-28T07:48:20.192Z</time>
      </trkpt>
      <trkpt lat="61.50369" lon="5.72361">
        <ele>57.439626</ele>
        <time>2020-07-28T07:48:22.178Z</time>
      </trkpt>
      <trkpt lat="61.50376" lon="5.72346">
        <ele>57.556979</ele>
        <time>2020-07-28T07:48:24.212Z</time>
      </trkpt>
      <trkpt lat="61.50382" lon="5.7233">
        <ele>57.672515</ele>
        <time>2020-07-28T07:48:26.184Z</time>
      </trkpt>
      <trkpt lat="61.50388" lon="5.72314">
        <ele>57.787945</ele>
        <time>2020-07-28T07:48:28.191Z</time>
      </trkpt>
      <trkpt lat="61.50394" lon="5.72298">
        <ele>57.906939</ele>
        <time>2020-07-28T07:48:30.216Z</time>
      </trkpt>
      <trkpt lat="61.50401" lon="5.72283">
        <ele>58.024069</ele>
        <time>2020-07-28T07:48:32.210Z</time>
      </trkpt>
      <trkpt lat="61.50408" lon="5.72269">
        <ele>58.13958</ele>
        <time>2020-07-28T07:48:34.172Z</time>
      </trkpt>
      <trkpt lat="61.50415" lon="5.72255">
        <ele>58.257284</ele>
        <time>2020-07-28T07:48:36.199Z</time>
      </trkpt>
      <trkpt lat="61.50422" lon="5.7224">
        <ele>58.372733</ele>
        <time>2020-07-28T07:48:38.174Z</time>
      </trkpt>
      <trkpt lat="61.50429" lon="5.72227">
        <ele>58.487242</ele>
        <time>2020-07-28T07:48:40.185Z</time>
      </trkpt>
      <trkpt lat="61.50437" lon="5.72214">
        <ele>58.606281</ele>
        <time>2020-07-28T07:48:42.197Z</time>
      </trkpt>
      <trkpt lat="61.50445" lon="5.72202">
        <ele>58.728699</ele>
        <time>2020-07-28T07:48:44.264Z</time>
      </trkpt>
      <trkpt lat="61.50454" lon="5.7219">
        <ele>58.854756</ele>
        <time>2020-07-28T07:48:46.191Z</time>
      </trkpt>
      <trkpt lat="61.50463" lon="5.72179">
        <ele>58.982578</ele>
        <time>2020-07-28T07:48:48.216Z</time>
      </trkpt>
      <trkpt lat="61.50473" lon="5.72167">
        <ele>59.111456</ele>
        <time>2020-07-28T07:48:50.198Z</time>
      </trkpt>
      <trkpt lat="61.50482" lon="5.72156">
        <ele>59.097911</ele>
        <time>2020-07-28T07:48:52.200Z</time>
      </trkpt>
      <trkpt lat="61.5049" lon="5.72144">
        <ele>59.033363</ele>
        <time>2020-07-28T07:48:54.218Z</time>
      </trkpt>
      <trkpt lat="61.50499" lon="5.72133">
        <ele>58.966821</ele>
        <time>2020-07-28T07:48:56.182Z</time>
      </trkpt>
      <trkpt lat="61.50508" lon="5.72123">
        <ele>58.902603</ele>
        <time>2020-07-28T07:48:58.178Z</time>
      </trkpt>
      <trkpt lat="61.50516" lon="5.72113">
        <ele>58.841561</ele>
        <time>2020-07-28T07:49:00.175Z</time>
      </trkpt>
      <trkpt lat="61.50525" lon="5.72102">
        <ele>58.779341</ele>
        <time>2020-07-28T07:49:02.194Z</time>
      </trkpt>
      <trkpt lat="61.50532" lon="5.72089">
        <ele>58.718217</ele>
        <time>2020-07-28T07:49:04.187Z</time>
      </trkpt>
      <trkpt lat="61.5054" lon="5.7208">
        <ele>58.657232</ele>
        <time>2020-07-28T07:49:06.199Z</time>
      </trkpt>
      <trkpt lat="61.50549" lon="5.7207">
        <ele>58.595238</ele>
        <time>2020-07-28T07:49:08.175Z</time>
      </trkpt>
      <trkpt lat="61.50557" lon="5.72059">
        <ele>58.534352</ele>
        <time>2020-07-28T07:49:10.194Z</time>
      </trkpt>
      <trkpt lat="61.50565" lon="5.72049">
        <ele>58.474507</ele>
        <time>2020-07-28T07:49:12.213Z</time>
      </trkpt>
      <trkpt lat="61.50572" lon="5.72038">
        <ele>58.414998</ele>
        <time>2020-07-28T07:49:14.193Z</time>
      </trkpt>
      <trkpt lat="61.5058" lon="5.72027">
        <ele>58.352898</ele>
        <time>2020-07-28T07:49:16.188Z</time>
      </trkpt>
      <trkpt lat="61.50588" lon="5.72016">
        <ele>58.29231</ele>
        <time>2020-07-28T07:49:18.165Z</time>
      </trkpt>
      <trkpt lat="61.50596" lon="5.72005">
        <ele>58.231722</ele>
        <time>2020-07-28T07:49:20.177Z</time>
      </trkpt>
      <trkpt lat="61.50604" lon="5.71994">
        <ele>58.174345</ele>
        <time>2020-07-28T07:49:22.197Z</time>
      </trkpt>
      <trkpt lat="61.50611" lon="5.71983">
        <ele>58.115913</ele>
        <time>2020-07-28T07:49:24.193Z</time>
      </trkpt>
      <trkpt lat="61.50619" lon="5.71972">
        <ele>58.055559</ele>
        <time>2020-07-28T07:49:26.171Z</time>
      </trkpt>
      <trkpt lat="61.50627" lon="5.71961">
        <ele>57.994078</ele>
        <time>2020-07-28T07:49:28.187Z</time>
      </trkpt>
      <trkpt lat="61.50634" lon="5.7195">
        <ele>57.672547</ele>
        <time>2020-07-28T07:49:30.175Z</time>
      </trkpt>
      <trkpt lat="61.50645" lon="5.71934">
        <ele>57.210311</ele>
        <time>2020-07-28T07:49:33.195Z</time>
      </trkpt>
      <trkpt lat="61.50653" lon="5.71923">
        <ele>56.900901</ele>
        <time>2020-07-28T07:49:35.173Z</time>
      </trkpt>
      <trkpt lat="61.50664" lon="5.7191">
        <ele>56.44711</ele>
        <time>2020-07-28T07:49:38.195Z</time>
      </trkpt>
      <trkpt lat="61.50673" lon="5.71902">
        <ele>56.126783</ele>
        <time>2020-07-28T07:49:40.179Z</time>
      </trkpt>
      <trkpt lat="61.50682" lon="5.71895">
        <ele>55.791567</ele>
        <time>2020-07-28T07:49:42.191Z</time>
      </trkpt>
      <trkpt lat="61.50692" lon="5.71889">
        <ele>55.446401</ele>
        <time>2020-07-28T07:49:44.175Z</time>
      </trkpt>
      <trkpt lat="61.50701" lon="5.71885">
        <ele>55.11701</ele>
        <time>2020-07-28T07:49:46.231Z</time>
      </trkpt>
      <trkpt lat="61.50711" lon="5.71883">
        <ele>54.789767</ele>
        <time>2020-07-28T07:49:48.181Z</time>
      </trkpt>
      <trkpt lat="61.5072" lon="5.71883">
        <ele>54.47071</ele>
        <time>2020-07-28T07:49:50.195Z</time>
      </trkpt>
      <trkpt lat="61.5073" lon="5.71885">
        <ele>54.136906</ele>
        <time>2020-07-28T07:49:52.177Z</time>
      </trkpt>
      <trkpt lat="61.50739" lon="5.71887">
        <ele>53.805772</ele>
        <time>2020-07-28T07:49:54.188Z</time>
      </trkpt>
      <trkpt lat="61.50749" lon="5.7189">
        <ele>53.483674</ele>
        <time>2020-07-28T07:49:56.182Z</time>
      </trkpt>
      <trkpt lat="61.50758" lon="5.71894">
        <ele>53.156231</ele>
        <time>2020-07-28T07:49:58.194Z</time>
      </trkpt>
      <trkpt lat="61.50767" lon="5.71898">
        <ele>52.839552</ele>
        <time>2020-07-28T07:50:00.187Z</time>
      </trkpt>
      <trkpt lat="61.50776" lon="5.71902">
        <ele>52.52522</ele>
        <time>2020-07-28T07:50:02.187Z</time>
      </trkpt>
      <trkpt lat="61.50785" lon="5.71905">
        <ele>52.211191</ele>
        <time>2020-07-28T07:50:04.181Z</time>
      </trkpt>
      <trkpt lat="61.50794" lon="5.71909">
        <ele>51.885817</ele>
        <time>2020-07-28T07:50:06.173Z</time>
      </trkpt>
      <trkpt lat="61.50804" lon="5.71913">
        <ele>51.810142</ele>
        <time>2020-07-28T07:50:08.226Z</time>
      </trkpt>
      <trkpt lat="61.50813" lon="5.71916">
        <ele>51.791986</ele>
        <time>2020-07-28T07:50:10.189Z</time>
      </trkpt>
      <trkpt lat="61.50822" lon="5.71919">
        <ele>51.774614</ele>
        <time>2020-07-28T07:50:12.185Z</time>
      </trkpt>
      <trkpt lat="61.50831" lon="5.71923">
        <ele>51.756762</ele>
        <time>2020-07-28T07:50:14.190Z</time>
      </trkpt>
      <trkpt lat="61.50839" lon="5.71927">
        <ele>51.738966</ele>
        <time>2020-07-28T07:50:16.188Z</time>
      </trkpt>
      <trkpt lat="61.50848" lon="5.71931">
        <ele>51.721021</ele>
        <time>2020-07-28T07:50:18.185Z</time>
      </trkpt>
      <trkpt lat="61.50858" lon="5.71935">
        <ele>51.702905</ele>
        <time>2020-07-28T07:50:20.183Z</time>
      </trkpt>
      <trkpt lat="61.50866" lon="5.7194">
        <ele>51.685445</ele>
        <time>2020-07-28T07:50:22.208Z</time>
      </trkpt>
      <trkpt lat="61.50879" lon="5.71946">
        <ele>51.660058</ele>
        <time>2020-07-28T07:50:25.192Z</time>
      </trkpt>
      <trkpt lat="61.50891" lon="5.7195">
        <ele>51.635872</ele>
        <time>2020-07-28T07:50:28.195Z</time>
      </trkpt>
      <trkpt lat="61.50904" lon="5.71956">
        <ele>51.610103</ele>
        <time>2020-07-28T07:50:31.260Z</time>
      </trkpt>
      <trkpt lat="61.50913" lon="5.71959">
        <ele>51.592459</ele>
        <time>2020-07-28T07:50:33.217Z</time>
      </trkpt>
      <trkpt lat="61.50922" lon="5.71962">
        <ele>51.574688</ele>
        <time>2020-07-28T07:50:35.217Z</time>
      </trkpt>
      <trkpt lat="61.50931" lon="5.71965">
        <ele>51.557302</ele>
        <time>2020-07-28T07:50:37.225Z</time>
      </trkpt>
      <trkpt lat="61.5094" lon="5.71967">
        <ele>51.539104</ele>
        <time>2020-07-28T07:50:39.204Z</time>
      </trkpt>
      <trkpt lat="61.5095" lon="5.71969">
        <ele>51.520146</ele>
        <time>2020-07-28T07:50:41.179Z</time>
      </trkpt>
      <trkpt lat="61.50959" lon="5.7197">
        <ele>51.501602</ele>
        <time>2020-07-28T07:50:43.176Z</time>
      </trkpt>
      <trkpt lat="61.50972" lon="5.71972">
        <ele>51.476003</ele>
        <time>2020-07-28T07:50:46.200Z</time>
      </trkpt>
      <trkpt lat="61.50985" lon="5.7197">
        <ele>51.439408</ele>
        <time>2020-07-28T07:50:49.171Z</time>
      </trkpt>
      <trkpt lat="61.50998" lon="5.71969">
        <ele>51.401554</ele>
        <time>2020-07-28T07:50:52.195Z</time>
      </trkpt>
      <trkpt lat="61.51011" lon="5.71969">
        <ele>51.363181</ele>
        <time>2020-07-28T07:50:55.177Z</time>
      </trkpt>
      <trkpt lat="61.51024" lon="5.71968">
        <ele>51.32449</ele>
        <time>2020-07-28T07:50:58.199Z</time>
      </trkpt>
      <trkpt lat="61.51038" lon="5.71967">
        <ele>51.285821</ele>
        <time>2020-07-28T07:51:01.197Z</time>
      </trkpt>
      <trkpt lat="61.51047" lon="5.71967">
        <ele>51.259135</ele>
        <time>2020-07-28T07:51:03.198Z</time>
      </trkpt>
      <trkpt lat="61.51056" lon="5.71966">
        <ele>51.232456</ele>
        <time>2020-07-28T07:51:05.193Z</time>
      </trkpt>
      <trkpt lat="61.51069" lon="5.71965">
        <ele>51.193174</ele>
        <time>2020-07-28T07:51:08.181Z</time>
      </trkpt>
      <trkpt lat="61.51078" lon="5.71964">
        <ele>51.166509</ele>
        <time>2020-07-28T07:51:10.202Z</time>
      </trkpt>
      <trkpt lat="61.51087" lon="5.71964">
        <ele>51.140435</ele>
        <time>2020-07-28T07:51:12.204Z</time>
      </trkpt>
      <trkpt lat="61.511" lon="5.71962">
        <ele>51.102883</ele>
        <time>2020-07-28T07:51:15.182Z</time>
      </trkpt>
      <trkpt lat="61.51113" lon="5.71961">
        <ele>51.064753</ele>
        <time>2020-07-28T07:51:18.190Z</time>
      </trkpt>
      <trkpt lat="61.51126" lon="5.7196">
        <ele>51.027232</ele>
        <time>2020-07-28T07:51:21.199Z</time>
      </trkpt>
      <trkpt lat="61.51138" lon="5.71958">
        <ele>50.990521</ele>
        <time>2020-07-28T07:51:24.185Z</time>
      </trkpt>
      <trkpt lat="61.51151" lon="5.71957">
        <ele>50.951806</ele>
        <time>2020-07-28T07:51:27.182Z</time>
      </trkpt>
      <trkpt lat="61.51164" lon="5.71956">
        <ele>51.067488</ele>
        <time>2020-07-28T07:51:30.196Z</time>
      </trkpt>
      <trkpt lat="61.51178" lon="5.71955">
        <ele>51.208755</ele>
        <time>2020-07-28T07:51:33.187Z</time>
      </trkpt>
      <trkpt lat="61.51187" lon="5.71955">
        <ele>51.30293</ele>
        <time>2020-07-28T07:51:35.187Z</time>
      </trkpt>
      <trkpt lat="61.51196" lon="5.71955">
        <ele>51.397126</ele>
        <time>2020-07-28T07:51:37.180Z</time>
      </trkpt>
      <trkpt lat="61.51205" lon="5.71954">
        <ele>51.491353</ele>
        <time>2020-07-28T07:51:39.204Z</time>
      </trkpt>
      <trkpt lat="61.51218" lon="5.71953">
        <ele>51.626354</ele>
        <time>2020-07-28T07:51:42.183Z</time>
      </trkpt>
      <trkpt lat="61.5123" lon="5.71952">
        <ele>51.756366</ele>
        <time>2020-07-28T07:51:45.188Z</time>
      </trkpt>
      <trkpt lat="61.51242" lon="5.71951">
        <ele>51.885153</ele>
        <time>2020-07-28T07:51:48.195Z</time>
      </trkpt>
      <trkpt lat="61.51254" lon="5.7195">
        <ele>52.010784</ele>
        <time>2020-07-28T07:51:51.214Z</time>
      </trkpt>
      <trkpt lat="61.51266" lon="5.71949">
        <ele>52.131129</ele>
        <time>2020-07-28T07:51:54.214Z</time>
      </trkpt>
      <trkpt lat="61.51278" lon="5.71948">
        <ele>52.254651</ele>
        <time>2020-07-28T07:51:57.220Z</time>
      </trkpt>
      <trkpt lat="61.51289" lon="5.71948">
        <ele>52.376083</ele>
        <time>2020-07-28T07:52:00.198Z</time>
      </trkpt>
      <trkpt lat="61.513" lon="5.71947">
        <ele>52.483866</ele>
        <time>2020-07-28T07:52:03.195Z</time>
      </trkpt>
      <trkpt lat="61.5131" lon="5.71947">
        <ele>52.595825</ele>
        <time>2020-07-28T07:52:06.179Z</time>
      </trkpt>
      <trkpt lat="61.51321" lon="5.71947">
        <ele>52.711969</ele>
        <time>2020-07-28T07:52:09.183Z</time>
      </trkpt>
      <trkpt lat="61.51332" lon="5.71945">
        <ele>52.827188</ele>
        <time>2020-07-28T07:52:12.197Z</time>
      </trkpt>
      <trkpt lat="61.51343" lon="5.71944">
        <ele>52.940648</ele>
        <time>2020-07-28T07:52:15.210Z</time>
      </trkpt>
      <trkpt lat="61.51353" lon="5.71943">
        <ele>53.045581</ele>
        <time>2020-07-28T07:52:18.196Z</time>
      </trkpt>
      <trkpt lat="61.51363" lon="5.71943">
        <ele>53.150513</ele>
        <time>2020-07-28T07:52:21.205Z</time>
      </trkpt>
      <trkpt lat="61.51374" lon="5.71941">
        <ele>53.256702</ele>
        <time>2020-07-28T07:52:24.188Z</time>
      </trkpt>
      <trkpt lat="61.51384" lon="5.71939">
        <ele>53.364174</ele>
        <time>2020-07-28T07:52:27.177Z</time>
      </trkpt>
      <trkpt lat="61.51394" lon="5.71937">
        <ele>53.47052</ele>
        <time>2020-07-28T07:52:30.195Z</time>
      </trkpt>
      <trkpt lat="61.51405" lon="5.71934">
        <ele>53.583727</ele>
        <time>2020-07-28T07:52:33.203Z</time>
      </trkpt>
      <trkpt lat="61.51416" lon="5.71929">
        <ele>53.700513</ele>
        <time>2020-07-28T07:52:36.192Z</time>
      </trkpt>
      <trkpt lat="61.51427" lon="5.71923">
        <ele>53.8148</ele>
        <time>2020-07-28T07:52:39.180Z</time>
      </trkpt>
      <trkpt lat="61.51437" lon="5.71917">
        <ele>53.922957</ele>
        <time>2020-07-28T07:52:42.177Z</time>
      </trkpt>
      <trkpt lat="61.51446" lon="5.7191">
        <ele>54.028841</ele>
        <time>2020-07-28T07:52:45.192Z</time>
      </trkpt>
      <trkpt lat="61.51456" lon="5.71903">
        <ele>54.135217</ele>
        <time>2020-07-28T07:52:48.194Z</time>
      </trkpt>
      <trkpt lat="61.51466" lon="5.71895">
        <ele>54.246996</ele>
        <time>2020-07-28T07:52:51.219Z</time>
      </trkpt>
      <trkpt lat="61.51476" lon="5.71887">
        <ele>54.360623</ele>
        <time>2020-07-28T07:52:54.215Z</time>
      </trkpt>
      <trkpt lat="61.51486" lon="5.71879">
        <ele>54.474867</ele>
        <time>2020-07-28T07:52:57.172Z</time>
      </trkpt>
      <trkpt lat="61.51496" lon="5.71872">
        <ele>54.584511</ele>
        <time>2020-07-28T07:53:00.201Z</time>
      </trkpt>
      <trkpt lat="61.51506" lon="5.71863">
        <ele>54.69332</ele>
        <time>2020-07-28T07:53:03.186Z</time>
      </trkpt>
      <trkpt lat="61.51516" lon="5.71855">
        <ele>54.992341</ele>
        <time>2020-07-28T07:53:06.212Z</time>
      </trkpt>
      <trkpt lat="61.51526" lon="5.71848">
        <ele>55.306273</ele>
        <time>2020-07-28T07:53:09.179Z</time>
      </trkpt>
      <trkpt lat="61.51536" lon="5.7184">
        <ele>55.619667</ele>
        <time>2020-07-28T07:53:12.181Z</time>
      </trkpt>
      <trkpt lat="61.51547" lon="5.71834">
        <ele>55.940803</ele>
        <time>2020-07-28T07:53:15.215Z</time>
      </trkpt>
      <trkpt lat="61.51558" lon="5.7183">
        <ele>56.249557</ele>
        <time>2020-07-28T07:53:18.213Z</time>
      </trkpt>
      <trkpt lat="61.51567" lon="5.71826">
        <ele>56.532561</ele>
        <time>2020-07-28T07:53:21.198Z</time>
      </trkpt>
      <trkpt lat="61.51576" lon="5.71824">
        <ele>56.803763</ele>
        <time>2020-07-28T07:53:24.188Z</time>
      </trkpt>
      <trkpt lat="61.51588" lon="5.71823">
        <ele>57.151911</ele>
        <time>2020-07-28T07:53:28.183Z</time>
      </trkpt>
      <trkpt lat="61.516" lon="5.71823">
        <ele>57.494108</ele>
        <time>2020-07-28T07:53:32.188Z</time>
      </trkpt>
      <trkpt lat="61.51612" lon="5.71825">
        <ele>57.833811</ele>
        <time>2020-07-28T07:53:36.175Z</time>
      </trkpt>
      <trkpt lat="61.51621" lon="5.71828">
        <ele>58.094745</ele>
        <time>2020-07-28T07:53:39.186Z</time>
      </trkpt>
      <trkpt lat="61.51633" lon="5.71832">
        <ele>58.440141</ele>
        <time>2020-07-28T07:53:43.175Z</time>
      </trkpt>
      <trkpt lat="61.51643" lon="5.71838">
        <ele>58.764798</ele>
        <time>2020-07-28T07:53:47.172Z</time>
      </trkpt>
      <trkpt lat="61.51653" lon="5.71845">
        <ele>59.064764</ele>
        <time>2020-07-28T07:53:51.176Z</time>
      </trkpt>
      <trkpt lat="61.51663" lon="5.71854">
        <ele>59.374409</ele>
        <time>2020-07-28T07:53:55.191Z</time>
      </trkpt>
      <trkpt lat="61.51673" lon="5.71865">
        <ele>59.704426</ele>
        <time>2020-07-28T07:53:59.222Z</time>
      </trkpt>
      <trkpt lat="61.51682" lon="5.71878">
        <ele>59.976005</ele>
        <time>2020-07-28T07:54:03.186Z</time>
      </trkpt>
      <trkpt lat="61.51691" lon="5.71891">
        <ele>60.177683</ele>
        <time>2020-07-28T07:54:07.183Z</time>
      </trkpt>
      <trkpt lat="61.51698" lon="5.71905">
        <ele>60.361917</ele>
        <time>2020-07-28T07:54:11.182Z</time>
      </trkpt>
      <trkpt lat="61.51705" lon="5.71924">
        <ele>60.571604</ele>
        <time>2020-07-28T07:54:15.188Z</time>
      </trkpt>
      <trkpt lat="61.51711" lon="5.71938">
        <ele>60.745699</ele>
        <time>2020-07-28T07:54:18.183Z</time>
      </trkpt>
      <trkpt lat="61.51718" lon="5.71952">
        <ele>60.923431</ele>
        <time>2020-07-28T07:54:21.213Z</time>
      </trkpt>
      <trkpt lat="61.51726" lon="5.71963">
        <ele>61.095184</ele>
        <time>2020-07-28T07:54:24.187Z</time>
      </trkpt>
      <trkpt lat="61.51733" lon="5.71975">
        <ele>61.266836</ele>
        <time>2020-07-28T07:54:27.185Z</time>
      </trkpt>
      <trkpt lat="61.5174" lon="5.7199">
        <ele>61.451244</ele>
        <time>2020-07-28T07:54:30.215Z</time>
      </trkpt>
      <trkpt lat="61.51748" lon="5.72005">
        <ele>61.648876</ele>
        <time>2020-07-28T07:54:33.197Z</time>
      </trkpt>
      <trkpt lat="61.51757" lon="5.7202">
        <ele>61.860007</ele>
        <time>2020-07-28T07:54:36.171Z</time>
      </trkpt>
      <trkpt lat="61.51765" lon="5.72035">
        <ele>62.068096</ele>
        <time>2020-07-28T07:54:39.183Z</time>
      </trkpt>
      <trkpt lat="61.51775" lon="5.72052">
        <ele>62.305385</ele>
        <time>2020-07-28T07:54:42.175Z</time>
      </trkpt>
      <trkpt lat="61.51785" lon="5.72068">
        <ele>62.528236</ele>
        <time>2020-07-28T07:54:45.180Z</time>
      </trkpt>
      <trkpt lat="61.51793" lon="5.72084">
        <ele>62.745176</ele>
        <time>2020-07-28T07:54:48.181Z</time>
      </trkpt>
      <trkpt lat="61.51802" lon="5.72101">
        <ele>62.967658</ele>
        <time>2020-07-28T07:54:51.177Z</time>
      </trkpt>
      <trkpt lat="61.5181" lon="5.72118">
        <ele>63.177793</ele>
        <time>2020-07-28T07:54:54.189Z</time>
      </trkpt>
      <trkpt lat="61.51819" lon="5.72134">
        <ele>63.108714</ele>
        <time>2020-07-28T07:54:57.226Z</time>
      </trkpt>
      <trkpt lat="61.51828" lon="5.72152">
        <ele>62.900145</ele>
        <time>2020-07-28T07:55:00.196Z</time>
      </trkpt>
      <trkpt lat="61.51835" lon="5.72168">
        <ele>62.708381</ele>
        <time>2020-07-28T07:55:03.230Z</time>
      </trkpt>
      <trkpt lat="61.51843" lon="5.72185">
        <ele>62.511218</ele>
        <time>2020-07-28T07:55:06.188Z</time>
      </trkpt>
      <trkpt lat="61.5185" lon="5.72204">
        <ele>62.313756</ele>
        <time>2020-07-28T07:55:09.182Z</time>
      </trkpt>
      <trkpt lat="61.51858" lon="5.72222">
        <ele>62.115793</ele>
        <time>2020-07-28T07:55:12.181Z</time>
      </trkpt>
      <trkpt lat="61.51865" lon="5.7224">
        <ele>61.912259</ele>
        <time>2020-07-28T07:55:15.191Z</time>
      </trkpt>
      <trkpt lat="61.51873" lon="5.72259">
        <ele>61.708724</ele>
        <time>2020-07-28T07:55:18.192Z</time>
      </trkpt>
      <trkpt lat="61.5188" lon="5.72278">
        <ele>61.509616</ele>
        <time>2020-07-28T07:55:21.259Z</time>
      </trkpt>
      <trkpt lat="61.51887" lon="5.72297">
        <ele>61.305917</ele>
        <time>2020-07-28T07:55:24.200Z</time>
      </trkpt>
      <trkpt lat="61.51894" lon="5.72314">
        <ele>61.115794</ele>
        <time>2020-07-28T07:55:27.185Z</time>
      </trkpt>
      <trkpt lat="61.51901" lon="5.72331">
        <ele>60.932727</ele>
        <time>2020-07-28T07:55:30.222Z</time>
      </trkpt>
      <trkpt lat="61.51908" lon="5.72349">
        <ele>60.733619</ele>
        <time>2020-07-28T07:55:33.215Z</time>
      </trkpt>
      <trkpt lat="61.51915" lon="5.72367">
        <ele>60.537429</ele>
        <time>2020-07-28T07:55:36.182Z</time>
      </trkpt>
      <trkpt lat="61.51921" lon="5.72387">
        <ele>60.34811</ele>
        <time>2020-07-28T07:55:39.197Z</time>
      </trkpt>
      <trkpt lat="61.51926" lon="5.72406">
        <ele>60.160748</ele>
        <time>2020-07-28T07:55:42.183Z</time>
      </trkpt>
      <trkpt lat="61.51933" lon="5.72427">
        <ele>60.230148</ele>
        <time>2020-07-28T07:55:45.181Z</time>
      </trkpt>
      <trkpt lat="61.51939" lon="5.72441">
        <ele>60.358139</ele>
        <time>2020-07-28T07:55:47.182Z</time>
      </trkpt>
      <trkpt lat="61.51946" lon="5.72455">
        <ele>60.487421</ele>
        <time>2020-07-28T07:55:49.195Z</time>
      </trkpt>
      <trkpt lat="61.51953" lon="5.72468">
        <ele>60.614171</ele>
        <time>2020-07-28T07:55:51.212Z</time>
      </trkpt>
      <trkpt lat="61.51963" lon="5.72486">
        <ele>60.793776</ele>
        <time>2020-07-28T07:55:54.179Z</time>
      </trkpt>
      <trkpt lat="61.51971" lon="5.72501">
        <ele>60.951333</ele>
        <time>2020-07-28T07:55:57.206Z</time>
      </trkpt>
      <trkpt lat="61.51979" lon="5.72519">
        <ele>61.114559</ele>
        <time>2020-07-28T07:56:00.192Z</time>
      </trkpt>
      <trkpt lat="61.51986" lon="5.7254">
        <ele>61.283759</ele>
        <time>2020-07-28T07:56:03.177Z</time>
      </trkpt>
      <trkpt lat="61.51989" lon="5.72564">
        <ele>61.445906</ele>
        <time>2020-07-28T07:56:06.209Z</time>
      </trkpt>
      <trkpt lat="61.51985" lon="5.72587">
        <ele>61.611781</ele>
        <time>2020-07-28T07:56:09.217Z</time>
      </trkpt>
      <trkpt lat="61.51984" lon="5.72606">
        <ele>61.737073</ele>
        <time>2020-07-28T07:56:11.178Z</time>
      </trkpt>
      <trkpt lat="61.51986" lon="5.72627">
        <ele>61.875602</ele>
        <time>2020-07-28T07:56:13.232Z</time>
      </trkpt>
      <trkpt lat="61.51988" lon="5.72646">
        <ele>62.009115</ele>
        <time>2020-07-28T07:56:15.195Z</time>
      </trkpt>
      <trkpt lat="61.51992" lon="5.72666">
        <ele>62.149282</ele>
        <time>2020-07-28T07:56:17.179Z</time>
      </trkpt>
      <trkpt lat="61.51996" lon="5.72691">
        <ele>62.321384</ele>
        <time>2020-07-28T07:56:20.185Z</time>
      </trkpt>
      <trkpt lat="61.51998" lon="5.72718">
        <ele>62.499979</ele>
        <time>2020-07-28T07:56:23.177Z</time>
      </trkpt>
      <trkpt lat="61.52002" lon="5.72744">
        <ele>62.624601</ele>
        <time>2020-07-28T07:56:26.184Z</time>
      </trkpt>
      <trkpt lat="61.52006" lon="5.72769">
        <ele>62.677301</ele>
        <time>2020-07-28T07:56:29.183Z</time>
      </trkpt>
      <trkpt lat="61.52009" lon="5.72796">
        <ele>62.731</ele>
        <time>2020-07-28T07:56:32.217Z</time>
      </trkpt>
      <trkpt lat="61.52012" lon="5.72822">
        <ele>62.7837</ele>
        <time>2020-07-28T07:56:35.196Z</time>
      </trkpt>
      <trkpt lat="61.52016" lon="5.72848">
        <ele>62.83657</ele>
        <time>2020-07-28T07:56:38.187Z</time>
      </trkpt>
      <trkpt lat="61.52019" lon="5.72866">
        <ele>62.87373</ele>
        <time>2020-07-28T07:56:40.216Z</time>
      </trkpt>
      <trkpt lat="61.52024" lon="5.72892">
        <ele>62.927303</ele>
        <time>2020-07-28T07:56:43.205Z</time>
      </trkpt>
      <trkpt lat="61.52028" lon="5.72918">
        <ele>62.980967</ele>
        <time>2020-07-28T07:56:46.197Z</time>
      </trkpt>
      <trkpt lat="61.52032" lon="5.72945">
        <ele>63.036001</ele>
        <time>2020-07-28T07:56:49.197Z</time>
      </trkpt>
      <trkpt lat="61.52035" lon="5.72971">
        <ele>63.089803</ele>
        <time>2020-07-28T07:56:52.198Z</time>
      </trkpt>
      <trkpt lat="61.52039" lon="5.72996">
        <ele>63.141618</ele>
        <time>2020-07-28T07:56:55.167Z</time>
      </trkpt>
      <trkpt lat="61.52043" lon="5.7302">
        <ele>63.18959</ele>
        <time>2020-07-28T07:56:58.224Z</time>
      </trkpt>
      <trkpt lat="61.52046" lon="5.73045">
        <ele>63.241613</ele>
        <time>2020-07-28T07:57:01.182Z</time>
      </trkpt>
      <trkpt lat="61.5205" lon="5.73071">
        <ele>63.294736</ele>
        <time>2020-07-28T07:57:04.173Z</time>
      </trkpt>
      <trkpt lat="61.52054" lon="5.73097">
        <ele>63.360158</ele>
        <time>2020-07-28T07:57:07.183Z</time>
      </trkpt>
      <trkpt lat="61.52058" lon="5.73122">
        <ele>63.469267</ele>
        <time>2020-07-28T07:57:10.220Z</time>
      </trkpt>
      <trkpt lat="61.52063" lon="5.73146">
        <ele>63.578564</ele>
        <time>2020-07-28T07:57:13.182Z</time>
      </trkpt>
      <trkpt lat="61.52067" lon="5.73169">
        <ele>63.684151</ele>
        <time>2020-07-28T07:57:16.183Z</time>
      </trkpt>
      <trkpt lat="61.52072" lon="5.73192">
        <ele>63.791788</ele>
        <time>2020-07-28T07:57:19.184Z</time>
      </trkpt>
      <trkpt lat="61.52078" lon="5.73216">
        <ele>63.90452</ele>
        <time>2020-07-28T07:57:22.179Z</time>
      </trkpt>
      <trkpt lat="61.52085" lon="5.73237">
        <ele>64.012607</ele>
        <time>2020-07-28T07:57:25.191Z</time>
      </trkpt>
      <trkpt lat="61.52091" lon="5.73256">
        <ele>64.109588</ele>
        <time>2020-07-28T07:57:28.174Z</time>
      </trkpt>
      <trkpt lat="61.52097" lon="5.73275">
        <ele>64.203958</ele>
        <time>2020-07-28T07:57:31.172Z</time>
      </trkpt>
      <trkpt lat="61.52102" lon="5.73294">
        <ele>64.292275</ele>
        <time>2020-07-28T07:57:34.193Z</time>
      </trkpt>
      <trkpt lat="61.52107" lon="5.7331">
        <ele>64.372039</ele>
        <time>2020-07-28T07:57:37.217Z</time>
      </trkpt>
      <trkpt lat="61.52114" lon="5.73323">
        <ele>64.457877</ele>
        <time>2020-07-28T07:57:40.220Z</time>
      </trkpt>
      <trkpt lat="61.52121" lon="5.73341">
        <ele>64.554417</ele>
        <time>2020-07-28T07:57:44.161Z</time>
      </trkpt>
      <trkpt lat="61.52128" lon="5.7336">
        <ele>64.654471</ele>
        <time>2020-07-28T07:57:48.190Z</time>
      </trkpt>
      <trkpt lat="61.52135" lon="5.73379">
        <ele>64.758393</ele>
        <time>2020-07-28T07:57:52.190Z</time>
      </trkpt>
      <trkpt lat="61.52141" lon="5.73393">
        <ele>64.841394</ele>
        <time>2020-07-28T07:57:55.195Z</time>
      </trkpt>
      <trkpt lat="61.52148" lon="5.73408">
        <ele>64.924331</ele>
        <time>2020-07-28T07:57:58.184Z</time>
      </trkpt>
      <trkpt lat="61.52154" lon="5.73422">
        <ele>65.260504</ele>
        <time>2020-07-28T07:58:01.224Z</time>
      </trkpt>
      <trkpt lat="61.52162" lon="5.73438">
        <ele>65.66329</ele>
        <time>2020-07-28T07:58:05.179Z</time>
      </trkpt>
      <trkpt lat="61.52171" lon="5.73452">
        <ele>66.046924</ele>
        <time>2020-07-28T07:58:09.207Z</time>
      </trkpt>
      <trkpt lat="61.52179" lon="5.73466">
        <ele>66.425417</ele>
        <time>2020-07-28T07:58:13.186Z</time>
      </trkpt>
      <trkpt lat="61.52187" lon="5.73484">
        <ele>66.860843</ele>
        <time>2020-07-28T07:58:17.213Z</time>
      </trkpt>
      <trkpt lat="61.52195" lon="5.73501">
        <ele>67.277083</ele>
        <time>2020-07-28T07:58:21.219Z</time>
      </trkpt>
      <trkpt lat="61.52203" lon="5.7352">
        <ele>67.69252</ele>
        <time>2020-07-28T07:58:25.192Z</time>
      </trkpt>
      <trkpt lat="61.52211" lon="5.73536">
        <ele>68.096343</ele>
        <time>2020-07-28T07:58:29.229Z</time>
      </trkpt>
      <trkpt lat="61.52219" lon="5.73549">
        <ele>68.469492</ele>
        <time>2020-07-28T07:58:33.180Z</time>
      </trkpt>
      <trkpt lat="61.52227" lon="5.73565">
        <ele>68.868976</ele>
        <time>2020-07-28T07:58:37.173Z</time>
      </trkpt>
      <trkpt lat="61.52235" lon="5.73579">
        <ele>69.250246</ele>
        <time>2020-07-28T07:58:41.196Z</time>
      </trkpt>
      <trkpt lat="61.52242" lon="5.73594">
        <ele>69.621493</ele>
        <time>2020-07-28T07:58:45.210Z</time>
      </trkpt>
      <trkpt lat="61.52251" lon="5.73608">
        <ele>70.002292</ele>
        <time>2020-07-28T07:58:49.203Z</time>
      </trkpt>
      <trkpt lat="61.52258" lon="5.73621">
        <ele>70.349076</ele>
        <time>2020-07-28T07:58:53.184Z</time>
      </trkpt>
      <trkpt lat="61.52265" lon="5.73635">
        <ele>70.704313</ele>
        <time>2020-07-28T07:58:57.191Z</time>
      </trkpt>
      <trkpt lat="61.52272" lon="5.73649">
        <ele>71.072601</ele>
        <time>2020-07-28T07:59:01.219Z</time>
      </trkpt>
      <trkpt lat="61.52279" lon="5.73665">
        <ele>71.437623</ele>
        <time>2020-07-28T07:59:05.188Z</time>
      </trkpt>
      <trkpt lat="61.52286" lon="5.73679">
        <ele>71.652287</ele>
        <time>2020-07-28T07:59:09.183Z</time>
      </trkpt>
      <trkpt lat="61.52294" lon="5.73691">
        <ele>71.853318</ele>
        <time>2020-07-28T07:59:13.191Z</time>
      </trkpt>
      <trkpt lat="61.52301" lon="5.73704">
        <ele>72.07137</ele>
        <time>2020-07-28T07:59:17.199Z</time>
      </trkpt>
      <trkpt lat="61.52309" lon="5.73718">
        <ele>72.290752</ele>
        <time>2020-07-28T07:59:21.208Z</time>
      </trkpt>
      <trkpt lat="61.52317" lon="5.73731">
        <ele>72.511544</ele>
        <time>2020-07-28T07:59:25.226Z</time>
      </trkpt>
      <trkpt lat="61.52326" lon="5.73746">
        <ele>72.770368</ele>
        <time>2020-07-28T07:59:29.184Z</time>
      </trkpt>
      <trkpt lat="61.52337" lon="5.73759">
        <ele>73.033683</ele>
        <time>2020-07-28T07:59:33.180Z</time>
      </trkpt>
      <trkpt lat="61.52345" lon="5.73771">
        <ele>73.257625</ele>
        <time>2020-07-28T07:59:36.179Z</time>
      </trkpt>
      <trkpt lat="61.52353" lon="5.73787">
        <ele>73.506593</ele>
        <time>2020-07-28T07:59:39.184Z</time>
      </trkpt>
      <trkpt lat="61.52361" lon="5.73799">
        <ele>73.717997</ele>
        <time>2020-07-28T07:59:42.221Z</time>
      </trkpt>
      <trkpt lat="61.52369" lon="5.73812">
        <ele>73.943508</ele>
        <time>2020-07-28T07:59:45.198Z</time>
      </trkpt>
      <trkpt lat="61.52377" lon="5.73826">
        <ele>74.150907</ele>
        <time>2020-07-28T07:59:48.195Z</time>
      </trkpt>
      <trkpt lat="61.52385" lon="5.73837">
        <ele>74.364138</ele>
        <time>2020-07-28T07:59:51.184Z</time>
      </trkpt>
      <trkpt lat="61.52392" lon="5.7385">
        <ele>74.578514</ele>
        <time>2020-07-28T07:59:54.198Z</time>
      </trkpt>
      <trkpt lat="61.52402" lon="5.73866">
        <ele>74.852701</ele>
        <time>2020-07-28T07:59:57.184Z</time>
      </trkpt>
      <trkpt lat="61.52413" lon="5.73882">
        <ele>75.1489</ele>
        <time>2020-07-28T08:00:00.180Z</time>
      </trkpt>
      <trkpt lat="61.52421" lon="5.73893">
        <ele>75.347766</ele>
        <time>2020-07-28T08:00:02.207Z</time>
      </trkpt>
      <trkpt lat="61.52428" lon="5.73904">
        <ele>75.277088</ele>
        <time>2020-07-28T08:00:04.181Z</time>
      </trkpt>
      <trkpt lat="61.52437" lon="5.73918">
        <ele>75.145882</ele>
        <time>2020-07-28T08:00:06.196Z</time>
      </trkpt>
      <trkpt lat="61.52446" lon="5.73934">
        <ele>75.003837</ele>
        <time>2020-07-28T08:00:08.176Z</time>
      </trkpt>
      <trkpt lat="61.52455" lon="5.73947">
        <ele>74.872632</ele>
        <time>2020-07-28T08:00:10.186Z</time>
      </trkpt>
      <trkpt lat="61.52463" lon="5.73961">
        <ele>74.748341</ele>
        <time>2020-07-28T08:00:12.180Z</time>
      </trkpt>
      <trkpt lat="61.52471" lon="5.73974">
        <ele>74.621529</ele>
        <time>2020-07-28T08:00:14.192Z</time>
      </trkpt>
      <trkpt lat="61.52479" lon="5.73987">
        <ele>74.499038</ele>
        <time>2020-07-28T08:00:16.196Z</time>
      </trkpt>
      <trkpt lat="61.52486" lon="5.73999">
        <ele>74.388552</ele>
        <time>2020-07-28T08:00:18.185Z</time>
      </trkpt>
      <trkpt lat="61.52497" lon="5.74015">
        <ele>74.228949</ele>
        <time>2020-07-28T08:00:21.180Z</time>
      </trkpt>
      <trkpt lat="61.52506" lon="5.74034">
        <ele>74.072843</ele>
        <time>2020-07-28T08:00:24.185Z</time>
      </trkpt>
      <trkpt lat="61.52516" lon="5.7405">
        <ele>73.922239</ele>
        <time>2020-07-28T08:00:27.186Z</time>
      </trkpt>
      <trkpt lat="61.52524" lon="5.74067">
        <ele>73.780116</ele>
        <time>2020-07-28T08:00:30.198Z</time>
      </trkpt>
      <trkpt lat="61.52533" lon="5.74082">
        <ele>73.639742</ele>
        <time>2020-07-28T08:00:33.215Z</time>
      </trkpt>
      <trkpt lat="61.52541" lon="5.74095">
        <ele>73.52176</ele>
        <time>2020-07-28T08:00:36.191Z</time>
      </trkpt>
      <trkpt lat="61.52548" lon="5.74111">
        <ele>73.399</ele>
        <time>2020-07-28T08:00:39.190Z</time>
      </trkpt>
      <trkpt lat="61.52555" lon="5.74129">
        <ele>73.262922</ele>
        <time>2020-07-28T08:00:42.176Z</time>
      </trkpt>
      <trkpt lat="61.52562" lon="5.74144">
        <ele>73.214683</ele>
        <time>2020-07-28T08:00:45.204Z</time>
      </trkpt>
      <trkpt lat="61.52569" lon="5.7416">
        <ele>73.26249</ele>
        <time>2020-07-28T08:00:48.180Z</time>
      </trkpt>
      <trkpt lat="61.52576" lon="5.74177">
        <ele>73.310646</ele>
        <time>2020-07-28T08:00:51.179Z</time>
      </trkpt>
      <trkpt lat="61.52583" lon="5.74191">
        <ele>73.3548</ele>
        <time>2020-07-28T08:00:54.206Z</time>
      </trkpt>
      <trkpt lat="61.5259" lon="5.7421">
        <ele>73.408067</ele>
        <time>2020-07-28T08:00:58.208Z</time>
      </trkpt>
      <trkpt lat="61.52597" lon="5.74227">
        <ele>73.456059</ele>
        <time>2020-07-28T08:01:02.188Z</time>
      </trkpt>
      <trkpt lat="61.52604" lon="5.74245">
        <ele>73.507675</ele>
        <time>2020-07-28T08:01:06.184Z</time>
      </trkpt>
      <trkpt lat="61.52613" lon="5.74263">
        <ele>73.562918</ele>
        <time>2020-07-28T08:01:10.209Z</time>
      </trkpt>
      <trkpt lat="61.5262" lon="5.7428">
        <ele>73.614668</ele>
        <time>2020-07-28T08:01:14.194Z</time>
      </trkpt>
      <trkpt lat="61.52628" lon="5.74292">
        <ele>73.656805</ele>
        <time>2020-07-28T08:01:18.225Z</time>
      </trkpt>
      <trkpt lat="61.52636" lon="5.74309">
        <ele>73.70953</ele>
        <time>2020-07-28T08:01:23.172Z</time>
      </trkpt>
      <trkpt lat="61.52643" lon="5.74324">
        <ele>73.757165</ele>
        <time>2020-07-28T08:01:27.178Z</time>
      </trkpt>
      <trkpt lat="61.52651" lon="5.74341">
        <ele>73.810371</ele>
        <time>2020-07-28T08:01:31.183Z</time>
      </trkpt>
      <trkpt lat="61.52658" lon="5.74355">
        <ele>73.852467</ele>
        <time>2020-07-28T08:01:34.201Z</time>
      </trkpt>
      <trkpt lat="61.52666" lon="5.7437">
        <ele>73.904258</ele>
        <time>2020-07-28T08:01:38.200Z</time>
      </trkpt>
      <trkpt lat="61.52674" lon="5.74385">
        <ele>73.952674</ele>
        <time>2020-07-28T08:01:42.206Z</time>
      </trkpt>
      <trkpt lat="61.52682" lon="5.74399">
        <ele>73.999554</ele>
        <time>2020-07-28T08:01:46.181Z</time>
      </trkpt>
      <trkpt lat="61.52692" lon="5.74409">
        <ele>74.104461</ele>
        <time>2020-07-28T08:01:50.221Z</time>
      </trkpt>
      <trkpt lat="61.52703" lon="5.74419">
        <ele>74.251117</ele>
        <time>2020-07-28T08:01:54.215Z</time>
      </trkpt>
      <trkpt lat="61.52711" lon="5.74426">
        <ele>74.369066</ele>
        <time>2020-07-28T08:01:57.205Z</time>
      </trkpt>
      <trkpt lat="61.5272" lon="5.74433">
        <ele>74.485843</ele>
        <time>2020-07-28T08:02:00.185Z</time>
      </trkpt>
      <trkpt lat="61.52729" lon="5.74439">
        <ele>74.599616</ele>
        <time>2020-07-28T08:02:03.184Z</time>
      </trkpt>
      <trkpt lat="61.52739" lon="5.74449">
        <ele>74.74691</ele>
        <time>2020-07-28T08:02:07.201Z</time>
      </trkpt>
      <trkpt lat="61.52748" lon="5.74456">
        <ele>74.860919</ele>
        <time>2020-07-28T08:02:10.199Z</time>
      </trkpt>
      <trkpt lat="61.52756" lon="5.74464">
        <ele>74.976718</ele>
        <time>2020-07-28T08:02:13.198Z</time>
      </trkpt>
      <trkpt lat="61.52767" lon="5.74472">
        <ele>75.12032</ele>
        <time>2020-07-28T08:02:17.206Z</time>
      </trkpt>
      <trkpt lat="61.52777" lon="5.74482">
        <ele>75.255772</ele>
        <time>2020-07-28T08:02:21.192Z</time>
      </trkpt>
      <trkpt lat="61.52787" lon="5.74493">
        <ele>75.394265</ele>
        <time>2020-07-28T08:02:25.181Z</time>
      </trkpt>
      <trkpt lat="61.52797" lon="5.74503">
        <ele>75.534412</ele>
        <time>2020-07-28T08:02:29.183Z</time>
      </trkpt>
      <trkpt lat="61.52807" lon="5.74513">
        <ele>75.673171</ele>
        <time>2020-07-28T08:02:33.213Z</time>
      </trkpt>
      <trkpt lat="61.52817" lon="5.74525">
        <ele>75.815806</ele>
        <time>2020-07-28T08:02:37.180Z</time>
      </trkpt>
      <trkpt lat="61.52826" lon="5.74537">
        <ele>75.953589</ele>
        <time>2020-07-28T08:02:41.186Z</time>
      </trkpt>
      <trkpt lat="61.52836" lon="5.7455">
        <ele>76.099334</ele>
        <time>2020-07-28T08:02:45.224Z</time>
      </trkpt>
      <trkpt lat="61.52846" lon="5.74562">
        <ele>76.241544</ele>
        <time>2020-07-28T08:02:49.179Z</time>
      </trkpt>
      <trkpt lat="61.52855" lon="5.74575">
        <ele>76.614309</ele>
        <time>2020-07-28T08:02:53.211Z</time>
      </trkpt>
      <trkpt lat="61.52865" lon="5.74588">
        <ele>77.038355</ele>
        <time>2020-07-28T08:02:57.195Z</time>
      </trkpt>
      <trkpt lat="61.52875" lon="5.74601">
        <ele>77.492224</ele>
        <time>2020-07-28T08:03:01.221Z</time>
      </trkpt>
      <trkpt lat="61.52885" lon="5.74613">
        <ele>77.944193</ele>
        <time>2020-07-28T08:03:05.174Z</time>
      </trkpt>
      <trkpt lat="61.52894" lon="5.74626">
        <ele>78.366026</ele>
        <time>2020-07-28T08:03:09.189Z</time>
      </trkpt>
      <trkpt lat="61.52901" lon="5.74639">
        <ele>78.733983</ele>
        <time>2020-07-28T08:03:13.185Z</time>
      </trkpt>
      <trkpt lat="61.5291" lon="5.74652">
        <ele>79.143108</ele>
        <time>2020-07-28T08:03:17.198Z</time>
      </trkpt>
      <trkpt lat="61.52919" lon="5.74666">
        <ele>79.578413</ele>
        <time>2020-07-28T08:03:21.174Z</time>
      </trkpt>
      <trkpt lat="61.52928" lon="5.74678">
        <ele>79.988652</ele>
        <time>2020-07-28T08:03:25.185Z</time>
      </trkpt>
      <trkpt lat="61.52938" lon="5.74691">
        <ele>80.421914</ele>
        <time>2020-07-28T08:03:29.182Z</time>
      </trkpt>
      <trkpt lat="61.52947" lon="5.74703">
        <ele>80.839631</ele>
        <time>2020-07-28T08:03:33.194Z</time>
      </trkpt>
      <trkpt lat="61.52957" lon="5.74714">
        <ele>81.278083</ele>
        <time>2020-07-28T08:03:37.191Z</time>
      </trkpt>
      <trkpt lat="61.52967" lon="5.74726">
        <ele>81.702124</ele>
        <time>2020-07-28T08:03:41.213Z</time>
      </trkpt>
      <trkpt lat="61.52976" lon="5.74739">
        <ele>82.115549</ele>
        <time>2020-07-28T08:03:45.187Z</time>
      </trkpt>
      <trkpt lat="61.52984" lon="5.74752">
        <ele>82.527797</ele>
        <time>2020-07-28T08:03:49.193Z</time>
      </trkpt>
      <trkpt lat="61.52992" lon="5.74764">
        <ele>82.886425</ele>
        <time>2020-07-28T08:03:53.212Z</time>
      </trkpt>
      <trkpt lat="61.53001" lon="5.74775">
        <ele>83.143085</ele>
        <time>2020-07-28T08:03:58.207Z</time>
      </trkpt>
      <trkpt lat="61.5301" lon="5.74791">
        <ele>83.086359</ele>
        <time>2020-07-28T08:04:02.174Z</time>
      </trkpt>
      <trkpt lat="61.53018" lon="5.748">
        <ele>83.041726</ele>
        <time>2020-07-28T08:04:06.172Z</time>
      </trkpt>
      <trkpt lat="61.53025" lon="5.74812">
        <ele>82.99743</ele>
        <time>2020-07-28T08:04:10.201Z</time>
      </trkpt>
      <trkpt lat="61.53034" lon="5.74823">
        <ele>82.947972</ele>
        <time>2020-07-28T08:04:14.179Z</time>
      </trkpt>
      <trkpt lat="61.53043" lon="5.74831">
        <ele>82.898041</ele>
        <time>2020-07-28T08:04:18.185Z</time>
      </trkpt>
      <trkpt lat="61.53055" lon="5.74835">
        <ele>82.840985</ele>
        <time>2020-07-28T08:04:22.193Z</time>
      </trkpt>
      <trkpt lat="61.53065" lon="5.74843">
        <ele>82.785062</ele>
        <time>2020-07-28T08:04:26.174Z</time>
      </trkpt>
      <trkpt lat="61.53076" lon="5.74849">
        <ele>82.731911</ele>
        <time>2020-07-28T08:04:30.175Z</time>
      </trkpt>
      <trkpt lat="61.53086" lon="5.74858">
        <ele>82.679713</ele>
        <time>2020-07-28T08:04:34.199Z</time>
      </trkpt>
      <trkpt lat="61.53096" lon="5.74869">
        <ele>82.623259</ele>
        <time>2020-07-28T08:04:38.223Z</time>
      </trkpt>
      <trkpt lat="61.53106" lon="5.7488">
        <ele>82.564766</ele>
        <time>2020-07-28T08:04:42.178Z</time>
      </trkpt>
      <trkpt lat="61.53114" lon="5.74889">
        <ele>82.520083</ele>
        <time>2020-07-28T08:04:45.198Z</time>
      </trkpt>
      <trkpt lat="61.53125" lon="5.74897">
        <ele>82.465773</ele>
        <time>2020-07-28T08:04:49.189Z</time>
      </trkpt>
      <trkpt lat="61.53133" lon="5.74902">
        <ele>82.421245</ele>
        <time>2020-07-28T08:04:52.194Z</time>
      </trkpt>
      <trkpt lat="61.53143" lon="5.74909">
        <ele>82.372303</ele>
        <time>2020-07-28T08:04:55.191Z</time>
      </trkpt>
      <trkpt lat="61.53153" lon="5.74916">
        <ele>82.322036</ele>
        <time>2020-07-28T08:04:58.176Z</time>
      </trkpt>
      <trkpt lat="61.53162" lon="5.74925">
        <ele>82.251633</ele>
        <time>2020-07-28T08:05:01.193Z</time>
      </trkpt>
      <trkpt lat="61.53172" lon="5.74936">
        <ele>82.04748</ele>
        <time>2020-07-28T08:05:04.190Z</time>
      </trkpt>
      <trkpt lat="61.53182" lon="5.74946">
        <ele>81.844956</ele>
        <time>2020-07-28T08:05:07.198Z</time>
      </trkpt>
      <trkpt lat="61.53192" lon="5.74956">
        <ele>81.63079</ele>
        <time>2020-07-28T08:05:10.188Z</time>
      </trkpt>
      <trkpt lat="61.53202" lon="5.74969">
        <ele>81.418878</ele>
        <time>2020-07-28T08:05:13.193Z</time>
      </trkpt>
      <trkpt lat="61.53213" lon="5.7498">
        <ele>81.198717</ele>
        <time>2020-07-28T08:05:16.174Z</time>
      </trkpt>
      <trkpt lat="61.53224" lon="5.74991">
        <ele>80.971138</ele>
        <time>2020-07-28T08:05:19.198Z</time>
      </trkpt>
      <trkpt lat="61.53234" lon="5.75002">
        <ele>80.759234</ele>
        <time>2020-07-28T08:05:22.199Z</time>
      </trkpt>
      <trkpt lat="61.53244" lon="5.75013">
        <ele>80.555082</ele>
        <time>2020-07-28T08:05:25.190Z</time>
      </trkpt>
      <trkpt lat="61.53254" lon="5.75024">
        <ele>80.341831</ele>
        <time>2020-07-28T08:05:28.175Z</time>
      </trkpt>
      <trkpt lat="61.53263" lon="5.75035">
        <ele>80.14457</ele>
        <time>2020-07-28T08:05:31.178Z</time>
      </trkpt>
      <trkpt lat="61.53272" lon="5.75048">
        <ele>79.938133</ele>
        <time>2020-07-28T08:05:34.209Z</time>
      </trkpt>
      <trkpt lat="61.53283" lon="5.75062">
        <ele>79.713737</ele>
        <time>2020-07-28T08:05:37.189Z</time>
      </trkpt>
      <trkpt lat="61.53293" lon="5.75077">
        <ele>79.485055</ele>
        <time>2020-07-28T08:05:40.212Z</time>
      </trkpt>
      <trkpt lat="61.53303" lon="5.75094">
        <ele>79.246688</ele>
        <time>2020-07-28T08:05:43.179Z</time>
      </trkpt>
      <trkpt lat="61.53309" lon="5.75109">
        <ele>79.075194</ele>
        <time>2020-07-28T08:05:45.207Z</time>
      </trkpt>
      <trkpt lat="61.53316" lon="5.75122">
        <ele>79.000496</ele>
        <time>2020-07-28T08:05:47.188Z</time>
      </trkpt>
      <trkpt lat="61.53322" lon="5.75136">
        <ele>79.155072</ele>
        <time>2020-07-28T08:05:49.176Z</time>
      </trkpt>
      <trkpt lat="61.53328" lon="5.7515">
        <ele>79.311383</ele>
        <time>2020-07-28T08:05:51.201Z</time>
      </trkpt>
      <trkpt lat="61.53334" lon="5.75166">
        <ele>79.470041</ele>
        <time>2020-07-28T08:05:53.195Z</time>
      </trkpt>
      <trkpt lat="61.53342" lon="5.75189">
        <ele>79.698176</ele>
        <time>2020-07-28T08:05:56.213Z</time>
      </trkpt>
      <trkpt lat="61.53349" lon="5.75211">
        <ele>79.913602</ele>
        <time>2020-07-28T08:05:59.173Z</time>
      </trkpt>
      <trkpt lat="61.53356" lon="5.75234">
        <ele>80.128962</ele>
        <time>2020-07-28T08:06:02.211Z</time>
      </trkpt>
      <trkpt lat="61.53361" lon="5.75253">
        <ele>80.312782</ele>
        <time>2020-07-28T08:06:05.196Z</time>
      </trkpt>
      <trkpt lat="61.53366" lon="5.75273">
        <ele>80.484448</ele>
        <time>2020-07-28T08:06:08.186Z</time>
      </trkpt>
      <trkpt lat="61.53371" lon="5.75293">
        <ele>80.672283</ele>
        <time>2020-07-28T08:06:11.205Z</time>
      </trkpt>
      <trkpt lat="61.53376" lon="5.75313">
        <ele>80.857644</ele>
        <time>2020-07-28T08:06:14.201Z</time>
      </trkpt>
      <trkpt lat="61.53381" lon="5.75331">
        <ele>81.026915</ele>
        <time>2020-07-28T08:06:17.186Z</time>
      </trkpt>
      <trkpt lat="61.53388" lon="5.7535">
        <ele>81.21636</ele>
        <time>2020-07-28T08:06:21.227Z</time>
      </trkpt>
      <trkpt lat="61.53395" lon="5.7537">
        <ele>81.413341</ele>
        <time>2020-07-28T08:06:25.195Z</time>
      </trkpt>
      <trkpt lat="61.534" lon="5.75386">
        <ele>81.566833</ele>
        <time>2020-07-28T08:06:28.193Z</time>
      </trkpt>
      <trkpt lat="61.53406" lon="5.75407">
        <ele>81.765902</ele>
        <time>2020-07-28T08:06:32.227Z</time>
      </trkpt>
      <trkpt lat="61.53411" lon="5.75423">
        <ele>81.91824</ele>
        <time>2020-07-28T08:06:35.276Z</time>
      </trkpt>
      <trkpt lat="61.53417" lon="5.75443">
        <ele>82.01725</ele>
        <time>2020-07-28T08:06:39.178Z</time>
      </trkpt>
      <trkpt lat="61.53424" lon="5.75462">
        <ele>82.053037</ele>
        <time>2020-07-28T08:06:43.183Z</time>
      </trkpt>
      <trkpt lat="61.53432" lon="5.75479">
        <ele>82.089681</ele>
        <time>2020-07-28T08:06:47.176Z</time>
      </trkpt>
      <trkpt lat="61.5344" lon="5.75496">
        <ele>82.126006</ele>
        <time>2020-07-28T08:06:51.193Z</time>
      </trkpt>
      <trkpt lat="61.53448" lon="5.75511">
        <ele>82.159722</ele>
        <time>2020-07-28T08:06:55.189Z</time>
      </trkpt>
      <trkpt lat="61.53455" lon="5.75524">
        <ele>82.190384</ele>
        <time>2020-07-28T08:06:59.175Z</time>
      </trkpt>
      <trkpt lat="61.53464" lon="5.75536">
        <ele>82.223073</ele>
        <time>2020-07-28T08:07:03.179Z</time>
      </trkpt>
      <trkpt lat="61.53473" lon="5.75546">
        <ele>82.254858</ele>
        <time>2020-07-28T08:07:07.176Z</time>
      </trkpt>
      <trkpt lat="61.53482" lon="5.75558">
        <ele>82.289299</ele>
        <time>2020-07-28T08:07:11.197Z</time>
      </trkpt>
      <trkpt lat="61.53492" lon="5.7557">
        <ele>82.327219</ele>
        <time>2020-07-28T08:07:15.218Z</time>
      </trkpt>
      <trkpt lat="61.53501" lon="5.75578">
        <ele>82.356868</ele>
        <time>2020-07-28T08:07:18.177Z</time>
      </trkpt>
      <trkpt lat="61.53511" lon="5.75583">
        <ele>82.389998</ele>
        <time>2020-07-28T08:07:21.201Z</time>
      </trkpt>
      <trkpt lat="61.53521" lon="5.75588">
        <ele>82.423404</ele>
        <time>2020-07-28T08:07:24.195Z</time>
      </trkpt>
      <trkpt lat="61.53532" lon="5.75594">
        <ele>82.459021</ele>
        <time>2020-07-28T08:07:27.177Z</time>
      </trkpt>
      <trkpt lat="61.53544" lon="5.75598">
        <ele>82.49824</ele>
        <time>2020-07-28T08:07:30.213Z</time>
      </trkpt>
      <trkpt lat="61.53556" lon="5.756">
        <ele>82.537245</ele>
        <time>2020-07-28T08:07:33.179Z</time>
      </trkpt>
      <trkpt lat="61.53569" lon="5.75603">
        <ele>82.552999</ele>
        <time>2020-07-28T08:07:36.166Z</time>
      </trkpt>
      <trkpt lat="61.53582" lon="5.75607">
        <ele>82.484953</ele>
        <time>2020-07-28T08:07:39.188Z</time>
      </trkpt>
      <trkpt lat="61.53595" lon="5.75611">
        <ele>82.415125</ele>
        <time>2020-07-28T08:07:42.182Z</time>
      </trkpt>
      <trkpt lat="61.53607" lon="5.75615">
        <ele>82.348014</ele>
        <time>2020-07-28T08:07:45.215Z</time>
      </trkpt>
      <trkpt lat="61.53619" lon="5.75618">
        <ele>82.283264</ele>
        <time>2020-07-28T08:07:48.181Z</time>
      </trkpt>
      <trkpt lat="61.53631" lon="5.75623">
        <ele>82.21925</ele>
        <time>2020-07-28T08:07:51.185Z</time>
      </trkpt>
      <trkpt lat="61.53643" lon="5.75629">
        <ele>82.154455</ele>
        <time>2020-07-28T08:07:54.187Z</time>
      </trkpt>
      <trkpt lat="61.53655" lon="5.75633">
        <ele>82.090343</ele>
        <time>2020-07-28T08:07:57.237Z</time>
      </trkpt>
      <trkpt lat="61.53667" lon="5.75639">
        <ele>82.026845</ele>
        <time>2020-07-28T08:08:00.174Z</time>
      </trkpt>
      <trkpt lat="61.53679" lon="5.75644">
        <ele>81.960717</ele>
        <time>2020-07-28T08:08:03.203Z</time>
      </trkpt>
      <trkpt lat="61.53692" lon="5.75649">
        <ele>81.894312</ele>
        <time>2020-07-28T08:08:06.183Z</time>
      </trkpt>
      <trkpt lat="61.53704" lon="5.75656">
        <ele>81.828786</ele>
        <time>2020-07-28T08:08:09.192Z</time>
      </trkpt>
      <trkpt lat="61.53716" lon="5.75663">
        <ele>81.761735</ele>
        <time>2020-07-28T08:08:12.224Z</time>
      </trkpt>
      <trkpt lat="61.53728" lon="5.75671">
        <ele>81.693795</ele>
        <time>2020-07-28T08:08:15.181Z</time>
      </trkpt>
      <trkpt lat="61.53741" lon="5.75682">
        <ele>81.624061</ele>
        <time>2020-07-28T08:08:18.191Z</time>
      </trkpt>
      <trkpt lat="61.53753" lon="5.75693">
        <ele>81.51847</ele>
        <time>2020-07-28T08:08:21.183Z</time>
      </trkpt>
      <trkpt lat="61.53761" lon="5.75701">
        <ele>81.444561</ele>
        <time>2020-07-28T08:08:23.197Z</time>
      </trkpt>
      <trkpt lat="61.53774" lon="5.75712">
        <ele>81.332486</ele>
        <time>2020-07-28T08:08:26.178Z</time>
      </trkpt>
      <trkpt lat="61.53782" lon="5.75721">
        <ele>81.257305</ele>
        <time>2020-07-28T08:08:28.206Z</time>
      </trkpt>
      <trkpt lat="61.53789" lon="5.75732">
        <ele>81.183801</ele>
        <time>2020-07-28T08:08:30.186Z</time>
      </trkpt>
      <trkpt lat="61.53796" lon="5.75745">
        <ele>81.107435</ele>
        <time>2020-07-28T08:08:32.178Z</time>
      </trkpt>
      <trkpt lat="61.53803" lon="5.75759">
        <ele>81.02498</ele>
        <time>2020-07-28T08:08:34.183Z</time>
      </trkpt>
      <trkpt lat="61.5381" lon="5.75772">
        <ele>80.949397</ele>
        <time>2020-07-28T08:08:36.203Z</time>
      </trkpt>
      <trkpt lat="61.53817" lon="5.75785">
        <ele>80.873369</ele>
        <time>2020-07-28T08:08:38.179Z</time>
      </trkpt>
      <trkpt lat="61.53826" lon="5.75806">
        <ele>80.764729</ele>
        <time>2020-07-28T08:08:41.180Z</time>
      </trkpt>
      <trkpt lat="61.53832" lon="5.75821">
        <ele>80.689587</ele>
        <time>2020-07-28T08:08:43.176Z</time>
      </trkpt>
      <trkpt lat="61.53838" lon="5.75836">
        <ele>80.614702</ele>
        <time>2020-07-28T08:08:45.230Z</time>
      </trkpt>
      <trkpt lat="61.53843" lon="5.75852">
        <ele>80.539074</ele>
        <time>2020-07-28T08:08:47.233Z</time>
      </trkpt>
      <trkpt lat="61.53848" lon="5.75868">
        <ele>80.46359</ele>
        <time>2020-07-28T08:08:49.199Z</time>
      </trkpt>
      <trkpt lat="61.53853" lon="5.75884">
        <ele>80.38957</ele>
        <time>2020-07-28T08:08:51.213Z</time>
      </trkpt>
      <trkpt lat="61.53857" lon="5.759">
        <ele>80.315875</ele>
        <time>2020-07-28T08:08:53.188Z</time>
      </trkpt>
      <trkpt lat="61.53861" lon="5.75917">
        <ele>80.242308</ele>
        <time>2020-07-28T08:08:55.181Z</time>
      </trkpt>
      <trkpt lat="61.53865" lon="5.75935">
        <ele>80.167009</ele>
        <time>2020-07-28T08:08:57.226Z</time>
      </trkpt>
      <trkpt lat="61.53869" lon="5.75953">
        <ele>80.108177</ele>
        <time>2020-07-28T08:08:59.180Z</time>
      </trkpt>
      <trkpt lat="61.53872" lon="5.75972">
        <ele>80.054926</ele>
        <time>2020-07-28T08:09:01.199Z</time>
      </trkpt>
      <trkpt lat="61.53875" lon="5.7599">
        <ele>80.003122</ele>
        <time>2020-07-28T08:09:03.193Z</time>
      </trkpt>
      <trkpt lat="61.53878" lon="5.76008">
        <ele>79.951587</ele>
        <time>2020-07-28T08:09:05.180Z</time>
      </trkpt>
      <trkpt lat="61.5388" lon="5.76027">
        <ele>79.898987</ele>
        <time>2020-07-28T08:09:07.203Z</time>
      </trkpt>
      <trkpt lat="61.53883" lon="5.76046">
        <ele>79.847358</ele>
        <time>2020-07-28T08:09:09.196Z</time>
      </trkpt>
      <trkpt lat="61.53887" lon="5.76073">
        <ele>79.770868</ele>
        <time>2020-07-28T08:09:12.173Z</time>
      </trkpt>
      <trkpt lat="61.53889" lon="5.76101">
        <ele>79.696316</ele>
        <time>2020-07-28T08:09:15.223Z</time>
      </trkpt>
      <trkpt lat="61.53891" lon="5.76128">
        <ele>79.622381</ele>
        <time>2020-07-28T08:09:18.215Z</time>
      </trkpt>
      <trkpt lat="61.53891" lon="5.76156">
        <ele>79.547354</ele>
        <time>2020-07-28T08:09:21.185Z</time>
      </trkpt>
      <trkpt lat="61.53891" lon="5.76176">
        <ele>79.494618</ele>
        <time>2020-07-28T08:09:23.175Z</time>
      </trkpt>
      <trkpt lat="61.5389" lon="5.76196">
        <ele>79.440938</ele>
        <time>2020-07-28T08:09:25.178Z</time>
      </trkpt>
      <trkpt lat="61.53889" lon="5.76215">
        <ele>79.388641</ele>
        <time>2020-07-28T08:09:27.201Z</time>
      </trkpt>
      <trkpt lat="61.53888" lon="5.76234">
        <ele>79.337707</ele>
        <time>2020-07-28T08:09:29.177Z</time>
      </trkpt>
      <trkpt lat="61.53886" lon="5.76262">
        <ele>79.262969</ele>
        <time>2020-07-28T08:09:32.192Z</time>
      </trkpt>
      <trkpt lat="61.53883" lon="5.7628">
        <ele>79.211013</ele>
        <time>2020-07-28T08:09:34.200Z</time>
      </trkpt>
      <trkpt lat="61.53882" lon="5.76299">
        <ele>79.160208</ele>
        <time>2020-07-28T08:09:36.176Z</time>
      </trkpt>
      <trkpt lat="61.5388" lon="5.76317">
        <ele>79.145441</ele>
        <time>2020-07-28T08:09:38.196Z</time>
      </trkpt>
      <trkpt lat="61.53877" lon="5.76344">
        <ele>79.160273</ele>
        <time>2020-07-28T08:09:41.203Z</time>
      </trkpt>
      <trkpt lat="61.53874" lon="5.7637">
        <ele>79.174364</ele>
        <time>2020-07-28T08:09:44.181Z</time>
      </trkpt>
      <trkpt lat="61.53872" lon="5.76395">
        <ele>79.18835</ele>
        <time>2020-07-28T08:09:47.195Z</time>
      </trkpt>
      <trkpt lat="61.53869" lon="5.7642">
        <ele>79.202254</ele>
        <time>2020-07-28T08:09:50.194Z</time>
      </trkpt>
      <trkpt lat="61.53866" lon="5.76445">
        <ele>79.216212</ele>
        <time>2020-07-28T08:09:53.184Z</time>
      </trkpt>
      <trkpt lat="61.53864" lon="5.7647">
        <ele>79.229695</ele>
        <time>2020-07-28T08:09:56.206Z</time>
      </trkpt>
      <trkpt lat="61.53861" lon="5.76494">
        <ele>79.243153</ele>
        <time>2020-07-28T08:09:59.180Z</time>
      </trkpt>
      <trkpt lat="61.53858" lon="5.7652">
        <ele>79.257297</ele>
        <time>2020-07-28T08:10:02.201Z</time>
      </trkpt>
      <trkpt lat="61.53856" lon="5.76545">
        <ele>79.271524</ele>
        <time>2020-07-28T08:10:05.202Z</time>
      </trkpt>
      <trkpt lat="61.53854" lon="5.7657">
        <ele>79.285305</ele>
        <time>2020-07-28T08:10:08.192Z</time>
      </trkpt>
      <trkpt lat="61.53852" lon="5.76595">
        <ele>79.298844</ele>
        <time>2020-07-28T08:10:11.191Z</time>
      </trkpt>
      <trkpt lat="61.53849" lon="5.76619">
        <ele>79.312064</ele>
        <time>2020-07-28T08:10:14.180Z</time>
      </trkpt>
      <trkpt lat="61.53847" lon="5.76642">
        <ele>79.324943</ele>
        <time>2020-07-28T08:10:17.186Z</time>
      </trkpt>
      <trkpt lat="61.53844" lon="5.76666">
        <ele>79.338008</ele>
        <time>2020-07-28T08:10:20.179Z</time>
      </trkpt>
      <trkpt lat="61.53841" lon="5.76689">
        <ele>79.359161</ele>
        <time>2020-07-28T08:10:23.198Z</time>
      </trkpt>
      <trkpt lat="61.53838" lon="5.76713">
        <ele>79.385793</ele>
        <time>2020-07-28T08:10:26.234Z</time>
      </trkpt>
      <trkpt lat="61.53836" lon="5.76736">
        <ele>79.411597</ele>
        <time>2020-07-28T08:10:29.190Z</time>
      </trkpt>
      <trkpt lat="61.53833" lon="5.76762">
        <ele>79.439761</ele>
        <time>2020-07-28T08:10:32.194Z</time>
      </trkpt>
      <trkpt lat="61.53831" lon="5.76787">
        <ele>79.467892</ele>
        <time>2020-07-28T08:10:35.194Z</time>
      </trkpt>
      <trkpt lat="61.53829" lon="5.76811">
        <ele>79.494681</ele>
        <time>2020-07-28T08:10:38.194Z</time>
      </trkpt>
      <trkpt lat="61.53827" lon="5.76839">
        <ele>79.52458</ele>
        <time>2020-07-28T08:10:41.194Z</time>
      </trkpt>
      <trkpt lat="61.53826" lon="5.76865">
        <ele>79.553045</ele>
        <time>2020-07-28T08:10:44.208Z</time>
      </trkpt>
      <trkpt lat="61.53825" lon="5.76892">
        <ele>79.582358</ele>
        <time>2020-07-28T08:10:47.186Z</time>
      </trkpt>
      <trkpt lat="61.53824" lon="5.76919">
        <ele>79.612303</ele>
        <time>2020-07-28T08:10:50.174Z</time>
      </trkpt>
      <trkpt lat="61.53824" lon="5.76946">
        <ele>79.641636</ele>
        <time>2020-07-28T08:10:53.228Z</time>
      </trkpt>
      <trkpt lat="61.53824" lon="5.76973">
        <ele>79.670556</ele>
        <time>2020-07-28T08:10:56.192Z</time>
      </trkpt>
      <trkpt lat="61.53826" lon="5.77">
        <ele>79.700556</ele>
        <time>2020-07-28T08:10:59.206Z</time>
      </trkpt>
      <trkpt lat="61.53826" lon="5.77019">
        <ele>79.721012</ele>
        <time>2020-07-28T08:11:01.191Z</time>
      </trkpt>
      <trkpt lat="61.53827" lon="5.77038">
        <ele>79.741971</ele>
        <time>2020-07-28T08:11:03.177Z</time>
      </trkpt>
      <trkpt lat="61.53829" lon="5.77057">
        <ele>79.755007</ele>
        <time>2020-07-28T08:11:05.189Z</time>
      </trkpt>
      <trkpt lat="61.53831" lon="5.77084">
        <ele>79.760208</ele>
        <time>2020-07-28T08:11:08.200Z</time>
      </trkpt>
      <trkpt lat="61.53833" lon="5.7711">
        <ele>79.765351</ele>
        <time>2020-07-28T08:11:11.200Z</time>
      </trkpt>
      <trkpt lat="61.53837" lon="5.77137">
        <ele>79.770669</ele>
        <time>2020-07-28T08:11:14.179Z</time>
      </trkpt>
      <trkpt lat="61.5384" lon="5.77163">
        <ele>79.775846</ele>
        <time>2020-07-28T08:11:17.235Z</time>
      </trkpt>
      <trkpt lat="61.53844" lon="5.77187">
        <ele>79.780671</ele>
        <time>2020-07-28T08:11:20.189Z</time>
      </trkpt>
      <trkpt lat="61.53849" lon="5.77211">
        <ele>79.785532</ele>
        <time>2020-07-28T08:11:23.197Z</time>
      </trkpt>
      <trkpt lat="61.53853" lon="5.77234">
        <ele>79.790307</ele>
        <time>2020-07-28T08:11:26.185Z</time>
      </trkpt>
      <trkpt lat="61.53859" lon="5.77257">
        <ele>79.795222</ele>
        <time>2020-07-28T08:11:29.206Z</time>
      </trkpt>
      <trkpt lat="61.53865" lon="5.77281">
        <ele>79.80039</ele>
        <time>2020-07-28T08:11:32.194Z</time>
      </trkpt>
      <trkpt lat="61.5387" lon="5.77305">
        <ele>79.805541</ele>
        <time>2020-07-28T08:11:35.179Z</time>
      </trkpt>
      <trkpt lat="61.53876" lon="5.7733">
        <ele>79.810675</ele>
        <time>2020-07-28T08:11:38.204Z</time>
      </trkpt>
      <trkpt lat="61.53881" lon="5.77354">
        <ele>79.815756</ele>
        <time>2020-07-28T08:11:41.195Z</time>
      </trkpt>
      <trkpt lat="61.53887" lon="5.77378">
        <ele>79.820993</ele>
        <time>2020-07-28T08:11:44.184Z</time>
      </trkpt>
      <trkpt lat="61.53892" lon="5.77403">
        <ele>79.828726</ele>
        <time>2020-07-28T08:11:47.196Z</time>
      </trkpt>
      <trkpt lat="61.53898" lon="5.77427">
        <ele>79.854036</ele>
        <time>2020-07-28T08:11:50.200Z</time>
      </trkpt>
      <trkpt lat="61.53903" lon="5.77451">
        <ele>79.878586</ele>
        <time>2020-07-28T08:11:53.194Z</time>
      </trkpt>
      <trkpt lat="61.53908" lon="5.77475">
        <ele>79.90289</ele>
        <time>2020-07-28T08:11:56.193Z</time>
      </trkpt>
      <trkpt lat="61.53914" lon="5.77499">
        <ele>79.927608</ele>
        <time>2020-07-28T08:11:59.188Z</time>
      </trkpt>
      <trkpt lat="61.53919" lon="5.77523">
        <ele>79.952587</ele>
        <time>2020-07-28T08:12:02.185Z</time>
      </trkpt>
      <trkpt lat="61.53924" lon="5.77547">
        <ele>79.976812</ele>
        <time>2020-07-28T08:12:05.184Z</time>
      </trkpt>
      <trkpt lat="61.5393" lon="5.77569">
        <ele>80.000357</ele>
        <time>2020-07-28T08:12:08.186Z</time>
      </trkpt>
      <trkpt lat="61.53935" lon="5.77591">
        <ele>80.023399</ele>
        <time>2020-07-28T08:12:11.197Z</time>
      </trkpt>
      <trkpt lat="61.5394" lon="5.77616">
        <ele>80.047853</ele>
        <time>2020-07-28T08:12:14.191Z</time>
      </trkpt>
      <trkpt lat="61.53945" lon="5.77638">
        <ele>80.070471</ele>
        <time>2020-07-28T08:12:17.198Z</time>
      </trkpt>
      <trkpt lat="61.5395" lon="5.7766">
        <ele>80.093339</ele>
        <time>2020-07-28T08:12:20.202Z</time>
      </trkpt>
      <trkpt lat="61.53955" lon="5.77681">
        <ele>80.115874</ele>
        <time>2020-07-28T08:12:23.189Z</time>
      </trkpt>
      <trkpt lat="61.5396" lon="5.77704">
        <ele>80.138828</ele>
        <time>2020-07-28T08:12:26.184Z</time>
      </trkpt>
      <trkpt lat="61.53965" lon="5.77724">
        <ele>80.160704</ele>
        <time>2020-07-28T08:12:29.193Z</time>
      </trkpt>
      <trkpt lat="61.5397" lon="5.77745">
        <ele>80.191205</ele>
        <time>2020-07-28T08:12:32.205Z</time>
      </trkpt>
      <trkpt lat="61.53975" lon="5.77766">
        <ele>80.247379</ele>
        <time>2020-07-28T08:12:35.188Z</time>
      </trkpt>
      <trkpt lat="61.5398" lon="5.77788">
        <ele>80.305551</ele>
        <time>2020-07-28T08:12:38.202Z</time>
      </trkpt>
      <trkpt lat="61.53984" lon="5.7781">
        <ele>80.364217</ele>
        <time>2020-07-28T08:12:41.185Z</time>
      </trkpt>
      <trkpt lat="61.53989" lon="5.77831">
        <ele>80.421269</ele>
        <time>2020-07-28T08:12:44.195Z</time>
      </trkpt>
      <trkpt lat="61.53993" lon="5.77853">
        <ele>80.478814</ele>
        <time>2020-07-28T08:12:47.175Z</time>
      </trkpt>
      <trkpt lat="61.53999" lon="5.77875">
        <ele>80.537671</ele>
        <time>2020-07-28T08:12:50.193Z</time>
      </trkpt>
      <trkpt lat="61.54004" lon="5.77895">
        <ele>80.595031</ele>
        <time>2020-07-28T08:12:53.203Z</time>
      </trkpt>
      <trkpt lat="61.54008" lon="5.77917">
        <ele>80.652828</ele>
        <time>2020-07-28T08:12:56.183Z</time>
      </trkpt>
      <trkpt lat="61.54013" lon="5.77939">
        <ele>80.710796</ele>
        <time>2020-07-28T08:12:59.196Z</time>
      </trkpt>
      <trkpt lat="61.54018" lon="5.77961">
        <ele>80.768733</ele>
        <time>2020-07-28T08:13:02.186Z</time>
      </trkpt>
      <trkpt lat="61.54022" lon="5.77982">
        <ele>80.82513</ele>
        <time>2020-07-28T08:13:05.183Z</time>
      </trkpt>
      <trkpt lat="61.54027" lon="5.78002">
        <ele>80.87955</ele>
        <time>2020-07-28T08:13:08.199Z</time>
      </trkpt>
      <trkpt lat="61.54031" lon="5.78024">
        <ele>80.936897</ele>
        <time>2020-07-28T08:13:11.232Z</time>
      </trkpt>
      <trkpt lat="61.54036" lon="5.78045">
        <ele>80.995482</ele>
        <time>2020-07-28T08:13:14.224Z</time>
      </trkpt>
      <trkpt lat="61.54042" lon="5.78066">
        <ele>81.053242</ele>
        <time>2020-07-28T08:13:17.197Z</time>
      </trkpt>
      <trkpt lat="61.54047" lon="5.78088">
        <ele>81.12479</ele>
        <time>2020-07-28T08:13:20.176Z</time>
      </trkpt>
      <trkpt lat="61.54052" lon="5.7811">
        <ele>81.226869</ele>
        <time>2020-07-28T08:13:23.205Z</time>
      </trkpt>
      <trkpt lat="61.54057" lon="5.78133">
        <ele>81.330146</ele>
        <time>2020-07-28T08:13:26.182Z</time>
      </trkpt>
      <trkpt lat="61.54062" lon="5.78156">
        <ele>81.43485</ele>
        <time>2020-07-28T08:13:29.207Z</time>
      </trkpt>
      <trkpt lat="61.54067" lon="5.78179">
        <ele>81.540662</ele>
        <time>2020-07-28T08:13:32.194Z</time>
      </trkpt>
      <trkpt lat="61.54072" lon="5.78202">
        <ele>81.644978</ele>
        <time>2020-07-28T08:13:35.215Z</time>
      </trkpt>
      <trkpt lat="61.54077" lon="5.78225">
        <ele>81.748197</ele>
        <time>2020-07-28T08:13:38.179Z</time>
      </trkpt>
      <trkpt lat="61.54082" lon="5.78247">
        <ele>81.851392</ele>
        <time>2020-07-28T08:13:41.184Z</time>
      </trkpt>
      <trkpt lat="61.54088" lon="5.7827">
        <ele>81.953493</ele>
        <time>2020-07-28T08:13:44.214Z</time>
      </trkpt>
      <trkpt lat="61.54093" lon="5.78292">
        <ele>82.054085</ele>
        <time>2020-07-28T08:13:47.199Z</time>
      </trkpt>
      <trkpt lat="61.54097" lon="5.78313">
        <ele>82.150947</ele>
        <time>2020-07-28T08:13:50.195Z</time>
      </trkpt>
      <trkpt lat="61.54102" lon="5.78334">
        <ele>82.248554</ele>
        <time>2020-07-28T08:13:53.192Z</time>
      </trkpt>
      <trkpt lat="61.54107" lon="5.78354">
        <ele>82.340573</ele>
        <time>2020-07-28T08:13:56.200Z</time>
      </trkpt>
      <trkpt lat="61.54112" lon="5.78375">
        <ele>82.433709</ele>
        <time>2020-07-28T08:13:59.235Z</time>
      </trkpt>
      <trkpt lat="61.54117" lon="5.78394">
        <ele>82.524921</ele>
        <time>2020-07-28T08:14:02.181Z</time>
      </trkpt>
      <trkpt lat="61.54123" lon="5.78412">
        <ele>82.617474</ele>
        <time>2020-07-28T08:14:05.210Z</time>
      </trkpt>
      <trkpt lat="61.54129" lon="5.78431">
        <ele>82.883411</ele>
        <time>2020-07-28T08:14:08.180Z</time>
      </trkpt>
      <trkpt lat="61.54136" lon="5.78448">
        <ele>83.259642</ele>
        <time>2020-07-28T08:14:11.199Z</time>
      </trkpt>
      <trkpt lat="61.54143" lon="5.78464">
        <ele>83.634781</ele>
        <time>2020-07-28T08:14:14.175Z</time>
      </trkpt>
      <trkpt lat="61.54151" lon="5.78479">
        <ele>84.010786</ele>
        <time>2020-07-28T08:14:17.209Z</time>
      </trkpt>
      <trkpt lat="61.5416" lon="5.78493">
        <ele>84.386891</ele>
        <time>2020-07-28T08:14:20.190Z</time>
      </trkpt>
      <trkpt lat="61.54169" lon="5.78506">
        <ele>84.761268</ele>
        <time>2020-07-28T08:14:23.191Z</time>
      </trkpt>
      <trkpt lat="61.54178" lon="5.78517">
        <ele>85.134537</ele>
        <time>2020-07-28T08:14:26.206Z</time>
      </trkpt>
      <trkpt lat="61.54187" lon="5.78527">
        <ele>85.489313</ele>
        <time>2020-07-28T08:14:29.197Z</time>
      </trkpt>
      <trkpt lat="61.54196" lon="5.78538">
        <ele>85.847752</ele>
        <time>2020-07-28T08:14:32.175Z</time>
      </trkpt>
      <trkpt lat="61.54205" lon="5.78548">
        <ele>86.223173</ele>
        <time>2020-07-28T08:14:35.182Z</time>
      </trkpt>
      <trkpt lat="61.54215" lon="5.78558">
        <ele>86.598658</ele>
        <time>2020-07-28T08:14:38.190Z</time>
      </trkpt>
      <trkpt lat="61.54224" lon="5.78568">
        <ele>86.959381</ele>
        <time>2020-07-28T08:14:41.216Z</time>
      </trkpt>
      <trkpt lat="61.54234" lon="5.78577">
        <ele>87.328877</ele>
        <time>2020-07-28T08:14:44.198Z</time>
      </trkpt>
      <trkpt lat="61.54243" lon="5.78585">
        <ele>87.695945</ele>
        <time>2020-07-28T08:14:47.214Z</time>
      </trkpt>
      <trkpt lat="61.54252" lon="5.7859">
        <ele>88.018092</ele>
        <time>2020-07-28T08:14:50.190Z</time>
      </trkpt>
      <trkpt lat="61.54264" lon="5.78596">
        <ele>88.425648</ele>
        <time>2020-07-28T08:14:54.180Z</time>
      </trkpt>
      <trkpt lat="61.54275" lon="5.78605">
        <ele>88.839945</ele>
        <time>2020-07-28T08:14:58.219Z</time>
      </trkpt>
      <trkpt lat="61.54285" lon="5.7861">
        <ele>89.322473</ele>
        <time>2020-07-28T08:15:02.200Z</time>
      </trkpt>
      <trkpt lat="61.54294" lon="5.78607">
        <ele>89.746131</ele>
        <time>2020-07-28T08:15:07.194Z</time>
      </trkpt>
      <trkpt lat="61.54308" lon="5.786">
        <ele>90.39693</ele>
        <time>2020-07-28T08:21:34.215Z</time>
      </trkpt>
      <trkpt lat="61.54318" lon="5.786">
        <ele>90.884522</ele>
        <time>2020-07-28T08:21:38.194Z</time>
      </trkpt>
      <trkpt lat="61.54329" lon="5.78598">
        <ele>91.383217</ele>
        <time>2020-07-28T08:21:42.193Z</time>
      </trkpt>
      <trkpt lat="61.5434" lon="5.78592">
        <ele>91.91202</ele>
        <time>2020-07-28T08:21:46.179Z</time>
      </trkpt>
      <trkpt lat="61.5435" lon="5.78584">
        <ele>92.414483</ele>
        <time>2020-07-28T08:21:50.219Z</time>
      </trkpt>
      <trkpt lat="61.54358" lon="5.78577">
        <ele>92.849669</ele>
        <time>2020-07-28T08:21:54.193Z</time>
      </trkpt>
      <trkpt lat="61.54367" lon="5.7857">
        <ele>93.279346</ele>
        <time>2020-07-28T08:21:58.199Z</time>
      </trkpt>
      <trkpt lat="61.54377" lon="5.7856">
        <ele>93.788704</ele>
        <time>2020-07-28T08:22:03.184Z</time>
      </trkpt>
      <trkpt lat="61.54385" lon="5.78549">
        <ele>94.253508</ele>
        <time>2020-07-28T08:22:08.199Z</time>
      </trkpt>
      <trkpt lat="61.54394" lon="5.78538">
        <ele>94.735424</ele>
        <time>2020-07-28T08:22:13.182Z</time>
      </trkpt>
      <trkpt lat="61.54402" lon="5.78528">
        <ele>95.194404</ele>
        <time>2020-07-28T08:22:18.192Z</time>
      </trkpt>
      <trkpt lat="61.54412" lon="5.78518">
        <ele>95.68023</ele>
        <time>2020-07-28T08:22:24.228Z</time>
      </trkpt>
      <trkpt lat="61.54419" lon="5.78508">
        <ele>96.114613</ele>
        <time>2020-07-28T08:22:29.180Z</time>
      </trkpt>
      <trkpt lat="61.54428" lon="5.78499">
        <ele>96.541366</ele>
        <time>2020-07-28T08:22:35.185Z</time>
      </trkpt>
      <trkpt lat="61.54436" lon="5.78489">
        <ele>97.005523</ele>
        <time>2020-07-28T08:22:41.211Z</time>
      </trkpt>
      <trkpt lat="61.54444" lon="5.78478">
        <ele>97.524</ele>
        <time>2020-07-28T08:22:47.191Z</time>
      </trkpt>
      <trkpt lat="61.54452" lon="5.78467">
        <ele>98.258802</ele>
        <time>2020-07-28T08:22:52.183Z</time>
      </trkpt>
      <trkpt lat="61.5446" lon="5.78455">
        <ele>99.021545</ele>
        <time>2020-07-28T08:22:57.186Z</time>
      </trkpt>
      <trkpt lat="61.54468" lon="5.78445">
        <ele>99.755913</ele>
        <time>2020-07-28T08:23:02.193Z</time>
      </trkpt>
      <trkpt lat="61.54476" lon="5.78435">
        <ele>100.483551</ele>
        <time>2020-07-28T08:23:07.191Z</time>
      </trkpt>
      <trkpt lat="61.54484" lon="5.78424">
        <ele>101.258428</ele>
        <time>2020-07-28T08:23:12.241Z</time>
      </trkpt>
      <trkpt lat="61.54493" lon="5.78413">
        <ele>102.036647</ele>
        <time>2020-07-28T08:23:17.195Z</time>
      </trkpt>
      <trkpt lat="61.545" lon="5.784">
        <ele>102.765616</ele>
        <time>2020-07-28T08:23:23.253Z</time>
      </trkpt>
      <trkpt lat="61.54507" lon="5.78389">
        <ele>103.475686</ele>
        <time>2020-07-28T08:23:28.181Z</time>
      </trkpt>
      <trkpt lat="61.54515" lon="5.78377">
        <ele>104.258498</ele>
        <time>2020-07-28T08:23:33.186Z</time>
      </trkpt>
      <trkpt lat="61.54523" lon="5.78365">
        <ele>105.003354</ele>
        <time>2020-07-28T08:23:38.187Z</time>
      </trkpt>
      <trkpt lat="61.5453" lon="5.78354">
        <ele>105.725657</ele>
        <time>2020-07-28T08:23:43.191Z</time>
      </trkpt>
      <trkpt lat="61.54538" lon="5.78343">
        <ele>106.46906</ele>
        <time>2020-07-28T08:23:48.186Z</time>
      </trkpt>
      <trkpt lat="61.54545" lon="5.7833">
        <ele>107.186795</ele>
        <time>2020-07-28T08:23:53.196Z</time>
      </trkpt>
      <trkpt lat="61.54553" lon="5.78316">
        <ele>108.039031</ele>
        <time>2020-07-28T08:23:59.183Z</time>
      </trkpt>
      <trkpt lat="61.54562" lon="5.78305">
        <ele>108.810657</ele>
        <time>2020-07-28T08:24:04.186Z</time>
      </trkpt>
      <trkpt lat="61.54569" lon="5.78292">
        <ele>109.600306</ele>
        <time>2020-07-28T08:24:10.195Z</time>
      </trkpt>
      <trkpt lat="61.54577" lon="5.78279">
        <ele>110.362138</ele>
        <time>2020-07-28T08:24:16.178Z</time>
      </trkpt>
      <trkpt lat="61.54583" lon="5.78264">
        <ele>111.12571</ele>
        <time>2020-07-28T08:24:22.184Z</time>
      </trkpt>
      <trkpt lat="61.5459" lon="5.7825">
        <ele>111.709215</ele>
        <time>2020-07-28T08:24:28.208Z</time>
      </trkpt>
      <trkpt lat="61.54597" lon="5.78235">
        <ele>112.118677</ele>
        <time>2020-07-28T08:24:34.178Z</time>
      </trkpt>
      <trkpt lat="61.54605" lon="5.78221">
        <ele>112.533811</ele>
        <time>2020-07-28T08:24:40.184Z</time>
      </trkpt>
      <trkpt lat="61.54613" lon="5.78211">
        <ele>112.910656</ele>
        <time>2020-07-28T08:24:45.217Z</time>
      </trkpt>
      <trkpt lat="61.54622" lon="5.78198">
        <ele>113.333458</ele>
        <time>2020-07-28T08:24:51.184Z</time>
      </trkpt>
      <trkpt lat="61.5463" lon="5.78185">
        <ele>113.745716</ele>
        <time>2020-07-28T08:24:57.192Z</time>
      </trkpt>
      <trkpt lat="61.54637" lon="5.78173">
        <ele>114.116635</ele>
        <time>2020-07-28T08:25:03.231Z</time>
      </trkpt>
      <trkpt lat="61.54644" lon="5.78161">
        <ele>114.504208</ele>
        <time>2020-07-28T08:25:09.183Z</time>
      </trkpt>
      <trkpt lat="61.54652" lon="5.7815">
        <ele>114.895997</ele>
        <time>2020-07-28T08:25:15.178Z</time>
      </trkpt>
      <trkpt lat="61.5466" lon="5.78137">
        <ele>115.288744</ele>
        <time>2020-07-28T08:25:20.177Z</time>
      </trkpt>
      <trkpt lat="61.54667" lon="5.78123">
        <ele>115.671502</ele>
        <time>2020-07-28T08:25:25.187Z</time>
      </trkpt>
      <trkpt lat="61.54674" lon="5.78108">
        <ele>116.100017</ele>
        <time>2020-07-28T08:25:31.183Z</time>
      </trkpt>
      <trkpt lat="61.54682" lon="5.78097">
        <ele>116.47629</ele>
        <time>2020-07-28T08:25:36.181Z</time>
      </trkpt>
      <trkpt lat="61.5469" lon="5.78083">
        <ele>116.885379</ele>
        <time>2020-07-28T08:25:41.207Z</time>
      </trkpt>
      <trkpt lat="61.54697" lon="5.7807">
        <ele>117.263855</ele>
        <time>2020-07-28T08:25:46.189Z</time>
      </trkpt>
      <trkpt lat="61.54703" lon="5.78057">
        <ele>117.63457</ele>
        <time>2020-07-28T08:25:51.220Z</time>
      </trkpt>
      <trkpt lat="61.54711" lon="5.78044">
        <ele>118.026645</ele>
        <time>2020-07-28T08:25:56.184Z</time>
      </trkpt>
      <trkpt lat="61.54718" lon="5.78032">
        <ele>118.408965</ele>
        <time>2020-07-28T08:26:01.193Z</time>
      </trkpt>
      <trkpt lat="61.54725" lon="5.78018">
        <ele>118.801223</ele>
        <time>2020-07-28T08:26:06.183Z</time>
      </trkpt>
      <trkpt lat="61.54734" lon="5.78004">
        <ele>119.697907</ele>
        <time>2020-07-28T08:26:12.190Z</time>
      </trkpt>
      <trkpt lat="61.54741" lon="5.77991">
        <ele>120.515302</ele>
        <time>2020-07-28T08:26:18.196Z</time>
      </trkpt>
      <trkpt lat="61.5475" lon="5.77981">
        <ele>121.375481</ele>
        <time>2020-07-28T08:26:25.210Z</time>
      </trkpt>
      <trkpt lat="61.54758" lon="5.7797">
        <ele>122.245081</ele>
        <time>2020-07-28T08:26:32.204Z</time>
      </trkpt>
      <trkpt lat="61.54766" lon="5.77959">
        <ele>123.075416</ele>
        <time>2020-07-28T08:26:39.196Z</time>
      </trkpt>
      <trkpt lat="61.54774" lon="5.7795">
        <ele>123.873163</ele>
        <time>2020-07-28T08:26:46.206Z</time>
      </trkpt>
      <trkpt lat="61.54784" lon="5.7794">
        <ele>124.77047</ele>
        <time>2020-07-28T08:26:53.197Z</time>
      </trkpt>
      <trkpt lat="61.54793" lon="5.77932">
        <ele>125.617647</ele>
        <time>2020-07-28T08:26:59.197Z</time>
      </trkpt>
      <trkpt lat="61.54802" lon="5.77923">
        <ele>126.482785</ele>
        <time>2020-07-28T08:27:06.191Z</time>
      </trkpt>
      <trkpt lat="61.54811" lon="5.77914">
        <ele>127.354937</ele>
        <time>2020-07-28T08:27:14.213Z</time>
      </trkpt>
      <trkpt lat="61.54819" lon="5.77904">
        <ele>128.207494</ele>
        <time>2020-07-28T08:27:21.194Z</time>
      </trkpt>
      <trkpt lat="61.54828" lon="5.77895">
        <ele>129.058738</ele>
        <time>2020-07-28T08:27:28.182Z</time>
      </trkpt>
      <trkpt lat="61.54838" lon="5.7789">
        <ele>129.931556</ele>
        <time>2020-07-28T08:27:35.191Z</time>
      </trkpt>
      <trkpt lat="61.54848" lon="5.77888">
        <ele>130.749198</ele>
        <time>2020-07-28T08:27:41.197Z</time>
      </trkpt>
      <trkpt lat="61.54858" lon="5.77883">
        <ele>131.650908</ele>
        <time>2020-07-28T08:27:48.193Z</time>
      </trkpt>
      <trkpt lat="61.54868" lon="5.77884">
        <ele>132.54143</ele>
        <time>2020-07-28T08:27:55.195Z</time>
      </trkpt>
      <trkpt lat="61.54878" lon="5.77884">
        <ele>133.387639</ele>
        <time>2020-07-28T08:28:02.200Z</time>
      </trkpt>
      <trkpt lat="61.54887" lon="5.77878">
        <ele>134.22072</ele>
        <time>2020-07-28T08:28:09.214Z</time>
      </trkpt>
      <trkpt lat="61.54897" lon="5.77876">
        <ele>135.40315</ele>
        <time>2020-07-28T08:28:17.198Z</time>
      </trkpt>
      <trkpt lat="61.54907" lon="5.77873">
        <ele>136.596053</ele>
        <time>2020-07-28T08:28:24.178Z</time>
      </trkpt>
      <trkpt lat="61.54917" lon="5.77872">
        <ele>137.778559</ele>
        <time>2020-07-28T08:28:32.195Z</time>
      </trkpt>
      <trkpt lat="61.54926" lon="5.77871">
        <ele>138.893005</ele>
        <time>2020-07-28T08:28:39.199Z</time>
      </trkpt>
      <trkpt lat="61.54936" lon="5.77871">
        <ele>140.100007</ele>
        <time>2020-07-28T08:28:47.197Z</time>
      </trkpt>
      <trkpt lat="61.54945" lon="5.77873">
        <ele>141.189406</ele>
        <time>2020-07-28T08:28:54.195Z</time>
      </trkpt>
      <trkpt lat="61.54954" lon="5.77878">
        <ele>142.351709</ele>
        <time>2020-07-28T08:29:01.177Z</time>
      </trkpt>
      <trkpt lat="61.54964" lon="5.77884">
        <ele>143.535067</ele>
        <time>2020-07-28T08:29:09.181Z</time>
      </trkpt>
      <trkpt lat="61.54973" lon="5.77891">
        <ele>144.692609</ele>
        <time>2020-07-28T08:29:16.193Z</time>
      </trkpt>
      <trkpt lat="61.54982" lon="5.77895">
        <ele>145.861252</ele>
        <time>2020-07-28T08:29:23.209Z</time>
      </trkpt>
      <trkpt lat="61.54991" lon="5.77896">
        <ele>146.939675</ele>
        <time>2020-07-28T08:29:30.180Z</time>
      </trkpt>
      <trkpt lat="61.55001" lon="5.77902">
        <ele>148.128277</ele>
        <time>2020-07-28T08:29:37.194Z</time>
      </trkpt>
      <trkpt lat="61.55009" lon="5.77908">
        <ele>149.216023</ele>
        <time>2020-07-28T08:29:43.209Z</time>
      </trkpt>
      <trkpt lat="61.55019" lon="5.77914">
        <ele>150.44568</ele>
        <time>2020-07-28T08:29:50.199Z</time>
      </trkpt>
      <trkpt lat="61.55029" lon="5.77917">
        <ele>151.600272</ele>
        <time>2020-07-28T08:29:56.186Z</time>
      </trkpt>
      <trkpt lat="61.55038" lon="5.77922">
        <ele>152.806659</ele>
        <time>2020-07-28T08:30:02.183Z</time>
      </trkpt>
      <trkpt lat="61.55048" lon="5.77929">
        <ele>154.039113</ele>
        <time>2020-07-28T08:30:09.179Z</time>
      </trkpt>
      <trkpt lat="61.55057" lon="5.77935">
        <ele>155.144925</ele>
        <time>2020-07-28T08:30:16.201Z</time>
      </trkpt>
      <trkpt lat="61.55066" lon="5.77938">
        <ele>156.18527</ele>
        <time>2020-07-28T08:30:22.194Z</time>
      </trkpt>
      <trkpt lat="61.55075" lon="5.77942">
        <ele>156.990032</ele>
        <time>2020-07-28T08:30:29.203Z</time>
      </trkpt>
      <trkpt lat="61.55085" lon="5.77943">
        <ele>157.814797</ele>
        <time>2020-07-28T08:30:38.193Z</time>
      </trkpt>
      <trkpt lat="61.55095" lon="5.77946">
        <ele>158.650542</ele>
        <time>2020-07-28T08:30:45.180Z</time>
      </trkpt>
      <trkpt lat="61.55104" lon="5.77952">
        <ele>159.436106</ele>
        <time>2020-07-28T08:30:52.192Z</time>
      </trkpt>
      <trkpt lat="61.55113" lon="5.77954">
        <ele>160.220936</ele>
        <time>2020-07-28T08:31:00.181Z</time>
      </trkpt>
      <trkpt lat="61.55122" lon="5.77956">
        <ele>161.020938</ele>
        <time>2020-07-28T08:31:07.219Z</time>
      </trkpt>
      <trkpt lat="61.55131" lon="5.77961">
        <ele>161.774122</ele>
        <time>2020-07-28T08:31:13.193Z</time>
      </trkpt>
      <trkpt lat="61.5514" lon="5.77967">
        <ele>162.569802</ele>
        <time>2020-07-28T08:31:21.192Z</time>
      </trkpt>
      <trkpt lat="61.55149" lon="5.77971">
        <ele>163.366199</ele>
        <time>2020-07-28T08:31:30.203Z</time>
      </trkpt>
      <trkpt lat="61.55159" lon="5.77975">
        <ele>164.214362</ele>
        <time>2020-07-28T08:31:38.183Z</time>
      </trkpt>
      <trkpt lat="61.55169" lon="5.77976">
        <ele>164.987789</ele>
        <time>2020-07-28T08:31:45.193Z</time>
      </trkpt>
      <trkpt lat="61.55177" lon="5.77981">
        <ele>165.742566</ele>
        <time>2020-07-28T08:31:52.196Z</time>
      </trkpt>
      <trkpt lat="61.55187" lon="5.77986">
        <ele>166.58883</ele>
        <time>2020-07-28T08:32:02.216Z</time>
      </trkpt>
      <trkpt lat="61.55196" lon="5.7799">
        <ele>167.356835</ele>
        <time>2020-07-28T08:32:09.201Z</time>
      </trkpt>
      <trkpt lat="61.55205" lon="5.77993">
        <ele>168.133093</ele>
        <time>2020-07-28T08:32:16.226Z</time>
      </trkpt>
      <trkpt lat="61.55215" lon="5.77997">
        <ele>168.975463</ele>
        <time>2020-07-28T08:32:23.187Z</time>
      </trkpt>
      <trkpt lat="61.55225" lon="5.78004">
        <ele>169.833537</ele>
        <time>2020-07-28T08:32:30.184Z</time>
      </trkpt>
      <trkpt lat="61.55235" lon="5.78011">
        <ele>170.72852</ele>
        <time>2020-07-28T08:32:36.192Z</time>
      </trkpt>
      <trkpt lat="61.55244" lon="5.78014">
        <ele>171.401842</ele>
        <time>2020-07-28T08:32:42.212Z</time>
      </trkpt>
      <trkpt lat="61.55253" lon="5.78017">
        <ele>171.936007</ele>
        <time>2020-07-28T08:32:49.201Z</time>
      </trkpt>
      <trkpt lat="61.55263" lon="5.78021">
        <ele>172.510409</ele>
        <time>2020-07-28T08:32:56.198Z</time>
      </trkpt>
      <trkpt lat="61.55273" lon="5.78021">
        <ele>173.09855</ele>
        <time>2020-07-28T08:33:04.202Z</time>
      </trkpt>
      <trkpt lat="61.55282" lon="5.78022">
        <ele>173.676098</ele>
        <time>2020-07-28T08:33:11.186Z</time>
      </trkpt>
      <trkpt lat="61.55292" lon="5.78027">
        <ele>174.280954</ele>
        <time>2020-07-28T08:33:17.182Z</time>
      </trkpt>
      <trkpt lat="61.55303" lon="5.78029">
        <ele>174.879256</ele>
        <time>2020-07-28T08:33:23.218Z</time>
      </trkpt>
      <trkpt lat="61.55312" lon="5.78032">
        <ele>175.438731</ele>
        <time>2020-07-28T08:33:30.187Z</time>
      </trkpt>
      <trkpt lat="61.55322" lon="5.78038">
        <ele>176.028067</ele>
        <time>2020-07-28T08:33:37.198Z</time>
      </trkpt>
      <trkpt lat="61.55332" lon="5.7804">
        <ele>176.637097</ele>
        <time>2020-07-28T08:33:44.195Z</time>
      </trkpt>
      <trkpt lat="61.55341" lon="5.78042">
        <ele>177.175079</ele>
        <time>2020-07-28T08:33:51.198Z</time>
      </trkpt>
      <trkpt lat="61.5535" lon="5.78044">
        <ele>177.708508</ele>
        <time>2020-07-28T08:33:57.205Z</time>
      </trkpt>
      <trkpt lat="61.55359" lon="5.78046">
        <ele>178.263499</ele>
        <time>2020-07-28T08:34:04.175Z</time>
      </trkpt>
      <trkpt lat="61.55369" lon="5.78048">
        <ele>178.823652</ele>
        <time>2020-07-28T08:34:11.201Z</time>
      </trkpt>
      <trkpt lat="61.55379" lon="5.7805">
        <ele>179.393922</ele>
        <time>2020-07-28T08:34:18.191Z</time>
      </trkpt>
      <trkpt lat="61.55388" lon="5.78051">
        <ele>179.941319</ele>
        <time>2020-07-28T08:34:26.179Z</time>
      </trkpt>
      <trkpt lat="61.55397" lon="5.7805">
        <ele>180.471563</ele>
        <time>2020-07-28T08:34:33.198Z</time>
      </trkpt>
      <trkpt lat="61.55406" lon="5.78047">
        <ele>181.001562</ele>
        <time>2020-07-28T08:34:41.192Z</time>
      </trkpt>
      <trkpt lat="61.55416" lon="5.7805">
        <ele>181.583089</ele>
        <time>2020-07-28T08:34:50.187Z</time>
      </trkpt>
      <trkpt lat="61.55425" lon="5.7805">
        <ele>182.105634</ele>
        <time>2020-07-28T08:34:58.203Z</time>
      </trkpt>
      <trkpt lat="61.55434" lon="5.78053">
        <ele>182.645687</ele>
        <time>2020-07-28T08:35:06.191Z</time>
      </trkpt>
      <trkpt lat="61.55444" lon="5.7805">
        <ele>183.23444</ele>
        <time>2020-07-28T08:35:13.200Z</time>
      </trkpt>
      <trkpt lat="61.55453" lon="5.78048">
        <ele>183.747607</ele>
        <time>2020-07-28T08:35:20.184Z</time>
      </trkpt>
      <trkpt lat="61.55462" lon="5.78043">
        <ele>184.288943</ele>
        <time>2020-07-28T08:35:28.192Z</time>
      </trkpt>
      <trkpt lat="61.55472" lon="5.78045">
        <ele>184.839584</ele>
        <time>2020-07-28T08:35:36.218Z</time>
      </trkpt>
      <trkpt lat="61.55481" lon="5.78043">
        <ele>185.37231</ele>
        <time>2020-07-28T08:35:43.192Z</time>
      </trkpt>
      <trkpt lat="61.5549" lon="5.78039">
        <ele>185.904522</ele>
        <time>2020-07-28T08:35:50.195Z</time>
      </trkpt>
      <trkpt lat="61.555" lon="5.78034">
        <ele>186.461461</ele>
        <time>2020-07-28T08:35:57.201Z</time>
      </trkpt>
      <trkpt lat="61.55509" lon="5.78026">
        <ele>187.016735</ele>
        <time>2020-07-28T08:36:04.203Z</time>
      </trkpt>
      <trkpt lat="61.55518" lon="5.7802">
        <ele>187.575985</ele>
        <time>2020-07-28T08:36:11.210Z</time>
      </trkpt>
      <trkpt lat="61.55528" lon="5.78014">
        <ele>188.150836</ele>
        <time>2020-07-28T08:36:19.189Z</time>
      </trkpt>
      <trkpt lat="61.55538" lon="5.78006">
        <ele>188.747413</ele>
        <time>2020-07-28T08:36:26.199Z</time>
      </trkpt>
      <trkpt lat="61.55547" lon="5.77999">
        <ele>189.310177</ele>
        <time>2020-07-28T08:36:33.196Z</time>
      </trkpt>
      <trkpt lat="61.55557" lon="5.77991">
        <ele>189.895814</ele>
        <time>2020-07-28T08:36:40.216Z</time>
      </trkpt>
      <trkpt lat="61.55566" lon="5.77981">
        <ele>190.505673</ele>
        <time>2020-07-28T08:36:47.224Z</time>
      </trkpt>
      <trkpt lat="61.55575" lon="5.77971">
        <ele>191.065269</ele>
        <time>2020-07-28T08:36:53.192Z</time>
      </trkpt>
      <trkpt lat="61.55583" lon="5.77961">
        <ele>191.60337</ele>
        <time>2020-07-28T08:36:59.195Z</time>
      </trkpt>
      <trkpt lat="61.55592" lon="5.77955">
        <ele>192.24011</ele>
        <time>2020-07-28T08:37:05.196Z</time>
      </trkpt>
      <trkpt lat="61.55602" lon="5.77948">
        <ele>193.087128</ele>
        <time>2020-07-28T08:37:11.194Z</time>
      </trkpt>
      <trkpt lat="61.55611" lon="5.77942">
        <ele>193.90006</ele>
        <time>2020-07-28T08:37:17.194Z</time>
      </trkpt>
      <trkpt lat="61.55621" lon="5.77937">
        <ele>194.74448</ele>
        <time>2020-07-28T08:37:24.229Z</time>
      </trkpt>
      <trkpt lat="61.5563" lon="5.7793">
        <ele>195.618011</ele>
        <time>2020-07-28T08:37:31.190Z</time>
      </trkpt>
      <trkpt lat="61.5564" lon="5.77921">
        <ele>196.491318</ele>
        <time>2020-07-28T08:37:38.205Z</time>
      </trkpt>
      <trkpt lat="61.55649" lon="5.77913">
        <ele>197.330368</ele>
        <time>2020-07-28T08:37:46.195Z</time>
      </trkpt>
      <trkpt lat="61.55658" lon="5.77909">
        <ele>198.142742</ele>
        <time>2020-07-28T08:37:54.182Z</time>
      </trkpt>
      <trkpt lat="61.55667" lon="5.77902">
        <ele>198.919929</ele>
        <time>2020-07-28T08:38:01.177Z</time>
      </trkpt>
      <trkpt lat="61.55675" lon="5.77894">
        <ele>199.676819</ele>
        <time>2020-07-28T08:38:09.194Z</time>
      </trkpt>
      <trkpt lat="61.55683" lon="5.77886">
        <ele>200.43702</ele>
        <time>2020-07-28T08:38:16.207Z</time>
      </trkpt>
      <trkpt lat="61.55692" lon="5.77877">
        <ele>201.263567</ele>
        <time>2020-07-28T08:38:31.212Z</time>
      </trkpt>
      <trkpt lat="61.557" lon="5.77868">
        <ele>202.028316</ele>
        <time>2020-07-28T08:38:38.201Z</time>
      </trkpt>
      <trkpt lat="61.55708" lon="5.77858">
        <ele>202.803525</ele>
        <time>2020-07-28T08:38:46.222Z</time>
      </trkpt>
      <trkpt lat="61.55717" lon="5.77846">
        <ele>203.682834</ele>
        <time>2020-07-28T08:38:52.190Z</time>
      </trkpt>
      <trkpt lat="61.55724" lon="5.77834">
        <ele>204.486502</ele>
        <time>2020-07-28T08:38:58.193Z</time>
      </trkpt>
      <trkpt lat="61.55733" lon="5.77821">
        <ele>205.377838</ele>
        <time>2020-07-28T08:39:06.195Z</time>
      </trkpt>
      <trkpt lat="61.55739" lon="5.77807">
        <ele>206.151436</ele>
        <time>2020-07-28T08:39:12.194Z</time>
      </trkpt>
      <trkpt lat="61.55745" lon="5.77792">
        <ele>206.936192</ele>
        <time>2020-07-28T08:39:19.184Z</time>
      </trkpt>
      <trkpt lat="61.55753" lon="5.7778">
        <ele>207.822028</ele>
        <time>2020-07-28T08:39:26.186Z</time>
      </trkpt>
      <trkpt lat="61.55759" lon="5.77766">
        <ele>208.744026</ele>
        <time>2020-07-28T08:39:34.182Z</time>
      </trkpt>
      <trkpt lat="61.55765" lon="5.77752">
        <ele>209.658825</ele>
        <time>2020-07-28T08:39:42.191Z</time>
      </trkpt>
      <trkpt lat="61.55772" lon="5.77739">
        <ele>210.594896</ele>
        <time>2020-07-28T08:39:50.204Z</time>
      </trkpt>
      <trkpt lat="61.55778" lon="5.77724">
        <ele>211.558503</ele>
        <time>2020-07-28T08:39:58.187Z</time>
      </trkpt>
      <trkpt lat="61.55785" lon="5.7771">
        <ele>212.519015</ele>
        <time>2020-07-28T08:40:06.221Z</time>
      </trkpt>
      <trkpt lat="61.55791" lon="5.77696">
        <ele>213.43081</ele>
        <time>2020-07-28T08:40:13.218Z</time>
      </trkpt>
      <trkpt lat="61.55798" lon="5.77681">
        <ele>214.429021</ele>
        <time>2020-07-28T08:40:21.185Z</time>
      </trkpt>
      <trkpt lat="61.55806" lon="5.77668">
        <ele>215.405224</ele>
        <time>2020-07-28T08:40:29.224Z</time>
      </trkpt>
      <trkpt lat="61.55814" lon="5.77656">
        <ele>216.379606</ele>
        <time>2020-07-28T08:40:39.207Z</time>
      </trkpt>
      <trkpt lat="61.55822" lon="5.77646">
        <ele>217.376426</ele>
        <time>2020-07-28T08:40:48.204Z</time>
      </trkpt>
      <trkpt lat="61.55831" lon="5.77637">
        <ele>218.385354</ele>
        <time>2020-07-28T08:40:55.188Z</time>
      </trkpt>
      <trkpt lat="61.5584" lon="5.77627">
        <ele>219.361716</ele>
        <time>2020-07-28T08:41:02.192Z</time>
      </trkpt>
      <trkpt lat="61.55849" lon="5.77622">
        <ele>220.304711</ele>
        <time>2020-07-28T08:41:10.201Z</time>
      </trkpt>
      <trkpt lat="61.55858" lon="5.77615">
        <ele>221.273886</ele>
        <time>2020-07-28T08:41:17.211Z</time>
      </trkpt>
      <trkpt lat="61.55867" lon="5.77609">
        <ele>222.246445</ele>
        <time>2020-07-28T08:41:24.209Z</time>
      </trkpt>
      <trkpt lat="61.55877" lon="5.77603">
        <ele>223.247816</ele>
        <time>2020-07-28T08:41:31.184Z</time>
      </trkpt>
      <trkpt lat="61.55886" lon="5.776">
        <ele>224.237808</ele>
        <time>2020-07-28T08:41:38.235Z</time>
      </trkpt>
      <trkpt lat="61.55896" lon="5.776">
        <ele>225.243338</ele>
        <time>2020-07-28T08:41:45.173Z</time>
      </trkpt>
      <trkpt lat="61.55906" lon="5.77599">
        <ele>226.195466</ele>
        <time>2020-07-28T08:41:52.192Z</time>
      </trkpt>
      <trkpt lat="61.55915" lon="5.77602">
        <ele>227.137585</ele>
        <time>2020-07-28T08:42:01.218Z</time>
      </trkpt>
      <trkpt lat="61.55925" lon="5.77606">
        <ele>228.136849</ele>
        <time>2020-07-28T08:42:09.193Z</time>
      </trkpt>
      <trkpt lat="61.55935" lon="5.77608">
        <ele>229.147228</ele>
        <time>2020-07-28T08:42:17.193Z</time>
      </trkpt>
      <trkpt lat="61.55944" lon="5.77609">
        <ele>230.14009</ele>
        <time>2020-07-28T08:42:27.174Z</time>
      </trkpt>
      <trkpt lat="61.55954" lon="5.77615">
        <ele>231.150397</ele>
        <time>2020-07-28T08:42:37.195Z</time>
      </trkpt>
      <trkpt lat="61.55963" lon="5.77617">
        <ele>232.11728</ele>
        <time>2020-07-28T08:42:44.217Z</time>
      </trkpt>
      <trkpt lat="61.55973" lon="5.77622">
        <ele>233.074925</ele>
        <time>2020-07-28T08:42:50.191Z</time>
      </trkpt>
      <trkpt lat="61.55983" lon="5.77624">
        <ele>234.121607</ele>
        <time>2020-07-28T08:42:57.195Z</time>
      </trkpt>
      <trkpt lat="61.55992" lon="5.77627">
        <ele>235.043701</ele>
        <time>2020-07-28T08:43:04.187Z</time>
      </trkpt>
      <trkpt lat="61.56001" lon="5.7763">
        <ele>236.019635</ele>
        <time>2020-07-28T08:43:14.206Z</time>
      </trkpt>
      <trkpt lat="61.56011" lon="5.77637">
        <ele>237.007348</ele>
        <time>2020-07-28T08:43:22.195Z</time>
      </trkpt>
      <trkpt lat="61.5602" lon="5.77641">
        <ele>238.012321</ele>
        <time>2020-07-28T08:43:30.185Z</time>
      </trkpt>
      <trkpt lat="61.56029" lon="5.77645">
        <ele>238.932063</ele>
        <time>2020-07-28T08:43:38.185Z</time>
      </trkpt>
      <trkpt lat="61.56039" lon="5.77646">
        <ele>239.924608</ele>
        <time>2020-07-28T08:43:46.212Z</time>
      </trkpt>
      <trkpt lat="61.56049" lon="5.77648">
        <ele>240.946915</ele>
        <time>2020-07-28T08:43:55.233Z</time>
      </trkpt>
      <trkpt lat="61.56059" lon="5.77648">
        <ele>241.970146</ele>
        <time>2020-07-28T08:44:04.221Z</time>
      </trkpt>
      <trkpt lat="61.56069" lon="5.7765">
        <ele>242.938038</ele>
        <time>2020-07-28T08:44:12.195Z</time>
      </trkpt>
      <trkpt lat="61.56078" lon="5.77655">
        <ele>243.747196</ele>
        <time>2020-07-28T08:44:20.200Z</time>
      </trkpt>
      <trkpt lat="61.56088" lon="5.77657">
        <ele>244.42318</ele>
        <time>2020-07-28T08:44:28.194Z</time>
      </trkpt>
      <trkpt lat="61.56097" lon="5.7766">
        <ele>245.078363</ele>
        <time>2020-07-28T08:44:37.258Z</time>
      </trkpt>
      <trkpt lat="61.56107" lon="5.7766">
        <ele>245.723272</ele>
        <time>2020-07-28T08:44:45.182Z</time>
      </trkpt>
      <trkpt lat="61.56116" lon="5.77662">
        <ele>246.350842</ele>
        <time>2020-07-28T08:44:52.180Z</time>
      </trkpt>
      <trkpt lat="61.56126" lon="5.77659">
        <ele>247.052048</ele>
        <time>2020-07-28T08:44:59.198Z</time>
      </trkpt>
      <trkpt lat="61.56136" lon="5.7766">
        <ele>247.786422</ele>
        <time>2020-07-28T08:45:05.194Z</time>
      </trkpt>
      <trkpt lat="61.56146" lon="5.77662">
        <ele>248.474446</ele>
        <time>2020-07-28T08:45:11.182Z</time>
      </trkpt>
      <trkpt lat="61.56157" lon="5.77663">
        <ele>249.188453</ele>
        <time>2020-07-28T08:45:17.187Z</time>
      </trkpt>
      <trkpt lat="61.56167" lon="5.77659">
        <ele>249.864279</ele>
        <time>2020-07-28T08:45:22.183Z</time>
      </trkpt>
      <trkpt lat="61.56175" lon="5.77656">
        <ele>250.478869</ele>
        <time>2020-07-28T08:45:27.166Z</time>
      </trkpt>
      <trkpt lat="61.56185" lon="5.77654">
        <ele>251.160063</ele>
        <time>2020-07-28T08:45:33.180Z</time>
      </trkpt>
      <trkpt lat="61.56195" lon="5.77651">
        <ele>251.819114</ele>
        <time>2020-07-28T08:45:39.190Z</time>
      </trkpt>
      <trkpt lat="61.56205" lon="5.77647">
        <ele>252.566541</ele>
        <time>2020-07-28T08:45:45.237Z</time>
      </trkpt>
      <trkpt lat="61.56215" lon="5.77645">
        <ele>253.206477</ele>
        <time>2020-07-28T08:45:51.187Z</time>
      </trkpt>
      <trkpt lat="61.56224" lon="5.77638">
        <ele>253.900997</ele>
        <time>2020-07-28T08:45:57.214Z</time>
      </trkpt>
      <trkpt lat="61.56234" lon="5.77635">
        <ele>254.601198</ele>
        <time>2020-07-28T08:46:03.204Z</time>
      </trkpt>
      <trkpt lat="61.56244" lon="5.7763">
        <ele>255.246013</ele>
        <time>2020-07-28T08:46:09.203Z</time>
      </trkpt>
      <trkpt lat="61.56253" lon="5.77629">
        <ele>255.769797</ele>
        <time>2020-07-28T08:46:15.215Z</time>
      </trkpt>
      <trkpt lat="61.56262" lon="5.77626">
        <ele>255.929063</ele>
        <time>2020-07-28T08:46:20.200Z</time>
      </trkpt>
      <trkpt lat="61.56271" lon="5.77623">
        <ele>256.088478</ele>
        <time>2020-07-28T08:46:25.186Z</time>
      </trkpt>
      <trkpt lat="61.5628" lon="5.77613">
        <ele>256.268921</ele>
        <time>2020-07-28T08:46:31.188Z</time>
      </trkpt>
      <trkpt lat="61.56291" lon="5.77605">
        <ele>256.467792</ele>
        <time>2020-07-28T08:46:36.235Z</time>
      </trkpt>
      <trkpt lat="61.56302" lon="5.77598">
        <ele>256.662408</ele>
        <time>2020-07-28T08:46:40.181Z</time>
      </trkpt>
      <trkpt lat="61.56312" lon="5.77588">
        <ele>256.866465</ele>
        <time>2020-07-28T08:46:44.191Z</time>
      </trkpt>
      <trkpt lat="61.56324" lon="5.77581">
        <ele>257.071768</ele>
        <time>2020-07-28T08:46:48.197Z</time>
      </trkpt>
      <trkpt lat="61.56333" lon="5.77568">
        <ele>257.266886</ele>
        <time>2020-07-28T08:46:52.214Z</time>
      </trkpt>
      <trkpt lat="61.56342" lon="5.77554">
        <ele>257.459249</ele>
        <time>2020-07-28T08:46:56.195Z</time>
      </trkpt>
      <trkpt lat="61.56351" lon="5.77546">
        <ele>257.637702</ele>
        <time>2020-07-28T08:46:59.202Z</time>
      </trkpt>
      <trkpt lat="61.56362" lon="5.77532">
        <ele>257.856188</ele>
        <time>2020-07-28T08:47:02.187Z</time>
      </trkpt>
      <trkpt lat="61.56373" lon="5.77521">
        <ele>258.059219</ele>
        <time>2020-07-28T08:47:05.195Z</time>
      </trkpt>
      <trkpt lat="61.56383" lon="5.77511">
        <ele>258.257506</ele>
        <time>2020-07-28T08:47:08.213Z</time>
      </trkpt>
      <trkpt lat="61.56391" lon="5.77503">
        <ele>258.418594</ele>
        <time>2020-07-28T08:47:10.179Z</time>
      </trkpt>
      <trkpt lat="61.564" lon="5.77495">
        <ele>258.577099</ele>
        <time>2020-07-28T08:47:12.207Z</time>
      </trkpt>
      <trkpt lat="61.56412" lon="5.77486">
        <ele>258.796257</ele>
        <time>2020-07-28T08:47:15.199Z</time>
      </trkpt>
      <trkpt lat="61.56422" lon="5.77478">
        <ele>258.875249</ele>
        <time>2020-07-28T08:47:18.218Z</time>
      </trkpt>
      <trkpt lat="61.56432" lon="5.7747">
        <ele>258.898961</ele>
        <time>2020-07-28T08:47:21.203Z</time>
      </trkpt>
      <trkpt lat="61.56443" lon="5.77464">
        <ele>258.922748</ele>
        <time>2020-07-28T08:47:24.197Z</time>
      </trkpt>
      <trkpt lat="61.56455" lon="5.77453">
        <ele>258.950912</ele>
        <time>2020-07-28T08:47:27.195Z</time>
      </trkpt>
      <trkpt lat="61.56463" lon="5.77446">
        <ele>258.970582</ele>
        <time>2020-07-28T08:47:29.199Z</time>
      </trkpt>
      <trkpt lat="61.56475" lon="5.77437">
        <ele>258.998072</ele>
        <time>2020-07-28T08:47:32.188Z</time>
      </trkpt>
      <trkpt lat="61.56485" lon="5.77427">
        <ele>259.022548</ele>
        <time>2020-07-28T08:47:34.238Z</time>
      </trkpt>
      <trkpt lat="61.56496" lon="5.77416">
        <ele>259.048108</ele>
        <time>2020-07-28T08:47:36.196Z</time>
      </trkpt>
      <trkpt lat="61.56506" lon="5.77405">
        <ele>259.07429</ele>
        <time>2020-07-28T08:47:38.195Z</time>
      </trkpt>
      <trkpt lat="61.56517" lon="5.77394">
        <ele>259.099999</ele>
        <time>2020-07-28T08:47:40.178Z</time>
      </trkpt>
      <trkpt lat="61.56527" lon="5.77382">
        <ele>259.124975</ele>
        <time>2020-07-28T08:47:42.209Z</time>
      </trkpt>
      <trkpt lat="61.56537" lon="5.77373">
        <ele>259.148159</ele>
        <time>2020-07-28T08:47:44.189Z</time>
      </trkpt>
      <trkpt lat="61.56546" lon="5.77362">
        <ele>259.171168</ele>
        <time>2020-07-28T08:47:46.194Z</time>
      </trkpt>
      <trkpt lat="61.56556" lon="5.77348">
        <ele>259.197579</ele>
        <time>2020-07-28T08:47:49.193Z</time>
      </trkpt>
      <trkpt lat="61.56565" lon="5.77336">
        <ele>259.220156</ele>
        <time>2020-07-28T08:47:52.192Z</time>
      </trkpt>
      <trkpt lat="61.56574" lon="5.77328">
        <ele>259.241203</ele>
        <time>2020-07-28T08:47:56.205Z</time>
      </trkpt>
      <trkpt lat="61.56583" lon="5.77317">
        <ele>259.408207</ele>
        <time>2020-07-28T08:48:01.181Z</time>
      </trkpt>
      <trkpt lat="61.56593" lon="5.77307">
        <ele>259.683852</ele>
        <time>2020-07-28T08:48:06.223Z</time>
      </trkpt>
      <trkpt lat="61.56602" lon="5.77297">
        <ele>259.943827</ele>
        <time>2020-07-28T08:48:11.181Z</time>
      </trkpt>
      <trkpt lat="61.56611" lon="5.77288">
        <ele>260.195044</ele>
        <time>2020-07-28T08:48:16.186Z</time>
      </trkpt>
      <trkpt lat="61.5662" lon="5.7728">
        <ele>260.456681</ele>
        <time>2020-07-28T08:48:21.195Z</time>
      </trkpt>
      <trkpt lat="61.5663" lon="5.77272">
        <ele>260.709025</ele>
        <time>2020-07-28T08:48:27.215Z</time>
      </trkpt>
      <trkpt lat="61.56638" lon="5.77261">
        <ele>260.95343</ele>
        <time>2020-07-28T08:48:33.193Z</time>
      </trkpt>
      <trkpt lat="61.56646" lon="5.77252">
        <ele>261.194522</ele>
        <time>2020-07-28T08:48:39.245Z</time>
      </trkpt>
      <trkpt lat="61.56654" lon="5.77241">
        <ele>261.438927</ele>
        <time>2020-07-28T08:48:45.195Z</time>
      </trkpt>
      <trkpt lat="61.56663" lon="5.77228">
        <ele>261.703219</ele>
        <time>2020-07-28T08:48:51.198Z</time>
      </trkpt>
      <trkpt lat="61.56671" lon="5.77214">
        <ele>261.971068</ele>
        <time>2020-07-28T08:48:59.192Z</time>
      </trkpt>
      <trkpt lat="61.56678" lon="5.77199">
        <ele>262.219816</ele>
        <time>2020-07-28T08:49:05.181Z</time>
      </trkpt>
      <trkpt lat="61.56685" lon="5.77184">
        <ele>262.474872</ele>
        <time>2020-07-28T08:49:10.179Z</time>
      </trkpt>
      <trkpt lat="61.56692" lon="5.77172">
        <ele>262.701834</ele>
        <time>2020-07-28T08:49:14.201Z</time>
      </trkpt>
      <trkpt lat="61.567" lon="5.77157">
        <ele>262.963032</ele>
        <time>2020-07-28T08:49:18.204Z</time>
      </trkpt>
      <trkpt lat="61.56707" lon="5.7714">
        <ele>263.23729</ele>
        <time>2020-07-28T08:49:22.199Z</time>
      </trkpt>
      <trkpt lat="61.56714" lon="5.77124">
        <ele>263.496261</ele>
        <time>2020-07-28T08:49:26.188Z</time>
      </trkpt>
      <trkpt lat="61.56722" lon="5.77104">
        <ele>263.786745</ele>
        <time>2020-07-28T08:49:30.195Z</time>
      </trkpt>
      <trkpt lat="61.56729" lon="5.77084">
        <ele>263.814968</ele>
        <time>2020-07-28T08:49:33.203Z</time>
      </trkpt>
      <trkpt lat="61.56736" lon="5.77064">
        <ele>263.842593</ele>
        <time>2020-07-28T08:49:37.207Z</time>
      </trkpt>
      <trkpt lat="61.56742" lon="5.77043">
        <ele>263.87057</ele>
        <time>2020-07-28T08:49:41.221Z</time>
      </trkpt>
      <trkpt lat="61.56748" lon="5.77024">
        <ele>263.896718</ele>
        <time>2020-07-28T08:49:45.175Z</time>
      </trkpt>
      <trkpt lat="61.56753" lon="5.77002">
        <ele>263.924515</ele>
        <time>2020-07-28T08:49:49.192Z</time>
      </trkpt>
      <trkpt lat="61.56757" lon="5.76984">
        <ele>263.94747</ele>
        <time>2020-07-28T08:49:52.184Z</time>
      </trkpt>
      <trkpt lat="61.56762" lon="5.76964">
        <ele>263.972792</ele>
        <time>2020-07-28T08:49:55.182Z</time>
      </trkpt>
      <trkpt lat="61.56765" lon="5.76944">
        <ele>263.997386</ele>
        <time>2020-07-28T08:49:58.205Z</time>
      </trkpt>
      <trkpt lat="61.56767" lon="5.76922">
        <ele>264.022195</ele>
        <time>2020-07-28T08:50:01.184Z</time>
      </trkpt>
      <trkpt lat="61.56768" lon="5.76901">
        <ele>264.046629</ele>
        <time>2020-07-28T08:50:04.222Z</time>
      </trkpt>
      <trkpt lat="61.56769" lon="5.76879">
        <ele>264.071848</ele>
        <time>2020-07-28T08:50:07.199Z</time>
      </trkpt>
      <trkpt lat="61.56771" lon="5.76858">
        <ele>264.096329</ele>
        <time>2020-07-28T08:50:10.192Z</time>
      </trkpt>
      <trkpt lat="61.56773" lon="5.76837">
        <ele>264.119899</ele>
        <time>2020-07-28T08:50:13.192Z</time>
      </trkpt>
      <trkpt lat="61.56774" lon="5.76814">
        <ele>264.146957</ele>
        <time>2020-07-28T08:50:17.192Z</time>
      </trkpt>
      <trkpt lat="61.56774" lon="5.76793">
        <ele>264.170599</ele>
        <time>2020-07-28T08:50:21.203Z</time>
      </trkpt>
      <trkpt lat="61.56775" lon="5.76774">
        <ele>264.192325</ele>
        <time>2020-07-28T08:50:27.218Z</time>
      </trkpt>
      <trkpt lat="61.56778" lon="5.76754">
        <ele>264.263929</ele>
        <time>2020-07-28T08:50:34.186Z</time>
      </trkpt>
      <trkpt lat="61.56781" lon="5.76734">
        <ele>264.980888</ele>
        <time>2020-07-28T08:50:41.192Z</time>
      </trkpt>
      <trkpt lat="61.56783" lon="5.76715">
        <ele>265.646716</ele>
        <time>2020-07-28T08:50:48.190Z</time>
      </trkpt>
      <trkpt lat="61.56785" lon="5.76697">
        <ele>266.296758</ele>
        <time>2020-07-28T08:50:56.193Z</time>
      </trkpt>
      <trkpt lat="61.56789" lon="5.76678">
        <ele>267.009331</ele>
        <time>2020-07-28T08:51:04.243Z</time>
      </trkpt>
      <trkpt lat="61.56792" lon="5.76658">
        <ele>267.72077</ele>
        <time>2020-07-28T08:51:12.200Z</time>
      </trkpt>
      <trkpt lat="61.56796" lon="5.76641">
        <ele>268.38471</ele>
        <time>2020-07-28T08:51:20.246Z</time>
      </trkpt>
      <trkpt lat="61.56801" lon="5.76622">
        <ele>269.135414</ele>
        <time>2020-07-28T08:51:27.196Z</time>
      </trkpt>
      <trkpt lat="61.56805" lon="5.76605">
        <ele>269.783576</ele>
        <time>2020-07-28T08:51:34.197Z</time>
      </trkpt>
      <trkpt lat="61.56807" lon="5.76586">
        <ele>270.448578</ele>
        <time>2020-07-28T08:51:40.194Z</time>
      </trkpt>
      <trkpt lat="61.56809" lon="5.76565">
        <ele>271.168808</ele>
        <time>2020-07-28T08:51:47.187Z</time>
      </trkpt>
      <trkpt lat="61.56812" lon="5.76546">
        <ele>271.876392</ele>
        <time>2020-07-28T08:51:55.222Z</time>
      </trkpt>
      <trkpt lat="61.56816" lon="5.76528">
        <ele>272.561905</ele>
        <time>2020-07-28T08:52:02.221Z</time>
      </trkpt>
      <trkpt lat="61.56821" lon="5.7651">
        <ele>273.25361</ele>
        <time>2020-07-28T08:52:08.213Z</time>
      </trkpt>
      <trkpt lat="61.56824" lon="5.7649">
        <ele>273.958798</ele>
        <time>2020-07-28T08:52:15.205Z</time>
      </trkpt>
      <trkpt lat="61.56829" lon="5.76472">
        <ele>274.681189</ele>
        <time>2020-07-28T08:52:22.199Z</time>
      </trkpt>
      <trkpt lat="61.56834" lon="5.76453">
        <ele>275.422994</ele>
        <time>2020-07-28T08:52:29.192Z</time>
      </trkpt>
      <trkpt lat="61.56837" lon="5.76435">
        <ele>276.103548</ele>
        <time>2020-07-28T08:52:37.231Z</time>
      </trkpt>
      <trkpt lat="61.5684" lon="5.76414">
        <ele>276.845969</ele>
        <time>2020-07-28T08:52:44.176Z</time>
      </trkpt>
      <trkpt lat="61.56845" lon="5.76395">
        <ele>277.650463</ele>
        <time>2020-07-28T08:52:51.218Z</time>
      </trkpt>
      <trkpt lat="61.5685" lon="5.76379">
        <ele>278.447913</ele>
        <time>2020-07-28T08:52:58.200Z</time>
      </trkpt>
      <trkpt lat="61.56857" lon="5.76363">
        <ele>279.316992</ele>
        <time>2020-07-28T08:53:06.191Z</time>
      </trkpt>
      <trkpt lat="61.56863" lon="5.76346">
        <ele>280.172467</ele>
        <time>2020-07-28T08:53:14.195Z</time>
      </trkpt>
      <trkpt lat="61.56868" lon="5.76328">
        <ele>281.046504</ele>
        <time>2020-07-28T08:53:23.189Z</time>
      </trkpt>
      <trkpt lat="61.56872" lon="5.7631">
        <ele>281.842851</ele>
        <time>2020-07-28T08:53:30.183Z</time>
      </trkpt>
      <trkpt lat="61.56877" lon="5.76292">
        <ele>282.666546</ele>
        <time>2020-07-28T08:53:38.200Z</time>
      </trkpt>
      <trkpt lat="61.56883" lon="5.76274">
        <ele>283.54727</ele>
        <time>2020-07-28T08:53:46.182Z</time>
      </trkpt>
      <trkpt lat="61.56888" lon="5.7626">
        <ele>284.316326</ele>
        <time>2020-07-28T08:53:53.195Z</time>
      </trkpt>
      <trkpt lat="61.56895" lon="5.76246">
        <ele>285.097106</ele>
        <time>2020-07-28T08:54:00.183Z</time>
      </trkpt>
      <trkpt lat="61.56901" lon="5.76233">
        <ele>285.880082</ele>
        <time>2020-07-28T08:54:08.205Z</time>
      </trkpt>
      <trkpt lat="61.56909" lon="5.76218">
        <ele>286.751106</ele>
        <time>2020-07-28T08:54:16.186Z</time>
      </trkpt>
      <trkpt lat="61.56917" lon="5.76208">
        <ele>287.527648</ele>
        <time>2020-07-28T08:54:24.188Z</time>
      </trkpt>
      <trkpt lat="61.56924" lon="5.76196">
        <ele>288.34613</ele>
        <time>2020-07-28T08:54:31.198Z</time>
      </trkpt>
      <trkpt lat="61.56933" lon="5.76186">
        <ele>289.188905</ele>
        <time>2020-07-28T08:54:39.200Z</time>
      </trkpt>
      <trkpt lat="61.56941" lon="5.76176">
        <ele>289.971112</ele>
        <time>2020-07-28T08:54:46.203Z</time>
      </trkpt>
      <trkpt lat="61.5695" lon="5.76169">
        <ele>290.790379</ele>
        <time>2020-07-28T08:54:54.191Z</time>
      </trkpt>
      <trkpt lat="61.56958" lon="5.76159">
        <ele>291.590379</ele>
        <time>2020-07-28T08:55:02.209Z</time>
      </trkpt>
      <trkpt lat="61.56966" lon="5.76149">
        <ele>292.433247</ele>
        <time>2020-07-28T08:55:10.207Z</time>
      </trkpt>
      <trkpt lat="61.56976" lon="5.76141">
        <ele>293.422588</ele>
        <time>2020-07-28T08:55:18.249Z</time>
      </trkpt>
      <trkpt lat="61.56984" lon="5.76131">
        <ele>294.39577</ele>
        <time>2020-07-28T08:55:25.194Z</time>
      </trkpt>
      <trkpt lat="61.56992" lon="5.7612">
        <ele>295.32772</ele>
        <time>2020-07-28T08:55:31.191Z</time>
      </trkpt>
      <trkpt lat="61.57001" lon="5.76115">
        <ele>296.306367</ele>
        <time>2020-07-28T08:55:38.189Z</time>
      </trkpt>
      <trkpt lat="61.57009" lon="5.76105">
        <ele>297.21262</ele>
        <time>2020-07-28T08:55:45.217Z</time>
      </trkpt>
      <trkpt lat="61.57018" lon="5.76098">
        <ele>298.164064</ele>
        <time>2020-07-28T08:55:52.185Z</time>
      </trkpt>
      <trkpt lat="61.57027" lon="5.76091">
        <ele>299.17155</ele>
        <time>2020-07-28T08:55:59.195Z</time>
      </trkpt>
      <trkpt lat="61.57037" lon="5.76086">
        <ele>300.134031</ele>
        <time>2020-07-28T08:56:05.196Z</time>
      </trkpt>
      <trkpt lat="61.57045" lon="5.76082">
        <ele>301.035872</ele>
        <time>2020-07-28T08:56:11.195Z</time>
      </trkpt>
      <trkpt lat="61.57056" lon="5.76079">
        <ele>302.067874</ele>
        <time>2020-07-28T08:56:18.201Z</time>
      </trkpt>
      <trkpt lat="61.57065" lon="5.76079">
        <ele>302.991506</ele>
        <time>2020-07-28T08:56:25.261Z</time>
      </trkpt>
      <trkpt lat="61.57074" lon="5.76082">
        <ele>303.926834</ele>
        <time>2020-07-28T08:56:31.219Z</time>
      </trkpt>
      <trkpt lat="61.57084" lon="5.76089">
        <ele>304.951839</ele>
        <time>2020-07-28T08:56:38.211Z</time>
      </trkpt>
      <trkpt lat="61.57094" lon="5.76095">
        <ele>305.984852</ele>
        <time>2020-07-28T08:56:46.199Z</time>
      </trkpt>
      <trkpt lat="61.57103" lon="5.761">
        <ele>306.972788</ele>
        <time>2020-07-28T08:56:52.248Z</time>
      </trkpt>
      <trkpt lat="61.57112" lon="5.76108">
        <ele>307.940837</ele>
        <time>2020-07-28T08:56:58.204Z</time>
      </trkpt>
      <trkpt lat="61.5712" lon="5.76117">
        <ele>308.851822</ele>
        <time>2020-07-28T08:57:04.187Z</time>
      </trkpt>
      <trkpt lat="61.57129" lon="5.76125">
        <ele>309.80326</ele>
        <time>2020-07-28T08:57:11.230Z</time>
      </trkpt>
      <trkpt lat="61.57137" lon="5.76132">
        <ele>310.641895</ele>
        <time>2020-07-28T08:57:18.197Z</time>
      </trkpt>
      <trkpt lat="61.57147" lon="5.76141">
        <ele>310.932391</ele>
        <time>2020-07-28T08:57:25.222Z</time>
      </trkpt>
      <trkpt lat="61.57155" lon="5.76149">
        <ele>311.19923</ele>
        <time>2020-07-28T08:57:32.208Z</time>
      </trkpt>
      <trkpt lat="61.57164" lon="5.76155">
        <ele>311.45873</ele>
        <time>2020-07-28T08:57:38.197Z</time>
      </trkpt>
      <trkpt lat="61.57174" lon="5.76155">
        <ele>311.750345</ele>
        <time>2020-07-28T08:57:43.204Z</time>
      </trkpt>
      <trkpt lat="61.57184" lon="5.76156">
        <ele>312.033767</ele>
        <time>2020-07-28T08:57:48.211Z</time>
      </trkpt>
      <trkpt lat="61.57194" lon="5.76149">
        <ele>312.334681</ele>
        <time>2020-07-28T08:57:53.205Z</time>
      </trkpt>
      <trkpt lat="61.57204" lon="5.76148">
        <ele>312.618442</ele>
        <time>2020-07-28T08:57:58.213Z</time>
      </trkpt>
      <trkpt lat="61.57214" lon="5.76138">
        <ele>312.929602</ele>
        <time>2020-07-28T08:58:03.203Z</time>
      </trkpt>
      <trkpt lat="61.57222" lon="5.7613">
        <ele>313.187507</ele>
        <time>2020-07-28T08:58:08.193Z</time>
      </trkpt>
      <trkpt lat="61.57231" lon="5.76123">
        <ele>313.460039</ele>
        <time>2020-07-28T08:58:13.198Z</time>
      </trkpt>
      <trkpt lat="61.5724" lon="5.76114">
        <ele>313.759988</ele>
        <time>2020-07-28T08:58:19.198Z</time>
      </trkpt>
      <trkpt lat="61.5725" lon="5.76108">
        <ele>314.040624</ele>
        <time>2020-07-28T08:58:25.264Z</time>
      </trkpt>
      <trkpt lat="61.57258" lon="5.76098">
        <ele>314.308535</ele>
        <time>2020-07-28T08:58:31.234Z</time>
      </trkpt>
      <trkpt lat="61.57267" lon="5.76088">
        <ele>314.600268</ele>
        <time>2020-07-28T08:58:38.201Z</time>
      </trkpt>
      <trkpt lat="61.57275" lon="5.7608">
        <ele>314.864504</ele>
        <time>2020-07-28T08:58:44.220Z</time>
      </trkpt>
      <trkpt lat="61.57284" lon="5.76075">
        <ele>315.120653</ele>
        <time>2020-07-28T08:58:51.188Z</time>
      </trkpt>
      <trkpt lat="61.57293" lon="5.76067">
        <ele>315.40129</ele>
        <time>2020-07-28T08:58:58.204Z</time>
      </trkpt>
      <trkpt lat="61.573" lon="5.76054">
        <ele>315.671398</ele>
        <time>2020-07-28T08:59:04.205Z</time>
      </trkpt>
      <trkpt lat="61.57308" lon="5.76042">
        <ele>316.190443</ele>
        <time>2020-07-28T08:59:11.225Z</time>
      </trkpt>
      <trkpt lat="61.57314" lon="5.76028">
        <ele>316.785199</ele>
        <time>2020-07-28T08:59:17.193Z</time>
      </trkpt>
      <trkpt lat="61.57321" lon="5.76015">
        <ele>317.365451</ele>
        <time>2020-07-28T08:59:24.195Z</time>
      </trkpt>
      <trkpt lat="61.57327" lon="5.76001">
        <ele>317.951504</ele>
        <time>2020-07-28T08:59:31.229Z</time>
      </trkpt>
      <trkpt lat="61.57333" lon="5.75986">
        <ele>318.575278</ele>
        <time>2020-07-28T08:59:38.195Z</time>
      </trkpt>
      <trkpt lat="61.57339" lon="5.75971">
        <ele>319.171489</ele>
        <time>2020-07-28T08:59:44.183Z</time>
      </trkpt>
      <trkpt lat="61.57345" lon="5.75953">
        <ele>319.831133</ele>
        <time>2020-07-28T08:59:51.189Z</time>
      </trkpt>
      <trkpt lat="61.5735" lon="5.75938">
        <ele>320.407359</ele>
        <time>2020-07-28T08:59:57.194Z</time>
      </trkpt>
      <trkpt lat="61.57355" lon="5.75921">
        <ele>321.013659</ele>
        <time>2020-07-28T09:00:04.194Z</time>
      </trkpt>
      <trkpt lat="61.57361" lon="5.75905">
        <ele>321.637737</ele>
        <time>2020-07-28T09:00:11.195Z</time>
      </trkpt>
      <trkpt lat="61.57367" lon="5.75889">
        <ele>322.265819</ele>
        <time>2020-07-28T09:00:20.238Z</time>
      </trkpt>
      <trkpt lat="61.57373" lon="5.75872">
        <ele>322.893073</ele>
        <time>2020-07-28T09:00:27.188Z</time>
      </trkpt>
      <trkpt lat="61.57379" lon="5.75856">
        <ele>323.513962</ele>
        <time>2020-07-28T09:00:36.216Z</time>
      </trkpt>
      <trkpt lat="61.57384" lon="5.75838">
        <ele>324.176356</ele>
        <time>2020-07-28T09:00:43.202Z</time>
      </trkpt>
      <trkpt lat="61.5739" lon="5.75822">
        <ele>324.797287</ele>
        <time>2020-07-28T09:00:50.204Z</time>
      </trkpt>
      <trkpt lat="61.57397" lon="5.7581">
        <ele>325.382716</ele>
        <time>2020-07-28T09:00:56.197Z</time>
      </trkpt>
      <trkpt lat="61.57405" lon="5.75797">
        <ele>326.014727</ele>
        <time>2020-07-28T09:01:03.208Z</time>
      </trkpt>
      <trkpt lat="61.57414" lon="5.7579">
        <ele>326.61772</ele>
        <time>2020-07-28T09:01:15.195Z</time>
      </trkpt>
      <trkpt lat="61.57434" lon="5.75778">
        <ele>328.284691</ele>
        <time>2020-07-28T09:01:31.193Z</time>
      </trkpt>
      <trkpt lat="61.57443" lon="5.75774">
        <ele>329.158082</ele>
        <time>2020-07-28T09:01:38.200Z</time>
      </trkpt>
      <trkpt lat="61.57453" lon="5.7577">
        <ele>330.166682</ele>
        <time>2020-07-28T09:01:44.195Z</time>
      </trkpt>
      <trkpt lat="61.57463" lon="5.75771">
        <ele>331.046245</ele>
        <time>2020-07-28T09:01:51.228Z</time>
      </trkpt>
      <trkpt lat="61.57472" lon="5.75767">
        <ele>331.972723</ele>
        <time>2020-07-28T09:01:59.188Z</time>
      </trkpt>
      <trkpt lat="61.57481" lon="5.75757">
        <ele>332.908853</ele>
        <time>2020-07-28T09:02:08.196Z</time>
      </trkpt>
      <trkpt lat="61.57489" lon="5.75748">
        <ele>333.76678</ele>
        <time>2020-07-28T09:02:14.214Z</time>
      </trkpt>
      <trkpt lat="61.57497" lon="5.75742">
        <ele>334.64618</ele>
        <time>2020-07-28T09:02:21.198Z</time>
      </trkpt>
      <trkpt lat="61.57506" lon="5.75733">
        <ele>335.593525</ele>
        <time>2020-07-28T09:02:28.187Z</time>
      </trkpt>
      <trkpt lat="61.57515" lon="5.75725">
        <ele>336.499809</ele>
        <time>2020-07-28T09:02:36.217Z</time>
      </trkpt>
      <trkpt lat="61.57522" lon="5.75712">
        <ele>337.371492</ele>
        <time>2020-07-28T09:02:44.256Z</time>
      </trkpt>
      <trkpt lat="61.57529" lon="5.75699">
        <ele>338.296346</ele>
        <time>2020-07-28T09:02:50.197Z</time>
      </trkpt>
      <trkpt lat="61.57536" lon="5.75683">
        <ele>339.24377</ele>
        <time>2020-07-28T09:02:58.196Z</time>
      </trkpt>
      <trkpt lat="61.57541" lon="5.75666">
        <ele>340.171663</ele>
        <time>2020-07-28T09:03:07.217Z</time>
      </trkpt>
      <trkpt lat="61.57547" lon="5.75649">
        <ele>341.101866</ele>
        <time>2020-07-28T09:03:15.198Z</time>
      </trkpt>
      <trkpt lat="61.57551" lon="5.75631">
        <ele>342.015135</ele>
        <time>2020-07-28T09:03:22.235Z</time>
      </trkpt>
      <trkpt lat="61.57555" lon="5.75612">
        <ele>342.95659</ele>
        <time>2020-07-28T09:03:30.219Z</time>
      </trkpt>
      <trkpt lat="61.5756" lon="5.75594">
        <ele>343.891903</ele>
        <time>2020-07-28T09:03:38.224Z</time>
      </trkpt>
      <trkpt lat="61.57564" lon="5.75577">
        <ele>344.608488</ele>
        <time>2020-07-28T09:03:46.203Z</time>
      </trkpt>
      <trkpt lat="61.57569" lon="5.75561">
        <ele>345.072398</ele>
        <time>2020-07-28T09:03:53.183Z</time>
      </trkpt>
      <trkpt lat="61.57575" lon="5.75544">
        <ele>345.585101</ele>
        <time>2020-07-28T09:04:02.200Z</time>
      </trkpt>
      <trkpt lat="61.57582" lon="5.75529">
        <ele>346.074897</ele>
        <time>2020-07-28T09:04:10.198Z</time>
      </trkpt>
      <trkpt lat="61.57591" lon="5.75521">
        <ele>346.583482</ele>
        <time>2020-07-28T09:04:18.196Z</time>
      </trkpt>
      <trkpt lat="61.57598" lon="5.75508">
        <ele>347.059448</ele>
        <time>2020-07-28T09:04:25.195Z</time>
      </trkpt>
      <trkpt lat="61.57606" lon="5.75496">
        <ele>347.545811</ele>
        <time>2020-07-28T09:04:34.199Z</time>
      </trkpt>
      <trkpt lat="61.57615" lon="5.75488">
        <ele>348.051069</ele>
        <time>2020-07-28T09:04:43.208Z</time>
      </trkpt>
      <trkpt lat="61.57624" lon="5.75478">
        <ele>348.552381</ele>
        <time>2020-07-28T09:04:51.206Z</time>
      </trkpt>
      <trkpt lat="61.57633" lon="5.75473">
        <ele>349.021403</ele>
        <time>2020-07-28T09:05:00.196Z</time>
      </trkpt>
      <trkpt lat="61.57642" lon="5.75464">
        <ele>349.525358</ele>
        <time>2020-07-28T09:05:10.201Z</time>
      </trkpt>
      <trkpt lat="61.57651" lon="5.75459">
        <ele>349.984834</ele>
        <time>2020-07-28T09:05:17.192Z</time>
      </trkpt>
      <trkpt lat="61.57661" lon="5.75456">
        <ele>350.477984</ele>
        <time>2020-07-28T09:05:26.193Z</time>
      </trkpt>
      <trkpt lat="61.57671" lon="5.75458">
        <ele>350.987161</ele>
        <time>2020-07-28T09:05:35.189Z</time>
      </trkpt>
      <trkpt lat="61.57681" lon="5.75459">
        <ele>351.486156</ele>
        <time>2020-07-28T09:05:43.215Z</time>
      </trkpt>
      <trkpt lat="61.57691" lon="5.75456">
        <ele>351.997762</ele>
        <time>2020-07-28T09:05:51.214Z</time>
      </trkpt>
      <trkpt lat="61.577" lon="5.7546">
        <ele>352.463405</ele>
        <time>2020-07-28T09:05:58.237Z</time>
      </trkpt>
      <trkpt lat="61.57709" lon="5.7546">
        <ele>352.946657</ele>
        <time>2020-07-28T09:06:08.183Z</time>
      </trkpt>
      <trkpt lat="61.57719" lon="5.75466">
        <ele>353.430121</ele>
        <time>2020-07-28T09:06:15.223Z</time>
      </trkpt>
      <trkpt lat="61.57728" lon="5.75468">
        <ele>353.850002</ele>
        <time>2020-07-28T09:06:22.192Z</time>
      </trkpt>
      <trkpt lat="61.57737" lon="5.75475">
        <ele>354.299648</ele>
        <time>2020-07-28T09:06:30.211Z</time>
      </trkpt>
      <trkpt lat="61.57745" lon="5.75487">
        <ele>354.740682</ele>
        <time>2020-07-28T09:06:38.206Z</time>
      </trkpt>
      <trkpt lat="61.57753" lon="5.75499">
        <ele>355.215431</ele>
        <time>2020-07-28T09:06:45.195Z</time>
      </trkpt>
      <trkpt lat="61.57761" lon="5.75509">
        <ele>355.638083</ele>
        <time>2020-07-28T09:06:51.195Z</time>
      </trkpt>
      <trkpt lat="61.57768" lon="5.75525">
        <ele>356.112928</ele>
        <time>2020-07-28T09:06:58.258Z</time>
      </trkpt>
      <trkpt lat="61.57776" lon="5.75538">
        <ele>356.545976</ele>
        <time>2020-07-28T09:07:04.209Z</time>
      </trkpt>
      <trkpt lat="61.57783" lon="5.75552">
        <ele>357.005584</ele>
        <time>2020-07-28T09:07:10.215Z</time>
      </trkpt>
      <trkpt lat="61.5779" lon="5.75568">
        <ele>357.466383</ele>
        <time>2020-07-28T09:07:16.224Z</time>
      </trkpt>
      <trkpt lat="61.57794" lon="5.75587">
        <ele>357.938867</ele>
        <time>2020-07-28T09:07:23.235Z</time>
      </trkpt>
      <trkpt lat="61.578" lon="5.75605">
        <ele>358.391806</ele>
        <time>2020-07-28T09:07:30.191Z</time>
      </trkpt>
      <trkpt lat="61.57804" lon="5.75623">
        <ele>358.848245</ele>
        <time>2020-07-28T09:07:37.193Z</time>
      </trkpt>
      <trkpt lat="61.57805" lon="5.75643">
        <ele>359.282448</ele>
        <time>2020-07-28T09:07:45.213Z</time>
      </trkpt>
      <trkpt lat="61.57804" lon="5.75664">
        <ele>359.731864</ele>
        <time>2020-07-28T09:07:55.191Z</time>
      </trkpt>
      <trkpt lat="61.57804" lon="5.75683">
        <ele>360.141271</ele>
        <time>2020-07-28T09:08:03.218Z</time>
      </trkpt>
      <trkpt lat="61.57803" lon="5.75704">
        <ele>360.601525</ele>
        <time>2020-07-28T09:08:12.197Z</time>
      </trkpt>
      <trkpt lat="61.57803" lon="5.75723">
        <ele>361.015893</ele>
        <time>2020-07-28T09:08:20.184Z</time>
      </trkpt>
      <trkpt lat="61.57807" lon="5.7574">
        <ele>361.433184</ele>
        <time>2020-07-28T09:08:27.220Z</time>
      </trkpt>
      <trkpt lat="61.57816" lon="5.75748">
        <ele>362.082455</ele>
        <time>2020-07-28T09:08:35.201Z</time>
      </trkpt>
      <trkpt lat="61.57824" lon="5.75738">
        <ele>363.129521</ele>
        <time>2020-07-28T09:08:42.190Z</time>
      </trkpt>
      <trkpt lat="61.57829" lon="5.7572">
        <ele>364.261573</ele>
        <time>2020-07-28T09:08:49.197Z</time>
      </trkpt>
      <trkpt lat="61.5783" lon="5.75699">
        <ele>365.427433</ele>
        <time>2020-07-28T09:08:57.187Z</time>
      </trkpt>
      <trkpt lat="61.57833" lon="5.75679">
        <ele>366.573198</ele>
        <time>2020-07-28T09:09:04.222Z</time>
      </trkpt>
      <trkpt lat="61.57835" lon="5.75661">
        <ele>367.631941</ele>
        <time>2020-07-28T09:09:11.203Z</time>
      </trkpt>
      <trkpt lat="61.57836" lon="5.75641">
        <ele>368.718709</ele>
        <time>2020-07-28T09:09:18.211Z</time>
      </trkpt>
      <trkpt lat="61.57836" lon="5.75622">
        <ele>369.770482</ele>
        <time>2020-07-28T09:09:25.197Z</time>
      </trkpt>
      <trkpt lat="61.57839" lon="5.75603">
        <ele>370.847385</ele>
        <time>2020-07-28T09:09:33.185Z</time>
      </trkpt>
      <trkpt lat="61.5784" lon="5.75582">
        <ele>371.992978</ele>
        <time>2020-07-28T09:09:41.222Z</time>
      </trkpt>
      <trkpt lat="61.5784" lon="5.75563">
        <ele>373.073571</ele>
        <time>2020-07-28T09:09:50.211Z</time>
      </trkpt>
      <trkpt lat="61.57838" lon="5.75543">
        <ele>374.171911</ele>
        <time>2020-07-28T09:10:00.199Z</time>
      </trkpt>
      <trkpt lat="61.5784" lon="5.75524">
        <ele>375.21461</ele>
        <time>2020-07-28T09:10:08.214Z</time>
      </trkpt>
      <trkpt lat="61.57842" lon="5.75506">
        <ele>376.256536</ele>
        <time>2020-07-28T09:10:16.199Z</time>
      </trkpt>
      <trkpt lat="61.57845" lon="5.75487">
        <ele>377.344921</ele>
        <time>2020-07-28T09:10:26.203Z</time>
      </trkpt>
      <trkpt lat="61.5785" lon="5.75471">
        <ele>378.414225</ele>
        <time>2020-07-28T09:10:34.211Z</time>
      </trkpt>
      <trkpt lat="61.57854" lon="5.75453">
        <ele>379.50798</ele>
        <time>2020-07-28T09:10:45.184Z</time>
      </trkpt>
      <trkpt lat="61.57858" lon="5.75435">
        <ele>380.621507</ele>
        <time>2020-07-28T09:10:54.219Z</time>
      </trkpt>
      <trkpt lat="61.5786" lon="5.75416">
        <ele>381.700814</ele>
        <time>2020-07-28T09:11:05.214Z</time>
      </trkpt>
      <trkpt lat="61.57862" lon="5.75395">
        <ele>382.762339</ele>
        <time>2020-07-28T09:11:14.208Z</time>
      </trkpt>
      <trkpt lat="61.57864" lon="5.75374">
        <ele>383.596551</ele>
        <time>2020-07-28T09:11:21.240Z</time>
      </trkpt>
      <trkpt lat="61.57866" lon="5.75353">
        <ele>384.445602</ele>
        <time>2020-07-28T09:11:29.204Z</time>
      </trkpt>
      <trkpt lat="61.57868" lon="5.75334">
        <ele>385.227512</ele>
        <time>2020-07-28T09:11:36.195Z</time>
      </trkpt>
      <trkpt lat="61.57866" lon="5.75314">
        <ele>385.996468</ele>
        <time>2020-07-28T09:11:43.220Z</time>
      </trkpt>
      <trkpt lat="61.57866" lon="5.75296">
        <ele>386.735982</ele>
        <time>2020-07-28T09:11:51.191Z</time>
      </trkpt>
      <trkpt lat="61.57864" lon="5.75276">
        <ele>387.519338</ele>
        <time>2020-07-28T09:11:59.224Z</time>
      </trkpt>
      <trkpt lat="61.57864" lon="5.75255">
        <ele>388.36223</ele>
        <time>2020-07-28T09:12:06.187Z</time>
      </trkpt>
      <trkpt lat="61.57863" lon="5.75234">
        <ele>389.181837</ele>
        <time>2020-07-28T09:12:14.183Z</time>
      </trkpt>
      <trkpt lat="61.57861" lon="5.75213">
        <ele>390.014343</ele>
        <time>2020-07-28T09:12:23.206Z</time>
      </trkpt>
      <trkpt lat="61.5786" lon="5.75193">
        <ele>390.837855</ele>
        <time>2020-07-28T09:12:33.199Z</time>
      </trkpt>
      <trkpt lat="61.57855" lon="5.75175">
        <ele>391.631123</ele>
        <time>2020-07-28T09:12:42.215Z</time>
      </trkpt>
      <trkpt lat="61.5785" lon="5.75157">
        <ele>392.442702</ele>
        <time>2020-07-28T09:12:49.215Z</time>
      </trkpt>
      <trkpt lat="61.57846" lon="5.75138">
        <ele>393.26856</ele>
        <time>2020-07-28T09:12:57.214Z</time>
      </trkpt>
      <trkpt lat="61.57844" lon="5.75119">
        <ele>394.054818</ele>
        <time>2020-07-28T09:13:04.198Z</time>
      </trkpt>
      <trkpt lat="61.57838" lon="5.75101">
        <ele>394.876289</ele>
        <time>2020-07-28T09:13:12.185Z</time>
      </trkpt>
      <trkpt lat="61.57835" lon="5.75082">
        <ele>395.67756</ele>
        <time>2020-07-28T09:13:21.202Z</time>
      </trkpt>
      <trkpt lat="61.57831" lon="5.75062">
        <ele>396.516087</ele>
        <time>2020-07-28T09:13:31.212Z</time>
      </trkpt>
      <trkpt lat="61.57828" lon="5.75043">
        <ele>397.321577</ele>
        <time>2020-07-28T09:13:39.192Z</time>
      </trkpt>
      <trkpt lat="61.57825" lon="5.75025">
        <ele>397.954823</ele>
        <time>2020-07-28T09:13:47.202Z</time>
      </trkpt>
      <trkpt lat="61.5782" lon="5.75007">
        <ele>398.606952</ele>
        <time>2020-07-28T09:13:55.198Z</time>
      </trkpt>
      <trkpt lat="61.57815" lon="5.74991">
        <ele>399.228763</ele>
        <time>2020-07-28T09:14:02.195Z</time>
      </trkpt>
      <trkpt lat="61.57812" lon="5.74973">
        <ele>399.858041</ele>
        <time>2020-07-28T09:14:10.193Z</time>
      </trkpt>
      <trkpt lat="61.57808" lon="5.74954">
        <ele>400.508927</ele>
        <time>2020-07-28T09:14:19.187Z</time>
      </trkpt>
      <trkpt lat="61.57803" lon="5.74936">
        <ele>401.18472</ele>
        <time>2020-07-28T09:14:28.213Z</time>
      </trkpt>
      <trkpt lat="61.57798" lon="5.74919">
        <ele>401.839648</ele>
        <time>2020-07-28T09:14:37.203Z</time>
      </trkpt>
      <trkpt lat="61.57792" lon="5.74901">
        <ele>402.522537</ele>
        <time>2020-07-28T09:14:47.211Z</time>
      </trkpt>
      <trkpt lat="61.57788" lon="5.74885">
        <ele>403.130097</ele>
        <time>2020-07-28T09:14:54.199Z</time>
      </trkpt>
      <trkpt lat="61.57784" lon="5.74867">
        <ele>403.735793</ele>
        <time>2020-07-28T09:15:03.203Z</time>
      </trkpt>
      <trkpt lat="61.5778" lon="5.74848">
        <ele>404.40874</ele>
        <time>2020-07-28T09:15:12.203Z</time>
      </trkpt>
      <trkpt lat="61.57777" lon="5.7483">
        <ele>405.039241</ele>
        <time>2020-07-28T09:15:21.207Z</time>
      </trkpt>
      <trkpt lat="61.57772" lon="5.74813">
        <ele>405.656638</ele>
        <time>2020-07-28T09:15:29.215Z</time>
      </trkpt>
      <trkpt lat="61.57769" lon="5.74792">
        <ele>406.342086</ele>
        <time>2020-07-28T09:15:37.244Z</time>
      </trkpt>
      <trkpt lat="61.57766" lon="5.74774">
        <ele>406.984016</ele>
        <time>2020-07-28T09:15:45.199Z</time>
      </trkpt>
      <trkpt lat="61.57759" lon="5.74759">
        <ele>407.625795</ele>
        <time>2020-07-28T09:15:56.229Z</time>
      </trkpt>
      <trkpt lat="61.57755" lon="5.74741">
        <ele>408.292854</ele>
        <time>2020-07-28T09:16:05.190Z</time>
      </trkpt>
      <trkpt lat="61.57752" lon="5.74722">
        <ele>408.901756</ele>
        <time>2020-07-28T09:16:13.185Z</time>
      </trkpt>
      <trkpt lat="61.57749" lon="5.74703">
        <ele>409.550686</ele>
        <time>2020-07-28T09:16:21.216Z</time>
      </trkpt>
      <trkpt lat="61.57748" lon="5.74683">
        <ele>410.283723</ele>
        <time>2020-07-28T09:16:29.224Z</time>
      </trkpt>
      <trkpt lat="61.57745" lon="5.74662">
        <ele>411.091226</ele>
        <time>2020-07-28T09:16:37.194Z</time>
      </trkpt>
      <trkpt lat="61.57745" lon="5.74641">
        <ele>411.866226</ele>
        <time>2020-07-28T09:16:44.203Z</time>
      </trkpt>
      <trkpt lat="61.57743" lon="5.74622">
        <ele>412.587988</ele>
        <time>2020-07-28T09:16:51.215Z</time>
      </trkpt>
      <trkpt lat="61.5774" lon="5.74605">
        <ele>413.28113</ele>
        <time>2020-07-28T09:17:00.202Z</time>
      </trkpt>
      <trkpt lat="61.57737" lon="5.74586">
        <ele>414.010654</ele>
        <time>2020-07-28T09:17:09.197Z</time>
      </trkpt>
      <trkpt lat="61.57733" lon="5.74567">
        <ele>414.734423</ele>
        <time>2020-07-28T09:17:18.232Z</time>
      </trkpt>
      <trkpt lat="61.57732" lon="5.74549">
        <ele>415.432058</ele>
        <time>2020-07-28T09:17:26.190Z</time>
      </trkpt>
      <trkpt lat="61.57731" lon="5.7453">
        <ele>416.128457</ele>
        <time>2020-07-28T09:17:33.206Z</time>
      </trkpt>
      <trkpt lat="61.5773" lon="5.7451">
        <ele>416.845589</ele>
        <time>2020-07-28T09:17:42.214Z</time>
      </trkpt>
      <trkpt lat="61.57727" lon="5.74492">
        <ele>417.545952</ele>
        <time>2020-07-28T09:17:51.260Z</time>
      </trkpt>
      <trkpt lat="61.57723" lon="5.74475">
        <ele>418.235956</ele>
        <time>2020-07-28T09:17:59.198Z</time>
      </trkpt>
      <trkpt lat="61.5772" lon="5.74457">
        <ele>418.931259</ele>
        <time>2020-07-28T09:18:07.233Z</time>
      </trkpt>
      <trkpt lat="61.57718" lon="5.74439">
        <ele>419.624319</ele>
        <time>2020-07-28T09:18:15.233Z</time>
      </trkpt>
      <trkpt lat="61.57713" lon="5.74421">
        <ele>420.380734</ele>
        <time>2020-07-28T09:18:24.185Z</time>
      </trkpt>
      <trkpt lat="61.57711" lon="5.744">
        <ele>421.170265</ele>
        <time>2020-07-28T09:18:32.225Z</time>
      </trkpt>
      <trkpt lat="61.57707" lon="5.74383">
        <ele>421.86493</ele>
        <time>2020-07-28T09:18:40.241Z</time>
      </trkpt>
      <trkpt lat="61.57701" lon="5.74368">
        <ele>422.567372</ele>
        <time>2020-07-28T09:18:48.195Z</time>
      </trkpt>
      <trkpt lat="61.57697" lon="5.74351">
        <ele>423.277086</ele>
        <time>2020-07-28T09:18:56.197Z</time>
      </trkpt>
      <trkpt lat="61.57692" lon="5.74336">
        <ele>424.076509</ele>
        <time>2020-07-28T09:19:04.200Z</time>
      </trkpt>
      <trkpt lat="61.57688" lon="5.74318">
        <ele>424.921765</ele>
        <time>2020-07-28T09:19:12.193Z</time>
      </trkpt>
      <trkpt lat="61.57685" lon="5.74301">
        <ele>425.749445</ele>
        <time>2020-07-28T09:19:20.198Z</time>
      </trkpt>
      <trkpt lat="61.57678" lon="5.74286">
        <ele>426.621415</ele>
        <time>2020-07-28T09:19:28.199Z</time>
      </trkpt>
      <trkpt lat="61.57673" lon="5.74269">
        <ele>427.515689</ele>
        <time>2020-07-28T09:19:37.194Z</time>
      </trkpt>
      <trkpt lat="61.57668" lon="5.74253">
        <ele>428.381457</ele>
        <time>2020-07-28T09:19:45.202Z</time>
      </trkpt>
      <trkpt lat="61.57665" lon="5.74232">
        <ele>429.333709</ele>
        <time>2020-07-28T09:19:54.187Z</time>
      </trkpt>
      <trkpt lat="61.57659" lon="5.74214">
        <ele>430.278256</ele>
        <time>2020-07-28T09:20:02.213Z</time>
      </trkpt>
      <trkpt lat="61.57653" lon="5.74198">
        <ele>431.165935</ele>
        <time>2020-07-28T09:20:11.216Z</time>
      </trkpt>
      <trkpt lat="61.5765" lon="5.7418">
        <ele>432.036528</ele>
        <time>2020-07-28T09:20:19.196Z</time>
      </trkpt>
      <trkpt lat="61.57648" lon="5.7416">
        <ele>432.913384</ele>
        <time>2020-07-28T09:20:27.225Z</time>
      </trkpt>
      <trkpt lat="61.57646" lon="5.7414">
        <ele>433.801786</ele>
        <time>2020-07-28T09:20:36.214Z</time>
      </trkpt>
      <trkpt lat="61.57642" lon="5.74122">
        <ele>434.657392</ele>
        <time>2020-07-28T09:20:45.190Z</time>
      </trkpt>
      <trkpt lat="61.57637" lon="5.74105">
        <ele>435.565819</ele>
        <time>2020-07-28T09:20:54.226Z</time>
      </trkpt>
      <trkpt lat="61.57633" lon="5.74086">
        <ele>436.482437</ele>
        <time>2020-07-28T09:21:03.195Z</time>
      </trkpt>
      <trkpt lat="61.57632" lon="5.74065">
        <ele>437.395951</ele>
        <time>2020-07-28T09:21:12.185Z</time>
      </trkpt>
      <trkpt lat="61.57628" lon="5.74047">
        <ele>438.291759</ele>
        <time>2020-07-28T09:21:21.204Z</time>
      </trkpt>
      <trkpt lat="61.57628" lon="5.74027">
        <ele>439.142817</ele>
        <time>2020-07-28T09:21:30.200Z</time>
      </trkpt>
      <trkpt lat="61.57627" lon="5.74008">
        <ele>439.992133</ele>
        <time>2020-07-28T09:21:39.192Z</time>
      </trkpt>
      <trkpt lat="61.57626" lon="5.73988">
        <ele>440.574211</ele>
        <time>2020-07-28T09:21:47.203Z</time>
      </trkpt>
      <trkpt lat="61.57626" lon="5.73968">
        <ele>441.146005</ele>
        <time>2020-07-28T09:21:55.190Z</time>
      </trkpt>
      <trkpt lat="61.57627" lon="5.73947">
        <ele>441.745161</ele>
        <time>2020-07-28T09:22:03.196Z</time>
      </trkpt>
      <trkpt lat="61.57627" lon="5.73927">
        <ele>442.331262</ele>
        <time>2020-07-28T09:22:11.194Z</time>
      </trkpt>
      <trkpt lat="61.57627" lon="5.73907">
        <ele>442.916491</ele>
        <time>2020-07-28T09:22:20.237Z</time>
      </trkpt>
      <trkpt lat="61.57627" lon="5.73886">
        <ele>443.517304</ele>
        <time>2020-07-28T09:22:29.193Z</time>
      </trkpt>
      <trkpt lat="61.57628" lon="5.73866">
        <ele>444.1107</ele>
        <time>2020-07-28T09:22:38.221Z</time>
      </trkpt>
      <trkpt lat="61.57627" lon="5.73845">
        <ele>444.699969</ele>
        <time>2020-07-28T09:22:47.197Z</time>
      </trkpt>
      <trkpt lat="61.5763" lon="5.73825">
        <ele>445.309706</ele>
        <time>2020-07-28T09:22:56.199Z</time>
      </trkpt>
      <trkpt lat="61.57633" lon="5.73805">
        <ele>445.912004</ele>
        <time>2020-07-28T09:23:04.215Z</time>
      </trkpt>
      <trkpt lat="61.57636" lon="5.73786">
        <ele>446.499458</ele>
        <time>2020-07-28T09:23:12.201Z</time>
      </trkpt>
      <trkpt lat="61.57639" lon="5.73766">
        <ele>447.082524</ele>
        <time>2020-07-28T09:23:21.208Z</time>
      </trkpt>
      <trkpt lat="61.57642" lon="5.73749">
        <ele>447.632747</ele>
        <time>2020-07-28T09:23:29.195Z</time>
      </trkpt>
      <trkpt lat="61.57645" lon="5.73729">
        <ele>448.237283</ele>
        <time>2020-07-28T09:23:37.193Z</time>
      </trkpt>
      <trkpt lat="61.5765" lon="5.73711">
        <ele>448.816992</ele>
        <time>2020-07-28T09:23:46.219Z</time>
      </trkpt>
      <trkpt lat="61.57654" lon="5.73687">
        <ele>449.547245</ele>
        <time>2020-07-28T09:28:51.216Z</time>
      </trkpt>
      <trkpt lat="61.57659" lon="5.7367">
        <ele>450.145494</ele>
        <time>2020-07-28T09:28:59.236Z</time>
      </trkpt>
      <trkpt lat="61.57663" lon="5.73651">
        <ele>450.750427</ele>
        <time>2020-07-28T09:29:08.184Z</time>
      </trkpt>
      <trkpt lat="61.57667" lon="5.73632">
        <ele>451.429945</ele>
        <time>2020-07-28T09:29:16.195Z</time>
      </trkpt>
      <trkpt lat="61.5767" lon="5.73614">
        <ele>452.090768</ele>
        <time>2020-07-28T09:29:23.233Z</time>
      </trkpt>
      <trkpt lat="61.57672" lon="5.73593">
        <ele>452.806205</ele>
        <time>2020-07-28T09:29:31.221Z</time>
      </trkpt>
      <trkpt lat="61.57673" lon="5.73574">
        <ele>453.471088</ele>
        <time>2020-07-28T09:29:39.199Z</time>
      </trkpt>
      <trkpt lat="61.57673" lon="5.73553">
        <ele>454.208145</ele>
        <time>2020-07-28T09:29:47.223Z</time>
      </trkpt>
      <trkpt lat="61.57673" lon="5.73533">
        <ele>454.907255</ele>
        <time>2020-07-28T09:29:55.216Z</time>
      </trkpt>
      <trkpt lat="61.57673" lon="5.73513">
        <ele>455.581992</ele>
        <time>2020-07-28T09:30:03.202Z</time>
      </trkpt>
      <trkpt lat="61.5767" lon="5.73493">
        <ele>456.326613</ele>
        <time>2020-07-28T09:30:12.197Z</time>
      </trkpt>
      <trkpt lat="61.57667" lon="5.73474">
        <ele>456.986248</ele>
        <time>2020-07-28T09:30:19.232Z</time>
      </trkpt>
      <trkpt lat="61.57665" lon="5.73453">
        <ele>457.726903</ele>
        <time>2020-07-28T09:30:28.207Z</time>
      </trkpt>
      <trkpt lat="61.57662" lon="5.73434">
        <ele>458.439306</ele>
        <time>2020-07-28T09:30:37.194Z</time>
      </trkpt>
      <trkpt lat="61.5766" lon="5.73415">
        <ele>459.106247</ele>
        <time>2020-07-28T09:30:45.198Z</time>
      </trkpt>
      <trkpt lat="61.57655" lon="5.73397">
        <ele>459.817154</ele>
        <time>2020-07-28T09:30:55.203Z</time>
      </trkpt>
      <trkpt lat="61.57652" lon="5.73378">
        <ele>460.510498</ele>
        <time>2020-07-28T09:31:03.220Z</time>
      </trkpt>
      <trkpt lat="61.57649" lon="5.73359">
        <ele>461.195933</ele>
        <time>2020-07-28T09:31:11.183Z</time>
      </trkpt>
      <trkpt lat="61.57645" lon="5.73341">
        <ele>461.902107</ele>
        <time>2020-07-28T09:31:20.234Z</time>
      </trkpt>
      <trkpt lat="61.57643" lon="5.73322">
        <ele>462.587187</ele>
        <time>2020-07-28T09:31:28.207Z</time>
      </trkpt>
      <trkpt lat="61.57641" lon="5.73302">
        <ele>463.284353</ele>
        <time>2020-07-28T09:31:36.192Z</time>
      </trkpt>
      <trkpt lat="61.5764" lon="5.73281">
        <ele>464.001606</ele>
        <time>2020-07-28T09:31:44.221Z</time>
      </trkpt>
      <trkpt lat="61.5764" lon="5.7326">
        <ele>464.795636</ele>
        <time>2020-07-28T09:31:52.223Z</time>
      </trkpt>
      <trkpt lat="61.5764" lon="5.7324">
        <ele>465.544513</ele>
        <time>2020-07-28T09:32:00.198Z</time>
      </trkpt>
      <trkpt lat="61.57642" lon="5.73221">
        <ele>466.269248</ele>
        <time>2020-07-28T09:32:07.202Z</time>
      </trkpt>
      <trkpt lat="61.57642" lon="5.73201">
        <ele>467.02627</ele>
        <time>2020-07-28T09:32:15.192Z</time>
      </trkpt>
      <trkpt lat="61.57642" lon="5.7318">
        <ele>467.801808</ele>
        <time>2020-07-28T09:32:23.204Z</time>
      </trkpt>
      <trkpt lat="61.57643" lon="5.7316">
        <ele>468.555443</ele>
        <time>2020-07-28T09:32:32.195Z</time>
      </trkpt>
      <trkpt lat="61.57644" lon="5.73141">
        <ele>469.278509</ele>
        <time>2020-07-28T09:32:41.207Z</time>
      </trkpt>
      <trkpt lat="61.57643" lon="5.73122">
        <ele>469.994175</ele>
        <time>2020-07-28T09:32:49.196Z</time>
      </trkpt>
      <trkpt lat="61.57643" lon="5.73101">
        <ele>470.791928</ele>
        <time>2020-07-28T09:32:57.187Z</time>
      </trkpt>
      <trkpt lat="61.57643" lon="5.73082">
        <ele>471.529516</ele>
        <time>2020-07-28T09:33:05.200Z</time>
      </trkpt>
      <trkpt lat="61.57644" lon="5.73062">
        <ele>472.27664</ele>
        <time>2020-07-28T09:33:13.221Z</time>
      </trkpt>
      <trkpt lat="61.57643" lon="5.73043">
        <ele>472.992699</ele>
        <time>2020-07-28T09:33:21.204Z</time>
      </trkpt>
      <trkpt lat="61.57643" lon="5.73022">
        <ele>473.780593</ele>
        <time>2020-07-28T09:33:29.186Z</time>
      </trkpt>
      <trkpt lat="61.57645" lon="5.73003">
        <ele>474.496445</ele>
        <time>2020-07-28T09:33:38.225Z</time>
      </trkpt>
      <trkpt lat="61.57646" lon="5.72982">
        <ele>475.297059</ele>
        <time>2020-07-28T09:33:47.224Z</time>
      </trkpt>
      <trkpt lat="61.57646" lon="5.72962">
        <ele>476.07324</ele>
        <time>2020-07-28T09:33:55.199Z</time>
      </trkpt>
      <trkpt lat="61.57646" lon="5.72941">
        <ele>476.83402</ele>
        <time>2020-07-28T09:34:04.209Z</time>
      </trkpt>
      <trkpt lat="61.57647" lon="5.72923">
        <ele>477.546786</ele>
        <time>2020-07-28T09:34:12.195Z</time>
      </trkpt>
      <trkpt lat="61.57648" lon="5.72902">
        <ele>478.366991</ele>
        <time>2020-07-28T09:34:20.213Z</time>
      </trkpt>
      <trkpt lat="61.57647" lon="5.72881">
        <ele>479.349763</ele>
        <time>2020-07-28T09:34:28.200Z</time>
      </trkpt>
      <trkpt lat="61.57648" lon="5.72861">
        <ele>480.348547</ele>
        <time>2020-07-28T09:34:36.244Z</time>
      </trkpt>
      <trkpt lat="61.57646" lon="5.72841">
        <ele>481.283458</ele>
        <time>2020-07-28T09:34:44.188Z</time>
      </trkpt>
      <trkpt lat="61.57647" lon="5.7282">
        <ele>482.292718</ele>
        <time>2020-07-28T09:34:52.256Z</time>
      </trkpt>
      <trkpt lat="61.57647" lon="5.72801">
        <ele>483.249134</ele>
        <time>2020-07-28T09:35:02.201Z</time>
      </trkpt>
      <trkpt lat="61.57646" lon="5.72781">
        <ele>484.20187</ele>
        <time>2020-07-28T09:35:10.199Z</time>
      </trkpt>
      <trkpt lat="61.57644" lon="5.72761">
        <ele>485.186545</ele>
        <time>2020-07-28T09:35:18.190Z</time>
      </trkpt>
      <trkpt lat="61.57643" lon="5.7274">
        <ele>486.191179</ele>
        <time>2020-07-28T09:35:26.205Z</time>
      </trkpt>
      <trkpt lat="61.5764" lon="5.72721">
        <ele>487.157778</ele>
        <time>2020-07-28T09:35:34.190Z</time>
      </trkpt>
      <trkpt lat="61.57637" lon="5.72701">
        <ele>488.15309</ele>
        <time>2020-07-28T09:35:43.216Z</time>
      </trkpt>
      <trkpt lat="61.57631" lon="5.72685">
        <ele>489.107966</ele>
        <time>2020-07-28T09:35:50.195Z</time>
      </trkpt>
      <trkpt lat="61.57627" lon="5.72666">
        <ele>490.120391</ele>
        <time>2020-07-28T09:35:58.187Z</time>
      </trkpt>
      <trkpt lat="61.57621" lon="5.72651">
        <ele>491.046428</ele>
        <time>2020-07-28T09:36:06.198Z</time>
      </trkpt>
      <trkpt lat="61.57614" lon="5.72637">
        <ele>491.986162</ele>
        <time>2020-07-28T09:36:15.202Z</time>
      </trkpt>
      <trkpt lat="61.57608" lon="5.72622">
        <ele>492.982381</ele>
        <time>2020-07-28T09:36:24.230Z</time>
      </trkpt>
      <trkpt lat="61.57601" lon="5.72609">
        <ele>493.914439</ele>
        <time>2020-07-28T09:36:32.212Z</time>
      </trkpt>
      <trkpt lat="61.57594" lon="5.72593">
        <ele>494.911339</ele>
        <time>2020-07-28T09:36:41.215Z</time>
      </trkpt>
      <trkpt lat="61.57586" lon="5.72582">
        <ele>495.904578</ele>
        <time>2020-07-28T09:36:49.241Z</time>
      </trkpt>
      <trkpt lat="61.57579" lon="5.72571">
        <ele>496.75429</ele>
        <time>2020-07-28T09:36:57.191Z</time>
      </trkpt>
      <trkpt lat="61.5757" lon="5.72561">
        <ele>497.609101</ele>
        <time>2020-07-28T09:37:06.195Z</time>
      </trkpt>
      <trkpt lat="61.57561" lon="5.72558">
        <ele>498.393411</ele>
        <time>2020-07-28T09:37:14.220Z</time>
      </trkpt>
      <trkpt lat="61.57552" lon="5.72557">
        <ele>499.177282</ele>
        <time>2020-07-28T09:37:22.195Z</time>
      </trkpt>
      <trkpt lat="61.57543" lon="5.72561">
        <ele>499.972878</ele>
        <time>2020-07-28T09:37:29.211Z</time>
      </trkpt>
      <trkpt lat="61.57533" lon="5.72562">
        <ele>500.842069</ele>
        <time>2020-07-28T09:37:37.223Z</time>
      </trkpt>
      <trkpt lat="61.57523" lon="5.72564">
        <ele>501.688059</ele>
        <time>2020-07-28T09:37:46.244Z</time>
      </trkpt>
      <trkpt lat="61.57514" lon="5.72559">
        <ele>502.466933</ele>
        <time>2020-07-28T09:37:54.210Z</time>
      </trkpt>
      <trkpt lat="61.57505" lon="5.72558">
        <ele>503.277337</ele>
        <time>2020-07-28T09:38:02.197Z</time>
      </trkpt>
      <trkpt lat="61.57496" lon="5.72561">
        <ele>504.095613</ele>
        <time>2020-07-28T09:38:11.199Z</time>
      </trkpt>
      <trkpt lat="61.57487" lon="5.72566">
        <ele>504.900538</ele>
        <time>2020-07-28T09:38:18.215Z</time>
      </trkpt>
      <trkpt lat="61.57477" lon="5.72562">
        <ele>505.738024</ele>
        <time>2020-07-28T09:38:26.235Z</time>
      </trkpt>
      <trkpt lat="61.57467" lon="5.72558">
        <ele>506.592214</ele>
        <time>2020-07-28T09:38:35.210Z</time>
      </trkpt>
      <trkpt lat="61.57458" lon="5.72552">
        <ele>507.440732</ele>
        <time>2020-07-28T09:38:44.214Z</time>
      </trkpt>
      <trkpt lat="61.57449" lon="5.7255">
        <ele>508.210051</ele>
        <time>2020-07-28T09:38:53.218Z</time>
      </trkpt>
      <trkpt lat="61.57438" lon="5.72541">
        <ele>509.191596</ele>
        <time>2020-07-28T09:41:27.228Z</time>
      </trkpt>
      <trkpt lat="61.57432" lon="5.72525">
        <ele>510.032988</ele>
        <time>2020-07-28T09:41:33.248Z</time>
      </trkpt>
      <trkpt lat="61.57426" lon="5.7251">
        <ele>510.863167</ele>
        <time>2020-07-28T09:41:40.199Z</time>
      </trkpt>
      <trkpt lat="61.57417" lon="5.72501">
        <ele>511.698761</ele>
        <time>2020-07-28T09:41:49.211Z</time>
      </trkpt>
      <trkpt lat="61.57275" lon="5.7203">
        <ele>524.271967</ele>
        <time>2020-07-28T09:46:00.280Z</time>
      </trkpt>
      <trkpt lat="61.57311" lon="5.72096">
        <ele>526.490156</ele>
        <time>2020-07-28T09:46:02.215Z</time>
      </trkpt>
      <trkpt lat="61.57294" lon="5.7215">
        <ele>527.890513</ele>
        <time>2020-07-28T09:46:03.198Z</time>
      </trkpt>
      <trkpt lat="61.57283" lon="5.72082">
        <ele>528.639552</ele>
        <time>2020-07-28T09:46:05.231Z</time>
      </trkpt>
      <trkpt lat="61.57275" lon="5.72072">
        <ele>528.607915</ele>
        <time>2020-07-28T09:46:13.202Z</time>
      </trkpt>
      <trkpt lat="61.57266" lon="5.7206">
        <ele>528.573942</ele>
        <time>2020-07-28T09:46:25.219Z</time>
      </trkpt>
      <trkpt lat="61.57263" lon="5.72041">
        <ele>528.544011</ele>
        <time>2020-07-28T09:46:30.188Z</time>
      </trkpt>
      <trkpt lat="61.57257" lon="5.72025">
        <ele>528.513139</ele>
        <time>2020-07-28T09:46:35.199Z</time>
      </trkpt>
      <trkpt lat="61.5725" lon="5.72013">
        <ele>528.484265</ele>
        <time>2020-07-28T09:46:41.215Z</time>
      </trkpt>
      <trkpt lat="61.57236" lon="5.71988">
        <ele>528.425725</ele>
        <time>2020-07-28T09:47:41.255Z</time>
      </trkpt>
      <trkpt lat="61.57232" lon="5.71971">
        <ele>528.396435</ele>
        <time>2020-07-28T09:47:46.212Z</time>
      </trkpt>
      <trkpt lat="61.57227" lon="5.71954">
        <ele>528.365102</ele>
        <time>2020-07-28T09:47:50.215Z</time>
      </trkpt>
      <trkpt lat="61.5722" lon="5.71936">
        <ele>528.329555</ele>
        <time>2020-07-28T09:47:54.201Z</time>
      </trkpt>
      <trkpt lat="61.57215" lon="5.71918">
        <ele>528.29808</ele>
        <time>2020-07-28T09:47:58.197Z</time>
      </trkpt>
      <trkpt lat="61.5721" lon="5.71902">
        <ele>528.268638</ele>
        <time>2020-07-28T09:48:01.207Z</time>
      </trkpt>
      <trkpt lat="61.57202" lon="5.71886">
        <ele>528.233085</ele>
        <time>2020-07-28T09:48:04.231Z</time>
      </trkpt>
      <trkpt lat="61.57195" lon="5.71867">
        <ele>528.195924</ele>
        <time>2020-07-28T09:48:07.208Z</time>
      </trkpt>
      <trkpt lat="61.57187" lon="5.71846">
        <ele>528.155899</ele>
        <time>2020-07-28T09:48:10.220Z</time>
      </trkpt>
      <trkpt lat="61.57179" lon="5.71826">
        <ele>528.116085</ele>
        <time>2020-07-28T09:48:13.198Z</time>
      </trkpt>
      <trkpt lat="61.57173" lon="5.71805">
        <ele>527.631782</ele>
        <time>2020-07-28T09:48:16.200Z</time>
      </trkpt>
      <trkpt lat="61.57164" lon="5.71783">
        <ele>527.079275</ele>
        <time>2020-07-28T09:48:19.227Z</time>
      </trkpt>
      <trkpt lat="61.57158" lon="5.71768">
        <ele>526.708635</ele>
        <time>2020-07-28T09:48:21.215Z</time>
      </trkpt>
      <trkpt lat="61.57152" lon="5.71752">
        <ele>526.31566</ele>
        <time>2020-07-28T09:48:23.218Z</time>
      </trkpt>
      <trkpt lat="61.57146" lon="5.71736">
        <ele>525.90484</ele>
        <time>2020-07-28T09:48:25.220Z</time>
      </trkpt>
      <trkpt lat="61.5714" lon="5.71717">
        <ele>525.457036</ele>
        <time>2020-07-28T09:48:27.203Z</time>
      </trkpt>
      <trkpt lat="61.57133" lon="5.71697">
        <ele>524.971237</ele>
        <time>2020-07-28T09:48:29.214Z</time>
      </trkpt>
      <trkpt lat="61.57124" lon="5.71675">
        <ele>524.419932</ele>
        <time>2020-07-28T09:48:31.198Z</time>
      </trkpt>
      <trkpt lat="61.57115" lon="5.7165">
        <ele>523.816991</ele>
        <time>2020-07-28T09:48:33.220Z</time>
      </trkpt>
      <trkpt lat="61.57109" lon="5.71618">
        <ele>523.146317</ele>
        <time>2020-07-28T09:48:35.233Z</time>
      </trkpt>
      <trkpt lat="61.57104" lon="5.71583">
        <ele>522.436964</ele>
        <time>2020-07-28T09:48:37.212Z</time>
      </trkpt>
      <trkpt lat="61.57102" lon="5.71565">
        <ele>522.063272</ele>
        <time>2020-07-28T09:48:38.232Z</time>
      </trkpt>
      <trkpt lat="61.571" lon="5.71545">
        <ele>521.678161</ele>
        <time>2020-07-28T09:48:39.212Z</time>
      </trkpt>
      <trkpt lat="61.57098" lon="5.71525">
        <ele>521.281834</ele>
        <time>2020-07-28T09:48:40.204Z</time>
      </trkpt>
      <trkpt lat="61.57096" lon="5.71504">
        <ele>520.85856</ele>
        <time>2020-07-28T09:48:41.231Z</time>
      </trkpt>
      <trkpt lat="61.57094" lon="5.71483">
        <ele>520.229154</ele>
        <time>2020-07-28T09:48:42.206Z</time>
      </trkpt>
      <trkpt lat="61.57092" lon="5.71463">
        <ele>519.592795</ele>
        <time>2020-07-28T09:48:43.206Z</time>
      </trkpt>
      <trkpt lat="61.5709" lon="5.71444">
        <ele>518.95512</ele>
        <time>2020-07-28T09:48:44.240Z</time>
      </trkpt>
      <trkpt lat="61.57088" lon="5.71426">
        <ele>518.350466</ele>
        <time>2020-07-28T09:48:45.195Z</time>
      </trkpt>
      <trkpt lat="61.57086" lon="5.71407">
        <ele>517.748521</ele>
        <time>2020-07-28T09:48:46.230Z</time>
      </trkpt>
      <trkpt lat="61.5708" lon="5.71373">
        <ele>516.591437</ele>
        <time>2020-07-28T09:48:48.208Z</time>
      </trkpt>
      <trkpt lat="61.57075" lon="5.7134">
        <ele>515.46258</ele>
        <time>2020-07-28T09:48:50.198Z</time>
      </trkpt>
      <trkpt lat="61.57068" lon="5.71311">
        <ele>514.432753</ele>
        <time>2020-07-28T09:48:52.212Z</time>
      </trkpt>
      <trkpt lat="61.57061" lon="5.71282">
        <ele>513.396961</ele>
        <time>2020-07-28T09:48:54.202Z</time>
      </trkpt>
      <trkpt lat="61.57053" lon="5.71248">
        <ele>512.178912</ele>
        <time>2020-07-28T09:48:56.202Z</time>
      </trkpt>
      <trkpt lat="61.57048" lon="5.7123">
        <ele>511.522944</ele>
        <time>2020-07-28T09:48:57.232Z</time>
      </trkpt>
      <trkpt lat="61.57044" lon="5.71213">
        <ele>510.885729</ele>
        <time>2020-07-28T09:48:58.193Z</time>
      </trkpt>
      <trkpt lat="61.57039" lon="5.71195">
        <ele>510.230817</ele>
        <time>2020-07-28T09:48:59.191Z</time>
      </trkpt>
      <trkpt lat="61.57035" lon="5.71177">
        <ele>509.594185</ele>
        <time>2020-07-28T09:49:00.250Z</time>
      </trkpt>
      <trkpt lat="61.5703" lon="5.71159">
        <ele>508.946112</ele>
        <time>2020-07-28T09:49:01.193Z</time>
      </trkpt>
      <trkpt lat="61.57026" lon="5.71141">
        <ele>508.142042</ele>
        <time>2020-07-28T09:49:02.211Z</time>
      </trkpt>
      <trkpt lat="61.57023" lon="5.71122">
        <ele>507.185705</ele>
        <time>2020-07-28T09:49:03.199Z</time>
      </trkpt>
      <trkpt lat="61.5702" lon="5.71103">
        <ele>506.24776</ele>
        <time>2020-07-28T09:49:04.232Z</time>
      </trkpt>
      <trkpt lat="61.57018" lon="5.71083">
        <ele>505.275158</ele>
        <time>2020-07-28T09:49:05.229Z</time>
      </trkpt>
      <trkpt lat="61.57016" lon="5.71063">
        <ele>504.293856</ele>
        <time>2020-07-28T09:49:06.216Z</time>
      </trkpt>
      <trkpt lat="61.57016" lon="5.71042">
        <ele>503.323875</ele>
        <time>2020-07-28T09:49:07.203Z</time>
      </trkpt>
      <trkpt lat="61.57015" lon="5.71022">
        <ele>502.354653</ele>
        <time>2020-07-28T09:49:08.202Z</time>
      </trkpt>
      <trkpt lat="61.57014" lon="5.71001">
        <ele>501.392234</ele>
        <time>2020-07-28T09:49:09.195Z</time>
      </trkpt>
      <trkpt lat="61.57013" lon="5.7098">
        <ele>500.38382</ele>
        <time>2020-07-28T09:49:10.220Z</time>
      </trkpt>
      <trkpt lat="61.57013" lon="5.7096">
        <ele>499.435116</ele>
        <time>2020-07-28T09:49:11.237Z</time>
      </trkpt>
      <trkpt lat="61.57012" lon="5.7094">
        <ele>498.514201</ele>
        <time>2020-07-28T09:49:12.194Z</time>
      </trkpt>
      <trkpt lat="61.57011" lon="5.70921">
        <ele>497.587995</ele>
        <time>2020-07-28T09:49:13.198Z</time>
      </trkpt>
      <trkpt lat="61.57011" lon="5.70901">
        <ele>496.6611</ele>
        <time>2020-07-28T09:49:14.185Z</time>
      </trkpt>
      <trkpt lat="61.5701" lon="5.70882">
        <ele>495.734893</ele>
        <time>2020-07-28T09:49:15.212Z</time>
      </trkpt>
      <trkpt lat="61.5701" lon="5.70861">
        <ele>494.757917</ele>
        <time>2020-07-28T09:49:16.270Z</time>
      </trkpt>
      <trkpt lat="61.5701" lon="5.70841">
        <ele>493.814704</ele>
        <time>2020-07-28T09:49:17.217Z</time>
      </trkpt>
      <trkpt lat="61.5701" lon="5.7082">
        <ele>492.83833</ele>
        <time>2020-07-28T09:49:18.191Z</time>
      </trkpt>
      <trkpt lat="61.5701" lon="5.70799">
        <ele>491.833815</ele>
        <time>2020-07-28T09:49:19.229Z</time>
      </trkpt>
      <trkpt lat="61.5701" lon="5.70778">
        <ele>490.835298</ele>
        <time>2020-07-28T09:49:20.203Z</time>
      </trkpt>
      <trkpt lat="61.5701" lon="5.70756">
        <ele>489.902459</ele>
        <time>2020-07-28T09:49:21.209Z</time>
      </trkpt>
      <trkpt lat="61.57012" lon="5.70734">
        <ele>488.967292</ele>
        <time>2020-07-28T09:49:22.190Z</time>
      </trkpt>
      <trkpt lat="61.57013" lon="5.70713">
        <ele>488.068514</ele>
        <time>2020-07-28T09:49:23.195Z</time>
      </trkpt>
      <trkpt lat="61.57015" lon="5.70693">
        <ele>487.185219</ele>
        <time>2020-07-28T09:49:24.209Z</time>
      </trkpt>
      <trkpt lat="61.57016" lon="5.70673">
        <ele>486.315808</ele>
        <time>2020-07-28T09:49:25.201Z</time>
      </trkpt>
      <trkpt lat="61.57018" lon="5.70653">
        <ele>485.475733</ele>
        <time>2020-07-28T09:49:26.198Z</time>
      </trkpt>
      <trkpt lat="61.5702" lon="5.70634">
        <ele>484.640904</ele>
        <time>2020-07-28T09:49:27.199Z</time>
      </trkpt>
      <trkpt lat="61.57023" lon="5.70616">
        <ele>483.823553</ele>
        <time>2020-07-28T09:49:28.211Z</time>
      </trkpt>
      <trkpt lat="61.57026" lon="5.70598">
        <ele>483.01798</ele>
        <time>2020-07-28T09:49:29.211Z</time>
      </trkpt>
      <trkpt lat="61.57035" lon="5.70566">
        <ele>481.453042</ele>
        <time>2020-07-28T09:49:31.210Z</time>
      </trkpt>
      <trkpt lat="61.57046" lon="5.70537">
        <ele>479.853791</ele>
        <time>2020-07-28T09:49:33.196Z</time>
      </trkpt>
      <trkpt lat="61.57053" lon="5.70523">
        <ele>479.005592</ele>
        <time>2020-07-28T09:49:34.223Z</time>
      </trkpt>
      <trkpt lat="61.5706" lon="5.70509">
        <ele>478.13211</ele>
        <time>2020-07-28T09:49:35.213Z</time>
      </trkpt>
      <trkpt lat="61.57067" lon="5.70494">
        <ele>477.231488</ele>
        <time>2020-07-28T09:49:36.201Z</time>
      </trkpt>
      <trkpt lat="61.57074" lon="5.70478">
        <ele>476.327773</ele>
        <time>2020-07-28T09:49:37.195Z</time>
      </trkpt>
      <trkpt lat="61.57081" lon="5.70464">
        <ele>475.447211</ele>
        <time>2020-07-28T09:49:38.215Z</time>
      </trkpt>
      <trkpt lat="61.57088" lon="5.7045">
        <ele>474.616141</ele>
        <time>2020-07-28T09:49:39.215Z</time>
      </trkpt>
      <trkpt lat="61.57095" lon="5.70437">
        <ele>473.9333</ele>
        <time>2020-07-28T09:49:40.214Z</time>
      </trkpt>
      <trkpt lat="61.57101" lon="5.70424">
        <ele>473.267246</ele>
        <time>2020-07-28T09:49:41.217Z</time>
      </trkpt>
      <trkpt lat="61.57114" lon="5.70401">
        <ele>472.016162</ele>
        <time>2020-07-28T09:49:43.209Z</time>
      </trkpt>
      <trkpt lat="61.57128" lon="5.70381">
        <ele>470.815223</ele>
        <time>2020-07-28T09:49:45.198Z</time>
      </trkpt>
      <trkpt lat="61.57143" lon="5.70366">
        <ele>469.5617</ele>
        <time>2020-07-28T09:49:47.258Z</time>
      </trkpt>
      <trkpt lat="61.57158" lon="5.70357">
        <ele>468.421453</ele>
        <time>2020-07-28T09:49:49.237Z</time>
      </trkpt>
      <trkpt lat="61.57174" lon="5.70354">
        <ele>467.208381</ele>
        <time>2020-07-28T09:49:51.211Z</time>
      </trkpt>
      <trkpt lat="61.57191" lon="5.70354">
        <ele>466.000172</ele>
        <time>2020-07-28T09:49:53.192Z</time>
      </trkpt>
      <trkpt lat="61.57207" lon="5.70362">
        <ele>464.782946</ele>
        <time>2020-07-28T09:49:55.210Z</time>
      </trkpt>
      <trkpt lat="61.57223" lon="5.70373">
        <ele>463.496327</ele>
        <time>2020-07-28T09:49:57.207Z</time>
      </trkpt>
      <trkpt lat="61.57241" lon="5.70384">
        <ele>462.181866</ele>
        <time>2020-07-28T09:49:59.214Z</time>
      </trkpt>
      <trkpt lat="61.57258" lon="5.70384">
        <ele>460.914544</ele>
        <time>2020-07-28T09:50:01.228Z</time>
      </trkpt>
      <trkpt lat="61.57267" lon="5.70379">
        <ele>460.234513</ele>
        <time>2020-07-28T09:50:02.199Z</time>
      </trkpt>
      <trkpt lat="61.57276" lon="5.70372">
        <ele>459.546364</ele>
        <time>2020-07-28T09:50:03.209Z</time>
      </trkpt>
      <trkpt lat="61.57285" lon="5.70364">
        <ele>458.824528</ele>
        <time>2020-07-28T09:50:04.224Z</time>
      </trkpt>
      <trkpt lat="61.57293" lon="5.70352">
        <ele>458.119647</ele>
        <time>2020-07-28T09:50:05.201Z</time>
      </trkpt>
      <trkpt lat="61.57299" lon="5.70337">
        <ele>457.458851</ele>
        <time>2020-07-28T09:50:06.190Z</time>
      </trkpt>
      <trkpt lat="61.57304" lon="5.70321">
        <ele>456.800827</ele>
        <time>2020-07-28T09:50:07.217Z</time>
      </trkpt>
      <trkpt lat="61.57308" lon="5.70303">
        <ele>456.129685</ele>
        <time>2020-07-28T09:50:08.187Z</time>
      </trkpt>
      <trkpt lat="61.57313" lon="5.70268">
        <ele>454.875548</ele>
        <time>2020-07-28T09:50:10.243Z</time>
      </trkpt>
      <trkpt lat="61.57315" lon="5.70233">
        <ele>453.667851</ele>
        <time>2020-07-28T09:50:12.220Z</time>
      </trkpt>
      <trkpt lat="61.57314" lon="5.70201">
        <ele>452.567144</ele>
        <time>2020-07-28T09:50:14.209Z</time>
      </trkpt>
      <trkpt lat="61.57312" lon="5.70169">
        <ele>451.467542</ele>
        <time>2020-07-28T09:50:16.203Z</time>
      </trkpt>
      <trkpt lat="61.57311" lon="5.70135">
        <ele>450.301902</ele>
        <time>2020-07-28T09:50:18.191Z</time>
      </trkpt>
      <trkpt lat="61.57311" lon="5.70116">
        <ele>449.654903</ele>
        <time>2020-07-28T09:50:19.212Z</time>
      </trkpt>
      <trkpt lat="61.57311" lon="5.70097">
        <ele>448.986786</ele>
        <time>2020-07-28T09:50:20.212Z</time>
      </trkpt>
      <trkpt lat="61.57313" lon="5.70077">
        <ele>448.271304</ele>
        <time>2020-07-28T09:50:21.208Z</time>
      </trkpt>
      <trkpt lat="61.57315" lon="5.70057">
        <ele>447.513966</ele>
        <time>2020-07-28T09:50:22.200Z</time>
      </trkpt>
      <trkpt lat="61.57317" lon="5.70039">
        <ele>446.785395</ele>
        <time>2020-07-28T09:50:23.202Z</time>
      </trkpt>
      <trkpt lat="61.57327" lon="5.70007">
        <ele>445.346157</ele>
        <time>2020-07-28T09:50:25.205Z</time>
      </trkpt>
      <trkpt lat="61.57335" lon="5.69994">
        <ele>444.577398</ele>
        <time>2020-07-28T09:50:26.203Z</time>
      </trkpt>
      <trkpt lat="61.57343" lon="5.6998">
        <ele>443.76136</ele>
        <time>2020-07-28T09:50:27.198Z</time>
      </trkpt>
      <trkpt lat="61.57351" lon="5.69967">
        <ele>442.930976</ele>
        <time>2020-07-28T09:50:28.214Z</time>
      </trkpt>
      <trkpt lat="61.5736" lon="5.69954">
        <ele>442.091673</ele>
        <time>2020-07-28T09:50:29.201Z</time>
      </trkpt>
      <trkpt lat="61.57369" lon="5.69941">
        <ele>441.250457</ele>
        <time>2020-07-28T09:50:30.216Z</time>
      </trkpt>
      <trkpt lat="61.57377" lon="5.69929">
        <ele>440.434971</ele>
        <time>2020-07-28T09:50:31.214Z</time>
      </trkpt>
      <trkpt lat="61.57385" lon="5.69918">
        <ele>439.647619</ele>
        <time>2020-07-28T09:50:32.209Z</time>
      </trkpt>
      <trkpt lat="61.57394" lon="5.69906">
        <ele>438.875545</ele>
        <time>2020-07-28T09:50:33.231Z</time>
      </trkpt>
      <trkpt lat="61.57401" lon="5.69895">
        <ele>438.123006</ele>
        <time>2020-07-28T09:50:34.210Z</time>
      </trkpt>
      <trkpt lat="61.57415" lon="5.69871">
        <ele>436.70298</ele>
        <time>2020-07-28T09:50:36.209Z</time>
      </trkpt>
      <trkpt lat="61.57428" lon="5.69847">
        <ele>435.310643</ele>
        <time>2020-07-28T09:50:38.219Z</time>
      </trkpt>
      <trkpt lat="61.57435" lon="5.69832">
        <ele>434.584304</ele>
        <time>2020-07-28T09:50:39.223Z</time>
      </trkpt>
      <trkpt lat="61.57445" lon="5.69802">
        <ele>432.800039</ele>
        <time>2020-07-28T09:50:41.192Z</time>
      </trkpt>
      <trkpt lat="61.57451" lon="5.69769">
        <ele>430.956924</ele>
        <time>2020-07-28T09:50:43.194Z</time>
      </trkpt>
      <trkpt lat="61.57455" lon="5.69733">
        <ele>429.101747</ele>
        <time>2020-07-28T09:50:45.228Z</time>
      </trkpt>
      <trkpt lat="61.57456" lon="5.69697">
        <ele>427.250689</ele>
        <time>2020-07-28T09:50:47.195Z</time>
      </trkpt>
      <trkpt lat="61.57457" lon="5.69658">
        <ele>425.31565</ele>
        <time>2020-07-28T09:50:49.212Z</time>
      </trkpt>
      <trkpt lat="61.57457" lon="5.69637">
        <ele>424.223755</ele>
        <time>2020-07-28T09:50:50.204Z</time>
      </trkpt>
      <trkpt lat="61.57456" lon="5.69615">
        <ele>423.121449</ele>
        <time>2020-07-28T09:50:51.232Z</time>
      </trkpt>
      <trkpt lat="61.57456" lon="5.69594">
        <ele>422.023856</ele>
        <time>2020-07-28T09:50:52.231Z</time>
      </trkpt>
      <trkpt lat="61.57455" lon="5.69572">
        <ele>420.944816</ele>
        <time>2020-07-28T09:50:53.198Z</time>
      </trkpt>
      <trkpt lat="61.57454" lon="5.69552">
        <ele>419.873139</ele>
        <time>2020-07-28T09:50:54.199Z</time>
      </trkpt>
      <trkpt lat="61.57453" lon="5.69532">
        <ele>418.84958</ele>
        <time>2020-07-28T09:50:55.244Z</time>
      </trkpt>
      <trkpt lat="61.57451" lon="5.69512">
        <ele>417.838915</ele>
        <time>2020-07-28T09:50:56.201Z</time>
      </trkpt>
      <trkpt lat="61.57446" lon="5.69476">
        <ele>415.931544</ele>
        <time>2020-07-28T09:50:58.221Z</time>
      </trkpt>
      <trkpt lat="61.57441" lon="5.69441">
        <ele>414.003736</ele>
        <time>2020-07-28T09:51:00.232Z</time>
      </trkpt>
      <trkpt lat="61.57437" lon="5.69408">
        <ele>412.143495</ele>
        <time>2020-07-28T09:51:02.216Z</time>
      </trkpt>
      <trkpt lat="61.57432" lon="5.69379">
        <ele>410.481157</ele>
        <time>2020-07-28T09:51:04.238Z</time>
      </trkpt>
      <trkpt lat="61.57428" lon="5.69355">
        <ele>409.060846</ele>
        <time>2020-07-28T09:51:06.203Z</time>
      </trkpt>
      <trkpt lat="61.57422" lon="5.69338">
        <ele>407.919015</ele>
        <time>2020-07-28T09:51:08.241Z</time>
      </trkpt>
      <trkpt lat="61.57414" lon="5.6933">
        <ele>406.853785</ele>
        <time>2020-07-28T09:51:10.211Z</time>
      </trkpt>
      <trkpt lat="61.57403" lon="5.69333">
        <ele>405.579908</ele>
        <time>2020-07-28T09:51:12.200Z</time>
      </trkpt>
      <trkpt lat="61.57398" lon="5.6935">
        <ele>404.521381</ele>
        <time>2020-07-28T09:51:14.229Z</time>
      </trkpt>
      <trkpt lat="61.57399" lon="5.6937">
        <ele>403.401373</ele>
        <time>2020-07-28T09:51:16.242Z</time>
      </trkpt>
      <trkpt lat="61.57402" lon="5.69388">
        <ele>402.351991</ele>
        <time>2020-07-28T09:51:18.206Z</time>
      </trkpt>
      <trkpt lat="61.57407" lon="5.69406">
        <ele>401.215816</ele>
        <time>2020-07-28T09:51:20.200Z</time>
      </trkpt>
      <trkpt lat="61.57411" lon="5.69427">
        <ele>399.985091</ele>
        <time>2020-07-28T09:51:22.235Z</time>
      </trkpt>
      <trkpt lat="61.57413" lon="5.6945">
        <ele>398.682123</ele>
        <time>2020-07-28T09:51:24.222Z</time>
      </trkpt>
      <trkpt lat="61.57413" lon="5.69477">
        <ele>397.24909</ele>
        <time>2020-07-28T09:51:26.208Z</time>
      </trkpt>
      <trkpt lat="61.57409" lon="5.69503">
        <ele>395.722287</ele>
        <time>2020-07-28T09:51:28.195Z</time>
      </trkpt>
      <trkpt lat="61.57406" lon="5.69532">
        <ele>394.270702</ele>
        <time>2020-07-28T09:51:30.223Z</time>
      </trkpt>
      <trkpt lat="61.57401" lon="5.69561">
        <ele>393.334975</ele>
        <time>2020-07-28T09:51:32.249Z</time>
      </trkpt>
      <trkpt lat="61.5739" lon="5.69584">
        <ele>392.356021</ele>
        <time>2020-07-28T09:51:34.211Z</time>
      </trkpt>
      <trkpt lat="61.57377" lon="5.69605">
        <ele>391.30739</ele>
        <time>2020-07-28T09:51:36.252Z</time>
      </trkpt>
      <trkpt lat="61.57362" lon="5.69617">
        <ele>390.246674</ele>
        <time>2020-07-28T09:51:38.200Z</time>
      </trkpt>
      <trkpt lat="61.57345" lon="5.69618">
        <ele>389.188868</ele>
        <time>2020-07-28T09:51:40.219Z</time>
      </trkpt>
      <trkpt lat="61.5733" lon="5.69614">
        <ele>388.225878</ele>
        <time>2020-07-28T09:51:42.210Z</time>
      </trkpt>
      <trkpt lat="61.57315" lon="5.69605">
        <ele>387.223643</ele>
        <time>2020-07-28T09:51:44.202Z</time>
      </trkpt>
      <trkpt lat="61.573" lon="5.69594">
        <ele>386.190387</ele>
        <time>2020-07-28T09:51:46.203Z</time>
      </trkpt>
      <trkpt lat="61.57285" lon="5.69583">
        <ele>385.171099</ele>
        <time>2020-07-28T09:51:48.251Z</time>
      </trkpt>
      <trkpt lat="61.5727" lon="5.69573">
        <ele>384.180918</ele>
        <time>2020-07-28T09:51:50.205Z</time>
      </trkpt>
      <trkpt lat="61.57257" lon="5.69563">
        <ele>383.252393</ele>
        <time>2020-07-28T09:51:52.201Z</time>
      </trkpt>
      <trkpt lat="61.57244" lon="5.6955">
        <ele>382.235205</ele>
        <time>2020-07-28T09:51:54.190Z</time>
      </trkpt>
      <trkpt lat="61.57232" lon="5.69529">
        <ele>380.995157</ele>
        <time>2020-07-28T09:51:56.211Z</time>
      </trkpt>
      <trkpt lat="61.5722" lon="5.69502">
        <ele>379.617119</ele>
        <time>2020-07-28T09:51:58.239Z</time>
      </trkpt>
      <trkpt lat="61.57209" lon="5.69474">
        <ele>378.253291</ele>
        <time>2020-07-28T09:52:00.196Z</time>
      </trkpt>
      <trkpt lat="61.57199" lon="5.69446">
        <ele>376.933913</ele>
        <time>2020-07-28T09:52:02.249Z</time>
      </trkpt>
      <trkpt lat="61.57191" lon="5.6942">
        <ele>375.761086</ele>
        <time>2020-07-28T09:52:04.196Z</time>
      </trkpt>
      <trkpt lat="61.57182" lon="5.69402">
        <ele>374.779943</ele>
        <time>2020-07-28T09:52:06.198Z</time>
      </trkpt>
      <trkpt lat="61.57172" lon="5.69389">
        <ele>373.867464</ele>
        <time>2020-07-28T09:52:08.228Z</time>
      </trkpt>
      <trkpt lat="61.57161" lon="5.69382">
        <ele>372.923636</ele>
        <time>2020-07-28T09:52:10.194Z</time>
      </trkpt>
      <trkpt lat="61.57147" lon="5.69381">
        <ele>371.889993</ele>
        <time>2020-07-28T09:52:12.194Z</time>
      </trkpt>
      <trkpt lat="61.57134" lon="5.69387">
        <ele>370.792959</ele>
        <time>2020-07-28T09:52:14.209Z</time>
      </trkpt>
      <trkpt lat="61.57121" lon="5.694">
        <ele>369.661825</ele>
        <time>2020-07-28T09:52:16.218Z</time>
      </trkpt>
      <trkpt lat="61.5711" lon="5.69422">
        <ele>368.427412</ele>
        <time>2020-07-28T09:52:18.197Z</time>
      </trkpt>
      <trkpt lat="61.57102" lon="5.6945">
        <ele>366.994337</ele>
        <time>2020-07-28T09:52:20.223Z</time>
      </trkpt>
      <trkpt lat="61.57096" lon="5.6948">
        <ele>365.57</ele>
        <time>2020-07-28T09:52:22.220Z</time>
      </trkpt>
      <trkpt lat="61.5709" lon="5.69513">
        <ele>364.106047</ele>
        <time>2020-07-28T09:52:24.192Z</time>
      </trkpt>
      <trkpt lat="61.57085" lon="5.69542">
        <ele>362.735479</ele>
        <time>2020-07-28T09:52:26.212Z</time>
      </trkpt>
      <trkpt lat="61.57079" lon="5.69572">
        <ele>361.315522</ele>
        <time>2020-07-28T09:52:28.208Z</time>
      </trkpt>
      <trkpt lat="61.57072" lon="5.69604">
        <ele>359.824907</ele>
        <time>2020-07-28T09:52:30.234Z</time>
      </trkpt>
      <trkpt lat="61.57063" lon="5.69632">
        <ele>358.377688</ele>
        <time>2020-07-28T09:52:32.191Z</time>
      </trkpt>
      <trkpt lat="61.57055" lon="5.6966">
        <ele>356.958359</ele>
        <time>2020-07-28T09:52:34.243Z</time>
      </trkpt>
      <trkpt lat="61.57046" lon="5.69682">
        <ele>355.672771</ele>
        <time>2020-07-28T09:52:36.243Z</time>
      </trkpt>
      <trkpt lat="61.57035" lon="5.69702">
        <ele>354.409437</ele>
        <time>2020-07-28T09:52:38.193Z</time>
      </trkpt>
      <trkpt lat="61.57025" lon="5.69722">
        <ele>353.140272</ele>
        <time>2020-07-28T09:52:40.203Z</time>
      </trkpt>
      <trkpt lat="61.57016" lon="5.69741">
        <ele>352.027101</ele>
        <time>2020-07-28T09:52:42.225Z</time>
      </trkpt>
      <trkpt lat="61.57006" lon="5.69758">
        <ele>351.028718</ele>
        <time>2020-07-28T09:52:44.211Z</time>
      </trkpt>
      <trkpt lat="61.56996" lon="5.69773">
        <ele>350.061295</ele>
        <time>2020-07-28T09:52:46.214Z</time>
      </trkpt>
      <trkpt lat="61.56984" lon="5.69789">
        <ele>348.930708</ele>
        <time>2020-07-28T09:52:48.192Z</time>
      </trkpt>
      <trkpt lat="61.5697" lon="5.69799">
        <ele>347.784007</ele>
        <time>2020-07-28T09:52:50.194Z</time>
      </trkpt>
      <trkpt lat="61.56956" lon="5.69808">
        <ele>346.63927</ele>
        <time>2020-07-28T09:52:52.219Z</time>
      </trkpt>
      <trkpt lat="61.56943" lon="5.69812">
        <ele>345.560553</ele>
        <time>2020-07-28T09:52:54.214Z</time>
      </trkpt>
      <trkpt lat="61.56929" lon="5.69807">
        <ele>344.502943</ele>
        <time>2020-07-28T09:52:56.209Z</time>
      </trkpt>
      <trkpt lat="61.56918" lon="5.69797">
        <ele>343.57732</ele>
        <time>2020-07-28T09:52:58.216Z</time>
      </trkpt>
      <trkpt lat="61.5691" lon="5.69781">
        <ele>342.686579</ele>
        <time>2020-07-28T09:53:00.238Z</time>
      </trkpt>
      <trkpt lat="61.56904" lon="5.69761">
        <ele>341.812398</ele>
        <time>2020-07-28T09:53:02.200Z</time>
      </trkpt>
      <trkpt lat="61.56901" lon="5.69736">
        <ele>340.830952</ele>
        <time>2020-07-28T09:53:04.235Z</time>
      </trkpt>
      <trkpt lat="61.56899" lon="5.69704">
        <ele>339.606381</ele>
        <time>2020-07-28T09:53:06.214Z</time>
      </trkpt>
      <trkpt lat="61.56897" lon="5.69668">
        <ele>338.249287</ele>
        <time>2020-07-28T09:53:08.222Z</time>
      </trkpt>
      <trkpt lat="61.56895" lon="5.69632">
        <ele>336.913565</ele>
        <time>2020-07-28T09:53:10.213Z</time>
      </trkpt>
      <trkpt lat="61.56892" lon="5.69595">
        <ele>335.53733</ele>
        <time>2020-07-28T09:53:12.215Z</time>
      </trkpt>
      <trkpt lat="61.5689" lon="5.69576">
        <ele>334.823393</ele>
        <time>2020-07-28T09:53:13.202Z</time>
      </trkpt>
      <trkpt lat="61.56889" lon="5.69557">
        <ele>334.104872</ele>
        <time>2020-07-28T09:53:14.215Z</time>
      </trkpt>
      <trkpt lat="61.56887" lon="5.69537">
        <ele>333.382705</ele>
        <time>2020-07-28T09:53:15.222Z</time>
      </trkpt>
      <trkpt lat="61.56886" lon="5.69518">
        <ele>332.67016</ele>
        <time>2020-07-28T09:53:16.234Z</time>
      </trkpt>
      <trkpt lat="61.56882" lon="5.69482">
        <ele>331.300855</ele>
        <time>2020-07-28T09:53:18.199Z</time>
      </trkpt>
      <trkpt lat="61.56878" lon="5.69446">
        <ele>329.926711</ele>
        <time>2020-07-28T09:53:20.211Z</time>
      </trkpt>
      <trkpt lat="61.56875" lon="5.69412">
        <ele>328.661054</ele>
        <time>2020-07-28T09:53:22.223Z</time>
      </trkpt>
      <trkpt lat="61.56874" lon="5.6938">
        <ele>327.455225</ele>
        <time>2020-07-28T09:53:24.204Z</time>
      </trkpt>
      <trkpt lat="61.56873" lon="5.69348">
        <ele>326.30136</ele>
        <time>2020-07-28T09:53:26.222Z</time>
      </trkpt>
      <trkpt lat="61.56872" lon="5.69319">
        <ele>325.217553</ele>
        <time>2020-07-28T09:53:28.229Z</time>
      </trkpt>
      <trkpt lat="61.56872" lon="5.69293">
        <ele>324.231202</ele>
        <time>2020-07-28T09:53:30.188Z</time>
      </trkpt>
      <trkpt lat="61.56874" lon="5.69262">
        <ele>322.985276</ele>
        <time>2020-07-28T09:53:32.230Z</time>
      </trkpt>
      <trkpt lat="61.56875" lon="5.69243">
        <ele>322.231059</ele>
        <time>2020-07-28T09:53:33.213Z</time>
      </trkpt>
      <trkpt lat="61.56877" lon="5.69222">
        <ele>321.404927</ele>
        <time>2020-07-28T09:53:34.228Z</time>
      </trkpt>
      <trkpt lat="61.56879" lon="5.69202">
        <ele>320.582707</ele>
        <time>2020-07-28T09:53:35.222Z</time>
      </trkpt>
      <trkpt lat="61.56881" lon="5.69181">
        <ele>319.741858</ele>
        <time>2020-07-28T09:53:36.201Z</time>
      </trkpt>
      <trkpt lat="61.56883" lon="5.6916">
        <ele>318.893824</ele>
        <time>2020-07-28T09:53:37.201Z</time>
      </trkpt>
      <trkpt lat="61.56885" lon="5.69139">
        <ele>318.04219</ele>
        <time>2020-07-28T09:53:38.211Z</time>
      </trkpt>
      <trkpt lat="61.56888" lon="5.69118">
        <ele>317.165356</ele>
        <time>2020-07-28T09:53:39.214Z</time>
      </trkpt>
      <trkpt lat="61.5689" lon="5.69097">
        <ele>316.302111</ele>
        <time>2020-07-28T09:53:40.226Z</time>
      </trkpt>
      <trkpt lat="61.56892" lon="5.69076">
        <ele>315.447976</ele>
        <time>2020-07-28T09:53:41.200Z</time>
      </trkpt>
      <trkpt lat="61.56894" lon="5.69055">
        <ele>314.623238</ele>
        <time>2020-07-28T09:53:42.212Z</time>
      </trkpt>
      <trkpt lat="61.56895" lon="5.69035">
        <ele>313.816661</ele>
        <time>2020-07-28T09:53:43.228Z</time>
      </trkpt>
      <trkpt lat="61.56897" lon="5.69016">
        <ele>313.0389</ele>
        <time>2020-07-28T09:53:44.212Z</time>
      </trkpt>
      <trkpt lat="61.569" lon="5.68982">
        <ele>311.654365</ele>
        <time>2020-07-28T09:53:46.212Z</time>
      </trkpt>
      <trkpt lat="61.56903" lon="5.6895">
        <ele>310.37563</ele>
        <time>2020-07-28T09:53:48.200Z</time>
      </trkpt>
      <trkpt lat="61.56907" lon="5.68922">
        <ele>309.228694</ele>
        <time>2020-07-28T09:53:50.194Z</time>
      </trkpt>
      <trkpt lat="61.5691" lon="5.68895">
        <ele>308.243566</ele>
        <time>2020-07-28T09:53:52.220Z</time>
      </trkpt>
      <trkpt lat="61.56914" lon="5.6887">
        <ele>307.318266</ele>
        <time>2020-07-28T09:53:54.198Z</time>
      </trkpt>
      <trkpt lat="61.56917" lon="5.68842">
        <ele>306.28343</ele>
        <time>2020-07-28T09:53:56.196Z</time>
      </trkpt>
      <trkpt lat="61.56922" lon="5.68809">
        <ele>305.086803</ele>
        <time>2020-07-28T09:53:58.214Z</time>
      </trkpt>
      <trkpt lat="61.56927" lon="5.68777">
        <ele>303.870015</ele>
        <time>2020-07-28T09:54:00.191Z</time>
      </trkpt>
      <trkpt lat="61.56933" lon="5.68747">
        <ele>302.716214</ele>
        <time>2020-07-28T09:54:02.189Z</time>
      </trkpt>
      <trkpt lat="61.56937" lon="5.68716">
        <ele>301.556399</ele>
        <time>2020-07-28T09:54:04.189Z</time>
      </trkpt>
      <trkpt lat="61.56943" lon="5.68688">
        <ele>300.506841</ele>
        <time>2020-07-28T09:54:06.190Z</time>
      </trkpt>
      <trkpt lat="61.56948" lon="5.6866">
        <ele>299.413537</ele>
        <time>2020-07-28T09:54:08.247Z</time>
      </trkpt>
      <trkpt lat="61.56954" lon="5.68631">
        <ele>298.316291</ele>
        <time>2020-07-28T09:54:10.211Z</time>
      </trkpt>
      <trkpt lat="61.56957" lon="5.68599">
        <ele>297.119001</ele>
        <time>2020-07-28T09:54:12.199Z</time>
      </trkpt>
      <trkpt lat="61.56958" lon="5.68564">
        <ele>295.89926</ele>
        <time>2020-07-28T09:54:14.193Z</time>
      </trkpt>
      <trkpt lat="61.56955" lon="5.68528">
        <ele>294.64657</ele>
        <time>2020-07-28T09:54:16.223Z</time>
      </trkpt>
      <trkpt lat="61.56952" lon="5.68491">
        <ele>293.356735</ele>
        <time>2020-07-28T09:54:18.190Z</time>
      </trkpt>
      <trkpt lat="61.56948" lon="5.68456">
        <ele>292.082787</ele>
        <time>2020-07-28T09:54:20.206Z</time>
      </trkpt>
      <trkpt lat="61.56946" lon="5.68436">
        <ele>291.402246</ele>
        <time>2020-07-28T09:54:21.198Z</time>
      </trkpt>
      <trkpt lat="61.56943" lon="5.68417">
        <ele>290.701084</ele>
        <time>2020-07-28T09:54:22.216Z</time>
      </trkpt>
      <trkpt lat="61.5694" lon="5.68397">
        <ele>289.97806</ele>
        <time>2020-07-28T09:54:23.233Z</time>
      </trkpt>
      <trkpt lat="61.56938" lon="5.68376">
        <ele>289.262319</ele>
        <time>2020-07-28T09:54:24.201Z</time>
      </trkpt>
      <trkpt lat="61.56936" lon="5.68355">
        <ele>288.514593</ele>
        <time>2020-07-28T09:54:25.198Z</time>
      </trkpt>
      <trkpt lat="61.56933" lon="5.68333">
        <ele>287.740162</ele>
        <time>2020-07-28T09:54:26.194Z</time>
      </trkpt>
      <trkpt lat="61.56931" lon="5.68311">
        <ele>286.938928</ele>
        <time>2020-07-28T09:54:27.213Z</time>
      </trkpt>
      <trkpt lat="61.56928" lon="5.68288">
        <ele>286.124143</ele>
        <time>2020-07-28T09:54:28.234Z</time>
      </trkpt>
      <trkpt lat="61.56926" lon="5.68264">
        <ele>285.290973</ele>
        <time>2020-07-28T09:54:29.192Z</time>
      </trkpt>
      <trkpt lat="61.56923" lon="5.6824">
        <ele>284.434422</ele>
        <time>2020-07-28T09:54:30.225Z</time>
      </trkpt>
      <trkpt lat="61.5692" lon="5.68215">
        <ele>283.54769</ele>
        <time>2020-07-28T09:54:31.214Z</time>
      </trkpt>
      <trkpt lat="61.56918" lon="5.68189">
        <ele>282.607824</ele>
        <time>2020-07-28T09:54:32.244Z</time>
      </trkpt>
      <trkpt lat="61.56915" lon="5.68164">
        <ele>281.575022</ele>
        <time>2020-07-28T09:54:33.221Z</time>
      </trkpt>
      <trkpt lat="61.56912" lon="5.68138">
        <ele>280.519061</ele>
        <time>2020-07-28T09:54:34.223Z</time>
      </trkpt>
      <trkpt lat="61.56909" lon="5.68112">
        <ele>279.458897</ele>
        <time>2020-07-28T09:54:35.214Z</time>
      </trkpt>
      <trkpt lat="61.56905" lon="5.68086">
        <ele>278.390467</ele>
        <time>2020-07-28T09:54:36.232Z</time>
      </trkpt>
      <trkpt lat="61.56901" lon="5.68061">
        <ele>277.327164</ele>
        <time>2020-07-28T09:54:37.203Z</time>
      </trkpt>
      <trkpt lat="61.56896" lon="5.68036">
        <ele>276.247406</ele>
        <time>2020-07-28T09:54:38.223Z</time>
      </trkpt>
      <trkpt lat="61.5689" lon="5.68013">
        <ele>275.208226</ele>
        <time>2020-07-28T09:54:39.218Z</time>
      </trkpt>
      <trkpt lat="61.56885" lon="5.67991">
        <ele>274.227557</ele>
        <time>2020-07-28T09:54:40.191Z</time>
      </trkpt>
      <trkpt lat="61.56879" lon="5.67972">
        <ele>273.315102</ele>
        <time>2020-07-28T09:54:41.192Z</time>
      </trkpt>
      <trkpt lat="61.56873" lon="5.67953">
        <ele>272.415519</ele>
        <time>2020-07-28T09:54:42.192Z</time>
      </trkpt>
      <trkpt lat="61.56866" lon="5.67937">
        <ele>271.577058</ele>
        <time>2020-07-28T09:54:43.203Z</time>
      </trkpt>
      <trkpt lat="61.5686" lon="5.67922">
        <ele>270.800669</ele>
        <time>2020-07-28T09:54:44.209Z</time>
      </trkpt>
      <trkpt lat="61.56848" lon="5.67895">
        <ele>269.323371</ele>
        <time>2020-07-28T09:54:46.215Z</time>
      </trkpt>
      <trkpt lat="61.56836" lon="5.6787">
        <ele>267.94873</ele>
        <time>2020-07-28T09:54:48.255Z</time>
      </trkpt>
      <trkpt lat="61.56825" lon="5.67847">
        <ele>267.312153</ele>
        <time>2020-07-28T09:54:50.202Z</time>
      </trkpt>
      <trkpt lat="61.56814" lon="5.67824">
        <ele>266.684309</ele>
        <time>2020-07-28T09:54:52.197Z</time>
      </trkpt>
      <trkpt lat="61.56803" lon="5.67798">
        <ele>266.026933</ele>
        <time>2020-07-28T09:54:54.195Z</time>
      </trkpt>
      <trkpt lat="61.56794" lon="5.67773">
        <ele>265.411621</ele>
        <time>2020-07-28T09:54:56.210Z</time>
      </trkpt>
      <trkpt lat="61.56787" lon="5.67746">
        <ele>264.816727</ele>
        <time>2020-07-28T09:54:58.221Z</time>
      </trkpt>
      <trkpt lat="61.56781" lon="5.67717">
        <ele>264.211793</ele>
        <time>2020-07-28T09:55:00.252Z</time>
      </trkpt>
      <trkpt lat="61.56777" lon="5.67687">
        <ele>263.608156</ele>
        <time>2020-07-28T09:55:02.191Z</time>
      </trkpt>
      <trkpt lat="61.56773" lon="5.67655">
        <ele>262.965737</ele>
        <time>2020-07-28T09:55:04.224Z</time>
      </trkpt>
      <trkpt lat="61.5677" lon="5.67621">
        <ele>262.302743</ele>
        <time>2020-07-28T09:55:06.194Z</time>
      </trkpt>
      <trkpt lat="61.56768" lon="5.67587">
        <ele>261.62819</ele>
        <time>2020-07-28T09:55:08.220Z</time>
      </trkpt>
      <trkpt lat="61.56764" lon="5.67551">
        <ele>260.93028</ele>
        <time>2020-07-28T09:55:10.196Z</time>
      </trkpt>
      <trkpt lat="61.56759" lon="5.67519">
        <ele>260.224476</ele>
        <time>2020-07-28T09:55:12.199Z</time>
      </trkpt>
      <trkpt lat="61.56751" lon="5.67489">
        <ele>259.49731</ele>
        <time>2020-07-28T09:55:14.213Z</time>
      </trkpt>
      <trkpt lat="61.56744" lon="5.67457">
        <ele>258.749848</ele>
        <time>2020-07-28T09:55:16.203Z</time>
      </trkpt>
      <trkpt lat="61.56736" lon="5.67424">
        <ele>257.96918</ele>
        <time>2020-07-28T09:55:18.207Z</time>
      </trkpt>
      <trkpt lat="61.56727" lon="5.67391">
        <ele>257.170717</ele>
        <time>2020-07-28T09:55:20.223Z</time>
      </trkpt>
      <trkpt lat="61.56723" lon="5.67375">
        <ele>256.754204</ele>
        <time>2020-07-28T09:55:21.235Z</time>
      </trkpt>
      <trkpt lat="61.56718" lon="5.67357">
        <ele>256.310714</ele>
        <time>2020-07-28T09:55:22.209Z</time>
      </trkpt>
      <trkpt lat="61.56714" lon="5.67339">
        <ele>255.891821</ele>
        <time>2020-07-28T09:55:23.221Z</time>
      </trkpt>
      <trkpt lat="61.5671" lon="5.67321">
        <ele>255.471012</ele>
        <time>2020-07-28T09:55:24.220Z</time>
      </trkpt>
      <trkpt lat="61.56706" lon="5.67304">
        <ele>255.068774</ele>
        <time>2020-07-28T09:55:25.211Z</time>
      </trkpt>
      <trkpt lat="61.56703" lon="5.67286">
        <ele>254.653284</ele>
        <time>2020-07-28T09:55:26.217Z</time>
      </trkpt>
      <trkpt lat="61.56699" lon="5.67267">
        <ele>254.2266</ele>
        <time>2020-07-28T09:55:27.203Z</time>
      </trkpt>
      <trkpt lat="61.56695" lon="5.67248">
        <ele>253.796628</ele>
        <time>2020-07-28T09:55:28.208Z</time>
      </trkpt>
      <trkpt lat="61.56691" lon="5.67229">
        <ele>253.358054</ele>
        <time>2020-07-28T09:55:29.214Z</time>
      </trkpt>
      <trkpt lat="61.56688" lon="5.67211">
        <ele>252.921635</ele>
        <time>2020-07-28T09:55:30.204Z</time>
      </trkpt>
      <trkpt lat="61.56684" lon="5.67193">
        <ele>252.476882</ele>
        <time>2020-07-28T09:55:31.222Z</time>
      </trkpt>
      <trkpt lat="61.56681" lon="5.67175">
        <ele>251.968178</ele>
        <time>2020-07-28T09:55:32.203Z</time>
      </trkpt>
      <trkpt lat="61.56674" lon="5.6714">
        <ele>250.961424</ele>
        <time>2020-07-28T09:55:34.188Z</time>
      </trkpt>
      <trkpt lat="61.56668" lon="5.67106">
        <ele>249.99398</ele>
        <time>2020-07-28T09:55:36.236Z</time>
      </trkpt>
      <trkpt lat="61.56662" lon="5.67071">
        <ele>248.999176</ele>
        <time>2020-07-28T09:55:38.224Z</time>
      </trkpt>
      <trkpt lat="61.56658" lon="5.67052">
        <ele>248.46513</ele>
        <time>2020-07-28T09:55:39.243Z</time>
      </trkpt>
      <trkpt lat="61.56655" lon="5.67034">
        <ele>247.95107</ele>
        <time>2020-07-28T09:55:40.199Z</time>
      </trkpt>
      <trkpt lat="61.56653" lon="5.67015">
        <ele>247.42003</ele>
        <time>2020-07-28T09:55:41.209Z</time>
      </trkpt>
      <trkpt lat="61.5665" lon="5.66995">
        <ele>246.864399</ele>
        <time>2020-07-28T09:55:42.223Z</time>
      </trkpt>
      <trkpt lat="61.56647" lon="5.66974">
        <ele>246.28619</ele>
        <time>2020-07-28T09:55:43.220Z</time>
      </trkpt>
      <trkpt lat="61.56645" lon="5.66953">
        <ele>245.71445</ele>
        <time>2020-07-28T09:55:44.192Z</time>
      </trkpt>
      <trkpt lat="61.56643" lon="5.66931">
        <ele>245.120405</ele>
        <time>2020-07-28T09:55:45.198Z</time>
      </trkpt>
      <trkpt lat="61.56642" lon="5.66909">
        <ele>244.533315</ele>
        <time>2020-07-28T09:55:46.229Z</time>
      </trkpt>
      <trkpt lat="61.5664" lon="5.66887">
        <ele>243.928493</ele>
        <time>2020-07-28T09:55:47.231Z</time>
      </trkpt>
      <trkpt lat="61.56638" lon="5.66865">
        <ele>243.344611</ele>
        <time>2020-07-28T09:55:48.204Z</time>
      </trkpt>
      <trkpt lat="61.56636" lon="5.66844">
        <ele>242.777769</ele>
        <time>2020-07-28T09:55:49.197Z</time>
      </trkpt>
      <trkpt lat="61.56635" lon="5.66824">
        <ele>242.282182</ele>
        <time>2020-07-28T09:55:50.253Z</time>
      </trkpt>
      <trkpt lat="61.56633" lon="5.66805">
        <ele>241.835605</ele>
        <time>2020-07-28T09:55:51.202Z</time>
      </trkpt>
      <trkpt lat="61.56631" lon="5.66769">
        <ele>241.018272</ele>
        <time>2020-07-28T09:55:53.194Z</time>
      </trkpt>
      <trkpt lat="61.5663" lon="5.66738">
        <ele>240.309615</ele>
        <time>2020-07-28T09:55:55.202Z</time>
      </trkpt>
      <trkpt lat="61.5663" lon="5.66709">
        <ele>239.642007</ele>
        <time>2020-07-28T09:55:57.199Z</time>
      </trkpt>
      <trkpt lat="61.56633" lon="5.66682">
        <ele>239.002427</ele>
        <time>2020-07-28T09:55:59.192Z</time>
      </trkpt>
      <trkpt lat="61.56636" lon="5.66654">
        <ele>238.34417</ele>
        <time>2020-07-28T09:56:01.212Z</time>
      </trkpt>
      <trkpt lat="61.56641" lon="5.66625">
        <ele>237.6537</ele>
        <time>2020-07-28T09:56:03.237Z</time>
      </trkpt>
      <trkpt lat="61.56646" lon="5.66596">
        <ele>236.936811</ele>
        <time>2020-07-28T09:56:05.209Z</time>
      </trkpt>
      <trkpt lat="61.56651" lon="5.66569">
        <ele>236.263438</ele>
        <time>2020-07-28T09:56:07.242Z</time>
      </trkpt>
      <trkpt lat="61.56657" lon="5.66541">
        <ele>235.563171</ele>
        <time>2020-07-28T09:56:09.234Z</time>
      </trkpt>
      <trkpt lat="61.56664" lon="5.66508">
        <ele>234.751986</ele>
        <time>2020-07-28T09:56:11.201Z</time>
      </trkpt>
      <trkpt lat="61.56672" lon="5.66482">
        <ele>234.039861</ele>
        <time>2020-07-28T09:56:13.217Z</time>
      </trkpt>
      <trkpt lat="61.56683" lon="5.66457">
        <ele>233.582921</ele>
        <time>2020-07-28T09:56:15.215Z</time>
      </trkpt>
      <trkpt lat="61.56695" lon="5.66432">
        <ele>233.175891</ele>
        <time>2020-07-28T09:56:17.203Z</time>
      </trkpt>
      <trkpt lat="61.56705" lon="5.66402">
        <ele>232.745297</ele>
        <time>2020-07-28T09:56:19.199Z</time>
      </trkpt>
      <trkpt lat="61.56709" lon="5.66385">
        <ele>232.517421</ele>
        <time>2020-07-28T09:56:20.189Z</time>
      </trkpt>
      <trkpt lat="61.56719" lon="5.66353">
        <ele>232.076871</ele>
        <time>2020-07-28T09:56:22.219Z</time>
      </trkpt>
      <trkpt lat="61.56722" lon="5.66336">
        <ele>231.855849</ele>
        <time>2020-07-28T09:56:23.202Z</time>
      </trkpt>
      <trkpt lat="61.56728" lon="5.66303">
        <ele>231.441128</ele>
        <time>2020-07-28T09:56:25.207Z</time>
      </trkpt>
      <trkpt lat="61.56732" lon="5.66269">
        <ele>231.029247</ele>
        <time>2020-07-28T09:56:27.196Z</time>
      </trkpt>
      <trkpt lat="61.56735" lon="5.66234">
        <ele>230.616154</ele>
        <time>2020-07-28T09:56:29.202Z</time>
      </trkpt>
      <trkpt lat="61.56737" lon="5.66203">
        <ele>230.247473</ele>
        <time>2020-07-28T09:56:31.216Z</time>
      </trkpt>
      <trkpt lat="61.56736" lon="5.66174">
        <ele>229.902521</ele>
        <time>2020-07-28T09:56:33.223Z</time>
      </trkpt>
      <trkpt lat="61.56734" lon="5.66149">
        <ele>229.610239</ele>
        <time>2020-07-28T09:56:35.198Z</time>
      </trkpt>
      <trkpt lat="61.56732" lon="5.66129">
        <ele>229.541562</ele>
        <time>2020-07-28T09:56:37.198Z</time>
      </trkpt>
      <trkpt lat="61.56729" lon="5.66104">
        <ele>229.674925</ele>
        <time>2020-07-28T09:56:40.211Z</time>
      </trkpt>
      <trkpt lat="61.56727" lon="5.66084">
        <ele>229.780195</ele>
        <time>2020-07-28T09:56:43.216Z</time>
      </trkpt>
      <trkpt lat="61.56724" lon="5.66057">
        <ele>229.919598</ele>
        <time>2020-07-28T09:56:46.211Z</time>
      </trkpt>
      <trkpt lat="61.56722" lon="5.66037">
        <ele>230.029365</ele>
        <time>2020-07-28T09:56:49.211Z</time>
      </trkpt>
      <trkpt lat="61.56718" lon="5.66014">
        <ele>230.151661</ele>
        <time>2020-07-28T09:56:53.213Z</time>
      </trkpt>
      <trkpt lat="61.56715" lon="5.65994">
        <ele>230.260263</ele>
        <time>2020-07-28T09:56:56.210Z</time>
      </trkpt>
      <trkpt lat="61.56713" lon="5.65972">
        <ele>230.37705</ele>
        <time>2020-07-28T09:56:59.215Z</time>
      </trkpt>
      <trkpt lat="61.5671" lon="5.65952">
        <ele>230.485504</ele>
        <time>2020-07-28T09:57:02.198Z</time>
      </trkpt>
      <trkpt lat="61.56707" lon="5.65933">
        <ele>230.589371</ele>
        <time>2020-07-28T09:57:05.203Z</time>
      </trkpt>
      <trkpt lat="61.56705" lon="5.65913">
        <ele>230.694387</ele>
        <time>2020-07-28T09:57:08.202Z</time>
      </trkpt>
      <trkpt lat="61.56704" lon="5.65893">
        <ele>230.800299</ele>
        <time>2020-07-28T09:57:11.189Z</time>
      </trkpt>
      <trkpt lat="61.56704" lon="5.65871">
        <ele>230.911397</ele>
        <time>2020-07-28T09:57:14.199Z</time>
      </trkpt>
      <trkpt lat="61.56705" lon="5.65849">
        <ele>231.028171</ele>
        <time>2020-07-28T09:57:17.203Z</time>
      </trkpt>
      <trkpt lat="61.56706" lon="5.65826">
        <ele>231.144782</ele>
        <time>2020-07-28T09:57:20.208Z</time>
      </trkpt>
      <trkpt lat="61.56706" lon="5.65802">
        <ele>231.269391</ele>
        <time>2020-07-28T09:57:23.210Z</time>
      </trkpt>
      <trkpt lat="61.56707" lon="5.65776">
        <ele>231.40797</ele>
        <time>2020-07-28T09:57:26.191Z</time>
      </trkpt>
      <trkpt lat="61.56709" lon="5.65756">
        <ele>231.241064</ele>
        <time>2020-07-28T09:57:28.215Z</time>
      </trkpt>
      <trkpt lat="61.56713" lon="5.65735">
        <ele>230.927792</ele>
        <time>2020-07-28T09:57:30.203Z</time>
      </trkpt>
      <trkpt lat="61.56716" lon="5.6571">
        <ele>230.571933</ele>
        <time>2020-07-28T09:57:32.193Z</time>
      </trkpt>
      <trkpt lat="61.5672" lon="5.65683">
        <ele>230.185129</ele>
        <time>2020-07-28T09:57:34.214Z</time>
      </trkpt>
      <trkpt lat="61.56727" lon="5.65654">
        <ele>229.728688</ele>
        <time>2020-07-28T09:57:36.198Z</time>
      </trkpt>
      <trkpt lat="61.56735" lon="5.65622">
        <ele>229.232974</ele>
        <time>2020-07-28T09:57:38.204Z</time>
      </trkpt>
      <trkpt lat="61.5674" lon="5.65605">
        <ele>228.963473</ele>
        <time>2020-07-28T09:57:39.193Z</time>
      </trkpt>
      <trkpt lat="61.56744" lon="5.65586">
        <ele>228.675502</ele>
        <time>2020-07-28T09:57:40.211Z</time>
      </trkpt>
      <trkpt lat="61.56749" lon="5.65568">
        <ele>228.390743</ele>
        <time>2020-07-28T09:57:41.219Z</time>
      </trkpt>
      <trkpt lat="61.56754" lon="5.6555">
        <ele>228.101154</ele>
        <time>2020-07-28T09:57:42.208Z</time>
      </trkpt>
      <trkpt lat="61.56759" lon="5.65531">
        <ele>227.806848</ele>
        <time>2020-07-28T09:57:43.199Z</time>
      </trkpt>
      <trkpt lat="61.56764" lon="5.65512">
        <ele>227.505796</ele>
        <time>2020-07-28T09:57:44.222Z</time>
      </trkpt>
      <trkpt lat="61.56769" lon="5.65492">
        <ele>227.192278</ele>
        <time>2020-07-28T09:57:45.203Z</time>
      </trkpt>
      <trkpt lat="61.56774" lon="5.65471">
        <ele>226.86197</ele>
        <time>2020-07-28T09:57:46.199Z</time>
      </trkpt>
      <trkpt lat="61.56779" lon="5.65449">
        <ele>226.529191</ele>
        <time>2020-07-28T09:57:47.223Z</time>
      </trkpt>
      <trkpt lat="61.56785" lon="5.65428">
        <ele>226.14501</ele>
        <time>2020-07-28T09:57:48.204Z</time>
      </trkpt>
      <trkpt lat="61.5679" lon="5.65405">
        <ele>225.362111</ele>
        <time>2020-07-28T09:57:49.199Z</time>
      </trkpt>
      <trkpt lat="61.56796" lon="5.65383">
        <ele>224.556474</ele>
        <time>2020-07-28T09:57:50.215Z</time>
      </trkpt>
      <trkpt lat="61.56802" lon="5.65359">
        <ele>223.737279</ele>
        <time>2020-07-28T09:57:51.231Z</time>
      </trkpt>
      <trkpt lat="61.56807" lon="5.65335">
        <ele>222.901517</ele>
        <time>2020-07-28T09:57:52.192Z</time>
      </trkpt>
      <trkpt lat="61.56813" lon="5.65311">
        <ele>222.060112</ele>
        <time>2020-07-28T09:57:53.198Z</time>
      </trkpt>
      <trkpt lat="61.56819" lon="5.65286">
        <ele>221.201747</ele>
        <time>2020-07-28T09:57:54.195Z</time>
      </trkpt>
      <trkpt lat="61.56824" lon="5.65261">
        <ele>220.340233</ele>
        <time>2020-07-28T09:57:55.242Z</time>
      </trkpt>
      <trkpt lat="61.56829" lon="5.65236">
        <ele>219.486492</ele>
        <time>2020-07-28T09:57:56.197Z</time>
      </trkpt>
      <trkpt lat="61.56834" lon="5.65211">
        <ele>218.643934</ele>
        <time>2020-07-28T09:57:57.201Z</time>
      </trkpt>
      <trkpt lat="61.56838" lon="5.65187">
        <ele>217.825083</ele>
        <time>2020-07-28T09:57:58.259Z</time>
      </trkpt>
      <trkpt lat="61.56842" lon="5.65163">
        <ele>217.041702</ele>
        <time>2020-07-28T09:57:59.201Z</time>
      </trkpt>
      <trkpt lat="61.56846" lon="5.6514">
        <ele>216.30052</ele>
        <time>2020-07-28T09:58:00.212Z</time>
      </trkpt>
      <trkpt lat="61.56849" lon="5.65118">
        <ele>215.56828</ele>
        <time>2020-07-28T09:58:01.214Z</time>
      </trkpt>
      <trkpt lat="61.56852" lon="5.65097">
        <ele>214.863854</ele>
        <time>2020-07-28T09:58:02.196Z</time>
      </trkpt>
      <trkpt lat="61.56855" lon="5.65074">
        <ele>214.21495</ele>
        <time>2020-07-28T09:58:03.207Z</time>
      </trkpt>
      <trkpt lat="61.56857" lon="5.65053">
        <ele>213.704766</ele>
        <time>2020-07-28T09:58:04.235Z</time>
      </trkpt>
      <trkpt lat="61.56859" lon="5.65032">
        <ele>213.215109</ele>
        <time>2020-07-28T09:58:05.204Z</time>
      </trkpt>
      <trkpt lat="61.56861" lon="5.65012">
        <ele>212.743787</ele>
        <time>2020-07-28T09:58:06.197Z</time>
      </trkpt>
      <trkpt lat="61.56861" lon="5.64992">
        <ele>212.275372</ele>
        <time>2020-07-28T09:58:07.219Z</time>
      </trkpt>
      <trkpt lat="61.56862" lon="5.64972">
        <ele>211.816197</ele>
        <time>2020-07-28T09:58:08.208Z</time>
      </trkpt>
      <trkpt lat="61.56863" lon="5.64952">
        <ele>211.354069</ele>
        <time>2020-07-28T09:58:09.232Z</time>
      </trkpt>
      <trkpt lat="61.56863" lon="5.64932">
        <ele>210.876087</ele>
        <time>2020-07-28T09:58:10.191Z</time>
      </trkpt>
      <trkpt lat="61.56863" lon="5.64911">
        <ele>210.388629</ele>
        <time>2020-07-28T09:58:11.210Z</time>
      </trkpt>
      <trkpt lat="61.56862" lon="5.64891">
        <ele>209.916021</ele>
        <time>2020-07-28T09:58:12.194Z</time>
      </trkpt>
      <trkpt lat="61.56861" lon="5.64871">
        <ele>209.457521</ele>
        <time>2020-07-28T09:58:13.207Z</time>
      </trkpt>
      <trkpt lat="61.56859" lon="5.64852">
        <ele>209.002987</ele>
        <time>2020-07-28T09:58:14.198Z</time>
      </trkpt>
      <trkpt lat="61.56857" lon="5.64833">
        <ele>208.557594</ele>
        <time>2020-07-28T09:58:15.199Z</time>
      </trkpt>
      <trkpt lat="61.56856" lon="5.64813">
        <ele>208.10306</ele>
        <time>2020-07-28T09:58:16.198Z</time>
      </trkpt>
      <trkpt lat="61.56854" lon="5.64795">
        <ele>207.660782</ele>
        <time>2020-07-28T09:58:17.196Z</time>
      </trkpt>
      <trkpt lat="61.56852" lon="5.64776">
        <ele>207.214867</ele>
        <time>2020-07-28T09:58:18.196Z</time>
      </trkpt>
      <trkpt lat="61.56849" lon="5.6474">
        <ele>206.364893</ele>
        <time>2020-07-28T09:58:20.233Z</time>
      </trkpt>
      <trkpt lat="61.56845" lon="5.64706">
        <ele>205.627589</ele>
        <time>2020-07-28T09:58:22.193Z</time>
      </trkpt>
      <trkpt lat="61.5684" lon="5.64671">
        <ele>205.474135</ele>
        <time>2020-07-28T09:58:24.202Z</time>
      </trkpt>
      <trkpt lat="61.56836" lon="5.64637">
        <ele>205.320268</ele>
        <time>2020-07-28T09:58:26.240Z</time>
      </trkpt>
      <trkpt lat="61.56831" lon="5.64603">
        <ele>205.166402</ele>
        <time>2020-07-28T09:58:28.216Z</time>
      </trkpt>
      <trkpt lat="61.56825" lon="5.6457">
        <ele>205.019775</ele>
        <time>2020-07-28T09:58:30.203Z</time>
      </trkpt>
      <trkpt lat="61.5682" lon="5.64538">
        <ele>204.873896</ele>
        <time>2020-07-28T09:58:32.199Z</time>
      </trkpt>
      <trkpt lat="61.56814" lon="5.64507">
        <ele>204.72918</ele>
        <time>2020-07-28T09:58:34.235Z</time>
      </trkpt>
      <trkpt lat="61.56809" lon="5.64477">
        <ele>204.594381</ele>
        <time>2020-07-28T09:58:36.233Z</time>
      </trkpt>
      <trkpt lat="61.56805" lon="5.6445">
        <ele>204.471574</ele>
        <time>2020-07-28T09:58:38.252Z</time>
      </trkpt>
      <trkpt lat="61.568" lon="5.64423">
        <ele>204.346484</ele>
        <time>2020-07-28T09:58:40.214Z</time>
      </trkpt>
      <trkpt lat="61.56795" lon="5.64397">
        <ele>204.226915</ele>
        <time>2020-07-28T09:58:42.198Z</time>
      </trkpt>
      <trkpt lat="61.56791" lon="5.64373">
        <ele>204.11917</ele>
        <time>2020-07-28T09:58:44.234Z</time>
      </trkpt>
      <trkpt lat="61.56788" lon="5.64351">
        <ele>204.044047</ele>
        <time>2020-07-28T09:58:46.236Z</time>
      </trkpt>
      <trkpt lat="61.56784" lon="5.6433">
        <ele>204.319387</ele>
        <time>2020-07-28T09:58:48.211Z</time>
      </trkpt>
      <trkpt lat="61.56781" lon="5.64311">
        <ele>204.580131</ele>
        <time>2020-07-28T09:58:50.204Z</time>
      </trkpt>
      <trkpt lat="61.56779" lon="5.64292">
        <ele>204.821646</ele>
        <time>2020-07-28T09:58:52.209Z</time>
      </trkpt>
      <trkpt lat="61.56775" lon="5.64269">
        <ele>205.134695</ele>
        <time>2020-07-28T09:58:55.213Z</time>
      </trkpt>
      <trkpt lat="61.56771" lon="5.64249">
        <ele>205.418656</ele>
        <time>2020-07-28T09:58:58.248Z</time>
      </trkpt>
      <trkpt lat="61.56768" lon="5.64227">
        <ele>205.704497</ele>
        <time>2020-07-28T09:59:01.227Z</time>
      </trkpt>
      <trkpt lat="61.56764" lon="5.64207">
        <ele>205.975361</ele>
        <time>2020-07-28T09:59:04.237Z</time>
      </trkpt>
      <trkpt lat="61.5676" lon="5.64187">
        <ele>206.258156</ele>
        <time>2020-07-28T09:59:07.221Z</time>
      </trkpt>
      <trkpt lat="61.56758" lon="5.64166">
        <ele>206.53441</ele>
        <time>2020-07-28T09:59:10.215Z</time>
      </trkpt>
      <trkpt lat="61.56755" lon="5.64146">
        <ele>206.792735</ele>
        <time>2020-07-28T09:59:13.219Z</time>
      </trkpt>
      <trkpt lat="61.5675" lon="5.64127">
        <ele>207.063861</ele>
        <time>2020-07-28T09:59:16.211Z</time>
      </trkpt>
      <trkpt lat="61.56746" lon="5.64109">
        <ele>207.318914</ele>
        <time>2020-07-28T09:59:19.208Z</time>
      </trkpt>
      <trkpt lat="61.56743" lon="5.64089">
        <ele>207.58673</ele>
        <time>2020-07-28T09:59:22.214Z</time>
      </trkpt>
      <trkpt lat="61.56739" lon="5.64069">
        <ele>207.861438</ele>
        <time>2020-07-28T09:59:25.194Z</time>
      </trkpt>
      <trkpt lat="61.56736" lon="5.64047">
        <ele>208.155352</ele>
        <time>2020-07-28T09:59:28.206Z</time>
      </trkpt>
      <trkpt lat="61.56732" lon="5.64023">
        <ele>208.472007</ele>
        <time>2020-07-28T09:59:31.217Z</time>
      </trkpt>
      <trkpt lat="61.56729" lon="5.63996">
        <ele>208.828595</ele>
        <time>2020-07-28T09:59:34.250Z</time>
      </trkpt>
      <trkpt lat="61.56726" lon="5.63976">
        <ele>208.873578</ele>
        <time>2020-07-28T09:59:36.212Z</time>
      </trkpt>
      <trkpt lat="61.56724" lon="5.63955">
        <ele>208.916787</ele>
        <time>2020-07-28T09:59:38.195Z</time>
      </trkpt>
      <trkpt lat="61.56722" lon="5.63932">
        <ele>208.963031</ele>
        <time>2020-07-28T09:59:40.209Z</time>
      </trkpt>
      <trkpt lat="61.56721" lon="5.63908">
        <ele>209.01142</ele>
        <time>2020-07-28T09:59:42.229Z</time>
      </trkpt>
      <trkpt lat="61.5672" lon="5.63882">
        <ele>209.064997</ele>
        <time>2020-07-28T09:59:44.186Z</time>
      </trkpt>
      <trkpt lat="61.56719" lon="5.63854">
        <ele>209.119901</ele>
        <time>2020-07-28T09:59:46.211Z</time>
      </trkpt>
      <trkpt lat="61.56718" lon="5.63827">
        <ele>209.173805</ele>
        <time>2020-07-28T09:59:48.207Z</time>
      </trkpt>
      <trkpt lat="61.56718" lon="5.63803">
        <ele>209.222934</ele>
        <time>2020-07-28T09:59:50.211Z</time>
      </trkpt>
      <trkpt lat="61.56719" lon="5.63781">
        <ele>209.26645</ele>
        <time>2020-07-28T09:59:52.239Z</time>
      </trkpt>
      <trkpt lat="61.5672" lon="5.63762">
        <ele>209.305336</ele>
        <time>2020-07-28T09:59:54.214Z</time>
      </trkpt>
      <trkpt lat="61.5672" lon="5.63736">
        <ele>209.357879</ele>
        <time>2020-07-28T09:59:57.201Z</time>
      </trkpt>
      <trkpt lat="61.56721" lon="5.63712">
        <ele>209.405893</ele>
        <time>2020-07-28T10:00:00.210Z</time>
      </trkpt>
      <trkpt lat="61.56725" lon="5.63691">
        <ele>209.451716</ele>
        <time>2020-07-28T10:00:03.198Z</time>
      </trkpt>
      <trkpt lat="61.56729" lon="5.6367">
        <ele>209.497256</ele>
        <time>2020-07-28T10:00:06.243Z</time>
      </trkpt>
      <trkpt lat="61.56734" lon="5.63648">
        <ele>209.545987</ele>
        <time>2020-07-28T10:00:09.204Z</time>
      </trkpt>
      <trkpt lat="61.56741" lon="5.63624">
        <ele>209.495467</ele>
        <time>2020-07-28T10:00:12.203Z</time>
      </trkpt>
      <trkpt lat="61.56745" lon="5.63607">
        <ele>209.201324</ele>
        <time>2020-07-28T10:00:14.218Z</time>
      </trkpt>
      <trkpt lat="61.56749" lon="5.6359">
        <ele>208.904027</ele>
        <time>2020-07-28T10:00:16.223Z</time>
      </trkpt>
      <trkpt lat="61.56752" lon="5.6357">
        <ele>208.594494</ele>
        <time>2020-07-28T10:00:18.200Z</time>
      </trkpt>
      <trkpt lat="61.56756" lon="5.63551">
        <ele>208.266591</ele>
        <time>2020-07-28T10:00:20.233Z</time>
      </trkpt>
      <trkpt lat="61.56761" lon="5.63532">
        <ele>207.940046</ele>
        <time>2020-07-28T10:00:22.210Z</time>
      </trkpt>
      <trkpt lat="61.56766" lon="5.63513">
        <ele>207.606771</ele>
        <time>2020-07-28T10:00:24.199Z</time>
      </trkpt>
      <trkpt lat="61.56771" lon="5.63492">
        <ele>207.241426</ele>
        <time>2020-07-28T10:00:26.200Z</time>
      </trkpt>
      <trkpt lat="61.56777" lon="5.6347">
        <ele>206.859532</ele>
        <time>2020-07-28T10:00:28.213Z</time>
      </trkpt>
      <trkpt lat="61.56782" lon="5.63447">
        <ele>206.477888</ele>
        <time>2020-07-28T10:00:30.214Z</time>
      </trkpt>
      <trkpt lat="61.56788" lon="5.63425">
        <ele>206.081754</ele>
        <time>2020-07-28T10:00:32.210Z</time>
      </trkpt>
      <trkpt lat="61.56794" lon="5.63403">
        <ele>205.686566</ele>
        <time>2020-07-28T10:00:34.219Z</time>
      </trkpt>
      <trkpt lat="61.568" lon="5.63381">
        <ele>205.306798</ele>
        <time>2020-07-28T10:00:36.211Z</time>
      </trkpt>
      <trkpt lat="61.56805" lon="5.6336">
        <ele>204.943144</ele>
        <time>2020-07-28T10:00:38.190Z</time>
      </trkpt>
      <trkpt lat="61.5681" lon="5.63339">
        <ele>204.586076</ele>
        <time>2020-07-28T10:00:40.200Z</time>
      </trkpt>
      <trkpt lat="61.56815" lon="5.63319">
        <ele>204.231525</ele>
        <time>2020-07-28T10:00:42.236Z</time>
      </trkpt>
      <trkpt lat="61.5682" lon="5.63298">
        <ele>203.870631</ele>
        <time>2020-07-28T10:00:44.204Z</time>
      </trkpt>
      <trkpt lat="61.56824" lon="5.63276">
        <ele>203.834196</ele>
        <time>2020-07-28T10:00:46.224Z</time>
      </trkpt>
      <trkpt lat="61.56827" lon="5.63254">
        <ele>203.87005</ele>
        <time>2020-07-28T10:00:48.215Z</time>
      </trkpt>
      <trkpt lat="61.5683" lon="5.63232">
        <ele>203.905664</ele>
        <time>2020-07-28T10:00:50.212Z</time>
      </trkpt>
      <trkpt lat="61.56833" lon="5.63211">
        <ele>203.939855</ele>
        <time>2020-07-28T10:00:52.208Z</time>
      </trkpt>
      <trkpt lat="61.56835" lon="5.63191">
        <ele>203.971793</ele>
        <time>2020-07-28T10:00:54.195Z</time>
      </trkpt>
      <trkpt lat="61.56838" lon="5.63164">
        <ele>204.015493</ele>
        <time>2020-07-28T10:00:57.214Z</time>
      </trkpt>
      <trkpt lat="61.5684" lon="5.63138">
        <ele>204.05698</ele>
        <time>2020-07-28T10:01:00.217Z</time>
      </trkpt>
      <trkpt lat="61.56839" lon="5.63111">
        <ele>204.09849</ele>
        <time>2020-07-28T10:01:03.200Z</time>
      </trkpt>
      <trkpt lat="61.56839" lon="5.63087">
        <ele>204.13655</ele>
        <time>2020-07-28T10:01:06.196Z</time>
      </trkpt>
      <trkpt lat="61.56837" lon="5.63066">
        <ele>204.170632</ele>
        <time>2020-07-28T10:01:09.222Z</time>
      </trkpt>
      <trkpt lat="61.56835" lon="5.63046">
        <ele>204.20188</ele>
        <time>2020-07-28T10:01:12.198Z</time>
      </trkpt>
      <trkpt lat="61.56832" lon="5.63023">
        <ele>204.240159</ele>
        <time>2020-07-28T10:01:16.217Z</time>
      </trkpt>
      <trkpt lat="61.5683" lon="5.63002">
        <ele>204.273112</ele>
        <time>2020-07-28T10:01:20.211Z</time>
      </trkpt>
      <trkpt lat="61.56827" lon="5.62982">
        <ele>204.306296</ele>
        <time>2020-07-28T10:01:24.208Z</time>
      </trkpt>
      <trkpt lat="61.56824" lon="5.62962">
        <ele>204.339452</ele>
        <time>2020-07-28T10:01:28.199Z</time>
      </trkpt>
      <trkpt lat="61.56821" lon="5.6294">
        <ele>204.375929</ele>
        <time>2020-07-28T10:01:32.203Z</time>
      </trkpt>
      <trkpt lat="61.56818" lon="5.62916">
        <ele>204.635994</ele>
        <time>2020-07-28T10:01:36.191Z</time>
      </trkpt>
      <trkpt lat="61.56815" lon="5.62894">
        <ele>205.175899</ele>
        <time>2020-07-28T10:01:40.212Z</time>
      </trkpt>
      <trkpt lat="61.56811" lon="5.62871">
        <ele>205.75511</ele>
        <time>2020-07-28T10:01:44.208Z</time>
      </trkpt>
      <trkpt lat="61.56809" lon="5.62852">
        <ele>206.197934</ele>
        <time>2020-07-28T10:01:47.212Z</time>
      </trkpt>
      <trkpt lat="61.56808" lon="5.62833">
        <ele>206.643007</ele>
        <time>2020-07-28T10:01:50.193Z</time>
      </trkpt>
      <trkpt lat="61.56807" lon="5.62814">
        <ele>207.109492</ele>
        <time>2020-07-28T10:01:53.201Z</time>
      </trkpt>
      <trkpt lat="61.56806" lon="5.62793">
        <ele>207.596223</ele>
        <time>2020-07-28T10:01:56.196Z</time>
      </trkpt>
      <trkpt lat="61.56805" lon="5.62772">
        <ele>208.089622</ele>
        <time>2020-07-28T10:01:59.195Z</time>
      </trkpt>
      <trkpt lat="61.56805" lon="5.62751">
        <ele>208.57787</ele>
        <time>2020-07-28T10:02:02.243Z</time>
      </trkpt>
      <trkpt lat="61.56805" lon="5.62728">
        <ele>209.09861</ele>
        <time>2020-07-28T10:02:05.191Z</time>
      </trkpt>
      <trkpt lat="61.56808" lon="5.62705">
        <ele>209.659631</ele>
        <time>2020-07-28T10:02:08.223Z</time>
      </trkpt>
      <trkpt lat="61.56811" lon="5.62679">
        <ele>210.286479</ele>
        <time>2020-07-28T10:02:11.216Z</time>
      </trkpt>
      <trkpt lat="61.56813" lon="5.62659">
        <ele>210.769017</ele>
        <time>2020-07-28T10:02:13.213Z</time>
      </trkpt>
      <trkpt lat="61.56816" lon="5.62638">
        <ele>211.264054</ele>
        <time>2020-07-28T10:02:15.224Z</time>
      </trkpt>
      <trkpt lat="61.56819" lon="5.62617">
        <ele>211.788419</ele>
        <time>2020-07-28T10:02:17.207Z</time>
      </trkpt>
      <trkpt lat="61.56823" lon="5.62595">
        <ele>212.351624</ele>
        <time>2020-07-28T10:02:19.223Z</time>
      </trkpt>
      <trkpt lat="61.56828" lon="5.62571">
        <ele>212.952339</ele>
        <time>2020-07-28T10:02:21.203Z</time>
      </trkpt>
      <trkpt lat="61.56833" lon="5.62546">
        <ele>212.869672</ele>
        <time>2020-07-28T10:02:23.218Z</time>
      </trkpt>
      <trkpt lat="61.56839" lon="5.6252">
        <ele>212.246802</ele>
        <time>2020-07-28T10:02:25.230Z</time>
      </trkpt>
      <trkpt lat="61.56845" lon="5.62491">
        <ele>211.563612</ele>
        <time>2020-07-28T10:02:27.221Z</time>
      </trkpt>
      <trkpt lat="61.56852" lon="5.6246">
        <ele>210.833681</ele>
        <time>2020-07-28T10:02:29.209Z</time>
      </trkpt>
      <trkpt lat="61.56859" lon="5.6243">
        <ele>210.11359</ele>
        <time>2020-07-28T10:02:31.205Z</time>
      </trkpt>
      <trkpt lat="61.56866" lon="5.624">
        <ele>209.405344</ele>
        <time>2020-07-28T10:02:33.194Z</time>
      </trkpt>
      <trkpt lat="61.56873" lon="5.6237">
        <ele>208.699016</ele>
        <time>2020-07-28T10:02:35.207Z</time>
      </trkpt>
      <trkpt lat="61.56879" lon="5.62339">
        <ele>207.976409</ele>
        <time>2020-07-28T10:02:37.205Z</time>
      </trkpt>
      <trkpt lat="61.56884" lon="5.62307">
        <ele>207.247718</ele>
        <time>2020-07-28T10:02:39.200Z</time>
      </trkpt>
      <trkpt lat="61.56888" lon="5.62275">
        <ele>206.545202</ele>
        <time>2020-07-28T10:02:41.188Z</time>
      </trkpt>
      <trkpt lat="61.5689" lon="5.62245">
        <ele>205.877976</ele>
        <time>2020-07-28T10:02:43.223Z</time>
      </trkpt>
      <trkpt lat="61.5689" lon="5.62216">
        <ele>205.259029</ele>
        <time>2020-07-28T10:02:45.195Z</time>
      </trkpt>
      <trkpt lat="61.5689" lon="5.62189">
        <ele>205.485336</ele>
        <time>2020-07-28T10:02:47.223Z</time>
      </trkpt>
      <trkpt lat="61.56888" lon="5.62166">
        <ele>205.977386</ele>
        <time>2020-07-28T10:02:49.201Z</time>
      </trkpt>
      <trkpt lat="61.56886" lon="5.62145">
        <ele>206.409855</ele>
        <time>2020-07-28T10:02:51.205Z</time>
      </trkpt>
      <trkpt lat="61.56884" lon="5.62126">
        <ele>206.799769</ele>
        <time>2020-07-28T10:02:53.197Z</time>
      </trkpt>
      <trkpt lat="61.56879" lon="5.62101">
        <ele>207.349876</ele>
        <time>2020-07-28T10:02:56.217Z</time>
      </trkpt>
      <trkpt lat="61.56875" lon="5.62079">
        <ele>207.824963</ele>
        <time>2020-07-28T10:02:59.200Z</time>
      </trkpt>
      <trkpt lat="61.56871" lon="5.6206">
        <ele>208.258415</ele>
        <time>2020-07-28T10:03:02.209Z</time>
      </trkpt>
      <trkpt lat="61.56867" lon="5.62043">
        <ele>208.644025</ele>
        <time>2020-07-28T10:03:05.203Z</time>
      </trkpt>
      <trkpt lat="61.56862" lon="5.62023">
        <ele>209.094201</ele>
        <time>2020-07-28T10:03:09.222Z</time>
      </trkpt>
      <trkpt lat="61.56855" lon="5.62005">
        <ele>209.556203</ele>
        <time>2020-07-28T10:03:13.216Z</time>
      </trkpt>
      <trkpt lat="61.56849" lon="5.61988">
        <ele>210.003327</ele>
        <time>2020-07-28T10:03:17.215Z</time>
      </trkpt>
      <trkpt lat="61.56843" lon="5.61972">
        <ele>210.407937</ele>
        <time>2020-07-28T10:03:21.204Z</time>
      </trkpt>
      <trkpt lat="61.56839" lon="5.61954">
        <ele>210.820067</ele>
        <time>2020-07-28T10:03:25.212Z</time>
      </trkpt>
      <trkpt lat="61.56835" lon="5.61932">
        <ele>211.282127</ele>
        <time>2020-07-28T10:03:30.217Z</time>
      </trkpt>
      <trkpt lat="61.56831" lon="5.61915">
        <ele>211.665868</ele>
        <time>2020-07-28T10:03:34.224Z</time>
      </trkpt>
      <trkpt lat="61.56827" lon="5.61899">
        <ele>212.050446</ele>
        <time>2020-07-28T10:03:38.201Z</time>
      </trkpt>
      <trkpt lat="61.56825" lon="5.61879">
        <ele>212.46759</ele>
        <time>2020-07-28T10:03:43.214Z</time>
      </trkpt>
      <trkpt lat="61.56822" lon="5.61856">
        <ele>212.864947</ele>
        <time>2020-07-28T10:03:48.211Z</time>
      </trkpt>
      <trkpt lat="61.56818" lon="5.61835">
        <ele>213.124727</ele>
        <time>2020-07-28T10:03:53.208Z</time>
      </trkpt>
      <trkpt lat="61.56814" lon="5.61813">
        <ele>213.379669</ele>
        <time>2020-07-28T10:03:58.215Z</time>
      </trkpt>
      <trkpt lat="61.56815" lon="5.61794">
        <ele>213.594391</ele>
        <time>2020-07-28T10:04:02.201Z</time>
      </trkpt>
      <trkpt lat="61.56813" lon="5.61771">
        <ele>213.846582</ele>
        <time>2020-07-28T10:04:07.207Z</time>
      </trkpt>
      <trkpt lat="61.56813" lon="5.61752">
        <ele>214.060464</ele>
        <time>2020-07-28T10:04:11.212Z</time>
      </trkpt>
      <trkpt lat="61.56812" lon="5.6173">
        <ele>214.296264</ele>
        <time>2020-07-28T10:04:15.232Z</time>
      </trkpt>
      <trkpt lat="61.56812" lon="5.6171">
        <ele>214.518877</ele>
        <time>2020-07-28T10:04:19.234Z</time>
      </trkpt>
      <trkpt lat="61.5681" lon="5.61688">
        <ele>214.774331</ele>
        <time>2020-07-28T10:04:24.223Z</time>
      </trkpt>
      <trkpt lat="61.5681" lon="5.61667">
        <ele>214.999263</ele>
        <time>2020-07-28T10:04:28.205Z</time>
      </trkpt>
      <trkpt lat="61.56809" lon="5.61647">
        <ele>215.220624</ele>
        <time>2020-07-28T10:04:32.205Z</time>
      </trkpt>
      <trkpt lat="61.56809" lon="5.61628">
        <ele>215.430883</ele>
        <time>2020-07-28T10:04:36.210Z</time>
      </trkpt>
      <trkpt lat="61.5681" lon="5.61608">
        <ele>215.65869</ele>
        <time>2020-07-28T10:04:40.198Z</time>
      </trkpt>
      <trkpt lat="61.56811" lon="5.61587">
        <ele>215.890539</ele>
        <time>2020-07-28T10:04:44.210Z</time>
      </trkpt>
      <trkpt lat="61.56811" lon="5.61568">
        <ele>216.098572</ele>
        <time>2020-07-28T10:04:48.198Z</time>
      </trkpt>
      <trkpt lat="61.56811" lon="5.61549">
        <ele>216.314048</ele>
        <time>2020-07-28T10:04:52.229Z</time>
      </trkpt>
      <trkpt lat="61.56811" lon="5.61526">
        <ele>216.570865</ele>
        <time>2020-07-28T10:04:57.224Z</time>
      </trkpt>
      <trkpt lat="61.56811" lon="5.61505">
        <ele>216.798864</ele>
        <time>2020-07-28T10:05:01.208Z</time>
      </trkpt>
      <trkpt lat="61.56812" lon="5.61483">
        <ele>216.986978</ele>
        <time>2020-07-28T10:05:05.204Z</time>
      </trkpt>
      <trkpt lat="61.56813" lon="5.61461">
        <ele>217.059864</ele>
        <time>2020-07-28T10:05:09.198Z</time>
      </trkpt>
      <trkpt lat="61.56812" lon="5.61441">
        <ele>217.128977</ele>
        <time>2020-07-28T10:05:13.219Z</time>
      </trkpt>
      <trkpt lat="61.56812" lon="5.6142">
        <ele>217.201849</ele>
        <time>2020-07-28T10:05:17.204Z</time>
      </trkpt>
      <trkpt lat="61.56813" lon="5.61401">
        <ele>217.267294</ele>
        <time>2020-07-28T10:05:21.217Z</time>
      </trkpt>
      <trkpt lat="61.56813" lon="5.61378">
        <ele>217.343587</ele>
        <time>2020-07-28T10:05:25.214Z</time>
      </trkpt>
      <trkpt lat="61.56813" lon="5.61354">
        <ele>217.427115</ele>
        <time>2020-07-28T10:05:29.218Z</time>
      </trkpt>
      <trkpt lat="61.56815" lon="5.61331">
        <ele>217.505759</ele>
        <time>2020-07-28T10:05:33.217Z</time>
      </trkpt>
      <trkpt lat="61.56817" lon="5.61312">
        <ele>217.573335</ele>
        <time>2020-07-28T10:05:36.190Z</time>
      </trkpt>
      <trkpt lat="61.5682" lon="5.61288">
        <ele>217.656707</ele>
        <time>2020-07-28T10:05:40.205Z</time>
      </trkpt>
      <trkpt lat="61.56824" lon="5.61265">
        <ele>217.741767</ele>
        <time>2020-07-28T10:05:44.214Z</time>
      </trkpt>
      <trkpt lat="61.56828" lon="5.61247">
        <ele>217.809472</ele>
        <time>2020-07-28T10:05:47.202Z</time>
      </trkpt>
      <trkpt lat="61.56832" lon="5.61228">
        <ele>217.880925</ele>
        <time>2020-07-28T10:05:50.232Z</time>
      </trkpt>
      <trkpt lat="61.56836" lon="5.61207">
        <ele>217.958221</ele>
        <time>2020-07-28T10:05:53.228Z</time>
      </trkpt>
      <trkpt lat="61.5684" lon="5.61183">
        <ele>218.044517</ele>
        <time>2020-07-28T10:05:56.197Z</time>
      </trkpt>
      <trkpt lat="61.56847" lon="5.6116">
        <ele>218.139478</ele>
        <time>2020-07-28T10:05:59.217Z</time>
      </trkpt>
      <trkpt lat="61.56853" lon="5.61144">
        <ele>218.206482</ele>
        <time>2020-07-28T10:06:01.209Z</time>
      </trkpt>
      <trkpt lat="61.5686" lon="5.61128">
        <ele>218.10518</ele>
        <time>2020-07-28T10:06:03.209Z</time>
      </trkpt>
      <trkpt lat="61.56867" lon="5.61111">
        <ele>217.747665</ele>
        <time>2020-07-28T10:06:05.211Z</time>
      </trkpt>
      <trkpt lat="61.56875" lon="5.61093">
        <ele>217.353515</ele>
        <time>2020-07-28T10:06:07.229Z</time>
      </trkpt>
      <trkpt lat="61.56884" lon="5.61075">
        <ele>216.941855</ele>
        <time>2020-07-28T10:06:09.251Z</time>
      </trkpt>
      <trkpt lat="61.56893" lon="5.61055">
        <ele>216.498696</ele>
        <time>2020-07-28T10:06:11.199Z</time>
      </trkpt>
      <trkpt lat="61.56902" lon="5.61034">
        <ele>216.02642</ele>
        <time>2020-07-28T10:06:13.214Z</time>
      </trkpt>
      <trkpt lat="61.56912" lon="5.6101">
        <ele>215.517855</ele>
        <time>2020-07-28T10:06:15.242Z</time>
      </trkpt>
      <trkpt lat="61.56922" lon="5.60985">
        <ele>214.996028</ele>
        <time>2020-07-28T10:06:17.206Z</time>
      </trkpt>
      <trkpt lat="61.5693" lon="5.60957">
        <ele>214.477496</ele>
        <time>2020-07-28T10:06:19.214Z</time>
      </trkpt>
      <trkpt lat="61.56937" lon="5.60927">
        <ele>213.935017</ele>
        <time>2020-07-28T10:06:21.202Z</time>
      </trkpt>
      <trkpt lat="61.56943" lon="5.60896">
        <ele>213.389162</ele>
        <time>2020-07-28T10:06:23.270Z</time>
      </trkpt>
      <trkpt lat="61.56948" lon="5.60863">
        <ele>212.844185</ele>
        <time>2020-07-28T10:06:25.208Z</time>
      </trkpt>
      <trkpt lat="61.56951" lon="5.6083">
        <ele>212.293527</ele>
        <time>2020-07-28T10:06:27.217Z</time>
      </trkpt>
      <trkpt lat="61.56953" lon="5.60796">
        <ele>211.385</ele>
        <time>2020-07-28T10:06:29.192Z</time>
      </trkpt>
      <trkpt lat="61.56954" lon="5.60762">
        <ele>210.365386</ele>
        <time>2020-07-28T10:06:31.238Z</time>
      </trkpt>
      <trkpt lat="61.56952" lon="5.60728">
        <ele>209.331327</ele>
        <time>2020-07-28T10:06:33.201Z</time>
      </trkpt>
      <trkpt lat="61.56949" lon="5.60693">
        <ele>208.269235</ele>
        <time>2020-07-28T10:06:35.221Z</time>
      </trkpt>
      <trkpt lat="61.56944" lon="5.60659">
        <ele>207.196682</ele>
        <time>2020-07-28T10:06:37.205Z</time>
      </trkpt>
      <trkpt lat="61.56938" lon="5.60626">
        <ele>206.129811</ele>
        <time>2020-07-28T10:06:39.205Z</time>
      </trkpt>
      <trkpt lat="61.56932" lon="5.60592">
        <ele>205.050537</ele>
        <time>2020-07-28T10:06:41.206Z</time>
      </trkpt>
      <trkpt lat="61.56929" lon="5.60574">
        <ele>204.48513</ele>
        <time>2020-07-28T10:06:42.209Z</time>
      </trkpt>
      <trkpt lat="61.56926" lon="5.60556">
        <ele>203.911908</ele>
        <time>2020-07-28T10:06:43.215Z</time>
      </trkpt>
      <trkpt lat="61.56923" lon="5.60539">
        <ele>203.345051</ele>
        <time>2020-07-28T10:06:44.213Z</time>
      </trkpt>
      <trkpt lat="61.56919" lon="5.60519">
        <ele>202.728688</ele>
        <time>2020-07-28T10:06:45.202Z</time>
      </trkpt>
      <trkpt lat="61.56916" lon="5.60499">
        <ele>202.089557</ele>
        <time>2020-07-28T10:06:46.210Z</time>
      </trkpt>
      <trkpt lat="61.56913" lon="5.60478">
        <ele>201.437949</ele>
        <time>2020-07-28T10:06:47.201Z</time>
      </trkpt>
      <trkpt lat="61.56909" lon="5.60458">
        <ele>200.809192</ele>
        <time>2020-07-28T10:06:48.194Z</time>
      </trkpt>
      <trkpt lat="61.56906" lon="5.60438">
        <ele>200.321585</ele>
        <time>2020-07-28T10:06:49.219Z</time>
      </trkpt>
      <trkpt lat="61.56904" lon="5.60418">
        <ele>199.835518</ele>
        <time>2020-07-28T10:06:50.190Z</time>
      </trkpt>
      <trkpt lat="61.56902" lon="5.60397">
        <ele>199.338038</ele>
        <time>2020-07-28T10:06:51.228Z</time>
      </trkpt>
      <trkpt lat="61.569" lon="5.60376">
        <ele>198.843327</ele>
        <time>2020-07-28T10:06:52.219Z</time>
      </trkpt>
      <trkpt lat="61.56899" lon="5.60354">
        <ele>198.346035</ele>
        <time>2020-07-28T10:06:53.201Z</time>
      </trkpt>
      <trkpt lat="61.56898" lon="5.60332">
        <ele>197.842085</ele>
        <time>2020-07-28T10:06:54.194Z</time>
      </trkpt>
      <trkpt lat="61.56898" lon="5.6031">
        <ele>197.334359</ele>
        <time>2020-07-28T10:06:55.207Z</time>
      </trkpt>
      <trkpt lat="61.56899" lon="5.60289">
        <ele>196.830409</ele>
        <time>2020-07-28T10:06:56.209Z</time>
      </trkpt>
      <trkpt lat="61.569" lon="5.60266">
        <ele>196.307396</ele>
        <time>2020-07-28T10:06:57.217Z</time>
      </trkpt>
      <trkpt lat="61.56901" lon="5.60244">
        <ele>195.788602</ele>
        <time>2020-07-28T10:06:58.191Z</time>
      </trkpt>
      <trkpt lat="61.56902" lon="5.60221">
        <ele>195.266089</ele>
        <time>2020-07-28T10:06:59.194Z</time>
      </trkpt>
      <trkpt lat="61.56903" lon="5.60198">
        <ele>194.734901</ele>
        <time>2020-07-28T10:07:00.200Z</time>
      </trkpt>
      <trkpt lat="61.56905" lon="5.60175">
        <ele>194.198079</ele>
        <time>2020-07-28T10:07:01.199Z</time>
      </trkpt>
      <trkpt lat="61.56906" lon="5.60152">
        <ele>193.656672</ele>
        <time>2020-07-28T10:07:02.198Z</time>
      </trkpt>
      <trkpt lat="61.56907" lon="5.60128">
        <ele>193.10323</ele>
        <time>2020-07-28T10:07:03.223Z</time>
      </trkpt>
      <trkpt lat="61.56909" lon="5.60104">
        <ele>192.544597</ele>
        <time>2020-07-28T10:07:04.200Z</time>
      </trkpt>
      <trkpt lat="61.56911" lon="5.6008">
        <ele>192.015256</ele>
        <time>2020-07-28T10:07:05.196Z</time>
      </trkpt>
      <trkpt lat="61.56913" lon="5.60057">
        <ele>191.572998</ele>
        <time>2020-07-28T10:07:06.225Z</time>
      </trkpt>
      <trkpt lat="61.56915" lon="5.60033">
        <ele>191.130341</ele>
        <time>2020-07-28T10:07:07.241Z</time>
      </trkpt>
      <trkpt lat="61.56917" lon="5.60009">
        <ele>190.688946</ele>
        <time>2020-07-28T10:07:08.235Z</time>
      </trkpt>
      <trkpt lat="61.56919" lon="5.59985">
        <ele>190.244253</ele>
        <time>2020-07-28T10:07:09.200Z</time>
      </trkpt>
      <trkpt lat="61.5692" lon="5.59961">
        <ele>189.813549</ele>
        <time>2020-07-28T10:07:10.202Z</time>
      </trkpt>
      <trkpt lat="61.56921" lon="5.59938">
        <ele>189.386959</ele>
        <time>2020-07-28T10:07:11.220Z</time>
      </trkpt>
      <trkpt lat="61.56922" lon="5.59915">
        <ele>188.962647</ele>
        <time>2020-07-28T10:07:12.195Z</time>
      </trkpt>
      <trkpt lat="61.56922" lon="5.59891">
        <ele>188.519377</ele>
        <time>2020-07-28T10:07:13.251Z</time>
      </trkpt>
      <trkpt lat="61.56922" lon="5.59867">
        <ele>188.083253</ele>
        <time>2020-07-28T10:07:14.216Z</time>
      </trkpt>
      <trkpt lat="61.56921" lon="5.59843">
        <ele>187.648879</ele>
        <time>2020-07-28T10:07:15.220Z</time>
      </trkpt>
      <trkpt lat="61.56919" lon="5.5982">
        <ele>187.220691</ele>
        <time>2020-07-28T10:07:16.248Z</time>
      </trkpt>
      <trkpt lat="61.56916" lon="5.59797">
        <ele>186.785027</ele>
        <time>2020-07-28T10:07:17.204Z</time>
      </trkpt>
      <trkpt lat="61.56913" lon="5.59773">
        <ele>186.340482</ele>
        <time>2020-07-28T10:07:18.219Z</time>
      </trkpt>
      <trkpt lat="61.56909" lon="5.5975">
        <ele>185.895895</ele>
        <time>2020-07-28T10:07:19.197Z</time>
      </trkpt>
      <trkpt lat="61.56904" lon="5.59727">
        <ele>185.428135</ele>
        <time>2020-07-28T10:07:20.215Z</time>
      </trkpt>
      <trkpt lat="61.56898" lon="5.59705">
        <ele>184.919216</ele>
        <time>2020-07-28T10:07:21.190Z</time>
      </trkpt>
      <trkpt lat="61.56891" lon="5.59682">
        <ele>184.36837</ele>
        <time>2020-07-28T10:07:22.207Z</time>
      </trkpt>
      <trkpt lat="61.56884" lon="5.59659">
        <ele>183.805956</ele>
        <time>2020-07-28T10:07:23.226Z</time>
      </trkpt>
      <trkpt lat="61.56877" lon="5.59637">
        <ele>183.262874</ele>
        <time>2020-07-28T10:07:24.195Z</time>
      </trkpt>
      <trkpt lat="61.56871" lon="5.59615">
        <ele>182.724447</ele>
        <time>2020-07-28T10:07:25.235Z</time>
      </trkpt>
      <trkpt lat="61.56865" lon="5.59593">
        <ele>182.181195</ele>
        <time>2020-07-28T10:07:26.195Z</time>
      </trkpt>
      <trkpt lat="61.56859" lon="5.5957">
        <ele>181.639956</ele>
        <time>2020-07-28T10:07:27.215Z</time>
      </trkpt>
      <trkpt lat="61.56854" lon="5.59547">
        <ele>181.108563</ele>
        <time>2020-07-28T10:07:28.236Z</time>
      </trkpt>
      <trkpt lat="61.56849" lon="5.59522">
        <ele>180.567512</ele>
        <time>2020-07-28T10:07:29.220Z</time>
      </trkpt>
      <trkpt lat="61.56846" lon="5.59498">
        <ele>180.030021</ele>
        <time>2020-07-28T10:07:30.190Z</time>
      </trkpt>
      <trkpt lat="61.56844" lon="5.59472">
        <ele>179.497241</ele>
        <time>2020-07-28T10:07:31.232Z</time>
      </trkpt>
      <trkpt lat="61.56843" lon="5.59447">
        <ele>178.961018</ele>
        <time>2020-07-28T10:07:32.199Z</time>
      </trkpt>
      <trkpt lat="61.56843" lon="5.59421">
        <ele>178.4224</ele>
        <time>2020-07-28T10:07:33.215Z</time>
      </trkpt>
      <trkpt lat="61.56844" lon="5.59395">
        <ele>177.884742</ele>
        <time>2020-07-28T10:07:34.214Z</time>
      </trkpt>
      <trkpt lat="61.56845" lon="5.5937">
        <ele>177.359618</ele>
        <time>2020-07-28T10:07:35.201Z</time>
      </trkpt>
      <trkpt lat="61.56846" lon="5.59344">
        <ele>176.922789</ele>
        <time>2020-07-28T10:07:36.226Z</time>
      </trkpt>
      <trkpt lat="61.56848" lon="5.59319">
        <ele>176.478268</ele>
        <time>2020-07-28T10:07:37.211Z</time>
      </trkpt>
      <trkpt lat="61.5685" lon="5.59293">
        <ele>176.030523</ele>
        <time>2020-07-28T10:07:38.215Z</time>
      </trkpt>
      <trkpt lat="61.56852" lon="5.59267">
        <ele>175.586168</ele>
        <time>2020-07-28T10:07:39.200Z</time>
      </trkpt>
      <trkpt lat="61.56853" lon="5.59242">
        <ele>175.143348</ele>
        <time>2020-07-28T10:07:40.215Z</time>
      </trkpt>
      <trkpt lat="61.56855" lon="5.59217">
        <ele>174.713102</ele>
        <time>2020-07-28T10:07:41.233Z</time>
      </trkpt>
      <trkpt lat="61.56857" lon="5.59192">
        <ele>174.285685</ele>
        <time>2020-07-28T10:07:42.234Z</time>
      </trkpt>
      <trkpt lat="61.56859" lon="5.59168">
        <ele>173.859368</ele>
        <time>2020-07-28T10:07:43.203Z</time>
      </trkpt>
      <trkpt lat="61.56861" lon="5.59144">
        <ele>173.444375</ele>
        <time>2020-07-28T10:07:44.199Z</time>
      </trkpt>
      <trkpt lat="61.56862" lon="5.5912">
        <ele>173.035542</ele>
        <time>2020-07-28T10:07:45.222Z</time>
      </trkpt>
      <trkpt lat="61.56864" lon="5.59097">
        <ele>172.637015</ele>
        <time>2020-07-28T10:07:46.216Z</time>
      </trkpt>
      <trkpt lat="61.56864" lon="5.59075">
        <ele>172.253477</ele>
        <time>2020-07-28T10:07:47.200Z</time>
      </trkpt>
      <trkpt lat="61.56865" lon="5.59053">
        <ele>171.874025</ele>
        <time>2020-07-28T10:07:48.194Z</time>
      </trkpt>
      <trkpt lat="61.56865" lon="5.5903">
        <ele>171.489788</ele>
        <time>2020-07-28T10:07:49.205Z</time>
      </trkpt>
      <trkpt lat="61.56864" lon="5.59008">
        <ele>171.097946</ele>
        <time>2020-07-28T10:07:50.200Z</time>
      </trkpt>
      <trkpt lat="61.56863" lon="5.58985">
        <ele>170.758807</ele>
        <time>2020-07-28T10:07:51.233Z</time>
      </trkpt>
      <trkpt lat="61.56862" lon="5.58963">
        <ele>170.486513</ele>
        <time>2020-07-28T10:07:52.225Z</time>
      </trkpt>
      <trkpt lat="61.5686" lon="5.58941">
        <ele>170.215586</ele>
        <time>2020-07-28T10:07:53.220Z</time>
      </trkpt>
      <trkpt lat="61.56858" lon="5.5892">
        <ele>169.951825</ele>
        <time>2020-07-28T10:07:54.194Z</time>
      </trkpt>
      <trkpt lat="61.56856" lon="5.58899">
        <ele>169.690477</ele>
        <time>2020-07-28T10:07:55.199Z</time>
      </trkpt>
      <trkpt lat="61.56855" lon="5.58878">
        <ele>169.427923</ele>
        <time>2020-07-28T10:07:56.212Z</time>
      </trkpt>
      <trkpt lat="61.56852" lon="5.58857">
        <ele>169.166837</ele>
        <time>2020-07-28T10:07:57.236Z</time>
      </trkpt>
      <trkpt lat="61.5685" lon="5.58837">
        <ele>168.90992</ele>
        <time>2020-07-28T10:07:58.223Z</time>
      </trkpt>
      <trkpt lat="61.56848" lon="5.58817">
        <ele>168.6565</ele>
        <time>2020-07-28T10:07:59.205Z</time>
      </trkpt>
      <trkpt lat="61.56846" lon="5.58796">
        <ele>168.402871</ele>
        <time>2020-07-28T10:08:00.195Z</time>
      </trkpt>
      <trkpt lat="61.56844" lon="5.58776">
        <ele>168.147044</ele>
        <time>2020-07-28T10:08:01.213Z</time>
      </trkpt>
      <trkpt lat="61.56843" lon="5.58756">
        <ele>167.900663</ele>
        <time>2020-07-28T10:08:02.238Z</time>
      </trkpt>
      <trkpt lat="61.56843" lon="5.58736">
        <ele>167.652336</ele>
        <time>2020-07-28T10:08:03.206Z</time>
      </trkpt>
      <trkpt lat="61.56843" lon="5.58715">
        <ele>167.392963</ele>
        <time>2020-07-28T10:08:04.218Z</time>
      </trkpt>
      <trkpt lat="61.56844" lon="5.58693">
        <ele>167.129301</ele>
        <time>2020-07-28T10:08:05.226Z</time>
      </trkpt>
      <trkpt lat="61.56845" lon="5.58672">
        <ele>166.86763</ele>
        <time>2020-07-28T10:08:06.210Z</time>
      </trkpt>
      <trkpt lat="61.56847" lon="5.58651">
        <ele>166.603567</ele>
        <time>2020-07-28T10:08:07.207Z</time>
      </trkpt>
      <trkpt lat="61.56848" lon="5.58629">
        <ele>166.331805</ele>
        <time>2020-07-28T10:08:08.221Z</time>
      </trkpt>
      <trkpt lat="61.5685" lon="5.58607">
        <ele>166.079058</ele>
        <time>2020-07-28T10:08:09.195Z</time>
      </trkpt>
      <trkpt lat="61.56852" lon="5.58585">
        <ele>165.832888</ele>
        <time>2020-07-28T10:08:10.216Z</time>
      </trkpt>
      <trkpt lat="61.56854" lon="5.58562">
        <ele>165.578833</ele>
        <time>2020-07-28T10:08:11.239Z</time>
      </trkpt>
      <trkpt lat="61.56857" lon="5.58539">
        <ele>165.326003</ele>
        <time>2020-07-28T10:08:12.200Z</time>
      </trkpt>
      <trkpt lat="61.56859" lon="5.58516">
        <ele>165.067393</ele>
        <time>2020-07-28T10:08:13.231Z</time>
      </trkpt>
      <trkpt lat="61.56861" lon="5.58491">
        <ele>164.801609</ele>
        <time>2020-07-28T10:08:14.221Z</time>
      </trkpt>
      <trkpt lat="61.56863" lon="5.58467">
        <ele>164.529467</ele>
        <time>2020-07-28T10:08:15.218Z</time>
      </trkpt>
      <trkpt lat="61.56865" lon="5.58441">
        <ele>164.253673</ele>
        <time>2020-07-28T10:08:16.202Z</time>
      </trkpt>
      <trkpt lat="61.56866" lon="5.58417">
        <ele>163.982603</ele>
        <time>2020-07-28T10:08:17.202Z</time>
      </trkpt>
      <trkpt lat="61.56868" lon="5.58392">
        <ele>163.71111</ele>
        <time>2020-07-28T10:08:18.216Z</time>
      </trkpt>
      <trkpt lat="61.56869" lon="5.58367">
        <ele>163.435882</ele>
        <time>2020-07-28T10:08:19.224Z</time>
      </trkpt>
      <trkpt lat="61.5687" lon="5.58341">
        <ele>163.155768</ele>
        <time>2020-07-28T10:08:20.194Z</time>
      </trkpt>
      <trkpt lat="61.56871" lon="5.58315">
        <ele>162.868644</ele>
        <time>2020-07-28T10:08:21.223Z</time>
      </trkpt>
      <trkpt lat="61.56871" lon="5.58287">
        <ele>162.571187</ele>
        <time>2020-07-28T10:08:22.206Z</time>
      </trkpt>
      <trkpt lat="61.56872" lon="5.58259">
        <ele>162.270478</ele>
        <time>2020-07-28T10:08:23.211Z</time>
      </trkpt>
      <trkpt lat="61.56872" lon="5.58232">
        <ele>161.622915</ele>
        <time>2020-07-28T10:08:24.218Z</time>
      </trkpt>
      <trkpt lat="61.56872" lon="5.58204">
        <ele>160.766741</ele>
        <time>2020-07-28T10:08:25.243Z</time>
      </trkpt>
      <trkpt lat="61.56871" lon="5.58177">
        <ele>159.916615</ele>
        <time>2020-07-28T10:08:26.208Z</time>
      </trkpt>
      <trkpt lat="61.5687" lon="5.58149">
        <ele>159.050118</ele>
        <time>2020-07-28T10:08:27.191Z</time>
      </trkpt>
      <trkpt lat="61.56869" lon="5.58121">
        <ele>158.168276</ele>
        <time>2020-07-28T10:08:28.201Z</time>
      </trkpt>
      <trkpt lat="61.56868" lon="5.58093">
        <ele>157.29014</ele>
        <time>2020-07-28T10:08:29.239Z</time>
      </trkpt>
      <trkpt lat="61.56867" lon="5.58065">
        <ele>156.412003</ele>
        <time>2020-07-28T10:08:30.202Z</time>
      </trkpt>
      <trkpt lat="61.56866" lon="5.58037">
        <ele>155.5354</ele>
        <time>2020-07-28T10:08:31.199Z</time>
      </trkpt>
      <trkpt lat="61.56865" lon="5.58009">
        <ele>154.659212</ele>
        <time>2020-07-28T10:08:32.202Z</time>
      </trkpt>
      <trkpt lat="61.56865" lon="5.5798">
        <ele>153.772039</ele>
        <time>2020-07-28T10:08:33.238Z</time>
      </trkpt>
      <trkpt lat="61.56865" lon="5.57952">
        <ele>152.87814</ele>
        <time>2020-07-28T10:08:34.230Z</time>
      </trkpt>
      <trkpt lat="61.56866" lon="5.57921">
        <ele>151.939804</ele>
        <time>2020-07-28T10:08:35.227Z</time>
      </trkpt>
      <trkpt lat="61.56868" lon="5.57892">
        <ele>151.005631</ele>
        <time>2020-07-28T10:08:36.235Z</time>
      </trkpt>
      <trkpt lat="61.5687" lon="5.57862">
        <ele>150.097351</ele>
        <time>2020-07-28T10:08:37.202Z</time>
      </trkpt>
      <trkpt lat="61.56874" lon="5.57833">
        <ele>149.206065</ele>
        <time>2020-07-28T10:08:38.191Z</time>
      </trkpt>
      <trkpt lat="61.56877" lon="5.57802">
        <ele>148.283747</ele>
        <time>2020-07-28T10:08:39.200Z</time>
      </trkpt>
      <trkpt lat="61.56882" lon="5.57773">
        <ele>147.417957</ele>
        <time>2020-07-28T10:08:40.210Z</time>
      </trkpt>
      <trkpt lat="61.56886" lon="5.57745">
        <ele>146.553862</ele>
        <time>2020-07-28T10:08:41.197Z</time>
      </trkpt>
      <trkpt lat="61.56891" lon="5.57717">
        <ele>145.696597</ele>
        <time>2020-07-28T10:08:42.203Z</time>
      </trkpt>
      <trkpt lat="61.56895" lon="5.57689">
        <ele>144.844666</ele>
        <time>2020-07-28T10:08:43.212Z</time>
      </trkpt>
      <trkpt lat="61.56899" lon="5.57662">
        <ele>144.002008</ele>
        <time>2020-07-28T10:08:44.231Z</time>
      </trkpt>
      <trkpt lat="61.56903" lon="5.57634">
        <ele>143.157423</ele>
        <time>2020-07-28T10:08:45.241Z</time>
      </trkpt>
      <trkpt lat="61.56907" lon="5.57606">
        <ele>142.299929</ele>
        <time>2020-07-28T10:08:46.206Z</time>
      </trkpt>
      <trkpt lat="61.56911" lon="5.57577">
        <ele>141.434093</ele>
        <time>2020-07-28T10:08:47.206Z</time>
      </trkpt>
      <trkpt lat="61.56915" lon="5.57548">
        <ele>140.54038</ele>
        <time>2020-07-28T10:08:48.202Z</time>
      </trkpt>
      <trkpt lat="61.56916" lon="5.57515">
        <ele>139.599063</ele>
        <time>2020-07-28T10:08:49.215Z</time>
      </trkpt>
      <trkpt lat="61.56917" lon="5.57484">
        <ele>138.403743</ele>
        <time>2020-07-28T10:08:50.201Z</time>
      </trkpt>
      <trkpt lat="61.56917" lon="5.57455">
        <ele>137.25211</ele>
        <time>2020-07-28T10:08:51.216Z</time>
      </trkpt>
      <trkpt lat="61.56915" lon="5.57425">
        <ele>136.077265</ele>
        <time>2020-07-28T10:08:52.203Z</time>
      </trkpt>
      <trkpt lat="61.56913" lon="5.57398">
        <ele>134.965714</ele>
        <time>2020-07-28T10:08:53.214Z</time>
      </trkpt>
      <trkpt lat="61.56913" lon="5.57371">
        <ele>133.909303</ele>
        <time>2020-07-28T10:08:54.238Z</time>
      </trkpt>
      <trkpt lat="61.56913" lon="5.57344">
        <ele>132.841478</ele>
        <time>2020-07-28T10:08:55.227Z</time>
      </trkpt>
      <trkpt lat="61.56913" lon="5.57317">
        <ele>131.765747</ele>
        <time>2020-07-28T10:08:56.225Z</time>
      </trkpt>
      <trkpt lat="61.56913" lon="5.5729">
        <ele>130.67782</ele>
        <time>2020-07-28T10:08:57.203Z</time>
      </trkpt>
      <trkpt lat="61.56915" lon="5.57261">
        <ele>129.531547</ele>
        <time>2020-07-28T10:08:58.228Z</time>
      </trkpt>
      <trkpt lat="61.56917" lon="5.57233">
        <ele>128.395875</ele>
        <time>2020-07-28T10:08:59.203Z</time>
      </trkpt>
      <trkpt lat="61.5692" lon="5.57204">
        <ele>127.249434</ele>
        <time>2020-07-28T10:09:00.251Z</time>
      </trkpt>
      <trkpt lat="61.56922" lon="5.57176">
        <ele>126.114702</ele>
        <time>2020-07-28T10:09:01.204Z</time>
      </trkpt>
      <trkpt lat="61.56925" lon="5.57148">
        <ele>124.975112</ele>
        <time>2020-07-28T10:09:02.212Z</time>
      </trkpt>
      <trkpt lat="61.56928" lon="5.57121">
        <ele>123.96381</ele>
        <time>2020-07-28T10:09:03.209Z</time>
      </trkpt>
      <trkpt lat="61.56932" lon="5.57093">
        <ele>123.05218</ele>
        <time>2020-07-28T10:09:04.195Z</time>
      </trkpt>
      <trkpt lat="61.56936" lon="5.57065">
        <ele>122.135528</ele>
        <time>2020-07-28T10:09:05.224Z</time>
      </trkpt>
      <trkpt lat="61.5694" lon="5.57037">
        <ele>121.191555</ele>
        <time>2020-07-28T10:09:06.229Z</time>
      </trkpt>
      <trkpt lat="61.56945" lon="5.57009">
        <ele>120.237321</ele>
        <time>2020-07-28T10:09:07.194Z</time>
      </trkpt>
      <trkpt lat="61.56951" lon="5.56981">
        <ele>119.270456</ele>
        <time>2020-07-28T10:09:08.202Z</time>
      </trkpt>
      <trkpt lat="61.56956" lon="5.56953">
        <ele>118.315386</ele>
        <time>2020-07-28T10:09:09.235Z</time>
      </trkpt>
      <trkpt lat="61.56961" lon="5.56925">
        <ele>117.348038</ele>
        <time>2020-07-28T10:09:10.221Z</time>
      </trkpt>
      <trkpt lat="61.56967" lon="5.56897">
        <ele>116.393698</ele>
        <time>2020-07-28T10:09:11.195Z</time>
      </trkpt>
      <trkpt lat="61.56972" lon="5.56869">
        <ele>115.438183</ele>
        <time>2020-07-28T10:09:12.191Z</time>
      </trkpt>
      <trkpt lat="61.56978" lon="5.56842">
        <ele>114.480919</ele>
        <time>2020-07-28T10:09:13.204Z</time>
      </trkpt>
      <trkpt lat="61.56983" lon="5.56815">
        <ele>113.55304</ele>
        <time>2020-07-28T10:09:14.222Z</time>
      </trkpt>
      <trkpt lat="61.56989" lon="5.56789">
        <ele>112.645307</ele>
        <time>2020-07-28T10:09:15.199Z</time>
      </trkpt>
      <trkpt lat="61.56995" lon="5.56764">
        <ele>112.097808</ele>
        <time>2020-07-28T10:09:16.207Z</time>
      </trkpt>
      <trkpt lat="61.57" lon="5.56739">
        <ele>111.699756</ele>
        <time>2020-07-28T10:09:17.211Z</time>
      </trkpt>
      <trkpt lat="61.57004" lon="5.56715">
        <ele>111.324876</ele>
        <time>2020-07-28T10:09:18.239Z</time>
      </trkpt>
      <trkpt lat="61.57008" lon="5.56692">
        <ele>110.950785</ele>
        <time>2020-07-28T10:09:19.223Z</time>
      </trkpt>
      <trkpt lat="61.57011" lon="5.56668">
        <ele>110.591572</ele>
        <time>2020-07-28T10:09:20.215Z</time>
      </trkpt>
      <trkpt lat="61.57014" lon="5.56645">
        <ele>110.239429</ele>
        <time>2020-07-28T10:09:21.199Z</time>
      </trkpt>
      <trkpt lat="61.57016" lon="5.56623">
        <ele>109.899991</ele>
        <time>2020-07-28T10:09:22.223Z</time>
      </trkpt>
      <trkpt lat="61.57017" lon="5.56601">
        <ele>109.573889</ele>
        <time>2020-07-28T10:09:23.197Z</time>
      </trkpt>
      <trkpt lat="61.57018" lon="5.56579">
        <ele>109.247788</ele>
        <time>2020-07-28T10:09:24.254Z</time>
      </trkpt>
      <trkpt lat="61.57018" lon="5.56557">
        <ele>108.927103</ele>
        <time>2020-07-28T10:09:25.216Z</time>
      </trkpt>
      <trkpt lat="61.57018" lon="5.56536">
        <ele>108.608007</ele>
        <time>2020-07-28T10:09:26.241Z</time>
      </trkpt>
      <trkpt lat="61.57017" lon="5.56515">
        <ele>108.295904</ele>
        <time>2020-07-28T10:09:27.250Z</time>
      </trkpt>
      <trkpt lat="61.57016" lon="5.56495">
        <ele>107.995539</ele>
        <time>2020-07-28T10:09:28.209Z</time>
      </trkpt>
      <trkpt lat="61.57013" lon="5.56475">
        <ele>107.698238</ele>
        <time>2020-07-28T10:09:29.216Z</time>
      </trkpt>
      <trkpt lat="61.57011" lon="5.56457">
        <ele>107.409229</ele>
        <time>2020-07-28T10:09:30.230Z</time>
      </trkpt>
      <trkpt lat="61.57005" lon="5.56423">
        <ele>106.886929</ele>
        <time>2020-07-28T10:09:32.194Z</time>
      </trkpt>
      <trkpt lat="61.56999" lon="5.56392">
        <ele>106.742564</ele>
        <time>2020-07-28T10:09:34.198Z</time>
      </trkpt>
      <trkpt lat="61.56992" lon="5.56362">
        <ele>106.679778</ele>
        <time>2020-07-28T10:09:36.230Z</time>
      </trkpt>
      <trkpt lat="61.56985" lon="5.56333">
        <ele>106.618565</ele>
        <time>2020-07-28T10:09:38.220Z</time>
      </trkpt>
      <trkpt lat="61.56979" lon="5.56303">
        <ele>106.556599</ele>
        <time>2020-07-28T10:09:40.230Z</time>
      </trkpt>
      <trkpt lat="61.56973" lon="5.56273">
        <ele>106.496274</ele>
        <time>2020-07-28T10:09:42.217Z</time>
      </trkpt>
      <trkpt lat="61.56968" lon="5.56244">
        <ele>106.437042</ele>
        <time>2020-07-28T10:09:44.209Z</time>
      </trkpt>
      <trkpt lat="61.56963" lon="5.56211">
        <ele>106.373058</ele>
        <time>2020-07-28T10:09:46.195Z</time>
      </trkpt>
      <trkpt lat="61.5696" lon="5.56178">
        <ele>106.30946</ele>
        <time>2020-07-28T10:09:48.202Z</time>
      </trkpt>
      <trkpt lat="61.56958" lon="5.56145">
        <ele>106.247329</ele>
        <time>2020-07-28T10:09:50.212Z</time>
      </trkpt>
      <trkpt lat="61.56957" lon="5.56113">
        <ele>106.186239</ele>
        <time>2020-07-28T10:09:52.228Z</time>
      </trkpt>
      <trkpt lat="61.56956" lon="5.5608">
        <ele>106.125235</ele>
        <time>2020-07-28T10:09:54.211Z</time>
      </trkpt>
      <trkpt lat="61.56955" lon="5.56048">
        <ele>106.238731</ele>
        <time>2020-07-28T10:09:56.196Z</time>
      </trkpt>
      <trkpt lat="61.56954" lon="5.56018">
        <ele>106.708413</ele>
        <time>2020-07-28T10:09:58.205Z</time>
      </trkpt>
      <trkpt lat="61.56953" lon="5.55989">
        <ele>107.16291</ele>
        <time>2020-07-28T10:10:00.215Z</time>
      </trkpt>
      <trkpt lat="61.56951" lon="5.5596">
        <ele>107.608505</ele>
        <time>2020-07-28T10:10:02.195Z</time>
      </trkpt>
      <trkpt lat="61.5695" lon="5.55934">
        <ele>108.006581</ele>
        <time>2020-07-28T10:10:04.220Z</time>
      </trkpt>
      <trkpt lat="61.5695" lon="5.55911">
        <ele>108.366202</ele>
        <time>2020-07-28T10:10:06.214Z</time>
      </trkpt>
      <trkpt lat="61.56949" lon="5.55888">
        <ele>108.711664</ele>
        <time>2020-07-28T10:10:08.208Z</time>
      </trkpt>
      <trkpt lat="61.56949" lon="5.55867">
        <ele>109.037605</ele>
        <time>2020-07-28T10:10:10.215Z</time>
      </trkpt>
      <trkpt lat="61.56948" lon="5.55847">
        <ele>109.345232</ele>
        <time>2020-07-28T10:10:12.205Z</time>
      </trkpt>
      <trkpt lat="61.56951" lon="5.5582">
        <ele>109.765822</ele>
        <time>2020-07-28T10:10:15.208Z</time>
      </trkpt>
      <trkpt lat="61.56952" lon="5.55794">
        <ele>110.17218</ele>
        <time>2020-07-28T10:10:18.208Z</time>
      </trkpt>
      <trkpt lat="61.56955" lon="5.55767">
        <ele>110.589162</ele>
        <time>2020-07-28T10:10:21.191Z</time>
      </trkpt>
      <trkpt lat="61.56958" lon="5.55739">
        <ele>111.027974</ele>
        <time>2020-07-28T10:10:24.225Z</time>
      </trkpt>
      <trkpt lat="61.56961" lon="5.55719">
        <ele>111.355136</ele>
        <time>2020-07-28T10:10:26.205Z</time>
      </trkpt>
      <trkpt lat="61.56964" lon="5.55699">
        <ele>111.683489</ele>
        <time>2020-07-28T10:10:28.213Z</time>
      </trkpt>
      <trkpt lat="61.56968" lon="5.55677">
        <ele>112.165243</ele>
        <time>2020-07-28T10:10:30.207Z</time>
      </trkpt>
      <trkpt lat="61.56973" lon="5.55654">
        <ele>112.842898</ele>
        <time>2020-07-28T10:10:32.195Z</time>
      </trkpt>
      <trkpt lat="61.56977" lon="5.55631">
        <ele>113.551093</ele>
        <time>2020-07-28T10:10:34.232Z</time>
      </trkpt>
      <trkpt lat="61.56982" lon="5.55604">
        <ele>114.327182</ele>
        <time>2020-07-28T10:10:36.239Z</time>
      </trkpt>
      <trkpt lat="61.56988" lon="5.55577">
        <ele>115.148689</ele>
        <time>2020-07-28T10:10:38.217Z</time>
      </trkpt>
      <trkpt lat="61.56994" lon="5.5555">
        <ele>115.958988</ele>
        <time>2020-07-28T10:10:40.227Z</time>
      </trkpt>
      <trkpt lat="61.56998" lon="5.55523">
        <ele>116.765216</ele>
        <time>2020-07-28T10:10:42.208Z</time>
      </trkpt>
      <trkpt lat="61.57002" lon="5.55495">
        <ele>117.551046</ele>
        <time>2020-07-28T10:10:44.200Z</time>
      </trkpt>
      <trkpt lat="61.57006" lon="5.55469">
        <ele>118.320135</ele>
        <time>2020-07-28T10:10:46.207Z</time>
      </trkpt>
      <trkpt lat="61.5701" lon="5.55442">
        <ele>119.089463</ele>
        <time>2020-07-28T10:10:48.208Z</time>
      </trkpt>
      <trkpt lat="61.57013" lon="5.55417">
        <ele>119.815359</ele>
        <time>2020-07-28T10:10:50.198Z</time>
      </trkpt>
      <trkpt lat="61.57017" lon="5.55392">
        <ele>120.526841</ele>
        <time>2020-07-28T10:10:52.209Z</time>
      </trkpt>
      <trkpt lat="61.57021" lon="5.55369">
        <ele>121.210085</ele>
        <time>2020-07-28T10:10:54.206Z</time>
      </trkpt>
      <trkpt lat="61.57025" lon="5.55345">
        <ele>121.913996</ele>
        <time>2020-07-28T10:10:56.219Z</time>
      </trkpt>
      <trkpt lat="61.57028" lon="5.55321">
        <ele>122.288171</ele>
        <time>2020-07-28T10:10:58.225Z</time>
      </trkpt>
      <trkpt lat="61.57031" lon="5.553">
        <ele>122.248396</ele>
        <time>2020-07-28T10:11:00.245Z</time>
      </trkpt>
      <trkpt lat="61.57033" lon="5.55278">
        <ele>122.208877</ele>
        <time>2020-07-28T10:11:02.259Z</time>
      </trkpt>
      <trkpt lat="61.57035" lon="5.55255">
        <ele>122.168655</ele>
        <time>2020-07-28T10:11:04.218Z</time>
      </trkpt>
      <trkpt lat="61.57037" lon="5.55234">
        <ele>122.130274</ele>
        <time>2020-07-28T10:11:06.204Z</time>
      </trkpt>
      <trkpt lat="61.57039" lon="5.55213">
        <ele>122.092732</ele>
        <time>2020-07-28T10:11:08.216Z</time>
      </trkpt>
      <trkpt lat="61.57042" lon="5.55195">
        <ele>122.05854</ele>
        <time>2020-07-28T10:11:10.215Z</time>
      </trkpt>
      <trkpt lat="61.57044" lon="5.55176">
        <ele>122.024745</ele>
        <time>2020-07-28T10:11:12.231Z</time>
      </trkpt>
      <trkpt lat="61.57047" lon="5.55158">
        <ele>121.991186</ele>
        <time>2020-07-28T10:11:14.192Z</time>
      </trkpt>
      <trkpt lat="61.5705" lon="5.55135">
        <ele>121.947921</ele>
        <time>2020-07-28T10:11:17.203Z</time>
      </trkpt>
      <trkpt lat="61.57054" lon="5.55112">
        <ele>121.905465</ele>
        <time>2020-07-28T10:11:20.196Z</time>
      </trkpt>
      <trkpt lat="61.57058" lon="5.5509">
        <ele>121.863543</ele>
        <time>2020-07-28T10:11:23.212Z</time>
      </trkpt>
      <trkpt lat="61.57063" lon="5.5507">
        <ele>121.823176</ele>
        <time>2020-07-28T10:11:26.217Z</time>
      </trkpt>
      <trkpt lat="61.57068" lon="5.5505">
        <ele>121.784718</ele>
        <time>2020-07-28T10:11:29.212Z</time>
      </trkpt>
      <trkpt lat="61.57074" lon="5.55032">
        <ele>121.745999</ele>
        <time>2020-07-28T10:11:32.211Z</time>
      </trkpt>
      <trkpt lat="61.5708" lon="5.55015">
        <ele>121.708766</ele>
        <time>2020-07-28T10:11:35.221Z</time>
      </trkpt>
      <trkpt lat="61.57087" lon="5.54998">
        <ele>121.66807</ele>
        <time>2020-07-28T10:11:38.197Z</time>
      </trkpt>
      <trkpt lat="61.57095" lon="5.54981">
        <ele>121.538393</ele>
        <time>2020-07-28T10:11:41.218Z</time>
      </trkpt>
      <trkpt lat="61.57102" lon="5.54965">
        <ele>121.195886</ele>
        <time>2020-07-28T10:11:44.203Z</time>
      </trkpt>
      <trkpt lat="61.57111" lon="5.54949">
        <ele>120.837217</ele>
        <time>2020-07-28T10:11:47.194Z</time>
      </trkpt>
      <trkpt lat="61.57121" lon="5.54935">
        <ele>120.465341</ele>
        <time>2020-07-28T10:11:50.210Z</time>
      </trkpt>
      <trkpt lat="61.57131" lon="5.54919">
        <ele>120.074966</ele>
        <time>2020-07-28T10:11:53.210Z</time>
      </trkpt>
      <trkpt lat="61.57141" lon="5.54903">
        <ele>119.667683</ele>
        <time>2020-07-28T10:11:56.208Z</time>
      </trkpt>
      <trkpt lat="61.57149" lon="5.54893">
        <ele>119.379088</ele>
        <time>2020-07-28T10:11:58.231Z</time>
      </trkpt>
      <trkpt lat="61.57156" lon="5.5488">
        <ele>119.070708</ele>
        <time>2020-07-28T10:12:00.236Z</time>
      </trkpt>
      <trkpt lat="61.57165" lon="5.54868">
        <ele>118.735675</ele>
        <time>2020-07-28T10:12:02.217Z</time>
      </trkpt>
      <trkpt lat="61.57174" lon="5.54856">
        <ele>118.415387</ele>
        <time>2020-07-28T10:12:04.211Z</time>
      </trkpt>
      <trkpt lat="61.57181" lon="5.54842">
        <ele>118.108774</ele>
        <time>2020-07-28T10:12:06.204Z</time>
      </trkpt>
      <trkpt lat="61.57188" lon="5.54829">
        <ele>117.803549</ele>
        <time>2020-07-28T10:12:08.201Z</time>
      </trkpt>
      <trkpt lat="61.57196" lon="5.54816">
        <ele>117.494121</ele>
        <time>2020-07-28T10:12:10.216Z</time>
      </trkpt>
      <trkpt lat="61.57204" lon="5.54803">
        <ele>117.175508</ele>
        <time>2020-07-28T10:12:12.235Z</time>
      </trkpt>
      <trkpt lat="61.57212" lon="5.5479">
        <ele>116.856151</ele>
        <time>2020-07-28T10:12:14.193Z</time>
      </trkpt>
      <trkpt lat="61.5722" lon="5.54778">
        <ele>116.551854</ele>
        <time>2020-07-28T10:12:16.229Z</time>
      </trkpt>
      <trkpt lat="61.57227" lon="5.54766">
        <ele>116.253434</ele>
        <time>2020-07-28T10:12:18.203Z</time>
      </trkpt>
      <trkpt lat="61.57235" lon="5.54752">
        <ele>115.920711</ele>
        <time>2020-07-28T10:12:20.220Z</time>
      </trkpt>
      <trkpt lat="61.57244" lon="5.54733">
        <ele>115.293644</ele>
        <time>2020-07-28T10:12:23.227Z</time>
      </trkpt>
      <trkpt lat="61.57254" lon="5.54715">
        <ele>114.66749</ele>
        <time>2020-07-28T10:12:26.196Z</time>
      </trkpt>
      <trkpt lat="61.57263" lon="5.54697">
        <ele>114.063981</ele>
        <time>2020-07-28T10:12:29.203Z</time>
      </trkpt>
      <trkpt lat="61.57272" lon="5.5468">
        <ele>113.477764</ele>
        <time>2020-07-28T10:12:32.218Z</time>
      </trkpt>
      <trkpt lat="61.57281" lon="5.54663">
        <ele>112.898326</ele>
        <time>2020-07-28T10:12:35.190Z</time>
      </trkpt>
      <trkpt lat="61.57287" lon="5.54649">
        <ele>112.446608</ele>
        <time>2020-07-28T10:12:37.204Z</time>
      </trkpt>
      <trkpt lat="61.57294" lon="5.54635">
        <ele>112.003166</ele>
        <time>2020-07-28T10:12:39.200Z</time>
      </trkpt>
      <trkpt lat="61.573" lon="5.54622">
        <ele>111.568168</ele>
        <time>2020-07-28T10:12:41.196Z</time>
      </trkpt>
      <trkpt lat="61.57306" lon="5.54608">
        <ele>111.133216</ele>
        <time>2020-07-28T10:12:43.217Z</time>
      </trkpt>
      <trkpt lat="61.57314" lon="5.54587">
        <ele>110.510466</ele>
        <time>2020-07-28T10:12:46.219Z</time>
      </trkpt>
      <trkpt lat="61.57322" lon="5.54567">
        <ele>109.9012</ele>
        <time>2020-07-28T10:12:49.213Z</time>
      </trkpt>
      <trkpt lat="61.5733" lon="5.54546">
        <ele>109.285328</ele>
        <time>2020-07-28T10:12:52.202Z</time>
      </trkpt>
      <trkpt lat="61.57336" lon="5.54531">
        <ele>108.838027</ele>
        <time>2020-07-28T10:12:54.193Z</time>
      </trkpt>
      <trkpt lat="61.57342" lon="5.54515">
        <ele>108.370809</ele>
        <time>2020-07-28T10:12:56.211Z</time>
      </trkpt>
      <trkpt lat="61.57349" lon="5.54499">
        <ele>107.894807</ele>
        <time>2020-07-28T10:12:58.221Z</time>
      </trkpt>
      <trkpt lat="61.57356" lon="5.54483">
        <ele>107.384256</ele>
        <time>2020-07-28T10:13:00.222Z</time>
      </trkpt>
      <trkpt lat="61.57364" lon="5.54466">
        <ele>107.070142</ele>
        <time>2020-07-28T10:13:02.228Z</time>
      </trkpt>
      <trkpt lat="61.57371" lon="5.5445">
        <ele>106.811698</ele>
        <time>2020-07-28T10:13:04.199Z</time>
      </trkpt>
      <trkpt lat="61.57379" lon="5.54432">
        <ele>106.551474</ele>
        <time>2020-07-28T10:13:06.200Z</time>
      </trkpt>
      <trkpt lat="61.57386" lon="5.54413">
        <ele>106.275834</ele>
        <time>2020-07-28T10:13:08.196Z</time>
      </trkpt>
      <trkpt lat="61.57394" lon="5.54392">
        <ele>105.988158</ele>
        <time>2020-07-28T10:13:10.204Z</time>
      </trkpt>
      <trkpt lat="61.57401" lon="5.5437">
        <ele>105.697132</ele>
        <time>2020-07-28T10:13:12.202Z</time>
      </trkpt>
      <trkpt lat="61.57407" lon="5.54345">
        <ele>105.38693</ele>
        <time>2020-07-28T10:13:14.206Z</time>
      </trkpt>
      <trkpt lat="61.57414" lon="5.54318">
        <ele>105.0444</ele>
        <time>2020-07-28T10:13:16.205Z</time>
      </trkpt>
      <trkpt lat="61.57421" lon="5.54288">
        <ele>104.678344</ele>
        <time>2020-07-28T10:13:18.199Z</time>
      </trkpt>
      <trkpt lat="61.57428" lon="5.54258">
        <ele>104.311225</ele>
        <time>2020-07-28T10:13:20.253Z</time>
      </trkpt>
      <trkpt lat="61.57434" lon="5.54228">
        <ele>103.955846</ele>
        <time>2020-07-28T10:13:22.219Z</time>
      </trkpt>
      <trkpt lat="61.57439" lon="5.54199">
        <ele>103.60708</ele>
        <time>2020-07-28T10:13:24.193Z</time>
      </trkpt>
      <trkpt lat="61.57443" lon="5.54171">
        <ele>103.285562</ele>
        <time>2020-07-28T10:13:26.204Z</time>
      </trkpt>
      <trkpt lat="61.57448" lon="5.54145">
        <ele>103.374627</ele>
        <time>2020-07-28T10:13:28.240Z</time>
      </trkpt>
      <trkpt lat="61.57454" lon="5.54121">
        <ele>104.015973</ele>
        <time>2020-07-28T10:13:30.212Z</time>
      </trkpt>
      <trkpt lat="61.57458" lon="5.54099">
        <ele>104.552379</ele>
        <time>2020-07-28T10:13:32.214Z</time>
      </trkpt>
      <trkpt lat="61.5746" lon="5.54081">
        <ele>105.004659</ele>
        <time>2020-07-28T10:13:34.201Z</time>
      </trkpt>
      <trkpt lat="61.57462" lon="5.54059">
        <ele>105.550738</ele>
        <time>2020-07-28T10:13:37.213Z</time>
      </trkpt>
      <trkpt lat="61.57464" lon="5.5404">
        <ele>105.999752</ele>
        <time>2020-07-28T10:13:40.216Z</time>
      </trkpt>
      <trkpt lat="61.57466" lon="5.54016">
        <ele>106.578032</ele>
        <time>2020-07-28T10:13:44.217Z</time>
      </trkpt>
      <trkpt lat="61.57468" lon="5.53995">
        <ele>107.101518</ele>
        <time>2020-07-28T10:13:48.203Z</time>
      </trkpt>
      <trkpt lat="61.5747" lon="5.53975">
        <ele>107.575385</ele>
        <time>2020-07-28T10:13:52.203Z</time>
      </trkpt>
      <trkpt lat="61.57472" lon="5.53955">
        <ele>108.051667</ele>
        <time>2020-07-28T10:13:56.225Z</time>
      </trkpt>
      <trkpt lat="61.57473" lon="5.53933">
        <ele>108.581978</ele>
        <time>2020-07-28T10:14:01.223Z</time>
      </trkpt>
      <trkpt lat="61.57474" lon="5.53912">
        <ele>109.087403</ele>
        <time>2020-07-28T10:14:06.197Z</time>
      </trkpt>
      <trkpt lat="61.57475" lon="5.53893">
        <ele>109.534037</ele>
        <time>2020-07-28T10:14:10.195Z</time>
      </trkpt>
      <trkpt lat="61.57475" lon="5.53871">
        <ele>110.059417</ele>
        <time>2020-07-28T10:14:15.208Z</time>
      </trkpt>
      <trkpt lat="61.57475" lon="5.53849">
        <ele>110.594012</ele>
        <time>2020-07-28T10:14:20.210Z</time>
      </trkpt>
      <trkpt lat="61.57476" lon="5.53829">
        <ele>111.067697</ele>
        <time>2020-07-28T10:14:25.212Z</time>
      </trkpt>
      <trkpt lat="61.57477" lon="5.53809">
        <ele>111.535422</ele>
        <time>2020-07-28T10:14:29.237Z</time>
      </trkpt>
      <trkpt lat="61.57478" lon="5.53788">
        <ele>112.051788</ele>
        <time>2020-07-28T10:14:34.207Z</time>
      </trkpt>
      <trkpt lat="61.57479" lon="5.53769">
        <ele>112.421433</ele>
        <time>2020-07-28T10:14:38.245Z</time>
      </trkpt>
      <trkpt lat="61.5748" lon="5.53748">
        <ele>112.81993</ele>
        <time>2020-07-28T10:14:42.223Z</time>
      </trkpt>
      <trkpt lat="61.57482" lon="5.53726">
        <ele>113.250415</ele>
        <time>2020-07-28T10:14:47.216Z</time>
      </trkpt>
      <trkpt lat="61.57484" lon="5.53703">
        <ele>113.685747</ele>
        <time>2020-07-28T10:14:52.217Z</time>
      </trkpt>
      <trkpt lat="61.57485" lon="5.53683">
        <ele>114.065263</ele>
        <time>2020-07-28T10:14:56.215Z</time>
      </trkpt>
      <trkpt lat="61.57488" lon="5.53661">
        <ele>114.500223</ele>
        <time>2020-07-28T10:15:01.203Z</time>
      </trkpt>
      <trkpt lat="61.57491" lon="5.53641">
        <ele>114.911312</ele>
        <time>2020-07-28T10:15:05.228Z</time>
      </trkpt>
      <trkpt lat="61.57494" lon="5.53621">
        <ele>115.298051</ele>
        <time>2020-07-28T10:15:09.204Z</time>
      </trkpt>
      <trkpt lat="61.57497" lon="5.53603">
        <ele>115.670302</ele>
        <time>2020-07-28T10:15:13.213Z</time>
      </trkpt>
      <trkpt lat="61.57501" lon="5.53584">
        <ele>116.054985</ele>
        <time>2020-07-28T10:15:17.197Z</time>
      </trkpt>
      <trkpt lat="61.57505" lon="5.53564">
        <ele>116.475171</ele>
        <time>2020-07-28T10:15:21.245Z</time>
      </trkpt>
      <trkpt lat="61.57509" lon="5.53543">
        <ele>116.903347</ele>
        <time>2020-07-28T10:15:25.212Z</time>
      </trkpt>
      <trkpt lat="61.57513" lon="5.53522">
        <ele>117.340944</ele>
        <time>2020-07-28T10:15:29.204Z</time>
      </trkpt>
      <trkpt lat="61.57518" lon="5.53502">
        <ele>117.776953</ele>
        <time>2020-07-28T10:15:33.218Z</time>
      </trkpt>
      <trkpt lat="61.57523" lon="5.53483">
        <ele>118.180826</ele>
        <time>2020-07-28T10:15:37.198Z</time>
      </trkpt>
      <trkpt lat="61.57527" lon="5.53464">
        <ele>118.577652</ele>
        <time>2020-07-28T10:15:41.209Z</time>
      </trkpt>
      <trkpt lat="61.57532" lon="5.53446">
        <ele>118.975666</ele>
        <time>2020-07-28T10:15:45.233Z</time>
      </trkpt>
      <trkpt lat="61.57537" lon="5.53427">
        <ele>119.327064</ele>
        <time>2020-07-28T10:15:49.212Z</time>
      </trkpt>
      <trkpt lat="61.57543" lon="5.53407">
        <ele>119.544438</ele>
        <time>2020-07-28T10:15:53.207Z</time>
      </trkpt>
      <trkpt lat="61.57548" lon="5.53387">
        <ele>119.765327</ele>
        <time>2020-07-28T10:15:57.203Z</time>
      </trkpt>
      <trkpt lat="61.57552" lon="5.53365">
        <ele>119.983559</ele>
        <time>2020-07-28T10:16:01.236Z</time>
      </trkpt>
      <trkpt lat="61.57556" lon="5.53345">
        <ele>120.189398</ele>
        <time>2020-07-28T10:16:05.202Z</time>
      </trkpt>
      <trkpt lat="61.5756" lon="5.53324">
        <ele>120.402645</ele>
        <time>2020-07-28T10:16:09.201Z</time>
      </trkpt>
      <trkpt lat="61.57562" lon="5.53302">
        <ele>120.612402</ele>
        <time>2020-07-28T10:16:13.241Z</time>
      </trkpt>
      <trkpt lat="61.57562" lon="5.53281">
        <ele>120.817138</ele>
        <time>2020-07-28T10:16:17.209Z</time>
      </trkpt>
      <trkpt lat="61.57563" lon="5.5326">
        <ele>121.019235</ele>
        <time>2020-07-28T10:16:22.230Z</time>
      </trkpt>
      <trkpt lat="61.57563" lon="5.53236">
        <ele>121.239177</ele>
        <time>2020-07-28T10:16:27.215Z</time>
      </trkpt>
      <trkpt lat="61.57563" lon="5.53217">
        <ele>121.424932</ele>
        <time>2020-07-28T10:16:31.197Z</time>
      </trkpt>
      <trkpt lat="61.57564" lon="5.53194">
        <ele>121.643337</ele>
        <time>2020-07-28T10:16:36.233Z</time>
      </trkpt>
      <trkpt lat="61.57564" lon="5.53174">
        <ele>121.836662</ele>
        <time>2020-07-28T10:16:40.269Z</time>
      </trkpt>
      <trkpt lat="61.57564" lon="5.53151">
        <ele>122.051867</ele>
        <time>2020-07-28T10:16:45.231Z</time>
      </trkpt>
      <trkpt lat="61.57565" lon="5.53131">
        <ele>122.237878</ele>
        <time>2020-07-28T10:16:50.220Z</time>
      </trkpt>
      <trkpt lat="61.57565" lon="5.5311">
        <ele>122.437049</ele>
        <time>2020-07-28T10:16:56.202Z</time>
      </trkpt>
      <trkpt lat="61.57566" lon="5.53089">
        <ele>122.637047</ele>
        <time>2020-07-28T10:17:01.235Z</time>
      </trkpt>
      <trkpt lat="61.57564" lon="5.53067">
        <ele>122.864796</ele>
        <time>2020-07-28T10:17:06.204Z</time>
      </trkpt>
      <trkpt lat="61.57563" lon="5.53045">
        <ele>123.551598</ele>
        <time>2020-07-28T10:17:11.210Z</time>
      </trkpt>
      <trkpt lat="61.57564" lon="5.53025">
        <ele>124.185225</ele>
        <time>2020-07-28T10:17:16.211Z</time>
      </trkpt>
      <trkpt lat="61.57564" lon="5.53005">
        <ele>124.822195</ele>
        <time>2020-07-28T10:17:21.204Z</time>
      </trkpt>
      <trkpt lat="61.57564" lon="5.52986">
        <ele>125.423454</ele>
        <time>2020-07-28T10:17:26.198Z</time>
      </trkpt>
      <trkpt lat="61.57564" lon="5.52965">
        <ele>126.068765</ele>
        <time>2020-07-28T10:17:31.194Z</time>
      </trkpt>
      <trkpt lat="61.57564" lon="5.52943">
        <ele>126.777655</ele>
        <time>2020-07-28T10:17:37.206Z</time>
      </trkpt>
      <trkpt lat="61.57565" lon="5.52923">
        <ele>127.413686</ele>
        <time>2020-07-28T10:17:42.232Z</time>
      </trkpt>
      <trkpt lat="61.57565" lon="5.52904">
        <ele>128.017947</ele>
        <time>2020-07-28T10:17:47.201Z</time>
      </trkpt>
      <trkpt lat="61.57567" lon="5.52882">
        <ele>128.699968</ele>
        <time>2020-07-28T10:17:53.197Z</time>
      </trkpt>
      <trkpt lat="61.57568" lon="5.52863">
        <ele>129.313991</ele>
        <time>2020-07-28T10:17:58.233Z</time>
      </trkpt>
      <trkpt lat="61.57568" lon="5.52841">
        <ele>130.003733</ele>
        <time>2020-07-28T10:18:03.231Z</time>
      </trkpt>
      <trkpt lat="61.5757" lon="5.52819">
        <ele>130.695036</ele>
        <time>2020-07-28T10:18:08.200Z</time>
      </trkpt>
      <trkpt lat="61.5757" lon="5.52798">
        <ele>131.36568</ele>
        <time>2020-07-28T10:18:13.210Z</time>
      </trkpt>
      <trkpt lat="61.57569" lon="5.52777">
        <ele>132.022429</ele>
        <time>2020-07-28T10:18:18.211Z</time>
      </trkpt>
      <trkpt lat="61.5757" lon="5.52756">
        <ele>132.703795</ele>
        <time>2020-07-28T10:18:24.210Z</time>
      </trkpt>
      <trkpt lat="61.57571" lon="5.52736">
        <ele>133.315541</ele>
        <time>2020-07-28T10:18:29.213Z</time>
      </trkpt>
      <trkpt lat="61.57571" lon="5.52717">
        <ele>133.935678</ele>
        <time>2020-07-28T10:18:35.204Z</time>
      </trkpt>
      <trkpt lat="61.57575" lon="5.52696">
        <ele>134.613766</ele>
        <time>2020-07-28T10:18:41.221Z</time>
      </trkpt>
      <trkpt lat="61.57577" lon="5.52678">
        <ele>134.848248</ele>
        <time>2020-07-28T10:18:47.201Z</time>
      </trkpt>
      <trkpt lat="61.57579" lon="5.52658">
        <ele>135.000636</ele>
        <time>2020-07-28T10:18:54.210Z</time>
      </trkpt>
      <trkpt lat="61.5758" lon="5.52636">
        <ele>135.15838</ele>
        <time>2020-07-28T10:18:59.199Z</time>
      </trkpt>
      <trkpt lat="61.57583" lon="5.52618">
        <ele>135.299487</ele>
        <time>2020-07-28T10:19:04.204Z</time>
      </trkpt>
      <trkpt lat="61.57584" lon="5.52597">
        <ele>135.455424</ele>
        <time>2020-07-28T10:19:10.205Z</time>
      </trkpt>
      <trkpt lat="61.57584" lon="5.52577">
        <ele>135.604876</ele>
        <time>2020-07-28T10:19:16.231Z</time>
      </trkpt>
      <trkpt lat="61.57585" lon="5.52558">
        <ele>135.746747</ele>
        <time>2020-07-28T10:19:21.203Z</time>
      </trkpt>
      <trkpt lat="61.57586" lon="5.52539">
        <ele>135.888436</ele>
        <time>2020-07-28T10:19:26.213Z</time>
      </trkpt>
      <trkpt lat="61.57587" lon="5.52519">
        <ele>136.037022</ele>
        <time>2020-07-28T10:19:32.195Z</time>
      </trkpt>
      <trkpt lat="61.57589" lon="5.52498">
        <ele>136.192758</ele>
        <time>2020-07-28T10:19:39.240Z</time>
      </trkpt>
      <trkpt lat="61.57589" lon="5.52477">
        <ele>136.345161</ele>
        <time>2020-07-28T10:19:45.211Z</time>
      </trkpt>
      <trkpt lat="61.57589" lon="5.52458">
        <ele>136.4924</ele>
        <time>2020-07-28T10:19:50.223Z</time>
      </trkpt>
      <trkpt lat="61.57587" lon="5.52436">
        <ele>136.652223</ele>
        <time>2020-07-28T10:19:55.216Z</time>
      </trkpt>
      <trkpt lat="61.57585" lon="5.52415">
        <ele>136.81046</ele>
        <time>2020-07-28T10:20:00.207Z</time>
      </trkpt>
      <trkpt lat="61.57583" lon="5.52396">
        <ele>136.95853</ele>
        <time>2020-07-28T10:20:06.203Z</time>
      </trkpt>
      <trkpt lat="61.5758" lon="5.52377">
        <ele>137.099638</ele>
        <time>2020-07-28T10:20:12.223Z</time>
      </trkpt>
      <trkpt lat="61.5758" lon="5.52358">
        <ele>137.244464</ele>
        <time>2020-07-28T10:20:18.220Z</time>
      </trkpt>
      <trkpt lat="61.57577" lon="5.52338">
        <ele>137.400106</ele>
        <time>2020-07-28T10:20:26.200Z</time>
      </trkpt>
      <trkpt lat="61.57572" lon="5.52322">
        <ele>137.603768</ele>
        <time>2020-07-28T10:20:31.215Z</time>
      </trkpt>
      <trkpt lat="61.57568" lon="5.52302">
        <ele>138.248878</ele>
        <time>2020-07-28T10:20:36.238Z</time>
      </trkpt>
      <trkpt lat="61.57566" lon="5.52284">
        <ele>138.825571</ele>
        <time>2020-07-28T10:20:41.210Z</time>
      </trkpt>
      <trkpt lat="61.57562" lon="5.52264">
        <ele>139.501228</ele>
        <time>2020-07-28T10:20:47.275Z</time>
      </trkpt>
      <trkpt lat="61.5756" lon="5.52244">
        <ele>140.139569</ele>
        <time>2020-07-28T10:20:53.212Z</time>
      </trkpt>
      <trkpt lat="61.57554" lon="5.52225">
        <ele>140.825204</ele>
        <time>2020-07-28T10:20:59.217Z</time>
      </trkpt>
      <trkpt lat="61.57549" lon="5.52207">
        <ele>141.445759</ele>
        <time>2020-07-28T10:21:05.195Z</time>
      </trkpt>
      <trkpt lat="61.57547" lon="5.52188">
        <ele>142.050812</ele>
        <time>2020-07-28T10:21:11.203Z</time>
      </trkpt>
      <trkpt lat="61.57545" lon="5.52169">
        <ele>142.644269</ele>
        <time>2020-07-28T10:21:17.195Z</time>
      </trkpt>
      <trkpt lat="61.57541" lon="5.52152">
        <ele>143.230906</ele>
        <time>2020-07-28T10:21:22.236Z</time>
      </trkpt>
      <trkpt lat="61.57538" lon="5.52133">
        <ele>143.855318</ele>
        <time>2020-07-28T10:21:28.209Z</time>
      </trkpt>
      <trkpt lat="61.57534" lon="5.52115">
        <ele>144.468269</ele>
        <time>2020-07-28T10:21:34.198Z</time>
      </trkpt>
      <trkpt lat="61.5753" lon="5.52094">
        <ele>145.145144</ele>
        <time>2020-07-28T10:21:40.205Z</time>
      </trkpt>
      <trkpt lat="61.57527" lon="5.52075">
        <ele>145.770268</ele>
        <time>2020-07-28T10:21:46.206Z</time>
      </trkpt>
      <trkpt lat="61.57526" lon="5.52053">
        <ele>146.436275</ele>
        <time>2020-07-28T10:21:53.219Z</time>
      </trkpt>
      <trkpt lat="61.57521" lon="5.52035">
        <ele>147.104453</ele>
        <time>2020-07-28T10:22:01.198Z</time>
      </trkpt>
      <trkpt lat="61.57517" lon="5.52013">
        <ele>147.815694</ele>
        <time>2020-07-28T10:22:07.195Z</time>
      </trkpt>
      <trkpt lat="61.57515" lon="5.51993">
        <ele>148.461309</ele>
        <time>2020-07-28T10:22:12.215Z</time>
      </trkpt>
      <trkpt lat="61.57511" lon="5.51971">
        <ele>149.167992</ele>
        <time>2020-07-28T10:22:18.241Z</time>
      </trkpt>
      <trkpt lat="61.57509" lon="5.51952">
        <ele>149.688803</ele>
        <time>2020-07-28T10:22:24.215Z</time>
      </trkpt>
      <trkpt lat="61.57504" lon="5.51932">
        <ele>150.260739</ele>
        <time>2020-07-28T10:22:30.209Z</time>
      </trkpt>
      <trkpt lat="61.57502" lon="5.51914">
        <ele>150.781139</ele>
        <time>2020-07-28T10:22:36.197Z</time>
      </trkpt>
      <trkpt lat="61.57498" lon="5.51896">
        <ele>151.284914</ele>
        <time>2020-07-28T10:22:41.200Z</time>
      </trkpt>
      <trkpt lat="61.57495" lon="5.51877">
        <ele>151.811974</ele>
        <time>2020-07-28T10:22:47.204Z</time>
      </trkpt>
      <trkpt lat="61.57492" lon="5.51856">
        <ele>152.388226</ele>
        <time>2020-07-28T10:22:53.196Z</time>
      </trkpt>
      <trkpt lat="61.57489" lon="5.51835">
        <ele>152.978151</ele>
        <time>2020-07-28T10:22:59.209Z</time>
      </trkpt>
      <trkpt lat="61.57487" lon="5.51815">
        <ele>153.500494</ele>
        <time>2020-07-28T10:23:05.194Z</time>
      </trkpt>
      <trkpt lat="61.57485" lon="5.51796">
        <ele>154.025183</ele>
        <time>2020-07-28T10:23:12.199Z</time>
      </trkpt>
      <trkpt lat="61.57482" lon="5.51776">
        <ele>154.577503</ele>
        <time>2020-07-28T10:23:18.203Z</time>
      </trkpt>
      <trkpt lat="61.57479" lon="5.51756">
        <ele>155.133952</ele>
        <time>2020-07-28T10:23:24.201Z</time>
      </trkpt>
      <trkpt lat="61.57476" lon="5.51736">
        <ele>155.697908</ele>
        <time>2020-07-28T10:23:30.246Z</time>
      </trkpt>
      <trkpt lat="61.57473" lon="5.51715">
        <ele>156.254657</ele>
        <time>2020-07-28T10:23:36.209Z</time>
      </trkpt>
      <trkpt lat="61.5747" lon="5.51695">
        <ele>156.805449</ele>
        <time>2020-07-28T10:23:42.203Z</time>
      </trkpt>
      <trkpt lat="61.57468" lon="5.51674">
        <ele>157.385671</ele>
        <time>2020-07-28T10:23:48.265Z</time>
      </trkpt>
      <trkpt lat="61.57467" lon="5.51653">
        <ele>157.924129</ele>
        <time>2020-07-28T10:23:55.209Z</time>
      </trkpt>
      <trkpt lat="61.57465" lon="5.51632">
        <ele>158.486345</ele>
        <time>2020-07-28T10:24:01.223Z</time>
      </trkpt>
      <trkpt lat="61.57464" lon="5.51612">
        <ele>159.024569</ele>
        <time>2020-07-28T10:24:06.238Z</time>
      </trkpt>
      <trkpt lat="61.57463" lon="5.51591">
        <ele>159.451451</ele>
        <time>2020-07-28T10:24:13.225Z</time>
      </trkpt>
      <trkpt lat="61.57462" lon="5.51572">
        <ele>159.80941</ele>
        <time>2020-07-28T10:24:19.220Z</time>
      </trkpt>
      <trkpt lat="61.57463" lon="5.51554">
        <ele>160.168389</ele>
        <time>2020-07-28T10:24:25.198Z</time>
      </trkpt>
      <trkpt lat="61.57462" lon="5.51532">
        <ele>160.572161</ele>
        <time>2020-07-28T10:24:31.241Z</time>
      </trkpt>
      <trkpt lat="61.57462" lon="5.51512">
        <ele>160.96151</ele>
        <time>2020-07-28T10:24:36.207Z</time>
      </trkpt>
      <trkpt lat="61.57462" lon="5.51493">
        <ele>161.325802</ele>
        <time>2020-07-28T10:24:41.242Z</time>
      </trkpt>
      <trkpt lat="61.57461" lon="5.5147">
        <ele>161.749292</ele>
        <time>2020-07-28T10:24:46.224Z</time>
      </trkpt>
      <trkpt lat="61.57464" lon="5.51449">
        <ele>162.148571</ele>
        <time>2020-07-28T10:24:51.190Z</time>
      </trkpt>
      <trkpt lat="61.57465" lon="5.51429">
        <ele>162.537985</ele>
        <time>2020-07-28T10:24:56.207Z</time>
      </trkpt>
      <trkpt lat="61.57466" lon="5.51407">
        <ele>162.948049</ele>
        <time>2020-07-28T10:25:01.217Z</time>
      </trkpt>
      <trkpt lat="61.57468" lon="5.51389">
        <ele>163.316699</ele>
        <time>2020-07-28T10:25:05.222Z</time>
      </trkpt>
      <trkpt lat="61.57469" lon="5.51368">
        <ele>163.698783</ele>
        <time>2020-07-28T10:25:09.202Z</time>
      </trkpt>
      <trkpt lat="61.57471" lon="5.5135">
        <ele>164.05979</ele>
        <time>2020-07-28T10:25:13.213Z</time>
      </trkpt>
      <trkpt lat="61.57475" lon="5.51328">
        <ele>164.501476</ele>
        <time>2020-07-28T10:25:18.193Z</time>
      </trkpt>
      <trkpt lat="61.57479" lon="5.51307">
        <ele>164.936662</ele>
        <time>2020-07-28T10:25:22.212Z</time>
      </trkpt>
      <trkpt lat="61.57482" lon="5.51287">
        <ele>165.326294</ele>
        <time>2020-07-28T10:25:26.209Z</time>
      </trkpt>
      <trkpt lat="61.57486" lon="5.51265">
        <ele>165.767404</ele>
        <time>2020-07-28T10:25:30.221Z</time>
      </trkpt>
      <trkpt lat="61.57491" lon="5.51249">
        <ele>166.124189</ele>
        <time>2020-07-28T10:25:33.249Z</time>
      </trkpt>
      <trkpt lat="61.57496" lon="5.51232">
        <ele>166.22118</ele>
        <time>2020-07-28T10:25:36.200Z</time>
      </trkpt>
      <trkpt lat="61.57501" lon="5.51215">
        <ele>166.170466</ele>
        <time>2020-07-28T10:25:39.203Z</time>
      </trkpt>
      <trkpt lat="61.57506" lon="5.51197">
        <ele>166.113891</ele>
        <time>2020-07-28T10:25:42.227Z</time>
      </trkpt>
      <trkpt lat="61.57512" lon="5.51178">
        <ele>166.05592</ele>
        <time>2020-07-28T10:25:45.216Z</time>
      </trkpt>
      <trkpt lat="61.57518" lon="5.51159">
        <ele>165.993081</ele>
        <time>2020-07-28T10:25:48.212Z</time>
      </trkpt>
      <trkpt lat="61.57526" lon="5.51136">
        <ele>165.919647</ele>
        <time>2020-07-28T10:25:51.208Z</time>
      </trkpt>
      <trkpt lat="61.57534" lon="5.51113">
        <ele>165.844684</ele>
        <time>2020-07-28T10:25:54.239Z</time>
      </trkpt>
      <trkpt lat="61.57539" lon="5.51097">
        <ele>165.792757</ele>
        <time>2020-07-28T10:25:56.211Z</time>
      </trkpt>
      <trkpt lat="61.57546" lon="5.51079">
        <ele>165.733533</ele>
        <time>2020-07-28T10:25:58.249Z</time>
      </trkpt>
      <trkpt lat="61.57553" lon="5.5106">
        <ele>165.669913</ele>
        <time>2020-07-28T10:26:00.231Z</time>
      </trkpt>
      <trkpt lat="61.57561" lon="5.5104">
        <ele>165.601837</ele>
        <time>2020-07-28T10:26:02.215Z</time>
      </trkpt>
      <trkpt lat="61.57569" lon="5.51019">
        <ele>165.529629</ele>
        <time>2020-07-28T10:26:04.216Z</time>
      </trkpt>
      <trkpt lat="61.57578" lon="5.50997">
        <ele>165.453209</ele>
        <time>2020-07-28T10:26:06.213Z</time>
      </trkpt>
      <trkpt lat="61.57588" lon="5.50975">
        <ele>165.374505</ele>
        <time>2020-07-28T10:26:08.212Z</time>
      </trkpt>
      <trkpt lat="61.57598" lon="5.50952">
        <ele>165.293129</ele>
        <time>2020-07-28T10:26:10.256Z</time>
      </trkpt>
      <trkpt lat="61.57608" lon="5.50927">
        <ele>164.817203</ele>
        <time>2020-07-28T10:26:12.223Z</time>
      </trkpt>
      <trkpt lat="61.57619" lon="5.50901">
        <ele>164.086528</ele>
        <time>2020-07-28T10:26:14.219Z</time>
      </trkpt>
      <trkpt lat="61.57629" lon="5.5087">
        <ele>163.292085</ele>
        <time>2020-07-28T10:26:16.222Z</time>
      </trkpt>
      <trkpt lat="61.57634" lon="5.50854">
        <ele>162.887882</ele>
        <time>2020-07-28T10:26:17.215Z</time>
      </trkpt>
      <trkpt lat="61.5764" lon="5.50838">
        <ele>162.458026</ele>
        <time>2020-07-28T10:26:18.203Z</time>
      </trkpt>
      <trkpt lat="61.57645" lon="5.5082">
        <ele>162.014464</ele>
        <time>2020-07-28T10:26:19.237Z</time>
      </trkpt>
      <trkpt lat="61.57651" lon="5.50803">
        <ele>161.574362</ele>
        <time>2020-07-28T10:26:20.206Z</time>
      </trkpt>
      <trkpt lat="61.57657" lon="5.50786">
        <ele>161.121401</ele>
        <time>2020-07-28T10:26:21.205Z</time>
      </trkpt>
      <trkpt lat="61.57663" lon="5.50768">
        <ele>160.663188</ele>
        <time>2020-07-28T10:26:22.243Z</time>
      </trkpt>
      <trkpt lat="61.57669" lon="5.50751">
        <ele>160.207646</ele>
        <time>2020-07-28T10:26:23.210Z</time>
      </trkpt>
      <trkpt lat="61.57675" lon="5.50733">
        <ele>159.744384</ele>
        <time>2020-07-28T10:26:24.196Z</time>
      </trkpt>
      <trkpt lat="61.57681" lon="5.50715">
        <ele>159.281911</ele>
        <time>2020-07-28T10:26:25.209Z</time>
      </trkpt>
      <trkpt lat="61.57687" lon="5.50696">
        <ele>158.805734</ele>
        <time>2020-07-28T10:26:26.218Z</time>
      </trkpt>
      <trkpt lat="61.57693" lon="5.50677">
        <ele>158.332772</ele>
        <time>2020-07-28T10:26:27.195Z</time>
      </trkpt>
      <trkpt lat="61.57699" lon="5.50658">
        <ele>157.865235</ele>
        <time>2020-07-28T10:26:28.231Z</time>
      </trkpt>
      <trkpt lat="61.57705" lon="5.50639">
        <ele>157.38762</ele>
        <time>2020-07-28T10:26:29.199Z</time>
      </trkpt>
      <trkpt lat="61.5771" lon="5.5062">
        <ele>156.955599</ele>
        <time>2020-07-28T10:26:30.260Z</time>
      </trkpt>
      <trkpt lat="61.57716" lon="5.50601">
        <ele>156.537558</ele>
        <time>2020-07-28T10:26:31.244Z</time>
      </trkpt>
      <trkpt lat="61.57722" lon="5.50581">
        <ele>156.113661</ele>
        <time>2020-07-28T10:26:32.216Z</time>
      </trkpt>
      <trkpt lat="61.57727" lon="5.5056">
        <ele>155.687247</ele>
        <time>2020-07-28T10:26:33.209Z</time>
      </trkpt>
      <trkpt lat="61.57733" lon="5.5054">
        <ele>155.263352</ele>
        <time>2020-07-28T10:26:34.210Z</time>
      </trkpt>
      <trkpt lat="61.57738" lon="5.5052">
        <ele>154.835911</ele>
        <time>2020-07-28T10:26:35.225Z</time>
      </trkpt>
      <trkpt lat="61.57744" lon="5.505">
        <ele>154.402162</ele>
        <time>2020-07-28T10:26:36.285Z</time>
      </trkpt>
      <trkpt lat="61.5775" lon="5.50479">
        <ele>153.962073</ele>
        <time>2020-07-28T10:26:37.237Z</time>
      </trkpt>
      <trkpt lat="61.57755" lon="5.50458">
        <ele>153.521985</ele>
        <time>2020-07-28T10:26:38.221Z</time>
      </trkpt>
      <trkpt lat="61.57761" lon="5.50437">
        <ele>153.082711</ele>
        <time>2020-07-28T10:26:39.215Z</time>
      </trkpt>
      <trkpt lat="61.57766" lon="5.50416">
        <ele>152.647034</ele>
        <time>2020-07-28T10:26:40.224Z</time>
      </trkpt>
      <trkpt lat="61.57771" lon="5.50395">
        <ele>152.203195</ele>
        <time>2020-07-28T10:26:41.225Z</time>
      </trkpt>
      <trkpt lat="61.57776" lon="5.50372">
        <ele>151.749513</ele>
        <time>2020-07-28T10:26:42.230Z</time>
      </trkpt>
      <trkpt lat="61.57782" lon="5.5035">
        <ele>151.295868</ele>
        <time>2020-07-28T10:26:43.224Z</time>
      </trkpt>
      <trkpt lat="61.57787" lon="5.50328">
        <ele>150.845536</ele>
        <time>2020-07-28T10:26:44.198Z</time>
      </trkpt>
      <trkpt lat="61.57791" lon="5.50306">
        <ele>150.398446</ele>
        <time>2020-07-28T10:26:45.242Z</time>
      </trkpt>
      <trkpt lat="61.57796" lon="5.50283">
        <ele>149.937693</ele>
        <time>2020-07-28T10:26:46.217Z</time>
      </trkpt>
      <trkpt lat="61.57801" lon="5.50261">
        <ele>149.471164</ele>
        <time>2020-07-28T10:26:47.195Z</time>
      </trkpt>
      <trkpt lat="61.57806" lon="5.50238">
        <ele>149.006337</ele>
        <time>2020-07-28T10:26:48.204Z</time>
      </trkpt>
      <trkpt lat="61.57811" lon="5.50216">
        <ele>148.544899</ele>
        <time>2020-07-28T10:26:49.216Z</time>
      </trkpt>
      <trkpt lat="61.57816" lon="5.50194">
        <ele>148.073293</ele>
        <time>2020-07-28T10:26:50.204Z</time>
      </trkpt>
      <trkpt lat="61.57822" lon="5.50171">
        <ele>147.593206</ele>
        <time>2020-07-28T10:26:51.279Z</time>
      </trkpt>
      <trkpt lat="61.57827" lon="5.50147">
        <ele>147.104612</ele>
        <time>2020-07-28T10:26:52.202Z</time>
      </trkpt>
      <trkpt lat="61.57832" lon="5.50123">
        <ele>146.62071</ele>
        <time>2020-07-28T10:26:53.222Z</time>
      </trkpt>
      <trkpt lat="61.57836" lon="5.50101">
        <ele>146.154039</ele>
        <time>2020-07-28T10:26:54.212Z</time>
      </trkpt>
      <trkpt lat="61.57841" lon="5.50078">
        <ele>145.690913</ele>
        <time>2020-07-28T10:26:55.220Z</time>
      </trkpt>
      <trkpt lat="61.57846" lon="5.50056">
        <ele>145.219277</ele>
        <time>2020-07-28T10:26:56.207Z</time>
      </trkpt>
      <trkpt lat="61.57852" lon="5.50032">
        <ele>144.739163</ele>
        <time>2020-07-28T10:26:57.204Z</time>
      </trkpt>
      <trkpt lat="61.57856" lon="5.50008">
        <ele>144.248531</ele>
        <time>2020-07-28T10:26:58.232Z</time>
      </trkpt>
      <trkpt lat="61.57862" lon="5.49985">
        <ele>143.761586</ele>
        <time>2020-07-28T10:26:59.216Z</time>
      </trkpt>
      <trkpt lat="61.57867" lon="5.49961">
        <ele>143.255706</ele>
        <time>2020-07-28T10:27:00.211Z</time>
      </trkpt>
      <trkpt lat="61.57872" lon="5.49937">
        <ele>142.529963</ele>
        <time>2020-07-28T10:27:01.249Z</time>
      </trkpt>
      <trkpt lat="61.57877" lon="5.49914">
        <ele>141.813832</ele>
        <time>2020-07-28T10:27:02.236Z</time>
      </trkpt>
      <trkpt lat="61.57882" lon="5.4989">
        <ele>141.080551</ele>
        <time>2020-07-28T10:27:03.235Z</time>
      </trkpt>
      <trkpt lat="61.57887" lon="5.49866">
        <ele>140.35239</ele>
        <time>2020-07-28T10:27:04.207Z</time>
      </trkpt>
      <trkpt lat="61.57892" lon="5.49842">
        <ele>139.609093</ele>
        <time>2020-07-28T10:27:05.221Z</time>
      </trkpt>
      <trkpt lat="61.57898" lon="5.49819">
        <ele>138.875968</ele>
        <time>2020-07-28T10:27:06.213Z</time>
      </trkpt>
      <trkpt lat="61.57903" lon="5.49796">
        <ele>138.163017</ele>
        <time>2020-07-28T10:27:07.223Z</time>
      </trkpt>
      <trkpt lat="61.57909" lon="5.49774">
        <ele>137.461378</ele>
        <time>2020-07-28T10:27:08.223Z</time>
      </trkpt>
      <trkpt lat="61.57915" lon="5.49753">
        <ele>136.771443</ele>
        <time>2020-07-28T10:27:09.211Z</time>
      </trkpt>
      <trkpt lat="61.57921" lon="5.49732">
        <ele>136.090547</ele>
        <time>2020-07-28T10:27:10.240Z</time>
      </trkpt>
      <trkpt lat="61.57927" lon="5.49712">
        <ele>135.397077</ele>
        <time>2020-07-28T10:27:11.199Z</time>
      </trkpt>
      <trkpt lat="61.57934" lon="5.49692">
        <ele>134.719136</ele>
        <time>2020-07-28T10:27:12.205Z</time>
      </trkpt>
      <trkpt lat="61.57941" lon="5.49672">
        <ele>134.041196</ele>
        <time>2020-07-28T10:27:13.240Z</time>
      </trkpt>
      <trkpt lat="61.57947" lon="5.49653">
        <ele>133.370084</ele>
        <time>2020-07-28T10:27:14.214Z</time>
      </trkpt>
      <trkpt lat="61.57954" lon="5.49634">
        <ele>132.698668</ele>
        <time>2020-07-28T10:27:15.243Z</time>
      </trkpt>
      <trkpt lat="61.57961" lon="5.49615">
        <ele>132.313622</ele>
        <time>2020-07-28T10:27:16.233Z</time>
      </trkpt>
      <trkpt lat="61.57968" lon="5.49597">
        <ele>131.951147</ele>
        <time>2020-07-28T10:27:17.223Z</time>
      </trkpt>
      <trkpt lat="61.57975" lon="5.49579">
        <ele>131.593781</ele>
        <time>2020-07-28T10:27:18.197Z</time>
      </trkpt>
      <trkpt lat="61.57982" lon="5.49562">
        <ele>131.24491</ele>
        <time>2020-07-28T10:27:19.210Z</time>
      </trkpt>
      <trkpt lat="61.5799" lon="5.49545">
        <ele>130.896137</ele>
        <time>2020-07-28T10:27:20.268Z</time>
      </trkpt>
      <trkpt lat="61.57998" lon="5.4953">
        <ele>130.550266</ele>
        <time>2020-07-28T10:27:21.220Z</time>
      </trkpt>
      <trkpt lat="61.58005" lon="5.49515">
        <ele>130.214317</ele>
        <time>2020-07-28T10:27:22.202Z</time>
      </trkpt>
      <trkpt lat="61.58013" lon="5.495">
        <ele>129.88385</ele>
        <time>2020-07-28T10:27:23.209Z</time>
      </trkpt>
      <trkpt lat="61.5802" lon="5.49486">
        <ele>129.564026</ele>
        <time>2020-07-28T10:27:24.214Z</time>
      </trkpt>
      <trkpt lat="61.58028" lon="5.49472">
        <ele>129.249265</ele>
        <time>2020-07-28T10:27:25.201Z</time>
      </trkpt>
      <trkpt lat="61.58035" lon="5.4946">
        <ele>128.948311</ele>
        <time>2020-07-28T10:27:26.236Z</time>
      </trkpt>
      <trkpt lat="61.58042" lon="5.49448">
        <ele>128.655033</ele>
        <time>2020-07-28T10:27:27.209Z</time>
      </trkpt>
      <trkpt lat="61.58055" lon="5.49425">
        <ele>128.098335</ele>
        <time>2020-07-28T10:27:29.237Z</time>
      </trkpt>
      <trkpt lat="61.58068" lon="5.49404">
        <ele>127.580485</ele>
        <time>2020-07-28T10:27:31.210Z</time>
      </trkpt>
      <trkpt lat="61.5808" lon="5.49385">
        <ele>127.100838</ele>
        <time>2020-07-28T10:27:33.256Z</time>
      </trkpt>
      <trkpt lat="61.5809" lon="5.49367">
        <ele>127.059791</ele>
        <time>2020-07-28T10:27:35.200Z</time>
      </trkpt>
      <trkpt lat="61.581" lon="5.4935">
        <ele>127.429797</ele>
        <time>2020-07-28T10:27:37.200Z</time>
      </trkpt>
      <trkpt lat="61.58109" lon="5.49333">
        <ele>127.774872</ele>
        <time>2020-07-28T10:27:39.219Z</time>
      </trkpt>
      <trkpt lat="61.58117" lon="5.49318">
        <ele>128.090066</ele>
        <time>2020-07-28T10:27:41.244Z</time>
      </trkpt>
      <trkpt lat="61.58125" lon="5.49304">
        <ele>128.397731</ele>
        <time>2020-07-28T10:27:43.211Z</time>
      </trkpt>
      <trkpt lat="61.58133" lon="5.49288">
        <ele>128.726919</ele>
        <time>2020-07-28T10:27:45.214Z</time>
      </trkpt>
      <trkpt lat="61.58141" lon="5.49273">
        <ele>129.045807</ele>
        <time>2020-07-28T10:27:47.271Z</time>
      </trkpt>
      <trkpt lat="61.58149" lon="5.49259">
        <ele>129.355174</ele>
        <time>2020-07-28T10:27:49.223Z</time>
      </trkpt>
      <trkpt lat="61.58157" lon="5.49245">
        <ele>129.645701</ele>
        <time>2020-07-28T10:27:51.216Z</time>
      </trkpt>
      <trkpt lat="61.58163" lon="5.49233">
        <ele>129.910659</ele>
        <time>2020-07-28T10:27:53.214Z</time>
      </trkpt>
      <trkpt lat="61.5817" lon="5.4922">
        <ele>130.178602</ele>
        <time>2020-07-28T10:27:55.217Z</time>
      </trkpt>
      <trkpt lat="61.5818" lon="5.49201">
        <ele>130.566809</ele>
        <time>2020-07-28T10:27:58.238Z</time>
      </trkpt>
      <trkpt lat="61.58189" lon="5.49184">
        <ele>130.928762</ele>
        <time>2020-07-28T10:28:01.241Z</time>
      </trkpt>
      <trkpt lat="61.58199" lon="5.4917">
        <ele>131.266456</ele>
        <time>2020-07-28T10:28:04.214Z</time>
      </trkpt>
      <trkpt lat="61.58206" lon="5.49155">
        <ele>131.555242</ele>
        <time>2020-07-28T10:28:07.209Z</time>
      </trkpt>
      <trkpt lat="61.58212" lon="5.49138">
        <ele>131.868368</ele>
        <time>2020-07-28T10:28:10.211Z</time>
      </trkpt>
      <trkpt lat="61.58219" lon="5.4912">
        <ele>132.181351</ele>
        <time>2020-07-28T10:28:13.234Z</time>
      </trkpt>
      <trkpt lat="61.58227" lon="5.491">
        <ele>132.470597</ele>
        <time>2020-07-28T10:28:16.204Z</time>
      </trkpt>
      <trkpt lat="61.58235" lon="5.49086">
        <ele>132.716848</ele>
        <time>2020-07-28T10:28:19.222Z</time>
      </trkpt>
      <trkpt lat="61.58243" lon="5.49069">
        <ele>132.982063</ele>
        <time>2020-07-28T10:28:22.232Z</time>
      </trkpt>
      <trkpt lat="61.5825" lon="5.49056">
        <ele>133.214951</ele>
        <time>2020-07-28T10:28:25.217Z</time>
      </trkpt>
      <trkpt lat="61.58257" lon="5.4904">
        <ele>133.461856</ele>
        <time>2020-07-28T10:28:28.231Z</time>
      </trkpt>
      <trkpt lat="61.58263" lon="5.49024">
        <ele>133.694741</ele>
        <time>2020-07-28T10:28:31.217Z</time>
      </trkpt>
      <trkpt lat="61.5827" lon="5.49007">
        <ele>133.940413</ele>
        <time>2020-07-28T10:28:34.222Z</time>
      </trkpt>
      <trkpt lat="61.58276" lon="5.48989">
        <ele>134.192212</ele>
        <time>2020-07-28T10:28:37.213Z</time>
      </trkpt>
      <trkpt lat="61.58283" lon="5.48972">
        <ele>134.44027</ele>
        <time>2020-07-28T10:28:40.215Z</time>
      </trkpt>
      <trkpt lat="61.58289" lon="5.48954">
        <ele>134.691409</ele>
        <time>2020-07-28T10:28:43.225Z</time>
      </trkpt>
      <trkpt lat="61.58296" lon="5.48937">
        <ele>134.945314</ele>
        <time>2020-07-28T10:28:46.215Z</time>
      </trkpt>
      <trkpt lat="61.58303" lon="5.4892">
        <ele>135.201329</ele>
        <time>2020-07-28T10:28:49.200Z</time>
      </trkpt>
      <trkpt lat="61.5831" lon="5.48904">
        <ele>135.440709</ele>
        <time>2020-07-28T10:28:52.212Z</time>
      </trkpt>
      <trkpt lat="61.58316" lon="5.48886">
        <ele>135.685542</ele>
        <time>2020-07-28T10:28:55.216Z</time>
      </trkpt>
      <trkpt lat="61.58322" lon="5.4887">
        <ele>135.929918</ele>
        <time>2020-07-28T10:28:58.247Z</time>
      </trkpt>
      <trkpt lat="61.58329" lon="5.48854">
        <ele>136.168687</ele>
        <time>2020-07-28T10:29:01.211Z</time>
      </trkpt>
      <trkpt lat="61.58337" lon="5.48837">
        <ele>136.42385</ele>
        <time>2020-07-28T10:29:04.220Z</time>
      </trkpt>
      <trkpt lat="61.58345" lon="5.48821">
        <ele>136.507296</ele>
        <time>2020-07-28T10:29:07.227Z</time>
      </trkpt>
      <trkpt lat="61.58352" lon="5.48804">
        <ele>136.589605</ele>
        <time>2020-07-28T10:29:10.214Z</time>
      </trkpt>
      <trkpt lat="61.58359" lon="5.48784">
        <ele>136.67189</ele>
        <time>2020-07-28T10:29:13.248Z</time>
      </trkpt>
      <trkpt lat="61.58368" lon="5.48766">
        <ele>136.763682</ele>
        <time>2020-07-28T10:29:16.224Z</time>
      </trkpt>
      <trkpt lat="61.58376" lon="5.48749">
        <ele>136.852004</ele>
        <time>2020-07-28T10:29:19.227Z</time>
      </trkpt>
      <trkpt lat="61.58386" lon="5.48734">
        <ele>136.938285</ele>
        <time>2020-07-28T10:29:22.200Z</time>
      </trkpt>
      <trkpt lat="61.58394" lon="5.48719">
        <ele>137.02058</ele>
        <time>2020-07-28T10:29:25.200Z</time>
      </trkpt>
      <trkpt lat="61.58402" lon="5.48703">
        <ele>137.103243</ele>
        <time>2020-07-28T10:29:28.201Z</time>
      </trkpt>
      <trkpt lat="61.58411" lon="5.48688">
        <ele>137.191249</ele>
        <time>2020-07-28T10:29:31.203Z</time>
      </trkpt>
      <trkpt lat="61.58421" lon="5.48672">
        <ele>137.282894</ele>
        <time>2020-07-28T10:29:34.202Z</time>
      </trkpt>
      <trkpt lat="61.5843" lon="5.48655">
        <ele>137.370193</ele>
        <time>2020-07-28T10:29:37.223Z</time>
      </trkpt>
      <trkpt lat="61.58439" lon="5.48638">
        <ele>137.45895</ele>
        <time>2020-07-28T10:29:40.218Z</time>
      </trkpt>
      <trkpt lat="61.58448" lon="5.48621">
        <ele>137.551593</ele>
        <time>2020-07-28T10:29:43.218Z</time>
      </trkpt>
      <trkpt lat="61.58458" lon="5.48603">
        <ele>137.646839</ele>
        <time>2020-07-28T10:29:46.224Z</time>
      </trkpt>
      <trkpt lat="61.58468" lon="5.48587">
        <ele>137.740086</ele>
        <time>2020-07-28T10:29:49.220Z</time>
      </trkpt>
      <trkpt lat="61.58476" lon="5.48569">
        <ele>137.503999</ele>
        <time>2020-07-28T10:29:52.232Z</time>
      </trkpt>
      <trkpt lat="61.58486" lon="5.48551">
        <ele>137.196727</ele>
        <time>2020-07-28T10:29:55.207Z</time>
      </trkpt>
      <trkpt lat="61.58492" lon="5.48537">
        <ele>136.966164</ele>
        <time>2020-07-28T10:29:57.233Z</time>
      </trkpt>
      <trkpt lat="61.58499" lon="5.48514">
        <ele>136.652342</ele>
        <time>2020-07-28T10:30:00.208Z</time>
      </trkpt>
      <trkpt lat="61.58507" lon="5.48495">
        <ele>136.361185</ele>
        <time>2020-07-28T10:30:03.219Z</time>
      </trkpt>
      <trkpt lat="61.58513" lon="5.4848">
        <ele>136.134155</ele>
        <time>2020-07-28T10:30:05.245Z</time>
      </trkpt>
      <trkpt lat="61.5852" lon="5.48464">
        <ele>135.895037</ele>
        <time>2020-07-28T10:30:07.199Z</time>
      </trkpt>
      <trkpt lat="61.58526" lon="5.4845">
        <ele>135.669124</ele>
        <time>2020-07-28T10:30:09.206Z</time>
      </trkpt>
      <trkpt lat="61.58528" lon="5.48422">
        <ele>135.348494</ele>
        <time>2020-07-28T10:30:12.234Z</time>
      </trkpt>
      <trkpt lat="61.58519" lon="5.48403">
        <ele>135.024783</ele>
        <time>2020-07-28T10:30:15.220Z</time>
      </trkpt>
      <trkpt lat="61.58511" lon="5.4839">
        <ele>134.780414</ele>
        <time>2020-07-28T10:30:17.211Z</time>
      </trkpt>
      <trkpt lat="61.58505" lon="5.48372">
        <ele>134.526053</ele>
        <time>2020-07-28T10:30:19.224Z</time>
      </trkpt>
      <trkpt lat="61.58501" lon="5.48347">
        <ele>134.217811</ele>
        <time>2020-07-28T10:30:21.221Z</time>
      </trkpt>
      <trkpt lat="61.58499" lon="5.48321">
        <ele>133.909472</ele>
        <time>2020-07-28T10:30:23.211Z</time>
      </trkpt>
      <trkpt lat="61.58502" lon="5.48298">
        <ele>133.641907</ele>
        <time>2020-07-28T10:30:25.212Z</time>
      </trkpt>
      <trkpt lat="61.58507" lon="5.48272">
        <ele>133.2686</ele>
        <time>2020-07-28T10:30:27.209Z</time>
      </trkpt>
      <trkpt lat="61.58514" lon="5.48243">
        <ele>132.743715</ele>
        <time>2020-07-28T10:30:29.202Z</time>
      </trkpt>
      <trkpt lat="61.58521" lon="5.48218">
        <ele>132.245278</ele>
        <time>2020-07-28T10:30:31.223Z</time>
      </trkpt>
      <trkpt lat="61.58531" lon="5.48194">
        <ele>131.738674</ele>
        <time>2020-07-28T10:30:33.239Z</time>
      </trkpt>
      <trkpt lat="61.58542" lon="5.48173">
        <ele>131.221186</ele>
        <time>2020-07-28T10:30:35.209Z</time>
      </trkpt>
      <trkpt lat="61.58555" lon="5.48157">
        <ele>130.695917</ele>
        <time>2020-07-28T10:30:37.212Z</time>
      </trkpt>
      <trkpt lat="61.58568" lon="5.48139">
        <ele>130.13731</ele>
        <time>2020-07-28T10:30:39.211Z</time>
      </trkpt>
      <trkpt lat="61.58582" lon="5.48124">
        <ele>129.585843</ele>
        <time>2020-07-28T10:30:41.218Z</time>
      </trkpt>
      <trkpt lat="61.58596" lon="5.48111">
        <ele>129.065832</ele>
        <time>2020-07-28T10:30:43.222Z</time>
      </trkpt>
      <trkpt lat="61.58611" lon="5.48096">
        <ele>128.490724</ele>
        <time>2020-07-28T10:30:45.202Z</time>
      </trkpt>
      <trkpt lat="61.58619" lon="5.48088">
        <ele>128.178648</ele>
        <time>2020-07-28T10:30:46.237Z</time>
      </trkpt>
      <trkpt lat="61.58627" lon="5.48079">
        <ele>127.859686</ele>
        <time>2020-07-28T10:30:47.201Z</time>
      </trkpt>
      <trkpt lat="61.58635" lon="5.48071">
        <ele>127.533997</ele>
        <time>2020-07-28T10:30:48.210Z</time>
      </trkpt>
      <trkpt lat="61.58644" lon="5.48062">
        <ele>127.200205</ele>
        <time>2020-07-28T10:30:49.230Z</time>
      </trkpt>
      <trkpt lat="61.58652" lon="5.48052">
        <ele>126.523234</ele>
        <time>2020-07-28T10:30:50.212Z</time>
      </trkpt>
      <trkpt lat="61.58661" lon="5.4804">
        <ele>125.705362</ele>
        <time>2020-07-28T10:30:51.202Z</time>
      </trkpt>
      <trkpt lat="61.58668" lon="5.48027">
        <ele>124.898348</ele>
        <time>2020-07-28T10:30:52.211Z</time>
      </trkpt>
      <trkpt lat="61.58675" lon="5.48014">
        <ele>124.126903</ele>
        <time>2020-07-28T10:30:53.213Z</time>
      </trkpt>
      <trkpt lat="61.58681" lon="5.48">
        <ele>123.3794</ele>
        <time>2020-07-28T10:30:54.273Z</time>
      </trkpt>
      <trkpt lat="61.58692" lon="5.47971">
        <ele>121.904085</ele>
        <time>2020-07-28T10:30:56.219Z</time>
      </trkpt>
      <trkpt lat="61.58697" lon="5.47954">
        <ele>121.110702</ele>
        <time>2020-07-28T10:30:57.199Z</time>
      </trkpt>
      <trkpt lat="61.58702" lon="5.47936">
        <ele>120.277321</ele>
        <time>2020-07-28T10:30:58.213Z</time>
      </trkpt>
      <trkpt lat="61.58706" lon="5.47918">
        <ele>119.467122</ele>
        <time>2020-07-28T10:30:59.214Z</time>
      </trkpt>
      <trkpt lat="61.58709" lon="5.47899">
        <ele>118.677465</ele>
        <time>2020-07-28T10:31:00.228Z</time>
      </trkpt>
      <trkpt lat="61.58712" lon="5.47879">
        <ele>117.838889</ele>
        <time>2020-07-28T10:31:01.212Z</time>
      </trkpt>
      <trkpt lat="61.58716" lon="5.47858">
        <ele>116.979998</ele>
        <time>2020-07-28T10:31:02.203Z</time>
      </trkpt>
      <trkpt lat="61.58719" lon="5.47838">
        <ele>116.1109</ele>
        <time>2020-07-28T10:31:03.226Z</time>
      </trkpt>
      <trkpt lat="61.58722" lon="5.47817">
        <ele>115.257211</ele>
        <time>2020-07-28T10:31:04.228Z</time>
      </trkpt>
      <trkpt lat="61.58725" lon="5.47797">
        <ele>114.414862</ele>
        <time>2020-07-28T10:31:05.273Z</time>
      </trkpt>
      <trkpt lat="61.58728" lon="5.47777">
        <ele>113.581204</ele>
        <time>2020-07-28T10:31:06.211Z</time>
      </trkpt>
      <trkpt lat="61.58731" lon="5.47758">
        <ele>112.786714</ele>
        <time>2020-07-28T10:31:07.213Z</time>
      </trkpt>
      <trkpt lat="61.58735" lon="5.47739">
        <ele>111.925756</ele>
        <time>2020-07-28T10:31:08.224Z</time>
      </trkpt>
      <trkpt lat="61.58738" lon="5.47721">
        <ele>110.669609</ele>
        <time>2020-07-28T10:31:09.203Z</time>
      </trkpt>
      <trkpt lat="61.58742" lon="5.47702">
        <ele>109.383444</ele>
        <time>2020-07-28T10:31:10.200Z</time>
      </trkpt>
      <trkpt lat="61.58746" lon="5.47684">
        <ele>108.080212</ele>
        <time>2020-07-28T10:31:11.240Z</time>
      </trkpt>
      <trkpt lat="61.5875" lon="5.47665">
        <ele>106.835969</ele>
        <time>2020-07-28T10:31:12.236Z</time>
      </trkpt>
      <trkpt lat="61.58753" lon="5.47646">
        <ele>105.529813</ele>
        <time>2020-07-28T10:31:13.216Z</time>
      </trkpt>
      <trkpt lat="61.58756" lon="5.47627">
        <ele>104.275188</ele>
        <time>2020-07-28T10:31:14.221Z</time>
      </trkpt>
      <trkpt lat="61.58759" lon="5.47592">
        <ele>101.979896</ele>
        <time>2020-07-28T10:31:16.220Z</time>
      </trkpt>
      <trkpt lat="61.5876" lon="5.47572">
        <ele>100.715312</ele>
        <time>2020-07-28T10:31:17.211Z</time>
      </trkpt>
      <trkpt lat="61.58761" lon="5.47552">
        <ele>99.422645</ele>
        <time>2020-07-28T10:31:18.211Z</time>
      </trkpt>
      <trkpt lat="61.58763" lon="5.47532">
        <ele>98.123661</ele>
        <time>2020-07-28T10:31:19.199Z</time>
      </trkpt>
      <trkpt lat="61.58764" lon="5.47512">
        <ele>96.860945</ele>
        <time>2020-07-28T10:31:20.198Z</time>
      </trkpt>
      <trkpt lat="61.58765" lon="5.47492">
        <ele>95.535984</ele>
        <time>2020-07-28T10:31:21.242Z</time>
      </trkpt>
      <trkpt lat="61.58765" lon="5.47471">
        <ele>94.213487</ele>
        <time>2020-07-28T10:31:22.196Z</time>
      </trkpt>
      <trkpt lat="61.58765" lon="5.47449">
        <ele>92.852649</ele>
        <time>2020-07-28T10:31:23.206Z</time>
      </trkpt>
      <trkpt lat="61.58765" lon="5.47429">
        <ele>91.572212</ele>
        <time>2020-07-28T10:31:24.210Z</time>
      </trkpt>
      <trkpt lat="61.58765" lon="5.47409">
        <ele>90.31329</ele>
        <time>2020-07-28T10:31:25.205Z</time>
      </trkpt>
      <trkpt lat="61.58765" lon="5.4739">
        <ele>89.060726</ele>
        <time>2020-07-28T10:31:26.212Z</time>
      </trkpt>
      <trkpt lat="61.58765" lon="5.4737">
        <ele>87.860525</ele>
        <time>2020-07-28T10:31:27.223Z</time>
      </trkpt>
      <trkpt lat="61.58765" lon="5.47351">
        <ele>86.825633</ele>
        <time>2020-07-28T10:31:28.207Z</time>
      </trkpt>
      <trkpt lat="61.58765" lon="5.47332">
        <ele>85.778842</ele>
        <time>2020-07-28T10:31:29.206Z</time>
      </trkpt>
      <trkpt lat="61.58766" lon="5.47313">
        <ele>84.742991</ele>
        <time>2020-07-28T10:31:30.198Z</time>
      </trkpt>
      <trkpt lat="61.58766" lon="5.47294">
        <ele>83.686012</ele>
        <time>2020-07-28T10:31:31.234Z</time>
      </trkpt>
      <trkpt lat="61.58766" lon="5.47274">
        <ele>82.596371</ele>
        <time>2020-07-28T10:31:32.211Z</time>
      </trkpt>
      <trkpt lat="61.58766" lon="5.47255">
        <ele>81.52863</ele>
        <time>2020-07-28T10:31:33.291Z</time>
      </trkpt>
      <trkpt lat="61.58766" lon="5.47235">
        <ele>80.460703</ele>
        <time>2020-07-28T10:31:34.248Z</time>
      </trkpt>
      <trkpt lat="61.58765" lon="5.47216">
        <ele>79.431093</ele>
        <time>2020-07-28T10:31:35.205Z</time>
      </trkpt>
      <trkpt lat="61.58765" lon="5.47197">
        <ele>78.390726</ele>
        <time>2020-07-28T10:31:36.220Z</time>
      </trkpt>
      <trkpt lat="61.58765" lon="5.47161">
        <ele>76.375791</ele>
        <time>2020-07-28T10:31:38.215Z</time>
      </trkpt>
      <trkpt lat="61.58765" lon="5.47126">
        <ele>74.48131</ele>
        <time>2020-07-28T10:31:40.219Z</time>
      </trkpt>
      <trkpt lat="61.58765" lon="5.47092">
        <ele>72.636141</ele>
        <time>2020-07-28T10:31:42.249Z</time>
      </trkpt>
      <trkpt lat="61.58765" lon="5.47058">
        <ele>70.772271</ele>
        <time>2020-07-28T10:31:44.210Z</time>
      </trkpt>
      <trkpt lat="61.58765" lon="5.47026">
        <ele>69.003756</ele>
        <time>2020-07-28T10:31:46.215Z</time>
      </trkpt>
      <trkpt lat="61.58766" lon="5.46996">
        <ele>67.348585</ele>
        <time>2020-07-28T10:31:48.234Z</time>
      </trkpt>
      <trkpt lat="61.58767" lon="5.46965">
        <ele>66.372965</ele>
        <time>2020-07-28T10:31:50.243Z</time>
      </trkpt>
      <trkpt lat="61.5877" lon="5.46936">
        <ele>65.427887</ele>
        <time>2020-07-28T10:31:52.194Z</time>
      </trkpt>
      <trkpt lat="61.58774" lon="5.46908">
        <ele>64.499526</ele>
        <time>2020-07-28T10:31:54.198Z</time>
      </trkpt>
      <trkpt lat="61.58779" lon="5.46879">
        <ele>63.47418</ele>
        <time>2020-07-28T10:31:56.203Z</time>
      </trkpt>
      <trkpt lat="61.58785" lon="5.46847">
        <ele>62.396776</ele>
        <time>2020-07-28T10:31:58.211Z</time>
      </trkpt>
      <trkpt lat="61.5879" lon="5.46815">
        <ele>61.327735</ele>
        <time>2020-07-28T10:32:00.241Z</time>
      </trkpt>
      <trkpt lat="61.58793" lon="5.46783">
        <ele>60.284431</ele>
        <time>2020-07-28T10:32:02.217Z</time>
      </trkpt>
      <trkpt lat="61.58795" lon="5.46749">
        <ele>59.176083</ele>
        <time>2020-07-28T10:32:04.228Z</time>
      </trkpt>
      <trkpt lat="61.58797" lon="5.46713">
        <ele>58.005615</ele>
        <time>2020-07-28T10:32:06.251Z</time>
      </trkpt>
      <trkpt lat="61.58798" lon="5.46694">
        <ele>57.396241</ele>
        <time>2020-07-28T10:32:07.200Z</time>
      </trkpt>
      <trkpt lat="61.58797" lon="5.46673">
        <ele>56.743264</ele>
        <time>2020-07-28T10:32:08.226Z</time>
      </trkpt>
      <trkpt lat="61.58797" lon="5.46652">
        <ele>56.071089</ele>
        <time>2020-07-28T10:32:09.234Z</time>
      </trkpt>
      <trkpt lat="61.58797" lon="5.46632">
        <ele>55.405314</ele>
        <time>2020-07-28T10:32:10.235Z</time>
      </trkpt>
      <trkpt lat="61.58797" lon="5.4661">
        <ele>54.770699</ele>
        <time>2020-07-28T10:32:11.250Z</time>
      </trkpt>
      <trkpt lat="61.58796" lon="5.46588">
        <ele>54.14096</ele>
        <time>2020-07-28T10:32:12.234Z</time>
      </trkpt>
      <trkpt lat="61.58796" lon="5.46566">
        <ele>53.528661</ele>
        <time>2020-07-28T10:32:13.243Z</time>
      </trkpt>
      <trkpt lat="61.58795" lon="5.46545">
        <ele>52.924209</ele>
        <time>2020-07-28T10:32:14.202Z</time>
      </trkpt>
      <trkpt lat="61.58794" lon="5.46526">
        <ele>52.356812</ele>
        <time>2020-07-28T10:32:15.202Z</time>
      </trkpt>
      <trkpt lat="61.58794" lon="5.46506">
        <ele>51.792265</ele>
        <time>2020-07-28T10:32:16.221Z</time>
      </trkpt>
      <trkpt lat="61.58793" lon="5.46486">
        <ele>51.235229</ele>
        <time>2020-07-28T10:32:17.206Z</time>
      </trkpt>
      <trkpt lat="61.58792" lon="5.46467">
        <ele>50.687285</ele>
        <time>2020-07-28T10:32:18.223Z</time>
      </trkpt>
      <trkpt lat="61.58791" lon="5.46448">
        <ele>50.132066</ele>
        <time>2020-07-28T10:32:19.220Z</time>
      </trkpt>
      <trkpt lat="61.58791" lon="5.46429">
        <ele>49.579993</ele>
        <time>2020-07-28T10:32:20.215Z</time>
      </trkpt>
      <trkpt lat="61.58791" lon="5.46393">
        <ele>48.562557</ele>
        <time>2020-07-28T10:32:22.221Z</time>
      </trkpt>
      <trkpt lat="61.58792" lon="5.4636">
        <ele>47.609708</ele>
        <time>2020-07-28T10:32:24.228Z</time>
      </trkpt>
      <trkpt lat="61.58794" lon="5.46328">
        <ele>46.680158</ele>
        <time>2020-07-28T10:32:26.239Z</time>
      </trkpt>
      <trkpt lat="61.58797" lon="5.463">
        <ele>45.858608</ele>
        <time>2020-07-28T10:32:28.223Z</time>
      </trkpt>
      <trkpt lat="61.588" lon="5.46277">
        <ele>45.18968</ele>
        <time>2020-07-28T10:32:30.214Z</time>
      </trkpt>
      <trkpt lat="61.58803" lon="5.46259">
        <ele>44.625063</ele>
        <time>2020-07-28T10:32:32.211Z</time>
      </trkpt>
      <trkpt lat="61.58808" lon="5.46237">
        <ele>44.399433</ele>
        <time>2020-07-28T10:32:35.216Z</time>
      </trkpt>
      <trkpt lat="61.58813" lon="5.46218">
        <ele>44.312724</ele>
        <time>2020-07-28T10:32:39.214Z</time>
      </trkpt>
      <trkpt lat="61.58824" lon="5.46212">
        <ele>44.217746</ele>
        <time>2020-07-28T10:32:44.197Z</time>
      </trkpt>
      <trkpt lat="61.58834" lon="5.462">
        <ele>44.11891</ele>
        <time>2020-07-28T10:32:48.253Z</time>
      </trkpt>
      <trkpt lat="61.58842" lon="5.46191">
        <ele>44.04309</ele>
        <time>2020-07-28T10:32:51.232Z</time>
      </trkpt>
      <trkpt lat="61.58849" lon="5.46176">
        <ele>43.95608</ele>
        <time>2020-07-28T10:32:56.205Z</time>
      </trkpt>
      <trkpt lat="61.58856" lon="5.46162">
        <ele>43.878524</ele>
        <time>2020-07-28T10:33:02.253Z</time>
      </trkpt>
      <trkpt lat="61.58859" lon="5.46141">
        <ele>43.792993</ele>
        <time>2020-07-28T10:33:07.212Z</time>
      </trkpt>
      <trkpt lat="61.58854" lon="5.46092">
        <ele>43.594021</ele>
        <time>2020-07-28T11:16:56.210Z</time>
      </trkpt>
      <trkpt lat="61.58864" lon="5.46145">
        <ele>43.366926</ele>
        <time>2020-07-28T11:17:23.236Z</time>
      </trkpt>
      <trkpt lat="61.58876" lon="5.46146">
        <ele>43.267713</ele>
        <time>2020-07-28T11:17:27.230Z</time>
      </trkpt>
      <trkpt lat="61.58887" lon="5.46146">
        <ele>43.178562</ele>
        <time>2020-07-28T11:17:30.211Z</time>
      </trkpt>
      <trkpt lat="61.58896" lon="5.46151">
        <ele>43.102192</ele>
        <time>2020-07-28T11:17:33.216Z</time>
      </trkpt>
      <trkpt lat="61.58906" lon="5.4616">
        <ele>43.009115</ele>
        <time>2020-07-28T11:17:37.214Z</time>
      </trkpt>
      <trkpt lat="61.58916" lon="5.46162">
        <ele>43.411146</ele>
        <time>2020-07-28T11:17:40.223Z</time>
      </trkpt>
      <trkpt lat="61.58927" lon="5.46161">
        <ele>44.368066</ele>
        <time>2020-07-28T11:17:44.240Z</time>
      </trkpt>
      <trkpt lat="61.58937" lon="5.46154">
        <ele>45.203719</ele>
        <time>2020-07-28T11:17:48.214Z</time>
      </trkpt>
      <trkpt lat="61.58946" lon="5.46151">
        <ele>45.953114</ele>
        <time>2020-07-28T11:17:51.218Z</time>
      </trkpt>
      <trkpt lat="61.58956" lon="5.46146">
        <ele>46.793442</ele>
        <time>2020-07-28T11:17:54.223Z</time>
      </trkpt>
      <trkpt lat="61.58965" lon="5.46138">
        <ele>47.618209</ele>
        <time>2020-07-28T11:17:57.230Z</time>
      </trkpt>
      <trkpt lat="61.58973" lon="5.46128">
        <ele>48.43992</ele>
        <time>2020-07-28T11:18:00.224Z</time>
      </trkpt>
      <trkpt lat="61.58981" lon="5.46115">
        <ele>49.282454</ele>
        <time>2020-07-28T11:18:03.235Z</time>
      </trkpt>
      <trkpt lat="61.58989" lon="5.46101">
        <ele>50.147933</ele>
        <time>2020-07-28T11:18:06.216Z</time>
      </trkpt>
      <trkpt lat="61.58996" lon="5.46087">
        <ele>50.92738</ele>
        <time>2020-07-28T11:18:09.224Z</time>
      </trkpt>
      <trkpt lat="61.59002" lon="5.4607">
        <ele>51.77253</ele>
        <time>2020-07-28T11:18:12.221Z</time>
      </trkpt>
      <trkpt lat="61.59008" lon="5.46052">
        <ele>52.633891</ele>
        <time>2020-07-28T11:18:15.214Z</time>
      </trkpt>
      <trkpt lat="61.59013" lon="5.46034">
        <ele>53.460475</ele>
        <time>2020-07-28T11:18:18.220Z</time>
      </trkpt>
      <trkpt lat="61.59017" lon="5.46015">
        <ele>54.262092</ele>
        <time>2020-07-28T11:18:21.229Z</time>
      </trkpt>
      <trkpt lat="61.59021" lon="5.45997">
        <ele>55.076675</ele>
        <time>2020-07-28T11:18:24.218Z</time>
      </trkpt>
      <trkpt lat="61.59025" lon="5.45974">
        <ele>56.040092</ele>
        <time>2020-07-28T11:18:28.215Z</time>
      </trkpt>
      <trkpt lat="61.59028" lon="5.45952">
        <ele>56.93479</ele>
        <time>2020-07-28T11:18:32.223Z</time>
      </trkpt>
      <trkpt lat="61.59031" lon="5.45934">
        <ele>57.694129</ele>
        <time>2020-07-28T11:18:36.210Z</time>
      </trkpt>
      <trkpt lat="61.59035" lon="5.45914">
        <ele>58.270659</ele>
        <time>2020-07-28T11:18:41.249Z</time>
      </trkpt>
      <trkpt lat="61.59039" lon="5.45894">
        <ele>58.765239</ele>
        <time>2020-07-28T11:18:47.212Z</time>
      </trkpt>
      <trkpt lat="61.59044" lon="5.45874">
        <ele>59.26123</ele>
        <time>2020-07-28T11:18:53.229Z</time>
      </trkpt>
      <trkpt lat="61.59048" lon="5.45858">
        <ele>59.689482</ele>
        <time>2020-07-28T11:18:58.235Z</time>
      </trkpt>
      <trkpt lat="61.59054" lon="5.4584">
        <ele>60.171225</ele>
        <time>2020-07-28T11:19:04.217Z</time>
      </trkpt>
      <trkpt lat="61.59057" lon="5.45821">
        <ele>60.610871</ele>
        <time>2020-07-28T11:19:10.236Z</time>
      </trkpt>
      <trkpt lat="61.5906" lon="5.45803">
        <ele>61.055344</ele>
        <time>2020-07-28T11:19:15.217Z</time>
      </trkpt>
      <trkpt lat="61.59064" lon="5.45784">
        <ele>61.508743</ele>
        <time>2020-07-28T11:19:20.230Z</time>
      </trkpt>
      <trkpt lat="61.59067" lon="5.45764">
        <ele>61.991138</ele>
        <time>2020-07-28T11:19:26.199Z</time>
      </trkpt>
      <trkpt lat="61.59072" lon="5.45744">
        <ele>62.491156</ele>
        <time>2020-07-28T11:19:32.244Z</time>
      </trkpt>
      <trkpt lat="61.59076" lon="5.45725">
        <ele>62.96084</ele>
        <time>2020-07-28T11:19:37.216Z</time>
      </trkpt>
      <trkpt lat="61.5908" lon="5.45705">
        <ele>63.440944</ele>
        <time>2020-07-28T11:19:42.216Z</time>
      </trkpt>
      <trkpt lat="61.59085" lon="5.45684">
        <ele>63.953049</ele>
        <time>2020-07-28T11:19:47.224Z</time>
      </trkpt>
      <trkpt lat="61.59089" lon="5.45666">
        <ele>64.421448</ele>
        <time>2020-07-28T11:19:51.220Z</time>
      </trkpt>
      <trkpt lat="61.59093" lon="5.45647">
        <ele>64.885495</ele>
        <time>2020-07-28T11:19:55.225Z</time>
      </trkpt>
      <trkpt lat="61.59097" lon="5.45628">
        <ele>65.349023</ele>
        <time>2020-07-28T11:19:59.227Z</time>
      </trkpt>
      <trkpt lat="61.59101" lon="5.45609">
        <ele>65.81505</ele>
        <time>2020-07-28T11:20:03.219Z</time>
      </trkpt>
      <trkpt lat="61.59106" lon="5.45587">
        <ele>66.349535</ele>
        <time>2020-07-28T11:20:07.233Z</time>
      </trkpt>
      <trkpt lat="61.5911" lon="5.45565">
        <ele>66.992719</ele>
        <time>2020-07-28T11:20:11.224Z</time>
      </trkpt>
      <trkpt lat="61.59114" lon="5.45543">
        <ele>67.631754</ele>
        <time>2020-07-28T11:20:15.223Z</time>
      </trkpt>
      <trkpt lat="61.59117" lon="5.45524">
        <ele>68.175505</ele>
        <time>2020-07-28T11:20:18.243Z</time>
      </trkpt>
      <trkpt lat="61.59121" lon="5.45504">
        <ele>68.759453</ele>
        <time>2020-07-28T11:20:21.217Z</time>
      </trkpt>
      <trkpt lat="61.59126" lon="5.45482">
        <ele>69.414828</ele>
        <time>2020-07-28T11:20:25.221Z</time>
      </trkpt>
      <trkpt lat="61.59131" lon="5.4546">
        <ele>70.065292</ele>
        <time>2020-07-28T11:20:29.205Z</time>
      </trkpt>
      <trkpt lat="61.59136" lon="5.45439">
        <ele>70.674473</ele>
        <time>2020-07-28T11:20:33.215Z</time>
      </trkpt>
      <trkpt lat="61.5914" lon="5.45419">
        <ele>71.286031</ele>
        <time>2020-07-28T11:20:38.221Z</time>
      </trkpt>
      <trkpt lat="61.59145" lon="5.454">
        <ele>71.856133</ele>
        <time>2020-07-28T11:20:43.235Z</time>
      </trkpt>
      <trkpt lat="61.59148" lon="5.45379">
        <ele>72.458727</ele>
        <time>2020-07-28T11:20:49.221Z</time>
      </trkpt>
      <trkpt lat="61.59152" lon="5.45361">
        <ele>72.982558</ele>
        <time>2020-07-28T11:20:55.216Z</time>
      </trkpt>
      <trkpt lat="61.59157" lon="5.45342">
        <ele>73.558158</ele>
        <time>2020-07-28T11:21:02.221Z</time>
      </trkpt>
      <trkpt lat="61.59161" lon="5.45325">
        <ele>74.094527</ele>
        <time>2020-07-28T11:21:09.243Z</time>
      </trkpt>
      <trkpt lat="61.59166" lon="5.45308">
        <ele>74.621367</ele>
        <time>2020-07-28T11:21:15.227Z</time>
      </trkpt>
      <trkpt lat="61.59169" lon="5.4529">
        <ele>75.139253</ele>
        <time>2020-07-28T11:21:21.221Z</time>
      </trkpt>
      <trkpt lat="61.59173" lon="5.4527">
        <ele>75.704938</ele>
        <time>2020-07-28T11:21:28.230Z</time>
      </trkpt>
      <trkpt lat="61.59178" lon="5.45251">
        <ele>76.299639</ele>
        <time>2020-07-28T11:21:35.214Z</time>
      </trkpt>
      <trkpt lat="61.5918" lon="5.45231">
        <ele>76.626396</ele>
        <time>2020-07-28T11:21:42.207Z</time>
      </trkpt>
      <trkpt lat="61.59183" lon="5.45212">
        <ele>76.682566</ele>
        <time>2020-07-28T11:21:48.214Z</time>
      </trkpt>
      <trkpt lat="61.59185" lon="5.45194">
        <ele>76.739286</ele>
        <time>2020-07-28T11:21:55.226Z</time>
      </trkpt>
      <trkpt lat="61.59189" lon="5.45175">
        <ele>76.800781</ele>
        <time>2020-07-28T11:22:02.199Z</time>
      </trkpt>
      <trkpt lat="61.59193" lon="5.45156">
        <ele>76.861544</ele>
        <time>2020-07-28T11:22:10.230Z</time>
      </trkpt>
      <trkpt lat="61.59195" lon="5.45135">
        <ele>76.923656</ele>
        <time>2020-07-28T11:22:17.217Z</time>
      </trkpt>
      <trkpt lat="61.59202" lon="5.45117">
        <ele>76.989064</ele>
        <time>2020-07-28T11:22:23.210Z</time>
      </trkpt>
      <trkpt lat="61.59208" lon="5.45098">
        <ele>77.055798</ele>
        <time>2020-07-28T11:22:28.225Z</time>
      </trkpt>
      <trkpt lat="61.59213" lon="5.45078">
        <ele>77.121535</ele>
        <time>2020-07-28T11:22:33.246Z</time>
      </trkpt>
      <trkpt lat="61.59218" lon="5.45062">
        <ele>77.177827</ele>
        <time>2020-07-28T11:22:37.235Z</time>
      </trkpt>
      <trkpt lat="61.59223" lon="5.45041">
        <ele>77.246141</ele>
        <time>2020-07-28T11:22:41.218Z</time>
      </trkpt>
      <trkpt lat="61.59229" lon="5.45021">
        <ele>77.316279</ele>
        <time>2020-07-28T11:22:45.235Z</time>
      </trkpt>
      <trkpt lat="61.59234" lon="5.45">
        <ele>77.385003</ele>
        <time>2020-07-28T11:22:49.225Z</time>
      </trkpt>
      <trkpt lat="61.5924" lon="5.4498">
        <ele>77.45516</ele>
        <time>2020-07-28T11:22:53.220Z</time>
      </trkpt>
      <trkpt lat="61.59246" lon="5.44958">
        <ele>77.526716</ele>
        <time>2020-07-28T11:22:57.223Z</time>
      </trkpt>
      <trkpt lat="61.5925" lon="5.44941">
        <ele>77.582848</ele>
        <time>2020-07-28T11:23:00.219Z</time>
      </trkpt>
      <trkpt lat="61.59255" lon="5.44924">
        <ele>77.640381</ele>
        <time>2020-07-28T11:23:03.224Z</time>
      </trkpt>
      <trkpt lat="61.59258" lon="5.44905">
        <ele>77.698283</ele>
        <time>2020-07-28T11:23:06.218Z</time>
      </trkpt>
      <trkpt lat="61.59262" lon="5.44882">
        <ele>77.726908</ele>
        <time>2020-07-28T11:23:10.226Z</time>
      </trkpt>
      <trkpt lat="61.59267" lon="5.4486">
        <ele>77.752188</ele>
        <time>2020-07-28T11:23:14.242Z</time>
      </trkpt>
      <trkpt lat="61.5927" lon="5.44839">
        <ele>77.774962</ele>
        <time>2020-07-28T11:23:17.225Z</time>
      </trkpt>
      <trkpt lat="61.59273" lon="5.44814">
        <ele>77.801667</ele>
        <time>2020-07-28T11:23:20.226Z</time>
      </trkpt>
      <trkpt lat="61.59276" lon="5.4479">
        <ele>77.827444</ele>
        <time>2020-07-28T11:23:23.210Z</time>
      </trkpt>
      <trkpt lat="61.59279" lon="5.44766">
        <ele>77.852991</ele>
        <time>2020-07-28T11:23:26.213Z</time>
      </trkpt>
      <trkpt lat="61.59283" lon="5.44743">
        <ele>77.878266</ele>
        <time>2020-07-28T11:23:29.235Z</time>
      </trkpt>
      <trkpt lat="61.59286" lon="5.44719">
        <ele>77.903443</ele>
        <time>2020-07-28T11:23:32.216Z</time>
      </trkpt>
      <trkpt lat="61.5929" lon="5.44698">
        <ele>77.926954</ele>
        <time>2020-07-28T11:23:35.223Z</time>
      </trkpt>
      <trkpt lat="61.59292" lon="5.44676">
        <ele>77.950386</ele>
        <time>2020-07-28T11:23:38.227Z</time>
      </trkpt>
      <trkpt lat="61.59295" lon="5.44655">
        <ele>77.973159</ele>
        <time>2020-07-28T11:23:41.234Z</time>
      </trkpt>
      <trkpt lat="61.59298" lon="5.44634">
        <ele>77.995939</ele>
        <time>2020-07-28T11:23:44.220Z</time>
      </trkpt>
      <trkpt lat="61.59301" lon="5.44612">
        <ele>78.019873</ele>
        <time>2020-07-28T11:23:47.228Z</time>
      </trkpt>
      <trkpt lat="61.59303" lon="5.44588">
        <ele>78.045086</ele>
        <time>2020-07-28T11:23:50.219Z</time>
      </trkpt>
      <trkpt lat="61.59306" lon="5.44564">
        <ele>78.070078</ele>
        <time>2020-07-28T11:23:53.223Z</time>
      </trkpt>
      <trkpt lat="61.59311" lon="5.44539">
        <ele>78.075576</ele>
        <time>2020-07-28T11:23:56.208Z</time>
      </trkpt>
      <trkpt lat="61.59315" lon="5.44522">
        <ele>77.959853</ele>
        <time>2020-07-28T11:23:58.227Z</time>
      </trkpt>
      <trkpt lat="61.5932" lon="5.44502">
        <ele>77.822815</ele>
        <time>2020-07-28T11:24:00.224Z</time>
      </trkpt>
      <trkpt lat="61.59328" lon="5.4448">
        <ele>77.669231</ele>
        <time>2020-07-28T11:24:02.224Z</time>
      </trkpt>
      <trkpt lat="61.59335" lon="5.44457">
        <ele>77.506907</ele>
        <time>2020-07-28T11:24:04.220Z</time>
      </trkpt>
      <trkpt lat="61.59342" lon="5.44432">
        <ele>77.335635</ele>
        <time>2020-07-28T11:24:06.216Z</time>
      </trkpt>
      <trkpt lat="61.5935" lon="5.44406">
        <ele>77.153941</ele>
        <time>2020-07-28T11:24:08.237Z</time>
      </trkpt>
      <trkpt lat="61.59359" lon="5.44379">
        <ele>76.960688</ele>
        <time>2020-07-28T11:24:10.221Z</time>
      </trkpt>
      <trkpt lat="61.59367" lon="5.44351">
        <ele>76.761965</ele>
        <time>2020-07-28T11:24:12.222Z</time>
      </trkpt>
      <trkpt lat="61.59375" lon="5.44323">
        <ele>76.572501</ele>
        <time>2020-07-28T11:24:14.216Z</time>
      </trkpt>
      <trkpt lat="61.59384" lon="5.44298">
        <ele>76.391589</ele>
        <time>2020-07-28T11:24:16.220Z</time>
      </trkpt>
      <trkpt lat="61.59391" lon="5.44275">
        <ele>76.233571</ele>
        <time>2020-07-28T11:24:18.256Z</time>
      </trkpt>
      <trkpt lat="61.59397" lon="5.44256">
        <ele>76.100018</ele>
        <time>2020-07-28T11:24:20.235Z</time>
      </trkpt>
      <trkpt lat="61.59403" lon="5.44236">
        <ele>75.956722</ele>
        <time>2020-07-28T11:24:23.233Z</time>
      </trkpt>
      <trkpt lat="61.59409" lon="5.44219">
        <ele>76.020735</ele>
        <time>2020-07-28T11:24:27.213Z</time>
      </trkpt>
      <trkpt lat="61.59415" lon="5.44201">
        <ele>76.514717</ele>
        <time>2020-07-28T11:24:32.215Z</time>
      </trkpt>
      <trkpt lat="61.59422" lon="5.44184">
        <ele>77.019383</ele>
        <time>2020-07-28T11:24:38.231Z</time>
      </trkpt>
      <trkpt lat="61.59427" lon="5.44168">
        <ele>77.455343</ele>
        <time>2020-07-28T11:24:43.212Z</time>
      </trkpt>
      <trkpt lat="61.59432" lon="5.44149">
        <ele>77.94298</ele>
        <time>2020-07-28T11:24:49.222Z</time>
      </trkpt>
      <trkpt lat="61.59437" lon="5.44134">
        <ele>78.376061</ele>
        <time>2020-07-28T11:24:54.222Z</time>
      </trkpt>
      <trkpt lat="61.59443" lon="5.44119">
        <ele>78.80667</ele>
        <time>2020-07-28T11:24:59.220Z</time>
      </trkpt>
      <trkpt lat="61.59449" lon="5.44102">
        <ele>79.298033</ele>
        <time>2020-07-28T11:25:05.219Z</time>
      </trkpt>
      <trkpt lat="61.59455" lon="5.44083">
        <ele>79.783799</ele>
        <time>2020-07-28T11:25:11.207Z</time>
      </trkpt>
      <trkpt lat="61.59461" lon="5.44068">
        <ele>80.232102</ele>
        <time>2020-07-28T11:25:17.239Z</time>
      </trkpt>
      <trkpt lat="61.59466" lon="5.4405">
        <ele>80.710163</ele>
        <time>2020-07-28T11:25:23.221Z</time>
      </trkpt>
      <trkpt lat="61.59471" lon="5.44031">
        <ele>81.205358</ele>
        <time>2020-07-28T11:25:29.236Z</time>
      </trkpt>
      <trkpt lat="61.59478" lon="5.44015">
        <ele>81.69184</ele>
        <time>2020-07-28T11:25:35.219Z</time>
      </trkpt>
      <trkpt lat="61.59483" lon="5.43999">
        <ele>82.13881</ele>
        <time>2020-07-28T11:25:40.248Z</time>
      </trkpt>
      <trkpt lat="61.59488" lon="5.43981">
        <ele>82.583819</ele>
        <time>2020-07-28T11:25:45.211Z</time>
      </trkpt>
      <trkpt lat="61.59493" lon="5.43964">
        <ele>83.045448</ele>
        <time>2020-07-28T11:25:50.245Z</time>
      </trkpt>
      <trkpt lat="61.59498" lon="5.43947">
        <ele>83.503592</ele>
        <time>2020-07-28T11:25:55.222Z</time>
      </trkpt>
      <trkpt lat="61.59506" lon="5.43932">
        <ele>83.997373</ele>
        <time>2020-07-28T11:26:00.226Z</time>
      </trkpt>
      <trkpt lat="61.59511" lon="5.43915">
        <ele>84.400392</ele>
        <time>2020-07-28T11:26:05.226Z</time>
      </trkpt>
      <trkpt lat="61.59516" lon="5.43898">
        <ele>84.317476</ele>
        <time>2020-07-28T11:26:09.212Z</time>
      </trkpt>
      <trkpt lat="61.59523" lon="5.43879">
        <ele>84.214305</ele>
        <time>2020-07-28T11:26:13.210Z</time>
      </trkpt>
      <trkpt lat="61.59528" lon="5.43864">
        <ele>84.132965</ele>
        <time>2020-07-28T11:26:16.228Z</time>
      </trkpt>
      <trkpt lat="61.59535" lon="5.43844">
        <ele>84.026159</ele>
        <time>2020-07-28T11:26:20.224Z</time>
      </trkpt>
      <trkpt lat="61.59543" lon="5.43828">
        <ele>83.928179</ele>
        <time>2020-07-28T11:26:24.249Z</time>
      </trkpt>
      <trkpt lat="61.59551" lon="5.43816">
        <ele>83.834782</ele>
        <time>2020-07-28T11:26:29.248Z</time>
      </trkpt>
      <trkpt lat="61.5956" lon="5.43806">
        <ele>83.743408</ele>
        <time>2020-07-28T11:26:34.235Z</time>
      </trkpt>
      <trkpt lat="61.5957" lon="5.43805">
        <ele>83.648854</ele>
        <time>2020-07-28T11:26:39.253Z</time>
      </trkpt>
      <trkpt lat="61.59581" lon="5.43805">
        <ele>83.552618</ele>
        <time>2020-07-28T11:26:43.230Z</time>
      </trkpt>
      <trkpt lat="61.59589" lon="5.43794">
        <ele>83.464196</ele>
        <time>2020-07-28T11:26:46.232Z</time>
      </trkpt>
      <trkpt lat="61.59591" lon="5.43773">
        <ele>83.373916</ele>
        <time>2020-07-28T11:26:51.222Z</time>
      </trkpt>
      <trkpt lat="61.59591" lon="5.43739">
        <ele>83.227171</ele>
        <time>2020-07-28T11:28:46.245Z</time>
      </trkpt>
      <trkpt lat="61.59593" lon="5.4372">
        <ele>83.141301</ele>
        <time>2020-07-28T11:28:49.243Z</time>
      </trkpt>
      <trkpt lat="61.59596" lon="5.43693">
        <ele>83.023719</ele>
        <time>2020-07-28T11:28:52.213Z</time>
      </trkpt>
      <trkpt lat="61.59599" lon="5.43673">
        <ele>82.932815</ele>
        <time>2020-07-28T11:28:54.267Z</time>
      </trkpt>
      <trkpt lat="61.59602" lon="5.4365">
        <ele>82.828182</ele>
        <time>2020-07-28T11:28:56.206Z</time>
      </trkpt>
      <trkpt lat="61.59606" lon="5.43624">
        <ele>82.459939</ele>
        <time>2020-07-28T11:28:58.234Z</time>
      </trkpt>
      <trkpt lat="61.59611" lon="5.43596">
        <ele>81.85112</ele>
        <time>2020-07-28T11:29:00.218Z</time>
      </trkpt>
      <trkpt lat="61.59617" lon="5.43565">
        <ele>81.173919</ele>
        <time>2020-07-28T11:29:02.223Z</time>
      </trkpt>
      <trkpt lat="61.59623" lon="5.43532">
        <ele>80.450067</ele>
        <time>2020-07-28T11:29:04.219Z</time>
      </trkpt>
      <trkpt lat="61.59631" lon="5.43498">
        <ele>79.678585</ele>
        <time>2020-07-28T11:29:06.225Z</time>
      </trkpt>
      <trkpt lat="61.59635" lon="5.43479">
        <ele>79.272293</ele>
        <time>2020-07-28T11:29:07.202Z</time>
      </trkpt>
      <trkpt lat="61.59639" lon="5.4346">
        <ele>78.847959</ele>
        <time>2020-07-28T11:29:08.223Z</time>
      </trkpt>
      <trkpt lat="61.59643" lon="5.43441">
        <ele>78.412543</ele>
        <time>2020-07-28T11:29:09.213Z</time>
      </trkpt>
      <trkpt lat="61.59648" lon="5.43422">
        <ele>77.977128</ele>
        <time>2020-07-28T11:29:10.205Z</time>
      </trkpt>
      <trkpt lat="61.59652" lon="5.43402">
        <ele>77.528989</ele>
        <time>2020-07-28T11:29:11.206Z</time>
      </trkpt>
      <trkpt lat="61.59657" lon="5.43381">
        <ele>77.064253</ele>
        <time>2020-07-28T11:29:12.223Z</time>
      </trkpt>
      <trkpt lat="61.59662" lon="5.4336">
        <ele>76.590398</ele>
        <time>2020-07-28T11:29:13.236Z</time>
      </trkpt>
      <trkpt lat="61.59667" lon="5.43339">
        <ele>76.109038</ele>
        <time>2020-07-28T11:29:14.251Z</time>
      </trkpt>
      <trkpt lat="61.59672" lon="5.43318">
        <ele>75.616535</ele>
        <time>2020-07-28T11:29:15.215Z</time>
      </trkpt>
      <trkpt lat="61.59678" lon="5.43296">
        <ele>75.114843</ele>
        <time>2020-07-28T11:29:16.215Z</time>
      </trkpt>
      <trkpt lat="61.59683" lon="5.43274">
        <ele>74.659967</ele>
        <time>2020-07-28T11:29:17.228Z</time>
      </trkpt>
      <trkpt lat="61.59688" lon="5.43252">
        <ele>74.21278</ele>
        <time>2020-07-28T11:29:18.258Z</time>
      </trkpt>
      <trkpt lat="61.59694" lon="5.43231">
        <ele>73.770466</ele>
        <time>2020-07-28T11:29:19.238Z</time>
      </trkpt>
      <trkpt lat="61.59699" lon="5.4321">
        <ele>73.334428</ele>
        <time>2020-07-28T11:29:20.203Z</time>
      </trkpt>
      <trkpt lat="61.59704" lon="5.43189">
        <ele>72.903427</ele>
        <time>2020-07-28T11:29:21.218Z</time>
      </trkpt>
      <trkpt lat="61.59709" lon="5.43168">
        <ele>72.47907</ele>
        <time>2020-07-28T11:29:22.207Z</time>
      </trkpt>
      <trkpt lat="61.59715" lon="5.43149">
        <ele>72.068848</ele>
        <time>2020-07-28T11:29:23.225Z</time>
      </trkpt>
      <trkpt lat="61.5972" lon="5.4313">
        <ele>71.677286</ele>
        <time>2020-07-28T11:29:24.206Z</time>
      </trkpt>
      <trkpt lat="61.59724" lon="5.43112">
        <ele>71.307635</ele>
        <time>2020-07-28T11:29:25.215Z</time>
      </trkpt>
      <trkpt lat="61.59728" lon="5.43095">
        <ele>70.952526</ele>
        <time>2020-07-28T11:29:26.212Z</time>
      </trkpt>
      <trkpt lat="61.59738" lon="5.43063">
        <ele>70.276241</ele>
        <time>2020-07-28T11:29:28.243Z</time>
      </trkpt>
      <trkpt lat="61.59746" lon="5.43033">
        <ele>69.626657</ele>
        <time>2020-07-28T11:29:30.247Z</time>
      </trkpt>
      <trkpt lat="61.59754" lon="5.43005">
        <ele>69.031625</ele>
        <time>2020-07-28T11:29:32.215Z</time>
      </trkpt>
      <trkpt lat="61.59761" lon="5.42978">
        <ele>68.463061</ele>
        <time>2020-07-28T11:29:34.227Z</time>
      </trkpt>
      <trkpt lat="61.59769" lon="5.42953">
        <ele>68.282635</ele>
        <time>2020-07-28T11:29:36.203Z</time>
      </trkpt>
      <trkpt lat="61.59776" lon="5.42929">
        <ele>68.475974</ele>
        <time>2020-07-28T11:29:38.213Z</time>
      </trkpt>
      <trkpt lat="61.59782" lon="5.42907">
        <ele>68.651884</ele>
        <time>2020-07-28T11:29:40.217Z</time>
      </trkpt>
      <trkpt lat="61.59788" lon="5.42888">
        <ele>68.808371</ele>
        <time>2020-07-28T11:29:42.226Z</time>
      </trkpt>
      <trkpt lat="61.59792" lon="5.42869">
        <ele>68.955229</ele>
        <time>2020-07-28T11:29:44.208Z</time>
      </trkpt>
      <trkpt lat="61.59796" lon="5.42851">
        <ele>69.099424</ele>
        <time>2020-07-28T11:29:46.218Z</time>
      </trkpt>
      <trkpt lat="61.598" lon="5.42832">
        <ele>69.239852</ele>
        <time>2020-07-28T11:29:48.231Z</time>
      </trkpt>
      <trkpt lat="61.59804" lon="5.42815">
        <ele>69.371455</ele>
        <time>2020-07-28T11:29:50.210Z</time>
      </trkpt>
      <trkpt lat="61.5981" lon="5.4279">
        <ele>69.562904</ele>
        <time>2020-07-28T11:29:53.244Z</time>
      </trkpt>
      <trkpt lat="61.59815" lon="5.42767">
        <ele>69.74236</ele>
        <time>2020-07-28T11:29:56.202Z</time>
      </trkpt>
      <trkpt lat="61.5982" lon="5.42745">
        <ele>69.909222</ele>
        <time>2020-07-28T11:29:59.242Z</time>
      </trkpt>
      <trkpt lat="61.59824" lon="5.42725">
        <ele>70.067949</ele>
        <time>2020-07-28T11:30:02.207Z</time>
      </trkpt>
      <trkpt lat="61.59829" lon="5.42705">
        <ele>70.219717</ele>
        <time>2020-07-28T11:30:05.215Z</time>
      </trkpt>
      <trkpt lat="61.59832" lon="5.42686">
        <ele>70.361786</ele>
        <time>2020-07-28T11:30:08.220Z</time>
      </trkpt>
      <trkpt lat="61.59835" lon="5.42667">
        <ele>70.497604</ele>
        <time>2020-07-28T11:30:11.221Z</time>
      </trkpt>
      <trkpt lat="61.59838" lon="5.42649">
        <ele>70.630774</ele>
        <time>2020-07-28T11:30:14.230Z</time>
      </trkpt>
      <trkpt lat="61.59841" lon="5.42626">
        <ele>70.80384</ele>
        <time>2020-07-28T11:30:18.245Z</time>
      </trkpt>
      <trkpt lat="61.59845" lon="5.42602">
        <ele>71.538894</ele>
        <time>2020-07-28T11:30:22.219Z</time>
      </trkpt>
      <trkpt lat="61.59848" lon="5.4258">
        <ele>72.262053</ele>
        <time>2020-07-28T11:30:26.208Z</time>
      </trkpt>
      <trkpt lat="61.59851" lon="5.4256">
        <ele>72.953899</ele>
        <time>2020-07-28T11:30:30.217Z</time>
      </trkpt>
      <trkpt lat="61.59854" lon="5.42539">
        <ele>73.64198</ele>
        <time>2020-07-28T11:30:34.206Z</time>
      </trkpt>
      <trkpt lat="61.59857" lon="5.42519">
        <ele>74.283537</ele>
        <time>2020-07-28T11:30:38.243Z</time>
      </trkpt>
      <trkpt lat="61.5986" lon="5.425">
        <ele>74.934965</ele>
        <time>2020-07-28T11:30:42.200Z</time>
      </trkpt>
      <trkpt lat="61.59863" lon="5.4248">
        <ele>75.595525</ele>
        <time>2020-07-28T11:30:46.205Z</time>
      </trkpt>
      <trkpt lat="61.59865" lon="5.42462">
        <ele>76.194937</ele>
        <time>2020-07-28T11:30:50.224Z</time>
      </trkpt>
      <trkpt lat="61.59867" lon="5.42442">
        <ele>76.831639</ele>
        <time>2020-07-28T11:30:54.215Z</time>
      </trkpt>
      <trkpt lat="61.5987" lon="5.42423">
        <ele>77.479999</ele>
        <time>2020-07-28T11:30:58.210Z</time>
      </trkpt>
      <trkpt lat="61.59872" lon="5.42402">
        <ele>78.175238</ele>
        <time>2020-07-28T11:31:03.241Z</time>
      </trkpt>
      <trkpt lat="61.59875" lon="5.42379">
        <ele>78.906776</ele>
        <time>2020-07-28T11:31:08.216Z</time>
      </trkpt>
      <trkpt lat="61.59879" lon="5.42358">
        <ele>79.627905</ele>
        <time>2020-07-28T11:31:13.230Z</time>
      </trkpt>
      <trkpt lat="61.59881" lon="5.42339">
        <ele>80.249017</ele>
        <time>2020-07-28T11:31:17.241Z</time>
      </trkpt>
      <trkpt lat="61.59883" lon="5.4232">
        <ele>80.880737</ele>
        <time>2020-07-28T11:31:21.218Z</time>
      </trkpt>
      <trkpt lat="61.59886" lon="5.42299">
        <ele>81.580691</ele>
        <time>2020-07-28T11:31:25.219Z</time>
      </trkpt>
      <trkpt lat="61.59889" lon="5.42277">
        <ele>82.305465</ele>
        <time>2020-07-28T11:31:29.228Z</time>
      </trkpt>
      <trkpt lat="61.59893" lon="5.42256">
        <ele>82.83183</ele>
        <time>2020-07-28T11:31:33.229Z</time>
      </trkpt>
      <trkpt lat="61.59896" lon="5.42234">
        <ele>82.724452</ele>
        <time>2020-07-28T11:31:37.211Z</time>
      </trkpt>
      <trkpt lat="61.59899" lon="5.42214">
        <ele>82.626386</ele>
        <time>2020-07-28T11:31:41.233Z</time>
      </trkpt>
      <trkpt lat="61.59903" lon="5.42192">
        <ele>82.51715</ele>
        <time>2020-07-28T11:31:45.247Z</time>
      </trkpt>
      <trkpt lat="61.59907" lon="5.4217">
        <ele>82.40912</ele>
        <time>2020-07-28T11:31:49.214Z</time>
      </trkpt>
      <trkpt lat="61.59911" lon="5.42148">
        <ele>82.301421</ele>
        <time>2020-07-28T11:31:53.223Z</time>
      </trkpt>
      <trkpt lat="61.59915" lon="5.42132">
        <ele>82.214233</ele>
        <time>2020-07-28T11:31:56.229Z</time>
      </trkpt>
      <trkpt lat="61.59919" lon="5.42114">
        <ele>82.126331</ele>
        <time>2020-07-28T11:31:59.211Z</time>
      </trkpt>
      <trkpt lat="61.59922" lon="5.42096">
        <ele>82.034498</ele>
        <time>2020-07-28T11:32:02.234Z</time>
      </trkpt>
      <trkpt lat="61.59925" lon="5.42078">
        <ele>81.94467</ele>
        <time>2020-07-28T11:32:05.251Z</time>
      </trkpt>
      <trkpt lat="61.59928" lon="5.42059">
        <ele>81.851758</ele>
        <time>2020-07-28T11:32:08.223Z</time>
      </trkpt>
      <trkpt lat="61.59933" lon="5.42038">
        <ele>81.746189</ele>
        <time>2020-07-28T11:32:11.218Z</time>
      </trkpt>
      <trkpt lat="61.59938" lon="5.42016">
        <ele>81.635203</ele>
        <time>2020-07-28T11:32:14.205Z</time>
      </trkpt>
      <trkpt lat="61.59943" lon="5.41996">
        <ele>81.528404</ele>
        <time>2020-07-28T11:32:17.218Z</time>
      </trkpt>
      <trkpt lat="61.59949" lon="5.41975">
        <ele>81.416029</ele>
        <time>2020-07-28T11:32:20.220Z</time>
      </trkpt>
      <trkpt lat="61.59955" lon="5.41952">
        <ele>81.293837</ele>
        <time>2020-07-28T11:32:23.218Z</time>
      </trkpt>
      <trkpt lat="61.59959" lon="5.41935">
        <ele>81.206361</ele>
        <time>2020-07-28T11:32:25.206Z</time>
      </trkpt>
      <trkpt lat="61.59963" lon="5.41919">
        <ele>81.118297</ele>
        <time>2020-07-28T11:32:27.212Z</time>
      </trkpt>
      <trkpt lat="61.59968" lon="5.41902">
        <ele>80.968222</ele>
        <time>2020-07-28T11:32:29.275Z</time>
      </trkpt>
      <trkpt lat="61.59972" lon="5.41884">
        <ele>80.796601</ele>
        <time>2020-07-28T11:32:31.224Z</time>
      </trkpt>
      <trkpt lat="61.59977" lon="5.41866">
        <ele>80.611643</ele>
        <time>2020-07-28T11:32:33.213Z</time>
      </trkpt>
      <trkpt lat="61.59983" lon="5.41846">
        <ele>80.419708</ele>
        <time>2020-07-28T11:32:35.215Z</time>
      </trkpt>
      <trkpt lat="61.59989" lon="5.41827">
        <ele>80.220964</ele>
        <time>2020-07-28T11:32:37.252Z</time>
      </trkpt>
      <trkpt lat="61.59996" lon="5.41808">
        <ele>80.024284</ele>
        <time>2020-07-28T11:32:39.206Z</time>
      </trkpt>
      <trkpt lat="61.60002" lon="5.41791">
        <ele>79.829368</ele>
        <time>2020-07-28T11:32:41.216Z</time>
      </trkpt>
      <trkpt lat="61.60009" lon="5.41774">
        <ele>79.636563</ele>
        <time>2020-07-28T11:32:43.206Z</time>
      </trkpt>
      <trkpt lat="61.60017" lon="5.41758">
        <ele>79.447506</ele>
        <time>2020-07-28T11:32:45.244Z</time>
      </trkpt>
      <trkpt lat="61.60026" lon="5.41744">
        <ele>79.24767</ele>
        <time>2020-07-28T11:32:47.205Z</time>
      </trkpt>
      <trkpt lat="61.60035" lon="5.41731">
        <ele>79.05194</ele>
        <time>2020-07-28T11:32:49.219Z</time>
      </trkpt>
      <trkpt lat="61.60043" lon="5.41718">
        <ele>78.86458</ele>
        <time>2020-07-28T11:32:51.216Z</time>
      </trkpt>
      <trkpt lat="61.60052" lon="5.41705">
        <ele>78.672317</ele>
        <time>2020-07-28T11:32:53.218Z</time>
      </trkpt>
      <trkpt lat="61.60062" lon="5.41693">
        <ele>78.464827</ele>
        <time>2020-07-28T11:32:55.216Z</time>
      </trkpt>
      <trkpt lat="61.60071" lon="5.4168">
        <ele>78.272424</ele>
        <time>2020-07-28T11:32:57.239Z</time>
      </trkpt>
      <trkpt lat="61.6008" lon="5.41669">
        <ele>78.087153</ele>
        <time>2020-07-28T11:32:59.223Z</time>
      </trkpt>
      <trkpt lat="61.60089" lon="5.41658">
        <ele>77.894686</ele>
        <time>2020-07-28T11:33:01.206Z</time>
      </trkpt>
      <trkpt lat="61.60098" lon="5.41647">
        <ele>77.86606</ele>
        <time>2020-07-28T11:33:03.207Z</time>
      </trkpt>
      <trkpt lat="61.60108" lon="5.41637">
        <ele>77.860425</ele>
        <time>2020-07-28T11:33:05.200Z</time>
      </trkpt>
      <trkpt lat="61.60117" lon="5.41625">
        <ele>77.854994</ele>
        <time>2020-07-28T11:33:07.242Z</time>
      </trkpt>
      <trkpt lat="61.60125" lon="5.41612">
        <ele>77.849692</ele>
        <time>2020-07-28T11:33:09.225Z</time>
      </trkpt>
      <trkpt lat="61.60133" lon="5.41599">
        <ele>77.844391</ele>
        <time>2020-07-28T11:33:11.233Z</time>
      </trkpt>
      <trkpt lat="61.6014" lon="5.41584">
        <ele>77.839039</ele>
        <time>2020-07-28T11:33:13.207Z</time>
      </trkpt>
      <trkpt lat="61.60147" lon="5.41568">
        <ele>77.833745</ele>
        <time>2020-07-28T11:33:15.196Z</time>
      </trkpt>
      <trkpt lat="61.60154" lon="5.41553">
        <ele>77.82863</ele>
        <time>2020-07-28T11:33:17.217Z</time>
      </trkpt>
      <trkpt lat="61.60159" lon="5.41538">
        <ele>77.823888</ele>
        <time>2020-07-28T11:33:19.247Z</time>
      </trkpt>
      <trkpt lat="61.60167" lon="5.41516">
        <ele>77.817053</ele>
        <time>2020-07-28T11:33:22.215Z</time>
      </trkpt>
      <trkpt lat="61.60174" lon="5.41493">
        <ele>77.810288</ele>
        <time>2020-07-28T11:33:25.210Z</time>
      </trkpt>
      <trkpt lat="61.60181" lon="5.4147">
        <ele>77.803577</ele>
        <time>2020-07-28T11:33:28.239Z</time>
      </trkpt>
      <trkpt lat="61.60187" lon="5.41445">
        <ele>77.796592</ele>
        <time>2020-07-28T11:33:31.224Z</time>
      </trkpt>
      <trkpt lat="61.60193" lon="5.41421">
        <ele>77.790084</ele>
        <time>2020-07-28T11:33:34.201Z</time>
      </trkpt>
      <trkpt lat="61.60199" lon="5.41398">
        <ele>77.783544</ele>
        <time>2020-07-28T11:33:37.229Z</time>
      </trkpt>
      <trkpt lat="61.60205" lon="5.41373">
        <ele>77.742851</ele>
        <time>2020-07-28T11:33:40.232Z</time>
      </trkpt>
      <trkpt lat="61.6021" lon="5.41356">
        <ele>77.4918</ele>
        <time>2020-07-28T11:33:42.223Z</time>
      </trkpt>
      <trkpt lat="61.60215" lon="5.4134">
        <ele>77.250218</ele>
        <time>2020-07-28T11:33:44.281Z</time>
      </trkpt>
      <trkpt lat="61.6022" lon="5.41324">
        <ele>77.013832</ele>
        <time>2020-07-28T11:33:46.239Z</time>
      </trkpt>
      <trkpt lat="61.60225" lon="5.41307">
        <ele>76.769433</ele>
        <time>2020-07-28T11:33:48.232Z</time>
      </trkpt>
      <trkpt lat="61.6023" lon="5.41289">
        <ele>76.512231</ele>
        <time>2020-07-28T11:33:50.227Z</time>
      </trkpt>
      <trkpt lat="61.60235" lon="5.4127">
        <ele>76.254444</ele>
        <time>2020-07-28T11:33:52.242Z</time>
      </trkpt>
      <trkpt lat="61.60239" lon="5.41251">
        <ele>75.986546</ele>
        <time>2020-07-28T11:33:54.221Z</time>
      </trkpt>
      <trkpt lat="61.60245" lon="5.41232">
        <ele>75.706942</ele>
        <time>2020-07-28T11:33:56.220Z</time>
      </trkpt>
      <trkpt lat="61.6025" lon="5.41212">
        <ele>75.422815</ele>
        <time>2020-07-28T11:33:58.241Z</time>
      </trkpt>
      <trkpt lat="61.60256" lon="5.41191">
        <ele>75.129403</ele>
        <time>2020-07-28T11:34:00.223Z</time>
      </trkpt>
      <trkpt lat="61.60262" lon="5.41169">
        <ele>74.805344</ele>
        <time>2020-07-28T11:34:02.200Z</time>
      </trkpt>
      <trkpt lat="61.6027" lon="5.41144">
        <ele>74.441562</ele>
        <time>2020-07-28T11:34:04.228Z</time>
      </trkpt>
      <trkpt lat="61.60278" lon="5.41119">
        <ele>74.063487</ele>
        <time>2020-07-28T11:34:06.211Z</time>
      </trkpt>
      <trkpt lat="61.60285" lon="5.41091">
        <ele>73.666134</ele>
        <time>2020-07-28T11:34:08.237Z</time>
      </trkpt>
      <trkpt lat="61.60293" lon="5.41062">
        <ele>73.255519</ele>
        <time>2020-07-28T11:34:10.214Z</time>
      </trkpt>
      <trkpt lat="61.60301" lon="5.41033">
        <ele>73.092305</ele>
        <time>2020-07-28T11:34:12.227Z</time>
      </trkpt>
      <trkpt lat="61.60309" lon="5.41003">
        <ele>73.100873</ele>
        <time>2020-07-28T11:34:14.227Z</time>
      </trkpt>
      <trkpt lat="61.60317" lon="5.40974">
        <ele>73.109445</ele>
        <time>2020-07-28T11:34:16.238Z</time>
      </trkpt>
      <trkpt lat="61.60325" lon="5.40945">
        <ele>73.117829</ele>
        <time>2020-07-28T11:34:18.233Z</time>
      </trkpt>
      <trkpt lat="61.60332" lon="5.40918">
        <ele>73.125768</ele>
        <time>2020-07-28T11:34:20.221Z</time>
      </trkpt>
      <trkpt lat="61.60339" lon="5.40892">
        <ele>73.133462</ele>
        <time>2020-07-28T11:34:22.307Z</time>
      </trkpt>
      <trkpt lat="61.60346" lon="5.40867">
        <ele>73.14071</ele>
        <time>2020-07-28T11:34:24.194Z</time>
      </trkpt>
      <trkpt lat="61.60352" lon="5.40844">
        <ele>73.147321</ele>
        <time>2020-07-28T11:34:26.212Z</time>
      </trkpt>
      <trkpt lat="61.60357" lon="5.40824">
        <ele>73.152997</ele>
        <time>2020-07-28T11:34:28.260Z</time>
      </trkpt>
      <trkpt lat="61.60362" lon="5.40806">
        <ele>73.158595</ele>
        <time>2020-07-28T11:34:30.204Z</time>
      </trkpt>
      <trkpt lat="61.60368" lon="5.40789">
        <ele>73.163604</ele>
        <time>2020-07-28T11:34:32.217Z</time>
      </trkpt>
      <trkpt lat="61.60373" lon="5.40773">
        <ele>73.16851</ele>
        <time>2020-07-28T11:34:34.198Z</time>
      </trkpt>
      <trkpt lat="61.6038" lon="5.40751">
        <ele>73.175267</ele>
        <time>2020-07-28T11:34:37.212Z</time>
      </trkpt>
      <trkpt lat="61.60386" lon="5.40731">
        <ele>73.181263</ele>
        <time>2020-07-28T11:34:40.207Z</time>
      </trkpt>
      <trkpt lat="61.6039" lon="5.40711">
        <ele>73.599456</ele>
        <time>2020-07-28T11:34:43.193Z</time>
      </trkpt>
      <trkpt lat="61.60394" lon="5.40692">
        <ele>74.200064</ele>
        <time>2020-07-28T11:34:46.210Z</time>
      </trkpt>
      <trkpt lat="61.60399" lon="5.40673">
        <ele>74.836163</ele>
        <time>2020-07-28T11:34:49.266Z</time>
      </trkpt>
      <trkpt lat="61.60405" lon="5.40654">
        <ele>75.445275</ele>
        <time>2020-07-28T11:34:52.241Z</time>
      </trkpt>
      <trkpt lat="61.6041" lon="5.40636">
        <ele>76.067984</ele>
        <time>2020-07-28T11:34:55.265Z</time>
      </trkpt>
      <trkpt lat="61.60415" lon="5.40618">
        <ele>76.654502</ele>
        <time>2020-07-28T11:34:58.216Z</time>
      </trkpt>
      <trkpt lat="61.60419" lon="5.40601">
        <ele>77.22021</ele>
        <time>2020-07-28T11:35:01.223Z</time>
      </trkpt>
      <trkpt lat="61.60424" lon="5.40584">
        <ele>77.768566</ele>
        <time>2020-07-28T11:35:04.217Z</time>
      </trkpt>
      <trkpt lat="61.6043" lon="5.40563">
        <ele>78.465356</ele>
        <time>2020-07-28T11:35:08.251Z</time>
      </trkpt>
      <trkpt lat="61.60434" lon="5.40543">
        <ele>79.091695</ele>
        <time>2020-07-28T11:35:12.222Z</time>
      </trkpt>
      <trkpt lat="61.60439" lon="5.40522">
        <ele>79.748994</ele>
        <time>2020-07-28T11:35:16.221Z</time>
      </trkpt>
      <trkpt lat="61.60442" lon="5.40501">
        <ele>80.373122</ele>
        <time>2020-07-28T11:35:20.225Z</time>
      </trkpt>
      <trkpt lat="61.60445" lon="5.40481">
        <ele>80.99083</ele>
        <time>2020-07-28T11:35:24.211Z</time>
      </trkpt>
      <trkpt lat="61.60448" lon="5.40459">
        <ele>81.636544</ele>
        <time>2020-07-28T11:35:28.244Z</time>
      </trkpt>
      <trkpt lat="61.60451" lon="5.40436">
        <ele>82.312916</ele>
        <time>2020-07-28T11:35:32.236Z</time>
      </trkpt>
      <trkpt lat="61.60454" lon="5.40412">
        <ele>83.029817</ele>
        <time>2020-07-28T11:35:36.227Z</time>
      </trkpt>
      <trkpt lat="61.60457" lon="5.40394">
        <ele>83.570502</ele>
        <time>2020-07-28T11:35:39.217Z</time>
      </trkpt>
      <trkpt lat="61.6046" lon="5.4037">
        <ele>83.85943</ele>
        <time>2020-07-28T11:35:43.260Z</time>
      </trkpt>
      <trkpt lat="61.60463" lon="5.40347">
        <ele>83.598092</ele>
        <time>2020-07-28T11:35:47.256Z</time>
      </trkpt>
      <trkpt lat="61.60466" lon="5.40322">
        <ele>83.320945</ele>
        <time>2020-07-28T11:35:51.253Z</time>
      </trkpt>
      <trkpt lat="61.60467" lon="5.40298">
        <ele>83.047751</ele>
        <time>2020-07-28T11:35:55.211Z</time>
      </trkpt>
      <trkpt lat="61.60468" lon="5.40278">
        <ele>82.830184</ele>
        <time>2020-07-28T11:35:58.241Z</time>
      </trkpt>
      <trkpt lat="61.60469" lon="5.40257">
        <ele>82.602047</ele>
        <time>2020-07-28T11:36:01.228Z</time>
      </trkpt>
      <trkpt lat="61.60469" lon="5.40237">
        <ele>82.382839</ele>
        <time>2020-07-28T11:36:04.229Z</time>
      </trkpt>
      <trkpt lat="61.60471" lon="5.40216">
        <ele>82.142625</ele>
        <time>2020-07-28T11:36:07.218Z</time>
      </trkpt>
      <trkpt lat="61.60473" lon="5.40193">
        <ele>81.892524</ele>
        <time>2020-07-28T11:36:10.223Z</time>
      </trkpt>
      <trkpt lat="61.60475" lon="5.4017">
        <ele>81.628993</ele>
        <time>2020-07-28T11:36:13.213Z</time>
      </trkpt>
      <trkpt lat="61.60479" lon="5.40145">
        <ele>81.344991</ele>
        <time>2020-07-28T11:36:16.264Z</time>
      </trkpt>
      <trkpt lat="61.60482" lon="5.4012">
        <ele>81.056105</ele>
        <time>2020-07-28T11:36:19.229Z</time>
      </trkpt>
      <trkpt lat="61.60487" lon="5.40095">
        <ele>80.761891</ele>
        <time>2020-07-28T11:36:22.232Z</time>
      </trkpt>
      <trkpt lat="61.60492" lon="5.40069">
        <ele>80.456434</ele>
        <time>2020-07-28T11:36:25.223Z</time>
      </trkpt>
      <trkpt lat="61.60496" lon="5.40051">
        <ele>80.242978</ele>
        <time>2020-07-28T11:36:27.225Z</time>
      </trkpt>
      <trkpt lat="61.60499" lon="5.40033">
        <ele>80.025472</ele>
        <time>2020-07-28T11:36:29.203Z</time>
      </trkpt>
      <trkpt lat="61.60503" lon="5.40015">
        <ele>79.794993</ele>
        <time>2020-07-28T11:36:31.218Z</time>
      </trkpt>
      <trkpt lat="61.60508" lon="5.39998">
        <ele>79.396016</ele>
        <time>2020-07-28T11:36:33.244Z</time>
      </trkpt>
      <trkpt lat="61.60513" lon="5.3998">
        <ele>78.979185</ele>
        <time>2020-07-28T11:36:35.228Z</time>
      </trkpt>
      <trkpt lat="61.60519" lon="5.3996">
        <ele>78.539406</ele>
        <time>2020-07-28T11:36:37.254Z</time>
      </trkpt>
      <trkpt lat="61.60525" lon="5.3994">
        <ele>78.069718</ele>
        <time>2020-07-28T11:36:39.225Z</time>
      </trkpt>
      <trkpt lat="61.60531" lon="5.39919">
        <ele>77.575471</ele>
        <time>2020-07-28T11:36:41.215Z</time>
      </trkpt>
      <trkpt lat="61.60538" lon="5.39897">
        <ele>77.0445</ele>
        <time>2020-07-28T11:36:43.247Z</time>
      </trkpt>
      <trkpt lat="61.60545" lon="5.39873">
        <ele>76.478987</ele>
        <time>2020-07-28T11:36:45.216Z</time>
      </trkpt>
      <trkpt lat="61.60553" lon="5.39847">
        <ele>75.888944</ele>
        <time>2020-07-28T11:36:47.213Z</time>
      </trkpt>
      <trkpt lat="61.60561" lon="5.39822">
        <ele>75.282681</ele>
        <time>2020-07-28T11:36:49.216Z</time>
      </trkpt>
      <trkpt lat="61.60569" lon="5.39795">
        <ele>74.64639</ele>
        <time>2020-07-28T11:36:51.220Z</time>
      </trkpt>
      <trkpt lat="61.60578" lon="5.39766">
        <ele>73.980037</ele>
        <time>2020-07-28T11:36:53.206Z</time>
      </trkpt>
      <trkpt lat="61.60586" lon="5.39737">
        <ele>73.293534</ele>
        <time>2020-07-28T11:36:55.235Z</time>
      </trkpt>
      <trkpt lat="61.60596" lon="5.39707">
        <ele>72.584155</ele>
        <time>2020-07-28T11:36:57.222Z</time>
      </trkpt>
      <trkpt lat="61.60605" lon="5.39676">
        <ele>72.096095</ele>
        <time>2020-07-28T11:36:59.221Z</time>
      </trkpt>
      <trkpt lat="61.6061" lon="5.3966">
        <ele>71.907782</ele>
        <time>2020-07-28T11:37:00.231Z</time>
      </trkpt>
      <trkpt lat="61.60615" lon="5.39644">
        <ele>71.716503</ele>
        <time>2020-07-28T11:37:01.244Z</time>
      </trkpt>
      <trkpt lat="61.6062" lon="5.39628">
        <ele>71.527439</ele>
        <time>2020-07-28T11:37:02.205Z</time>
      </trkpt>
      <trkpt lat="61.60625" lon="5.39611">
        <ele>71.335606</ele>
        <time>2020-07-28T11:37:03.217Z</time>
      </trkpt>
      <trkpt lat="61.6063" lon="5.39595">
        <ele>71.144863</ele>
        <time>2020-07-28T11:37:04.212Z</time>
      </trkpt>
      <trkpt lat="61.60635" lon="5.39578">
        <ele>70.954348</ele>
        <time>2020-07-28T11:37:05.250Z</time>
      </trkpt>
      <trkpt lat="61.60639" lon="5.39562">
        <ele>70.767436</ele>
        <time>2020-07-28T11:37:06.201Z</time>
      </trkpt>
      <trkpt lat="61.60649" lon="5.3953">
        <ele>70.396525</ele>
        <time>2020-07-28T11:37:08.212Z</time>
      </trkpt>
      <trkpt lat="61.60658" lon="5.39499">
        <ele>70.032828</ele>
        <time>2020-07-28T11:37:10.249Z</time>
      </trkpt>
      <trkpt lat="61.60666" lon="5.39468">
        <ele>69.680616</ele>
        <time>2020-07-28T11:37:12.204Z</time>
      </trkpt>
      <trkpt lat="61.60674" lon="5.39438">
        <ele>69.34863</ele>
        <time>2020-07-28T11:37:14.218Z</time>
      </trkpt>
      <trkpt lat="61.60682" lon="5.39411">
        <ele>69.034303</ele>
        <time>2020-07-28T11:37:16.254Z</time>
      </trkpt>
      <trkpt lat="61.60689" lon="5.39386">
        <ele>68.751815</ele>
        <time>2020-07-28T11:37:18.236Z</time>
      </trkpt>
      <trkpt lat="61.60694" lon="5.39363">
        <ele>68.965047</ele>
        <time>2020-07-28T11:37:20.229Z</time>
      </trkpt>
      <trkpt lat="61.607" lon="5.39344">
        <ele>69.719135</ele>
        <time>2020-07-28T11:37:22.234Z</time>
      </trkpt>
      <trkpt lat="61.60704" lon="5.39327">
        <ele>70.354618</ele>
        <time>2020-07-28T11:37:24.232Z</time>
      </trkpt>
      <trkpt lat="61.60708" lon="5.39303">
        <ele>71.216855</ele>
        <time>2020-07-28T11:37:27.263Z</time>
      </trkpt>
      <trkpt lat="61.60713" lon="5.3928">
        <ele>72.016013</ele>
        <time>2020-07-28T11:37:30.211Z</time>
      </trkpt>
      <trkpt lat="61.60716" lon="5.39261">
        <ele>72.688845</ele>
        <time>2020-07-28T11:37:33.239Z</time>
      </trkpt>
      <trkpt lat="61.60719" lon="5.39243">
        <ele>73.335087</ele>
        <time>2020-07-28T11:37:36.222Z</time>
      </trkpt>
      <trkpt lat="61.60722" lon="5.39224">
        <ele>73.999359</ele>
        <time>2020-07-28T11:37:39.242Z</time>
      </trkpt>
      <trkpt lat="61.60726" lon="5.39202">
        <ele>74.789703</ele>
        <time>2020-07-28T11:37:43.222Z</time>
      </trkpt>
      <trkpt lat="61.6073" lon="5.39181">
        <ele>75.53007</ele>
        <time>2020-07-28T11:37:47.234Z</time>
      </trkpt>
      <trkpt lat="61.60734" lon="5.3916">
        <ele>76.301017</ele>
        <time>2020-07-28T11:37:51.239Z</time>
      </trkpt>
      <trkpt lat="61.60739" lon="5.39141">
        <ele>77.024183</ele>
        <time>2020-07-28T11:37:55.254Z</time>
      </trkpt>
      <trkpt lat="61.60743" lon="5.39121">
        <ele>77.738041</ele>
        <time>2020-07-28T11:37:59.235Z</time>
      </trkpt>
      <trkpt lat="61.60747" lon="5.39103">
        <ele>78.416358</ele>
        <time>2020-07-28T11:38:03.215Z</time>
      </trkpt>
      <trkpt lat="61.6075" lon="5.39084">
        <ele>79.062594</ele>
        <time>2020-07-28T11:38:07.228Z</time>
      </trkpt>
      <trkpt lat="61.60754" lon="5.39066">
        <ele>79.73098</ele>
        <time>2020-07-28T11:38:11.246Z</time>
      </trkpt>
      <trkpt lat="61.60758" lon="5.39048">
        <ele>80.393612</ele>
        <time>2020-07-28T11:38:15.219Z</time>
      </trkpt>
      <trkpt lat="61.60763" lon="5.39031">
        <ele>81.056867</ele>
        <time>2020-07-28T11:38:19.216Z</time>
      </trkpt>
      <trkpt lat="61.60768" lon="5.39014">
        <ele>81.672823</ele>
        <time>2020-07-28T11:38:23.203Z</time>
      </trkpt>
      <trkpt lat="61.60772" lon="5.38996">
        <ele>82.257863</ele>
        <time>2020-07-28T11:38:27.241Z</time>
      </trkpt>
      <trkpt lat="61.60778" lon="5.38977">
        <ele>82.933255</ele>
        <time>2020-07-28T11:38:32.227Z</time>
      </trkpt>
      <trkpt lat="61.60784" lon="5.38959">
        <ele>83.568414</ele>
        <time>2020-07-28T11:38:37.221Z</time>
      </trkpt>
      <trkpt lat="61.6079" lon="5.38943">
        <ele>84.200767</ele>
        <time>2020-07-28T11:38:42.206Z</time>
      </trkpt>
      <trkpt lat="61.60797" lon="5.38925">
        <ele>84.853809</ele>
        <time>2020-07-28T11:38:47.217Z</time>
      </trkpt>
      <trkpt lat="61.60801" lon="5.38909">
        <ele>85.414336</ele>
        <time>2020-07-28T11:38:51.212Z</time>
      </trkpt>
      <trkpt lat="61.60807" lon="5.38889">
        <ele>86.098801</ele>
        <time>2020-07-28T11:38:56.218Z</time>
      </trkpt>
      <trkpt lat="61.60812" lon="5.38871">
        <ele>86.703214</ele>
        <time>2020-07-28T11:39:00.233Z</time>
      </trkpt>
      <trkpt lat="61.60817" lon="5.38855">
        <ele>87.28543</ele>
        <time>2020-07-28T11:39:04.218Z</time>
      </trkpt>
      <trkpt lat="61.60823" lon="5.38839">
        <ele>87.902527</ele>
        <time>2020-07-28T11:39:08.221Z</time>
      </trkpt>
      <trkpt lat="61.6083" lon="5.38822">
        <ele>88.552275</ele>
        <time>2020-07-28T11:39:12.203Z</time>
      </trkpt>
      <trkpt lat="61.60835" lon="5.38804">
        <ele>89.1834</ele>
        <time>2020-07-28T11:39:16.240Z</time>
      </trkpt>
      <trkpt lat="61.60841" lon="5.38785">
        <ele>89.83203</ele>
        <time>2020-07-28T11:39:20.238Z</time>
      </trkpt>
      <trkpt lat="61.60846" lon="5.38765">
        <ele>90.507891</ele>
        <time>2020-07-28T11:39:24.228Z</time>
      </trkpt>
      <trkpt lat="61.6085" lon="5.38744">
        <ele>91.180297</ele>
        <time>2020-07-28T11:39:28.272Z</time>
      </trkpt>
      <trkpt lat="61.60854" lon="5.38727">
        <ele>91.743158</ele>
        <time>2020-07-28T11:39:31.221Z</time>
      </trkpt>
      <trkpt lat="61.60858" lon="5.38708">
        <ele>92.339481</ele>
        <time>2020-07-28T11:39:34.227Z</time>
      </trkpt>
      <trkpt lat="61.6086" lon="5.38686">
        <ele>92.220888</ele>
        <time>2020-07-28T11:39:37.222Z</time>
      </trkpt>
      <trkpt lat="61.60863" lon="5.38664">
        <ele>92.041255</ele>
        <time>2020-07-28T11:39:40.236Z</time>
      </trkpt>
      <trkpt lat="61.60865" lon="5.3864">
        <ele>91.848062</ele>
        <time>2020-07-28T11:39:43.205Z</time>
      </trkpt>
      <trkpt lat="61.60866" lon="5.38615">
        <ele>91.64675</ele>
        <time>2020-07-28T11:39:46.245Z</time>
      </trkpt>
      <trkpt lat="61.60867" lon="5.38596">
        <ele>91.493986</ele>
        <time>2020-07-28T11:39:48.209Z</time>
      </trkpt>
      <trkpt lat="61.60866" lon="5.38575">
        <ele>91.323849</ele>
        <time>2020-07-28T11:39:50.233Z</time>
      </trkpt>
      <trkpt lat="61.60866" lon="5.38552">
        <ele>91.141814</ele>
        <time>2020-07-28T11:39:52.282Z</time>
      </trkpt>
      <trkpt lat="61.60866" lon="5.38526">
        <ele>90.939057</ele>
        <time>2020-07-28T11:39:54.231Z</time>
      </trkpt>
      <trkpt lat="61.60866" lon="5.38498">
        <ele>90.716484</ele>
        <time>2020-07-28T11:39:56.228Z</time>
      </trkpt>
      <trkpt lat="61.60866" lon="5.38469">
        <ele>90.485149</ele>
        <time>2020-07-28T11:39:58.215Z</time>
      </trkpt>
      <trkpt lat="61.60867" lon="5.38438">
        <ele>90.235992</ele>
        <time>2020-07-28T11:40:00.212Z</time>
      </trkpt>
      <trkpt lat="61.60868" lon="5.38405">
        <ele>89.977909</ele>
        <time>2020-07-28T11:40:02.224Z</time>
      </trkpt>
      <trkpt lat="61.60868" lon="5.38372">
        <ele>89.709987</ele>
        <time>2020-07-28T11:40:04.226Z</time>
      </trkpt>
      <trkpt lat="61.60869" lon="5.38337">
        <ele>89.431759</ele>
        <time>2020-07-28T11:40:06.212Z</time>
      </trkpt>
      <trkpt lat="61.60868" lon="5.383">
        <ele>88.361472</ele>
        <time>2020-07-28T11:40:08.229Z</time>
      </trkpt>
      <trkpt lat="61.60868" lon="5.38281">
        <ele>87.726216</ele>
        <time>2020-07-28T11:40:09.240Z</time>
      </trkpt>
      <trkpt lat="61.60868" lon="5.38261">
        <ele>87.08775</ele>
        <time>2020-07-28T11:40:10.240Z</time>
      </trkpt>
      <trkpt lat="61.60868" lon="5.38242">
        <ele>86.439309</ele>
        <time>2020-07-28T11:40:11.210Z</time>
      </trkpt>
      <trkpt lat="61.60868" lon="5.38222">
        <ele>85.780596</ele>
        <time>2020-07-28T11:40:12.229Z</time>
      </trkpt>
      <trkpt lat="61.60867" lon="5.38202">
        <ele>85.11856</ele>
        <time>2020-07-28T11:40:13.227Z</time>
      </trkpt>
      <trkpt lat="61.60867" lon="5.38182">
        <ele>84.44889</ele>
        <time>2020-07-28T11:40:14.225Z</time>
      </trkpt>
      <trkpt lat="61.60866" lon="5.38162">
        <ele>83.772981</ele>
        <time>2020-07-28T11:40:15.208Z</time>
      </trkpt>
      <trkpt lat="61.60866" lon="5.38141">
        <ele>83.097831</ele>
        <time>2020-07-28T11:40:16.236Z</time>
      </trkpt>
      <trkpt lat="61.60866" lon="5.38121">
        <ele>82.419177</ele>
        <time>2020-07-28T11:40:17.221Z</time>
      </trkpt>
      <trkpt lat="61.60865" lon="5.38101">
        <ele>81.75714</ele>
        <time>2020-07-28T11:40:18.229Z</time>
      </trkpt>
      <trkpt lat="61.60865" lon="5.38082">
        <ele>81.105412</ele>
        <time>2020-07-28T11:40:19.231Z</time>
      </trkpt>
      <trkpt lat="61.60865" lon="5.38062">
        <ele>80.46362</ele>
        <time>2020-07-28T11:40:20.201Z</time>
      </trkpt>
      <trkpt lat="61.60865" lon="5.38043">
        <ele>79.831842</ele>
        <time>2020-07-28T11:40:21.241Z</time>
      </trkpt>
      <trkpt lat="61.60866" lon="5.38007">
        <ele>78.628058</ele>
        <time>2020-07-28T11:40:23.232Z</time>
      </trkpt>
      <trkpt lat="61.60866" lon="5.37973">
        <ele>77.507484</ele>
        <time>2020-07-28T11:40:25.226Z</time>
      </trkpt>
      <trkpt lat="61.60866" lon="5.37944">
        <ele>76.910471</ele>
        <time>2020-07-28T11:40:27.238Z</time>
      </trkpt>
      <trkpt lat="61.60866" lon="5.37918">
        <ele>77.233907</ele>
        <time>2020-07-28T11:40:29.214Z</time>
      </trkpt>
      <trkpt lat="61.60867" lon="5.37895">
        <ele>77.516335</ele>
        <time>2020-07-28T11:40:31.216Z</time>
      </trkpt>
      <trkpt lat="61.60867" lon="5.37876">
        <ele>77.76077</ele>
        <time>2020-07-28T11:40:33.218Z</time>
      </trkpt>
      <trkpt lat="61.60869" lon="5.37852">
        <ele>78.060329</ele>
        <time>2020-07-28T11:40:36.240Z</time>
      </trkpt>
      <trkpt lat="61.60869" lon="5.3783">
        <ele>78.339179</ele>
        <time>2020-07-28T11:40:39.228Z</time>
      </trkpt>
      <trkpt lat="61.60871" lon="5.37811">
        <ele>78.594409</ele>
        <time>2020-07-28T11:40:42.211Z</time>
      </trkpt>
      <trkpt lat="61.60873" lon="5.37787">
        <ele>78.89302</ele>
        <time>2020-07-28T11:40:46.217Z</time>
      </trkpt>
      <trkpt lat="61.60874" lon="5.37765">
        <ele>79.173522</ele>
        <time>2020-07-28T11:40:50.223Z</time>
      </trkpt>
      <trkpt lat="61.60878" lon="5.37745">
        <ele>79.434576</ele>
        <time>2020-07-28T11:40:54.228Z</time>
      </trkpt>
      <trkpt lat="61.60873" lon="5.37725">
        <ele>79.713105</ele>
        <time>2020-07-28T11:40:59.241Z</time>
      </trkpt>
      <trkpt lat="61.60868" lon="5.37705">
        <ele>80.010795</ele>
        <time>2020-07-28T11:41:03.241Z</time>
      </trkpt>
      <trkpt lat="61.60871" lon="5.37685">
        <ele>80.27477</ele>
        <time>2020-07-28T11:41:06.208Z</time>
      </trkpt>
      <trkpt lat="61.60879" lon="5.37664">
        <ele>80.614296</ele>
        <time>2020-07-28T11:41:09.219Z</time>
      </trkpt>
      <trkpt lat="61.60886" lon="5.37644">
        <ele>80.932346</ele>
        <time>2020-07-28T11:41:12.221Z</time>
      </trkpt>
      <trkpt lat="61.60893" lon="5.37621">
        <ele>81.263528</ele>
        <time>2020-07-28T11:41:15.249Z</time>
      </trkpt>
      <trkpt lat="61.609" lon="5.37597">
        <ele>81.492981</ele>
        <time>2020-07-28T11:41:18.225Z</time>
      </trkpt>
      <trkpt lat="61.60905" lon="5.37578">
        <ele>81.205153</ele>
        <time>2020-07-28T11:41:20.224Z</time>
      </trkpt>
      <trkpt lat="61.60911" lon="5.37558">
        <ele>80.896398</ele>
        <time>2020-07-28T11:41:22.231Z</time>
      </trkpt>
      <trkpt lat="61.60916" lon="5.37535">
        <ele>80.560743</ele>
        <time>2020-07-28T11:41:24.224Z</time>
      </trkpt>
      <trkpt lat="61.60922" lon="5.37509">
        <ele>80.174584</ele>
        <time>2020-07-28T11:41:26.228Z</time>
      </trkpt>
      <trkpt lat="61.6093" lon="5.37479">
        <ele>79.720548</ele>
        <time>2020-07-28T11:41:28.227Z</time>
      </trkpt>
      <trkpt lat="61.60938" lon="5.37447">
        <ele>79.23336</ele>
        <time>2020-07-28T11:41:30.205Z</time>
      </trkpt>
      <trkpt lat="61.60942" lon="5.3743">
        <ele>78.981526</ele>
        <time>2020-07-28T11:41:31.225Z</time>
      </trkpt>
      <trkpt lat="61.60946" lon="5.37412">
        <ele>78.718968</ele>
        <time>2020-07-28T11:41:32.230Z</time>
      </trkpt>
      <trkpt lat="61.6095" lon="5.37393">
        <ele>78.455455</ele>
        <time>2020-07-28T11:41:33.212Z</time>
      </trkpt>
      <trkpt lat="61.60951" lon="5.37374">
        <ele>78.191791</ele>
        <time>2020-07-28T11:41:34.214Z</time>
      </trkpt>
      <trkpt lat="61.60952" lon="5.37352">
        <ele>77.898697</ele>
        <time>2020-07-28T11:41:35.230Z</time>
      </trkpt>
      <trkpt lat="61.60953" lon="5.37328">
        <ele>77.590703</ele>
        <time>2020-07-28T11:41:36.217Z</time>
      </trkpt>
      <trkpt lat="61.60952" lon="5.37305">
        <ele>77.28363</ele>
        <time>2020-07-28T11:41:37.228Z</time>
      </trkpt>
      <trkpt lat="61.60951" lon="5.37282">
        <ele>76.978389</ele>
        <time>2020-07-28T11:41:38.248Z</time>
      </trkpt>
      <trkpt lat="61.6095" lon="5.3726">
        <ele>76.678163</ele>
        <time>2020-07-28T11:41:39.211Z</time>
      </trkpt>
      <trkpt lat="61.60949" lon="5.37238">
        <ele>76.407867</ele>
        <time>2020-07-28T11:41:40.208Z</time>
      </trkpt>
      <trkpt lat="61.60949" lon="5.37216">
        <ele>76.162468</ele>
        <time>2020-07-28T11:41:41.215Z</time>
      </trkpt>
      <trkpt lat="61.6095" lon="5.37196">
        <ele>75.932278</ele>
        <time>2020-07-28T11:41:42.230Z</time>
      </trkpt>
      <trkpt lat="61.60951" lon="5.37177">
        <ele>75.711805</ele>
        <time>2020-07-28T11:41:43.214Z</time>
      </trkpt>
      <trkpt lat="61.60953" lon="5.37158">
        <ele>75.49687</ele>
        <time>2020-07-28T11:41:44.256Z</time>
      </trkpt>
      <trkpt lat="61.60955" lon="5.3714">
        <ele>75.279718</ele>
        <time>2020-07-28T11:41:45.226Z</time>
      </trkpt>
      <trkpt lat="61.60958" lon="5.37121">
        <ele>75.060215</ele>
        <time>2020-07-28T11:41:46.211Z</time>
      </trkpt>
      <trkpt lat="61.60961" lon="5.37103">
        <ele>74.843318</ele>
        <time>2020-07-28T11:41:47.214Z</time>
      </trkpt>
      <trkpt lat="61.60967" lon="5.37069">
        <ele>74.428372</ele>
        <time>2020-07-28T11:41:49.234Z</time>
      </trkpt>
      <trkpt lat="61.60971" lon="5.37051">
        <ele>74.20963</ele>
        <time>2020-07-28T11:41:50.231Z</time>
      </trkpt>
      <trkpt lat="61.60974" lon="5.37033">
        <ele>73.983334</ele>
        <time>2020-07-28T11:41:51.257Z</time>
      </trkpt>
      <trkpt lat="61.60977" lon="5.37014">
        <ele>73.757038</ele>
        <time>2020-07-28T11:41:52.206Z</time>
      </trkpt>
      <trkpt lat="61.60981" lon="5.36996">
        <ele>73.533919</ele>
        <time>2020-07-28T11:41:53.213Z</time>
      </trkpt>
      <trkpt lat="61.60986" lon="5.3696">
        <ele>73.114135</ele>
        <time>2020-07-28T11:41:55.213Z</time>
      </trkpt>
      <trkpt lat="61.60991" lon="5.36929">
        <ele>72.732252</ele>
        <time>2020-07-28T11:41:57.244Z</time>
      </trkpt>
      <trkpt lat="61.60995" lon="5.36895">
        <ele>72.338905</ele>
        <time>2020-07-28T11:41:59.234Z</time>
      </trkpt>
      <trkpt lat="61.60996" lon="5.36858">
        <ele>71.707945</ele>
        <time>2020-07-28T11:42:01.217Z</time>
      </trkpt>
      <trkpt lat="61.60996" lon="5.36838">
        <ele>71.330824</ele>
        <time>2020-07-28T11:42:02.201Z</time>
      </trkpt>
      <trkpt lat="61.60996" lon="5.36816">
        <ele>70.932879</ele>
        <time>2020-07-28T11:42:03.249Z</time>
      </trkpt>
      <trkpt lat="61.60995" lon="5.36795">
        <ele>70.536935</ele>
        <time>2020-07-28T11:42:04.226Z</time>
      </trkpt>
      <trkpt lat="61.60995" lon="5.36774">
        <ele>70.14659</ele>
        <time>2020-07-28T11:42:05.211Z</time>
      </trkpt>
      <trkpt lat="61.60995" lon="5.36753">
        <ele>69.758269</ele>
        <time>2020-07-28T11:42:06.216Z</time>
      </trkpt>
      <trkpt lat="61.60995" lon="5.36733">
        <ele>69.373621</ele>
        <time>2020-07-28T11:42:07.225Z</time>
      </trkpt>
      <trkpt lat="61.60995" lon="5.36712">
        <ele>68.98532</ele>
        <time>2020-07-28T11:42:08.233Z</time>
      </trkpt>
      <trkpt lat="61.60995" lon="5.36691">
        <ele>68.595132</ele>
        <time>2020-07-28T11:42:09.205Z</time>
      </trkpt>
      <trkpt lat="61.60995" lon="5.36671">
        <ele>68.212432</ele>
        <time>2020-07-28T11:42:10.243Z</time>
      </trkpt>
      <trkpt lat="61.60995" lon="5.36651">
        <ele>67.836685</ele>
        <time>2020-07-28T11:42:11.223Z</time>
      </trkpt>
      <trkpt lat="61.60995" lon="5.36631">
        <ele>67.466865</ele>
        <time>2020-07-28T11:42:12.232Z</time>
      </trkpt>
      <trkpt lat="61.60996" lon="5.36611">
        <ele>67.092488</ele>
        <time>2020-07-28T11:42:13.211Z</time>
      </trkpt>
      <trkpt lat="61.60997" lon="5.36591">
        <ele>66.721197</ele>
        <time>2020-07-28T11:42:14.269Z</time>
      </trkpt>
      <trkpt lat="61.60999" lon="5.36572">
        <ele>66.35796</ele>
        <time>2020-07-28T11:42:15.198Z</time>
      </trkpt>
      <trkpt lat="61.61003" lon="5.36535">
        <ele>65.641377</ele>
        <time>2020-07-28T11:42:17.226Z</time>
      </trkpt>
      <trkpt lat="61.61006" lon="5.36515">
        <ele>65.256844</ele>
        <time>2020-07-28T11:42:18.256Z</time>
      </trkpt>
      <trkpt lat="61.61009" lon="5.36494">
        <ele>64.885265</ele>
        <time>2020-07-28T11:42:19.214Z</time>
      </trkpt>
      <trkpt lat="61.61013" lon="5.36473">
        <ele>64.509718</ele>
        <time>2020-07-28T11:42:20.220Z</time>
      </trkpt>
      <trkpt lat="61.61017" lon="5.36452">
        <ele>64.125685</ele>
        <time>2020-07-28T11:42:21.264Z</time>
      </trkpt>
      <trkpt lat="61.61021" lon="5.36431">
        <ele>63.737679</ele>
        <time>2020-07-28T11:42:22.252Z</time>
      </trkpt>
      <trkpt lat="61.61025" lon="5.3641">
        <ele>63.357596</ele>
        <time>2020-07-28T11:42:23.223Z</time>
      </trkpt>
      <trkpt lat="61.61029" lon="5.3639">
        <ele>62.987704</ele>
        <time>2020-07-28T11:42:24.220Z</time>
      </trkpt>
      <trkpt lat="61.61033" lon="5.36371">
        <ele>62.632015</ele>
        <time>2020-07-28T11:42:25.234Z</time>
      </trkpt>
      <trkpt lat="61.61037" lon="5.36352">
        <ele>62.295872</ele>
        <time>2020-07-28T11:42:26.205Z</time>
      </trkpt>
      <trkpt lat="61.6104" lon="5.36334">
        <ele>61.965516</ele>
        <time>2020-07-28T11:42:27.216Z</time>
      </trkpt>
      <trkpt lat="61.61046" lon="5.363">
        <ele>61.351392</ele>
        <time>2020-07-28T11:42:29.224Z</time>
      </trkpt>
      <trkpt lat="61.61048" lon="5.36268">
        <ele>60.802943</ele>
        <time>2020-07-28T11:42:31.216Z</time>
      </trkpt>
      <trkpt lat="61.61047" lon="5.3624">
        <ele>60.334314</ele>
        <time>2020-07-28T11:42:33.204Z</time>
      </trkpt>
      <trkpt lat="61.61046" lon="5.36216">
        <ele>59.929907</ele>
        <time>2020-07-28T11:42:35.226Z</time>
      </trkpt>
      <trkpt lat="61.61043" lon="5.36197">
        <ele>59.586341</ele>
        <time>2020-07-28T11:42:37.210Z</time>
      </trkpt>
      <trkpt lat="61.6104" lon="5.36176">
        <ele>59.218083</ele>
        <time>2020-07-28T11:42:40.207Z</time>
      </trkpt>
      <trkpt lat="61.61037" lon="5.36158">
        <ele>58.897004</ele>
        <time>2020-07-28T11:42:43.207Z</time>
      </trkpt>
      <trkpt lat="61.61035" lon="5.36134">
        <ele>58.783989</ele>
        <time>2020-07-28T11:42:47.229Z</time>
      </trkpt>
      <trkpt lat="61.61034" lon="5.36114">
        <ele>58.775254</ele>
        <time>2020-07-28T11:42:51.246Z</time>
      </trkpt>
      <trkpt lat="61.61032" lon="5.36093">
        <ele>58.766062</ele>
        <time>2020-07-28T11:42:55.209Z</time>
      </trkpt>
      <trkpt lat="61.61031" lon="5.36068">
        <ele>58.755507</ele>
        <time>2020-07-28T11:42:59.237Z</time>
      </trkpt>
      <trkpt lat="61.61031" lon="5.36045">
        <ele>58.745303</ele>
        <time>2020-07-28T11:43:03.242Z</time>
      </trkpt>
      <trkpt lat="61.6103" lon="5.36024">
        <ele>58.736502</ele>
        <time>2020-07-28T11:43:06.236Z</time>
      </trkpt>
      <trkpt lat="61.61031" lon="5.36003">
        <ele>58.727319</ele>
        <time>2020-07-28T11:43:09.206Z</time>
      </trkpt>
      <trkpt lat="61.61033" lon="5.35977">
        <ele>58.716047</ele>
        <time>2020-07-28T11:43:12.208Z</time>
      </trkpt>
      <trkpt lat="61.61035" lon="5.35958">
        <ele>58.707814</ele>
        <time>2020-07-28T11:43:14.203Z</time>
      </trkpt>
      <trkpt lat="61.61038" lon="5.35939">
        <ele>58.699153</ele>
        <time>2020-07-28T11:43:16.223Z</time>
      </trkpt>
      <trkpt lat="61.61042" lon="5.35915">
        <ele>58.688427</ele>
        <time>2020-07-28T11:43:18.260Z</time>
      </trkpt>
      <trkpt lat="61.61048" lon="5.3589">
        <ele>58.676466</ele>
        <time>2020-07-28T11:43:20.228Z</time>
      </trkpt>
      <trkpt lat="61.61056" lon="5.35867">
        <ele>58.664445</ele>
        <time>2020-07-28T11:43:22.209Z</time>
      </trkpt>
      <trkpt lat="61.61064" lon="5.35847">
        <ele>58.652843</ele>
        <time>2020-07-28T11:43:24.206Z</time>
      </trkpt>
      <trkpt lat="61.61073" lon="5.35828">
        <ele>58.641665</ele>
        <time>2020-07-28T11:43:26.227Z</time>
      </trkpt>
      <trkpt lat="61.61082" lon="5.3581">
        <ele>58.630531</ele>
        <time>2020-07-28T11:43:28.224Z</time>
      </trkpt>
      <trkpt lat="61.6109" lon="5.35792">
        <ele>58.75503</ele>
        <time>2020-07-28T11:43:30.200Z</time>
      </trkpt>
      <trkpt lat="61.61098" lon="5.35777">
        <ele>58.878393</ele>
        <time>2020-07-28T11:43:32.236Z</time>
      </trkpt>
      <trkpt lat="61.61105" lon="5.35763">
        <ele>58.995307</ele>
        <time>2020-07-28T11:43:34.210Z</time>
      </trkpt>
      <trkpt lat="61.61112" lon="5.35749">
        <ele>59.107691</ele>
        <time>2020-07-28T11:43:36.254Z</time>
      </trkpt>
      <trkpt lat="61.61118" lon="5.35735">
        <ele>59.213551</ele>
        <time>2020-07-28T11:43:38.213Z</time>
      </trkpt>
      <trkpt lat="61.61127" lon="5.35715">
        <ele>59.363738</ele>
        <time>2020-07-28T11:43:41.244Z</time>
      </trkpt>
      <trkpt lat="61.61133" lon="5.357">
        <ele>59.468664</ele>
        <time>2020-07-28T11:43:43.211Z</time>
      </trkpt>
      <trkpt lat="61.61139" lon="5.35678">
        <ele>59.613772</ele>
        <time>2020-07-28T11:43:46.246Z</time>
      </trkpt>
      <trkpt lat="61.61144" lon="5.35653">
        <ele>59.765889</ele>
        <time>2020-07-28T11:43:49.245Z</time>
      </trkpt>
      <trkpt lat="61.61147" lon="5.35634">
        <ele>59.8769</ele>
        <time>2020-07-28T11:43:51.210Z</time>
      </trkpt>
      <trkpt lat="61.61149" lon="5.35615">
        <ele>59.987011</ele>
        <time>2020-07-28T11:43:53.268Z</time>
      </trkpt>
      <trkpt lat="61.61149" lon="5.35596">
        <ele>60.092217</ele>
        <time>2020-07-28T11:43:55.216Z</time>
      </trkpt>
      <trkpt lat="61.61149" lon="5.35568">
        <ele>60.246838</ele>
        <time>2020-07-28T11:43:58.206Z</time>
      </trkpt>
      <trkpt lat="61.61146" lon="5.35542">
        <ele>60.397618</ele>
        <time>2020-07-28T11:44:01.217Z</time>
      </trkpt>
      <trkpt lat="61.61141" lon="5.35518">
        <ele>60.535087</ele>
        <time>2020-07-28T11:44:04.264Z</time>
      </trkpt>
      <trkpt lat="61.61139" lon="5.35497">
        <ele>60.655688</ele>
        <time>2020-07-28T11:44:07.215Z</time>
      </trkpt>
      <trkpt lat="61.61137" lon="5.35478">
        <ele>60.719661</ele>
        <time>2020-07-28T11:44:10.234Z</time>
      </trkpt>
      <trkpt lat="61.61136" lon="5.35454">
        <ele>60.676211</ele>
        <time>2020-07-28T11:44:14.219Z</time>
      </trkpt>
      <trkpt lat="61.61136" lon="5.35435">
        <ele>60.642623</ele>
        <time>2020-07-28T11:44:17.218Z</time>
      </trkpt>
      <trkpt lat="61.61137" lon="5.35411">
        <ele>60.600028</ele>
        <time>2020-07-28T11:44:21.201Z</time>
      </trkpt>
      <trkpt lat="61.61142" lon="5.35387">
        <ele>60.554341</ele>
        <time>2020-07-28T11:44:25.247Z</time>
      </trkpt>
      <trkpt lat="61.61145" lon="5.35367">
        <ele>60.516808</ele>
        <time>2020-07-28T11:44:28.218Z</time>
      </trkpt>
      <trkpt lat="61.61147" lon="5.35344">
        <ele>60.474212</ele>
        <time>2020-07-28T11:44:32.246Z</time>
      </trkpt>
      <trkpt lat="61.61152" lon="5.35324">
        <ele>60.434909</ele>
        <time>2020-07-28T11:44:36.237Z</time>
      </trkpt>
      <trkpt lat="61.61158" lon="5.35301">
        <ele>60.388286</ele>
        <time>2020-07-28T11:44:39.214Z</time>
      </trkpt>
      <trkpt lat="61.61171" lon="5.35299">
        <ele>60.338555</ele>
        <time>2020-07-28T11:44:40.224Z</time>
      </trkpt>
      <trkpt lat="61.61174" lon="5.35274">
        <ele>60.291725</ele>
        <time>2020-07-28T11:44:42.205Z</time>
      </trkpt>
      <trkpt lat="61.61177" lon="5.35249">
        <ele>60.246452</ele>
        <time>2020-07-28T11:44:44.259Z</time>
      </trkpt>
      <trkpt lat="61.61179" lon="5.35222">
        <ele>60.198734</ele>
        <time>2020-07-28T11:44:46.226Z</time>
      </trkpt>
      <trkpt lat="61.61184" lon="5.35196">
        <ele>60.14754</ele>
        <time>2020-07-28T11:44:48.251Z</time>
      </trkpt>
      <trkpt lat="61.6119" lon="5.35171">
        <ele>60.097974</ele>
        <time>2020-07-28T11:44:50.208Z</time>
      </trkpt>
      <trkpt lat="61.61196" lon="5.35148">
        <ele>60.02828</ele>
        <time>2020-07-28T11:44:52.226Z</time>
      </trkpt>
      <trkpt lat="61.61201" lon="5.35127">
        <ele>59.847003</ele>
        <time>2020-07-28T11:44:54.225Z</time>
      </trkpt>
      <trkpt lat="61.61207" lon="5.35109">
        <ele>59.692986</ele>
        <time>2020-07-28T11:44:56.234Z</time>
      </trkpt>
      <trkpt lat="61.61213" lon="5.35089">
        <ele>59.509304</ele>
        <time>2020-07-28T11:44:59.204Z</time>
      </trkpt>
      <trkpt lat="61.61217" lon="5.35072">
        <ele>59.363836</ele>
        <time>2020-07-28T11:45:02.216Z</time>
      </trkpt>
      <trkpt lat="61.6122" lon="5.35049">
        <ele>59.181796</ele>
        <time>2020-07-28T11:45:06.218Z</time>
      </trkpt>
      <trkpt lat="61.61224" lon="5.35031">
        <ele>59.037549</ele>
        <time>2020-07-28T11:45:09.217Z</time>
      </trkpt>
      <trkpt lat="61.61229" lon="5.35009">
        <ele>58.853271</ele>
        <time>2020-07-28T11:45:13.220Z</time>
      </trkpt>
      <trkpt lat="61.61234" lon="5.34991">
        <ele>58.696399</ele>
        <time>2020-07-28T11:45:16.212Z</time>
      </trkpt>
      <trkpt lat="61.6124" lon="5.34971">
        <ele>58.51259</ele>
        <time>2020-07-28T11:45:19.252Z</time>
      </trkpt>
      <trkpt lat="61.61246" lon="5.34946">
        <ele>58.308523</ele>
        <time>2020-07-28T11:45:22.225Z</time>
      </trkpt>
      <trkpt lat="61.61249" lon="5.34929">
        <ele>58.164865</ele>
        <time>2020-07-28T11:45:24.202Z</time>
      </trkpt>
      <trkpt lat="61.61251" lon="5.3491">
        <ele>58.019298</ele>
        <time>2020-07-28T11:45:26.196Z</time>
      </trkpt>
      <trkpt lat="61.61254" lon="5.3489">
        <ele>57.859585</ele>
        <time>2020-07-28T11:45:28.218Z</time>
      </trkpt>
      <trkpt lat="61.61256" lon="5.34869">
        <ele>57.701134</ele>
        <time>2020-07-28T11:45:30.207Z</time>
      </trkpt>
      <trkpt lat="61.61258" lon="5.34849">
        <ele>57.545393</ele>
        <time>2020-07-28T11:45:32.208Z</time>
      </trkpt>
      <trkpt lat="61.61259" lon="5.34829">
        <ele>57.394941</ele>
        <time>2020-07-28T11:45:34.201Z</time>
      </trkpt>
      <trkpt lat="61.6126" lon="5.34802">
        <ele>57.258201</ele>
        <time>2020-07-28T11:45:37.242Z</time>
      </trkpt>
      <trkpt lat="61.6126" lon="5.34776">
        <ele>58.013553</ele>
        <time>2020-07-28T11:45:40.220Z</time>
      </trkpt>
      <trkpt lat="61.61261" lon="5.34756">
        <ele>58.615318</ele>
        <time>2020-07-28T11:45:43.221Z</time>
      </trkpt>
      <trkpt lat="61.61263" lon="5.34735">
        <ele>59.249011</ele>
        <time>2020-07-28T11:45:47.226Z</time>
      </trkpt>
      <trkpt lat="61.61267" lon="5.34697">
        <ele>60.426591</ele>
        <time>2020-07-28T11:46:52.224Z</time>
      </trkpt>
      <trkpt lat="61.61269" lon="5.34678">
        <ele>60.999232</ele>
        <time>2020-07-28T11:47:00.211Z</time>
      </trkpt>
      <trkpt lat="61.61271" lon="5.34658">
        <ele>61.625172</ele>
        <time>2020-07-28T11:47:10.230Z</time>
      </trkpt>
      <trkpt lat="61.61275" lon="5.3464">
        <ele>62.222618</ele>
        <time>2020-07-28T11:47:21.202Z</time>
      </trkpt>
      <trkpt lat="61.61276" lon="5.3462">
        <ele>62.81862</ele>
        <time>2020-07-28T11:47:33.214Z</time>
      </trkpt>
      <trkpt lat="61.61278" lon="5.34601">
        <ele>63.41718</ele>
        <time>2020-07-28T11:47:45.263Z</time>
      </trkpt>
      <trkpt lat="61.61281" lon="5.34582">
        <ele>64.003837</ele>
        <time>2020-07-28T11:47:55.227Z</time>
      </trkpt>
      <trkpt lat="61.61284" lon="5.34563">
        <ele>64.602921</ele>
        <time>2020-07-28T11:48:08.236Z</time>
      </trkpt>
      <trkpt lat="61.61287" lon="5.34545">
        <ele>65.196418</ele>
        <time>2020-07-28T11:48:20.258Z</time>
      </trkpt>
      <trkpt lat="61.61294" lon="5.3453">
        <ele>65.786672</ele>
        <time>2020-07-28T11:48:31.222Z</time>
      </trkpt>
      <trkpt lat="61.61298" lon="5.34513">
        <ele>66.364196</ele>
        <time>2020-07-28T11:48:41.196Z</time>
      </trkpt>
      <trkpt lat="61.61302" lon="5.34496">
        <ele>66.950786</ele>
        <time>2020-07-28T11:48:52.224Z</time>
      </trkpt>
      <trkpt lat="61.61314" lon="5.34456">
        <ele>68.371966</ele>
        <time>2020-07-28T11:50:24.217Z</time>
      </trkpt>
      <trkpt lat="61.61317" lon="5.34437">
        <ele>68.506969</ele>
        <time>2020-07-28T11:50:26.212Z</time>
      </trkpt>
      <trkpt lat="61.6132" lon="5.34417">
        <ele>68.486445</ele>
        <time>2020-07-28T11:50:28.220Z</time>
      </trkpt>
      <trkpt lat="61.61323" lon="5.34394">
        <ele>68.463922</ele>
        <time>2020-07-28T11:50:30.243Z</time>
      </trkpt>
      <trkpt lat="61.61326" lon="5.3437">
        <ele>68.439401</ele>
        <time>2020-07-28T11:50:32.216Z</time>
      </trkpt>
      <trkpt lat="61.6133" lon="5.34344">
        <ele>68.413565</ele>
        <time>2020-07-28T11:50:34.208Z</time>
      </trkpt>
      <trkpt lat="61.61333" lon="5.34317">
        <ele>68.386911</ele>
        <time>2020-07-28T11:50:36.225Z</time>
      </trkpt>
      <trkpt lat="61.61336" lon="5.3429">
        <ele>68.359415</ele>
        <time>2020-07-28T11:50:38.248Z</time>
      </trkpt>
      <trkpt lat="61.6134" lon="5.34261">
        <ele>68.331075</ele>
        <time>2020-07-28T11:50:40.210Z</time>
      </trkpt>
      <trkpt lat="61.61343" lon="5.34231">
        <ele>68.301377</ele>
        <time>2020-07-28T11:50:42.239Z</time>
      </trkpt>
      <trkpt lat="61.61346" lon="5.342">
        <ele>68.271502</ele>
        <time>2020-07-28T11:50:44.232Z</time>
      </trkpt>
      <trkpt lat="61.61348" lon="5.3417">
        <ele>68.242272</ele>
        <time>2020-07-28T11:50:46.216Z</time>
      </trkpt>
      <trkpt lat="61.61349" lon="5.3414">
        <ele>68.21253</ele>
        <time>2020-07-28T11:50:48.213Z</time>
      </trkpt>
      <trkpt lat="61.6135" lon="5.3411">
        <ele>68.18352</ele>
        <time>2020-07-28T11:50:50.226Z</time>
      </trkpt>
      <trkpt lat="61.6135" lon="5.3408">
        <ele>68.16455</ele>
        <time>2020-07-28T11:50:52.242Z</time>
      </trkpt>
      <trkpt lat="61.61351" lon="5.34052">
        <ele>68.294031</ele>
        <time>2020-07-28T11:50:54.239Z</time>
      </trkpt>
      <trkpt lat="61.61351" lon="5.34026">
        <ele>68.410565</ele>
        <time>2020-07-28T11:50:56.213Z</time>
      </trkpt>
      <trkpt lat="61.61351" lon="5.34003">
        <ele>68.519696</ele>
        <time>2020-07-28T11:50:58.212Z</time>
      </trkpt>
      <trkpt lat="61.61351" lon="5.33981">
        <ele>68.619578</ele>
        <time>2020-07-28T11:51:00.233Z</time>
      </trkpt>
      <trkpt lat="61.6135" lon="5.33961">
        <ele>68.714419</ele>
        <time>2020-07-28T11:51:02.246Z</time>
      </trkpt>
      <trkpt lat="61.6135" lon="5.33941">
        <ele>68.804465</ele>
        <time>2020-07-28T11:51:04.203Z</time>
      </trkpt>
      <trkpt lat="61.61348" lon="5.33922">
        <ele>68.894013</ele>
        <time>2020-07-28T11:51:06.242Z</time>
      </trkpt>
      <trkpt lat="61.61346" lon="5.33896">
        <ele>69.016488</ele>
        <time>2020-07-28T11:51:09.229Z</time>
      </trkpt>
      <trkpt lat="61.61344" lon="5.33871">
        <ele>69.13301</ele>
        <time>2020-07-28T11:51:12.249Z</time>
      </trkpt>
      <trkpt lat="61.61343" lon="5.33846">
        <ele>69.251453</ele>
        <time>2020-07-28T11:51:15.223Z</time>
      </trkpt>
      <trkpt lat="61.61341" lon="5.33822">
        <ele>69.362488</ele>
        <time>2020-07-28T11:51:18.207Z</time>
      </trkpt>
      <trkpt lat="61.6134" lon="5.33799">
        <ele>69.47063</ele>
        <time>2020-07-28T11:51:21.219Z</time>
      </trkpt>
      <trkpt lat="61.61339" lon="5.33775">
        <ele>69.581034</ele>
        <time>2020-07-28T11:51:24.244Z</time>
      </trkpt>
      <trkpt lat="61.61337" lon="5.33751">
        <ele>69.695154</ele>
        <time>2020-07-28T11:51:27.246Z</time>
      </trkpt>
      <trkpt lat="61.61337" lon="5.33725">
        <ele>69.813538</ele>
        <time>2020-07-28T11:51:30.205Z</time>
      </trkpt>
      <trkpt lat="61.61336" lon="5.33698">
        <ele>69.941042</ele>
        <time>2020-07-28T11:51:33.202Z</time>
      </trkpt>
      <trkpt lat="61.61335" lon="5.33673">
        <ele>70.066779</ele>
        <time>2020-07-28T11:51:36.246Z</time>
      </trkpt>
      <trkpt lat="61.61333" lon="5.33646">
        <ele>70.200326</ele>
        <time>2020-07-28T11:51:39.217Z</time>
      </trkpt>
      <trkpt lat="61.61332" lon="5.33619">
        <ele>70.330043</ele>
        <time>2020-07-28T11:51:42.222Z</time>
      </trkpt>
      <trkpt lat="61.61331" lon="5.33595">
        <ele>70.451553</ele>
        <time>2020-07-28T11:51:45.234Z</time>
      </trkpt>
      <trkpt lat="61.61329" lon="5.3357">
        <ele>70.575234</ele>
        <time>2020-07-28T11:51:48.219Z</time>
      </trkpt>
      <trkpt lat="61.61328" lon="5.33544">
        <ele>70.702047</ele>
        <time>2020-07-28T11:51:51.224Z</time>
      </trkpt>
      <trkpt lat="61.61327" lon="5.3352">
        <ele>70.820507</ele>
        <time>2020-07-28T11:51:54.211Z</time>
      </trkpt>
      <trkpt lat="61.61328" lon="5.33497">
        <ele>70.932056</ele>
        <time>2020-07-28T11:51:57.205Z</time>
      </trkpt>
      <trkpt lat="61.61329" lon="5.33475">
        <ele>71.040096</ele>
        <time>2020-07-28T11:52:00.243Z</time>
      </trkpt>
      <trkpt lat="61.6133" lon="5.33455">
        <ele>71.142987</ele>
        <time>2020-07-28T11:52:03.203Z</time>
      </trkpt>
      <trkpt lat="61.61331" lon="5.33434">
        <ele>71.245522</ele>
        <time>2020-07-28T11:52:06.221Z</time>
      </trkpt>
      <trkpt lat="61.61334" lon="5.33413">
        <ele>71.350629</ele>
        <time>2020-07-28T11:52:09.213Z</time>
      </trkpt>
      <trkpt lat="61.61337" lon="5.33394">
        <ele>71.449503</ele>
        <time>2020-07-28T11:52:12.248Z</time>
      </trkpt>
      <trkpt lat="61.6134" lon="5.33375">
        <ele>71.551037</ele>
        <time>2020-07-28T11:52:15.213Z</time>
      </trkpt>
      <trkpt lat="61.61342" lon="5.33356">
        <ele>71.647823</ele>
        <time>2020-07-28T11:52:18.217Z</time>
      </trkpt>
      <trkpt lat="61.61344" lon="5.33331">
        <ele>71.76432</ele>
        <time>2020-07-28T11:52:22.243Z</time>
      </trkpt>
      <trkpt lat="61.61345" lon="5.33312">
        <ele>71.774625</ele>
        <time>2020-07-28T11:52:25.220Z</time>
      </trkpt>
      <trkpt lat="61.61347" lon="5.33294">
        <ele>71.784916</ele>
        <time>2020-07-28T11:52:28.213Z</time>
      </trkpt>
      <trkpt lat="61.61349" lon="5.33275">
        <ele>71.795297</ele>
        <time>2020-07-28T11:52:31.196Z</time>
      </trkpt>
      <trkpt lat="61.61352" lon="5.33256">
        <ele>71.806095</ele>
        <time>2020-07-28T11:52:34.223Z</time>
      </trkpt>
      <trkpt lat="61.61354" lon="5.33236">
        <ele>71.817028</ele>
        <time>2020-07-28T11:52:37.211Z</time>
      </trkpt>
      <trkpt lat="61.61357" lon="5.33217">
        <ele>71.827722</ele>
        <time>2020-07-28T11:52:40.207Z</time>
      </trkpt>
      <trkpt lat="61.61358" lon="5.33198">
        <ele>71.838188</ele>
        <time>2020-07-28T11:52:43.224Z</time>
      </trkpt>
      <trkpt lat="61.61359" lon="5.33179">
        <ele>71.848667</ele>
        <time>2020-07-28T11:52:46.221Z</time>
      </trkpt>
      <trkpt lat="61.61359" lon="5.33159">
        <ele>71.859629</ele>
        <time>2020-07-28T11:52:49.222Z</time>
      </trkpt>
      <trkpt lat="61.6136" lon="5.3314">
        <ele>71.870182</ele>
        <time>2020-07-28T11:52:52.222Z</time>
      </trkpt>
      <trkpt lat="61.61361" lon="5.3312">
        <ele>71.880605</ele>
        <time>2020-07-28T11:52:55.235Z</time>
      </trkpt>
      <trkpt lat="61.61361" lon="5.33101">
        <ele>71.891042</ele>
        <time>2020-07-28T11:52:58.245Z</time>
      </trkpt>
      <trkpt lat="61.61361" lon="5.33082">
        <ele>71.901674</ele>
        <time>2020-07-28T11:53:01.205Z</time>
      </trkpt>
      <trkpt lat="61.61362" lon="5.33057">
        <ele>71.915003</ele>
        <time>2020-07-28T11:53:05.235Z</time>
      </trkpt>
      <trkpt lat="61.61362" lon="5.33033">
        <ele>71.928077</ele>
        <time>2020-07-28T11:53:09.210Z</time>
      </trkpt>
      <trkpt lat="61.61361" lon="5.33014">
        <ele>71.938437</ele>
        <time>2020-07-28T11:53:12.218Z</time>
      </trkpt>
      <trkpt lat="61.61359" lon="5.32995">
        <ele>71.949202</ele>
        <time>2020-07-28T11:53:15.226Z</time>
      </trkpt>
      <trkpt lat="61.61356" lon="5.32976">
        <ele>71.96013</ele>
        <time>2020-07-28T11:53:18.218Z</time>
      </trkpt>
      <trkpt lat="61.61352" lon="5.32952">
        <ele>72.38229</ele>
        <time>2020-07-28T11:53:22.230Z</time>
      </trkpt>
      <trkpt lat="61.61349" lon="5.32929">
        <ele>73.521721</ele>
        <time>2020-07-28T11:53:26.206Z</time>
      </trkpt>
      <trkpt lat="61.61343" lon="5.32907">
        <ele>74.689402</ele>
        <time>2020-07-28T11:53:30.228Z</time>
      </trkpt>
      <trkpt lat="61.61339" lon="5.3289">
        <ele>75.589644</ele>
        <time>2020-07-28T11:53:33.214Z</time>
      </trkpt>
      <trkpt lat="61.61336" lon="5.32868">
        <ele>76.655916</ele>
        <time>2020-07-28T11:53:37.223Z</time>
      </trkpt>
      <trkpt lat="61.6134" lon="5.32847">
        <ele>77.709196</ele>
        <time>2020-07-28T11:53:41.221Z</time>
      </trkpt>
      <trkpt lat="61.61344" lon="5.32829">
        <ele>78.668104</ele>
        <time>2020-07-28T11:53:45.207Z</time>
      </trkpt>
      <trkpt lat="61.61345" lon="5.3281">
        <ele>79.567539</ele>
        <time>2020-07-28T11:53:49.247Z</time>
      </trkpt>
      <trkpt lat="61.61343" lon="5.32792">
        <ele>80.463228</ele>
        <time>2020-07-28T11:53:54.230Z</time>
      </trkpt>
      <trkpt lat="61.61341" lon="5.32773">
        <ele>81.36523</ele>
        <time>2020-07-28T11:54:00.235Z</time>
      </trkpt>
      <trkpt lat="61.61339" lon="5.32752">
        <ele>82.379777</ele>
        <time>2020-07-28T11:54:06.227Z</time>
      </trkpt>
      <trkpt lat="61.6134" lon="5.3273">
        <ele>83.405992</ele>
        <time>2020-07-28T11:54:12.219Z</time>
      </trkpt>
      <trkpt lat="61.6134" lon="5.3271">
        <ele>84.335541</ele>
        <time>2020-07-28T11:54:18.214Z</time>
      </trkpt>
      <trkpt lat="61.61341" lon="5.32689">
        <ele>85.34756</ele>
        <time>2020-07-28T11:54:25.204Z</time>
      </trkpt>
      <trkpt lat="61.61342" lon="5.32668">
        <ele>86.337711</ele>
        <time>2020-07-28T11:54:33.215Z</time>
      </trkpt>
      <trkpt lat="61.61345" lon="5.32649">
        <ele>87.280767</ele>
        <time>2020-07-28T11:54:40.203Z</time>
      </trkpt>
      <trkpt lat="61.61346" lon="5.32629">
        <ele>88.223727</ele>
        <time>2020-07-28T11:54:47.234Z</time>
      </trkpt>
      <trkpt lat="61.61345" lon="5.32608">
        <ele>89.218244</ele>
        <time>2020-07-28T11:54:54.207Z</time>
      </trkpt>
      <trkpt lat="61.61346" lon="5.32589">
        <ele>90.023109</ele>
        <time>2020-07-28T11:55:01.208Z</time>
      </trkpt>
      <trkpt lat="61.61347" lon="5.32569">
        <ele>90.613716</ele>
        <time>2020-07-28T11:55:08.236Z</time>
      </trkpt>
      <trkpt lat="61.61351" lon="5.32551">
        <ele>91.172206</ele>
        <time>2020-07-28T11:55:14.211Z</time>
      </trkpt>
      <trkpt lat="61.61354" lon="5.3253">
        <ele>91.803305</ele>
        <time>2020-07-28T11:55:21.244Z</time>
      </trkpt>
      <trkpt lat="61.61358" lon="5.3251">
        <ele>92.419708</ele>
        <time>2020-07-28T11:55:29.209Z</time>
      </trkpt>
      <trkpt lat="61.61362" lon="5.32492">
        <ele>92.998294</ele>
        <time>2020-07-28T11:55:36.210Z</time>
      </trkpt>
      <trkpt lat="61.61365" lon="5.32475">
        <ele>93.553211</ele>
        <time>2020-07-28T11:55:42.234Z</time>
      </trkpt>
      <trkpt lat="61.6137" lon="5.32458">
        <ele>94.122576</ele>
        <time>2020-07-28T11:55:47.223Z</time>
      </trkpt>
      <trkpt lat="61.61375" lon="5.32441">
        <ele>94.672841</ele>
        <time>2020-07-28T11:55:52.247Z</time>
      </trkpt>
      <trkpt lat="61.61376" lon="5.32422">
        <ele>95.251887</ele>
        <time>2020-07-28T11:55:58.233Z</time>
      </trkpt>
      <trkpt lat="61.61379" lon="5.32402">
        <ele>95.838637</ele>
        <time>2020-07-28T11:56:04.228Z</time>
      </trkpt>
      <trkpt lat="61.61384" lon="5.32383">
        <ele>96.472286</ele>
        <time>2020-07-28T11:56:10.238Z</time>
      </trkpt>
      <trkpt lat="61.61389" lon="5.32363">
        <ele>97.134497</ele>
        <time>2020-07-28T11:56:16.227Z</time>
      </trkpt>
      <trkpt lat="61.61394" lon="5.32344">
        <ele>97.747103</ele>
        <time>2020-07-28T11:56:21.216Z</time>
      </trkpt>
      <trkpt lat="61.61398" lon="5.32325">
        <ele>98.359574</ele>
        <time>2020-07-28T11:56:26.233Z</time>
      </trkpt>
      <trkpt lat="61.61402" lon="5.32304">
        <ele>99.01009</ele>
        <time>2020-07-28T11:56:31.248Z</time>
      </trkpt>
      <trkpt lat="61.61406" lon="5.32284">
        <ele>99.653886</ele>
        <time>2020-07-28T11:56:36.255Z</time>
      </trkpt>
      <trkpt lat="61.61409" lon="5.32264">
        <ele>100.260732</ele>
        <time>2020-07-28T11:56:41.249Z</time>
      </trkpt>
      <trkpt lat="61.61411" lon="5.32243">
        <ele>100.788814</ele>
        <time>2020-07-28T11:56:46.202Z</time>
      </trkpt>
      <trkpt lat="61.61412" lon="5.32224">
        <ele>100.839482</ele>
        <time>2020-07-28T11:56:50.229Z</time>
      </trkpt>
      <trkpt lat="61.61412" lon="5.32203">
        <ele>100.894557</ele>
        <time>2020-07-28T11:56:54.218Z</time>
      </trkpt>
      <trkpt lat="61.61411" lon="5.32179">
        <ele>100.957164</ele>
        <time>2020-07-28T11:56:58.275Z</time>
      </trkpt>
      <trkpt lat="61.61411" lon="5.32159">
        <ele>101.011547</ele>
        <time>2020-07-28T11:57:02.210Z</time>
      </trkpt>
      <trkpt lat="61.61409" lon="5.32139">
        <ele>101.064565</ele>
        <time>2020-07-28T11:57:05.221Z</time>
      </trkpt>
      <trkpt lat="61.61407" lon="5.32119">
        <ele>101.119237</ele>
        <time>2020-07-28T11:57:08.227Z</time>
      </trkpt>
      <trkpt lat="61.61406" lon="5.32098">
        <ele>101.175019</ele>
        <time>2020-07-28T11:57:11.198Z</time>
      </trkpt>
      <trkpt lat="61.61404" lon="5.32079">
        <ele>101.225922</ele>
        <time>2020-07-28T11:57:14.235Z</time>
      </trkpt>
      <trkpt lat="61.61402" lon="5.3206">
        <ele>101.277489</ele>
        <time>2020-07-28T11:57:17.209Z</time>
      </trkpt>
      <trkpt lat="61.614" lon="5.3204">
        <ele>101.329112</ele>
        <time>2020-07-28T11:57:20.216Z</time>
      </trkpt>
      <trkpt lat="61.61398" lon="5.32022">
        <ele>101.379389</ele>
        <time>2020-07-28T11:57:23.217Z</time>
      </trkpt>
      <trkpt lat="61.61394" lon="5.32004">
        <ele>101.431753</ele>
        <time>2020-07-28T11:57:26.208Z</time>
      </trkpt>
      <trkpt lat="61.61392" lon="5.31984">
        <ele>101.485206</ele>
        <time>2020-07-28T11:57:29.218Z</time>
      </trkpt>
      <trkpt lat="61.6139" lon="5.31965">
        <ele>101.53635</ele>
        <time>2020-07-28T11:57:32.255Z</time>
      </trkpt>
      <trkpt lat="61.61388" lon="5.31946">
        <ele>101.587142</ele>
        <time>2020-07-28T11:57:35.232Z</time>
      </trkpt>
      <trkpt lat="61.61386" lon="5.31927">
        <ele>101.640209</ele>
        <time>2020-07-28T11:57:38.230Z</time>
      </trkpt>
      <trkpt lat="61.61383" lon="5.31902">
        <ele>101.705842</ele>
        <time>2020-07-28T11:57:42.239Z</time>
      </trkpt>
      <trkpt lat="61.61381" lon="5.31884">
        <ele>101.756881</ele>
        <time>2020-07-28T11:57:45.228Z</time>
      </trkpt>
      <trkpt lat="61.61378" lon="5.31865">
        <ele>101.84974</ele>
        <time>2020-07-28T11:57:48.219Z</time>
      </trkpt>
      <trkpt lat="61.61376" lon="5.31845">
        <ele>101.976381</ele>
        <time>2020-07-28T11:57:51.206Z</time>
      </trkpt>
      <trkpt lat="61.61374" lon="5.31826">
        <ele>102.10217</ele>
        <time>2020-07-28T11:57:54.239Z</time>
      </trkpt>
      <trkpt lat="61.61373" lon="5.31807">
        <ele>102.221213</ele>
        <time>2020-07-28T11:57:57.216Z</time>
      </trkpt>
      <trkpt lat="61.61372" lon="5.31788">
        <ele>102.340797</ele>
        <time>2020-07-28T11:58:00.216Z</time>
      </trkpt>
      <trkpt lat="61.61372" lon="5.31763">
        <ele>102.495583</ele>
        <time>2020-07-28T11:58:04.247Z</time>
      </trkpt>
      <trkpt lat="61.61372" lon="5.31739">
        <ele>102.649671</ele>
        <time>2020-07-28T11:58:08.212Z</time>
      </trkpt>
      <trkpt lat="61.61372" lon="5.31716">
        <ele>102.796844</ele>
        <time>2020-07-28T11:58:12.210Z</time>
      </trkpt>
      <trkpt lat="61.61373" lon="5.31692">
        <ele>102.942491</ele>
        <time>2020-07-28T11:58:16.222Z</time>
      </trkpt>
      <trkpt lat="61.61374" lon="5.31672">
        <ele>103.074722</ele>
        <time>2020-07-28T11:58:20.211Z</time>
      </trkpt>
      <trkpt lat="61.61375" lon="5.31653">
        <ele>103.193416</ele>
        <time>2020-07-28T11:58:24.211Z</time>
      </trkpt>
      <trkpt lat="61.61376" lon="5.31631">
        <ele>103.328921</ele>
        <time>2020-07-28T11:58:29.209Z</time>
      </trkpt>
      <trkpt lat="61.61378" lon="5.31612">
        <ele>103.455596</ele>
        <time>2020-07-28T11:58:35.204Z</time>
      </trkpt>
      <trkpt lat="61.61381" lon="5.31592">
        <ele>103.585026</ele>
        <time>2020-07-28T11:58:41.211Z</time>
      </trkpt>
      <trkpt lat="61.61386" lon="5.31575">
        <ele>103.713033</ele>
        <time>2020-07-28T11:58:47.231Z</time>
      </trkpt>
      <trkpt lat="61.61391" lon="5.31558">
        <ele>103.835793</ele>
        <time>2020-07-28T11:58:53.226Z</time>
      </trkpt>
      <trkpt lat="61.61398" lon="5.31543">
        <ele>103.968077</ele>
        <time>2020-07-28T11:59:00.208Z</time>
      </trkpt>
      <trkpt lat="61.61405" lon="5.31528">
        <ele>104.102709</ele>
        <time>2020-07-28T11:59:06.212Z</time>
      </trkpt>
      <trkpt lat="61.61413" lon="5.31516">
        <ele>104.78933</ele>
        <time>2020-07-28T11:59:12.237Z</time>
      </trkpt>
      <trkpt lat="61.61421" lon="5.31504">
        <ele>105.949846</ele>
        <time>2020-07-28T11:59:18.226Z</time>
      </trkpt>
      <trkpt lat="61.61429" lon="5.3149">
        <ele>107.202228</ele>
        <time>2020-07-28T11:59:25.237Z</time>
      </trkpt>
      <trkpt lat="61.61437" lon="5.31477">
        <ele>108.411691</ele>
        <time>2020-07-28T11:59:32.234Z</time>
      </trkpt>
      <trkpt lat="61.61444" lon="5.31465">
        <ele>109.542477</ele>
        <time>2020-07-28T11:59:39.247Z</time>
      </trkpt>
      <trkpt lat="61.61453" lon="5.31453">
        <ele>110.735416</ele>
        <time>2020-07-28T11:59:47.233Z</time>
      </trkpt>
      <trkpt lat="61.6146" lon="5.31441">
        <ele>111.800864</ele>
        <time>2020-07-28T11:59:54.253Z</time>
      </trkpt>
      <trkpt lat="61.61467" lon="5.31431">
        <ele>112.879971</ele>
        <time>2020-07-28T12:00:01.212Z</time>
      </trkpt>
      <trkpt lat="61.61476" lon="5.31423">
        <ele>113.979182</ele>
        <time>2020-07-28T12:00:08.238Z</time>
      </trkpt>
      <trkpt lat="61.61485" lon="5.31414">
        <ele>115.143857</ele>
        <time>2020-07-28T12:00:16.211Z</time>
      </trkpt>
      <trkpt lat="61.61495" lon="5.31409">
        <ele>116.368708</ele>
        <time>2020-07-28T12:00:23.224Z</time>
      </trkpt>
      <trkpt lat="61.61503" lon="5.31401">
        <ele>117.441634</ele>
        <time>2020-07-28T12:00:30.220Z</time>
      </trkpt>
      <trkpt lat="61.61513" lon="5.31395">
        <ele>118.676845</ele>
        <time>2020-07-28T12:00:37.215Z</time>
      </trkpt>
      <trkpt lat="61.61522" lon="5.31388">
        <ele>119.874291</ele>
        <time>2020-07-28T12:00:45.233Z</time>
      </trkpt>
      <trkpt lat="61.61531" lon="5.31378">
        <ele>121.007561</ele>
        <time>2020-07-28T12:00:54.220Z</time>
      </trkpt>
      <trkpt lat="61.6154" lon="5.31369">
        <ele>122.201027</ele>
        <time>2020-07-28T12:01:02.211Z</time>
      </trkpt>
      <trkpt lat="61.61549" lon="5.31363">
        <ele>123.307674</ele>
        <time>2020-07-28T12:01:08.244Z</time>
      </trkpt>
      <trkpt lat="61.61557" lon="5.31356">
        <ele>124.396023</ele>
        <time>2020-07-28T12:01:14.212Z</time>
      </trkpt>
      <trkpt lat="61.61567" lon="5.31348">
        <ele>125.635281</ele>
        <time>2020-07-28T12:01:21.232Z</time>
      </trkpt>
      <trkpt lat="61.61576" lon="5.31338">
        <ele>126.75945</ele>
        <time>2020-07-28T12:01:29.246Z</time>
      </trkpt>
      <trkpt lat="61.61584" lon="5.31329">
        <ele>127.802578</ele>
        <time>2020-07-28T12:01:36.204Z</time>
      </trkpt>
      <trkpt lat="61.61592" lon="5.31319">
        <ele>128.858377</ele>
        <time>2020-07-28T12:01:42.202Z</time>
      </trkpt>
      <trkpt lat="61.616" lon="5.31309">
        <ele>129.892068</ele>
        <time>2020-07-28T12:01:48.228Z</time>
      </trkpt>
      <trkpt lat="61.61607" lon="5.31296">
        <ele>130.996203</ele>
        <time>2020-07-28T12:01:56.224Z</time>
      </trkpt>
      <trkpt lat="61.61615" lon="5.31285">
        <ele>132.120193</ele>
        <time>2020-07-28T12:02:02.222Z</time>
      </trkpt>
      <trkpt lat="61.61625" lon="5.31275">
        <ele>133.339496</ele>
        <time>2020-07-28T12:02:08.249Z</time>
      </trkpt>
      <trkpt lat="61.61634" lon="5.31264">
        <ele>134.508563</ele>
        <time>2020-07-28T12:02:14.236Z</time>
      </trkpt>
      <trkpt lat="61.61643" lon="5.31254">
        <ele>135.674832</ele>
        <time>2020-07-28T12:02:21.215Z</time>
      </trkpt>
      <trkpt lat="61.61651" lon="5.31244">
        <ele>136.73348</ele>
        <time>2020-07-28T12:02:28.239Z</time>
      </trkpt>
      <trkpt lat="61.61658" lon="5.3123">
        <ele>137.831576</ele>
        <time>2020-07-28T12:02:35.214Z</time>
      </trkpt>
      <trkpt lat="61.61667" lon="5.31222">
        <ele>138.991727</ele>
        <time>2020-07-28T12:02:42.227Z</time>
      </trkpt>
      <trkpt lat="61.61676" lon="5.31212">
        <ele>140.047412</ele>
        <time>2020-07-28T12:02:50.219Z</time>
      </trkpt>
      <trkpt lat="61.61683" lon="5.31203">
        <ele>141.067967</ele>
        <time>2020-07-28T12:02:56.235Z</time>
      </trkpt>
      <trkpt lat="61.61692" lon="5.31195">
        <ele>142.126826</ele>
        <time>2020-07-28T12:03:02.203Z</time>
      </trkpt>
      <trkpt lat="61.61701" lon="5.3119">
        <ele>143.252916</ele>
        <time>2020-07-28T12:03:09.226Z</time>
      </trkpt>
      <trkpt lat="61.61711" lon="5.31188">
        <ele>144.325131</ele>
        <time>2020-07-28T12:03:17.298Z</time>
      </trkpt>
      <trkpt lat="61.61721" lon="5.31187">
        <ele>145.427658</ele>
        <time>2020-07-28T12:03:24.206Z</time>
      </trkpt>
      <trkpt lat="61.6173" lon="5.31189">
        <ele>146.040061</ele>
        <time>2020-07-28T12:03:29.265Z</time>
      </trkpt>
      <trkpt lat="61.61739" lon="5.31186">
        <ele>146.213352</ele>
        <time>2020-07-28T12:03:35.243Z</time>
      </trkpt>
      <trkpt lat="61.6175" lon="5.31185">
        <ele>146.412946</ele>
        <time>2020-07-28T12:03:41.207Z</time>
      </trkpt>
      <trkpt lat="61.61759" lon="5.31194">
        <ele>146.607808</ele>
        <time>2020-07-28T12:03:46.268Z</time>
      </trkpt>
      <trkpt lat="61.61769" lon="5.31205">
        <ele>146.818618</ele>
        <time>2020-07-28T12:03:50.211Z</time>
      </trkpt>
      <trkpt lat="61.61779" lon="5.31213">
        <ele>147.018061</ele>
        <time>2020-07-28T12:03:53.230Z</time>
      </trkpt>
      <trkpt lat="61.61789" lon="5.31222">
        <ele>147.213022</ele>
        <time>2020-07-28T12:03:56.221Z</time>
      </trkpt>
      <trkpt lat="61.61798" lon="5.31231">
        <ele>147.39288</ele>
        <time>2020-07-28T12:03:58.212Z</time>
      </trkpt>
      <trkpt lat="61.61805" lon="5.31244">
        <ele>147.574602</ele>
        <time>2020-07-28T12:04:00.226Z</time>
      </trkpt>
      <trkpt lat="61.61813" lon="5.31257">
        <ele>147.763591</ele>
        <time>2020-07-28T12:04:02.216Z</time>
      </trkpt>
      <trkpt lat="61.61821" lon="5.31271">
        <ele>147.955883</ele>
        <time>2020-07-28T12:04:04.231Z</time>
      </trkpt>
      <trkpt lat="61.61829" lon="5.31286">
        <ele>148.157263</ele>
        <time>2020-07-28T12:04:06.250Z</time>
      </trkpt>
      <trkpt lat="61.61836" lon="5.31305">
        <ele>148.3661</ele>
        <time>2020-07-28T12:04:08.225Z</time>
      </trkpt>
      <trkpt lat="61.61845" lon="5.31325">
        <ele>148.607058</ele>
        <time>2020-07-28T12:04:10.208Z</time>
      </trkpt>
      <trkpt lat="61.61853" lon="5.3135">
        <ele>148.878365</ele>
        <time>2020-07-28T12:04:12.218Z</time>
      </trkpt>
      <trkpt lat="61.61863" lon="5.31379">
        <ele>149.189089</ele>
        <time>2020-07-28T12:04:14.216Z</time>
      </trkpt>
      <trkpt lat="61.61868" lon="5.31394">
        <ele>149.054574</ele>
        <time>2020-07-28T12:04:15.226Z</time>
      </trkpt>
      <trkpt lat="61.61874" lon="5.3141">
        <ele>148.255635</ele>
        <time>2020-07-28T12:04:16.222Z</time>
      </trkpt>
      <trkpt lat="61.61879" lon="5.31426">
        <ele>147.433269</ele>
        <time>2020-07-28T12:04:17.240Z</time>
      </trkpt>
      <trkpt lat="61.61886" lon="5.31442">
        <ele>146.559243</ele>
        <time>2020-07-28T12:04:18.245Z</time>
      </trkpt>
      <trkpt lat="61.61893" lon="5.31458">
        <ele>145.653691</ele>
        <time>2020-07-28T12:04:19.225Z</time>
      </trkpt>
      <trkpt lat="61.61901" lon="5.31473">
        <ele>144.723715</ele>
        <time>2020-07-28T12:04:20.231Z</time>
      </trkpt>
      <trkpt lat="61.6191" lon="5.31488">
        <ele>143.7847</ele>
        <time>2020-07-28T12:04:21.226Z</time>
      </trkpt>
      <trkpt lat="61.61919" lon="5.31501">
        <ele>142.832115</ele>
        <time>2020-07-28T12:04:22.257Z</time>
      </trkpt>
      <trkpt lat="61.61928" lon="5.31514">
        <ele>141.846564</ele>
        <time>2020-07-28T12:04:23.225Z</time>
      </trkpt>
      <trkpt lat="61.61939" lon="5.31524">
        <ele>140.863733</ele>
        <time>2020-07-28T12:04:24.213Z</time>
      </trkpt>
      <trkpt lat="61.6195" lon="5.31532">
        <ele>139.852555</ele>
        <time>2020-07-28T12:04:25.212Z</time>
      </trkpt>
      <trkpt lat="61.61961" lon="5.31538">
        <ele>138.845103</ele>
        <time>2020-07-28T12:04:26.205Z</time>
      </trkpt>
      <trkpt lat="61.61972" lon="5.31542">
        <ele>137.861356</ele>
        <time>2020-07-28T12:04:27.248Z</time>
      </trkpt>
      <trkpt lat="61.61985" lon="5.31542">
        <ele>136.818445</ele>
        <time>2020-07-28T12:04:28.232Z</time>
      </trkpt>
      <trkpt lat="61.61997" lon="5.3154">
        <ele>135.703396</ele>
        <time>2020-07-28T12:04:29.237Z</time>
      </trkpt>
      <trkpt lat="61.6201" lon="5.31535">
        <ele>134.592804</ele>
        <time>2020-07-28T12:04:30.236Z</time>
      </trkpt>
      <trkpt lat="61.62023" lon="5.31528">
        <ele>133.402028</ele>
        <time>2020-07-28T12:04:31.244Z</time>
      </trkpt>
      <trkpt lat="61.62035" lon="5.31518">
        <ele>132.113096</ele>
        <time>2020-07-28T12:04:32.221Z</time>
      </trkpt>
      <trkpt lat="61.62047" lon="5.31506">
        <ele>130.80058</ele>
        <time>2020-07-28T12:04:33.207Z</time>
      </trkpt>
      <trkpt lat="61.62058" lon="5.3149">
        <ele>129.520695</ele>
        <time>2020-07-28T12:04:34.263Z</time>
      </trkpt>
      <trkpt lat="61.62068" lon="5.31474">
        <ele>128.20852</ele>
        <time>2020-07-28T12:04:35.251Z</time>
      </trkpt>
      <trkpt lat="61.62079" lon="5.31457">
        <ele>126.931882</ele>
        <time>2020-07-28T12:04:36.222Z</time>
      </trkpt>
      <trkpt lat="61.62088" lon="5.31439">
        <ele>125.66014</ele>
        <time>2020-07-28T12:04:37.207Z</time>
      </trkpt>
      <trkpt lat="61.62098" lon="5.31421">
        <ele>124.402447</ele>
        <time>2020-07-28T12:04:38.247Z</time>
      </trkpt>
      <trkpt lat="61.62107" lon="5.31403">
        <ele>123.121594</ele>
        <time>2020-07-28T12:04:39.209Z</time>
      </trkpt>
      <trkpt lat="61.62117" lon="5.31384">
        <ele>121.849273</ele>
        <time>2020-07-28T12:04:40.217Z</time>
      </trkpt>
      <trkpt lat="61.62127" lon="5.31367">
        <ele>120.597202</ele>
        <time>2020-07-28T12:04:41.213Z</time>
      </trkpt>
      <trkpt lat="61.62136" lon="5.31351">
        <ele>119.376662</ele>
        <time>2020-07-28T12:04:42.234Z</time>
      </trkpt>
      <trkpt lat="61.62146" lon="5.31336">
        <ele>118.187975</ele>
        <time>2020-07-28T12:04:43.209Z</time>
      </trkpt>
      <trkpt lat="61.62155" lon="5.31321">
        <ele>117.03241</ele>
        <time>2020-07-28T12:04:44.226Z</time>
      </trkpt>
      <trkpt lat="61.62165" lon="5.31309">
        <ele>116.068684</ele>
        <time>2020-07-28T12:04:45.225Z</time>
      </trkpt>
      <trkpt lat="61.62175" lon="5.31297">
        <ele>116.198851</ele>
        <time>2020-07-28T12:04:46.217Z</time>
      </trkpt>
      <trkpt lat="61.62184" lon="5.31286">
        <ele>116.31992</ele>
        <time>2020-07-28T12:04:47.224Z</time>
      </trkpt>
      <trkpt lat="61.62194" lon="5.31277">
        <ele>116.436736</ele>
        <time>2020-07-28T12:04:48.222Z</time>
      </trkpt>
      <trkpt lat="61.62202" lon="5.31268">
        <ele>116.548599</ele>
        <time>2020-07-28T12:04:49.233Z</time>
      </trkpt>
      <trkpt lat="61.62218" lon="5.31255">
        <ele>116.743583</ele>
        <time>2020-07-28T12:04:51.238Z</time>
      </trkpt>
      <trkpt lat="61.62232" lon="5.31244">
        <ele>116.914466</ele>
        <time>2020-07-28T12:04:53.223Z</time>
      </trkpt>
      <trkpt lat="61.62245" lon="5.31234">
        <ele>117.065902</ele>
        <time>2020-07-28T12:04:55.213Z</time>
      </trkpt>
      <trkpt lat="61.62255" lon="5.31225">
        <ele>117.197289</ele>
        <time>2020-07-28T12:04:57.208Z</time>
      </trkpt>
      <trkpt lat="61.62265" lon="5.31215">
        <ele>117.322721</ele>
        <time>2020-07-28T12:04:59.209Z</time>
      </trkpt>
      <trkpt lat="61.62275" lon="5.31201">
        <ele>117.459977</ele>
        <time>2020-07-28T12:05:02.218Z</time>
      </trkpt>
      <trkpt lat="61.62283" lon="5.31189">
        <ele>117.572552</ele>
        <time>2020-07-28T12:05:05.234Z</time>
      </trkpt>
      <trkpt lat="61.62292" lon="5.31178">
        <ele>117.686429</ele>
        <time>2020-07-28T12:05:08.251Z</time>
      </trkpt>
      <trkpt lat="61.623" lon="5.31166">
        <ele>117.798333</ele>
        <time>2020-07-28T12:05:12.216Z</time>
      </trkpt>
      <trkpt lat="61.62307" lon="5.31152">
        <ele>117.911517</ele>
        <time>2020-07-28T12:05:17.234Z</time>
      </trkpt>
      <trkpt lat="61.62314" lon="5.31137">
        <ele>118.028505</ele>
        <time>2020-07-28T12:05:23.218Z</time>
      </trkpt>
      <trkpt lat="61.62322" lon="5.31125">
        <ele>118.34059</ele>
        <time>2020-07-28T12:05:29.219Z</time>
      </trkpt>
      <trkpt lat="61.62329" lon="5.31108">
        <ele>119.264319</ele>
        <time>2020-07-28T12:05:35.221Z</time>
      </trkpt>
      <trkpt lat="61.62332" lon="5.31089">
        <ele>120.147855</ele>
        <time>2020-07-28T12:05:42.205Z</time>
      </trkpt>
      <trkpt lat="61.62336" lon="5.31069">
        <ele>121.040893</ele>
        <time>2020-07-28T12:05:49.253Z</time>
      </trkpt>
      <trkpt lat="61.62343" lon="5.31053">
        <ele>121.928542</ele>
        <time>2020-07-28T12:05:55.227Z</time>
      </trkpt>
      <trkpt lat="61.62347" lon="5.31035">
        <ele>122.771828</ele>
        <time>2020-07-28T12:06:02.221Z</time>
      </trkpt>
      <trkpt lat="61.62352" lon="5.31019">
        <ele>123.57254</ele>
        <time>2020-07-28T12:06:09.235Z</time>
      </trkpt>
      <trkpt lat="61.62358" lon="5.31004">
        <ele>124.444163</ele>
        <time>2020-07-28T12:06:16.221Z</time>
      </trkpt>
      <trkpt lat="61.62364" lon="5.30988">
        <ele>125.296977</ele>
        <time>2020-07-28T12:06:23.230Z</time>
      </trkpt>
      <trkpt lat="61.62369" lon="5.30971">
        <ele>126.10494</ele>
        <time>2020-07-28T12:06:30.237Z</time>
      </trkpt>
      <trkpt lat="61.62375" lon="5.30957">
        <ele>126.93707</ele>
        <time>2020-07-28T12:06:38.221Z</time>
      </trkpt>
      <trkpt lat="61.62382" lon="5.30944">
        <ele>127.744282</ele>
        <time>2020-07-28T12:06:44.224Z</time>
      </trkpt>
      <trkpt lat="61.6239" lon="5.30934">
        <ele>128.575148</ele>
        <time>2020-07-28T12:06:51.213Z</time>
      </trkpt>
      <trkpt lat="61.62398" lon="5.30919">
        <ele>129.47201</ele>
        <time>2020-07-28T12:06:59.207Z</time>
      </trkpt>
      <trkpt lat="61.62406" lon="5.30907">
        <ele>130.377489</ele>
        <time>2020-07-28T12:07:08.232Z</time>
      </trkpt>
      <trkpt lat="61.62414" lon="5.30898">
        <ele>131.17029</ele>
        <time>2020-07-28T12:07:16.226Z</time>
      </trkpt>
      <trkpt lat="61.62423" lon="5.3089">
        <ele>132.067983</ele>
        <time>2020-07-28T12:07:25.222Z</time>
      </trkpt>
      <trkpt lat="61.62433" lon="5.30887">
        <ele>132.980999</ele>
        <time>2020-07-28T12:07:33.215Z</time>
      </trkpt>
      <trkpt lat="61.62443" lon="5.30881">
        <ele>133.853838</ele>
        <time>2020-07-28T12:07:41.214Z</time>
      </trkpt>
      <trkpt lat="61.62452" lon="5.30881">
        <ele>134.501841</ele>
        <time>2020-07-28T12:07:49.249Z</time>
      </trkpt>
      <trkpt lat="61.62462" lon="5.30882">
        <ele>135.149678</ele>
        <time>2020-07-28T12:07:56.220Z</time>
      </trkpt>
      <trkpt lat="61.62472" lon="5.30883">
        <ele>135.825037</ele>
        <time>2020-07-28T12:08:03.227Z</time>
      </trkpt>
      <trkpt lat="61.62481" lon="5.30884">
        <ele>136.439874</ele>
        <time>2020-07-28T12:08:10.215Z</time>
      </trkpt>
      <trkpt lat="61.6249" lon="5.30888">
        <ele>137.064833</ele>
        <time>2020-07-28T12:08:18.223Z</time>
      </trkpt>
      <trkpt lat="61.62501" lon="5.30894">
        <ele>137.775445</ele>
        <time>2020-07-28T12:08:25.243Z</time>
      </trkpt>
      <trkpt lat="61.6251" lon="5.30901">
        <ele>138.432612</ele>
        <time>2020-07-28T12:08:31.236Z</time>
      </trkpt>
      <trkpt lat="61.62518" lon="5.3091">
        <ele>139.045527</ele>
        <time>2020-07-28T12:08:38.215Z</time>
      </trkpt>
      <trkpt lat="61.62526" lon="5.30922">
        <ele>139.714687</ele>
        <time>2020-07-28T12:08:47.207Z</time>
      </trkpt>
      <trkpt lat="61.62534" lon="5.30933">
        <ele>140.355635</ele>
        <time>2020-07-28T12:08:54.218Z</time>
      </trkpt>
      <trkpt lat="61.62541" lon="5.30947">
        <ele>141.007593</ele>
        <time>2020-07-28T12:09:01.206Z</time>
      </trkpt>
      <trkpt lat="61.62549" lon="5.30961">
        <ele>141.668189</ele>
        <time>2020-07-28T12:09:08.216Z</time>
      </trkpt>
      <trkpt lat="61.62556" lon="5.30974">
        <ele>142.284038</ele>
        <time>2020-07-28T12:09:14.226Z</time>
      </trkpt>
      <trkpt lat="61.62563" lon="5.30986">
        <ele>142.891537</ele>
        <time>2020-07-28T12:09:21.213Z</time>
      </trkpt>
      <trkpt lat="61.62568" lon="5.31004">
        <ele>143.557582</ele>
        <time>2020-07-28T12:09:28.231Z</time>
      </trkpt>
      <trkpt lat="61.62573" lon="5.31022">
        <ele>144.241474</ele>
        <time>2020-07-28T12:09:35.242Z</time>
      </trkpt>
      <trkpt lat="61.62579" lon="5.3104">
        <ele>144.922692</ele>
        <time>2020-07-28T12:09:41.208Z</time>
      </trkpt>
      <trkpt lat="61.62582" lon="5.31059">
        <ele>145.552678</ele>
        <time>2020-07-28T12:09:47.227Z</time>
      </trkpt>
      <trkpt lat="61.62586" lon="5.31079">
        <ele>146.102754</ele>
        <time>2020-07-28T12:09:53.201Z</time>
      </trkpt>
      <trkpt lat="61.62588" lon="5.31098">
        <ele>146.35093</ele>
        <time>2020-07-28T12:09:59.205Z</time>
      </trkpt>
      <trkpt lat="61.62591" lon="5.3112">
        <ele>146.627289</ele>
        <time>2020-07-28T12:10:05.213Z</time>
      </trkpt>
      <trkpt lat="61.62594" lon="5.31137">
        <ele>146.867903</ele>
        <time>2020-07-28T12:10:10.235Z</time>
      </trkpt>
      <trkpt lat="61.62597" lon="5.31159">
        <ele>147.151022</ele>
        <time>2020-07-28T12:10:15.229Z</time>
      </trkpt>
      <trkpt lat="61.626" lon="5.31181">
        <ele>147.423859</ele>
        <time>2020-07-28T12:10:20.212Z</time>
      </trkpt>
      <trkpt lat="61.62602" lon="5.312">
        <ele>147.672753</ele>
        <time>2020-07-28T12:10:24.268Z</time>
      </trkpt>
      <trkpt lat="61.62604" lon="5.31221">
        <ele>147.940038</ele>
        <time>2020-07-28T12:10:28.252Z</time>
      </trkpt>
      <trkpt lat="61.62606" lon="5.31242">
        <ele>148.200722</ele>
        <time>2020-07-28T12:10:32.219Z</time>
      </trkpt>
      <trkpt lat="61.62609" lon="5.31262">
        <ele>148.461097</ele>
        <time>2020-07-28T12:10:36.211Z</time>
      </trkpt>
      <trkpt lat="61.62612" lon="5.31281">
        <ele>148.712702</ele>
        <time>2020-07-28T12:10:40.239Z</time>
      </trkpt>
      <trkpt lat="61.62614" lon="5.31303">
        <ele>148.982599</ele>
        <time>2020-07-28T12:10:44.231Z</time>
      </trkpt>
      <trkpt lat="61.62615" lon="5.31324">
        <ele>149.250665</ele>
        <time>2020-07-28T12:10:48.222Z</time>
      </trkpt>
      <trkpt lat="61.62618" lon="5.31344">
        <ele>149.511295</ele>
        <time>2020-07-28T12:10:52.204Z</time>
      </trkpt>
      <trkpt lat="61.6262" lon="5.31365">
        <ele>149.772646</ele>
        <time>2020-07-28T12:10:56.212Z</time>
      </trkpt>
      <trkpt lat="61.62622" lon="5.31386">
        <ele>150.046475</ele>
        <time>2020-07-28T12:11:00.219Z</time>
      </trkpt>
      <trkpt lat="61.62624" lon="5.31407">
        <ele>150.310808</ele>
        <time>2020-07-28T12:11:04.228Z</time>
      </trkpt>
      <trkpt lat="61.62627" lon="5.31427">
        <ele>150.57193</ele>
        <time>2020-07-28T12:11:08.229Z</time>
      </trkpt>
      <trkpt lat="61.6263" lon="5.31448">
        <ele>150.669483</ele>
        <time>2020-07-28T12:11:12.236Z</time>
      </trkpt>
      <trkpt lat="61.62632" lon="5.31469">
        <ele>150.541938</ele>
        <time>2020-07-28T12:11:16.219Z</time>
      </trkpt>
      <trkpt lat="61.62634" lon="5.31491">
        <ele>150.412442</ele>
        <time>2020-07-28T12:11:20.213Z</time>
      </trkpt>
      <trkpt lat="61.62637" lon="5.31513">
        <ele>150.277139</ele>
        <time>2020-07-28T12:11:24.254Z</time>
      </trkpt>
      <trkpt lat="61.6264" lon="5.31534">
        <ele>150.145976</ele>
        <time>2020-07-28T12:11:28.230Z</time>
      </trkpt>
      <trkpt lat="61.62642" lon="5.31557">
        <ele>150.012849</ele>
        <time>2020-07-28T12:11:32.217Z</time>
      </trkpt>
      <trkpt lat="61.62644" lon="5.31578">
        <ele>149.88566</ele>
        <time>2020-07-28T12:11:36.208Z</time>
      </trkpt>
      <trkpt lat="61.62646" lon="5.31601">
        <ele>149.749194</ele>
        <time>2020-07-28T12:11:40.234Z</time>
      </trkpt>
      <trkpt lat="61.6265" lon="5.31624">
        <ele>149.607461</ele>
        <time>2020-07-28T12:11:44.237Z</time>
      </trkpt>
      <trkpt lat="61.62653" lon="5.31648">
        <ele>149.458233</ele>
        <time>2020-07-28T12:11:48.265Z</time>
      </trkpt>
      <trkpt lat="61.62656" lon="5.31666">
        <ele>149.345021</ele>
        <time>2020-07-28T12:11:51.220Z</time>
      </trkpt>
      <trkpt lat="61.6266" lon="5.31685">
        <ele>149.222479</ele>
        <time>2020-07-28T12:11:54.228Z</time>
      </trkpt>
      <trkpt lat="61.62665" lon="5.31705">
        <ele>149.090371</ele>
        <time>2020-07-28T12:11:57.238Z</time>
      </trkpt>
      <trkpt lat="61.62671" lon="5.31727">
        <ele>148.943831</ele>
        <time>2020-07-28T12:12:00.210Z</time>
      </trkpt>
      <trkpt lat="61.62677" lon="5.31751">
        <ele>148.781487</ele>
        <time>2020-07-28T12:12:03.228Z</time>
      </trkpt>
      <trkpt lat="61.62683" lon="5.31768">
        <ele>148.664986</ele>
        <time>2020-07-28T12:12:05.227Z</time>
      </trkpt>
      <trkpt lat="61.62689" lon="5.31786">
        <ele>148.527544</ele>
        <time>2020-07-28T12:12:07.227Z</time>
      </trkpt>
      <trkpt lat="61.62697" lon="5.31806">
        <ele>147.77635</ele>
        <time>2020-07-28T12:12:09.227Z</time>
      </trkpt>
      <trkpt lat="61.62706" lon="5.31827">
        <ele>146.833929</ele>
        <time>2020-07-28T12:12:11.215Z</time>
      </trkpt>
      <trkpt lat="61.62718" lon="5.31848">
        <ele>145.771902</ele>
        <time>2020-07-28T12:12:13.233Z</time>
      </trkpt>
      <trkpt lat="61.62731" lon="5.3187">
        <ele>144.615408</ele>
        <time>2020-07-28T12:12:15.200Z</time>
      </trkpt>
      <trkpt lat="61.62746" lon="5.31891">
        <ele>143.340415</ele>
        <time>2020-07-28T12:12:17.220Z</time>
      </trkpt>
      <trkpt lat="61.62754" lon="5.31902">
        <ele>142.65398</ele>
        <time>2020-07-28T12:12:18.214Z</time>
      </trkpt>
      <trkpt lat="61.62763" lon="5.31911">
        <ele>141.944616</ele>
        <time>2020-07-28T12:12:19.212Z</time>
      </trkpt>
      <trkpt lat="61.62773" lon="5.3192">
        <ele>141.212371</ele>
        <time>2020-07-28T12:12:20.223Z</time>
      </trkpt>
      <trkpt lat="61.62783" lon="5.31929">
        <ele>140.453257</ele>
        <time>2020-07-28T12:12:21.253Z</time>
      </trkpt>
      <trkpt lat="61.62793" lon="5.31937">
        <ele>139.672108</ele>
        <time>2020-07-28T12:12:22.218Z</time>
      </trkpt>
      <trkpt lat="61.62804" lon="5.31944">
        <ele>138.87735</ele>
        <time>2020-07-28T12:12:23.234Z</time>
      </trkpt>
      <trkpt lat="61.62815" lon="5.31951">
        <ele>138.084581</ele>
        <time>2020-07-28T12:12:24.210Z</time>
      </trkpt>
      <trkpt lat="61.62825" lon="5.31958">
        <ele>137.301424</ele>
        <time>2020-07-28T12:12:25.223Z</time>
      </trkpt>
      <trkpt lat="61.62837" lon="5.31964">
        <ele>136.453363</ele>
        <time>2020-07-28T12:12:26.231Z</time>
      </trkpt>
      <trkpt lat="61.62849" lon="5.3197">
        <ele>135.615979</ele>
        <time>2020-07-28T12:12:27.224Z</time>
      </trkpt>
      <trkpt lat="61.62862" lon="5.31977">
        <ele>134.846747</ele>
        <time>2020-07-28T12:12:28.208Z</time>
      </trkpt>
      <trkpt lat="61.62875" lon="5.31985">
        <ele>134.065234</ele>
        <time>2020-07-28T12:12:29.228Z</time>
      </trkpt>
      <trkpt lat="61.62887" lon="5.31993">
        <ele>133.274698</ele>
        <time>2020-07-28T12:12:30.215Z</time>
      </trkpt>
      <trkpt lat="61.62899" lon="5.32004">
        <ele>132.503179</ele>
        <time>2020-07-28T12:12:31.234Z</time>
      </trkpt>
      <trkpt lat="61.62911" lon="5.32015">
        <ele>131.768368</ele>
        <time>2020-07-28T12:12:32.214Z</time>
      </trkpt>
      <trkpt lat="61.62921" lon="5.32029">
        <ele>131.052524</ele>
        <time>2020-07-28T12:12:33.212Z</time>
      </trkpt>
      <trkpt lat="61.6293" lon="5.32046">
        <ele>130.339712</ele>
        <time>2020-07-28T12:12:34.228Z</time>
      </trkpt>
      <trkpt lat="61.62938" lon="5.32064">
        <ele>129.638366</ele>
        <time>2020-07-28T12:12:35.211Z</time>
      </trkpt>
      <trkpt lat="61.62945" lon="5.32083">
        <ele>128.963549</ele>
        <time>2020-07-28T12:12:36.237Z</time>
      </trkpt>
      <trkpt lat="61.62951" lon="5.32103">
        <ele>128.294681</ele>
        <time>2020-07-28T12:12:37.219Z</time>
      </trkpt>
      <trkpt lat="61.62957" lon="5.32123">
        <ele>127.639889</ele>
        <time>2020-07-28T12:12:38.252Z</time>
      </trkpt>
      <trkpt lat="61.62962" lon="5.32144">
        <ele>126.974307</ele>
        <time>2020-07-28T12:12:39.247Z</time>
      </trkpt>
      <trkpt lat="61.62965" lon="5.32167">
        <ele>126.305355</ele>
        <time>2020-07-28T12:12:40.255Z</time>
      </trkpt>
      <trkpt lat="61.62968" lon="5.3219">
        <ele>125.619416</ele>
        <time>2020-07-28T12:12:41.197Z</time>
      </trkpt>
      <trkpt lat="61.62971" lon="5.32214">
        <ele>124.899931</ele>
        <time>2020-07-28T12:12:42.226Z</time>
      </trkpt>
      <trkpt lat="61.62972" lon="5.32239">
        <ele>124.128457</ele>
        <time>2020-07-28T12:12:43.248Z</time>
      </trkpt>
      <trkpt lat="61.62972" lon="5.32264">
        <ele>123.342763</ele>
        <time>2020-07-28T12:12:44.209Z</time>
      </trkpt>
      <trkpt lat="61.62972" lon="5.3229">
        <ele>122.540764</ele>
        <time>2020-07-28T12:12:45.230Z</time>
      </trkpt>
      <trkpt lat="61.6297" lon="5.32317">
        <ele>121.702336</ele>
        <time>2020-07-28T12:12:46.215Z</time>
      </trkpt>
      <trkpt lat="61.62969" lon="5.32344">
        <ele>120.857697</ele>
        <time>2020-07-28T12:12:47.222Z</time>
      </trkpt>
      <trkpt lat="61.62968" lon="5.32371">
        <ele>119.991065</ele>
        <time>2020-07-28T12:12:48.251Z</time>
      </trkpt>
      <trkpt lat="61.62966" lon="5.32399">
        <ele>119.124433</ele>
        <time>2020-07-28T12:12:49.230Z</time>
      </trkpt>
      <trkpt lat="61.62965" lon="5.32426">
        <ele>118.26786</ele>
        <time>2020-07-28T12:12:50.245Z</time>
      </trkpt>
      <trkpt lat="61.62963" lon="5.32454">
        <ele>117.38412</ele>
        <time>2020-07-28T12:12:51.234Z</time>
      </trkpt>
      <trkpt lat="61.62963" lon="5.32483">
        <ele>116.501827</ele>
        <time>2020-07-28T12:12:52.227Z</time>
      </trkpt>
      <trkpt lat="61.62963" lon="5.32511">
        <ele>115.629105</ele>
        <time>2020-07-28T12:12:53.222Z</time>
      </trkpt>
      <trkpt lat="61.62963" lon="5.32539">
        <ele>114.746813</ele>
        <time>2020-07-28T12:12:54.241Z</time>
      </trkpt>
      <trkpt lat="61.62962" lon="5.32567">
        <ele>113.86318</ele>
        <time>2020-07-28T12:12:55.230Z</time>
      </trkpt>
      <trkpt lat="61.6296" lon="5.32595">
        <ele>113.060192</ele>
        <time>2020-07-28T12:12:56.218Z</time>
      </trkpt>
      <trkpt lat="61.62959" lon="5.32622">
        <ele>112.32336</ele>
        <time>2020-07-28T12:12:57.225Z</time>
      </trkpt>
      <trkpt lat="61.62956" lon="5.3265">
        <ele>111.582464</ele>
        <time>2020-07-28T12:12:58.247Z</time>
      </trkpt>
      <trkpt lat="61.62953" lon="5.32677">
        <ele>110.842025</ele>
        <time>2020-07-28T12:12:59.224Z</time>
      </trkpt>
      <trkpt lat="61.62949" lon="5.32703">
        <ele>110.096186</ele>
        <time>2020-07-28T12:13:00.199Z</time>
      </trkpt>
      <trkpt lat="61.62944" lon="5.32729">
        <ele>109.345541</ele>
        <time>2020-07-28T12:13:01.206Z</time>
      </trkpt>
      <trkpt lat="61.62938" lon="5.32755">
        <ele>108.58585</ele>
        <time>2020-07-28T12:13:02.236Z</time>
      </trkpt>
      <trkpt lat="61.62931" lon="5.3278">
        <ele>107.821118</ele>
        <time>2020-07-28T12:13:03.263Z</time>
      </trkpt>
      <trkpt lat="61.62923" lon="5.32804">
        <ele>107.045593</ele>
        <time>2020-07-28T12:13:04.208Z</time>
      </trkpt>
      <trkpt lat="61.62916" lon="5.32829">
        <ele>106.2803</ele>
        <time>2020-07-28T12:13:05.212Z</time>
      </trkpt>
      <trkpt lat="61.6291" lon="5.32854">
        <ele>105.522804</ele>
        <time>2020-07-28T12:13:06.204Z</time>
      </trkpt>
      <trkpt lat="61.62905" lon="5.32881">
        <ele>104.757715</ele>
        <time>2020-07-28T12:13:07.213Z</time>
      </trkpt>
      <trkpt lat="61.62901" lon="5.32909">
        <ele>103.98383</ele>
        <time>2020-07-28T12:13:08.243Z</time>
      </trkpt>
      <trkpt lat="61.62898" lon="5.32937">
        <ele>103.190635</ele>
        <time>2020-07-28T12:13:09.232Z</time>
      </trkpt>
      <trkpt lat="61.62898" lon="5.32966">
        <ele>102.344826</ele>
        <time>2020-07-28T12:13:10.213Z</time>
      </trkpt>
      <trkpt lat="61.629" lon="5.32994">
        <ele>101.510398</ele>
        <time>2020-07-28T12:13:11.204Z</time>
      </trkpt>
      <trkpt lat="61.62904" lon="5.3302">
        <ele>100.6938</ele>
        <time>2020-07-28T12:13:12.240Z</time>
      </trkpt>
      <trkpt lat="61.6291" lon="5.33046">
        <ele>99.863149</ele>
        <time>2020-07-28T12:13:13.253Z</time>
      </trkpt>
      <trkpt lat="61.62918" lon="5.33069">
        <ele>99.019627</ele>
        <time>2020-07-28T12:13:14.206Z</time>
      </trkpt>
      <trkpt lat="61.62927" lon="5.33089">
        <ele>98.201416</ele>
        <time>2020-07-28T12:13:15.257Z</time>
      </trkpt>
      <trkpt lat="61.62937" lon="5.33106">
        <ele>97.394475</ele>
        <time>2020-07-28T12:13:16.228Z</time>
      </trkpt>
      <trkpt lat="61.62948" lon="5.33121">
        <ele>96.593966</ele>
        <time>2020-07-28T12:13:17.228Z</time>
      </trkpt>
      <trkpt lat="61.62958" lon="5.33135">
        <ele>95.833526</ele>
        <time>2020-07-28T12:13:18.214Z</time>
      </trkpt>
      <trkpt lat="61.62969" lon="5.33149">
        <ele>95.077847</ele>
        <time>2020-07-28T12:13:19.247Z</time>
      </trkpt>
      <trkpt lat="61.62979" lon="5.33162">
        <ele>94.353486</ele>
        <time>2020-07-28T12:13:20.223Z</time>
      </trkpt>
      <trkpt lat="61.62989" lon="5.33174">
        <ele>93.635615</ele>
        <time>2020-07-28T12:13:21.225Z</time>
      </trkpt>
      <trkpt lat="61.62999" lon="5.33186">
        <ele>92.932442</ele>
        <time>2020-07-28T12:13:22.224Z</time>
      </trkpt>
      <trkpt lat="61.63008" lon="5.33198">
        <ele>92.239149</ele>
        <time>2020-07-28T12:13:23.222Z</time>
      </trkpt>
      <trkpt lat="61.63017" lon="5.33211">
        <ele>91.571528</ele>
        <time>2020-07-28T12:13:24.228Z</time>
      </trkpt>
      <trkpt lat="61.63026" lon="5.33223">
        <ele>90.912792</ele>
        <time>2020-07-28T12:13:25.225Z</time>
      </trkpt>
      <trkpt lat="61.63034" lon="5.33236">
        <ele>90.278965</ele>
        <time>2020-07-28T12:13:26.210Z</time>
      </trkpt>
      <trkpt lat="61.63042" lon="5.3325">
        <ele>89.645286</ele>
        <time>2020-07-28T12:13:27.230Z</time>
      </trkpt>
      <trkpt lat="61.6305" lon="5.33265">
        <ele>88.996595</ele>
        <time>2020-07-28T12:13:28.256Z</time>
      </trkpt>
      <trkpt lat="61.63058" lon="5.33279">
        <ele>88.354438</ele>
        <time>2020-07-28T12:13:29.222Z</time>
      </trkpt>
      <trkpt lat="61.63066" lon="5.33295">
        <ele>87.699248</ele>
        <time>2020-07-28T12:13:30.212Z</time>
      </trkpt>
      <trkpt lat="61.63074" lon="5.3331">
        <ele>87.054498</ele>
        <time>2020-07-28T12:13:31.228Z</time>
      </trkpt>
      <trkpt lat="61.63082" lon="5.33324">
        <ele>86.391816</ele>
        <time>2020-07-28T12:13:32.218Z</time>
      </trkpt>
      <trkpt lat="61.63091" lon="5.33336">
        <ele>85.730839</ele>
        <time>2020-07-28T12:13:33.217Z</time>
      </trkpt>
      <trkpt lat="61.631" lon="5.33347">
        <ele>85.080134</ele>
        <time>2020-07-28T12:13:34.225Z</time>
      </trkpt>
      <trkpt lat="61.6311" lon="5.33357">
        <ele>84.410378</ele>
        <time>2020-07-28T12:13:35.222Z</time>
      </trkpt>
      <trkpt lat="61.63121" lon="5.33365">
        <ele>83.745082</ele>
        <time>2020-07-28T12:13:36.236Z</time>
      </trkpt>
      <trkpt lat="61.63131" lon="5.33372">
        <ele>83.070341</ele>
        <time>2020-07-28T12:13:37.221Z</time>
      </trkpt>
      <trkpt lat="61.63142" lon="5.33378">
        <ele>82.388937</ele>
        <time>2020-07-28T12:13:38.212Z</time>
      </trkpt>
      <trkpt lat="61.63152" lon="5.33382">
        <ele>81.737299</ele>
        <time>2020-07-28T12:13:39.219Z</time>
      </trkpt>
      <trkpt lat="61.63162" lon="5.33387">
        <ele>81.083268</ele>
        <time>2020-07-28T12:13:40.232Z</time>
      </trkpt>
      <trkpt lat="61.63173" lon="5.33392">
        <ele>80.335376</ele>
        <time>2020-07-28T12:13:41.223Z</time>
      </trkpt>
      <trkpt lat="61.63183" lon="5.33397">
        <ele>79.585153</ele>
        <time>2020-07-28T12:13:42.213Z</time>
      </trkpt>
      <trkpt lat="61.63194" lon="5.33403">
        <ele>78.818762</ele>
        <time>2020-07-28T12:13:43.250Z</time>
      </trkpt>
      <trkpt lat="61.63204" lon="5.33408">
        <ele>78.051539</ele>
        <time>2020-07-28T12:13:44.221Z</time>
      </trkpt>
      <trkpt lat="61.63215" lon="5.33414">
        <ele>77.264556</ele>
        <time>2020-07-28T12:13:45.249Z</time>
      </trkpt>
      <trkpt lat="61.63225" lon="5.33419">
        <ele>76.50058</ele>
        <time>2020-07-28T12:13:46.235Z</time>
      </trkpt>
      <trkpt lat="61.63236" lon="5.33425">
        <ele>75.741046</ele>
        <time>2020-07-28T12:13:47.252Z</time>
      </trkpt>
      <trkpt lat="61.63246" lon="5.33431">
        <ele>74.987518</ele>
        <time>2020-07-28T12:13:48.208Z</time>
      </trkpt>
      <trkpt lat="61.63256" lon="5.33436">
        <ele>74.259509</ele>
        <time>2020-07-28T12:13:49.219Z</time>
      </trkpt>
      <trkpt lat="61.63266" lon="5.33441">
        <ele>73.54683</ele>
        <time>2020-07-28T12:13:50.236Z</time>
      </trkpt>
      <trkpt lat="61.63275" lon="5.33446">
        <ele>72.845466</ele>
        <time>2020-07-28T12:13:51.226Z</time>
      </trkpt>
      <trkpt lat="61.63285" lon="5.33451">
        <ele>72.144101</ele>
        <time>2020-07-28T12:13:52.223Z</time>
      </trkpt>
      <trkpt lat="61.63295" lon="5.33456">
        <ele>71.441892</ele>
        <time>2020-07-28T12:13:53.208Z</time>
      </trkpt>
      <trkpt lat="61.63304" lon="5.33462">
        <ele>70.747378</ele>
        <time>2020-07-28T12:13:54.218Z</time>
      </trkpt>
      <trkpt lat="61.63313" lon="5.33467">
        <ele>70.064792</ele>
        <time>2020-07-28T12:13:55.242Z</time>
      </trkpt>
      <trkpt lat="61.63323" lon="5.33472">
        <ele>69.389025</ele>
        <time>2020-07-28T12:13:56.224Z</time>
      </trkpt>
      <trkpt lat="61.63332" lon="5.33478">
        <ele>68.708197</ele>
        <time>2020-07-28T12:13:57.243Z</time>
      </trkpt>
      <trkpt lat="61.63341" lon="5.33483">
        <ele>68.03249</ele>
        <time>2020-07-28T12:13:58.256Z</time>
      </trkpt>
      <trkpt lat="61.6335" lon="5.33488">
        <ele>67.359155</ele>
        <time>2020-07-28T12:13:59.231Z</time>
      </trkpt>
      <trkpt lat="61.63359" lon="5.33493">
        <ele>66.693595</ele>
        <time>2020-07-28T12:14:00.216Z</time>
      </trkpt>
      <trkpt lat="61.63368" lon="5.33498">
        <ele>66.029796</ele>
        <time>2020-07-28T12:14:01.240Z</time>
      </trkpt>
      <trkpt lat="61.63377" lon="5.33503">
        <ele>65.380653</ele>
        <time>2020-07-28T12:14:02.230Z</time>
      </trkpt>
      <trkpt lat="61.63386" lon="5.33508">
        <ele>64.722865</ele>
        <time>2020-07-28T12:14:03.221Z</time>
      </trkpt>
      <trkpt lat="61.63395" lon="5.33513">
        <ele>64.06596</ele>
        <time>2020-07-28T12:14:04.261Z</time>
      </trkpt>
      <trkpt lat="61.63412" lon="5.33522">
        <ele>62.82026</ele>
        <time>2020-07-28T12:14:06.225Z</time>
      </trkpt>
      <trkpt lat="61.63428" lon="5.33531">
        <ele>61.610458</ele>
        <time>2020-07-28T12:14:08.264Z</time>
      </trkpt>
      <trkpt lat="61.63443" lon="5.33535">
        <ele>60.556663</ele>
        <time>2020-07-28T12:14:10.227Z</time>
      </trkpt>
      <trkpt lat="61.63459" lon="5.33536">
        <ele>59.429871</ele>
        <time>2020-07-28T12:14:12.249Z</time>
      </trkpt>
      <trkpt lat="61.63475" lon="5.33531">
        <ele>58.264582</ele>
        <time>2020-07-28T12:14:14.220Z</time>
      </trkpt>
      <trkpt lat="61.63492" lon="5.33519">
        <ele>56.999456</ele>
        <time>2020-07-28T12:14:16.218Z</time>
      </trkpt>
      <trkpt lat="61.635" lon="5.3351">
        <ele>56.355744</ele>
        <time>2020-07-28T12:14:17.206Z</time>
      </trkpt>
      <trkpt lat="61.63507" lon="5.33499">
        <ele>55.707446</ele>
        <time>2020-07-28T12:14:18.203Z</time>
      </trkpt>
      <trkpt lat="61.63514" lon="5.33487">
        <ele>55.999507</ele>
        <time>2020-07-28T12:14:19.228Z</time>
      </trkpt>
      <trkpt lat="61.63521" lon="5.33472">
        <ele>56.404321</ele>
        <time>2020-07-28T12:14:20.214Z</time>
      </trkpt>
      <trkpt lat="61.63527" lon="5.33458">
        <ele>56.803551</ele>
        <time>2020-07-28T12:14:21.228Z</time>
      </trkpt>
      <trkpt lat="61.63537" lon="5.33427">
        <ele>57.565887</ele>
        <time>2020-07-28T12:14:23.217Z</time>
      </trkpt>
      <trkpt lat="61.63545" lon="5.33397">
        <ele>58.278164</ele>
        <time>2020-07-28T12:14:25.251Z</time>
      </trkpt>
      <trkpt lat="61.63553" lon="5.33369">
        <ele>58.928528</ele>
        <time>2020-07-28T12:14:27.204Z</time>
      </trkpt>
      <trkpt lat="61.63559" lon="5.33346">
        <ele>59.480901</ele>
        <time>2020-07-28T12:14:29.227Z</time>
      </trkpt>
      <trkpt lat="61.63566" lon="5.33325">
        <ele>59.988365</ele>
        <time>2020-07-28T12:14:31.208Z</time>
      </trkpt>
      <trkpt lat="61.63572" lon="5.33309">
        <ele>60.422477</ele>
        <time>2020-07-28T12:14:33.218Z</time>
      </trkpt>
      <trkpt lat="61.63581" lon="5.3329">
        <ele>60.954917</ele>
        <time>2020-07-28T12:14:36.220Z</time>
      </trkpt>
      <trkpt lat="61.63588" lon="5.33278">
        <ele>61.344897</ele>
        <time>2020-07-28T12:14:39.232Z</time>
      </trkpt>
      <trkpt lat="61.63595" lon="5.33266">
        <ele>61.768215</ele>
        <time>2020-07-28T12:14:43.211Z</time>
      </trkpt>
      <trkpt lat="61.63603" lon="5.33253">
        <ele>62.172085</ele>
        <time>2020-07-28T12:14:50.213Z</time>
      </trkpt>
      <trkpt lat="61.63611" lon="5.33244">
        <ele>62.58459</ele>
        <time>2020-07-28T12:14:56.259Z</time>
      </trkpt>
      <trkpt lat="61.63619" lon="5.33234">
        <ele>62.986833</ele>
        <time>2020-07-28T12:15:02.212Z</time>
      </trkpt>
      <trkpt lat="61.63628" lon="5.33225">
        <ele>63.477078</ele>
        <time>2020-07-28T12:15:07.208Z</time>
      </trkpt>
      <trkpt lat="61.63637" lon="5.33214">
        <ele>64.698169</ele>
        <time>2020-07-28T12:15:14.218Z</time>
      </trkpt>
      <trkpt lat="61.63646" lon="5.33206">
        <ele>65.822169</ele>
        <time>2020-07-28T12:15:20.214Z</time>
      </trkpt>
      <trkpt lat="61.63654" lon="5.33196">
        <ele>67.016752</ele>
        <time>2020-07-28T12:15:27.227Z</time>
      </trkpt>
      <trkpt lat="61.63662" lon="5.33186">
        <ele>68.12256</ele>
        <time>2020-07-28T12:15:35.223Z</time>
      </trkpt>
      <trkpt lat="61.63671" lon="5.33175">
        <ele>69.348866</ele>
        <time>2020-07-28T12:15:42.216Z</time>
      </trkpt>
      <trkpt lat="61.63679" lon="5.33164">
        <ele>70.472675</ele>
        <time>2020-07-28T12:15:49.225Z</time>
      </trkpt>
      <trkpt lat="61.63687" lon="5.33152">
        <ele>71.637979</ele>
        <time>2020-07-28T12:15:56.203Z</time>
      </trkpt>
      <trkpt lat="61.63694" lon="5.3314">
        <ele>72.785512</ele>
        <time>2020-07-28T12:16:03.244Z</time>
      </trkpt>
      <trkpt lat="61.63701" lon="5.33126">
        <ele>73.892944</ele>
        <time>2020-07-28T12:16:10.239Z</time>
      </trkpt>
      <trkpt lat="61.63708" lon="5.33113">
        <ele>74.984962</ele>
        <time>2020-07-28T12:16:16.209Z</time>
      </trkpt>
      <trkpt lat="61.63715" lon="5.33101">
        <ele>76.138421</ele>
        <time>2020-07-28T12:16:22.229Z</time>
      </trkpt>
      <trkpt lat="61.63722" lon="5.33088">
        <ele>77.273408</ele>
        <time>2020-07-28T12:16:28.226Z</time>
      </trkpt>
      <trkpt lat="61.63729" lon="5.33073">
        <ele>78.434937</ele>
        <time>2020-07-28T12:16:35.238Z</time>
      </trkpt>
      <trkpt lat="61.63735" lon="5.33055">
        <ele>79.669666</ele>
        <time>2020-07-28T12:16:42.205Z</time>
      </trkpt>
      <trkpt lat="61.6374" lon="5.33039">
        <ele>80.797424</ele>
        <time>2020-07-28T12:16:49.210Z</time>
      </trkpt>
      <trkpt lat="61.63746" lon="5.33021">
        <ele>82.013917</ele>
        <time>2020-07-28T12:16:57.231Z</time>
      </trkpt>
      <trkpt lat="61.63753" lon="5.33007">
        <ele>83.175442</ele>
        <time>2020-07-28T12:17:04.218Z</time>
      </trkpt>
      <trkpt lat="61.63758" lon="5.32989">
        <ele>84.362916</ele>
        <time>2020-07-28T12:17:11.208Z</time>
      </trkpt>
      <trkpt lat="61.63763" lon="5.32969">
        <ele>85.390796</ele>
        <time>2020-07-28T12:17:18.250Z</time>
      </trkpt>
      <trkpt lat="61.63767" lon="5.3295">
        <ele>86.199638</ele>
        <time>2020-07-28T12:17:25.228Z</time>
      </trkpt>
      <trkpt lat="61.63772" lon="5.32933">
        <ele>86.947598</ele>
        <time>2020-07-28T12:17:32.212Z</time>
      </trkpt>
      <trkpt lat="61.63775" lon="5.32915">
        <ele>87.694126</ele>
        <time>2020-07-28T12:17:40.254Z</time>
      </trkpt>
      <trkpt lat="61.63776" lon="5.32895">
        <ele>88.421957</ele>
        <time>2020-07-28T12:17:47.219Z</time>
      </trkpt>
      <trkpt lat="61.63778" lon="5.32876">
        <ele>89.177307</ele>
        <time>2020-07-28T12:17:54.228Z</time>
      </trkpt>
      <trkpt lat="61.63781" lon="5.32856">
        <ele>89.959137</ele>
        <time>2020-07-28T12:18:01.223Z</time>
      </trkpt>
      <trkpt lat="61.63782" lon="5.32835">
        <ele>90.748158</ele>
        <time>2020-07-28T12:18:09.244Z</time>
      </trkpt>
      <trkpt lat="61.63783" lon="5.32816">
        <ele>91.468318</ele>
        <time>2020-07-28T12:18:16.254Z</time>
      </trkpt>
      <trkpt lat="61.63785" lon="5.32798">
        <ele>92.190548</ele>
        <time>2020-07-28T12:18:23.231Z</time>
      </trkpt>
      <trkpt lat="61.63789" lon="5.32778">
        <ele>92.977358</ele>
        <time>2020-07-28T12:18:30.227Z</time>
      </trkpt>
      <trkpt lat="61.63791" lon="5.32758">
        <ele>93.786053</ele>
        <time>2020-07-28T12:18:38.224Z</time>
      </trkpt>
      <trkpt lat="61.63793" lon="5.32737">
        <ele>94.590809</ele>
        <time>2020-07-28T12:18:46.208Z</time>
      </trkpt>
      <trkpt lat="61.63794" lon="5.32717">
        <ele>95.341113</ele>
        <time>2020-07-28T12:18:53.208Z</time>
      </trkpt>
      <trkpt lat="61.63795" lon="5.32697">
        <ele>96.088727</ele>
        <time>2020-07-28T12:19:00.214Z</time>
      </trkpt>
      <trkpt lat="61.63796" lon="5.32678">
        <ele>96.823714</ele>
        <time>2020-07-28T12:19:07.239Z</time>
      </trkpt>
      <trkpt lat="61.63798" lon="5.32659">
        <ele>97.557812</ele>
        <time>2020-07-28T12:19:13.252Z</time>
      </trkpt>
      <trkpt lat="61.638" lon="5.32637">
        <ele>98.397667</ele>
        <time>2020-07-28T12:19:20.220Z</time>
      </trkpt>
      <trkpt lat="61.63803" lon="5.32618">
        <ele>99.142456</ele>
        <time>2020-07-28T12:19:26.229Z</time>
      </trkpt>
      <trkpt lat="61.63807" lon="5.32599">
        <ele>99.692206</ele>
        <time>2020-07-28T12:19:33.211Z</time>
      </trkpt>
      <trkpt lat="61.63811" lon="5.32581">
        <ele>100.167174</ele>
        <time>2020-07-28T12:19:39.218Z</time>
      </trkpt>
      <trkpt lat="61.63815" lon="5.32562">
        <ele>100.681455</ele>
        <time>2020-07-28T12:19:45.214Z</time>
      </trkpt>
      <trkpt lat="61.63821" lon="5.32546">
        <ele>101.172542</ele>
        <time>2020-07-28T12:19:51.208Z</time>
      </trkpt>
      <trkpt lat="61.63827" lon="5.32531">
        <ele>101.641592</ele>
        <time>2020-07-28T12:19:58.236Z</time>
      </trkpt>
      <trkpt lat="61.63834" lon="5.32517">
        <ele>102.154214</ele>
        <time>2020-07-28T12:20:04.214Z</time>
      </trkpt>
      <trkpt lat="61.63841" lon="5.32502">
        <ele>102.661615</ele>
        <time>2020-07-28T12:20:11.228Z</time>
      </trkpt>
      <trkpt lat="61.63849" lon="5.32491">
        <ele>103.148739</ele>
        <time>2020-07-28T12:20:18.204Z</time>
      </trkpt>
      <trkpt lat="61.63857" lon="5.32479">
        <ele>103.627249</ele>
        <time>2020-07-28T12:20:25.232Z</time>
      </trkpt>
      <trkpt lat="61.63866" lon="5.32472">
        <ele>104.133776</ele>
        <time>2020-07-28T12:20:32.223Z</time>
      </trkpt>
      <trkpt lat="61.63876" lon="5.32465">
        <ele>104.646093</ele>
        <time>2020-07-28T12:20:39.213Z</time>
      </trkpt>
      <trkpt lat="61.63885" lon="5.32462">
        <ele>105.130071</ele>
        <time>2020-07-28T12:20:46.269Z</time>
      </trkpt>
      <trkpt lat="61.63894" lon="5.32459">
        <ele>105.612787</ele>
        <time>2020-07-28T12:20:54.211Z</time>
      </trkpt>
      <trkpt lat="61.63904" lon="5.3246">
        <ele>106.092292</ele>
        <time>2020-07-28T12:21:00.236Z</time>
      </trkpt>
      <trkpt lat="61.63914" lon="5.32461">
        <ele>106.591982</ele>
        <time>2020-07-28T12:21:08.231Z</time>
      </trkpt>
      <trkpt lat="61.63924" lon="5.32461">
        <ele>107.132557</ele>
        <time>2020-07-28T12:21:15.207Z</time>
      </trkpt>
      <trkpt lat="61.63934" lon="5.32465">
        <ele>107.631927</ele>
        <time>2020-07-28T12:21:22.221Z</time>
      </trkpt>
      <trkpt lat="61.63942" lon="5.32474">
        <ele>108.104603</ele>
        <time>2020-07-28T12:21:29.209Z</time>
      </trkpt>
      <trkpt lat="61.63951" lon="5.32484">
        <ele>108.753073</ele>
        <time>2020-07-28T12:21:36.225Z</time>
      </trkpt>
      <trkpt lat="61.63959" lon="5.32498">
        <ele>109.583984</ele>
        <time>2020-07-28T12:21:43.227Z</time>
      </trkpt>
      <trkpt lat="61.63966" lon="5.32513">
        <ele>110.331718</ele>
        <time>2020-07-28T12:21:49.211Z</time>
      </trkpt>
      <trkpt lat="61.63973" lon="5.32526">
        <ele>111.079305</ele>
        <time>2020-07-28T12:21:55.222Z</time>
      </trkpt>
      <trkpt lat="61.63978" lon="5.32542">
        <ele>111.804957</ele>
        <time>2020-07-28T12:22:02.215Z</time>
      </trkpt>
      <trkpt lat="61.63983" lon="5.32558">
        <ele>112.519976</ele>
        <time>2020-07-28T12:22:08.211Z</time>
      </trkpt>
      <trkpt lat="61.63987" lon="5.32575">
        <ele>113.229527</ele>
        <time>2020-07-28T12:22:14.219Z</time>
      </trkpt>
      <trkpt lat="61.6399" lon="5.32595">
        <ele>114.028527</ele>
        <time>2020-07-28T12:22:21.236Z</time>
      </trkpt>
      <trkpt lat="61.63992" lon="5.32615">
        <ele>114.794684</ele>
        <time>2020-07-28T12:22:29.242Z</time>
      </trkpt>
      <trkpt lat="61.63994" lon="5.32636">
        <ele>115.580898</ele>
        <time>2020-07-28T12:22:38.248Z</time>
      </trkpt>
      <trkpt lat="61.63995" lon="5.32658">
        <ele>116.430705</ele>
        <time>2020-07-28T12:22:45.218Z</time>
      </trkpt>
      <trkpt lat="61.63998" lon="5.32679">
        <ele>117.247168</ele>
        <time>2020-07-28T12:22:51.251Z</time>
      </trkpt>
      <trkpt lat="61.64002" lon="5.32697">
        <ele>117.98922</ele>
        <time>2020-07-28T12:22:58.265Z</time>
      </trkpt>
      <trkpt lat="61.64006" lon="5.32715">
        <ele>118.720913</ele>
        <time>2020-07-28T12:23:05.230Z</time>
      </trkpt>
      <trkpt lat="61.64009" lon="5.32733">
        <ele>119.452989</ele>
        <time>2020-07-28T12:23:11.246Z</time>
      </trkpt>
      <trkpt lat="61.64011" lon="5.32754">
        <ele>120.264799</ele>
        <time>2020-07-28T12:23:18.225Z</time>
      </trkpt>
      <trkpt lat="61.64015" lon="5.32774">
        <ele>121.06472</ele>
        <time>2020-07-28T12:23:25.229Z</time>
      </trkpt>
      <trkpt lat="61.64019" lon="5.32792">
        <ele>121.833747</ele>
        <time>2020-07-28T12:23:32.220Z</time>
      </trkpt>
      <trkpt lat="61.64024" lon="5.32812">
        <ele>122.644064</ele>
        <time>2020-07-28T12:23:40.221Z</time>
      </trkpt>
      <trkpt lat="61.64029" lon="5.32827">
        <ele>123.409657</ele>
        <time>2020-07-28T12:23:46.233Z</time>
      </trkpt>
      <trkpt lat="61.64036" lon="5.32842">
        <ele>124.222679</ele>
        <time>2020-07-28T12:23:52.241Z</time>
      </trkpt>
      <trkpt lat="61.64042" lon="5.32858">
        <ele>125.070477</ele>
        <time>2020-07-28T12:23:58.226Z</time>
      </trkpt>
      <trkpt lat="61.64049" lon="5.32875">
        <ele>125.925085</ele>
        <time>2020-07-28T12:24:05.219Z</time>
      </trkpt>
      <trkpt lat="61.64056" lon="5.3289">
        <ele>126.769899</ele>
        <time>2020-07-28T12:24:12.220Z</time>
      </trkpt>
      <trkpt lat="61.64063" lon="5.32903">
        <ele>127.539782</ele>
        <time>2020-07-28T12:24:18.241Z</time>
      </trkpt>
      <trkpt lat="61.6407" lon="5.32916">
        <ele>128.369917</ele>
        <time>2020-07-28T12:24:24.213Z</time>
      </trkpt>
      <trkpt lat="61.64078" lon="5.3293">
        <ele>129.199407</ele>
        <time>2020-07-28T12:24:30.223Z</time>
      </trkpt>
      <trkpt lat="61.64087" lon="5.32941">
        <ele>130.063192</ele>
        <time>2020-07-28T12:24:36.228Z</time>
      </trkpt>
      <trkpt lat="61.64093" lon="5.32954">
        <ele>130.831274</ele>
        <time>2020-07-28T12:24:41.207Z</time>
      </trkpt>
      <trkpt lat="61.64102" lon="5.32967">
        <ele>131.718287</ele>
        <time>2020-07-28T12:24:47.215Z</time>
      </trkpt>
      <trkpt lat="61.6411" lon="5.32978">
        <ele>132.525076</ele>
        <time>2020-07-28T12:24:53.226Z</time>
      </trkpt>
      <trkpt lat="61.64119" lon="5.32983">
        <ele>133.298841</ele>
        <time>2020-07-28T12:24:57.211Z</time>
      </trkpt>
      <trkpt lat="61.64126" lon="5.32995">
        <ele>134.05461</ele>
        <time>2020-07-28T12:25:02.213Z</time>
      </trkpt>
      <trkpt lat="61.64135" lon="5.33003">
        <ele>134.918601</ele>
        <time>2020-07-28T12:25:08.214Z</time>
      </trkpt>
      <trkpt lat="61.64144" lon="5.33011">
        <ele>135.702067</ele>
        <time>2020-07-28T12:25:13.213Z</time>
      </trkpt>
      <trkpt lat="61.64154" lon="5.33018">
        <ele>136.598426</ele>
        <time>2020-07-28T12:25:18.214Z</time>
      </trkpt>
      <trkpt lat="61.64163" lon="5.33022">
        <ele>137.396574</ele>
        <time>2020-07-28T12:25:22.223Z</time>
      </trkpt>
      <trkpt lat="61.64174" lon="5.33025">
        <ele>137.549509</ele>
        <time>2020-07-28T12:25:26.223Z</time>
      </trkpt>
      <trkpt lat="61.64183" lon="5.33027">
        <ele>137.268766</ele>
        <time>2020-07-28T12:25:30.227Z</time>
      </trkpt>
      <trkpt lat="61.64194" lon="5.33025">
        <ele>136.931604</ele>
        <time>2020-07-28T12:25:34.205Z</time>
      </trkpt>
      <trkpt lat="61.64205" lon="5.33023">
        <ele>136.586782</ele>
        <time>2020-07-28T12:25:38.225Z</time>
      </trkpt>
      <trkpt lat="61.64215" lon="5.33021">
        <ele>136.297927</ele>
        <time>2020-07-28T12:25:41.209Z</time>
      </trkpt>
      <trkpt lat="61.64224" lon="5.33018">
        <ele>135.999769</ele>
        <time>2020-07-28T12:25:44.215Z</time>
      </trkpt>
      <trkpt lat="61.64234" lon="5.33015">
        <ele>135.714496</ele>
        <time>2020-07-28T12:25:47.218Z</time>
      </trkpt>
      <trkpt lat="61.64242" lon="5.33008">
        <ele>135.433116</ele>
        <time>2020-07-28T12:25:50.241Z</time>
      </trkpt>
      <trkpt lat="61.64252" lon="5.32997">
        <ele>135.112048</ele>
        <time>2020-07-28T12:25:53.213Z</time>
      </trkpt>
      <trkpt lat="61.64262" lon="5.32982">
        <ele>134.735627</ele>
        <time>2020-07-28T12:25:56.229Z</time>
      </trkpt>
      <trkpt lat="61.64273" lon="5.32965">
        <ele>134.3228</ele>
        <time>2020-07-28T12:25:59.219Z</time>
      </trkpt>
      <trkpt lat="61.6428" lon="5.32952">
        <ele>134.02455</ele>
        <time>2020-07-28T12:26:01.266Z</time>
      </trkpt>
      <trkpt lat="61.64288" lon="5.32937">
        <ele>133.718269</ele>
        <time>2020-07-28T12:26:03.231Z</time>
      </trkpt>
      <trkpt lat="61.64297" lon="5.32921">
        <ele>133.345776</ele>
        <time>2020-07-28T12:26:05.224Z</time>
      </trkpt>
      <trkpt lat="61.64306" lon="5.32902">
        <ele>132.957042</ele>
        <time>2020-07-28T12:26:07.213Z</time>
      </trkpt>
      <trkpt lat="61.64317" lon="5.3288">
        <ele>132.51433</ele>
        <time>2020-07-28T12:26:09.226Z</time>
      </trkpt>
      <trkpt lat="61.64326" lon="5.32854">
        <ele>131.903962</ele>
        <time>2020-07-28T12:26:11.211Z</time>
      </trkpt>
      <trkpt lat="61.64335" lon="5.32826">
        <ele>131.138465</ele>
        <time>2020-07-28T12:26:13.213Z</time>
      </trkpt>
      <trkpt lat="61.64344" lon="5.32794">
        <ele>130.326188</ele>
        <time>2020-07-28T12:26:15.248Z</time>
      </trkpt>
      <trkpt lat="61.64352" lon="5.32761">
        <ele>129.494337</ele>
        <time>2020-07-28T12:26:17.235Z</time>
      </trkpt>
      <trkpt lat="61.64359" lon="5.32727">
        <ele>128.663269</ele>
        <time>2020-07-28T12:26:19.209Z</time>
      </trkpt>
      <trkpt lat="61.64361" lon="5.32709">
        <ele>128.239934</ele>
        <time>2020-07-28T12:26:20.231Z</time>
      </trkpt>
      <trkpt lat="61.64363" lon="5.3269">
        <ele>127.814919</ele>
        <time>2020-07-28T12:26:21.222Z</time>
      </trkpt>
      <trkpt lat="61.64365" lon="5.32671">
        <ele>127.383382</ele>
        <time>2020-07-28T12:26:22.218Z</time>
      </trkpt>
      <trkpt lat="61.64367" lon="5.32652">
        <ele>126.955762</ele>
        <time>2020-07-28T12:26:23.213Z</time>
      </trkpt>
      <trkpt lat="61.64369" lon="5.32615">
        <ele>126.115314</ele>
        <time>2020-07-28T12:26:25.233Z</time>
      </trkpt>
      <trkpt lat="61.64369" lon="5.3258">
        <ele>125.328791</ele>
        <time>2020-07-28T12:26:27.213Z</time>
      </trkpt>
      <trkpt lat="61.64369" lon="5.32547">
        <ele>124.595758</ele>
        <time>2020-07-28T12:26:29.246Z</time>
      </trkpt>
      <trkpt lat="61.64369" lon="5.32516">
        <ele>123.891344</ele>
        <time>2020-07-28T12:26:31.269Z</time>
      </trkpt>
      <trkpt lat="61.64367" lon="5.32487">
        <ele>124.259214</ele>
        <time>2020-07-28T12:26:33.216Z</time>
      </trkpt>
      <trkpt lat="61.64366" lon="5.32461">
        <ele>124.697845</ele>
        <time>2020-07-28T12:26:35.205Z</time>
      </trkpt>
      <trkpt lat="61.64364" lon="5.32438">
        <ele>125.098229</ele>
        <time>2020-07-28T12:26:37.227Z</time>
      </trkpt>
      <trkpt lat="61.64362" lon="5.32418">
        <ele>125.444842</ele>
        <time>2020-07-28T12:26:39.272Z</time>
      </trkpt>
      <trkpt lat="61.6436" lon="5.32392">
        <ele>125.881487</ele>
        <time>2020-07-28T12:26:42.243Z</time>
      </trkpt>
      <trkpt lat="61.64357" lon="5.32371">
        <ele>126.256073</ele>
        <time>2020-07-28T12:26:45.210Z</time>
      </trkpt>
      <trkpt lat="61.64356" lon="5.3235">
        <ele>126.610908</ele>
        <time>2020-07-28T12:26:48.213Z</time>
      </trkpt>
      <trkpt lat="61.64352" lon="5.3233">
        <ele>126.957556</ele>
        <time>2020-07-28T12:26:51.226Z</time>
      </trkpt>
      <trkpt lat="61.64349" lon="5.32312">
        <ele>127.296322</ele>
        <time>2020-07-28T12:26:54.227Z</time>
      </trkpt>
      <trkpt lat="61.64347" lon="5.32293">
        <ele>127.620227</ele>
        <time>2020-07-28T12:26:57.236Z</time>
      </trkpt>
      <trkpt lat="61.64344" lon="5.3227">
        <ele>128.020964</ele>
        <time>2020-07-28T12:27:01.227Z</time>
      </trkpt>
      <trkpt lat="61.64341" lon="5.32249">
        <ele>128.393141</ele>
        <time>2020-07-28T12:27:05.216Z</time>
      </trkpt>
      <trkpt lat="61.64338" lon="5.32226">
        <ele>128.78146</ele>
        <time>2020-07-28T12:27:09.233Z</time>
      </trkpt>
      <trkpt lat="61.64335" lon="5.32205">
        <ele>129.161449</ele>
        <time>2020-07-28T12:27:13.225Z</time>
      </trkpt>
      <trkpt lat="61.64332" lon="5.32186">
        <ele>129.498067</ele>
        <time>2020-07-28T12:27:17.224Z</time>
      </trkpt>
      <trkpt lat="61.6433" lon="5.32163">
        <ele>129.889864</ele>
        <time>2020-07-28T12:27:22.233Z</time>
      </trkpt>
      <trkpt lat="61.64328" lon="5.32141">
        <ele>130.329194</ele>
        <time>2020-07-28T12:27:27.223Z</time>
      </trkpt>
      <trkpt lat="61.64327" lon="5.32118">
        <ele>131.009904</ele>
        <time>2020-07-28T12:27:32.253Z</time>
      </trkpt>
      <trkpt lat="61.64325" lon="5.32099">
        <ele>131.572023</ele>
        <time>2020-07-28T12:27:36.245Z</time>
      </trkpt>
      <trkpt lat="61.64322" lon="5.3208">
        <ele>132.163824</ele>
        <time>2020-07-28T12:27:40.219Z</time>
      </trkpt>
      <trkpt lat="61.64319" lon="5.32062">
        <ele>132.743255</ele>
        <time>2020-07-28T12:27:44.226Z</time>
      </trkpt>
      <trkpt lat="61.64317" lon="5.32043">
        <ele>133.316156</ele>
        <time>2020-07-28T12:27:48.213Z</time>
      </trkpt>
      <trkpt lat="61.64315" lon="5.32024">
        <ele>133.887583</ele>
        <time>2020-07-28T12:27:52.228Z</time>
      </trkpt>
      <trkpt lat="61.64313" lon="5.32006">
        <ele>134.462022</ele>
        <time>2020-07-28T12:27:56.215Z</time>
      </trkpt>
      <trkpt lat="61.6431" lon="5.31983">
        <ele>135.139085</ele>
        <time>2020-07-28T12:28:01.223Z</time>
      </trkpt>
      <trkpt lat="61.64308" lon="5.31962">
        <ele>135.796432</ele>
        <time>2020-07-28T12:28:06.215Z</time>
      </trkpt>
      <trkpt lat="61.64305" lon="5.31943">
        <ele>136.385183</ele>
        <time>2020-07-28T12:28:10.243Z</time>
      </trkpt>
      <trkpt lat="61.64303" lon="5.31923">
        <ele>136.989982</ele>
        <time>2020-07-28T12:28:14.234Z</time>
      </trkpt>
      <trkpt lat="61.64301" lon="5.31903">
        <ele>137.594782</ele>
        <time>2020-07-28T12:28:18.219Z</time>
      </trkpt>
      <trkpt lat="61.64299" lon="5.31882">
        <ele>138.257971</ele>
        <time>2020-07-28T12:28:23.223Z</time>
      </trkpt>
      <trkpt lat="61.64296" lon="5.31863">
        <ele>138.847738</ele>
        <time>2020-07-28T12:28:27.227Z</time>
      </trkpt>
      <trkpt lat="61.64293" lon="5.31843">
        <ele>139.463908</ele>
        <time>2020-07-28T12:28:31.211Z</time>
      </trkpt>
      <trkpt lat="61.64291" lon="5.31823">
        <ele>140.064298</ele>
        <time>2020-07-28T12:28:35.208Z</time>
      </trkpt>
      <trkpt lat="61.64288" lon="5.31802">
        <ele>140.724062</ele>
        <time>2020-07-28T12:28:40.246Z</time>
      </trkpt>
      <trkpt lat="61.64286" lon="5.31779">
        <ele>141.393796</ele>
        <time>2020-07-28T12:28:45.246Z</time>
      </trkpt>
      <trkpt lat="61.64284" lon="5.3176">
        <ele>141.496009</ele>
        <time>2020-07-28T12:28:49.207Z</time>
      </trkpt>
      <trkpt lat="61.64283" lon="5.3174">
        <ele>141.530796</ele>
        <time>2020-07-28T12:28:53.240Z</time>
      </trkpt>
      <trkpt lat="61.6428" lon="5.31719">
        <ele>141.567915</ele>
        <time>2020-07-28T12:28:57.236Z</time>
      </trkpt>
      <trkpt lat="61.64279" lon="5.31698">
        <ele>141.604218</ele>
        <time>2020-07-28T12:29:01.230Z</time>
      </trkpt>
      <trkpt lat="61.64276" lon="5.31677">
        <ele>141.640671</ele>
        <time>2020-07-28T12:29:05.229Z</time>
      </trkpt>
      <trkpt lat="61.64274" lon="5.31656">
        <ele>141.677544</ele>
        <time>2020-07-28T12:29:09.224Z</time>
      </trkpt>
      <trkpt lat="61.64273" lon="5.31631">
        <ele>141.719857</ele>
        <time>2020-07-28T12:29:13.229Z</time>
      </trkpt>
      <trkpt lat="61.64272" lon="5.31612">
        <ele>141.752528</ele>
        <time>2020-07-28T12:29:16.237Z</time>
      </trkpt>
      <trkpt lat="61.64271" lon="5.31588">
        <ele>141.793895</ele>
        <time>2020-07-28T12:29:20.239Z</time>
      </trkpt>
      <trkpt lat="61.6427" lon="5.31569">
        <ele>141.826827</ele>
        <time>2020-07-28T12:29:23.215Z</time>
      </trkpt>
      <trkpt lat="61.6427" lon="5.31549">
        <ele>141.86047</ele>
        <time>2020-07-28T12:29:26.209Z</time>
      </trkpt>
      <trkpt lat="61.64271" lon="5.31529">
        <ele>141.89419</ele>
        <time>2020-07-28T12:29:29.237Z</time>
      </trkpt>
      <trkpt lat="61.64272" lon="5.3151">
        <ele>141.926959</ele>
        <time>2020-07-28T12:29:32.256Z</time>
      </trkpt>
      <trkpt lat="61.64275" lon="5.31491">
        <ele>141.962382</ele>
        <time>2020-07-28T12:29:35.237Z</time>
      </trkpt>
      <trkpt lat="61.64279" lon="5.31469">
        <ele>142.001329</ele>
        <time>2020-07-28T12:29:38.244Z</time>
      </trkpt>
      <trkpt lat="61.64281" lon="5.31447">
        <ele>142.040523</ele>
        <time>2020-07-28T12:29:41.230Z</time>
      </trkpt>
      <trkpt lat="61.64284" lon="5.31425">
        <ele>142.07933</ele>
        <time>2020-07-28T12:29:44.253Z</time>
      </trkpt>
      <trkpt lat="61.64287" lon="5.31403">
        <ele>142.057962</ele>
        <time>2020-07-28T12:29:47.265Z</time>
      </trkpt>
      <trkpt lat="61.64291" lon="5.31382">
        <ele>141.71566</ele>
        <time>2020-07-28T12:29:50.217Z</time>
      </trkpt>
      <trkpt lat="61.64296" lon="5.31362">
        <ele>141.357972</ele>
        <time>2020-07-28T12:29:53.231Z</time>
      </trkpt>
      <trkpt lat="61.643" lon="5.31341">
        <ele>140.985183</ele>
        <time>2020-07-28T12:29:56.251Z</time>
      </trkpt>
      <trkpt lat="61.64304" lon="5.31319">
        <ele>140.627736</ele>
        <time>2020-07-28T12:29:59.229Z</time>
      </trkpt>
      <trkpt lat="61.64307" lon="5.31298">
        <ele>140.270469</ele>
        <time>2020-07-28T12:30:02.220Z</time>
      </trkpt>
      <trkpt lat="61.64311" lon="5.31275">
        <ele>139.893549</ele>
        <time>2020-07-28T12:30:05.250Z</time>
      </trkpt>
      <trkpt lat="61.64314" lon="5.31251">
        <ele>139.505162</ele>
        <time>2020-07-28T12:30:08.224Z</time>
      </trkpt>
      <trkpt lat="61.64317" lon="5.31228">
        <ele>139.132683</ele>
        <time>2020-07-28T12:30:11.216Z</time>
      </trkpt>
      <trkpt lat="61.6432" lon="5.31205">
        <ele>138.760639</ele>
        <time>2020-07-28T12:30:14.240Z</time>
      </trkpt>
      <trkpt lat="61.64324" lon="5.3118">
        <ele>138.353335</ele>
        <time>2020-07-28T12:30:17.214Z</time>
      </trkpt>
      <trkpt lat="61.64327" lon="5.31155">
        <ele>137.938719</ele>
        <time>2020-07-28T12:30:20.231Z</time>
      </trkpt>
      <trkpt lat="61.6433" lon="5.31131">
        <ele>137.556378</ele>
        <time>2020-07-28T12:30:23.228Z</time>
      </trkpt>
      <trkpt lat="61.64332" lon="5.3111">
        <ele>137.211433</ele>
        <time>2020-07-28T12:30:26.221Z</time>
      </trkpt>
      <trkpt lat="61.64335" lon="5.31088">
        <ele>136.86256</ele>
        <time>2020-07-28T12:30:29.275Z</time>
      </trkpt>
      <trkpt lat="61.64336" lon="5.31065">
        <ele>136.493699</ele>
        <time>2020-07-28T12:30:32.234Z</time>
      </trkpt>
      <trkpt lat="61.64338" lon="5.31041">
        <ele>136.281238</ele>
        <time>2020-07-28T12:30:35.221Z</time>
      </trkpt>
      <trkpt lat="61.64338" lon="5.31017">
        <ele>136.954006</ele>
        <time>2020-07-28T12:30:38.228Z</time>
      </trkpt>
      <trkpt lat="61.64336" lon="5.30993">
        <ele>137.655231</ele>
        <time>2020-07-28T12:30:41.218Z</time>
      </trkpt>
      <trkpt lat="61.64335" lon="5.30968">
        <ele>138.38724</ele>
        <time>2020-07-28T12:30:44.214Z</time>
      </trkpt>
      <trkpt lat="61.64334" lon="5.30941">
        <ele>139.142008</ele>
        <time>2020-07-28T12:30:47.245Z</time>
      </trkpt>
      <trkpt lat="61.64331" lon="5.30917">
        <ele>139.862565</ele>
        <time>2020-07-28T12:30:50.227Z</time>
      </trkpt>
      <trkpt lat="61.64328" lon="5.30894">
        <ele>140.561266</ele>
        <time>2020-07-28T12:30:53.226Z</time>
      </trkpt>
      <trkpt lat="61.64324" lon="5.30873">
        <ele>141.181052</ele>
        <time>2020-07-28T12:30:56.230Z</time>
      </trkpt>
      <trkpt lat="61.6432" lon="5.30852">
        <ele>141.838345</ele>
        <time>2020-07-28T12:30:59.212Z</time>
      </trkpt>
      <trkpt lat="61.64315" lon="5.30833">
        <ele>142.466775</ele>
        <time>2020-07-28T12:31:02.246Z</time>
      </trkpt>
      <trkpt lat="61.6431" lon="5.30814">
        <ele>143.071717</ele>
        <time>2020-07-28T12:31:05.224Z</time>
      </trkpt>
      <trkpt lat="61.64304" lon="5.30796">
        <ele>143.724581</ele>
        <time>2020-07-28T12:31:08.252Z</time>
      </trkpt>
      <trkpt lat="61.64297" lon="5.30777">
        <ele>144.410439</ele>
        <time>2020-07-28T12:31:11.212Z</time>
      </trkpt>
      <trkpt lat="61.64289" lon="5.30761">
        <ele>145.049944</ele>
        <time>2020-07-28T12:31:14.217Z</time>
      </trkpt>
      <trkpt lat="61.64281" lon="5.30745">
        <ele>145.729665</ele>
        <time>2020-07-28T12:31:17.226Z</time>
      </trkpt>
      <trkpt lat="61.64274" lon="5.3073">
        <ele>146.353162</ele>
        <time>2020-07-28T12:31:20.214Z</time>
      </trkpt>
      <trkpt lat="61.64265" lon="5.30716">
        <ele>146.99319</ele>
        <time>2020-07-28T12:31:23.237Z</time>
      </trkpt>
      <trkpt lat="61.64256" lon="5.30702">
        <ele>146.723705</ele>
        <time>2020-07-28T12:31:26.219Z</time>
      </trkpt>
      <trkpt lat="61.64247" lon="5.30689">
        <ele>146.433757</ele>
        <time>2020-07-28T12:31:29.243Z</time>
      </trkpt>
      <trkpt lat="61.64238" lon="5.30677">
        <ele>146.154544</ele>
        <time>2020-07-28T12:31:32.220Z</time>
      </trkpt>
      <trkpt lat="61.64228" lon="5.30665">
        <ele>145.845479</ele>
        <time>2020-07-28T12:31:35.224Z</time>
      </trkpt>
      <trkpt lat="61.64218" lon="5.30655">
        <ele>145.543574</ele>
        <time>2020-07-28T12:31:38.211Z</time>
      </trkpt>
      <trkpt lat="61.64206" lon="5.30649">
        <ele>145.214821</ele>
        <time>2020-07-28T12:31:41.230Z</time>
      </trkpt>
      <trkpt lat="61.64197" lon="5.30646">
        <ele>144.965147</ele>
        <time>2020-07-28T12:31:43.222Z</time>
      </trkpt>
      <trkpt lat="61.64187" lon="5.30641">
        <ele>144.705263</ele>
        <time>2020-07-28T12:31:45.212Z</time>
      </trkpt>
      <trkpt lat="61.64177" lon="5.30638">
        <ele>144.433263</ele>
        <time>2020-07-28T12:31:47.266Z</time>
      </trkpt>
      <trkpt lat="61.64167" lon="5.30637">
        <ele>144.150693</ele>
        <time>2020-07-28T12:31:49.274Z</time>
      </trkpt>
      <trkpt lat="61.64155" lon="5.30634">
        <ele>143.82726</ele>
        <time>2020-07-28T12:31:51.219Z</time>
      </trkpt>
      <trkpt lat="61.64142" lon="5.30632">
        <ele>143.495007</ele>
        <time>2020-07-28T12:31:53.221Z</time>
      </trkpt>
      <trkpt lat="61.6413" lon="5.3063">
        <ele>143.158686</ele>
        <time>2020-07-28T12:31:55.233Z</time>
      </trkpt>
      <trkpt lat="61.64116" lon="5.30627">
        <ele>142.802469</ele>
        <time>2020-07-28T12:31:57.214Z</time>
      </trkpt>
      <trkpt lat="61.64103" lon="5.30622">
        <ele>142.450075</ele>
        <time>2020-07-28T12:31:59.226Z</time>
      </trkpt>
      <trkpt lat="61.6409" lon="5.30614">
        <ele>142.1151</ele>
        <time>2020-07-28T12:32:01.227Z</time>
      </trkpt>
      <trkpt lat="61.64078" lon="5.30605">
        <ele>141.824978</ele>
        <time>2020-07-28T12:32:03.214Z</time>
      </trkpt>
      <trkpt lat="61.64068" lon="5.30596">
        <ele>141.561745</ele>
        <time>2020-07-28T12:32:05.232Z</time>
      </trkpt>
      <trkpt lat="61.64058" lon="5.30586">
        <ele>141.317807</ele>
        <time>2020-07-28T12:32:07.235Z</time>
      </trkpt>
      <trkpt lat="61.6405" lon="5.30575">
        <ele>141.1048</ele>
        <time>2020-07-28T12:32:09.243Z</time>
      </trkpt>
      <trkpt lat="61.6404" lon="5.30559">
        <ele>140.805893</ele>
        <time>2020-07-28T12:32:12.229Z</time>
      </trkpt>
      <trkpt lat="61.6403" lon="5.30542">
        <ele>140.524676</ele>
        <time>2020-07-28T12:32:15.262Z</time>
      </trkpt>
      <trkpt lat="61.64022" lon="5.30525">
        <ele>140.268982</ele>
        <time>2020-07-28T12:32:18.217Z</time>
      </trkpt>
      <trkpt lat="61.64016" lon="5.30508">
        <ele>140.031763</ele>
        <time>2020-07-28T12:32:21.242Z</time>
      </trkpt>
      <trkpt lat="61.6401" lon="5.30488">
        <ele>139.769085</ele>
        <time>2020-07-28T12:32:25.254Z</time>
      </trkpt>
      <trkpt lat="61.64005" lon="5.30469">
        <ele>139.542934</ele>
        <time>2020-07-28T12:32:28.252Z</time>
      </trkpt>
      <trkpt lat="61.64001" lon="5.3045">
        <ele>139.310165</ele>
        <time>2020-07-28T12:32:31.222Z</time>
      </trkpt>
      <trkpt lat="61.63997" lon="5.30429">
        <ele>139.072463</ele>
        <time>2020-07-28T12:32:34.228Z</time>
      </trkpt>
      <trkpt lat="61.63994" lon="5.30407">
        <ele>138.824058</ele>
        <time>2020-07-28T12:32:37.232Z</time>
      </trkpt>
      <trkpt lat="61.63991" lon="5.30383">
        <ele>138.554601</ele>
        <time>2020-07-28T12:32:40.250Z</time>
      </trkpt>
      <trkpt lat="61.63989" lon="5.30365">
        <ele>138.348768</ele>
        <time>2020-07-28T12:32:42.236Z</time>
      </trkpt>
      <trkpt lat="61.63986" lon="5.30346">
        <ele>138.138783</ele>
        <time>2020-07-28T12:32:44.263Z</time>
      </trkpt>
      <trkpt lat="61.63984" lon="5.30326">
        <ele>137.666347</ele>
        <time>2020-07-28T12:32:46.212Z</time>
      </trkpt>
      <trkpt lat="61.63982" lon="5.30305">
        <ele>137.158961</ele>
        <time>2020-07-28T12:32:48.228Z</time>
      </trkpt>
      <trkpt lat="61.63981" lon="5.3028">
        <ele>136.566059</ele>
        <time>2020-07-28T12:32:50.227Z</time>
      </trkpt>
      <trkpt lat="61.63979" lon="5.30252">
        <ele>135.901435</ele>
        <time>2020-07-28T12:32:52.267Z</time>
      </trkpt>
      <trkpt lat="61.63978" lon="5.30222">
        <ele>135.182602</ele>
        <time>2020-07-28T12:32:54.241Z</time>
      </trkpt>
      <trkpt lat="61.63976" lon="5.30189">
        <ele>134.392549</ele>
        <time>2020-07-28T12:32:56.249Z</time>
      </trkpt>
      <trkpt lat="61.63976" lon="5.30153">
        <ele>133.534265</ele>
        <time>2020-07-28T12:32:58.215Z</time>
      </trkpt>
      <trkpt lat="61.63976" lon="5.30133">
        <ele>133.065206</ele>
        <time>2020-07-28T12:32:59.221Z</time>
      </trkpt>
      <trkpt lat="61.63976" lon="5.30112">
        <ele>132.577194</ele>
        <time>2020-07-28T12:33:00.225Z</time>
      </trkpt>
      <trkpt lat="61.63976" lon="5.30091">
        <ele>132.070231</ele>
        <time>2020-07-28T12:33:01.226Z</time>
      </trkpt>
      <trkpt lat="61.63976" lon="5.30069">
        <ele>131.553407</ele>
        <time>2020-07-28T12:33:02.246Z</time>
      </trkpt>
      <trkpt lat="61.63977" lon="5.30046">
        <ele>131.019545</ele>
        <time>2020-07-28T12:33:03.235Z</time>
      </trkpt>
      <trkpt lat="61.63977" lon="5.30023">
        <ele>130.464104</ele>
        <time>2020-07-28T12:33:04.221Z</time>
      </trkpt>
      <trkpt lat="61.63978" lon="5.29999">
        <ele>129.894477</ele>
        <time>2020-07-28T12:33:05.231Z</time>
      </trkpt>
      <trkpt lat="61.63979" lon="5.29974">
        <ele>129.300532</ele>
        <time>2020-07-28T12:33:06.238Z</time>
      </trkpt>
      <trkpt lat="61.6398" lon="5.29949">
        <ele>128.829773</ele>
        <time>2020-07-28T12:33:07.255Z</time>
      </trkpt>
      <trkpt lat="61.63981" lon="5.29923">
        <ele>128.40152</ele>
        <time>2020-07-28T12:33:08.210Z</time>
      </trkpt>
      <trkpt lat="61.63983" lon="5.29897">
        <ele>127.960902</ele>
        <time>2020-07-28T12:33:09.223Z</time>
      </trkpt>
      <trkpt lat="61.63985" lon="5.29871">
        <ele>127.516502</ele>
        <time>2020-07-28T12:33:10.252Z</time>
      </trkpt>
      <trkpt lat="61.63988" lon="5.29845">
        <ele>127.073006</ele>
        <time>2020-07-28T12:33:11.222Z</time>
      </trkpt>
      <trkpt lat="61.63991" lon="5.29819">
        <ele>126.631636</ele>
        <time>2020-07-28T12:33:12.244Z</time>
      </trkpt>
      <trkpt lat="61.63995" lon="5.29794">
        <ele>126.193677</ele>
        <time>2020-07-28T12:33:13.227Z</time>
      </trkpt>
      <trkpt lat="61.63999" lon="5.2977">
        <ele>125.766264</ele>
        <time>2020-07-28T12:33:14.246Z</time>
      </trkpt>
      <trkpt lat="61.64003" lon="5.29747">
        <ele>125.348452</ele>
        <time>2020-07-28T12:33:15.213Z</time>
      </trkpt>
      <trkpt lat="61.64008" lon="5.29725">
        <ele>124.935923</ele>
        <time>2020-07-28T12:33:16.224Z</time>
      </trkpt>
      <trkpt lat="61.64013" lon="5.29702">
        <ele>124.520433</ele>
        <time>2020-07-28T12:33:17.216Z</time>
      </trkpt>
      <trkpt lat="61.64018" lon="5.29681">
        <ele>124.113816</ele>
        <time>2020-07-28T12:33:18.244Z</time>
      </trkpt>
      <trkpt lat="61.64024" lon="5.29661">
        <ele>123.731955</ele>
        <time>2020-07-28T12:33:19.249Z</time>
      </trkpt>
      <trkpt lat="61.64029" lon="5.29643">
        <ele>123.376264</ele>
        <time>2020-07-28T12:33:20.214Z</time>
      </trkpt>
      <trkpt lat="61.64035" lon="5.29626">
        <ele>123.02413</ele>
        <time>2020-07-28T12:33:21.217Z</time>
      </trkpt>
      <trkpt lat="61.64041" lon="5.2961">
        <ele>122.905721</ele>
        <time>2020-07-28T12:33:22.211Z</time>
      </trkpt>
      <trkpt lat="61.64051" lon="5.29581">
        <ele>123.307581</ele>
        <time>2020-07-28T12:33:24.227Z</time>
      </trkpt>
      <trkpt lat="61.6406" lon="5.29556">
        <ele>123.650484</ele>
        <time>2020-07-28T12:33:26.234Z</time>
      </trkpt>
      <trkpt lat="61.64068" lon="5.29533">
        <ele>123.958505</ele>
        <time>2020-07-28T12:33:28.253Z</time>
      </trkpt>
      <trkpt lat="61.64076" lon="5.29512">
        <ele>124.247199</ele>
        <time>2020-07-28T12:33:30.228Z</time>
      </trkpt>
      <trkpt lat="61.64082" lon="5.29491">
        <ele>124.52113</ele>
        <time>2020-07-28T12:33:32.257Z</time>
      </trkpt>
      <trkpt lat="61.64088" lon="5.29472">
        <ele>124.767643</ele>
        <time>2020-07-28T12:33:34.231Z</time>
      </trkpt>
      <trkpt lat="61.64092" lon="5.29455">
        <ele>124.980758</ele>
        <time>2020-07-28T12:33:36.217Z</time>
      </trkpt>
      <trkpt lat="61.64097" lon="5.2943">
        <ele>125.273018</ele>
        <time>2020-07-28T12:33:39.209Z</time>
      </trkpt>
      <trkpt lat="61.641" lon="5.29406">
        <ele>125.541696</ele>
        <time>2020-07-28T12:33:42.221Z</time>
      </trkpt>
      <trkpt lat="61.64101" lon="5.29385">
        <ele>125.77599</ele>
        <time>2020-07-28T12:33:45.209Z</time>
      </trkpt>
      <trkpt lat="61.64103" lon="5.29361">
        <ele>126.034023</ele>
        <time>2020-07-28T12:33:49.247Z</time>
      </trkpt>
      <trkpt lat="61.64104" lon="5.2934">
        <ele>126.268003</ele>
        <time>2020-07-28T12:33:53.232Z</time>
      </trkpt>
      <trkpt lat="61.64105" lon="5.2932">
        <ele>126.488031</ele>
        <time>2020-07-28T12:33:57.252Z</time>
      </trkpt>
      <trkpt lat="61.64106" lon="5.29299">
        <ele>126.718096</ele>
        <time>2020-07-28T12:34:02.232Z</time>
      </trkpt>
      <trkpt lat="61.64108" lon="5.29279">
        <ele>126.935159</ele>
        <time>2020-07-28T12:34:07.231Z</time>
      </trkpt>
      <trkpt lat="61.64108" lon="5.29257">
        <ele>127.04839</ele>
        <time>2020-07-28T12:34:13.230Z</time>
      </trkpt>
      <trkpt lat="61.6411" lon="5.29236">
        <ele>127.145622</ele>
        <time>2020-07-28T12:34:19.260Z</time>
      </trkpt>
      <trkpt lat="61.64112" lon="5.29216">
        <ele>127.241404</ele>
        <time>2020-07-28T12:34:25.225Z</time>
      </trkpt>
      <trkpt lat="61.64112" lon="5.29195">
        <ele>127.336608</ele>
        <time>2020-07-28T12:34:31.220Z</time>
      </trkpt>
      <trkpt lat="61.64112" lon="5.29173">
        <ele>127.43454</ele>
        <time>2020-07-28T12:34:37.234Z</time>
      </trkpt>
      <trkpt lat="61.64111" lon="5.29154">
        <ele>127.522362</ele>
        <time>2020-07-28T12:34:43.220Z</time>
      </trkpt>
      <trkpt lat="61.64112" lon="5.29133">
        <ele>127.620146</ele>
        <time>2020-07-28T12:34:50.224Z</time>
      </trkpt>
      <trkpt lat="61.64112" lon="5.29113">
        <ele>127.709938</ele>
        <time>2020-07-28T12:34:55.225Z</time>
      </trkpt>
      <trkpt lat="61.64112" lon="5.29091">
        <ele>127.812459</ele>
        <time>2020-07-28T12:35:01.225Z</time>
      </trkpt>
      <trkpt lat="61.6411" lon="5.29071">
        <ele>127.902977</ele>
        <time>2020-07-28T12:35:06.214Z</time>
      </trkpt>
      <trkpt lat="61.64109" lon="5.29051">
        <ele>127.992807</ele>
        <time>2020-07-28T12:35:11.216Z</time>
      </trkpt>
      <trkpt lat="61.64108" lon="5.29031">
        <ele>128.085137</ele>
        <time>2020-07-28T12:35:16.224Z</time>
      </trkpt>
      <trkpt lat="61.64105" lon="5.29009">
        <ele>128.189001</ele>
        <time>2020-07-28T12:35:21.218Z</time>
      </trkpt>
      <trkpt lat="61.64104" lon="5.2899">
        <ele>128.278014</ele>
        <time>2020-07-28T12:35:25.236Z</time>
      </trkpt>
      <trkpt lat="61.64102" lon="5.2897">
        <ele>128.368083</ele>
        <time>2020-07-28T12:35:29.285Z</time>
      </trkpt>
      <trkpt lat="61.64099" lon="5.28951">
        <ele>128.461245</ele>
        <time>2020-07-28T12:35:33.228Z</time>
      </trkpt>
      <trkpt lat="61.64095" lon="5.28929">
        <ele>128.565658</ele>
        <time>2020-07-28T12:35:37.251Z</time>
      </trkpt>
      <trkpt lat="61.64091" lon="5.28909">
        <ele>128.667634</ele>
        <time>2020-07-28T12:35:41.206Z</time>
      </trkpt>
      <trkpt lat="61.64089" lon="5.28884">
        <ele>128.958892</ele>
        <time>2020-07-28T12:35:45.226Z</time>
      </trkpt>
      <trkpt lat="61.64092" lon="5.28864">
        <ele>129.217617</ele>
        <time>2020-07-28T12:35:49.219Z</time>
      </trkpt>
      <trkpt lat="61.64098" lon="5.2884">
        <ele>129.564328</ele>
        <time>2020-07-28T12:37:29.233Z</time>
      </trkpt>
      <trkpt lat="61.64104" lon="5.28855">
        <ele>129.80509</ele>
        <time>2020-07-28T12:37:42.223Z</time>
      </trkpt>
      <trkpt lat="61.64097" lon="5.28841">
        <ele>130.066288</ele>
        <time>2020-07-28T12:43:58.222Z</time>
      </trkpt>
      <trkpt lat="61.64087" lon="5.28828">
        <ele>130.359614</ele>
        <time>2020-07-28T12:44:03.242Z</time>
      </trkpt>
      <trkpt lat="61.64082" lon="5.28806">
        <ele>130.668422</ele>
        <time>2020-07-28T12:44:07.211Z</time>
      </trkpt>
      <trkpt lat="61.64078" lon="5.28787">
        <ele>130.930591</ele>
        <time>2020-07-28T12:44:10.228Z</time>
      </trkpt>
      <trkpt lat="61.64074" lon="5.28765">
        <ele>131.232876</ele>
        <time>2020-07-28T12:44:13.239Z</time>
      </trkpt>
      <trkpt lat="61.64069" lon="5.28744">
        <ele>131.523302</ele>
        <time>2020-07-28T12:44:16.223Z</time>
      </trkpt>
      <trkpt lat="61.64064" lon="5.28722">
        <ele>131.826251</ele>
        <time>2020-07-28T12:44:19.210Z</time>
      </trkpt>
      <trkpt lat="61.6406" lon="5.28698">
        <ele>132.145329</ele>
        <time>2020-07-28T12:44:22.214Z</time>
      </trkpt>
      <trkpt lat="61.64056" lon="5.28673">
        <ele>132.478897</ele>
        <time>2020-07-28T12:44:25.217Z</time>
      </trkpt>
      <trkpt lat="61.64052" lon="5.28648">
        <ele>132.800929</ele>
        <time>2020-07-28T12:44:28.247Z</time>
      </trkpt>
      <trkpt lat="61.64049" lon="5.28623">
        <ele>133.130594</ele>
        <time>2020-07-28T12:44:31.231Z</time>
      </trkpt>
      <trkpt lat="61.64045" lon="5.28595">
        <ele>133.362496</ele>
        <time>2020-07-28T12:44:34.226Z</time>
      </trkpt>
      <trkpt lat="61.64042" lon="5.28577">
        <ele>133.173665</ele>
        <time>2020-07-28T12:44:36.212Z</time>
      </trkpt>
      <trkpt lat="61.64038" lon="5.28558">
        <ele>132.967588</ele>
        <time>2020-07-28T12:44:38.272Z</time>
      </trkpt>
      <trkpt lat="61.64034" lon="5.28539">
        <ele>132.765607</ele>
        <time>2020-07-28T12:44:40.261Z</time>
      </trkpt>
      <trkpt lat="61.64031" lon="5.2852">
        <ele>132.565577</ele>
        <time>2020-07-28T12:44:42.217Z</time>
      </trkpt>
      <trkpt lat="61.64029" lon="5.28499">
        <ele>132.356572</ele>
        <time>2020-07-28T12:44:44.226Z</time>
      </trkpt>
      <trkpt lat="61.64025" lon="5.2848">
        <ele>132.147903</ele>
        <time>2020-07-28T12:44:46.212Z</time>
      </trkpt>
      <trkpt lat="61.64021" lon="5.2846">
        <ele>131.934147</ele>
        <time>2020-07-28T12:44:48.219Z</time>
      </trkpt>
      <trkpt lat="61.64018" lon="5.28438">
        <ele>131.708106</ele>
        <time>2020-07-28T12:44:50.219Z</time>
      </trkpt>
      <trkpt lat="61.64015" lon="5.28415">
        <ele>131.476753</ele>
        <time>2020-07-28T12:44:52.244Z</time>
      </trkpt>
      <trkpt lat="61.64011" lon="5.28393">
        <ele>131.242603</ele>
        <time>2020-07-28T12:44:54.230Z</time>
      </trkpt>
      <trkpt lat="61.64008" lon="5.28372">
        <ele>131.022452</ele>
        <time>2020-07-28T12:44:56.239Z</time>
      </trkpt>
      <trkpt lat="61.64004" lon="5.28351">
        <ele>130.807667</ele>
        <time>2020-07-28T12:44:58.213Z</time>
      </trkpt>
      <trkpt lat="61.64" lon="5.2833">
        <ele>130.587229</ele>
        <time>2020-07-28T12:45:00.238Z</time>
      </trkpt>
      <trkpt lat="61.63997" lon="5.28311">
        <ele>130.382788</ele>
        <time>2020-07-28T12:45:02.227Z</time>
      </trkpt>
      <trkpt lat="61.63993" lon="5.28291">
        <ele>130.175464</ele>
        <time>2020-07-28T12:45:04.232Z</time>
      </trkpt>
      <trkpt lat="61.63989" lon="5.28272">
        <ele>129.968466</ele>
        <time>2020-07-28T12:45:06.224Z</time>
      </trkpt>
      <trkpt lat="61.63985" lon="5.28254">
        <ele>129.772715</ele>
        <time>2020-07-28T12:45:08.227Z</time>
      </trkpt>
      <trkpt lat="61.6398" lon="5.28234">
        <ele>129.734163</ele>
        <time>2020-07-28T12:45:10.241Z</time>
      </trkpt>
      <trkpt lat="61.63975" lon="5.28213">
        <ele>129.816906</ele>
        <time>2020-07-28T12:45:12.228Z</time>
      </trkpt>
      <trkpt lat="61.63969" lon="5.28192">
        <ele>129.904377</ele>
        <time>2020-07-28T12:45:14.292Z</time>
      </trkpt>
      <trkpt lat="61.63962" lon="5.2817">
        <ele>129.992795</ele>
        <time>2020-07-28T12:45:16.232Z</time>
      </trkpt>
      <trkpt lat="61.63957" lon="5.28149">
        <ele>130.078256</ele>
        <time>2020-07-28T12:45:18.217Z</time>
      </trkpt>
      <trkpt lat="61.63951" lon="5.28128">
        <ele>130.161843</ele>
        <time>2020-07-28T12:45:20.229Z</time>
      </trkpt>
      <trkpt lat="61.6386" lon="5.27544">
        <ele>129.290661</ele>
        <time>2020-07-28T12:46:05.208Z</time>
      </trkpt>
      <trkpt lat="61.6385" lon="5.27514">
        <ele>129.208264</ele>
        <time>2020-07-28T12:46:07.243Z</time>
      </trkpt>
      <trkpt lat="61.63852" lon="5.27493">
        <ele>129.170039</ele>
        <time>2020-07-28T12:46:10.230Z</time>
      </trkpt>
      <trkpt lat="61.63849" lon="5.27475">
        <ele>129.134674</ele>
        <time>2020-07-28T12:46:12.254Z</time>
      </trkpt>
      <trkpt lat="61.63848" lon="5.27449">
        <ele>129.087224</ele>
        <time>2020-07-28T12:46:15.216Z</time>
      </trkpt>
      <trkpt lat="61.63848" lon="5.27422">
        <ele>129.038787</ele>
        <time>2020-07-28T12:46:18.204Z</time>
      </trkpt>
      <trkpt lat="61.63848" lon="5.27396">
        <ele>128.989802</ele>
        <time>2020-07-28T12:46:21.214Z</time>
      </trkpt>
      <trkpt lat="61.63849" lon="5.2737">
        <ele>128.94245</ele>
        <time>2020-07-28T12:46:24.241Z</time>
      </trkpt>
      <trkpt lat="61.6385" lon="5.27344">
        <ele>128.894955</ele>
        <time>2020-07-28T12:46:27.219Z</time>
      </trkpt>
      <trkpt lat="61.63852" lon="5.27321">
        <ele>128.851809</ele>
        <time>2020-07-28T12:46:30.280Z</time>
      </trkpt>
      <trkpt lat="61.63852" lon="5.273">
        <ele>128.8143</ele>
        <time>2020-07-28T12:46:33.221Z</time>
      </trkpt>
      <trkpt lat="61.63853" lon="5.27276">
        <ele>128.770277</ele>
        <time>2020-07-28T12:46:37.267Z</time>
      </trkpt>
      <trkpt lat="61.63855" lon="5.27256">
        <ele>128.733156</ele>
        <time>2020-07-28T12:46:40.247Z</time>
      </trkpt>
      <trkpt lat="61.63856" lon="5.27236">
        <ele>128.696636</ele>
        <time>2020-07-28T12:46:43.204Z</time>
      </trkpt>
      <trkpt lat="61.63857" lon="5.27216">
        <ele>128.659437</ele>
        <time>2020-07-28T12:46:46.234Z</time>
      </trkpt>
      <trkpt lat="61.63859" lon="5.27197">
        <ele>128.624897</ele>
        <time>2020-07-28T12:46:49.212Z</time>
      </trkpt>
      <trkpt lat="61.63861" lon="5.27174">
        <ele>128.581159</ele>
        <time>2020-07-28T12:46:53.219Z</time>
      </trkpt>
      <trkpt lat="61.63862" lon="5.27152">
        <ele>128.1589</ele>
        <time>2020-07-28T12:46:57.211Z</time>
      </trkpt>
      <trkpt lat="61.63864" lon="5.27129">
        <ele>127.619695</ele>
        <time>2020-07-28T12:47:01.208Z</time>
      </trkpt>
      <trkpt lat="61.63865" lon="5.27107">
        <ele>127.120702</ele>
        <time>2020-07-28T12:47:05.247Z</time>
      </trkpt>
      <trkpt lat="61.63866" lon="5.27085">
        <ele>126.608458</ele>
        <time>2020-07-28T12:47:09.235Z</time>
      </trkpt>
      <trkpt lat="61.63868" lon="5.2706">
        <ele>126.037825</ele>
        <time>2020-07-28T12:47:13.219Z</time>
      </trkpt>
      <trkpt lat="61.6387" lon="5.27042">
        <ele>125.602208</ele>
        <time>2020-07-28T12:47:16.259Z</time>
      </trkpt>
      <trkpt lat="61.63872" lon="5.27017">
        <ele>125.026455</ele>
        <time>2020-07-28T12:47:20.213Z</time>
      </trkpt>
      <trkpt lat="61.63873" lon="5.26997">
        <ele>124.567681</ele>
        <time>2020-07-28T12:47:23.218Z</time>
      </trkpt>
      <trkpt lat="61.63873" lon="5.26977">
        <ele>124.111223</ele>
        <time>2020-07-28T12:47:26.237Z</time>
      </trkpt>
      <trkpt lat="61.63874" lon="5.26954">
        <ele>123.581082</ele>
        <time>2020-07-28T12:47:29.232Z</time>
      </trkpt>
      <trkpt lat="61.63874" lon="5.26928">
        <ele>122.989098</ele>
        <time>2020-07-28T12:47:32.249Z</time>
      </trkpt>
      <trkpt lat="61.63874" lon="5.26902">
        <ele>122.383773</ele>
        <time>2020-07-28T12:47:35.221Z</time>
      </trkpt>
      <trkpt lat="61.63874" lon="5.26873">
        <ele>121.73203</ele>
        <time>2020-07-28T12:47:38.228Z</time>
      </trkpt>
      <trkpt lat="61.63872" lon="5.26852">
        <ele>121.235729</ele>
        <time>2020-07-28T12:47:40.224Z</time>
      </trkpt>
      <trkpt lat="61.6387" lon="5.26831">
        <ele>120.730492</ele>
        <time>2020-07-28T12:47:42.237Z</time>
      </trkpt>
      <trkpt lat="61.63867" lon="5.26808">
        <ele>120.196423</ele>
        <time>2020-07-28T12:47:44.231Z</time>
      </trkpt>
      <trkpt lat="61.63863" lon="5.26785">
        <ele>119.715652</ele>
        <time>2020-07-28T12:47:46.211Z</time>
      </trkpt>
      <trkpt lat="61.6386" lon="5.26762">
        <ele>119.317322</ele>
        <time>2020-07-28T12:47:48.215Z</time>
      </trkpt>
      <trkpt lat="61.63856" lon="5.26739">
        <ele>118.925096</ele>
        <time>2020-07-28T12:47:50.238Z</time>
      </trkpt>
      <trkpt lat="61.63852" lon="5.26714">
        <ele>118.500654</ele>
        <time>2020-07-28T12:47:52.226Z</time>
      </trkpt>
      <trkpt lat="61.63848" lon="5.26688">
        <ele>118.075753</ele>
        <time>2020-07-28T12:47:54.219Z</time>
      </trkpt>
      <trkpt lat="61.63844" lon="5.26662">
        <ele>117.619526</ele>
        <time>2020-07-28T12:47:56.212Z</time>
      </trkpt>
      <trkpt lat="61.63839" lon="5.26635">
        <ele>117.161343</ele>
        <time>2020-07-28T12:47:58.244Z</time>
      </trkpt>
      <trkpt lat="61.63836" lon="5.26608">
        <ele>116.72002</ele>
        <time>2020-07-28T12:48:00.245Z</time>
      </trkpt>
      <trkpt lat="61.63832" lon="5.26581">
        <ele>116.266339</ele>
        <time>2020-07-28T12:48:02.242Z</time>
      </trkpt>
      <trkpt lat="61.63829" lon="5.26553">
        <ele>115.797485</ele>
        <time>2020-07-28T12:48:04.239Z</time>
      </trkpt>
      <trkpt lat="61.63826" lon="5.26525">
        <ele>115.333952</ele>
        <time>2020-07-28T12:48:06.204Z</time>
      </trkpt>
      <trkpt lat="61.63824" lon="5.26494">
        <ele>114.838253</ele>
        <time>2020-07-28T12:48:08.249Z</time>
      </trkpt>
      <trkpt lat="61.63823" lon="5.26463">
        <ele>114.341293</ele>
        <time>2020-07-28T12:48:10.235Z</time>
      </trkpt>
      <trkpt lat="61.63822" lon="5.26433">
        <ele>113.851592</ele>
        <time>2020-07-28T12:48:12.217Z</time>
      </trkpt>
      <trkpt lat="61.63822" lon="5.26402">
        <ele>113.553477</ele>
        <time>2020-07-28T12:48:14.247Z</time>
      </trkpt>
      <trkpt lat="61.63823" lon="5.26372">
        <ele>113.279238</ele>
        <time>2020-07-28T12:48:16.244Z</time>
      </trkpt>
      <trkpt lat="61.63824" lon="5.26341">
        <ele>113.004146</ele>
        <time>2020-07-28T12:48:18.230Z</time>
      </trkpt>
      <trkpt lat="61.63825" lon="5.2631">
        <ele>112.726428</ele>
        <time>2020-07-28T12:48:20.239Z</time>
      </trkpt>
      <trkpt lat="61.63826" lon="5.26278">
        <ele>112.442534</ele>
        <time>2020-07-28T12:48:22.242Z</time>
      </trkpt>
      <trkpt lat="61.63826" lon="5.26245">
        <ele>112.148727</ele>
        <time>2020-07-28T12:48:24.227Z</time>
      </trkpt>
      <trkpt lat="61.63827" lon="5.26212">
        <ele>111.848472</ele>
        <time>2020-07-28T12:48:26.218Z</time>
      </trkpt>
      <trkpt lat="61.63828" lon="5.26179">
        <ele>111.549767</ele>
        <time>2020-07-28T12:48:28.234Z</time>
      </trkpt>
      <trkpt lat="61.6383" lon="5.26145">
        <ele>111.247942</ele>
        <time>2020-07-28T12:48:30.238Z</time>
      </trkpt>
      <trkpt lat="61.6383" lon="5.26113">
        <ele>110.956963</ele>
        <time>2020-07-28T12:48:32.242Z</time>
      </trkpt>
      <trkpt lat="61.63831" lon="5.26082">
        <ele>110.6838</ele>
        <time>2020-07-28T12:48:34.230Z</time>
      </trkpt>
      <trkpt lat="61.63832" lon="5.26051">
        <ele>110.407892</ele>
        <time>2020-07-28T12:48:36.244Z</time>
      </trkpt>
      <trkpt lat="61.63832" lon="5.26021">
        <ele>110.182802</ele>
        <time>2020-07-28T12:48:38.215Z</time>
      </trkpt>
      <trkpt lat="61.63833" lon="5.25993">
        <ele>109.977057</ele>
        <time>2020-07-28T12:48:40.211Z</time>
      </trkpt>
      <trkpt lat="61.63833" lon="5.25967">
        <ele>109.786932</ele>
        <time>2020-07-28T12:48:42.230Z</time>
      </trkpt>
      <trkpt lat="61.63833" lon="5.25942">
        <ele>109.600563</ele>
        <time>2020-07-28T12:48:44.228Z</time>
      </trkpt>
      <trkpt lat="61.63833" lon="5.25918">
        <ele>109.425288</ele>
        <time>2020-07-28T12:48:46.213Z</time>
      </trkpt>
      <trkpt lat="61.63833" lon="5.25896">
        <ele>109.257886</ele>
        <time>2020-07-28T12:48:48.221Z</time>
      </trkpt>
      <trkpt lat="61.63831" lon="5.25873">
        <ele>109.089135</ele>
        <time>2020-07-28T12:48:50.210Z</time>
      </trkpt>
      <trkpt lat="61.6383" lon="5.25851">
        <ele>108.921312</ele>
        <time>2020-07-28T12:48:52.226Z</time>
      </trkpt>
      <trkpt lat="61.63829" lon="5.25826">
        <ele>108.740049</ele>
        <time>2020-07-28T12:48:54.283Z</time>
      </trkpt>
      <trkpt lat="61.63827" lon="5.258">
        <ele>108.545732</ele>
        <time>2020-07-28T12:48:56.236Z</time>
      </trkpt>
      <trkpt lat="61.63824" lon="5.25773">
        <ele>108.338662</ele>
        <time>2020-07-28T12:48:58.237Z</time>
      </trkpt>
      <trkpt lat="61.63822" lon="5.25744">
        <ele>108.119676</ele>
        <time>2020-07-28T12:49:00.237Z</time>
      </trkpt>
      <trkpt lat="61.63819" lon="5.25713">
        <ele>107.891234</ele>
        <time>2020-07-28T12:49:02.243Z</time>
      </trkpt>
      <trkpt lat="61.63817" lon="5.25683">
        <ele>107.664774</ele>
        <time>2020-07-28T12:49:04.227Z</time>
      </trkpt>
      <trkpt lat="61.63815" lon="5.25649">
        <ele>107.125817</ele>
        <time>2020-07-28T12:49:06.215Z</time>
      </trkpt>
      <trkpt lat="61.63812" lon="5.25614">
        <ele>106.492138</ele>
        <time>2020-07-28T12:49:08.227Z</time>
      </trkpt>
      <trkpt lat="61.6381" lon="5.25578">
        <ele>105.819915</ele>
        <time>2020-07-28T12:49:10.235Z</time>
      </trkpt>
      <trkpt lat="61.63808" lon="5.2554">
        <ele>105.144843</ele>
        <time>2020-07-28T12:49:12.231Z</time>
      </trkpt>
      <trkpt lat="61.63806" lon="5.25521">
        <ele>104.791795</ele>
        <time>2020-07-28T12:49:13.226Z</time>
      </trkpt>
      <trkpt lat="61.63804" lon="5.25501">
        <ele>104.431644</ele>
        <time>2020-07-28T12:49:14.250Z</time>
      </trkpt>
      <trkpt lat="61.63803" lon="5.25481">
        <ele>104.059651</ele>
        <time>2020-07-28T12:49:15.252Z</time>
      </trkpt>
      <trkpt lat="61.63801" lon="5.2546">
        <ele>103.685282</ele>
        <time>2020-07-28T12:49:16.208Z</time>
      </trkpt>
      <trkpt lat="61.63799" lon="5.2544">
        <ele>103.313151</ele>
        <time>2020-07-28T12:49:17.219Z</time>
      </trkpt>
      <trkpt lat="61.63798" lon="5.25419">
        <ele>102.93323</ele>
        <time>2020-07-28T12:49:18.234Z</time>
      </trkpt>
      <trkpt lat="61.63796" lon="5.25398">
        <ele>102.538047</ele>
        <time>2020-07-28T12:49:19.222Z</time>
      </trkpt>
      <trkpt lat="61.63794" lon="5.25376">
        <ele>102.135752</ele>
        <time>2020-07-28T12:49:20.209Z</time>
      </trkpt>
      <trkpt lat="61.63792" lon="5.25354">
        <ele>101.737018</ele>
        <time>2020-07-28T12:49:21.220Z</time>
      </trkpt>
      <trkpt lat="61.63791" lon="5.25332">
        <ele>101.335844</ele>
        <time>2020-07-28T12:49:22.223Z</time>
      </trkpt>
      <trkpt lat="61.63789" lon="5.2531">
        <ele>100.937509</ele>
        <time>2020-07-28T12:49:23.216Z</time>
      </trkpt>
      <trkpt lat="61.63787" lon="5.25289">
        <ele>100.585239</ele>
        <time>2020-07-28T12:49:24.224Z</time>
      </trkpt>
      <trkpt lat="61.63784" lon="5.25267">
        <ele>100.255844</ele>
        <time>2020-07-28T12:49:25.246Z</time>
      </trkpt>
      <trkpt lat="61.63783" lon="5.25245">
        <ele>99.925261</ele>
        <time>2020-07-28T12:49:26.230Z</time>
      </trkpt>
      <trkpt lat="61.63781" lon="5.25223">
        <ele>99.592677</ele>
        <time>2020-07-28T12:49:27.211Z</time>
      </trkpt>
      <trkpt lat="61.63779" lon="5.25201">
        <ele>99.260378</ele>
        <time>2020-07-28T12:49:28.235Z</time>
      </trkpt>
      <trkpt lat="61.63776" lon="5.25179">
        <ele>98.928241</ele>
        <time>2020-07-28T12:49:29.222Z</time>
      </trkpt>
      <trkpt lat="61.63774" lon="5.25157">
        <ele>98.598268</ele>
        <time>2020-07-28T12:49:30.228Z</time>
      </trkpt>
      <trkpt lat="61.63771" lon="5.25136">
        <ele>98.269047</ele>
        <time>2020-07-28T12:49:31.238Z</time>
      </trkpt>
      <trkpt lat="61.63768" lon="5.25114">
        <ele>97.931526</ele>
        <time>2020-07-28T12:49:32.214Z</time>
      </trkpt>
      <trkpt lat="61.63765" lon="5.25092">
        <ele>97.595526</ele>
        <time>2020-07-28T12:49:33.230Z</time>
      </trkpt>
      <trkpt lat="61.63762" lon="5.25071">
        <ele>97.262344</ele>
        <time>2020-07-28T12:49:34.213Z</time>
      </trkpt>
      <trkpt lat="61.63758" lon="5.25049">
        <ele>96.929162</ele>
        <time>2020-07-28T12:49:35.226Z</time>
      </trkpt>
      <trkpt lat="61.63755" lon="5.25028">
        <ele>96.599753</ele>
        <time>2020-07-28T12:49:36.217Z</time>
      </trkpt>
      <trkpt lat="61.63752" lon="5.25007">
        <ele>96.272199</ele>
        <time>2020-07-28T12:49:37.230Z</time>
      </trkpt>
      <trkpt lat="61.63749" lon="5.24987">
        <ele>95.951666</ele>
        <time>2020-07-28T12:49:38.236Z</time>
      </trkpt>
      <trkpt lat="61.63746" lon="5.24966">
        <ele>95.635426</ele>
        <time>2020-07-28T12:49:39.226Z</time>
      </trkpt>
      <trkpt lat="61.63743" lon="5.24945">
        <ele>95.31157</ele>
        <time>2020-07-28T12:49:40.221Z</time>
      </trkpt>
      <trkpt lat="61.63739" lon="5.24924">
        <ele>94.911331</ele>
        <time>2020-07-28T12:49:41.242Z</time>
      </trkpt>
      <trkpt lat="61.63736" lon="5.24903">
        <ele>94.45996</ele>
        <time>2020-07-28T12:49:42.208Z</time>
      </trkpt>
      <trkpt lat="61.63733" lon="5.24882">
        <ele>94.009918</ele>
        <time>2020-07-28T12:49:43.227Z</time>
      </trkpt>
      <trkpt lat="61.6373" lon="5.2486">
        <ele>93.559792</ele>
        <time>2020-07-28T12:49:44.244Z</time>
      </trkpt>
      <trkpt lat="61.63727" lon="5.24838">
        <ele>93.102282</ele>
        <time>2020-07-28T12:49:45.218Z</time>
      </trkpt>
      <trkpt lat="61.63724" lon="5.24816">
        <ele>92.638947</ele>
        <time>2020-07-28T12:49:46.241Z</time>
      </trkpt>
      <trkpt lat="61.63721" lon="5.24793">
        <ele>92.165233</ele>
        <time>2020-07-28T12:49:47.228Z</time>
      </trkpt>
      <trkpt lat="61.63718" lon="5.2477">
        <ele>91.693221</ele>
        <time>2020-07-28T12:49:48.223Z</time>
      </trkpt>
      <trkpt lat="61.63715" lon="5.24747">
        <ele>91.207171</ele>
        <time>2020-07-28T12:49:49.234Z</time>
      </trkpt>
      <trkpt lat="61.63712" lon="5.24724">
        <ele>90.716288</ele>
        <time>2020-07-28T12:49:50.242Z</time>
      </trkpt>
      <trkpt lat="61.63708" lon="5.247">
        <ele>90.216253</ele>
        <time>2020-07-28T12:49:51.257Z</time>
      </trkpt>
      <trkpt lat="61.63703" lon="5.24676">
        <ele>89.696819</ele>
        <time>2020-07-28T12:49:52.263Z</time>
      </trkpt>
      <trkpt lat="61.63699" lon="5.24651">
        <ele>89.174518</ele>
        <time>2020-07-28T12:49:53.236Z</time>
      </trkpt>
      <trkpt lat="61.63696" lon="5.24626">
        <ele>88.647245</ele>
        <time>2020-07-28T12:49:54.228Z</time>
      </trkpt>
      <trkpt lat="61.63692" lon="5.24601">
        <ele>88.106563</ele>
        <time>2020-07-28T12:49:55.216Z</time>
      </trkpt>
      <trkpt lat="61.63688" lon="5.24575">
        <ele>87.564627</ele>
        <time>2020-07-28T12:49:56.223Z</time>
      </trkpt>
      <trkpt lat="61.63684" lon="5.24549">
        <ele>87.087479</ele>
        <time>2020-07-28T12:49:57.234Z</time>
      </trkpt>
      <trkpt lat="61.6368" lon="5.24522">
        <ele>86.603093</ele>
        <time>2020-07-28T12:49:58.215Z</time>
      </trkpt>
      <trkpt lat="61.63676" lon="5.24495">
        <ele>86.118214</ele>
        <time>2020-07-28T12:49:59.219Z</time>
      </trkpt>
      <trkpt lat="61.63672" lon="5.24469">
        <ele>85.629442</ele>
        <time>2020-07-28T12:50:00.211Z</time>
      </trkpt>
      <trkpt lat="61.63669" lon="5.24442">
        <ele>85.14737</ele>
        <time>2020-07-28T12:50:01.203Z</time>
      </trkpt>
      <trkpt lat="61.63666" lon="5.24415">
        <ele>84.668656</ele>
        <time>2020-07-28T12:50:02.226Z</time>
      </trkpt>
      <trkpt lat="61.63662" lon="5.24389">
        <ele>84.19467</ele>
        <time>2020-07-28T12:50:03.215Z</time>
      </trkpt>
      <trkpt lat="61.63658" lon="5.24363">
        <ele>83.729024</ele>
        <time>2020-07-28T12:50:04.218Z</time>
      </trkpt>
      <trkpt lat="61.63655" lon="5.24338">
        <ele>83.275431</ele>
        <time>2020-07-28T12:50:05.242Z</time>
      </trkpt>
      <trkpt lat="61.63651" lon="5.24313">
        <ele>82.819776</ele>
        <time>2020-07-28T12:50:06.230Z</time>
      </trkpt>
      <trkpt lat="61.63648" lon="5.24287">
        <ele>82.357113</ele>
        <time>2020-07-28T12:50:07.214Z</time>
      </trkpt>
      <trkpt lat="61.63645" lon="5.24262">
        <ele>81.903518</ele>
        <time>2020-07-28T12:50:08.243Z</time>
      </trkpt>
      <trkpt lat="61.63641" lon="5.24237">
        <ele>81.454261</ele>
        <time>2020-07-28T12:50:09.263Z</time>
      </trkpt>
      <trkpt lat="61.63638" lon="5.24213">
        <ele>81.00798</ele>
        <time>2020-07-28T12:50:10.206Z</time>
      </trkpt>
      <trkpt lat="61.63634" lon="5.24188">
        <ele>80.750205</ele>
        <time>2020-07-28T12:50:11.213Z</time>
      </trkpt>
      <trkpt lat="61.63631" lon="5.24163">
        <ele>80.502197</ele>
        <time>2020-07-28T12:50:12.222Z</time>
      </trkpt>
      <trkpt lat="61.63627" lon="5.24139">
        <ele>80.258221</ele>
        <time>2020-07-28T12:50:13.216Z</time>
      </trkpt>
      <trkpt lat="61.63624" lon="5.24116">
        <ele>80.019155</ele>
        <time>2020-07-28T12:50:14.218Z</time>
      </trkpt>
      <trkpt lat="61.6362" lon="5.24092">
        <ele>79.783187</ele>
        <time>2020-07-28T12:50:15.229Z</time>
      </trkpt>
      <trkpt lat="61.63617" lon="5.2407">
        <ele>79.554579</ele>
        <time>2020-07-28T12:50:16.206Z</time>
      </trkpt>
      <trkpt lat="61.63614" lon="5.24048">
        <ele>79.334562</ele>
        <time>2020-07-28T12:50:17.225Z</time>
      </trkpt>
      <trkpt lat="61.63611" lon="5.24026">
        <ele>79.114709</ele>
        <time>2020-07-28T12:50:18.269Z</time>
      </trkpt>
      <trkpt lat="61.63609" lon="5.24004">
        <ele>78.893383</ele>
        <time>2020-07-28T12:50:19.236Z</time>
      </trkpt>
      <trkpt lat="61.63606" lon="5.23982">
        <ele>78.673924</ele>
        <time>2020-07-28T12:50:20.232Z</time>
      </trkpt>
      <trkpt lat="61.63603" lon="5.23962">
        <ele>78.465832</ele>
        <time>2020-07-28T12:50:21.229Z</time>
      </trkpt>
      <trkpt lat="61.636" lon="5.23942">
        <ele>78.263707</ele>
        <time>2020-07-28T12:50:22.218Z</time>
      </trkpt>
      <trkpt lat="61.63597" lon="5.23922">
        <ele>78.060997</ele>
        <time>2020-07-28T12:50:23.224Z</time>
      </trkpt>
      <trkpt lat="61.63595" lon="5.23902">
        <ele>77.864097</ele>
        <time>2020-07-28T12:50:24.243Z</time>
      </trkpt>
      <trkpt lat="61.63592" lon="5.23883">
        <ele>77.669236</ele>
        <time>2020-07-28T12:50:25.233Z</time>
      </trkpt>
      <trkpt lat="61.6359" lon="5.23864">
        <ele>77.479163</ele>
        <time>2020-07-28T12:50:26.232Z</time>
      </trkpt>
      <trkpt lat="61.63588" lon="5.23844">
        <ele>77.277889</ele>
        <time>2020-07-28T12:50:27.231Z</time>
      </trkpt>
      <trkpt lat="61.63585" lon="5.23808">
        <ele>76.827014</ele>
        <time>2020-07-28T12:50:29.224Z</time>
      </trkpt>
      <trkpt lat="61.63585" lon="5.23773">
        <ele>76.400567</ele>
        <time>2020-07-28T12:50:31.226Z</time>
      </trkpt>
      <trkpt lat="61.63585" lon="5.23739">
        <ele>75.98821</ele>
        <time>2020-07-28T12:50:33.227Z</time>
      </trkpt>
      <trkpt lat="61.63585" lon="5.23707">
        <ele>75.591082</ele>
        <time>2020-07-28T12:50:35.211Z</time>
      </trkpt>
      <trkpt lat="61.63587" lon="5.23676">
        <ele>75.206631</ele>
        <time>2020-07-28T12:50:37.227Z</time>
      </trkpt>
      <trkpt lat="61.63588" lon="5.23646">
        <ele>74.840688</ele>
        <time>2020-07-28T12:50:39.218Z</time>
      </trkpt>
      <trkpt lat="61.63589" lon="5.23618">
        <ele>74.495467</ele>
        <time>2020-07-28T12:50:41.235Z</time>
      </trkpt>
      <trkpt lat="61.6359" lon="5.23593">
        <ele>74.195035</ele>
        <time>2020-07-28T12:50:43.216Z</time>
      </trkpt>
      <trkpt lat="61.63592" lon="5.23572">
        <ele>73.929547</ele>
        <time>2020-07-28T12:50:45.260Z</time>
      </trkpt>
      <trkpt lat="61.63593" lon="5.23553">
        <ele>73.697442</ele>
        <time>2020-07-28T12:50:47.221Z</time>
      </trkpt>
      <trkpt lat="61.63596" lon="5.23527">
        <ele>73.375756</ele>
        <time>2020-07-28T12:50:50.218Z</time>
      </trkpt>
      <trkpt lat="61.63598" lon="5.23505">
        <ele>73.095872</ele>
        <time>2020-07-28T12:50:53.212Z</time>
      </trkpt>
      <trkpt lat="61.636" lon="5.23486">
        <ele>72.856147</ele>
        <time>2020-07-28T12:50:56.205Z</time>
      </trkpt>
      <trkpt lat="61.63601" lon="5.23462">
        <ele>73.009553</ele>
        <time>2020-07-28T12:51:00.235Z</time>
      </trkpt>
      <trkpt lat="61.63602" lon="5.23439">
        <ele>73.717897</ele>
        <time>2020-07-28T12:51:04.216Z</time>
      </trkpt>
      <trkpt lat="61.63602" lon="5.23417">
        <ele>74.382158</ele>
        <time>2020-07-28T12:51:08.217Z</time>
      </trkpt>
      <trkpt lat="61.63602" lon="5.23395">
        <ele>75.043145</ele>
        <time>2020-07-28T12:51:12.223Z</time>
      </trkpt>
      <trkpt lat="61.63601" lon="5.23374">
        <ele>75.668365</ele>
        <time>2020-07-28T12:51:16.249Z</time>
      </trkpt>
      <trkpt lat="61.63602" lon="5.23351">
        <ele>76.352257</ele>
        <time>2020-07-28T12:51:21.221Z</time>
      </trkpt>
      <trkpt lat="61.63602" lon="5.23332">
        <ele>76.920984</ele>
        <time>2020-07-28T12:51:25.214Z</time>
      </trkpt>
      <trkpt lat="61.63602" lon="5.2331">
        <ele>77.582</ele>
        <time>2020-07-28T12:51:29.221Z</time>
      </trkpt>
      <trkpt lat="61.636" lon="5.23291">
        <ele>78.178832</ele>
        <time>2020-07-28T12:51:33.216Z</time>
      </trkpt>
      <trkpt lat="61.63597" lon="5.23272">
        <ele>78.749218</ele>
        <time>2020-07-28T12:51:37.216Z</time>
      </trkpt>
      <trkpt lat="61.63596" lon="5.23252">
        <ele>79.364771</ele>
        <time>2020-07-28T12:51:41.235Z</time>
      </trkpt>
      <trkpt lat="61.63595" lon="5.23233">
        <ele>79.942449</ele>
        <time>2020-07-28T12:51:45.222Z</time>
      </trkpt>
      <trkpt lat="61.63593" lon="5.2321">
        <ele>80.642796</ele>
        <time>2020-07-28T12:51:50.247Z</time>
      </trkpt>
      <trkpt lat="61.63592" lon="5.23187">
        <ele>81.32475</ele>
        <time>2020-07-28T12:51:55.218Z</time>
      </trkpt>
      <trkpt lat="61.6359" lon="5.23166">
        <ele>81.998542</ele>
        <time>2020-07-28T12:52:00.216Z</time>
      </trkpt>
      <trkpt lat="61.63587" lon="5.23147">
        <ele>82.579314</ele>
        <time>2020-07-28T12:52:04.230Z</time>
      </trkpt>
      <trkpt lat="61.63586" lon="5.23126">
        <ele>83.221287</ele>
        <time>2020-07-28T12:52:09.276Z</time>
      </trkpt>
      <trkpt lat="61.63585" lon="5.23106">
        <ele>83.805394</ele>
        <time>2020-07-28T12:52:13.237Z</time>
      </trkpt>
      <trkpt lat="61.63584" lon="5.23084">
        <ele>84.362936</ele>
        <time>2020-07-28T12:52:18.210Z</time>
      </trkpt>
      <trkpt lat="61.63582" lon="5.23064">
        <ele>84.810109</ele>
        <time>2020-07-28T12:52:23.246Z</time>
      </trkpt>
      <trkpt lat="61.63581" lon="5.23041">
        <ele>85.306128</ele>
        <time>2020-07-28T12:52:28.214Z</time>
      </trkpt>
      <trkpt lat="61.63579" lon="5.23018">
        <ele>85.799859</ele>
        <time>2020-07-28T12:52:33.220Z</time>
      </trkpt>
      <trkpt lat="61.63578" lon="5.23">
        <ele>86.206286</ele>
        <time>2020-07-28T12:52:37.215Z</time>
      </trkpt>
      <trkpt lat="61.63577" lon="5.22977">
        <ele>86.694644</ele>
        <time>2020-07-28T12:52:42.236Z</time>
      </trkpt>
      <trkpt lat="61.63575" lon="5.22958">
        <ele>87.12802</ele>
        <time>2020-07-28T12:52:46.296Z</time>
      </trkpt>
      <trkpt lat="61.63572" lon="5.22935">
        <ele>87.620213</ele>
        <time>2020-07-28T12:52:51.232Z</time>
      </trkpt>
      <trkpt lat="61.6357" lon="5.22914">
        <ele>88.089788</ele>
        <time>2020-07-28T12:52:56.210Z</time>
      </trkpt>
      <trkpt lat="61.6357" lon="5.22891">
        <ele>88.596689</ele>
        <time>2020-07-28T12:53:01.230Z</time>
      </trkpt>
      <trkpt lat="61.63569" lon="5.22868">
        <ele>89.091673</ele>
        <time>2020-07-28T12:53:06.220Z</time>
      </trkpt>
      <trkpt lat="61.63567" lon="5.22847">
        <ele>89.544299</ele>
        <time>2020-07-28T12:53:11.236Z</time>
      </trkpt>
      <trkpt lat="61.63564" lon="5.22829">
        <ele>89.962495</ele>
        <time>2020-07-28T12:53:16.229Z</time>
      </trkpt>
      <trkpt lat="61.63561" lon="5.22809">
        <ele>90.395701</ele>
        <time>2020-07-28T12:53:21.226Z</time>
      </trkpt>
      <trkpt lat="61.63559" lon="5.22791">
        <ele>90.80849</ele>
        <time>2020-07-28T12:53:26.237Z</time>
      </trkpt>
      <trkpt lat="61.63555" lon="5.22771">
        <ele>91.274805</ele>
        <time>2020-07-28T12:53:32.228Z</time>
      </trkpt>
      <trkpt lat="61.63553" lon="5.2275">
        <ele>91.74385</ele>
        <time>2020-07-28T12:53:39.210Z</time>
      </trkpt>
      <trkpt lat="61.63551" lon="5.22729">
        <ele>92.191238</ele>
        <time>2020-07-28T12:53:46.313Z</time>
      </trkpt>
      <trkpt lat="61.63548" lon="5.22709">
        <ele>92.840268</ele>
        <time>2020-07-28T12:53:53.209Z</time>
      </trkpt>
      <trkpt lat="61.63548" lon="5.2269">
        <ele>93.436695</ele>
        <time>2020-07-28T12:53:59.231Z</time>
      </trkpt>
      <trkpt lat="61.63548" lon="5.22668">
        <ele>94.10195</ele>
        <time>2020-07-28T12:54:06.227Z</time>
      </trkpt>
      <trkpt lat="61.63551" lon="5.2265">
        <ele>94.708101</ele>
        <time>2020-07-28T12:54:12.234Z</time>
      </trkpt>
      <trkpt lat="61.6355" lon="5.22631">
        <ele>95.301406</ele>
        <time>2020-07-28T12:54:18.227Z</time>
      </trkpt>
      <trkpt lat="61.63551" lon="5.22611">
        <ele>95.92125</ele>
        <time>2020-07-28T12:54:26.232Z</time>
      </trkpt>
      <trkpt lat="61.63587" lon="5.22382">
        <ele>103.447722</ele>
        <time>2020-07-28T12:55:46.303Z</time>
      </trkpt>
      <trkpt lat="61.63577" lon="5.22373">
        <ele>104.317154</ele>
        <time>2020-07-28T12:55:47.227Z</time>
      </trkpt>
      <trkpt lat="61.63565" lon="5.22359">
        <ele>105.800263</ele>
        <time>2020-07-28T12:55:49.224Z</time>
      </trkpt>
      <trkpt lat="61.63559" lon="5.22342">
        <ele>106.932303</ele>
        <time>2020-07-28T12:55:55.233Z</time>
      </trkpt>
      <trkpt lat="61.63562" lon="5.22323">
        <ele>107.997274</ele>
        <time>2020-07-28T12:56:05.225Z</time>
      </trkpt>
      <trkpt lat="61.63562" lon="5.22302">
        <ele>109.123132</ele>
        <time>2020-07-28T12:56:12.224Z</time>
      </trkpt>
      <trkpt lat="61.6356" lon="5.22282">
        <ele>110.23843</ele>
        <time>2020-07-28T12:56:19.210Z</time>
      </trkpt>
      <trkpt lat="61.63561" lon="5.2226">
        <ele>111.406134</ele>
        <time>2020-07-28T12:56:27.206Z</time>
      </trkpt>
      <trkpt lat="61.63558" lon="5.2224">
        <ele>112.504762</ele>
        <time>2020-07-28T12:56:33.231Z</time>
      </trkpt>
      <trkpt lat="61.63556" lon="5.22219">
        <ele>113.664193</ele>
        <time>2020-07-28T12:56:40.247Z</time>
      </trkpt>
      <trkpt lat="61.63554" lon="5.222">
        <ele>114.727056</ele>
        <time>2020-07-28T12:56:46.228Z</time>
      </trkpt>
      <trkpt lat="61.63555" lon="5.22181">
        <ele>115.748417</ele>
        <time>2020-07-28T12:56:52.233Z</time>
      </trkpt>
      <trkpt lat="61.63557" lon="5.22162">
        <ele>116.810421</ele>
        <time>2020-07-28T12:56:58.246Z</time>
      </trkpt>
      <trkpt lat="61.63558" lon="5.2214">
        <ele>118.00783</ele>
        <time>2020-07-28T12:57:04.212Z</time>
      </trkpt>
      <trkpt lat="61.6356" lon="5.22121">
        <ele>119.025569</ele>
        <time>2020-07-28T12:57:09.231Z</time>
      </trkpt>
      <trkpt lat="61.63562" lon="5.22103">
        <ele>120.066674</ele>
        <time>2020-07-28T12:57:14.212Z</time>
      </trkpt>
      <trkpt lat="61.63565" lon="5.22082">
        <ele>121.213625</ele>
        <time>2020-07-28T12:57:19.219Z</time>
      </trkpt>
      <trkpt lat="61.63567" lon="5.22063">
        <ele>122.249549</ele>
        <time>2020-07-28T12:57:24.233Z</time>
      </trkpt>
      <trkpt lat="61.6357" lon="5.22043">
        <ele>123.404831</ele>
        <time>2020-07-28T12:57:30.211Z</time>
      </trkpt>
      <trkpt lat="61.63572" lon="5.22023">
        <ele>124.463367</ele>
        <time>2020-07-28T12:57:36.232Z</time>
      </trkpt>
      <trkpt lat="61.63572" lon="5.22003">
        <ele>125.145314</ele>
        <time>2020-07-28T12:57:43.228Z</time>
      </trkpt>
      <trkpt lat="61.63571" lon="5.21981">
        <ele>125.912961</ele>
        <time>2020-07-28T12:57:50.232Z</time>
      </trkpt>
      <trkpt lat="61.63568" lon="5.21963">
        <ele>126.588473</ele>
        <time>2020-07-28T12:57:56.234Z</time>
      </trkpt>
      <trkpt lat="61.63565" lon="5.21942">
        <ele>127.347193</ele>
        <time>2020-07-28T12:58:03.227Z</time>
      </trkpt>
      <trkpt lat="61.6356" lon="5.21926">
        <ele>128.028089</ele>
        <time>2020-07-28T12:58:09.224Z</time>
      </trkpt>
      <trkpt lat="61.63556" lon="5.21908">
        <ele>128.710805</ele>
        <time>2020-07-28T12:58:15.236Z</time>
      </trkpt>
      <trkpt lat="61.6355" lon="5.21891">
        <ele>129.446142</ele>
        <time>2020-07-28T12:58:22.273Z</time>
      </trkpt>
      <trkpt lat="61.63546" lon="5.21872">
        <ele>130.156478</ele>
        <time>2020-07-28T12:58:28.208Z</time>
      </trkpt>
      <trkpt lat="61.63541" lon="5.21854">
        <ele>130.882948</ele>
        <time>2020-07-28T12:58:34.248Z</time>
      </trkpt>
      <trkpt lat="61.63538" lon="5.21834">
        <ele>131.621988</ele>
        <time>2020-07-28T12:58:40.245Z</time>
      </trkpt>
      <trkpt lat="61.63534" lon="5.21815">
        <ele>132.329337</ele>
        <time>2020-07-28T12:58:47.224Z</time>
      </trkpt>
      <trkpt lat="61.63529" lon="5.21798">
        <ele>133.0428</ele>
        <time>2020-07-28T12:58:54.230Z</time>
      </trkpt>
      <trkpt lat="61.63524" lon="5.21779">
        <ele>133.802673</ele>
        <time>2020-07-28T12:59:01.223Z</time>
      </trkpt>
      <trkpt lat="61.63519" lon="5.21761">
        <ele>134.507661</ele>
        <time>2020-07-28T12:59:08.214Z</time>
      </trkpt>
      <trkpt lat="61.63514" lon="5.21744">
        <ele>135.212198</ele>
        <time>2020-07-28T12:59:15.226Z</time>
      </trkpt>
      <trkpt lat="61.6351" lon="5.21725">
        <ele>135.912075</ele>
        <time>2020-07-28T12:59:22.222Z</time>
      </trkpt>
      <trkpt lat="61.63505" lon="5.21708">
        <ele>136.629328</ele>
        <time>2020-07-28T12:59:29.231Z</time>
      </trkpt>
      <trkpt lat="61.63503" lon="5.21688">
        <ele>137.324992</ele>
        <time>2020-07-28T12:59:36.221Z</time>
      </trkpt>
      <trkpt lat="61.63501" lon="5.21668">
        <ele>137.758951</ele>
        <time>2020-07-28T12:59:43.232Z</time>
      </trkpt>
      <trkpt lat="61.63498" lon="5.21648">
        <ele>138.035701</ele>
        <time>2020-07-28T12:59:50.229Z</time>
      </trkpt>
      <trkpt lat="61.63498" lon="5.21628">
        <ele>138.301697</ele>
        <time>2020-07-28T12:59:57.245Z</time>
      </trkpt>
      <trkpt lat="61.63497" lon="5.21607">
        <ele>138.589989</ele>
        <time>2020-07-28T13:00:04.226Z</time>
      </trkpt>
      <trkpt lat="61.63499" lon="5.21587">
        <ele>138.864116</ele>
        <time>2020-07-28T13:00:10.243Z</time>
      </trkpt>
      <trkpt lat="61.63499" lon="5.21566">
        <ele>139.136213</ele>
        <time>2020-07-28T13:00:17.260Z</time>
      </trkpt>
      <trkpt lat="61.635" lon="5.21546">
        <ele>139.416358</ele>
        <time>2020-07-28T13:00:24.226Z</time>
      </trkpt>
      <trkpt lat="61.63504" lon="5.21526">
        <ele>139.698894</ele>
        <time>2020-07-28T13:00:31.245Z</time>
      </trkpt>
      <trkpt lat="61.63508" lon="5.21509">
        <ele>139.954096</ele>
        <time>2020-07-28T13:00:37.216Z</time>
      </trkpt>
      <trkpt lat="61.63514" lon="5.21493">
        <ele>140.227332</ele>
        <time>2020-07-28T13:00:43.213Z</time>
      </trkpt>
      <trkpt lat="61.6352" lon="5.21479">
        <ele>140.48262</ele>
        <time>2020-07-28T13:00:49.216Z</time>
      </trkpt>
      <trkpt lat="61.63529" lon="5.21466">
        <ele>140.775591</ele>
        <time>2020-07-28T13:00:56.208Z</time>
      </trkpt>
      <trkpt lat="61.63537" lon="5.21455">
        <ele>141.049561</ele>
        <time>2020-07-28T13:01:02.265Z</time>
      </trkpt>
      <trkpt lat="61.63545" lon="5.21443">
        <ele>141.333342</ele>
        <time>2020-07-28T13:01:09.226Z</time>
      </trkpt>
      <trkpt lat="61.63554" lon="5.21433">
        <ele>141.610109</ele>
        <time>2020-07-28T13:01:16.223Z</time>
      </trkpt>
      <trkpt lat="61.63563" lon="5.21427">
        <ele>141.890747</ele>
        <time>2020-07-28T13:01:24.292Z</time>
      </trkpt>
      <trkpt lat="61.63573" lon="5.21429">
        <ele>142.168036</ele>
        <time>2020-07-28T13:01:31.217Z</time>
      </trkpt>
      <trkpt lat="61.63582" lon="5.21432">
        <ele>142.430766</ele>
        <time>2020-07-28T13:01:37.227Z</time>
      </trkpt>
      <trkpt lat="61.63591" lon="5.21434">
        <ele>142.756872</ele>
        <time>2020-07-28T13:01:44.250Z</time>
      </trkpt>
      <trkpt lat="61.636" lon="5.21441">
        <ele>143.604907</ele>
        <time>2020-07-28T13:01:52.259Z</time>
      </trkpt>
      <trkpt lat="61.6361" lon="5.2145">
        <ele>144.465158</ele>
        <time>2020-07-28T13:01:59.230Z</time>
      </trkpt>
      <trkpt lat="61.63617" lon="5.21463">
        <ele>145.308619</ele>
        <time>2020-07-28T13:02:06.230Z</time>
      </trkpt>
      <trkpt lat="61.63623" lon="5.21479">
        <ele>146.160399</ele>
        <time>2020-07-28T13:02:13.235Z</time>
      </trkpt>
      <trkpt lat="61.63629" lon="5.21495">
        <ele>147.016224</ele>
        <time>2020-07-28T13:02:22.232Z</time>
      </trkpt>
      <trkpt lat="61.63634" lon="5.21513">
        <ele>147.855239</ele>
        <time>2020-07-28T13:02:31.226Z</time>
      </trkpt>
      <trkpt lat="61.63637" lon="5.21531">
        <ele>148.628813</ele>
        <time>2020-07-28T13:02:38.248Z</time>
      </trkpt>
      <trkpt lat="61.63641" lon="5.21549">
        <ele>149.444882</ele>
        <time>2020-07-28T13:02:46.246Z</time>
      </trkpt>
      <trkpt lat="61.63645" lon="5.21566">
        <ele>150.231849</ele>
        <time>2020-07-28T13:02:52.251Z</time>
      </trkpt>
      <trkpt lat="61.63648" lon="5.21586">
        <ele>151.097066</ele>
        <time>2020-07-28T13:02:59.240Z</time>
      </trkpt>
      <trkpt lat="61.63652" lon="5.21606">
        <ele>151.954535</ele>
        <time>2020-07-28T13:03:07.224Z</time>
      </trkpt>
      <trkpt lat="61.63655" lon="5.21624">
        <ele>152.738643</ele>
        <time>2020-07-28T13:03:14.226Z</time>
      </trkpt>
      <trkpt lat="61.63659" lon="5.21642">
        <ele>153.584238</ele>
        <time>2020-07-28T13:03:22.223Z</time>
      </trkpt>
      <trkpt lat="61.63664" lon="5.21661">
        <ele>154.47225</ele>
        <time>2020-07-28T13:03:30.258Z</time>
      </trkpt>
      <trkpt lat="61.6367" lon="5.21678">
        <ele>155.316705</ele>
        <time>2020-07-28T13:03:37.249Z</time>
      </trkpt>
      <trkpt lat="61.63677" lon="5.21692">
        <ele>156.185599</ele>
        <time>2020-07-28T13:03:44.217Z</time>
      </trkpt>
      <trkpt lat="61.63686" lon="5.21701">
        <ele>157.061154</ele>
        <time>2020-07-28T13:03:51.238Z</time>
      </trkpt>
      <trkpt lat="61.63696" lon="5.21704">
        <ele>157.920923</ele>
        <time>2020-07-28T13:03:59.228Z</time>
      </trkpt>
      <trkpt lat="61.63706" lon="5.21696">
        <ele>159.246305</ele>
        <time>2020-07-28T13:04:07.253Z</time>
      </trkpt>
      <trkpt lat="61.63713" lon="5.21686">
        <ele>160.595416</ele>
        <time>2020-07-28T13:04:13.228Z</time>
      </trkpt>
      <trkpt lat="61.63722" lon="5.21672">
        <ele>162.186034</ele>
        <time>2020-07-28T13:04:21.213Z</time>
      </trkpt>
      <trkpt lat="61.63726" lon="5.21652">
        <ele>163.731142</ele>
        <time>2020-07-28T13:04:32.214Z</time>
      </trkpt>
      <trkpt lat="61.63729" lon="5.21634">
        <ele>165.133478</ele>
        <time>2020-07-28T13:04:39.240Z</time>
      </trkpt>
      <trkpt lat="61.63732" lon="5.21615">
        <ele>166.51594</ele>
        <time>2020-07-28T13:04:49.282Z</time>
      </trkpt>
      <trkpt lat="61.63735" lon="5.21595">
        <ele>168.058691</ele>
        <time>2020-07-28T13:05:01.233Z</time>
      </trkpt>
      <trkpt lat="61.63739" lon="5.21575">
        <ele>169.590811</ele>
        <time>2020-07-28T13:05:08.225Z</time>
      </trkpt>
      <trkpt lat="61.63743" lon="5.21557">
        <ele>171.059924</ele>
        <time>2020-07-28T13:05:16.215Z</time>
      </trkpt>
      <trkpt lat="61.63746" lon="5.21538">
        <ele>172.428528</ele>
        <time>2020-07-28T13:05:24.215Z</time>
      </trkpt>
      <trkpt lat="61.63748" lon="5.21519">
        <ele>173.850496</ele>
        <time>2020-07-28T13:05:31.243Z</time>
      </trkpt>
      <trkpt lat="61.63752" lon="5.215">
        <ele>175.342366</ele>
        <time>2020-07-28T13:05:41.238Z</time>
      </trkpt>
      <trkpt lat="61.63754" lon="5.21481">
        <ele>176.759489</ele>
        <time>2020-07-28T13:05:47.253Z</time>
      </trkpt>
      <trkpt lat="61.63757" lon="5.21462">
        <ele>178.163583</ele>
        <time>2020-07-28T13:05:54.217Z</time>
      </trkpt>
      <trkpt lat="61.63759" lon="5.21441">
        <ele>179.690165</ele>
        <time>2020-07-28T13:06:02.213Z</time>
      </trkpt>
      <trkpt lat="61.63761" lon="5.21421">
        <ele>181.179475</ele>
        <time>2020-07-28T13:06:10.252Z</time>
      </trkpt>
      <trkpt lat="61.6376" lon="5.214">
        <ele>182.668774</ele>
        <time>2020-07-28T13:06:18.236Z</time>
      </trkpt>
      <trkpt lat="61.63758" lon="5.21379">
        <ele>184.214582</ele>
        <time>2020-07-28T13:06:25.214Z</time>
      </trkpt>
      <trkpt lat="61.63754" lon="5.21359">
        <ele>185.391128</ele>
        <time>2020-07-28T13:06:34.245Z</time>
      </trkpt>
      <trkpt lat="61.63751" lon="5.21341">
        <ele>185.714207</ele>
        <time>2020-07-28T13:06:42.222Z</time>
      </trkpt>
      <trkpt lat="61.63748" lon="5.21322">
        <ele>186.037501</ele>
        <time>2020-07-28T13:06:49.213Z</time>
      </trkpt>
      <trkpt lat="61.63744" lon="5.21305">
        <ele>186.359078</ele>
        <time>2020-07-28T13:06:56.238Z</time>
      </trkpt>
      <trkpt lat="61.63738" lon="5.21287">
        <ele>186.708678</ele>
        <time>2020-07-28T13:07:07.221Z</time>
      </trkpt>
      <trkpt lat="61.63735" lon="5.21267">
        <ele>187.05429</ele>
        <time>2020-07-28T13:07:13.250Z</time>
      </trkpt>
      <trkpt lat="61.63732" lon="5.21248">
        <ele>187.407717</ele>
        <time>2020-07-28T13:07:22.230Z</time>
      </trkpt>
      <trkpt lat="61.63729" lon="5.21228">
        <ele>187.742028</ele>
        <time>2020-07-28T13:07:29.252Z</time>
      </trkpt>
      <trkpt lat="61.63728" lon="5.21207">
        <ele>188.081119</ele>
        <time>2020-07-28T13:07:35.262Z</time>
      </trkpt>
      <trkpt lat="61.63726" lon="5.21187">
        <ele>188.428931</ele>
        <time>2020-07-28T13:07:42.224Z</time>
      </trkpt>
      <trkpt lat="61.63725" lon="5.21165">
        <ele>188.781179</ele>
        <time>2020-07-28T13:07:50.240Z</time>
      </trkpt>
      <trkpt lat="61.63726" lon="5.21146">
        <ele>189.106993</ele>
        <time>2020-07-28T13:07:56.218Z</time>
      </trkpt>
      <trkpt lat="61.63728" lon="5.21125">
        <ele>189.456701</ele>
        <time>2020-07-28T13:08:04.237Z</time>
      </trkpt>
      <trkpt lat="61.63731" lon="5.21105">
        <ele>189.80091</ele>
        <time>2020-07-28T13:08:12.232Z</time>
      </trkpt>
      <trkpt lat="61.63733" lon="5.21086">
        <ele>190.122368</ele>
        <time>2020-07-28T13:08:19.217Z</time>
      </trkpt>
      <trkpt lat="61.63736" lon="5.21066">
        <ele>190.461931</ele>
        <time>2020-07-28T13:08:27.209Z</time>
      </trkpt>
      <trkpt lat="61.63739" lon="5.21047">
        <ele>190.788171</ele>
        <time>2020-07-28T13:08:34.231Z</time>
      </trkpt>
      <trkpt lat="61.63743" lon="5.2103">
        <ele>191.120638</ele>
        <time>2020-07-28T13:08:41.222Z</time>
      </trkpt>
      <trkpt lat="61.63746" lon="5.21009">
        <ele>191.474115</ele>
        <time>2020-07-28T13:08:48.208Z</time>
      </trkpt>
      <trkpt lat="61.63751" lon="5.20992">
        <ele>192.249092</ele>
        <time>2020-07-28T13:08:54.227Z</time>
      </trkpt>
      <trkpt lat="61.63756" lon="5.20976">
        <ele>193.109924</ele>
        <time>2020-07-28T13:09:01.217Z</time>
      </trkpt>
      <trkpt lat="61.6376" lon="5.20956">
        <ele>194.10905</ele>
        <time>2020-07-28T13:09:09.236Z</time>
      </trkpt>
      <trkpt lat="61.63764" lon="5.20936">
        <ele>195.08455</ele>
        <time>2020-07-28T13:09:17.235Z</time>
      </trkpt>
      <trkpt lat="61.63766" lon="5.20917">
        <ele>195.948516</ele>
        <time>2020-07-28T13:09:25.243Z</time>
      </trkpt>
      <trkpt lat="61.63767" lon="5.20898">
        <ele>196.820495</ele>
        <time>2020-07-28T13:09:34.211Z</time>
      </trkpt>
      <trkpt lat="61.6377" lon="5.20879">
        <ele>197.727203</ele>
        <time>2020-07-28T13:09:43.230Z</time>
      </trkpt>
      <trkpt lat="61.63773" lon="5.2086">
        <ele>198.63967</ele>
        <time>2020-07-28T13:09:51.275Z</time>
      </trkpt>
      <trkpt lat="61.63775" lon="5.20841">
        <ele>199.516222</ele>
        <time>2020-07-28T13:09:59.219Z</time>
      </trkpt>
      <trkpt lat="61.63775" lon="5.2082">
        <ele>200.453087</ele>
        <time>2020-07-28T13:10:06.251Z</time>
      </trkpt>
      <trkpt lat="61.63774" lon="5.20801">
        <ele>201.317187</ele>
        <time>2020-07-28T13:10:13.267Z</time>
      </trkpt>
      <trkpt lat="61.63772" lon="5.20781">
        <ele>202.237963</ele>
        <time>2020-07-28T13:10:20.207Z</time>
      </trkpt>
      <trkpt lat="61.63773" lon="5.20761">
        <ele>203.131422</ele>
        <time>2020-07-28T13:10:27.215Z</time>
      </trkpt>
      <trkpt lat="61.63773" lon="5.20742">
        <ele>203.998673</ele>
        <time>2020-07-28T13:10:35.232Z</time>
      </trkpt>
      <trkpt lat="61.63773" lon="5.2072">
        <ele>204.987347</ele>
        <time>2020-07-28T13:10:45.250Z</time>
      </trkpt>
      <trkpt lat="61.63775" lon="5.20701">
        <ele>205.865773</ele>
        <time>2020-07-28T13:10:52.209Z</time>
      </trkpt>
      <trkpt lat="61.63774" lon="5.2068">
        <ele>206.807206</ele>
        <time>2020-07-28T13:11:00.220Z</time>
      </trkpt>
      <trkpt lat="61.63772" lon="5.20661">
        <ele>207.715388</ele>
        <time>2020-07-28T13:11:07.209Z</time>
      </trkpt>
      <trkpt lat="61.63771" lon="5.20641">
        <ele>208.616096</ele>
        <time>2020-07-28T13:11:14.204Z</time>
      </trkpt>
      <trkpt lat="61.63768" lon="5.20621">
        <ele>209.079332</ele>
        <time>2020-07-28T13:11:21.225Z</time>
      </trkpt>
      <trkpt lat="61.63769" lon="5.206">
        <ele>209.529982</ele>
        <time>2020-07-28T13:11:29.242Z</time>
      </trkpt>
      <trkpt lat="61.6377" lon="5.20579">
        <ele>209.992463</ele>
        <time>2020-07-28T13:11:37.226Z</time>
      </trkpt>
      <trkpt lat="61.6377" lon="5.20558">
        <ele>210.448725</ele>
        <time>2020-07-28T13:11:45.218Z</time>
      </trkpt>
      <trkpt lat="61.63771" lon="5.20539">
        <ele>210.886088</ele>
        <time>2020-07-28T13:11:54.222Z</time>
      </trkpt>
      <trkpt lat="61.63773" lon="5.20519">
        <ele>211.321892</ele>
        <time>2020-07-28T13:12:00.216Z</time>
      </trkpt>
      <trkpt lat="61.63774" lon="5.20498">
        <ele>211.787455</ele>
        <time>2020-07-28T13:12:07.268Z</time>
      </trkpt>
      <trkpt lat="61.63774" lon="5.20477">
        <ele>212.243809</ele>
        <time>2020-07-28T13:12:15.240Z</time>
      </trkpt>
      <trkpt lat="61.63773" lon="5.20456">
        <ele>212.69689</ele>
        <time>2020-07-28T13:12:23.232Z</time>
      </trkpt>
      <trkpt lat="61.63772" lon="5.20436">
        <ele>213.141219</ele>
        <time>2020-07-28T13:12:31.278Z</time>
      </trkpt>
      <trkpt lat="61.63774" lon="5.20416">
        <ele>213.581302</ele>
        <time>2020-07-28T13:12:39.224Z</time>
      </trkpt>
      <trkpt lat="61.63776" lon="5.20395">
        <ele>214.055061</ele>
        <time>2020-07-28T13:12:46.223Z</time>
      </trkpt>
      <trkpt lat="61.63778" lon="5.20375">
        <ele>214.498974</ele>
        <time>2020-07-28T13:12:54.232Z</time>
      </trkpt>
      <trkpt lat="61.63779" lon="5.20355">
        <ele>214.941126</ele>
        <time>2020-07-28T13:13:02.238Z</time>
      </trkpt>
      <trkpt lat="61.6378" lon="5.20335">
        <ele>215.388836</ele>
        <time>2020-07-28T13:13:10.239Z</time>
      </trkpt>
      <trkpt lat="61.6378" lon="5.20315">
        <ele>215.825545</ele>
        <time>2020-07-28T13:13:17.224Z</time>
      </trkpt>
      <trkpt lat="61.63781" lon="5.20295">
        <ele>216.247731</ele>
        <time>2020-07-28T13:13:24.223Z</time>
      </trkpt>
      <trkpt lat="61.63784" lon="5.20275">
        <ele>216.703323</ele>
        <time>2020-07-28T13:13:31.236Z</time>
      </trkpt>
      <trkpt lat="61.63787" lon="5.20255">
        <ele>217.183525</ele>
        <time>2020-07-28T13:13:38.236Z</time>
      </trkpt>
      <trkpt lat="61.6379" lon="5.20234">
        <ele>217.68419</ele>
        <time>2020-07-28T13:13:45.239Z</time>
      </trkpt>
      <trkpt lat="61.63794" lon="5.20216">
        <ele>218.158517</ele>
        <time>2020-07-28T13:13:52.273Z</time>
      </trkpt>
      <trkpt lat="61.63799" lon="5.20199">
        <ele>218.627411</ele>
        <time>2020-07-28T13:13:59.219Z</time>
      </trkpt>
      <trkpt lat="61.63806" lon="5.20182">
        <ele>219.131156</ele>
        <time>2020-07-28T13:14:05.215Z</time>
      </trkpt>
      <trkpt lat="61.63812" lon="5.20165">
        <ele>219.619949</ele>
        <time>2020-07-28T13:14:12.227Z</time>
      </trkpt>
      <trkpt lat="61.63817" lon="5.20149">
        <ele>220.073256</ele>
        <time>2020-07-28T13:14:18.228Z</time>
      </trkpt>
      <trkpt lat="61.63824" lon="5.20136">
        <ele>220.54111</ele>
        <time>2020-07-28T13:14:25.212Z</time>
      </trkpt>
      <trkpt lat="61.63832" lon="5.20124">
        <ele>221.00477</ele>
        <time>2020-07-28T13:14:31.246Z</time>
      </trkpt>
      <trkpt lat="61.6384" lon="5.2011">
        <ele>221.507491</ele>
        <time>2020-07-28T13:14:36.227Z</time>
      </trkpt>
      <trkpt lat="61.63847" lon="5.20098">
        <ele>221.961247</ele>
        <time>2020-07-28T13:14:40.235Z</time>
      </trkpt>
      <trkpt lat="61.63855" lon="5.20086">
        <ele>222.403735</ele>
        <time>2020-07-28T13:14:46.233Z</time>
      </trkpt>
      <trkpt lat="61.63864" lon="5.20076">
        <ele>222.899282</ele>
        <time>2020-07-28T13:14:54.214Z</time>
      </trkpt>
      <trkpt lat="61.63873" lon="5.20068">
        <ele>223.396977</ele>
        <time>2020-07-28T13:15:00.227Z</time>
      </trkpt>
      <trkpt lat="61.63884" lon="5.20065">
        <ele>223.915638</ele>
        <time>2020-07-28T13:15:06.214Z</time>
      </trkpt>
      <trkpt lat="61.63894" lon="5.20063">
        <ele>224.428888</ele>
        <time>2020-07-28T13:15:12.268Z</time>
      </trkpt>
      <trkpt lat="61.63904" lon="5.2006">
        <ele>224.915809</ele>
        <time>2020-07-28T13:15:18.225Z</time>
      </trkpt>
      <trkpt lat="61.63913" lon="5.20054">
        <ele>225.367362</ele>
        <time>2020-07-28T13:15:24.222Z</time>
      </trkpt>
      <trkpt lat="61.63922" lon="5.20044">
        <ele>225.908436</ele>
        <time>2020-07-28T13:15:31.245Z</time>
      </trkpt>
      <trkpt lat="61.6393" lon="5.20033">
        <ele>226.481768</ele>
        <time>2020-07-28T13:15:38.209Z</time>
      </trkpt>
      <trkpt lat="61.63935" lon="5.20016">
        <ele>227.07235</ele>
        <time>2020-07-28T13:15:46.222Z</time>
      </trkpt>
      <trkpt lat="61.63939" lon="5.19997">
        <ele>227.682394</ele>
        <time>2020-07-28T13:15:54.217Z</time>
      </trkpt>
      <trkpt lat="61.63955" lon="5.1998">
        <ele>228.725844</ele>
        <time>2020-07-28T13:26:38.245Z</time>
      </trkpt>
      <trkpt lat="61.63962" lon="5.19968">
        <ele>229.285047</ele>
        <time>2020-07-28T13:26:43.244Z</time>
      </trkpt>
      <trkpt lat="61.63969" lon="5.19953">
        <ele>229.89133</ele>
        <time>2020-07-28T13:26:48.232Z</time>
      </trkpt>
      <trkpt lat="61.63975" lon="5.1994">
        <ele>230.441111</ele>
        <time>2020-07-28T13:26:53.221Z</time>
      </trkpt>
      <trkpt lat="61.63983" lon="5.19926">
        <ele>231.045725</ele>
        <time>2020-07-28T13:26:59.232Z</time>
      </trkpt>
      <trkpt lat="61.6399" lon="5.19913">
        <ele>231.620545</ele>
        <time>2020-07-28T13:27:04.264Z</time>
      </trkpt>
      <trkpt lat="61.63998" lon="5.19902">
        <ele>232.192297</ele>
        <time>2020-07-28T13:27:09.223Z</time>
      </trkpt>
      <trkpt lat="61.64006" lon="5.19893">
        <ele>232.773966</ele>
        <time>2020-07-28T13:27:14.231Z</time>
      </trkpt>
      <trkpt lat="61.64015" lon="5.19887">
        <ele>233.319993</ele>
        <time>2020-07-28T13:27:19.211Z</time>
      </trkpt>
      <trkpt lat="61.64023" lon="5.19881">
        <ele>233.86602</ele>
        <time>2020-07-28T13:27:25.235Z</time>
      </trkpt>
      <trkpt lat="61.64032" lon="5.19879">
        <ele>234.41534</ele>
        <time>2020-07-28T13:27:32.232Z</time>
      </trkpt>
      <trkpt lat="61.64042" lon="5.19878">
        <ele>235.017091</ele>
        <time>2020-07-28T13:27:39.232Z</time>
      </trkpt>
      <trkpt lat="61.64052" lon="5.19879">
        <ele>235.593985</ele>
        <time>2020-07-28T13:27:46.220Z</time>
      </trkpt>
      <trkpt lat="61.64061" lon="5.19879">
        <ele>236.158951</ele>
        <time>2020-07-28T13:27:53.240Z</time>
      </trkpt>
      <trkpt lat="61.6407" lon="5.19878">
        <ele>236.817387</ele>
        <time>2020-07-28T13:27:59.236Z</time>
      </trkpt>
      <trkpt lat="61.6408" lon="5.19876">
        <ele>237.912019</ele>
        <time>2020-07-28T13:28:06.253Z</time>
      </trkpt>
      <trkpt lat="61.64089" lon="5.19874">
        <ele>238.890479</ele>
        <time>2020-07-28T13:28:13.213Z</time>
      </trkpt>
      <trkpt lat="61.64099" lon="5.19874">
        <ele>239.906477</ele>
        <time>2020-07-28T13:28:19.219Z</time>
      </trkpt>
      <trkpt lat="61.64109" lon="5.1987">
        <ele>240.95727</ele>
        <time>2020-07-28T13:28:25.238Z</time>
      </trkpt>
      <trkpt lat="61.64118" lon="5.19867">
        <ele>241.978123</ele>
        <time>2020-07-28T13:28:32.235Z</time>
      </trkpt>
      <trkpt lat="61.64127" lon="5.1986">
        <ele>242.977821</ele>
        <time>2020-07-28T13:28:38.257Z</time>
      </trkpt>
      <trkpt lat="61.64136" lon="5.19855">
        <ele>244.026277</ele>
        <time>2020-07-28T13:28:45.226Z</time>
      </trkpt>
      <trkpt lat="61.64145" lon="5.19848">
        <ele>245.006912</ele>
        <time>2020-07-28T13:28:51.222Z</time>
      </trkpt>
      <trkpt lat="61.64154" lon="5.19844">
        <ele>246.001051</ele>
        <time>2020-07-28T13:28:57.244Z</time>
      </trkpt>
      <trkpt lat="61.64163" lon="5.19841">
        <ele>246.980617</ele>
        <time>2020-07-28T13:29:03.227Z</time>
      </trkpt>
      <trkpt lat="61.64173" lon="5.19835">
        <ele>248.094262</ele>
        <time>2020-07-28T13:29:10.235Z</time>
      </trkpt>
      <trkpt lat="61.64182" lon="5.1983">
        <ele>249.12987</ele>
        <time>2020-07-28T13:29:16.231Z</time>
      </trkpt>
      <trkpt lat="61.64191" lon="5.19824">
        <ele>250.117624</ele>
        <time>2020-07-28T13:29:22.228Z</time>
      </trkpt>
      <trkpt lat="61.642" lon="5.19821">
        <ele>251.092089</ele>
        <time>2020-07-28T13:29:29.229Z</time>
      </trkpt>
      <trkpt lat="61.64209" lon="5.19813">
        <ele>252.117162</ele>
        <time>2020-07-28T13:29:36.239Z</time>
      </trkpt>
      <trkpt lat="61.64219" lon="5.19808">
        <ele>253.177238</ele>
        <time>2020-07-28T13:29:43.223Z</time>
      </trkpt>
      <trkpt lat="61.64228" lon="5.19803">
        <ele>254.232434</ele>
        <time>2020-07-28T13:29:50.252Z</time>
      </trkpt>
      <trkpt lat="61.64238" lon="5.198">
        <ele>255.254183</ele>
        <time>2020-07-28T13:29:57.229Z</time>
      </trkpt>
      <trkpt lat="61.64247" lon="5.19801">
        <ele>256.009917</ele>
        <time>2020-07-28T13:30:04.235Z</time>
      </trkpt>
      <trkpt lat="61.64256" lon="5.198">
        <ele>256.439847</ele>
        <time>2020-07-28T13:30:10.248Z</time>
      </trkpt>
      <trkpt lat="61.64266" lon="5.19796">
        <ele>256.900278</ele>
        <time>2020-07-28T13:30:17.221Z</time>
      </trkpt>
      <trkpt lat="61.64275" lon="5.19796">
        <ele>257.343503</ele>
        <time>2020-07-28T13:30:24.235Z</time>
      </trkpt>
      <trkpt lat="61.64285" lon="5.19792">
        <ele>257.816392</ele>
        <time>2020-07-28T13:30:31.228Z</time>
      </trkpt>
      <trkpt lat="61.64294" lon="5.19788">
        <ele>258.275314</ele>
        <time>2020-07-28T13:30:38.252Z</time>
      </trkpt>
      <trkpt lat="61.64303" lon="5.19788">
        <ele>258.728087</ele>
        <time>2020-07-28T13:30:45.217Z</time>
      </trkpt>
      <trkpt lat="61.64314" lon="5.19785">
        <ele>259.213888</ele>
        <time>2020-07-28T13:30:52.232Z</time>
      </trkpt>
      <trkpt lat="61.64323" lon="5.19786">
        <ele>259.643817</ele>
        <time>2020-07-28T13:30:58.228Z</time>
      </trkpt>
      <trkpt lat="61.64333" lon="5.19786">
        <ele>260.125167</ele>
        <time>2020-07-28T13:31:04.240Z</time>
      </trkpt>
      <trkpt lat="61.64342" lon="5.19785">
        <ele>260.583137</ele>
        <time>2020-07-28T13:31:10.221Z</time>
      </trkpt>
      <trkpt lat="61.64352" lon="5.1978">
        <ele>261.044125</ele>
        <time>2020-07-28T13:31:17.232Z</time>
      </trkpt>
      <trkpt lat="61.6436" lon="5.19775">
        <ele>261.474155</ele>
        <time>2020-07-28T13:31:24.250Z</time>
      </trkpt>
      <trkpt lat="61.64369" lon="5.19769">
        <ele>261.916402</ele>
        <time>2020-07-28T13:31:31.219Z</time>
      </trkpt>
      <trkpt lat="61.64379" lon="5.19767">
        <ele>262.381865</ele>
        <time>2020-07-28T13:31:39.232Z</time>
      </trkpt>
      <trkpt lat="61.64388" lon="5.19763">
        <ele>262.812548</ele>
        <time>2020-07-28T13:31:46.241Z</time>
      </trkpt>
      <trkpt lat="61.64398" lon="5.19759">
        <ele>263.290573</ele>
        <time>2020-07-28T13:31:53.239Z</time>
      </trkpt>
      <trkpt lat="61.64407" lon="5.19753">
        <ele>263.746358</ele>
        <time>2020-07-28T13:32:00.220Z</time>
      </trkpt>
      <trkpt lat="61.64416" lon="5.19747">
        <ele>264.203599</ele>
        <time>2020-07-28T13:32:07.240Z</time>
      </trkpt>
      <trkpt lat="61.64426" lon="5.19744">
        <ele>264.874094</ele>
        <time>2020-07-28T13:32:14.222Z</time>
      </trkpt>
      <trkpt lat="61.64434" lon="5.19738">
        <ele>265.592537</ele>
        <time>2020-07-28T13:32:20.233Z</time>
      </trkpt>
      <trkpt lat="61.64442" lon="5.1973">
        <ele>266.315278</ele>
        <time>2020-07-28T13:32:26.226Z</time>
      </trkpt>
      <trkpt lat="61.64451" lon="5.19724">
        <ele>267.068442</ele>
        <time>2020-07-28T13:32:33.270Z</time>
      </trkpt>
      <trkpt lat="61.6446" lon="5.19717">
        <ele>267.830384</ele>
        <time>2020-07-28T13:32:40.261Z</time>
      </trkpt>
      <trkpt lat="61.64469" lon="5.19711">
        <ele>268.544758</ele>
        <time>2020-07-28T13:32:46.233Z</time>
      </trkpt>
      <trkpt lat="61.64478" lon="5.19704">
        <ele>269.295706</ele>
        <time>2020-07-28T13:32:53.218Z</time>
      </trkpt>
      <trkpt lat="61.64487" lon="5.19697">
        <ele>270.06898</ele>
        <time>2020-07-28T13:33:00.251Z</time>
      </trkpt>
      <trkpt lat="61.64495" lon="5.1969">
        <ele>270.797655</ele>
        <time>2020-07-28T13:33:06.212Z</time>
      </trkpt>
      <trkpt lat="61.64505" lon="5.19684">
        <ele>271.632874</ele>
        <time>2020-07-28T13:33:13.237Z</time>
      </trkpt>
      <trkpt lat="61.64514" lon="5.1968">
        <ele>272.360502</ele>
        <time>2020-07-28T13:33:20.233Z</time>
      </trkpt>
      <trkpt lat="61.64525" lon="5.19674">
        <ele>273.217329</ele>
        <time>2020-07-28T13:33:27.232Z</time>
      </trkpt>
      <trkpt lat="61.64534" lon="5.19668">
        <ele>274.029538</ele>
        <time>2020-07-28T13:33:33.229Z</time>
      </trkpt>
      <trkpt lat="61.64543" lon="5.19662">
        <ele>274.750188</ele>
        <time>2020-07-28T13:33:39.233Z</time>
      </trkpt>
      <trkpt lat="61.64553" lon="5.19658">
        <ele>275.519191</ele>
        <time>2020-07-28T13:33:46.233Z</time>
      </trkpt>
      <trkpt lat="61.64562" lon="5.19653">
        <ele>276.2609</ele>
        <time>2020-07-28T13:33:52.250Z</time>
      </trkpt>
      <trkpt lat="61.64571" lon="5.19652">
        <ele>277.003603</ele>
        <time>2020-07-28T13:33:58.239Z</time>
      </trkpt>
      <trkpt lat="61.6458" lon="5.19648">
        <ele>277.755762</ele>
        <time>2020-07-28T13:34:04.238Z</time>
      </trkpt>
      <trkpt lat="61.6459" lon="5.19647">
        <ele>278.553905</ele>
        <time>2020-07-28T13:34:10.224Z</time>
      </trkpt>
      <trkpt lat="61.646" lon="5.19645">
        <ele>279.801219</ele>
        <time>2020-07-28T13:34:17.235Z</time>
      </trkpt>
      <trkpt lat="61.64609" lon="5.19641">
        <ele>281.034024</ele>
        <time>2020-07-28T13:34:24.230Z</time>
      </trkpt>
      <trkpt lat="61.64619" lon="5.19638">
        <ele>282.318523</ele>
        <time>2020-07-28T13:34:31.236Z</time>
      </trkpt>
      <trkpt lat="61.64628" lon="5.19638">
        <ele>283.619955</ele>
        <time>2020-07-28T13:34:38.235Z</time>
      </trkpt>
      <trkpt lat="61.64639" lon="5.19634">
        <ele>285.015612</ele>
        <time>2020-07-28T13:34:46.231Z</time>
      </trkpt>
      <trkpt lat="61.64648" lon="5.19628">
        <ele>286.37202</ele>
        <time>2020-07-28T13:34:53.209Z</time>
      </trkpt>
      <trkpt lat="61.64657" lon="5.19624">
        <ele>287.629876</ele>
        <time>2020-07-28T13:35:00.234Z</time>
      </trkpt>
      <trkpt lat="61.64667" lon="5.19619">
        <ele>288.966386</ele>
        <time>2020-07-28T13:35:07.236Z</time>
      </trkpt>
      <trkpt lat="61.64676" lon="5.19614">
        <ele>290.19009</ele>
        <time>2020-07-28T13:35:14.250Z</time>
      </trkpt>
      <trkpt lat="61.64685" lon="5.1961">
        <ele>291.421152</ele>
        <time>2020-07-28T13:35:21.232Z</time>
      </trkpt>
      <trkpt lat="61.64694" lon="5.19604">
        <ele>292.738095</ele>
        <time>2020-07-28T13:35:28.220Z</time>
      </trkpt>
      <trkpt lat="61.64703" lon="5.19599">
        <ele>293.973358</ele>
        <time>2020-07-28T13:35:35.239Z</time>
      </trkpt>
      <trkpt lat="61.64713" lon="5.19594">
        <ele>295.285622</ele>
        <time>2020-07-28T13:35:43.216Z</time>
      </trkpt>
      <trkpt lat="61.64722" lon="5.19589">
        <ele>296.551392</ele>
        <time>2020-07-28T13:35:51.249Z</time>
      </trkpt>
      <trkpt lat="61.64732" lon="5.19583">
        <ele>297.938971</ele>
        <time>2020-07-28T13:35:59.233Z</time>
      </trkpt>
      <trkpt lat="61.64741" lon="5.19578">
        <ele>299.223655</ele>
        <time>2020-07-28T13:36:07.229Z</time>
      </trkpt>
      <trkpt lat="61.6475" lon="5.19574">
        <ele>300.427139</ele>
        <time>2020-07-28T13:36:14.237Z</time>
      </trkpt>
      <trkpt lat="61.64759" lon="5.19568">
        <ele>301.666206</ele>
        <time>2020-07-28T13:36:20.255Z</time>
      </trkpt>
      <trkpt lat="61.64767" lon="5.19563">
        <ele>302.870967</ele>
        <time>2020-07-28T13:36:26.236Z</time>
      </trkpt>
      <trkpt lat="61.64777" lon="5.19558">
        <ele>303.840956</ele>
        <time>2020-07-28T13:36:33.232Z</time>
      </trkpt>
      <trkpt lat="61.64785" lon="5.19551">
        <ele>304.746351</ele>
        <time>2020-07-28T13:36:41.223Z</time>
      </trkpt>
      <trkpt lat="61.64794" lon="5.19544">
        <ele>305.659597</ele>
        <time>2020-07-28T13:36:48.255Z</time>
      </trkpt>
      <trkpt lat="61.64803" lon="5.1954">
        <ele>306.549732</ele>
        <time>2020-07-28T13:36:55.220Z</time>
      </trkpt>
      <trkpt lat="61.64812" lon="5.19533">
        <ele>307.500031</ele>
        <time>2020-07-28T13:37:02.243Z</time>
      </trkpt>
      <trkpt lat="61.64821" lon="5.19525">
        <ele>308.43302</ele>
        <time>2020-07-28T13:37:09.234Z</time>
      </trkpt>
      <trkpt lat="61.64829" lon="5.1952">
        <ele>309.328842</ele>
        <time>2020-07-28T13:37:16.232Z</time>
      </trkpt>
      <trkpt lat="61.64838" lon="5.19516">
        <ele>310.228723</ele>
        <time>2020-07-28T13:37:23.231Z</time>
      </trkpt>
      <trkpt lat="61.64848" lon="5.19512">
        <ele>311.187032</ele>
        <time>2020-07-28T13:37:29.243Z</time>
      </trkpt>
      <trkpt lat="61.64858" lon="5.19507">
        <ele>312.160291</ele>
        <time>2020-07-28T13:37:35.227Z</time>
      </trkpt>
      <trkpt lat="61.64867" lon="5.19501">
        <ele>313.10158</ele>
        <time>2020-07-28T13:37:42.219Z</time>
      </trkpt>
      <trkpt lat="61.64875" lon="5.19492">
        <ele>314.057601</ele>
        <time>2020-07-28T13:37:49.228Z</time>
      </trkpt>
      <trkpt lat="61.64884" lon="5.19487">
        <ele>314.984357</ele>
        <time>2020-07-28T13:37:56.243Z</time>
      </trkpt>
      <trkpt lat="61.64893" lon="5.19478">
        <ele>315.881784</ele>
        <time>2020-07-28T13:38:01.267Z</time>
      </trkpt>
      <trkpt lat="61.64901" lon="5.19467">
        <ele>316.813857</ele>
        <time>2020-07-28T13:38:08.220Z</time>
      </trkpt>
      <trkpt lat="61.6491" lon="5.19458">
        <ele>317.816182</ele>
        <time>2020-07-28T13:38:15.233Z</time>
      </trkpt>
      <trkpt lat="61.64918" lon="5.19448">
        <ele>318.719791</ele>
        <time>2020-07-28T13:38:21.222Z</time>
      </trkpt>
      <trkpt lat="61.64925" lon="5.19437">
        <ele>319.638139</ele>
        <time>2020-07-28T13:38:27.235Z</time>
      </trkpt>
      <trkpt lat="61.64933" lon="5.19426">
        <ele>320.552376</ele>
        <time>2020-07-28T13:38:34.233Z</time>
      </trkpt>
      <trkpt lat="61.64941" lon="5.19414">
        <ele>321.808734</ele>
        <time>2020-07-28T13:38:41.222Z</time>
      </trkpt>
      <trkpt lat="61.64949" lon="5.19401">
        <ele>323.087575</ele>
        <time>2020-07-28T13:38:49.240Z</time>
      </trkpt>
      <trkpt lat="61.64956" lon="5.19388">
        <ele>324.373988</ele>
        <time>2020-07-28T13:38:56.219Z</time>
      </trkpt>
      <trkpt lat="61.64965" lon="5.19377">
        <ele>325.634231</ele>
        <time>2020-07-28T13:39:03.296Z</time>
      </trkpt>
      <trkpt lat="61.64973" lon="5.19368">
        <ele>326.828524</ele>
        <time>2020-07-28T13:39:09.222Z</time>
      </trkpt>
      <trkpt lat="61.64981" lon="5.19356">
        <ele>328.116719</ele>
        <time>2020-07-28T13:39:17.256Z</time>
      </trkpt>
      <trkpt lat="61.6499" lon="5.19349">
        <ele>329.389754</ele>
        <time>2020-07-28T13:39:24.220Z</time>
      </trkpt>
      <trkpt lat="61.65" lon="5.19343">
        <ele>330.728779</ele>
        <time>2020-07-28T13:39:31.236Z</time>
      </trkpt>
      <trkpt lat="61.65009" lon="5.19338">
        <ele>331.931492</ele>
        <time>2020-07-28T13:39:38.229Z</time>
      </trkpt>
      <trkpt lat="61.65018" lon="5.19333">
        <ele>333.152284</ele>
        <time>2020-07-28T13:39:45.233Z</time>
      </trkpt>
      <trkpt lat="61.65027" lon="5.1933">
        <ele>334.318585</ele>
        <time>2020-07-28T13:39:52.222Z</time>
      </trkpt>
      <trkpt lat="61.65037" lon="5.19328">
        <ele>335.634396</ele>
        <time>2020-07-28T13:40:01.259Z</time>
      </trkpt>
      <trkpt lat="61.65046" lon="5.19322">
        <ele>336.857003</ele>
        <time>2020-07-28T13:40:07.225Z</time>
      </trkpt>
      <trkpt lat="61.65056" lon="5.19321">
        <ele>338.144413</ele>
        <time>2020-07-28T13:40:14.245Z</time>
      </trkpt>
      <trkpt lat="61.65066" lon="5.19321">
        <ele>339.467932</ele>
        <time>2020-07-28T13:40:21.210Z</time>
      </trkpt>
      <trkpt lat="61.65076" lon="5.19322">
        <ele>340.714086</ele>
        <time>2020-07-28T13:40:29.229Z</time>
      </trkpt>
      <trkpt lat="61.65085" lon="5.19321">
        <ele>341.921123</ele>
        <time>2020-07-28T13:40:36.218Z</time>
      </trkpt>
      <trkpt lat="61.65094" lon="5.1932">
        <ele>343.130468</ele>
        <time>2020-07-28T13:40:43.225Z</time>
      </trkpt>
      <trkpt lat="61.65104" lon="5.19315">
        <ele>344.087484</ele>
        <time>2020-07-28T13:40:50.230Z</time>
      </trkpt>
      <trkpt lat="61.65113" lon="5.19313">
        <ele>344.588111</ele>
        <time>2020-07-28T13:41:00.256Z</time>
      </trkpt>
      <trkpt lat="61.65122" lon="5.19309">
        <ele>345.076278</ele>
        <time>2020-07-28T13:41:07.242Z</time>
      </trkpt>
      <trkpt lat="61.65131" lon="5.19309">
        <ele>345.553648</ele>
        <time>2020-07-28T13:41:13.216Z</time>
      </trkpt>
      <trkpt lat="61.65141" lon="5.19307">
        <ele>346.075387</ele>
        <time>2020-07-28T13:41:21.255Z</time>
      </trkpt>
      <trkpt lat="61.6515" lon="5.19307">
        <ele>346.568834</ele>
        <time>2020-07-28T13:41:28.231Z</time>
      </trkpt>
      <trkpt lat="61.6516" lon="5.19304">
        <ele>347.078482</ele>
        <time>2020-07-28T13:41:35.260Z</time>
      </trkpt>
      <trkpt lat="61.65168" lon="5.19312">
        <ele>347.576903</ele>
        <time>2020-07-28T13:41:42.233Z</time>
      </trkpt>
      <trkpt lat="61.65178" lon="5.19316">
        <ele>348.096202</ele>
        <time>2020-07-28T13:41:49.230Z</time>
      </trkpt>
      <trkpt lat="61.65188" lon="5.19319">
        <ele>348.619246</ele>
        <time>2020-07-28T13:41:56.231Z</time>
      </trkpt>
      <trkpt lat="61.65197" lon="5.19316">
        <ele>349.093112</ele>
        <time>2020-07-28T13:42:05.231Z</time>
      </trkpt>
      <trkpt lat="61.65206" lon="5.19317">
        <ele>349.582946</ele>
        <time>2020-07-28T13:42:12.239Z</time>
      </trkpt>
      <trkpt lat="61.65215" lon="5.1932">
        <ele>350.064894</ele>
        <time>2020-07-28T13:42:19.218Z</time>
      </trkpt>
      <trkpt lat="61.65224" lon="5.19318">
        <ele>350.56552</ele>
        <time>2020-07-28T13:42:26.237Z</time>
      </trkpt>
      <trkpt lat="61.65234" lon="5.19319">
        <ele>351.106415</ele>
        <time>2020-07-28T13:42:34.275Z</time>
      </trkpt>
      <trkpt lat="61.65244" lon="5.19318">
        <ele>351.626013</ele>
        <time>2020-07-28T13:42:42.233Z</time>
      </trkpt>
      <trkpt lat="61.65254" lon="5.19316">
        <ele>352.124061</ele>
        <time>2020-07-28T13:42:51.224Z</time>
      </trkpt>
      <trkpt lat="61.65264" lon="5.19313">
        <ele>352.663493</ele>
        <time>2020-07-28T13:42:59.239Z</time>
      </trkpt>
      <trkpt lat="61.65273" lon="5.19316">
        <ele>353.183621</ele>
        <time>2020-07-28T13:43:06.227Z</time>
      </trkpt>
      <trkpt lat="61.65283" lon="5.19316">
        <ele>353.86324</ele>
        <time>2020-07-28T13:43:14.215Z</time>
      </trkpt>
      <trkpt lat="61.65294" lon="5.19318">
        <ele>354.69465</ele>
        <time>2020-07-28T13:43:21.222Z</time>
      </trkpt>
      <trkpt lat="61.65303" lon="5.19314">
        <ele>355.457985</ele>
        <time>2020-07-28T13:43:28.227Z</time>
      </trkpt>
      <trkpt lat="61.65312" lon="5.1931">
        <ele>356.215019</ele>
        <time>2020-07-28T13:43:35.270Z</time>
      </trkpt>
      <trkpt lat="61.65321" lon="5.19306">
        <ele>356.944271</ele>
        <time>2020-07-28T13:43:43.236Z</time>
      </trkpt>
      <trkpt lat="61.65331" lon="5.19302">
        <ele>357.727745</ele>
        <time>2020-07-28T13:43:50.255Z</time>
      </trkpt>
      <trkpt lat="61.6534" lon="5.19304">
        <ele>358.463247</ele>
        <time>2020-07-28T13:44:00.242Z</time>
      </trkpt>
      <trkpt lat="61.6535" lon="5.19303">
        <ele>359.228582</ele>
        <time>2020-07-28T13:44:07.220Z</time>
      </trkpt>
      <trkpt lat="61.6536" lon="5.19302">
        <ele>360.050102</ele>
        <time>2020-07-28T13:44:15.238Z</time>
      </trkpt>
      <trkpt lat="61.65369" lon="5.19305">
        <ele>360.789678</ele>
        <time>2020-07-28T13:44:21.228Z</time>
      </trkpt>
      <trkpt lat="61.65379" lon="5.193">
        <ele>361.560317</ele>
        <time>2020-07-28T13:44:33.257Z</time>
      </trkpt>
      <trkpt lat="61.65388" lon="5.19295">
        <ele>362.325997</ele>
        <time>2020-07-28T13:44:40.234Z</time>
      </trkpt>
      <trkpt lat="61.65397" lon="5.19292">
        <ele>363.049278</ele>
        <time>2020-07-28T13:44:47.236Z</time>
      </trkpt>
      <trkpt lat="61.65407" lon="5.19293">
        <ele>363.862672</ele>
        <time>2020-07-28T13:44:55.264Z</time>
      </trkpt>
      <trkpt lat="61.65416" lon="5.19292">
        <ele>364.580233</ele>
        <time>2020-07-28T13:45:03.258Z</time>
      </trkpt>
      <trkpt lat="61.65427" lon="5.19296">
        <ele>365.437573</ele>
        <time>2020-07-28T13:45:11.267Z</time>
      </trkpt>
      <trkpt lat="61.65436" lon="5.19296">
        <ele>366.162701</ele>
        <time>2020-07-28T13:45:18.243Z</time>
      </trkpt>
      <trkpt lat="61.65445" lon="5.19298">
        <ele>366.88416</ele>
        <time>2020-07-28T13:45:25.262Z</time>
      </trkpt>
      <trkpt lat="61.65455" lon="5.19296">
        <ele>367.692077</ele>
        <time>2020-07-28T13:45:32.242Z</time>
      </trkpt>
      <trkpt lat="61.65465" lon="5.19293">
        <ele>367.97013</ele>
        <time>2020-07-28T13:45:40.222Z</time>
      </trkpt>
      <trkpt lat="61.65475" lon="5.1929">
        <ele>368.229129</ele>
        <time>2020-07-28T13:45:48.251Z</time>
      </trkpt>
      <trkpt lat="61.65484" lon="5.19287">
        <ele>368.476215</ele>
        <time>2020-07-28T13:45:56.262Z</time>
      </trkpt>
      <trkpt lat="61.65494" lon="5.19285">
        <ele>368.713034</ele>
        <time>2020-07-28T13:46:02.239Z</time>
      </trkpt>
      <trkpt lat="61.65503" lon="5.19287">
        <ele>368.956214</ele>
        <time>2020-07-28T13:46:09.253Z</time>
      </trkpt>
      <trkpt lat="61.65513" lon="5.19284">
        <ele>369.21042</ele>
        <time>2020-07-28T13:46:17.231Z</time>
      </trkpt>
      <trkpt lat="61.65522" lon="5.1928">
        <ele>369.442183</ele>
        <time>2020-07-28T13:46:24.241Z</time>
      </trkpt>
      <trkpt lat="61.65531" lon="5.19281">
        <ele>369.687365</ele>
        <time>2020-07-28T13:46:32.235Z</time>
      </trkpt>
      <trkpt lat="61.65541" lon="5.19278">
        <ele>369.930524</ele>
        <time>2020-07-28T13:46:39.235Z</time>
      </trkpt>
      <trkpt lat="61.65551" lon="5.1928">
        <ele>370.186302</ele>
        <time>2020-07-28T13:46:48.236Z</time>
      </trkpt>
      <trkpt lat="61.6556" lon="5.19282">
        <ele>370.425178</ele>
        <time>2020-07-28T13:46:56.232Z</time>
      </trkpt>
      <trkpt lat="61.65569" lon="5.19282">
        <ele>370.662292</ele>
        <time>2020-07-28T13:47:04.251Z</time>
      </trkpt>
      <trkpt lat="61.65579" lon="5.19283">
        <ele>370.902139</ele>
        <time>2020-07-28T13:47:12.235Z</time>
      </trkpt>
      <trkpt lat="61.65588" lon="5.19279">
        <ele>371.136158</ele>
        <time>2020-07-28T13:47:20.247Z</time>
      </trkpt>
      <trkpt lat="61.65598" lon="5.19278">
        <ele>371.401581</ele>
        <time>2020-07-28T13:47:26.232Z</time>
      </trkpt>
      <trkpt lat="61.65608" lon="5.19276">
        <ele>371.652601</ele>
        <time>2020-07-28T13:47:34.229Z</time>
      </trkpt>
      <trkpt lat="61.65617" lon="5.19275">
        <ele>371.882593</ele>
        <time>2020-07-28T13:47:43.257Z</time>
      </trkpt>
      <trkpt lat="61.65627" lon="5.19275">
        <ele>372.129941</ele>
        <time>2020-07-28T13:47:52.233Z</time>
      </trkpt>
      <trkpt lat="61.65636" lon="5.19274">
        <ele>372.452165</ele>
        <time>2020-07-28T13:48:00.239Z</time>
      </trkpt>
      <trkpt lat="61.65644" lon="5.19286">
        <ele>373.193562</ele>
        <time>2020-07-28T13:48:07.231Z</time>
      </trkpt>
      <trkpt lat="61.65654" lon="5.19291">
        <ele>373.874404</ele>
        <time>2020-07-28T13:48:14.228Z</time>
      </trkpt>
      <trkpt lat="61.65665" lon="5.19279">
        <ele>374.779075</ele>
        <time>2020-07-28T13:53:30.220Z</time>
      </trkpt>
      <trkpt lat="61.65683" lon="5.19281">
        <ele>376.10741</ele>
        <time>2020-07-28T13:54:41.224Z</time>
      </trkpt>
      <trkpt lat="61.65701" lon="5.19295">
        <ele>377.444097</ele>
        <time>2020-07-28T13:54:55.241Z</time>
      </trkpt>
      <trkpt lat="61.65719" lon="5.19296">
        <ele>378.778556</ele>
        <time>2020-07-28T13:55:18.227Z</time>
      </trkpt>
      <trkpt lat="61.65737" lon="5.19304">
        <ele>380.094182</ele>
        <time>2020-07-28T13:55:24.227Z</time>
      </trkpt>
      <trkpt lat="61.65793" lon="5.19328">
        <ele>384.181188</ele>
        <time>2020-07-28T13:56:13.216Z</time>
      </trkpt>
      <trkpt lat="61.65802" lon="5.19334">
        <ele>384.885406</ele>
        <time>2020-07-28T13:56:21.221Z</time>
      </trkpt>
      <trkpt lat="61.65811" lon="5.19338">
        <ele>385.576043</ele>
        <time>2020-07-28T13:56:28.214Z</time>
      </trkpt>
      <trkpt lat="61.6582" lon="5.1934">
        <ele>386.359383</ele>
        <time>2020-07-28T13:56:35.251Z</time>
      </trkpt>
      <trkpt lat="61.65829" lon="5.19343">
        <ele>387.145441</ele>
        <time>2020-07-28T13:56:43.246Z</time>
      </trkpt>
      <trkpt lat="61.65906" lon="5.19374">
        <ele>393.726721</ele>
        <time>2020-07-28T13:57:50.223Z</time>
      </trkpt>
      <trkpt lat="61.65944" lon="5.19381">
        <ele>396.958055</ele>
        <time>2020-07-28T13:58:20.241Z</time>
      </trkpt>
      <trkpt lat="61.65962" lon="5.19385">
        <ele>398.493939</ele>
        <time>2020-07-28T13:58:28.236Z</time>
      </trkpt>
      <trkpt lat="61.65999" lon="5.19389">
        <ele>401.405983</ele>
        <time>2020-07-28T13:58:59.232Z</time>
      </trkpt>
      <trkpt lat="61.66011" lon="5.1939">
        <ele>402.246304</ele>
        <time>2020-07-28T13:59:02.247Z</time>
      </trkpt>
      <trkpt lat="61.66109" lon="5.19437">
        <ele>409.178778</ele>
        <time>2020-07-28T14:00:23.244Z</time>
      </trkpt>
      <trkpt lat="61.66292" lon="5.19498">
        <ele>424.783506</ele>
        <time>2020-07-28T14:02:44.222Z</time>
      </trkpt>
      <trkpt lat="61.6635" lon="5.19512">
        <ele>430.149402</ele>
        <time>2020-07-28T14:03:39.232Z</time>
      </trkpt>
      <trkpt lat="61.66406" lon="5.19527">
        <ele>435.722886</ele>
        <time>2020-07-28T14:04:30.224Z</time>
      </trkpt>
      <trkpt lat="61.66462" lon="5.19543">
        <ele>441.279724</ele>
        <time>2020-07-28T14:05:16.259Z</time>
      </trkpt>
      <trkpt lat="61.66573" lon="5.19534">
        <ele>451.247962</ele>
        <time>2020-07-28T14:06:50.233Z</time>
      </trkpt>
      <trkpt lat="61.66617" lon="5.19525">
        <ele>454.688231</ele>
        <time>2020-07-28T14:07:16.231Z</time>
      </trkpt>
      <trkpt lat="61.66626" lon="5.19522">
        <ele>455.416758</ele>
        <time>2020-07-28T14:07:22.217Z</time>
      </trkpt>
      <trkpt lat="61.66636" lon="5.19521">
        <ele>456.166339</ele>
        <time>2020-07-28T14:07:29.219Z</time>
      </trkpt>
      <trkpt lat="61.66644" lon="5.1951">
        <ele>456.953374</ele>
        <time>2020-07-28T14:07:38.218Z</time>
      </trkpt>
      <trkpt lat="61.66654" lon="5.19507">
        <ele>457.727705</ele>
        <time>2020-07-28T14:07:47.217Z</time>
      </trkpt>
      <trkpt lat="61.66664" lon="5.19504">
        <ele>458.497078</ele>
        <time>2020-07-28T14:07:55.243Z</time>
      </trkpt>
      <trkpt lat="61.66673" lon="5.19503">
        <ele>459.262935</ele>
        <time>2020-07-28T14:08:03.203Z</time>
      </trkpt>
      <trkpt lat="61.66682" lon="5.19495">
        <ele>459.983758</ele>
        <time>2020-07-28T14:08:11.211Z</time>
      </trkpt>
      <trkpt lat="61.6669" lon="5.19489">
        <ele>460.691501</ele>
        <time>2020-07-28T14:08:19.234Z</time>
      </trkpt>
      <trkpt lat="61.667" lon="5.19488">
        <ele>461.070546</ele>
        <time>2020-07-28T14:08:26.214Z</time>
      </trkpt>
      <trkpt lat="61.66709" lon="5.19483">
        <ele>461.026623</ele>
        <time>2020-07-28T14:08:32.218Z</time>
      </trkpt>
      <trkpt lat="61.66719" lon="5.19483">
        <ele>460.978144</ele>
        <time>2020-07-28T14:08:39.226Z</time>
      </trkpt>
      <trkpt lat="61.66735" lon="5.19502">
        <ele>460.889326</ele>
        <time>2020-07-28T14:14:41.229Z</time>
      </trkpt>
      <trkpt lat="61.66745" lon="5.19499">
        <ele>460.839836</ele>
        <time>2020-07-28T14:14:47.246Z</time>
      </trkpt>
      <trkpt lat="61.66755" lon="5.19504">
        <ele>460.792589</ele>
        <time>2020-07-28T14:14:53.221Z</time>
      </trkpt>
      <trkpt lat="61.66764" lon="5.19504">
        <ele>460.745544</ele>
        <time>2020-07-28T14:14:59.234Z</time>
      </trkpt>
      <trkpt lat="61.66774" lon="5.19505">
        <ele>460.699428</ele>
        <time>2020-07-28T14:15:07.239Z</time>
      </trkpt>
      <trkpt lat="61.69284" lon="5.19649">
        <ele>391.686607</ele>
        <time>2020-07-28T14:21:34.324Z</time>
      </trkpt>
      <trkpt lat="61.69296" lon="5.19706">
        <ele>370.233668</ele>
        <time>2020-07-28T14:21:38.222Z</time>
      </trkpt>
      <trkpt lat="61.69304" lon="5.1972">
        <ele>362.801456</ele>
        <time>2020-07-28T14:21:41.231Z</time>
      </trkpt>
      <trkpt lat="61.69311" lon="5.19732">
        <ele>356.266971</ele>
        <time>2020-07-28T14:21:44.236Z</time>
      </trkpt>
      <trkpt lat="61.69339" lon="5.19761">
        <ele>334.286236</ele>
        <time>2020-07-28T14:26:23.230Z</time>
      </trkpt>
      <trkpt lat="61.69348" lon="5.19773">
        <ele>326.536361</ele>
        <time>2020-07-28T14:26:25.228Z</time>
      </trkpt>
      <trkpt lat="61.69359" lon="5.19788">
        <ele>317.181063</ele>
        <time>2020-07-28T14:26:27.254Z</time>
      </trkpt>
      <trkpt lat="61.69369" lon="5.19804">
        <ele>315.26645</ele>
        <time>2020-07-28T14:26:29.258Z</time>
      </trkpt>
      <trkpt lat="61.69382" lon="5.19821">
        <ele>314.321997</ele>
        <time>2020-07-28T14:26:31.234Z</time>
      </trkpt>
      <trkpt lat="61.69398" lon="5.19838">
        <ele>313.238569</ele>
        <time>2020-07-28T14:26:33.258Z</time>
      </trkpt>
      <trkpt lat="61.69406" lon="5.19847">
        <ele>312.65427</ele>
        <time>2020-07-28T14:26:34.230Z</time>
      </trkpt>
      <trkpt lat="61.69415" lon="5.19855">
        <ele>312.059904</ele>
        <time>2020-07-28T14:26:35.233Z</time>
      </trkpt>
      <trkpt lat="61.69424" lon="5.19863">
        <ele>311.449684</ele>
        <time>2020-07-28T14:26:36.243Z</time>
      </trkpt>
      <trkpt lat="61.69434" lon="5.19871">
        <ele>310.821234</ele>
        <time>2020-07-28T14:26:37.251Z</time>
      </trkpt>
      <trkpt lat="61.69444" lon="5.19879">
        <ele>310.165532</ele>
        <time>2020-07-28T14:26:38.247Z</time>
      </trkpt>
      <trkpt lat="61.69454" lon="5.19886">
        <ele>309.49234</ele>
        <time>2020-07-28T14:26:39.218Z</time>
      </trkpt>
      <trkpt lat="61.69465" lon="5.19894">
        <ele>308.801602</ele>
        <time>2020-07-28T14:26:40.236Z</time>
      </trkpt>
      <trkpt lat="61.69476" lon="5.19901">
        <ele>308.088288</ele>
        <time>2020-07-28T14:26:41.251Z</time>
      </trkpt>
      <trkpt lat="61.69487" lon="5.19908">
        <ele>307.372531</ele>
        <time>2020-07-28T14:26:42.258Z</time>
      </trkpt>
      <trkpt lat="61.69498" lon="5.19915">
        <ele>306.638998</ele>
        <time>2020-07-28T14:26:43.249Z</time>
      </trkpt>
      <trkpt lat="61.69509" lon="5.19922">
        <ele>305.906278</ele>
        <time>2020-07-28T14:26:44.246Z</time>
      </trkpt>
      <trkpt lat="61.69521" lon="5.19929">
        <ele>305.161675</ele>
        <time>2020-07-28T14:26:45.227Z</time>
      </trkpt>
      <trkpt lat="61.69532" lon="5.19936">
        <ele>304.381978</ele>
        <time>2020-07-28T14:26:46.231Z</time>
      </trkpt>
      <trkpt lat="61.69544" lon="5.19942">
        <ele>303.581912</ele>
        <time>2020-07-28T14:26:47.236Z</time>
      </trkpt>
      <trkpt lat="61.69555" lon="5.19948">
        <ele>302.787511</ele>
        <time>2020-07-28T14:26:48.231Z</time>
      </trkpt>
      <trkpt lat="61.69566" lon="5.19953">
        <ele>301.998163</ele>
        <time>2020-07-28T14:26:49.244Z</time>
      </trkpt>
      <trkpt lat="61.69578" lon="5.19957">
        <ele>301.214953</ele>
        <time>2020-07-28T14:26:50.238Z</time>
      </trkpt>
      <trkpt lat="61.69589" lon="5.1996">
        <ele>300.456895</ele>
        <time>2020-07-28T14:26:51.228Z</time>
      </trkpt>
      <trkpt lat="61.696" lon="5.19963">
        <ele>299.680789</ele>
        <time>2020-07-28T14:26:52.260Z</time>
      </trkpt>
      <trkpt lat="61.69611" lon="5.19964">
        <ele>298.900949</ele>
        <time>2020-07-28T14:26:53.230Z</time>
      </trkpt>
      <trkpt lat="61.69623" lon="5.19964">
        <ele>298.115357</ele>
        <time>2020-07-28T14:26:54.233Z</time>
      </trkpt>
      <trkpt lat="61.69634" lon="5.19961">
        <ele>297.338177</ele>
        <time>2020-07-28T14:26:55.228Z</time>
      </trkpt>
      <trkpt lat="61.69645" lon="5.19956">
        <ele>296.602177</ele>
        <time>2020-07-28T14:26:56.255Z</time>
      </trkpt>
      <trkpt lat="61.69655" lon="5.19949">
        <ele>295.874961</ele>
        <time>2020-07-28T14:26:57.228Z</time>
      </trkpt>
      <trkpt lat="61.69665" lon="5.19941">
        <ele>295.118792</ele>
        <time>2020-07-28T14:26:58.249Z</time>
      </trkpt>
      <trkpt lat="61.69676" lon="5.19934">
        <ele>294.350617</ele>
        <time>2020-07-28T14:26:59.237Z</time>
      </trkpt>
      <trkpt lat="61.69686" lon="5.19925">
        <ele>293.578272</ele>
        <time>2020-07-28T14:27:00.234Z</time>
      </trkpt>
      <trkpt lat="61.69697" lon="5.19917">
        <ele>292.784461</ele>
        <time>2020-07-28T14:27:01.218Z</time>
      </trkpt>
      <trkpt lat="61.69709" lon="5.19908">
        <ele>291.74229</ele>
        <time>2020-07-28T14:27:02.243Z</time>
      </trkpt>
      <trkpt lat="61.6972" lon="5.199">
        <ele>290.58759</ele>
        <time>2020-07-28T14:27:03.247Z</time>
      </trkpt>
      <trkpt lat="61.69732" lon="5.19891">
        <ele>289.447458</ele>
        <time>2020-07-28T14:27:04.242Z</time>
      </trkpt>
      <trkpt lat="61.69744" lon="5.19883">
        <ele>288.28627</ele>
        <time>2020-07-28T14:27:05.235Z</time>
      </trkpt>
      <trkpt lat="61.69756" lon="5.19876">
        <ele>287.098418</ele>
        <time>2020-07-28T14:27:06.236Z</time>
      </trkpt>
      <trkpt lat="61.69768" lon="5.19868">
        <ele>285.911854</ele>
        <time>2020-07-28T14:27:07.241Z</time>
      </trkpt>
      <trkpt lat="61.69781" lon="5.19859">
        <ele>284.692097</ele>
        <time>2020-07-28T14:27:08.234Z</time>
      </trkpt>
      <trkpt lat="61.69793" lon="5.19851">
        <ele>283.49341</ele>
        <time>2020-07-28T14:27:09.254Z</time>
      </trkpt>
      <trkpt lat="61.69805" lon="5.19842">
        <ele>282.264025</ele>
        <time>2020-07-28T14:27:10.241Z</time>
      </trkpt>
      <trkpt lat="61.69818" lon="5.19832">
        <ele>281.037589</ele>
        <time>2020-07-28T14:27:11.257Z</time>
      </trkpt>
      <trkpt lat="61.6983" lon="5.19823">
        <ele>279.799398</ele>
        <time>2020-07-28T14:27:12.237Z</time>
      </trkpt>
      <trkpt lat="61.69843" lon="5.19812">
        <ele>278.569599</ele>
        <time>2020-07-28T14:27:13.230Z</time>
      </trkpt>
      <trkpt lat="61.69855" lon="5.19801">
        <ele>277.324364</ele>
        <time>2020-07-28T14:27:14.266Z</time>
      </trkpt>
      <trkpt lat="61.69867" lon="5.1979">
        <ele>276.082575</ele>
        <time>2020-07-28T14:27:15.233Z</time>
      </trkpt>
      <trkpt lat="61.69879" lon="5.19779">
        <ele>274.8001</ele>
        <time>2020-07-28T14:27:16.236Z</time>
      </trkpt>
      <trkpt lat="61.69892" lon="5.19768">
        <ele>273.48893</ele>
        <time>2020-07-28T14:27:17.236Z</time>
      </trkpt>
      <trkpt lat="61.69904" lon="5.19756">
        <ele>272.191903</ele>
        <time>2020-07-28T14:27:18.241Z</time>
      </trkpt>
      <trkpt lat="61.69916" lon="5.19744">
        <ele>270.869605</ele>
        <time>2020-07-28T14:27:19.245Z</time>
      </trkpt>
      <trkpt lat="61.69929" lon="5.19733">
        <ele>269.542181</ele>
        <time>2020-07-28T14:27:20.260Z</time>
      </trkpt>
      <trkpt lat="61.69942" lon="5.19721">
        <ele>268.198765</ele>
        <time>2020-07-28T14:27:21.231Z</time>
      </trkpt>
      <trkpt lat="61.69954" lon="5.1971">
        <ele>266.860589</ele>
        <time>2020-07-28T14:27:22.251Z</time>
      </trkpt>
      <trkpt lat="61.69967" lon="5.19698">
        <ele>265.535016</ele>
        <time>2020-07-28T14:27:23.255Z</time>
      </trkpt>
      <trkpt lat="61.69979" lon="5.19687">
        <ele>264.220254</ele>
        <time>2020-07-28T14:27:24.274Z</time>
      </trkpt>
      <trkpt lat="61.69991" lon="5.19677">
        <ele>262.941204</ele>
        <time>2020-07-28T14:27:25.232Z</time>
      </trkpt>
      <trkpt lat="61.70004" lon="5.19666">
        <ele>261.646166</ele>
        <time>2020-07-28T14:27:26.236Z</time>
      </trkpt>
      <trkpt lat="61.70016" lon="5.19656">
        <ele>260.376124</ele>
        <time>2020-07-28T14:27:27.229Z</time>
      </trkpt>
      <trkpt lat="61.70028" lon="5.19645">
        <ele>259.122293</ele>
        <time>2020-07-28T14:27:28.217Z</time>
      </trkpt>
      <trkpt lat="61.70039" lon="5.19634">
        <ele>257.866117</ele>
        <time>2020-07-28T14:27:29.275Z</time>
      </trkpt>
      <trkpt lat="61.70051" lon="5.19623">
        <ele>256.547011</ele>
        <time>2020-07-28T14:27:30.230Z</time>
      </trkpt>
      <trkpt lat="61.70062" lon="5.19613">
        <ele>255.253108</ele>
        <time>2020-07-28T14:27:31.251Z</time>
      </trkpt>
      <trkpt lat="61.70074" lon="5.19603">
        <ele>253.957292</ele>
        <time>2020-07-28T14:27:32.249Z</time>
      </trkpt>
      <trkpt lat="61.70085" lon="5.19593">
        <ele>252.674857</ele>
        <time>2020-07-28T14:27:33.237Z</time>
      </trkpt>
      <trkpt lat="61.70096" lon="5.19582">
        <ele>251.413133</ele>
        <time>2020-07-28T14:27:34.234Z</time>
      </trkpt>
      <trkpt lat="61.70107" lon="5.19572">
        <ele>250.143928</ele>
        <time>2020-07-28T14:27:35.242Z</time>
      </trkpt>
      <trkpt lat="61.70119" lon="5.19562">
        <ele>248.892064</ele>
        <time>2020-07-28T14:27:36.255Z</time>
      </trkpt>
      <trkpt lat="61.7013" lon="5.19552">
        <ele>247.659256</ele>
        <time>2020-07-28T14:27:37.227Z</time>
      </trkpt>
      <trkpt lat="61.7014" lon="5.19543">
        <ele>246.432252</ele>
        <time>2020-07-28T14:27:38.252Z</time>
      </trkpt>
      <trkpt lat="61.70151" lon="5.19533">
        <ele>245.216715</ele>
        <time>2020-07-28T14:27:39.253Z</time>
      </trkpt>
      <trkpt lat="61.70162" lon="5.19523">
        <ele>244.016354</ele>
        <time>2020-07-28T14:27:40.257Z</time>
      </trkpt>
      <trkpt lat="61.70172" lon="5.19513">
        <ele>242.823488</ele>
        <time>2020-07-28T14:27:41.259Z</time>
      </trkpt>
      <trkpt lat="61.70183" lon="5.19504">
        <ele>241.646075</ele>
        <time>2020-07-28T14:27:42.253Z</time>
      </trkpt>
      <trkpt lat="61.70193" lon="5.19495">
        <ele>240.491637</ele>
        <time>2020-07-28T14:27:43.235Z</time>
      </trkpt>
      <trkpt lat="61.70204" lon="5.19486">
        <ele>239.338855</ele>
        <time>2020-07-28T14:27:44.230Z</time>
      </trkpt>
      <trkpt lat="61.70214" lon="5.19477">
        <ele>238.236601</ele>
        <time>2020-07-28T14:27:45.239Z</time>
      </trkpt>
      <trkpt lat="61.70224" lon="5.19468">
        <ele>237.146818</ele>
        <time>2020-07-28T14:27:46.271Z</time>
      </trkpt>
      <trkpt lat="61.70235" lon="5.19459">
        <ele>236.082189</ele>
        <time>2020-07-28T14:27:47.271Z</time>
      </trkpt>
      <trkpt lat="61.70245" lon="5.1945">
        <ele>235.028296</ele>
        <time>2020-07-28T14:27:48.230Z</time>
      </trkpt>
      <trkpt lat="61.70255" lon="5.1944">
        <ele>233.958219</ele>
        <time>2020-07-28T14:27:49.243Z</time>
      </trkpt>
      <trkpt lat="61.70265" lon="5.1943">
        <ele>232.892398</ele>
        <time>2020-07-28T14:27:50.252Z</time>
      </trkpt>
      <trkpt lat="61.70274" lon="5.19419">
        <ele>231.805905</ele>
        <time>2020-07-28T14:27:51.237Z</time>
      </trkpt>
      <trkpt lat="61.70284" lon="5.19408">
        <ele>230.723207</ele>
        <time>2020-07-28T14:27:52.242Z</time>
      </trkpt>
      <trkpt lat="61.70294" lon="5.19396">
        <ele>229.637322</ele>
        <time>2020-07-28T14:27:53.259Z</time>
      </trkpt>
      <trkpt lat="61.70303" lon="5.19383">
        <ele>228.556555</ele>
        <time>2020-07-28T14:27:54.232Z</time>
      </trkpt>
      <trkpt lat="61.70312" lon="5.1937">
        <ele>227.484198</ele>
        <time>2020-07-28T14:27:55.239Z</time>
      </trkpt>
      <trkpt lat="61.70321" lon="5.19356">
        <ele>226.408933</ele>
        <time>2020-07-28T14:27:56.248Z</time>
      </trkpt>
      <trkpt lat="61.7033" lon="5.19341">
        <ele>225.327506</ele>
        <time>2020-07-28T14:27:57.241Z</time>
      </trkpt>
      <trkpt lat="61.70339" lon="5.19327">
        <ele>224.253736</ele>
        <time>2020-07-28T14:27:58.251Z</time>
      </trkpt>
      <trkpt lat="61.70347" lon="5.19312">
        <ele>223.161815</ele>
        <time>2020-07-28T14:27:59.241Z</time>
      </trkpt>
      <trkpt lat="61.70356" lon="5.19298">
        <ele>222.131583</ele>
        <time>2020-07-28T14:28:00.228Z</time>
      </trkpt>
      <trkpt lat="61.70365" lon="5.19284">
        <ele>221.406667</ele>
        <time>2020-07-28T14:28:01.244Z</time>
      </trkpt>
      <trkpt lat="61.70374" lon="5.1927">
        <ele>220.665934</ele>
        <time>2020-07-28T14:28:02.249Z</time>
      </trkpt>
      <trkpt lat="61.70383" lon="5.19256">
        <ele>219.930856</ele>
        <time>2020-07-28T14:28:03.249Z</time>
      </trkpt>
      <trkpt lat="61.70393" lon="5.19243">
        <ele>219.179215</ele>
        <time>2020-07-28T14:28:04.243Z</time>
      </trkpt>
      <trkpt lat="61.70402" lon="5.1923">
        <ele>218.414802</ele>
        <time>2020-07-28T14:28:05.259Z</time>
      </trkpt>
      <trkpt lat="61.70413" lon="5.19217">
        <ele>217.62808</ele>
        <time>2020-07-28T14:28:06.258Z</time>
      </trkpt>
      <trkpt lat="61.70423" lon="5.19206">
        <ele>216.828336</ele>
        <time>2020-07-28T14:28:07.227Z</time>
      </trkpt>
      <trkpt lat="61.70434" lon="5.19196">
        <ele>216.039163</ele>
        <time>2020-07-28T14:28:08.236Z</time>
      </trkpt>
      <trkpt lat="61.70445" lon="5.19187">
        <ele>215.251152</ele>
        <time>2020-07-28T14:28:09.251Z</time>
      </trkpt>
      <trkpt lat="61.70457" lon="5.19178">
        <ele>214.451181</ele>
        <time>2020-07-28T14:28:10.238Z</time>
      </trkpt>
      <trkpt lat="61.70468" lon="5.19171">
        <ele>213.66307</ele>
        <time>2020-07-28T14:28:11.236Z</time>
      </trkpt>
      <trkpt lat="61.7048" lon="5.19164">
        <ele>212.863632</ele>
        <time>2020-07-28T14:28:12.234Z</time>
      </trkpt>
      <trkpt lat="61.70492" lon="5.19158">
        <ele>212.068772</ele>
        <time>2020-07-28T14:28:13.230Z</time>
      </trkpt>
      <trkpt lat="61.70504" lon="5.19153">
        <ele>211.25221</ele>
        <time>2020-07-28T14:28:14.241Z</time>
      </trkpt>
      <trkpt lat="61.70516" lon="5.19149">
        <ele>210.422874</ele>
        <time>2020-07-28T14:28:15.240Z</time>
      </trkpt>
      <trkpt lat="61.70529" lon="5.19146">
        <ele>209.656393</ele>
        <time>2020-07-28T14:28:16.256Z</time>
      </trkpt>
      <trkpt lat="61.70541" lon="5.19143">
        <ele>208.913038</ele>
        <time>2020-07-28T14:28:17.227Z</time>
      </trkpt>
      <trkpt lat="61.70553" lon="5.19141">
        <ele>208.166844</ele>
        <time>2020-07-28T14:28:18.243Z</time>
      </trkpt>
      <trkpt lat="61.70565" lon="5.19141">
        <ele>207.397796</ele>
        <time>2020-07-28T14:28:19.280Z</time>
      </trkpt>
      <trkpt lat="61.70578" lon="5.19141">
        <ele>206.647314</ele>
        <time>2020-07-28T14:28:20.279Z</time>
      </trkpt>
      <trkpt lat="61.7059" lon="5.19141">
        <ele>205.890536</ele>
        <time>2020-07-28T14:28:21.243Z</time>
      </trkpt>
      <trkpt lat="61.70603" lon="5.19143">
        <ele>205.133162</ele>
        <time>2020-07-28T14:28:22.229Z</time>
      </trkpt>
      <trkpt lat="61.70615" lon="5.19144">
        <ele>204.37459</ele>
        <time>2020-07-28T14:28:23.236Z</time>
      </trkpt>
      <trkpt lat="61.70627" lon="5.19148">
        <ele>203.606316</ele>
        <time>2020-07-28T14:28:24.225Z</time>
      </trkpt>
      <trkpt lat="61.7064" lon="5.19151">
        <ele>202.849795</ele>
        <time>2020-07-28T14:28:25.246Z</time>
      </trkpt>
      <trkpt lat="61.70652" lon="5.19155">
        <ele>202.085277</ele>
        <time>2020-07-28T14:28:26.233Z</time>
      </trkpt>
      <trkpt lat="61.70665" lon="5.1916">
        <ele>201.307912</ele>
        <time>2020-07-28T14:28:27.251Z</time>
      </trkpt>
      <trkpt lat="61.70677" lon="5.19165">
        <ele>200.535963</ele>
        <time>2020-07-28T14:28:28.248Z</time>
      </trkpt>
      <trkpt lat="61.7069" lon="5.19171">
        <ele>199.7509</ele>
        <time>2020-07-28T14:28:29.232Z</time>
      </trkpt>
      <trkpt lat="61.70702" lon="5.19176">
        <ele>198.872502</ele>
        <time>2020-07-28T14:28:30.230Z</time>
      </trkpt>
      <trkpt lat="61.70715" lon="5.19182">
        <ele>197.931779</ele>
        <time>2020-07-28T14:28:31.244Z</time>
      </trkpt>
      <trkpt lat="61.70728" lon="5.19187">
        <ele>196.964771</ele>
        <time>2020-07-28T14:28:32.239Z</time>
      </trkpt>
      <trkpt lat="61.7074" lon="5.19192">
        <ele>196.011614</ele>
        <time>2020-07-28T14:28:33.237Z</time>
      </trkpt>
      <trkpt lat="61.70753" lon="5.19197">
        <ele>195.071587</ele>
        <time>2020-07-28T14:28:34.231Z</time>
      </trkpt>
      <trkpt lat="61.70766" lon="5.19203">
        <ele>194.105608</ele>
        <time>2020-07-28T14:28:35.245Z</time>
      </trkpt>
      <trkpt lat="61.70778" lon="5.1921">
        <ele>193.155587</ele>
        <time>2020-07-28T14:28:36.263Z</time>
      </trkpt>
      <trkpt lat="61.70791" lon="5.19217">
        <ele>192.207369</ele>
        <time>2020-07-28T14:28:37.273Z</time>
      </trkpt>
      <trkpt lat="61.70803" lon="5.19224">
        <ele>191.276567</ele>
        <time>2020-07-28T14:28:38.216Z</time>
      </trkpt>
      <trkpt lat="61.70815" lon="5.19233">
        <ele>190.342183</ele>
        <time>2020-07-28T14:28:39.221Z</time>
      </trkpt>
      <trkpt lat="61.70827" lon="5.19242">
        <ele>189.405346</ele>
        <time>2020-07-28T14:28:40.242Z</time>
      </trkpt>
      <trkpt lat="61.70838" lon="5.19251">
        <ele>188.529862</ele>
        <time>2020-07-28T14:28:41.237Z</time>
      </trkpt>
      <trkpt lat="61.70848" lon="5.19259">
        <ele>187.698667</ele>
        <time>2020-07-28T14:28:42.228Z</time>
      </trkpt>
      <trkpt lat="61.70859" lon="5.19267">
        <ele>186.882525</ele>
        <time>2020-07-28T14:28:43.237Z</time>
      </trkpt>
      <trkpt lat="61.70869" lon="5.19275">
        <ele>186.082387</ele>
        <time>2020-07-28T14:28:44.252Z</time>
      </trkpt>
      <trkpt lat="61.70879" lon="5.19283">
        <ele>185.350222</ele>
        <time>2020-07-28T14:28:45.234Z</time>
      </trkpt>
      <trkpt lat="61.70889" lon="5.1929">
        <ele>184.611159</ele>
        <time>2020-07-28T14:28:46.244Z</time>
      </trkpt>
      <trkpt lat="61.709" lon="5.19296">
        <ele>183.856949</ele>
        <time>2020-07-28T14:28:47.238Z</time>
      </trkpt>
      <trkpt lat="61.70911" lon="5.19302">
        <ele>183.080285</ele>
        <time>2020-07-28T14:28:48.231Z</time>
      </trkpt>
      <trkpt lat="61.70922" lon="5.19306">
        <ele>182.298092</ele>
        <time>2020-07-28T14:28:49.242Z</time>
      </trkpt>
      <trkpt lat="61.70933" lon="5.1931">
        <ele>181.508522</ele>
        <time>2020-07-28T14:28:50.235Z</time>
      </trkpt>
      <trkpt lat="61.70945" lon="5.19313">
        <ele>180.699379</ele>
        <time>2020-07-28T14:28:51.257Z</time>
      </trkpt>
      <trkpt lat="61.70957" lon="5.19315">
        <ele>179.854419</ele>
        <time>2020-07-28T14:28:52.260Z</time>
      </trkpt>
      <trkpt lat="61.70969" lon="5.19316">
        <ele>179.017785</ele>
        <time>2020-07-28T14:28:53.251Z</time>
      </trkpt>
      <trkpt lat="61.70981" lon="5.19317">
        <ele>178.16084</ele>
        <time>2020-07-28T14:28:54.225Z</time>
      </trkpt>
      <trkpt lat="61.70993" lon="5.19316">
        <ele>177.324072</ele>
        <time>2020-07-28T14:28:55.231Z</time>
      </trkpt>
      <trkpt lat="61.71005" lon="5.19314">
        <ele>176.485767</ele>
        <time>2020-07-28T14:28:56.243Z</time>
      </trkpt>
      <trkpt lat="61.71018" lon="5.19312">
        <ele>175.640572</ele>
        <time>2020-07-28T14:28:57.232Z</time>
      </trkpt>
      <trkpt lat="61.7103" lon="5.19309">
        <ele>174.791581</ele>
        <time>2020-07-28T14:28:58.240Z</time>
      </trkpt>
      <trkpt lat="61.71042" lon="5.19304">
        <ele>173.935327</ele>
        <time>2020-07-28T14:28:59.234Z</time>
      </trkpt>
      <trkpt lat="61.71054" lon="5.19299">
        <ele>172.833749</ele>
        <time>2020-07-28T14:29:00.247Z</time>
      </trkpt>
      <trkpt lat="61.71067" lon="5.19294">
        <ele>171.661649</ele>
        <time>2020-07-28T14:29:01.246Z</time>
      </trkpt>
      <trkpt lat="61.7108" lon="5.19289">
        <ele>170.421768</ele>
        <time>2020-07-28T14:29:02.249Z</time>
      </trkpt>
      <trkpt lat="61.71093" lon="5.19285">
        <ele>169.173281</ele>
        <time>2020-07-28T14:29:03.225Z</time>
      </trkpt>
      <trkpt lat="61.71105" lon="5.19279">
        <ele>167.951465</ele>
        <time>2020-07-28T14:29:04.258Z</time>
      </trkpt>
      <trkpt lat="61.71118" lon="5.19274">
        <ele>166.721329</ele>
        <time>2020-07-28T14:29:05.236Z</time>
      </trkpt>
      <trkpt lat="61.71131" lon="5.19268">
        <ele>165.498593</ele>
        <time>2020-07-28T14:29:06.236Z</time>
      </trkpt>
      <trkpt lat="61.71144" lon="5.19262">
        <ele>164.262836</ele>
        <time>2020-07-28T14:29:07.224Z</time>
      </trkpt>
      <trkpt lat="61.71156" lon="5.19256">
        <ele>163.035264</ele>
        <time>2020-07-28T14:29:08.242Z</time>
      </trkpt>
      <trkpt lat="61.71169" lon="5.1925">
        <ele>161.817871</ele>
        <time>2020-07-28T14:29:09.239Z</time>
      </trkpt>
      <trkpt lat="61.71182" lon="5.19244">
        <ele>160.574848</ele>
        <time>2020-07-28T14:29:10.239Z</time>
      </trkpt>
      <trkpt lat="61.71195" lon="5.19238">
        <ele>159.302321</ele>
        <time>2020-07-28T14:29:11.234Z</time>
      </trkpt>
      <trkpt lat="61.71208" lon="5.19232">
        <ele>158.025147</ele>
        <time>2020-07-28T14:29:12.224Z</time>
      </trkpt>
      <trkpt lat="61.71222" lon="5.19227">
        <ele>156.724967</ele>
        <time>2020-07-28T14:29:13.284Z</time>
      </trkpt>
      <trkpt lat="61.71236" lon="5.19222">
        <ele>155.584884</ele>
        <time>2020-07-28T14:29:14.260Z</time>
      </trkpt>
      <trkpt lat="61.7125" lon="5.19217">
        <ele>154.421975</ele>
        <time>2020-07-28T14:29:15.263Z</time>
      </trkpt>
      <trkpt lat="61.71264" lon="5.19212">
        <ele>153.275139</ele>
        <time>2020-07-28T14:29:16.241Z</time>
      </trkpt>
      <trkpt lat="61.71278" lon="5.19207">
        <ele>152.118354</ele>
        <time>2020-07-28T14:29:17.233Z</time>
      </trkpt>
      <trkpt lat="61.71292" lon="5.19201">
        <ele>150.948679</ele>
        <time>2020-07-28T14:29:18.238Z</time>
      </trkpt>
      <trkpt lat="61.71306" lon="5.19195">
        <ele>149.763016</ele>
        <time>2020-07-28T14:29:19.225Z</time>
      </trkpt>
      <trkpt lat="61.71321" lon="5.1919">
        <ele>148.578785</ele>
        <time>2020-07-28T14:29:20.260Z</time>
      </trkpt>
      <trkpt lat="61.71335" lon="5.19184">
        <ele>147.394555</ele>
        <time>2020-07-28T14:29:21.252Z</time>
      </trkpt>
      <trkpt lat="61.71349" lon="5.19178">
        <ele>146.216888</ele>
        <time>2020-07-28T14:29:22.260Z</time>
      </trkpt>
      <trkpt lat="61.71363" lon="5.19173">
        <ele>145.048666</ele>
        <time>2020-07-28T14:29:23.233Z</time>
      </trkpt>
      <trkpt lat="61.71377" lon="5.19167">
        <ele>143.878991</ele>
        <time>2020-07-28T14:29:24.235Z</time>
      </trkpt>
      <trkpt lat="61.71391" lon="5.19162">
        <ele>142.720183</ele>
        <time>2020-07-28T14:29:25.244Z</time>
      </trkpt>
      <trkpt lat="61.71405" lon="5.19157">
        <ele>141.77955</ele>
        <time>2020-07-28T14:29:26.277Z</time>
      </trkpt>
      <trkpt lat="61.71419" lon="5.19149">
        <ele>141.094493</ele>
        <time>2020-07-28T14:29:27.240Z</time>
      </trkpt>
      <trkpt lat="61.71433" lon="5.19143">
        <ele>140.399596</ele>
        <time>2020-07-28T14:29:28.236Z</time>
      </trkpt>
      <trkpt lat="61.71446" lon="5.19136">
        <ele>139.720088</ele>
        <time>2020-07-28T14:29:29.288Z</time>
      </trkpt>
      <trkpt lat="61.7146" lon="5.1913">
        <ele>139.036808</ele>
        <time>2020-07-28T14:29:30.240Z</time>
      </trkpt>
      <trkpt lat="61.71473" lon="5.19123">
        <ele>138.376662</ele>
        <time>2020-07-28T14:29:31.232Z</time>
      </trkpt>
      <trkpt lat="61.71486" lon="5.19117">
        <ele>137.723636</ele>
        <time>2020-07-28T14:29:32.234Z</time>
      </trkpt>
      <trkpt lat="61.71499" lon="5.19111">
        <ele>137.077806</ele>
        <time>2020-07-28T14:29:33.272Z</time>
      </trkpt>
      <trkpt lat="61.71511" lon="5.19106">
        <ele>136.432432</ele>
        <time>2020-07-28T14:29:34.266Z</time>
      </trkpt>
      <trkpt lat="61.71524" lon="5.191">
        <ele>135.786602</ele>
        <time>2020-07-28T14:29:35.242Z</time>
      </trkpt>
      <trkpt lat="61.71537" lon="5.19095">
        <ele>135.151308</ele>
        <time>2020-07-28T14:29:36.234Z</time>
      </trkpt>
      <trkpt lat="61.7155" lon="5.1909">
        <ele>134.5169</ele>
        <time>2020-07-28T14:29:37.251Z</time>
      </trkpt>
      <trkpt lat="61.71562" lon="5.19085">
        <ele>133.888998</ele>
        <time>2020-07-28T14:29:38.241Z</time>
      </trkpt>
      <trkpt lat="61.71575" lon="5.1908">
        <ele>133.255342</ele>
        <time>2020-07-28T14:29:39.243Z</time>
      </trkpt>
      <trkpt lat="61.71588" lon="5.19076">
        <ele>132.595174</ele>
        <time>2020-07-28T14:29:40.229Z</time>
      </trkpt>
      <trkpt lat="61.716" lon="5.19072">
        <ele>131.944865</ele>
        <time>2020-07-28T14:29:41.235Z</time>
      </trkpt>
      <trkpt lat="61.71612" lon="5.19068">
        <ele>131.301697</ele>
        <time>2020-07-28T14:29:42.253Z</time>
      </trkpt>
      <trkpt lat="61.71624" lon="5.19064">
        <ele>130.653382</ele>
        <time>2020-07-28T14:29:43.230Z</time>
      </trkpt>
      <trkpt lat="61.71636" lon="5.19059">
        <ele>130.023154</ele>
        <time>2020-07-28T14:29:44.256Z</time>
      </trkpt>
      <trkpt lat="61.71648" lon="5.19054">
        <ele>129.402248</ele>
        <time>2020-07-28T14:29:45.257Z</time>
      </trkpt>
      <trkpt lat="61.71659" lon="5.19049">
        <ele>128.796676</ele>
        <time>2020-07-28T14:29:46.242Z</time>
      </trkpt>
      <trkpt lat="61.71671" lon="5.19045">
        <ele>128.187833</ele>
        <time>2020-07-28T14:29:47.243Z</time>
      </trkpt>
      <trkpt lat="61.71682" lon="5.1904">
        <ele>127.590431</ele>
        <time>2020-07-28T14:29:48.258Z</time>
      </trkpt>
      <trkpt lat="61.71694" lon="5.19035">
        <ele>126.981588</ele>
        <time>2020-07-28T14:29:49.244Z</time>
      </trkpt>
      <trkpt lat="61.71705" lon="5.1903">
        <ele>126.367862</ele>
        <time>2020-07-28T14:29:50.247Z</time>
      </trkpt>
      <trkpt lat="61.71717" lon="5.19025">
        <ele>125.756203</ele>
        <time>2020-07-28T14:29:51.229Z</time>
      </trkpt>
      <trkpt lat="61.71728" lon="5.1902">
        <ele>125.141342</ele>
        <time>2020-07-28T14:29:52.251Z</time>
      </trkpt>
      <trkpt lat="61.7174" lon="5.19015">
        <ele>124.533235</ele>
        <time>2020-07-28T14:29:53.231Z</time>
      </trkpt>
      <trkpt lat="61.71751" lon="5.1901">
        <ele>123.921074</ele>
        <time>2020-07-28T14:29:54.235Z</time>
      </trkpt>
      <trkpt lat="61.71763" lon="5.19004">
        <ele>123.29968</ele>
        <time>2020-07-28T14:29:55.232Z</time>
      </trkpt>
      <trkpt lat="61.71774" lon="5.18999">
        <ele>122.676181</ele>
        <time>2020-07-28T14:29:56.235Z</time>
      </trkpt>
      <trkpt lat="61.71785" lon="5.18994">
        <ele>122.072786</ele>
        <time>2020-07-28T14:29:57.230Z</time>
      </trkpt>
      <trkpt lat="61.71796" lon="5.18989">
        <ele>121.476085</ele>
        <time>2020-07-28T14:29:58.232Z</time>
      </trkpt>
      <trkpt lat="61.71807" lon="5.18985">
        <ele>120.891181</ele>
        <time>2020-07-28T14:29:59.253Z</time>
      </trkpt>
      <trkpt lat="61.71818" lon="5.1898">
        <ele>120.302675</ele>
        <time>2020-07-28T14:30:00.234Z</time>
      </trkpt>
      <trkpt lat="61.71829" lon="5.18976">
        <ele>119.714848</ele>
        <time>2020-07-28T14:30:01.258Z</time>
      </trkpt>
      <trkpt lat="61.7184" lon="5.18972">
        <ele>119.143435</ele>
        <time>2020-07-28T14:30:02.243Z</time>
      </trkpt>
      <trkpt lat="61.7185" lon="5.18968">
        <ele>118.580632</ele>
        <time>2020-07-28T14:30:03.231Z</time>
      </trkpt>
      <trkpt lat="61.71861" lon="5.18964">
        <ele>118.020018</ele>
        <time>2020-07-28T14:30:04.232Z</time>
      </trkpt>
      <trkpt lat="61.71872" lon="5.18961">
        <ele>117.446985</ele>
        <time>2020-07-28T14:30:05.261Z</time>
      </trkpt>
      <trkpt lat="61.71883" lon="5.1896">
        <ele>116.872304</ele>
        <time>2020-07-28T14:30:06.231Z</time>
      </trkpt>
      <trkpt lat="61.71894" lon="5.18963">
        <ele>116.295164</ele>
        <time>2020-07-28T14:30:07.218Z</time>
      </trkpt>
      <trkpt lat="61.71904" lon="5.18967">
        <ele>115.73092</ele>
        <time>2020-07-28T14:30:08.237Z</time>
      </trkpt>
      <trkpt lat="61.71914" lon="5.18975">
        <ele>115.171191</ele>
        <time>2020-07-28T14:30:09.256Z</time>
      </trkpt>
      <trkpt lat="61.71923" lon="5.18985">
        <ele>114.616795</ele>
        <time>2020-07-28T14:30:10.255Z</time>
      </trkpt>
      <trkpt lat="61.71932" lon="5.18999">
        <ele>113.835525</ele>
        <time>2020-07-28T14:30:11.237Z</time>
      </trkpt>
      <trkpt lat="61.7194" lon="5.19017">
        <ele>112.926379</ele>
        <time>2020-07-28T14:30:12.230Z</time>
      </trkpt>
      <trkpt lat="61.71946" lon="5.19036">
        <ele>112.03646</ele>
        <time>2020-07-28T14:30:13.268Z</time>
      </trkpt>
      <trkpt lat="61.7195" lon="5.19059">
        <ele>111.114446</ele>
        <time>2020-07-28T14:30:14.275Z</time>
      </trkpt>
      <trkpt lat="61.71954" lon="5.19081">
        <ele>110.199288</ele>
        <time>2020-07-28T14:30:15.236Z</time>
      </trkpt>
      <trkpt lat="61.71955" lon="5.19104">
        <ele>109.329288</ele>
        <time>2020-07-28T14:30:16.240Z</time>
      </trkpt>
      <trkpt lat="61.71956" lon="5.19127">
        <ele>108.461907</ele>
        <time>2020-07-28T14:30:17.258Z</time>
      </trkpt>
      <trkpt lat="61.71954" lon="5.1915">
        <ele>107.547103</ele>
        <time>2020-07-28T14:30:18.268Z</time>
      </trkpt>
      <trkpt lat="61.71951" lon="5.19175">
        <ele>106.587731</ele>
        <time>2020-07-28T14:30:19.229Z</time>
      </trkpt>
      <trkpt lat="61.71948" lon="5.19198">
        <ele>105.670105</ele>
        <time>2020-07-28T14:30:20.225Z</time>
      </trkpt>
      <trkpt lat="61.71944" lon="5.1922">
        <ele>104.75243</ele>
        <time>2020-07-28T14:30:21.295Z</time>
      </trkpt>
      <trkpt lat="61.71941" lon="5.19244">
        <ele>103.806847</ele>
        <time>2020-07-28T14:30:22.243Z</time>
      </trkpt>
      <trkpt lat="61.71937" lon="5.19267">
        <ele>102.87093</ele>
        <time>2020-07-28T14:30:23.253Z</time>
      </trkpt>
      <trkpt lat="61.71934" lon="5.19291">
        <ele>101.908423</ele>
        <time>2020-07-28T14:30:24.253Z</time>
      </trkpt>
      <trkpt lat="61.7193" lon="5.19316">
        <ele>100.948247</ele>
        <time>2020-07-28T14:30:25.263Z</time>
      </trkpt>
      <trkpt lat="61.71927" lon="5.19339">
        <ele>100.016779</ele>
        <time>2020-07-28T14:30:26.273Z</time>
      </trkpt>
      <trkpt lat="61.71925" lon="5.19362">
        <ele>99.043623</ele>
        <time>2020-07-28T14:30:27.235Z</time>
      </trkpt>
      <trkpt lat="61.71922" lon="5.19386">
        <ele>98.048472</ele>
        <time>2020-07-28T14:30:28.250Z</time>
      </trkpt>
      <trkpt lat="61.7192" lon="5.1941">
        <ele>97.047856</ele>
        <time>2020-07-28T14:30:29.259Z</time>
      </trkpt>
      <trkpt lat="61.71919" lon="5.19435">
        <ele>96.020118</ele>
        <time>2020-07-28T14:30:30.229Z</time>
      </trkpt>
      <trkpt lat="61.71918" lon="5.1946">
        <ele>94.979477</ele>
        <time>2020-07-28T14:30:31.240Z</time>
      </trkpt>
      <trkpt lat="61.71918" lon="5.19485">
        <ele>93.936356</ele>
        <time>2020-07-28T14:30:32.244Z</time>
      </trkpt>
      <trkpt lat="61.71919" lon="5.19511">
        <ele>92.890466</ele>
        <time>2020-07-28T14:30:33.236Z</time>
      </trkpt>
      <trkpt lat="61.71921" lon="5.19536">
        <ele>91.867936</ele>
        <time>2020-07-28T14:30:34.239Z</time>
      </trkpt>
      <trkpt lat="61.71922" lon="5.1956">
        <ele>90.845405</ele>
        <time>2020-07-28T14:30:35.238Z</time>
      </trkpt>
      <trkpt lat="61.71924" lon="5.19584">
        <ele>89.851701</ele>
        <time>2020-07-28T14:30:36.260Z</time>
      </trkpt>
      <trkpt lat="61.71926" lon="5.19607">
        <ele>88.913246</ele>
        <time>2020-07-28T14:30:37.234Z</time>
      </trkpt>
      <trkpt lat="61.71928" lon="5.19628">
        <ele>88.001468</ele>
        <time>2020-07-28T14:30:38.255Z</time>
      </trkpt>
      <trkpt lat="61.7193" lon="5.1965">
        <ele>87.104396</ele>
        <time>2020-07-28T14:30:39.236Z</time>
      </trkpt>
      <trkpt lat="61.71933" lon="5.19671">
        <ele>86.191949</ele>
        <time>2020-07-28T14:30:40.262Z</time>
      </trkpt>
      <trkpt lat="61.71937" lon="5.19692">
        <ele>85.2484</ele>
        <time>2020-07-28T14:30:41.251Z</time>
      </trkpt>
      <trkpt lat="61.71943" lon="5.19713">
        <ele>84.310227</ele>
        <time>2020-07-28T14:30:42.243Z</time>
      </trkpt>
      <trkpt lat="61.71949" lon="5.19732">
        <ele>83.611377</ele>
        <time>2020-07-28T14:30:43.258Z</time>
      </trkpt>
      <trkpt lat="61.71957" lon="5.19751">
        <ele>82.889837</ele>
        <time>2020-07-28T14:30:44.231Z</time>
      </trkpt>
      <trkpt lat="61.71965" lon="5.1977">
        <ele>82.137269</ele>
        <time>2020-07-28T14:30:45.254Z</time>
      </trkpt>
      <trkpt lat="61.71973" lon="5.19789">
        <ele>81.367949</ele>
        <time>2020-07-28T14:30:46.224Z</time>
      </trkpt>
      <trkpt lat="61.71982" lon="5.19809">
        <ele>80.570924</ele>
        <time>2020-07-28T14:30:47.230Z</time>
      </trkpt>
      <trkpt lat="61.71991" lon="5.19829">
        <ele>79.776015</ele>
        <time>2020-07-28T14:30:48.233Z</time>
      </trkpt>
      <trkpt lat="61.72" lon="5.19847">
        <ele>78.984131</ele>
        <time>2020-07-28T14:30:49.241Z</time>
      </trkpt>
      <trkpt lat="61.72008" lon="5.19867">
        <ele>78.213909</ele>
        <time>2020-07-28T14:30:50.226Z</time>
      </trkpt>
      <trkpt lat="61.72017" lon="5.19886">
        <ele>77.448825</ele>
        <time>2020-07-28T14:30:51.251Z</time>
      </trkpt>
      <trkpt lat="61.72025" lon="5.19903">
        <ele>76.721581</ele>
        <time>2020-07-28T14:30:52.231Z</time>
      </trkpt>
      <trkpt lat="61.72033" lon="5.19921">
        <ele>75.994876</ele>
        <time>2020-07-28T14:30:53.238Z</time>
      </trkpt>
      <trkpt lat="61.7204" lon="5.19941">
        <ele>75.261398</ele>
        <time>2020-07-28T14:30:54.251Z</time>
      </trkpt>
      <trkpt lat="61.72047" lon="5.19963">
        <ele>74.500997</ele>
        <time>2020-07-28T14:30:55.249Z</time>
      </trkpt>
      <trkpt lat="61.72053" lon="5.19985">
        <ele>73.752026</ele>
        <time>2020-07-28T14:30:56.239Z</time>
      </trkpt>
      <trkpt lat="61.72059" lon="5.20008">
        <ele>72.861562</ele>
        <time>2020-07-28T14:30:57.255Z</time>
      </trkpt>
      <trkpt lat="61.72064" lon="5.20032">
        <ele>71.621109</ele>
        <time>2020-07-28T14:30:58.240Z</time>
      </trkpt>
      <trkpt lat="61.72067" lon="5.20058">
        <ele>70.366849</ele>
        <time>2020-07-28T14:30:59.261Z</time>
      </trkpt>
      <trkpt lat="61.7207" lon="5.20084">
        <ele>69.103556</ele>
        <time>2020-07-28T14:31:00.236Z</time>
      </trkpt>
      <trkpt lat="61.72074" lon="5.20111">
        <ele>67.829186</ele>
        <time>2020-07-28T14:31:01.242Z</time>
      </trkpt>
      <trkpt lat="61.72076" lon="5.20137">
        <ele>66.547854</ele>
        <time>2020-07-28T14:31:02.257Z</time>
      </trkpt>
      <trkpt lat="61.72079" lon="5.20165">
        <ele>65.24653</ele>
        <time>2020-07-28T14:31:03.251Z</time>
      </trkpt>
      <trkpt lat="61.72081" lon="5.20192">
        <ele>63.937742</ele>
        <time>2020-07-28T14:31:04.261Z</time>
      </trkpt>
      <trkpt lat="61.72085" lon="5.20218">
        <ele>62.671873</ele>
        <time>2020-07-28T14:31:05.236Z</time>
      </trkpt>
      <trkpt lat="61.72089" lon="5.20243">
        <ele>61.43211</ele>
        <time>2020-07-28T14:31:06.236Z</time>
      </trkpt>
      <trkpt lat="61.72094" lon="5.20267">
        <ele>60.227395</ele>
        <time>2020-07-28T14:31:07.230Z</time>
      </trkpt>
      <trkpt lat="61.721" lon="5.20288">
        <ele>59.063456</ele>
        <time>2020-07-28T14:31:08.234Z</time>
      </trkpt>
      <trkpt lat="61.72107" lon="5.20308">
        <ele>57.923058</ele>
        <time>2020-07-28T14:31:09.253Z</time>
      </trkpt>
      <trkpt lat="61.72114" lon="5.20327">
        <ele>56.737547</ele>
        <time>2020-07-28T14:31:10.249Z</time>
      </trkpt>
      <trkpt lat="61.72123" lon="5.20347">
        <ele>55.515383</ele>
        <time>2020-07-28T14:31:11.237Z</time>
      </trkpt>
      <trkpt lat="61.72132" lon="5.20364">
        <ele>55.057218</ele>
        <time>2020-07-28T14:31:12.265Z</time>
      </trkpt>
      <trkpt lat="61.72142" lon="5.20381">
        <ele>54.627857</ele>
        <time>2020-07-28T14:31:13.252Z</time>
      </trkpt>
      <trkpt lat="61.72152" lon="5.20396">
        <ele>54.194561</ele>
        <time>2020-07-28T14:31:14.258Z</time>
      </trkpt>
      <trkpt lat="61.72163" lon="5.2041">
        <ele>53.767802</ele>
        <time>2020-07-28T14:31:15.235Z</time>
      </trkpt>
      <trkpt lat="61.72174" lon="5.20422">
        <ele>53.353857</ele>
        <time>2020-07-28T14:31:16.258Z</time>
      </trkpt>
      <trkpt lat="61.72185" lon="5.20434">
        <ele>52.943318</ele>
        <time>2020-07-28T14:31:17.229Z</time>
      </trkpt>
      <trkpt lat="61.72196" lon="5.20444">
        <ele>52.518844</ele>
        <time>2020-07-28T14:31:18.226Z</time>
      </trkpt>
      <trkpt lat="61.72208" lon="5.20456">
        <ele>52.079864</ele>
        <time>2020-07-28T14:31:19.229Z</time>
      </trkpt>
      <trkpt lat="61.7222" lon="5.20468">
        <ele>51.646279</ele>
        <time>2020-07-28T14:31:20.226Z</time>
      </trkpt>
      <trkpt lat="61.72231" lon="5.20479">
        <ele>51.227599</ele>
        <time>2020-07-28T14:31:21.248Z</time>
      </trkpt>
      <trkpt lat="61.72242" lon="5.20489">
        <ele>50.831126</ele>
        <time>2020-07-28T14:31:22.229Z</time>
      </trkpt>
      <trkpt lat="61.72251" lon="5.20495">
        <ele>50.506608</ele>
        <time>2020-07-28T14:31:23.271Z</time>
      </trkpt>
      <trkpt lat="61.72265" lon="5.20507">
        <ele>49.991339</ele>
        <time>2020-07-28T14:31:25.220Z</time>
      </trkpt>
      <trkpt lat="61.72276" lon="5.20515">
        <ele>49.612289</ele>
        <time>2020-07-28T14:31:27.250Z</time>
      </trkpt>
      <trkpt lat="61.72285" lon="5.2052">
        <ele>49.386526</ele>
        <time>2020-07-28T14:31:29.244Z</time>
      </trkpt>
      <trkpt lat="61.72294" lon="5.20529">
        <ele>49.351387</ele>
        <time>2020-07-28T14:31:32.268Z</time>
      </trkpt>
      <trkpt lat="61.72303" lon="5.20536">
        <ele>49.317985</ele>
        <time>2020-07-28T14:31:38.248Z</time>
      </trkpt>
      <trkpt lat="61.72313" lon="5.20547">
        <ele>49.278756</ele>
        <time>2020-07-28T14:31:44.221Z</time>
      </trkpt>
      <trkpt lat="61.7232" lon="5.20563">
        <ele>49.24423</ele>
        <time>2020-07-28T14:31:48.216Z</time>
      </trkpt>
      <trkpt lat="61.72326" lon="5.20579">
        <ele>49.209778</ele>
        <time>2020-07-28T14:31:52.232Z</time>
      </trkpt>
      <trkpt lat="61.72329" lon="5.20599">
        <ele>49.173913</ele>
        <time>2020-07-28T14:31:56.229Z</time>
      </trkpt>
      <trkpt lat="61.72329" lon="5.20619">
        <ele>49.141862</ele>
        <time>2020-07-28T14:31:59.220Z</time>
      </trkpt>
      <trkpt lat="61.72329" lon="5.20643">
        <ele>49.10124</ele>
        <time>2020-07-28T14:32:02.238Z</time>
      </trkpt>
      <trkpt lat="61.72328" lon="5.20662">
        <ele>49.069673</ele>
        <time>2020-07-28T14:32:04.229Z</time>
      </trkpt>
      <trkpt lat="61.72326" lon="5.20683">
        <ele>49.033947</ele>
        <time>2020-07-28T14:32:06.225Z</time>
      </trkpt>
      <trkpt lat="61.72323" lon="5.20706">
        <ele>48.995413</ele>
        <time>2020-07-28T14:32:08.235Z</time>
      </trkpt>
      <trkpt lat="61.72319" lon="5.20729">
        <ele>48.953968</ele>
        <time>2020-07-28T14:32:10.289Z</time>
      </trkpt>
      <trkpt lat="61.72314" lon="5.20752">
        <ele>48.912184</ele>
        <time>2020-07-28T14:32:12.236Z</time>
      </trkpt>
      <trkpt lat="61.72307" lon="5.20776">
        <ele>48.866707</ele>
        <time>2020-07-28T14:32:14.259Z</time>
      </trkpt>
      <trkpt lat="61.72299" lon="5.20801">
        <ele>48.817191</ele>
        <time>2020-07-28T14:32:16.239Z</time>
      </trkpt>
      <trkpt lat="61.72291" lon="5.20827">
        <ele>48.728117</ele>
        <time>2020-07-28T14:32:18.259Z</time>
      </trkpt>
      <trkpt lat="61.7228" lon="5.20853">
        <ele>48.286389</ele>
        <time>2020-07-28T14:32:20.250Z</time>
      </trkpt>
      <trkpt lat="61.72268" lon="5.20878">
        <ele>47.821216</ele>
        <time>2020-07-28T14:32:22.256Z</time>
      </trkpt>
      <trkpt lat="61.72256" lon="5.20903">
        <ele>47.352323</ele>
        <time>2020-07-28T14:32:24.242Z</time>
      </trkpt>
      <trkpt lat="61.72244" lon="5.20929">
        <ele>46.864809</ele>
        <time>2020-07-28T14:32:26.238Z</time>
      </trkpt>
      <trkpt lat="61.72231" lon="5.20955">
        <ele>46.373469</ele>
        <time>2020-07-28T14:32:28.230Z</time>
      </trkpt>
      <trkpt lat="61.72224" lon="5.20967">
        <ele>46.122594</ele>
        <time>2020-07-28T14:32:29.227Z</time>
      </trkpt>
      <trkpt lat="61.72217" lon="5.2098">
        <ele>45.865483</ele>
        <time>2020-07-28T14:32:30.240Z</time>
      </trkpt>
      <trkpt lat="61.7221" lon="5.20993">
        <ele>45.604551</ele>
        <time>2020-07-28T14:32:31.254Z</time>
      </trkpt>
      <trkpt lat="61.72203" lon="5.21007">
        <ele>45.345144</ele>
        <time>2020-07-28T14:32:32.236Z</time>
      </trkpt>
      <trkpt lat="61.72196" lon="5.2102">
        <ele>45.086883</ele>
        <time>2020-07-28T14:32:33.247Z</time>
      </trkpt>
      <trkpt lat="61.7219" lon="5.21033">
        <ele>44.831299</ele>
        <time>2020-07-28T14:32:34.251Z</time>
      </trkpt>
      <trkpt lat="61.72183" lon="5.21046">
        <ele>44.573324</ele>
        <time>2020-07-28T14:32:35.219Z</time>
      </trkpt>
      <trkpt lat="61.72176" lon="5.21059">
        <ele>44.316559</ele>
        <time>2020-07-28T14:32:36.256Z</time>
      </trkpt>
      <trkpt lat="61.72169" lon="5.21072">
        <ele>44.056261</ele>
        <time>2020-07-28T14:32:37.249Z</time>
      </trkpt>
      <trkpt lat="61.72162" lon="5.21086">
        <ele>43.796197</ele>
        <time>2020-07-28T14:32:38.243Z</time>
      </trkpt>
      <trkpt lat="61.72155" lon="5.21099">
        <ele>43.476894</ele>
        <time>2020-07-28T14:32:39.227Z</time>
      </trkpt>
      <trkpt lat="61.72148" lon="5.21113">
        <ele>43.152772</ele>
        <time>2020-07-28T14:32:40.247Z</time>
      </trkpt>
      <trkpt lat="61.72141" lon="5.21127">
        <ele>42.825964</ele>
        <time>2020-07-28T14:32:41.226Z</time>
      </trkpt>
      <trkpt lat="61.72135" lon="5.21142">
        <ele>42.492153</ele>
        <time>2020-07-28T14:32:42.236Z</time>
      </trkpt>
      <trkpt lat="61.72128" lon="5.21158">
        <ele>42.158781</ele>
        <time>2020-07-28T14:32:43.235Z</time>
      </trkpt>
      <trkpt lat="61.72123" lon="5.21175">
        <ele>41.833635</ele>
        <time>2020-07-28T14:32:44.243Z</time>
      </trkpt>
      <trkpt lat="61.72115" lon="5.21209">
        <ele>41.213853</ele>
        <time>2020-07-28T14:32:46.234Z</time>
      </trkpt>
      <trkpt lat="61.7211" lon="5.21243">
        <ele>40.620132</ele>
        <time>2020-07-28T14:32:48.231Z</time>
      </trkpt>
      <trkpt lat="61.72106" lon="5.21277">
        <ele>40.052318</ele>
        <time>2020-07-28T14:32:50.235Z</time>
      </trkpt>
      <trkpt lat="61.72104" lon="5.2131">
        <ele>39.509311</ele>
        <time>2020-07-28T14:32:52.228Z</time>
      </trkpt>
      <trkpt lat="61.72104" lon="5.21341">
        <ele>39.0084</ele>
        <time>2020-07-28T14:32:54.233Z</time>
      </trkpt>
      <trkpt lat="61.72108" lon="5.21368">
        <ele>38.551277</ele>
        <time>2020-07-28T14:32:56.237Z</time>
      </trkpt>
      <trkpt lat="61.72114" lon="5.21391">
        <ele>38.132368</ele>
        <time>2020-07-28T14:32:58.259Z</time>
      </trkpt>
      <trkpt lat="61.7212" lon="5.21408">
        <ele>37.787308</ele>
        <time>2020-07-28T14:33:00.238Z</time>
      </trkpt>
      <trkpt lat="61.72129" lon="5.21421">
        <ele>38.121804</ele>
        <time>2020-07-28T14:33:03.241Z</time>
      </trkpt>
      <trkpt lat="61.72138" lon="5.21432">
        <ele>38.973097</ele>
        <time>2020-07-28T14:33:07.233Z</time>
      </trkpt>
      <trkpt lat="61.72145" lon="5.21445">
        <ele>39.766854</ele>
        <time>2020-07-28T14:33:12.244Z</time>
      </trkpt>
      <trkpt lat="61.72152" lon="5.21458">
        <ele>40.538179</ele>
        <time>2020-07-28T14:33:17.251Z</time>
      </trkpt>
      <trkpt lat="61.72159" lon="5.21473">
        <ele>41.409084</ele>
        <time>2020-07-28T14:33:24.247Z</time>
      </trkpt>
      <trkpt lat="61.72167" lon="5.21485">
        <ele>42.235741</ele>
        <time>2020-07-28T14:33:29.217Z</time>
      </trkpt>
      <trkpt lat="61.72175" lon="5.21502">
        <ele>43.181986</ele>
        <time>2020-07-28T14:33:35.232Z</time>
      </trkpt>
      <trkpt lat="61.72181" lon="5.21517">
        <ele>43.974027</ele>
        <time>2020-07-28T14:33:39.241Z</time>
      </trkpt>
      <trkpt lat="61.72189" lon="5.21533">
        <ele>44.873696</ele>
        <time>2020-07-28T14:33:44.261Z</time>
      </trkpt>
      <trkpt lat="61.72194" lon="5.21552">
        <ele>45.760021</ele>
        <time>2020-07-28T14:33:48.275Z</time>
      </trkpt>
      <trkpt lat="61.72198" lon="5.21571">
        <ele>46.604528</ele>
        <time>2020-07-28T14:33:51.231Z</time>
      </trkpt>
      <trkpt lat="61.72202" lon="5.21592">
        <ele>47.518383</ele>
        <time>2020-07-28T14:33:54.208Z</time>
      </trkpt>
      <trkpt lat="61.72206" lon="5.21618">
        <ele>48.585538</ele>
        <time>2020-07-28T14:33:57.238Z</time>
      </trkpt>
      <trkpt lat="61.72209" lon="5.21638">
        <ele>49.457552</ele>
        <time>2020-07-28T14:33:59.233Z</time>
      </trkpt>
      <trkpt lat="61.72212" lon="5.2166">
        <ele>50.347957</ele>
        <time>2020-07-28T14:34:01.226Z</time>
      </trkpt>
      <trkpt lat="61.72216" lon="5.21684">
        <ele>51.414975</ele>
        <time>2020-07-28T14:34:03.237Z</time>
      </trkpt>
      <trkpt lat="61.72225" lon="5.21713">
        <ele>52.744474</ele>
        <time>2020-07-28T14:34:05.229Z</time>
      </trkpt>
      <trkpt lat="61.72235" lon="5.21739">
        <ele>53.272603</ele>
        <time>2020-07-28T14:34:07.227Z</time>
      </trkpt>
      <trkpt lat="61.72249" lon="5.21761">
        <ele>53.753759</ele>
        <time>2020-07-28T14:34:09.232Z</time>
      </trkpt>
      <trkpt lat="61.72263" lon="5.21775">
        <ele>54.196817</ele>
        <time>2020-07-28T14:34:11.228Z</time>
      </trkpt>
      <trkpt lat="61.72276" lon="5.21787">
        <ele>54.611498</ele>
        <time>2020-07-28T14:34:13.243Z</time>
      </trkpt>
      <trkpt lat="61.72289" lon="5.21799">
        <ele>55.004053</ele>
        <time>2020-07-28T14:34:15.246Z</time>
      </trkpt>
      <trkpt lat="61.723" lon="5.2181">
        <ele>55.353076</ele>
        <time>2020-07-28T14:34:17.262Z</time>
      </trkpt>
      <trkpt lat="61.7231" lon="5.21822">
        <ele>55.679209</ele>
        <time>2020-07-28T14:34:19.235Z</time>
      </trkpt>
      <trkpt lat="61.72319" lon="5.21833">
        <ele>55.983959</ele>
        <time>2020-07-28T14:34:21.227Z</time>
      </trkpt>
      <trkpt lat="61.72328" lon="5.21845">
        <ele>56.299911</ele>
        <time>2020-07-28T14:34:23.243Z</time>
      </trkpt>
      <trkpt lat="61.72338" lon="5.21857">
        <ele>56.609146</ele>
        <time>2020-07-28T14:34:25.233Z</time>
      </trkpt>
      <trkpt lat="61.72347" lon="5.21866">
        <ele>56.900699</ele>
        <time>2020-07-28T14:34:27.253Z</time>
      </trkpt>
      <trkpt lat="61.72356" lon="5.21874">
        <ele>57.176101</ele>
        <time>2020-07-28T14:34:29.280Z</time>
      </trkpt>
      <trkpt lat="61.72365" lon="5.2188">
        <ele>57.438904</ele>
        <time>2020-07-28T14:34:31.229Z</time>
      </trkpt>
      <trkpt lat="61.72378" lon="5.21885">
        <ele>57.822505</ele>
        <time>2020-07-28T14:34:34.221Z</time>
      </trkpt>
      <trkpt lat="61.72387" lon="5.21887">
        <ele>57.821466</ele>
        <time>2020-07-28T14:34:36.239Z</time>
      </trkpt>
      <trkpt lat="61.72397" lon="5.2189">
        <ele>57.534385</ele>
        <time>2020-07-28T14:34:38.232Z</time>
      </trkpt>
      <trkpt lat="61.7241" lon="5.21893">
        <ele>57.132067</ele>
        <time>2020-07-28T14:34:41.228Z</time>
      </trkpt>
      <trkpt lat="61.72423" lon="5.21897">
        <ele>56.74793</ele>
        <time>2020-07-28T14:34:44.244Z</time>
      </trkpt>
      <trkpt lat="61.72435" lon="5.21901">
        <ele>56.376128</ele>
        <time>2020-07-28T14:34:47.220Z</time>
      </trkpt>
      <trkpt lat="61.72443" lon="5.21907">
        <ele>56.102219</ele>
        <time>2020-07-28T14:34:49.245Z</time>
      </trkpt>
      <trkpt lat="61.72453" lon="5.21916">
        <ele>55.792381</ele>
        <time>2020-07-28T14:34:51.248Z</time>
      </trkpt>
      <trkpt lat="61.72462" lon="5.21926">
        <ele>55.471393</ele>
        <time>2020-07-28T14:34:53.238Z</time>
      </trkpt>
      <trkpt lat="61.72472" lon="5.21939">
        <ele>55.133893</ele>
        <time>2020-07-28T14:34:55.227Z</time>
      </trkpt>
      <trkpt lat="61.72481" lon="5.21954">
        <ele>54.770333</ele>
        <time>2020-07-28T14:34:57.249Z</time>
      </trkpt>
      <trkpt lat="61.72491" lon="5.21971">
        <ele>54.385394</ele>
        <time>2020-07-28T14:34:59.253Z</time>
      </trkpt>
      <trkpt lat="61.72499" lon="5.2199">
        <ele>54.017258</ele>
        <time>2020-07-28T14:35:01.233Z</time>
      </trkpt>
      <trkpt lat="61.72506" lon="5.22011">
        <ele>53.646924</ele>
        <time>2020-07-28T14:35:03.261Z</time>
      </trkpt>
      <trkpt lat="61.7251" lon="5.22034">
        <ele>53.29594</ele>
        <time>2020-07-28T14:35:05.251Z</time>
      </trkpt>
      <trkpt lat="61.72513" lon="5.22057">
        <ele>52.956959</ele>
        <time>2020-07-28T14:35:07.239Z</time>
      </trkpt>
      <trkpt lat="61.72516" lon="5.22083">
        <ele>52.576295</ele>
        <time>2020-07-28T14:35:09.220Z</time>
      </trkpt>
      <trkpt lat="61.72519" lon="5.22111">
        <ele>52.164194</ele>
        <time>2020-07-28T14:35:11.231Z</time>
      </trkpt>
      <trkpt lat="61.72522" lon="5.22136">
        <ele>51.774224</ele>
        <time>2020-07-28T14:35:13.228Z</time>
      </trkpt>
      <trkpt lat="61.72525" lon="5.22161">
        <ele>51.387672</ele>
        <time>2020-07-28T14:35:15.224Z</time>
      </trkpt>
      <trkpt lat="61.72527" lon="5.22188">
        <ele>50.990232</ele>
        <time>2020-07-28T14:35:17.276Z</time>
      </trkpt>
      <trkpt lat="61.7253" lon="5.22213">
        <ele>50.615431</ele>
        <time>2020-07-28T14:35:19.229Z</time>
      </trkpt>
      <trkpt lat="61.72533" lon="5.22235">
        <ele>50.279969</ele>
        <time>2020-07-28T14:35:21.239Z</time>
      </trkpt>
      <trkpt lat="61.72536" lon="5.22255">
        <ele>49.963191</ele>
        <time>2020-07-28T14:35:23.249Z</time>
      </trkpt>
      <trkpt lat="61.72539" lon="5.22275">
        <ele>49.662108</ele>
        <time>2020-07-28T14:35:25.230Z</time>
      </trkpt>
      <trkpt lat="61.72543" lon="5.22292">
        <ele>49.382722</ele>
        <time>2020-07-28T14:35:27.254Z</time>
      </trkpt>
      <trkpt lat="61.72549" lon="5.22307">
        <ele>49.100388</ele>
        <time>2020-07-28T14:35:29.258Z</time>
      </trkpt>
      <trkpt lat="61.72555" lon="5.22321">
        <ele>48.813296</ele>
        <time>2020-07-28T14:35:31.236Z</time>
      </trkpt>
      <trkpt lat="61.72562" lon="5.22335">
        <ele>48.511292</ele>
        <time>2020-07-28T14:35:33.235Z</time>
      </trkpt>
      <trkpt lat="61.7257" lon="5.22349">
        <ele>48.185893</ele>
        <time>2020-07-28T14:35:35.255Z</time>
      </trkpt>
      <trkpt lat="61.72579" lon="5.22362">
        <ele>47.840601</ele>
        <time>2020-07-28T14:35:37.257Z</time>
      </trkpt>
      <trkpt lat="61.7259" lon="5.22374">
        <ele>47.471419</ele>
        <time>2020-07-28T14:35:39.244Z</time>
      </trkpt>
      <trkpt lat="61.72601" lon="5.22385">
        <ele>47.08812</ele>
        <time>2020-07-28T14:35:41.230Z</time>
      </trkpt>
      <trkpt lat="61.72612" lon="5.22393">
        <ele>47.08699</ele>
        <time>2020-07-28T14:35:43.245Z</time>
      </trkpt>
      <trkpt lat="61.72623" lon="5.22397">
        <ele>47.331244</ele>
        <time>2020-07-28T14:35:45.254Z</time>
      </trkpt>
      <trkpt lat="61.72634" lon="5.224">
        <ele>47.567841</ele>
        <time>2020-07-28T14:35:47.230Z</time>
      </trkpt>
      <trkpt lat="61.72645" lon="5.22402">
        <ele>47.79886</ele>
        <time>2020-07-28T14:35:49.225Z</time>
      </trkpt>
      <trkpt lat="61.72656" lon="5.22402">
        <ele>48.024758</ele>
        <time>2020-07-28T14:35:51.242Z</time>
      </trkpt>
      <trkpt lat="61.72667" lon="5.22399">
        <ele>48.247674</ele>
        <time>2020-07-28T14:35:53.237Z</time>
      </trkpt>
      <trkpt lat="61.72676" lon="5.22395">
        <ele>48.461008</ele>
        <time>2020-07-28T14:35:55.239Z</time>
      </trkpt>
      <trkpt lat="61.72687" lon="5.22391">
        <ele>48.685081</ele>
        <time>2020-07-28T14:35:57.234Z</time>
      </trkpt>
      <trkpt lat="61.72697" lon="5.22384">
        <ele>48.904819</ele>
        <time>2020-07-28T14:35:59.257Z</time>
      </trkpt>
      <trkpt lat="61.72706" lon="5.22374">
        <ele>49.124355</ele>
        <time>2020-07-28T14:36:01.234Z</time>
      </trkpt>
      <trkpt lat="61.72715" lon="5.22364">
        <ele>49.340529</ele>
        <time>2020-07-28T14:36:03.239Z</time>
      </trkpt>
      <trkpt lat="61.72723" lon="5.22353">
        <ele>49.546843</ele>
        <time>2020-07-28T14:36:05.233Z</time>
      </trkpt>
      <trkpt lat="61.72731" lon="5.2234">
        <ele>49.745863</ele>
        <time>2020-07-28T14:36:07.229Z</time>
      </trkpt>
      <trkpt lat="61.72742" lon="5.22324">
        <ele>50.034125</ele>
        <time>2020-07-28T14:36:10.241Z</time>
      </trkpt>
      <trkpt lat="61.72751" lon="5.22312">
        <ele>50.257556</ele>
        <time>2020-07-28T14:36:12.247Z</time>
      </trkpt>
      <trkpt lat="61.72759" lon="5.22298">
        <ele>50.483105</ele>
        <time>2020-07-28T14:36:14.230Z</time>
      </trkpt>
      <trkpt lat="61.72768" lon="5.22285">
        <ele>50.697861</ele>
        <time>2020-07-28T14:36:16.262Z</time>
      </trkpt>
      <trkpt lat="61.72776" lon="5.22272">
        <ele>50.873455</ele>
        <time>2020-07-28T14:36:18.244Z</time>
      </trkpt>
      <trkpt lat="61.72785" lon="5.22259">
        <ele>51.040764</ele>
        <time>2020-07-28T14:36:20.240Z</time>
      </trkpt>
      <trkpt lat="61.72794" lon="5.22245">
        <ele>51.196644</ele>
        <time>2020-07-28T14:36:22.240Z</time>
      </trkpt>
      <trkpt lat="61.72801" lon="5.22232">
        <ele>51.347618</ele>
        <time>2020-07-28T14:36:24.235Z</time>
      </trkpt>
      <trkpt lat="61.72812" lon="5.22215">
        <ele>51.548519</ele>
        <time>2020-07-28T14:36:27.220Z</time>
      </trkpt>
      <trkpt lat="61.72819" lon="5.22201">
        <ele>51.692098</ele>
        <time>2020-07-28T14:36:29.240Z</time>
      </trkpt>
      <trkpt lat="61.72829" lon="5.22185">
        <ele>51.886686</ele>
        <time>2020-07-28T14:36:32.248Z</time>
      </trkpt>
      <trkpt lat="61.72839" lon="5.2217">
        <ele>52.072537</ele>
        <time>2020-07-28T14:36:35.224Z</time>
      </trkpt>
      <trkpt lat="61.72849" lon="5.22153">
        <ele>52.261255</ele>
        <time>2020-07-28T14:36:38.244Z</time>
      </trkpt>
      <trkpt lat="61.72857" lon="5.22138">
        <ele>52.427158</ele>
        <time>2020-07-28T14:36:41.237Z</time>
      </trkpt>
      <trkpt lat="61.72866" lon="5.2212">
        <ele>52.614685</ele>
        <time>2020-07-28T14:36:44.247Z</time>
      </trkpt>
      <trkpt lat="61.72874" lon="5.22102">
        <ele>52.793502</ele>
        <time>2020-07-28T14:36:47.235Z</time>
      </trkpt>
      <trkpt lat="61.72883" lon="5.22082">
        <ele>52.988988</ele>
        <time>2020-07-28T14:36:50.278Z</time>
      </trkpt>
      <trkpt lat="61.72891" lon="5.22064">
        <ele>53.160534</ele>
        <time>2020-07-28T14:36:53.267Z</time>
      </trkpt>
      <trkpt lat="61.72897" lon="5.22045">
        <ele>53.330253</ele>
        <time>2020-07-28T14:36:56.238Z</time>
      </trkpt>
      <trkpt lat="61.72904" lon="5.22022">
        <ele>53.496917</ele>
        <time>2020-07-28T14:36:59.236Z</time>
      </trkpt>
      <trkpt lat="61.72911" lon="5.22">
        <ele>53.615864</ele>
        <time>2020-07-28T14:37:02.230Z</time>
      </trkpt>
      <trkpt lat="61.72917" lon="5.21981">
        <ele>53.713481</ele>
        <time>2020-07-28T14:37:05.253Z</time>
      </trkpt>
      <trkpt lat="61.72921" lon="5.21963">
        <ele>53.801101</ele>
        <time>2020-07-28T14:37:08.235Z</time>
      </trkpt>
      <trkpt lat="61.72925" lon="5.21944">
        <ele>53.890708</ele>
        <time>2020-07-28T14:37:11.245Z</time>
      </trkpt>
      <trkpt lat="61.72929" lon="5.21924">
        <ele>53.986189</ele>
        <time>2020-07-28T14:37:14.237Z</time>
      </trkpt>
      <trkpt lat="61.72933" lon="5.21902">
        <ele>54.088512</ele>
        <time>2020-07-28T14:37:17.236Z</time>
      </trkpt>
      <trkpt lat="61.72938" lon="5.21879">
        <ele>54.202187</ele>
        <time>2020-07-28T14:37:20.214Z</time>
      </trkpt>
      <trkpt lat="61.72943" lon="5.21853">
        <ele>54.323521</ele>
        <time>2020-07-28T14:37:23.276Z</time>
      </trkpt>
      <trkpt lat="61.72947" lon="5.21835">
        <ele>54.409561</ele>
        <time>2020-07-28T14:37:25.223Z</time>
      </trkpt>
      <trkpt lat="61.72952" lon="5.2181">
        <ele>54.527772</ele>
        <time>2020-07-28T14:37:28.279Z</time>
      </trkpt>
      <trkpt lat="61.72957" lon="5.21784">
        <ele>54.649914</ele>
        <time>2020-07-28T14:37:31.248Z</time>
      </trkpt>
      <trkpt lat="61.72962" lon="5.21759">
        <ele>54.769908</ele>
        <time>2020-07-28T14:37:34.248Z</time>
      </trkpt>
      <trkpt lat="61.72968" lon="5.21735">
        <ele>54.889112</ele>
        <time>2020-07-28T14:37:37.249Z</time>
      </trkpt>
      <trkpt lat="61.72974" lon="5.21709">
        <ele>55.013437</ele>
        <time>2020-07-28T14:37:40.239Z</time>
      </trkpt>
      <trkpt lat="61.72978" lon="5.21692">
        <ele>55.097117</ele>
        <time>2020-07-28T14:37:42.229Z</time>
      </trkpt>
      <trkpt lat="61.72983" lon="5.21666">
        <ele>54.98025</ele>
        <time>2020-07-28T14:37:45.254Z</time>
      </trkpt>
      <trkpt lat="61.72988" lon="5.2164">
        <ele>54.817666</ele>
        <time>2020-07-28T14:37:48.228Z</time>
      </trkpt>
      <trkpt lat="61.72991" lon="5.21621">
        <ele>54.702995</ele>
        <time>2020-07-28T14:37:50.219Z</time>
      </trkpt>
      <trkpt lat="61.72995" lon="5.21602">
        <ele>54.584323</ele>
        <time>2020-07-28T14:37:52.234Z</time>
      </trkpt>
      <trkpt lat="61.72998" lon="5.21582">
        <ele>54.464458</ele>
        <time>2020-07-28T14:37:54.236Z</time>
      </trkpt>
      <trkpt lat="61.73002" lon="5.21563">
        <ele>54.345877</ele>
        <time>2020-07-28T14:37:56.291Z</time>
      </trkpt>
      <trkpt lat="61.73005" lon="5.21545">
        <ele>54.22951</ele>
        <time>2020-07-28T14:37:58.231Z</time>
      </trkpt>
      <trkpt lat="61.73008" lon="5.21526">
        <ele>54.115104</ele>
        <time>2020-07-28T14:38:00.265Z</time>
      </trkpt>
      <trkpt lat="61.73012" lon="5.21508">
        <ele>54.0038</ele>
        <time>2020-07-28T14:38:02.229Z</time>
      </trkpt>
      <trkpt lat="61.73017" lon="5.21483">
        <ele>53.843526</ele>
        <time>2020-07-28T14:38:05.235Z</time>
      </trkpt>
      <trkpt lat="61.73022" lon="5.21459">
        <ele>53.687989</ele>
        <time>2020-07-28T14:38:08.223Z</time>
      </trkpt>
      <trkpt lat="61.73027" lon="5.21435">
        <ele>53.536428</ele>
        <time>2020-07-28T14:38:11.238Z</time>
      </trkpt>
      <trkpt lat="61.73032" lon="5.2141">
        <ele>53.381933</ele>
        <time>2020-07-28T14:38:14.237Z</time>
      </trkpt>
      <trkpt lat="61.73037" lon="5.21385">
        <ele>53.223614</ele>
        <time>2020-07-28T14:38:17.229Z</time>
      </trkpt>
      <trkpt lat="61.73042" lon="5.2136">
        <ele>53.068642</ele>
        <time>2020-07-28T14:38:20.250Z</time>
      </trkpt>
      <trkpt lat="61.73047" lon="5.21335">
        <ele>52.911161</ele>
        <time>2020-07-28T14:38:23.251Z</time>
      </trkpt>
      <trkpt lat="61.73052" lon="5.21318">
        <ele>52.824109</ele>
        <time>2020-07-28T14:38:25.275Z</time>
      </trkpt>
      <trkpt lat="61.73057" lon="5.21298">
        <ele>52.724878</ele>
        <time>2020-07-28T14:38:27.241Z</time>
      </trkpt>
      <trkpt lat="61.73063" lon="5.21279">
        <ele>52.623455</ele>
        <time>2020-07-28T14:38:29.259Z</time>
      </trkpt>
      <trkpt lat="61.73069" lon="5.21261">
        <ele>52.522326</ele>
        <time>2020-07-28T14:38:31.231Z</time>
      </trkpt>
      <trkpt lat="61.73076" lon="5.21247">
        <ele>52.429474</ele>
        <time>2020-07-28T14:38:33.228Z</time>
      </trkpt>
      <trkpt lat="61.73086" lon="5.21235">
        <ele>52.327363</ele>
        <time>2020-07-28T14:38:35.233Z</time>
      </trkpt>
      <trkpt lat="61.73097" lon="5.21222">
        <ele>52.210077</ele>
        <time>2020-07-28T14:38:37.240Z</time>
      </trkpt>
      <trkpt lat="61.73107" lon="5.21207">
        <ele>52.091263</ele>
        <time>2020-07-28T14:38:39.232Z</time>
      </trkpt>
      <trkpt lat="61.73117" lon="5.21191">
        <ele>51.977227</ele>
        <time>2020-07-28T14:38:41.247Z</time>
      </trkpt>
      <trkpt lat="61.73124" lon="5.21175">
        <ele>51.8751</ele>
        <time>2020-07-28T14:38:43.253Z</time>
      </trkpt>
      <trkpt lat="61.73131" lon="5.2116">
        <ele>51.78842</ele>
        <time>2020-07-28T14:38:45.245Z</time>
      </trkpt>
      <trkpt lat="61.73139" lon="5.21141">
        <ele>51.672664</ele>
        <time>2020-07-28T14:38:48.257Z</time>
      </trkpt>
      <trkpt lat="61.73146" lon="5.21122">
        <ele>51.565276</ele>
        <time>2020-07-28T14:38:51.274Z</time>
      </trkpt>
      <trkpt lat="61.73152" lon="5.21103">
        <ele>51.465982</ele>
        <time>2020-07-28T14:38:54.229Z</time>
      </trkpt>
      <trkpt lat="61.73157" lon="5.21086">
        <ele>51.377301</ele>
        <time>2020-07-28T14:38:57.251Z</time>
      </trkpt>
      <trkpt lat="61.73163" lon="5.21067">
        <ele>51.277002</ele>
        <time>2020-07-28T14:39:01.231Z</time>
      </trkpt>
      <trkpt lat="61.73167" lon="5.21048">
        <ele>51.516778</ele>
        <time>2020-07-28T14:39:05.228Z</time>
      </trkpt>
      <trkpt lat="61.73172" lon="5.2103">
        <ele>52.03362</ele>
        <time>2020-07-28T14:39:10.222Z</time>
      </trkpt>
      <trkpt lat="61.73177" lon="5.21009">
        <ele>52.594958</ele>
        <time>2020-07-28T14:39:15.252Z</time>
      </trkpt>
      <trkpt lat="61.73182" lon="5.20989">
        <ele>53.154902</ele>
        <time>2020-07-28T14:39:21.253Z</time>
      </trkpt>
      <trkpt lat="61.73186" lon="5.20972">
        <ele>53.639965</ele>
        <time>2020-07-28T14:39:26.246Z</time>
      </trkpt>
      <trkpt lat="61.73191" lon="5.20955">
        <ele>54.13501</ele>
        <time>2020-07-28T14:39:32.243Z</time>
      </trkpt>
      <trkpt lat="61.73195" lon="5.20937">
        <ele>54.626843</ele>
        <time>2020-07-28T14:39:38.239Z</time>
      </trkpt>
      <trkpt lat="61.73198" lon="5.20919">
        <ele>55.107499</ele>
        <time>2020-07-28T14:39:45.262Z</time>
      </trkpt>
      <trkpt lat="61.73204" lon="5.20902">
        <ele>55.623551</ele>
        <time>2020-07-28T14:39:52.249Z</time>
      </trkpt>
      <trkpt lat="61.73207" lon="5.20884">
        <ele>56.103066</ele>
        <time>2020-07-28T14:39:59.225Z</time>
      </trkpt>
      <trkpt lat="61.73213" lon="5.20867">
        <ele>56.625596</ele>
        <time>2020-07-28T14:40:06.230Z</time>
      </trkpt>
      <trkpt lat="61.73218" lon="5.20849">
        <ele>57.149402</ele>
        <time>2020-07-28T14:40:13.223Z</time>
      </trkpt>
      <trkpt lat="61.73224" lon="5.20832">
        <ele>57.685035</ele>
        <time>2020-07-28T14:40:20.256Z</time>
      </trkpt>
      <trkpt lat="61.7323" lon="5.20814">
        <ele>58.204605</ele>
        <time>2020-07-28T14:40:27.229Z</time>
      </trkpt>
      <trkpt lat="61.73234" lon="5.20797">
        <ele>58.70486</ele>
        <time>2020-07-28T14:40:33.236Z</time>
      </trkpt>
      <trkpt lat="61.73239" lon="5.20779">
        <ele>59.190036</ele>
        <time>2020-07-28T14:40:39.229Z</time>
      </trkpt>
      <trkpt lat="61.73243" lon="5.20761">
        <ele>59.720632</ele>
        <time>2020-07-28T14:40:46.260Z</time>
      </trkpt>
      <trkpt lat="61.73248" lon="5.20742">
        <ele>60.249043</ele>
        <time>2020-07-28T14:40:53.230Z</time>
      </trkpt>
      <trkpt lat="61.73252" lon="5.20722">
        <ele>60.73075</ele>
        <time>2020-07-28T14:41:00.268Z</time>
      </trkpt>
      <trkpt lat="61.73257" lon="5.20703">
        <ele>61.016056</ele>
        <time>2020-07-28T14:41:06.227Z</time>
      </trkpt>
      <trkpt lat="61.73262" lon="5.20685">
        <ele>61.28999</ele>
        <time>2020-07-28T14:41:13.236Z</time>
      </trkpt>
      <trkpt lat="61.73267" lon="5.20668">
        <ele>61.546964</ele>
        <time>2020-07-28T14:41:20.232Z</time>
      </trkpt>
      <trkpt lat="61.73271" lon="5.2065">
        <ele>61.795884</ele>
        <time>2020-07-28T14:41:27.229Z</time>
      </trkpt>
      <trkpt lat="61.73275" lon="5.20631">
        <ele>62.077725</ele>
        <time>2020-07-28T14:41:34.227Z</time>
      </trkpt>
      <trkpt lat="61.73281" lon="5.20613">
        <ele>62.358401</ele>
        <time>2020-07-28T14:41:40.223Z</time>
      </trkpt>
      <trkpt lat="61.73287" lon="5.20596">
        <ele>62.627368</ele>
        <time>2020-07-28T14:41:46.249Z</time>
      </trkpt>
      <trkpt lat="61.73293" lon="5.20581">
        <ele>62.890443</ele>
        <time>2020-07-28T14:41:53.252Z</time>
      </trkpt>
      <trkpt lat="61.73299" lon="5.20567">
        <ele>63.145173</ele>
        <time>2020-07-28T14:41:59.235Z</time>
      </trkpt>
      <trkpt lat="61.73308" lon="5.20554">
        <ele>63.435641</ele>
        <time>2020-07-28T14:42:05.225Z</time>
      </trkpt>
      <trkpt lat="61.73315" lon="5.2054">
        <ele>63.704263</ele>
        <time>2020-07-28T14:42:11.232Z</time>
      </trkpt>
      <trkpt lat="61.73321" lon="5.20527">
        <ele>63.953486</ele>
        <time>2020-07-28T14:42:17.250Z</time>
      </trkpt>
      <trkpt lat="61.73329" lon="5.20515">
        <ele>64.201281</ele>
        <time>2020-07-28T14:42:22.241Z</time>
      </trkpt>
      <trkpt lat="61.73337" lon="5.20501">
        <ele>64.493286</ele>
        <time>2020-07-28T14:42:27.260Z</time>
      </trkpt>
      <trkpt lat="61.73345" lon="5.20488">
        <ele>64.778613</ele>
        <time>2020-07-28T14:42:31.243Z</time>
      </trkpt>
      <trkpt lat="61.73355" lon="5.20471">
        <ele>65.116027</ele>
        <time>2020-07-28T14:42:35.244Z</time>
      </trkpt>
      <trkpt lat="61.73363" lon="5.20456">
        <ele>65.418775</ele>
        <time>2020-07-28T14:42:38.242Z</time>
      </trkpt>
      <trkpt lat="61.7337" lon="5.20441">
        <ele>65.706161</ele>
        <time>2020-07-28T14:42:41.239Z</time>
      </trkpt>
      <trkpt lat="61.73377" lon="5.20427">
        <ele>65.967321</ele>
        <time>2020-07-28T14:42:44.259Z</time>
      </trkpt>
      <trkpt lat="61.73383" lon="5.20414">
        <ele>66.224158</ele>
        <time>2020-07-28T14:42:47.255Z</time>
      </trkpt>
      <trkpt lat="61.73392" lon="5.20397">
        <ele>66.539803</ele>
        <time>2020-07-28T14:42:51.259Z</time>
      </trkpt>
      <trkpt lat="61.73399" lon="5.20382">
        <ele>66.832413</ele>
        <time>2020-07-28T14:42:55.237Z</time>
      </trkpt>
      <trkpt lat="61.73406" lon="5.20366">
        <ele>67.122643</ele>
        <time>2020-07-28T14:42:59.230Z</time>
      </trkpt>
      <trkpt lat="61.73413" lon="5.20353">
        <ele>67.383511</ele>
        <time>2020-07-28T14:43:03.240Z</time>
      </trkpt>
      <trkpt lat="61.73423" lon="5.20341">
        <ele>67.691787</ele>
        <time>2020-07-28T14:43:07.235Z</time>
      </trkpt>
      <trkpt lat="61.73432" lon="5.20328">
        <ele>68.006142</ele>
        <time>2020-07-28T14:43:11.231Z</time>
      </trkpt>
      <trkpt lat="61.73441" lon="5.20314">
        <ele>68.322791</ele>
        <time>2020-07-28T14:43:15.238Z</time>
      </trkpt>
      <trkpt lat="61.7345" lon="5.20302">
        <ele>68.633901</ele>
        <time>2020-07-28T14:43:19.248Z</time>
      </trkpt>
      <trkpt lat="61.73459" lon="5.20294">
        <ele>68.901342</ele>
        <time>2020-07-28T14:43:22.244Z</time>
      </trkpt>
      <trkpt lat="61.73468" lon="5.20283">
        <ele>69.185884</ele>
        <time>2020-07-28T14:43:25.240Z</time>
      </trkpt>
      <trkpt lat="61.73478" lon="5.20274">
        <ele>69.489194</ele>
        <time>2020-07-28T14:43:28.231Z</time>
      </trkpt>
      <trkpt lat="61.73488" lon="5.20264">
        <ele>69.821432</ele>
        <time>2020-07-28T14:43:31.234Z</time>
      </trkpt>
      <trkpt lat="61.73501" lon="5.20254">
        <ele>70.203148</ele>
        <time>2020-07-28T14:43:34.248Z</time>
      </trkpt>
      <trkpt lat="61.73513" lon="5.20242">
        <ele>70.584259</ele>
        <time>2020-07-28T14:43:37.261Z</time>
      </trkpt>
      <trkpt lat="61.73522" lon="5.20232">
        <ele>70.711458</ele>
        <time>2020-07-28T14:43:39.249Z</time>
      </trkpt>
      <trkpt lat="61.73529" lon="5.20221">
        <ele>70.760864</ele>
        <time>2020-07-28T14:43:41.227Z</time>
      </trkpt>
      <trkpt lat="61.73539" lon="5.20207">
        <ele>70.824299</ele>
        <time>2020-07-28T14:43:44.229Z</time>
      </trkpt>
      <trkpt lat="61.73547" lon="5.20192">
        <ele>70.883642</ele>
        <time>2020-07-28T14:43:47.231Z</time>
      </trkpt>
      <trkpt lat="61.73556" lon="5.20178">
        <ele>70.945205</ele>
        <time>2020-07-28T14:43:50.231Z</time>
      </trkpt>
      <trkpt lat="61.73565" lon="5.20162">
        <ele>71.008411</ele>
        <time>2020-07-28T14:43:53.240Z</time>
      </trkpt>
      <trkpt lat="61.73574" lon="5.20146">
        <ele>71.072935</ele>
        <time>2020-07-28T14:43:56.240Z</time>
      </trkpt>
      <trkpt lat="61.73582" lon="5.20127">
        <ele>71.137656</ele>
        <time>2020-07-28T14:43:59.249Z</time>
      </trkpt>
      <trkpt lat="61.73591" lon="5.20109">
        <ele>71.201643</ele>
        <time>2020-07-28T14:44:02.250Z</time>
      </trkpt>
      <trkpt lat="61.73597" lon="5.20094">
        <ele>71.253371</ele>
        <time>2020-07-28T14:44:05.248Z</time>
      </trkpt>
      <trkpt lat="61.73601" lon="5.20077">
        <ele>71.302199</ele>
        <time>2020-07-28T14:44:08.257Z</time>
      </trkpt>
      <trkpt lat="61.73606" lon="5.20059">
        <ele>71.356646</ele>
        <time>2020-07-28T14:44:11.232Z</time>
      </trkpt>
      <trkpt lat="61.73613" lon="5.20042">
        <ele>71.412909</ele>
        <time>2020-07-28T14:44:14.255Z</time>
      </trkpt>
      <trkpt lat="61.73619" lon="5.2002">
        <ele>71.477013</ele>
        <time>2020-07-28T14:44:17.252Z</time>
      </trkpt>
      <trkpt lat="61.73624" lon="5.19999">
        <ele>71.540689</ele>
        <time>2020-07-28T14:44:20.277Z</time>
      </trkpt>
      <trkpt lat="61.73631" lon="5.19975">
        <ele>71.612372</ele>
        <time>2020-07-28T14:44:23.241Z</time>
      </trkpt>
      <trkpt lat="61.73635" lon="5.19958">
        <ele>71.594605</ele>
        <time>2020-07-28T14:44:25.244Z</time>
      </trkpt>
      <trkpt lat="61.7364" lon="5.19941">
        <ele>71.198332</ele>
        <time>2020-07-28T14:44:27.237Z</time>
      </trkpt>
      <trkpt lat="61.73645" lon="5.19923">
        <ele>70.775163</ele>
        <time>2020-07-28T14:44:29.222Z</time>
      </trkpt>
      <trkpt lat="61.7365" lon="5.19905">
        <ele>70.340566</ele>
        <time>2020-07-28T14:44:31.270Z</time>
      </trkpt>
      <trkpt lat="61.73655" lon="5.19886">
        <ele>69.901523</ele>
        <time>2020-07-28T14:44:33.237Z</time>
      </trkpt>
      <trkpt lat="61.7366" lon="5.19867">
        <ele>69.45274</ele>
        <time>2020-07-28T14:44:35.227Z</time>
      </trkpt>
      <trkpt lat="61.73665" lon="5.19848">
        <ele>68.998882</ele>
        <time>2020-07-28T14:44:37.278Z</time>
      </trkpt>
      <trkpt lat="61.73671" lon="5.19829">
        <ele>68.541361</ele>
        <time>2020-07-28T14:44:39.221Z</time>
      </trkpt>
      <trkpt lat="61.73675" lon="5.19809">
        <ele>68.091556</ele>
        <time>2020-07-28T14:44:41.249Z</time>
      </trkpt>
      <trkpt lat="61.7368" lon="5.1979">
        <ele>67.639743</ele>
        <time>2020-07-28T14:44:43.242Z</time>
      </trkpt>
      <trkpt lat="61.73685" lon="5.19771">
        <ele>67.205902</ele>
        <time>2020-07-28T14:44:45.219Z</time>
      </trkpt>
      <trkpt lat="61.73689" lon="5.19752">
        <ele>66.783258</ele>
        <time>2020-07-28T14:44:47.240Z</time>
      </trkpt>
      <trkpt lat="61.73693" lon="5.19732">
        <ele>66.342468</ele>
        <time>2020-07-28T14:44:49.252Z</time>
      </trkpt>
      <trkpt lat="61.73696" lon="5.19713">
        <ele>65.937442</ele>
        <time>2020-07-28T14:44:51.227Z</time>
      </trkpt>
      <trkpt lat="61.73699" lon="5.19695">
        <ele>65.543837</ele>
        <time>2020-07-28T14:44:53.246Z</time>
      </trkpt>
      <trkpt lat="61.73702" lon="5.19677">
        <ele>65.144385</ele>
        <time>2020-07-28T14:44:55.223Z</time>
      </trkpt>
      <trkpt lat="61.73704" lon="5.19653">
        <ele>64.647477</ele>
        <time>2020-07-28T14:44:58.248Z</time>
      </trkpt>
      <trkpt lat="61.73706" lon="5.19632">
        <ele>64.224168</ele>
        <time>2020-07-28T14:45:01.245Z</time>
      </trkpt>
      <trkpt lat="61.73707" lon="5.1961">
        <ele>63.87826</ele>
        <time>2020-07-28T14:45:04.228Z</time>
      </trkpt>
      <trkpt lat="61.73709" lon="5.19587">
        <ele>63.871015</ele>
        <time>2020-07-28T14:45:07.245Z</time>
      </trkpt>
      <trkpt lat="61.73712" lon="5.19563">
        <ele>63.863202</ele>
        <time>2020-07-28T14:45:10.238Z</time>
      </trkpt>
      <trkpt lat="61.73713" lon="5.19536">
        <ele>63.854869</ele>
        <time>2020-07-28T14:45:13.258Z</time>
      </trkpt>
      <trkpt lat="61.73716" lon="5.19516">
        <ele>63.848346</ele>
        <time>2020-07-28T14:45:15.281Z</time>
      </trkpt>
      <trkpt lat="61.73718" lon="5.19497">
        <ele>63.842068</ele>
        <time>2020-07-28T14:45:17.239Z</time>
      </trkpt>
      <trkpt lat="61.7372" lon="5.19477">
        <ele>63.835769</ele>
        <time>2020-07-28T14:45:19.243Z</time>
      </trkpt>
      <trkpt lat="61.73721" lon="5.19457">
        <ele>63.82937</ele>
        <time>2020-07-28T14:45:21.251Z</time>
      </trkpt>
      <trkpt lat="61.73722" lon="5.19436">
        <ele>63.822845</ele>
        <time>2020-07-28T14:45:23.218Z</time>
      </trkpt>
      <trkpt lat="61.73723" lon="5.19415">
        <ele>63.816463</ele>
        <time>2020-07-28T14:45:25.239Z</time>
      </trkpt>
      <trkpt lat="61.73723" lon="5.19396">
        <ele>63.810259</ele>
        <time>2020-07-28T14:45:27.256Z</time>
      </trkpt>
      <trkpt lat="61.73724" lon="5.19376">
        <ele>63.804258</ele>
        <time>2020-07-28T14:45:29.271Z</time>
      </trkpt>
      <trkpt lat="61.73724" lon="5.19358">
        <ele>63.798339</ele>
        <time>2020-07-28T14:45:31.227Z</time>
      </trkpt>
      <trkpt lat="61.73724" lon="5.19338">
        <ele>63.792309</ele>
        <time>2020-07-28T14:45:33.267Z</time>
      </trkpt>
      <trkpt lat="61.73724" lon="5.19311">
        <ele>63.783686</ele>
        <time>2020-07-28T14:45:36.268Z</time>
      </trkpt>
      <trkpt lat="61.73725" lon="5.19285">
        <ele>63.775525</ele>
        <time>2020-07-28T14:45:39.255Z</time>
      </trkpt>
      <trkpt lat="61.73725" lon="5.19257">
        <ele>63.767015</ele>
        <time>2020-07-28T14:45:42.231Z</time>
      </trkpt>
      <trkpt lat="61.73725" lon="5.19232">
        <ele>63.816589</ele>
        <time>2020-07-28T14:45:45.229Z</time>
      </trkpt>
      <trkpt lat="61.73725" lon="5.19206">
        <ele>64.010706</ele>
        <time>2020-07-28T14:45:48.234Z</time>
      </trkpt>
      <trkpt lat="61.73724" lon="5.19181">
        <ele>64.192015</ele>
        <time>2020-07-28T14:45:51.235Z</time>
      </trkpt>
      <trkpt lat="61.73723" lon="5.1916">
        <ele>64.349893</ele>
        <time>2020-07-28T14:45:54.236Z</time>
      </trkpt>
      <trkpt lat="61.73722" lon="5.1914">
        <ele>64.499218</ele>
        <time>2020-07-28T14:45:57.258Z</time>
      </trkpt>
      <trkpt lat="61.73722" lon="5.19119">
        <ele>64.651792</ele>
        <time>2020-07-28T14:46:00.252Z</time>
      </trkpt>
      <trkpt lat="61.73722" lon="5.19096">
        <ele>64.821322</ele>
        <time>2020-07-28T14:46:03.228Z</time>
      </trkpt>
      <trkpt lat="61.73721" lon="5.19073">
        <ele>64.996877</ele>
        <time>2020-07-28T14:46:06.251Z</time>
      </trkpt>
      <trkpt lat="61.73721" lon="5.19048">
        <ele>65.177572</ele>
        <time>2020-07-28T14:46:09.260Z</time>
      </trkpt>
      <trkpt lat="61.73721" lon="5.19023">
        <ele>65.367932</ele>
        <time>2020-07-28T14:46:12.255Z</time>
      </trkpt>
      <trkpt lat="61.73721" lon="5.18995">
        <ele>65.57154</ele>
        <time>2020-07-28T14:46:15.235Z</time>
      </trkpt>
      <trkpt lat="61.73721" lon="5.18976">
        <ele>65.712197</ele>
        <time>2020-07-28T14:46:17.269Z</time>
      </trkpt>
      <trkpt lat="61.73721" lon="5.18957">
        <ele>65.855075</ele>
        <time>2020-07-28T14:46:19.250Z</time>
      </trkpt>
      <trkpt lat="61.73721" lon="5.18937">
        <ele>66.002404</ele>
        <time>2020-07-28T14:46:21.229Z</time>
      </trkpt>
      <trkpt lat="61.73722" lon="5.18916">
        <ele>66.159418</ele>
        <time>2020-07-28T14:46:23.267Z</time>
      </trkpt>
      <trkpt lat="61.73722" lon="5.18896">
        <ele>66.309902</ele>
        <time>2020-07-28T14:46:25.253Z</time>
      </trkpt>
      <trkpt lat="61.73723" lon="5.18876">
        <ele>66.453088</ele>
        <time>2020-07-28T14:46:27.261Z</time>
      </trkpt>
      <trkpt lat="61.73724" lon="5.18857">
        <ele>66.54616</ele>
        <time>2020-07-28T14:46:29.236Z</time>
      </trkpt>
      <trkpt lat="61.73725" lon="5.18837">
        <ele>66.363309</ele>
        <time>2020-07-28T14:46:31.232Z</time>
      </trkpt>
      <trkpt lat="61.73729" lon="5.1881">
        <ele>66.108763</ele>
        <time>2020-07-28T14:46:34.252Z</time>
      </trkpt>
      <trkpt lat="61.73732" lon="5.18789">
        <ele>65.902388</ele>
        <time>2020-07-28T14:46:36.259Z</time>
      </trkpt>
      <trkpt lat="61.73737" lon="5.18767">
        <ele>65.689209</ele>
        <time>2020-07-28T14:46:38.230Z</time>
      </trkpt>
      <trkpt lat="61.73742" lon="5.18747">
        <ele>65.48338</ele>
        <time>2020-07-28T14:46:40.255Z</time>
      </trkpt>
      <trkpt lat="61.73745" lon="5.18727">
        <ele>65.299208</ele>
        <time>2020-07-28T14:46:42.234Z</time>
      </trkpt>
      <trkpt lat="61.73747" lon="5.18704">
        <ele>65.081405</ele>
        <time>2020-07-28T14:46:45.260Z</time>
      </trkpt>
      <trkpt lat="61.7375" lon="5.18677">
        <ele>64.831636</ele>
        <time>2020-07-28T14:46:48.254Z</time>
      </trkpt>
      <trkpt lat="61.73752" lon="5.18656">
        <ele>64.636413</ele>
        <time>2020-07-28T14:46:50.232Z</time>
      </trkpt>
      <trkpt lat="61.73757" lon="5.18636">
        <ele>64.437941</ele>
        <time>2020-07-28T14:46:52.259Z</time>
      </trkpt>
      <trkpt lat="61.73763" lon="5.18617">
        <ele>64.232133</ele>
        <time>2020-07-28T14:46:54.234Z</time>
      </trkpt>
      <trkpt lat="61.73768" lon="5.18598">
        <ele>64.03574</ele>
        <time>2020-07-28T14:46:56.258Z</time>
      </trkpt>
      <trkpt lat="61.73774" lon="5.18574">
        <ele>63.791438</ele>
        <time>2020-07-28T14:46:59.230Z</time>
      </trkpt>
      <trkpt lat="61.73777" lon="5.18551">
        <ele>63.570246</ele>
        <time>2020-07-28T14:47:02.253Z</time>
      </trkpt>
      <trkpt lat="61.73781" lon="5.18527">
        <ele>63.340531</ele>
        <time>2020-07-28T14:47:05.247Z</time>
      </trkpt>
      <trkpt lat="61.73788" lon="5.18502">
        <ele>63.035291</ele>
        <time>2020-07-28T14:47:08.235Z</time>
      </trkpt>
      <trkpt lat="61.73793" lon="5.18483">
        <ele>62.680763</ele>
        <time>2020-07-28T14:47:10.263Z</time>
      </trkpt>
      <trkpt lat="61.73798" lon="5.18466">
        <ele>62.356589</ele>
        <time>2020-07-28T14:47:12.278Z</time>
      </trkpt>
      <trkpt lat="61.73803" lon="5.18449">
        <ele>62.025114</ele>
        <time>2020-07-28T14:47:14.263Z</time>
      </trkpt>
      <trkpt lat="61.73809" lon="5.18432">
        <ele>61.687268</ele>
        <time>2020-07-28T14:47:16.250Z</time>
      </trkpt>
      <trkpt lat="61.73815" lon="5.18412">
        <ele>61.306316</ele>
        <time>2020-07-28T14:47:18.264Z</time>
      </trkpt>
      <trkpt lat="61.73822" lon="5.1839">
        <ele>60.877452</ele>
        <time>2020-07-28T14:47:20.241Z</time>
      </trkpt>
      <trkpt lat="61.73827" lon="5.1836">
        <ele>60.356575</ele>
        <time>2020-07-28T14:47:22.240Z</time>
      </trkpt>
      <trkpt lat="61.73831" lon="5.18327">
        <ele>59.801792</ele>
        <time>2020-07-28T14:47:24.264Z</time>
      </trkpt>
      <trkpt lat="61.73833" lon="5.18308">
        <ele>59.492582</ele>
        <time>2020-07-28T14:47:25.222Z</time>
      </trkpt>
      <trkpt lat="61.73834" lon="5.18269">
        <ele>58.861724</ele>
        <time>2020-07-28T14:47:27.241Z</time>
      </trkpt>
      <trkpt lat="61.73833" lon="5.18249">
        <ele>58.532963</ele>
        <time>2020-07-28T14:47:28.242Z</time>
      </trkpt>
      <trkpt lat="61.7383" lon="5.18229">
        <ele>58.195271</ele>
        <time>2020-07-28T14:47:29.268Z</time>
      </trkpt>
      <trkpt lat="61.73827" lon="5.18208">
        <ele>57.837936</ele>
        <time>2020-07-28T14:47:30.254Z</time>
      </trkpt>
      <trkpt lat="61.73822" lon="5.18189">
        <ele>57.470941</ele>
        <time>2020-07-28T14:47:31.245Z</time>
      </trkpt>
      <trkpt lat="61.73817" lon="5.18169">
        <ele>57.115761</ele>
        <time>2020-07-28T14:47:32.230Z</time>
      </trkpt>
      <trkpt lat="61.73812" lon="5.18152">
        <ele>56.979111</ele>
        <time>2020-07-28T14:47:33.228Z</time>
      </trkpt>
      <trkpt lat="61.73806" lon="5.18136">
        <ele>56.977758</ele>
        <time>2020-07-28T14:47:34.240Z</time>
      </trkpt>
      <trkpt lat="61.738" lon="5.1812">
        <ele>56.976449</ele>
        <time>2020-07-28T14:47:35.232Z</time>
      </trkpt>
      <trkpt lat="61.73791" lon="5.18091">
        <ele>56.97409</ele>
        <time>2020-07-28T14:47:37.240Z</time>
      </trkpt>
      <trkpt lat="61.73784" lon="5.18067">
        <ele>56.972266</ele>
        <time>2020-07-28T14:47:39.256Z</time>
      </trkpt>
      <trkpt lat="61.73781" lon="5.18048">
        <ele>56.970902</ele>
        <time>2020-07-28T14:47:41.233Z</time>
      </trkpt>
      <trkpt lat="61.73778" lon="5.18024">
        <ele>56.969294</ele>
        <time>2020-07-28T14:47:44.233Z</time>
      </trkpt>
      <trkpt lat="61.73776" lon="5.18003">
        <ele>56.967828</ele>
        <time>2020-07-28T14:47:48.242Z</time>
      </trkpt>
      <trkpt lat="61.73778" lon="5.1798">
        <ele>56.966263</ele>
        <time>2020-07-28T14:47:52.231Z</time>
      </trkpt>
      <trkpt lat="61.73781" lon="5.1796">
        <ele>56.964866</ele>
        <time>2020-07-28T14:47:55.241Z</time>
      </trkpt>
      <trkpt lat="61.73784" lon="5.1794">
        <ele>56.96349</ele>
        <time>2020-07-28T14:47:58.237Z</time>
      </trkpt>
      <trkpt lat="61.73789" lon="5.17917">
        <ele>56.961776</ele>
        <time>2020-07-28T14:48:02.274Z</time>
      </trkpt>
      <trkpt lat="61.73793" lon="5.17897">
        <ele>56.960373</ele>
        <time>2020-07-28T14:48:05.261Z</time>
      </trkpt>
      <trkpt lat="61.73796" lon="5.17879">
        <ele>56.959076</ele>
        <time>2020-07-28T14:48:08.272Z</time>
      </trkpt>
      <trkpt lat="61.73801" lon="5.17862">
        <ele>56.957806</ele>
        <time>2020-07-28T14:48:11.249Z</time>
      </trkpt>
      <trkpt lat="61.73808" lon="5.17843">
        <ele>56.956168</ele>
        <time>2020-07-28T14:48:15.230Z</time>
      </trkpt>
      <trkpt lat="61.73814" lon="5.17827">
        <ele>56.954766</ele>
        <time>2020-07-28T14:48:18.252Z</time>
      </trkpt>
      <trkpt lat="61.73822" lon="5.1781">
        <ele>57.114778</ele>
        <time>2020-07-28T14:48:21.246Z</time>
      </trkpt>
      <trkpt lat="61.7383" lon="5.1779">
        <ele>57.308937</ele>
        <time>2020-07-28T14:48:24.263Z</time>
      </trkpt>
      <trkpt lat="61.73837" lon="5.17776">
        <ele>57.465792</ele>
        <time>2020-07-28T14:48:26.230Z</time>
      </trkpt>
      <trkpt lat="61.73845" lon="5.17759">
        <ele>57.636115</ele>
        <time>2020-07-28T14:48:28.274Z</time>
      </trkpt>
      <trkpt lat="61.73853" lon="5.17741">
        <ele>57.822548</ele>
        <time>2020-07-28T14:48:30.257Z</time>
      </trkpt>
      <trkpt lat="61.73862" lon="5.1772">
        <ele>58.027097</ele>
        <time>2020-07-28T14:48:32.231Z</time>
      </trkpt>
      <trkpt lat="61.7387" lon="5.17695">
        <ele>58.250377</ele>
        <time>2020-07-28T14:48:34.221Z</time>
      </trkpt>
      <trkpt lat="61.73877" lon="5.17669">
        <ele>58.478246</ele>
        <time>2020-07-28T14:48:36.242Z</time>
      </trkpt>
      <trkpt lat="61.73882" lon="5.1764">
        <ele>58.703926</ele>
        <time>2020-07-28T14:48:38.227Z</time>
      </trkpt>
      <trkpt lat="61.73885" lon="5.17612">
        <ele>58.919849</ele>
        <time>2020-07-28T14:48:40.261Z</time>
      </trkpt>
      <trkpt lat="61.73888" lon="5.17586">
        <ele>59.115916</ele>
        <time>2020-07-28T14:48:42.236Z</time>
      </trkpt>
      <trkpt lat="61.73892" lon="5.17563">
        <ele>59.296588</ele>
        <time>2020-07-28T14:48:44.256Z</time>
      </trkpt>
      <trkpt lat="61.73895" lon="5.17542">
        <ele>59.463703</ele>
        <time>2020-07-28T14:48:46.232Z</time>
      </trkpt>
      <trkpt lat="61.73899" lon="5.17522">
        <ele>59.624883</ele>
        <time>2020-07-28T14:48:48.267Z</time>
      </trkpt>
      <trkpt lat="61.73902" lon="5.17503">
        <ele>59.770683</ele>
        <time>2020-07-28T14:48:50.229Z</time>
      </trkpt>
      <trkpt lat="61.73907" lon="5.17477">
        <ele>60.08602</ele>
        <time>2020-07-28T14:48:53.246Z</time>
      </trkpt>
      <trkpt lat="61.73911" lon="5.17452">
        <ele>60.387485</ele>
        <time>2020-07-28T14:48:56.250Z</time>
      </trkpt>
      <trkpt lat="61.73914" lon="5.17428">
        <ele>60.673489</ele>
        <time>2020-07-28T14:48:59.233Z</time>
      </trkpt>
      <trkpt lat="61.73917" lon="5.17405">
        <ele>60.941322</ele>
        <time>2020-07-28T14:49:02.241Z</time>
      </trkpt>
      <trkpt lat="61.73919" lon="5.17382">
        <ele>61.20353</ele>
        <time>2020-07-28T14:49:05.232Z</time>
      </trkpt>
      <trkpt lat="61.7392" lon="5.17362">
        <ele>61.434677</ele>
        <time>2020-07-28T14:49:08.252Z</time>
      </trkpt>
      <trkpt lat="61.73918" lon="5.17341">
        <ele>61.67811</ele>
        <time>2020-07-28T14:49:12.234Z</time>
      </trkpt>
      <trkpt lat="61.73915" lon="5.1732">
        <ele>61.920303</ele>
        <time>2020-07-28T14:49:17.227Z</time>
      </trkpt>
      <trkpt lat="61.73915" lon="5.17298">
        <ele>62.171503</ele>
        <time>2020-07-28T14:49:22.234Z</time>
      </trkpt>
      <trkpt lat="61.73914" lon="5.17276">
        <ele>62.424303</ele>
        <time>2020-07-28T14:49:28.247Z</time>
      </trkpt>
      <trkpt lat="61.73913" lon="5.17254">
        <ele>62.671099</ele>
        <time>2020-07-28T14:49:33.277Z</time>
      </trkpt>
      <trkpt lat="61.73912" lon="5.17234">
        <ele>62.908491</ele>
        <time>2020-07-28T14:49:38.233Z</time>
      </trkpt>
      <trkpt lat="61.73911" lon="5.17212">
        <ele>63.157662</ele>
        <time>2020-07-28T14:49:43.253Z</time>
      </trkpt>
      <trkpt lat="61.73909" lon="5.17192">
        <ele>63.39306</ele>
        <time>2020-07-28T14:49:48.227Z</time>
      </trkpt>
      <trkpt lat="61.73908" lon="5.17171">
        <ele>63.632539</ele>
        <time>2020-07-28T14:49:53.248Z</time>
      </trkpt>
      <trkpt lat="61.73908" lon="5.1715">
        <ele>63.86892</ele>
        <time>2020-07-28T14:49:58.254Z</time>
      </trkpt>
      <trkpt lat="61.73909" lon="5.17128">
        <ele>64.079423</ele>
        <time>2020-07-28T14:50:03.258Z</time>
      </trkpt>
      <trkpt lat="61.73909" lon="5.17108">
        <ele>63.998258</ele>
        <time>2020-07-28T14:50:07.252Z</time>
      </trkpt>
      <trkpt lat="61.73908" lon="5.17085">
        <ele>63.902811</ele>
        <time>2020-07-28T14:50:11.249Z</time>
      </trkpt>
      <trkpt lat="61.73908" lon="5.17063">
        <ele>63.815582</ele>
        <time>2020-07-28T14:50:14.241Z</time>
      </trkpt>
      <trkpt lat="61.73908" lon="5.17039">
        <ele>63.716198</ele>
        <time>2020-07-28T14:50:17.250Z</time>
      </trkpt>
      <trkpt lat="61.73907" lon="5.17011">
        <ele>63.60281</ele>
        <time>2020-07-28T14:50:20.252Z</time>
      </trkpt>
      <trkpt lat="61.73907" lon="5.16991">
        <ele>63.522813</ele>
        <time>2020-07-28T14:50:22.251Z</time>
      </trkpt>
      <trkpt lat="61.73904" lon="5.16967">
        <ele>63.422047</ele>
        <time>2020-07-28T14:50:25.248Z</time>
      </trkpt>
      <trkpt lat="61.73903" lon="5.16941">
        <ele>63.315146</ele>
        <time>2020-07-28T14:50:28.257Z</time>
      </trkpt>
      <trkpt lat="61.73902" lon="5.16922">
        <ele>63.237454</ele>
        <time>2020-07-28T14:50:30.248Z</time>
      </trkpt>
      <trkpt lat="61.73901" lon="5.16894">
        <ele>63.124958</ele>
        <time>2020-07-28T14:50:33.229Z</time>
      </trkpt>
      <trkpt lat="61.73901" lon="5.16868">
        <ele>63.01645</ele>
        <time>2020-07-28T14:50:36.228Z</time>
      </trkpt>
      <trkpt lat="61.73899" lon="5.1684">
        <ele>62.904107</ele>
        <time>2020-07-28T14:50:39.230Z</time>
      </trkpt>
      <trkpt lat="61.73898" lon="5.16814">
        <ele>62.797521</ele>
        <time>2020-07-28T14:50:42.240Z</time>
      </trkpt>
      <trkpt lat="61.73899" lon="5.16788">
        <ele>62.690389</ele>
        <time>2020-07-28T14:50:45.228Z</time>
      </trkpt>
      <trkpt lat="61.739" lon="5.16763">
        <ele>62.586016</ele>
        <time>2020-07-28T14:50:48.260Z</time>
      </trkpt>
      <trkpt lat="61.73901" lon="5.1674">
        <ele>62.354013</ele>
        <time>2020-07-28T14:50:51.275Z</time>
      </trkpt>
      <trkpt lat="61.73904" lon="5.16716">
        <ele>61.95359</ele>
        <time>2020-07-28T14:50:54.237Z</time>
      </trkpt>
      <trkpt lat="61.73905" lon="5.16697">
        <ele>61.644479</ele>
        <time>2020-07-28T14:50:56.249Z</time>
      </trkpt>
      <trkpt lat="61.73908" lon="5.16675">
        <ele>61.285637</ele>
        <time>2020-07-28T14:50:58.251Z</time>
      </trkpt>
      <trkpt lat="61.73912" lon="5.1665">
        <ele>60.86163</ele>
        <time>2020-07-28T14:51:00.233Z</time>
      </trkpt>
      <trkpt lat="61.73918" lon="5.16625">
        <ele>60.404184</ele>
        <time>2020-07-28T14:51:02.248Z</time>
      </trkpt>
      <trkpt lat="61.73924" lon="5.16597">
        <ele>59.911765</ele>
        <time>2020-07-28T14:51:04.225Z</time>
      </trkpt>
      <trkpt lat="61.73931" lon="5.16569">
        <ele>59.396016</ele>
        <time>2020-07-28T14:51:06.261Z</time>
      </trkpt>
      <trkpt lat="61.73938" lon="5.16539">
        <ele>58.861435</ele>
        <time>2020-07-28T14:51:08.275Z</time>
      </trkpt>
      <trkpt lat="61.73945" lon="5.16508">
        <ele>58.31102</ele>
        <time>2020-07-28T14:51:10.249Z</time>
      </trkpt>
      <trkpt lat="61.73953" lon="5.16477">
        <ele>57.744277</ele>
        <time>2020-07-28T14:51:12.231Z</time>
      </trkpt>
      <trkpt lat="61.73961" lon="5.16444">
        <ele>57.154429</ele>
        <time>2020-07-28T14:51:14.234Z</time>
      </trkpt>
      <trkpt lat="61.73969" lon="5.16411">
        <ele>56.548617</ele>
        <time>2020-07-28T14:51:16.242Z</time>
      </trkpt>
      <trkpt lat="61.73973" lon="5.16394">
        <ele>56.264426</ele>
        <time>2020-07-28T14:51:17.239Z</time>
      </trkpt>
      <trkpt lat="61.73977" lon="5.16376">
        <ele>55.985871</ele>
        <time>2020-07-28T14:51:18.242Z</time>
      </trkpt>
      <trkpt lat="61.73982" lon="5.16359">
        <ele>55.703682</ele>
        <time>2020-07-28T14:51:19.270Z</time>
      </trkpt>
      <trkpt lat="61.73986" lon="5.16341">
        <ele>55.412513</ele>
        <time>2020-07-28T14:51:20.223Z</time>
      </trkpt>
      <trkpt lat="61.7399" lon="5.16322">
        <ele>55.116257</ele>
        <time>2020-07-28T14:51:21.241Z</time>
      </trkpt>
      <trkpt lat="61.73995" lon="5.16303">
        <ele>54.820002</ele>
        <time>2020-07-28T14:51:22.222Z</time>
      </trkpt>
      <trkpt lat="61.73999" lon="5.16285">
        <ele>54.523746</ele>
        <time>2020-07-28T14:51:23.249Z</time>
      </trkpt>
      <trkpt lat="61.74004" lon="5.16266">
        <ele>54.227543</ele>
        <time>2020-07-28T14:51:24.226Z</time>
      </trkpt>
      <trkpt lat="61.74008" lon="5.16248">
        <ele>53.937732</ele>
        <time>2020-07-28T14:51:25.222Z</time>
      </trkpt>
      <trkpt lat="61.74012" lon="5.16231">
        <ele>53.658074</ele>
        <time>2020-07-28T14:51:26.244Z</time>
      </trkpt>
      <trkpt lat="61.7402" lon="5.16199">
        <ele>53.146525</ele>
        <time>2020-07-28T14:51:28.240Z</time>
      </trkpt>
      <trkpt lat="61.74026" lon="5.16171">
        <ele>52.711213</ele>
        <time>2020-07-28T14:51:30.231Z</time>
      </trkpt>
      <trkpt lat="61.74031" lon="5.16148">
        <ele>52.349318</ele>
        <time>2020-07-28T14:51:32.260Z</time>
      </trkpt>
      <trkpt lat="61.74035" lon="5.1613">
        <ele>52.06574</ele>
        <time>2020-07-28T14:51:34.230Z</time>
      </trkpt>
      <trkpt lat="61.74041" lon="5.16111">
        <ele>51.746028</ele>
        <time>2020-07-28T14:51:37.228Z</time>
      </trkpt>
      <trkpt lat="61.74046" lon="5.16094">
        <ele>51.457093</ele>
        <time>2020-07-28T14:51:41.237Z</time>
      </trkpt>
      <trkpt lat="61.7405" lon="5.16073">
        <ele>51.137685</ele>
        <time>2020-07-28T14:51:47.231Z</time>
      </trkpt>
      <trkpt lat="61.74056" lon="5.16054">
        <ele>51.716713</ele>
        <time>2020-07-28T14:51:54.232Z</time>
      </trkpt>
      <trkpt lat="61.74061" lon="5.16035">
        <ele>52.803082</ele>
        <time>2020-07-28T14:52:00.252Z</time>
      </trkpt>
      <trkpt lat="61.74064" lon="5.16016">
        <ele>53.754079</ele>
        <time>2020-07-28T14:52:06.227Z</time>
      </trkpt>
      <trkpt lat="61.74068" lon="5.15997">
        <ele>54.771092</ele>
        <time>2020-07-28T14:52:11.225Z</time>
      </trkpt>
      <trkpt lat="61.7407" lon="5.15976">
        <ele>55.814899</ele>
        <time>2020-07-28T14:52:17.260Z</time>
      </trkpt>
      <trkpt lat="61.74075" lon="5.15956">
        <ele>56.884913</ele>
        <time>2020-07-28T14:52:23.232Z</time>
      </trkpt>
      <trkpt lat="61.7408" lon="5.15938">
        <ele>57.911141</ele>
        <time>2020-07-28T14:52:29.295Z</time>
      </trkpt>
      <trkpt lat="61.74084" lon="5.15917">
        <ele>59.032626</ele>
        <time>2020-07-28T14:52:34.233Z</time>
      </trkpt>
      <trkpt lat="61.74088" lon="5.15897">
        <ele>60.082974</ele>
        <time>2020-07-28T14:52:39.247Z</time>
      </trkpt>
      <trkpt lat="61.74092" lon="5.15877">
        <ele>61.104474</ele>
        <time>2020-07-28T14:52:45.258Z</time>
      </trkpt>
      <trkpt lat="61.74097" lon="5.15861">
        <ele>62.042254</ele>
        <time>2020-07-28T14:52:49.244Z</time>
      </trkpt>
      <trkpt lat="61.74103" lon="5.15846">
        <ele>62.994893</ele>
        <time>2020-07-28T14:52:53.228Z</time>
      </trkpt>
      <trkpt lat="61.74108" lon="5.15829">
        <ele>63.961955</ele>
        <time>2020-07-28T14:52:58.252Z</time>
      </trkpt>
      <trkpt lat="61.74114" lon="5.1581">
        <ele>65.076794</ele>
        <time>2020-07-28T14:53:03.252Z</time>
      </trkpt>
      <trkpt lat="61.74121" lon="5.15792">
        <ele>66.179288</ele>
        <time>2020-07-28T14:53:09.236Z</time>
      </trkpt>
      <trkpt lat="61.74127" lon="5.15774">
        <ele>67.236813</ele>
        <time>2020-07-28T14:53:15.240Z</time>
      </trkpt>
      <trkpt lat="61.74131" lon="5.15755">
        <ele>68.278886</ele>
        <time>2020-07-28T14:53:21.240Z</time>
      </trkpt>
      <trkpt lat="61.74136" lon="5.15737">
        <ele>69.252884</ele>
        <time>2020-07-28T14:53:27.257Z</time>
      </trkpt>
      <trkpt lat="61.74141" lon="5.15719">
        <ele>69.632837</ele>
        <time>2020-07-28T14:53:35.222Z</time>
      </trkpt>
      <trkpt lat="61.74147" lon="5.15705">
        <ele>69.871465</ele>
        <time>2020-07-28T14:53:42.232Z</time>
      </trkpt>
      <trkpt lat="61.74155" lon="5.15694">
        <ele>70.130328</ele>
        <time>2020-07-28T14:53:48.270Z</time>
      </trkpt>
      <trkpt lat="61.74164" lon="5.15681">
        <ele>70.401578</ele>
        <time>2020-07-28T14:53:54.254Z</time>
      </trkpt>
      <trkpt lat="61.74172" lon="5.15672">
        <ele>70.652953</ele>
        <time>2020-07-28T14:53:59.230Z</time>
      </trkpt>
      <trkpt lat="61.74181" lon="5.15666">
        <ele>70.893652</ele>
        <time>2020-07-28T14:54:03.241Z</time>
      </trkpt>
      <trkpt lat="61.74191" lon="5.15662">
        <ele>71.171221</ele>
        <time>2020-07-28T14:54:07.258Z</time>
      </trkpt>
      <trkpt lat="61.74203" lon="5.15659">
        <ele>71.48866</ele>
        <time>2020-07-28T14:54:11.234Z</time>
      </trkpt>
      <trkpt lat="61.74215" lon="5.15658">
        <ele>71.801135</ele>
        <time>2020-07-28T14:54:14.255Z</time>
      </trkpt>
      <trkpt lat="61.74224" lon="5.1566">
        <ele>72.041501</ele>
        <time>2020-07-28T14:54:16.230Z</time>
      </trkpt>
      <trkpt lat="61.74235" lon="5.15664">
        <ele>72.318635</ele>
        <time>2020-07-28T14:54:18.250Z</time>
      </trkpt>
      <trkpt lat="61.74246" lon="5.15669">
        <ele>72.632576</ele>
        <time>2020-07-28T14:54:20.256Z</time>
      </trkpt>
      <trkpt lat="61.74259" lon="5.15675">
        <ele>72.977182</ele>
        <time>2020-07-28T14:54:22.255Z</time>
      </trkpt>
      <trkpt lat="61.74273" lon="5.1568">
        <ele>73.348511</ele>
        <time>2020-07-28T14:54:24.232Z</time>
      </trkpt>
      <trkpt lat="61.74289" lon="5.15688">
        <ele>73.783667</ele>
        <time>2020-07-28T14:54:26.233Z</time>
      </trkpt>
      <trkpt lat="61.74298" lon="5.15693">
        <ele>74.028022</ele>
        <time>2020-07-28T14:54:27.235Z</time>
      </trkpt>
      <trkpt lat="61.74307" lon="5.15698">
        <ele>74.090716</ele>
        <time>2020-07-28T14:54:28.231Z</time>
      </trkpt>
      <trkpt lat="61.74316" lon="5.15704">
        <ele>73.996323</ele>
        <time>2020-07-28T14:54:29.241Z</time>
      </trkpt>
      <trkpt lat="61.74325" lon="5.15709">
        <ele>73.902309</ele>
        <time>2020-07-28T14:54:30.235Z</time>
      </trkpt>
      <trkpt lat="61.74334" lon="5.15713">
        <ele>73.811757</ele>
        <time>2020-07-28T14:54:31.236Z</time>
      </trkpt>
      <trkpt lat="61.7435" lon="5.15716">
        <ele>73.650396</ele>
        <time>2020-07-28T14:54:33.241Z</time>
      </trkpt>
      <trkpt lat="61.74364" lon="5.15716">
        <ele>73.517729</ele>
        <time>2020-07-28T14:54:35.244Z</time>
      </trkpt>
      <trkpt lat="61.74374" lon="5.15713">
        <ele>73.417921</ele>
        <time>2020-07-28T14:54:37.252Z</time>
      </trkpt>
      <trkpt lat="61.74383" lon="5.15707">
        <ele>73.317883</ele>
        <time>2020-07-28T14:54:40.250Z</time>
      </trkpt>
      <trkpt lat="61.74393" lon="5.15702">
        <ele>73.217114</ele>
        <time>2020-07-28T14:54:44.242Z</time>
      </trkpt>
      <trkpt lat="61.74403" lon="5.15699">
        <ele>73.118361</ele>
        <time>2020-07-28T14:54:48.250Z</time>
      </trkpt>
      <trkpt lat="61.74414" lon="5.15697">
        <ele>73.007301</ele>
        <time>2020-07-28T14:54:52.250Z</time>
      </trkpt>
      <trkpt lat="61.74424" lon="5.15693">
        <ele>72.909336</ele>
        <time>2020-07-28T14:54:56.251Z</time>
      </trkpt>
      <trkpt lat="61.74434" lon="5.15687">
        <ele>72.804582</ele>
        <time>2020-07-28T14:55:00.228Z</time>
      </trkpt>
      <trkpt lat="61.74445" lon="5.15683">
        <ele>72.694519</ele>
        <time>2020-07-28T14:55:04.231Z</time>
      </trkpt>
      <trkpt lat="61.74455" lon="5.15677">
        <ele>72.590846</ele>
        <time>2020-07-28T14:55:08.276Z</time>
      </trkpt>
      <trkpt lat="61.74465" lon="5.15672">
        <ele>72.483293</ele>
        <time>2020-07-28T14:55:11.260Z</time>
      </trkpt>
      <trkpt lat="61.74477" lon="5.15666">
        <ele>72.36203</ele>
        <time>2020-07-28T14:55:14.241Z</time>
      </trkpt>
      <trkpt lat="61.74487" lon="5.1566">
        <ele>72.051095</ele>
        <time>2020-07-28T14:55:16.242Z</time>
      </trkpt>
      <trkpt lat="61.74498" lon="5.15652">
        <ele>71.612856</ele>
        <time>2020-07-28T14:55:18.252Z</time>
      </trkpt>
      <trkpt lat="61.74513" lon="5.15644">
        <ele>71.087981</ele>
        <time>2020-07-28T14:55:20.249Z</time>
      </trkpt>
      <trkpt lat="61.74529" lon="5.15636">
        <ele>70.511554</ele>
        <time>2020-07-28T14:55:22.234Z</time>
      </trkpt>
      <trkpt lat="61.74545" lon="5.15622">
        <ele>69.882414</ele>
        <time>2020-07-28T14:55:24.255Z</time>
      </trkpt>
      <trkpt lat="61.74553" lon="5.15613">
        <ele>69.561333</ele>
        <time>2020-07-28T14:55:25.226Z</time>
      </trkpt>
      <trkpt lat="61.74561" lon="5.15603">
        <ele>69.246158</ele>
        <time>2020-07-28T14:55:26.249Z</time>
      </trkpt>
      <trkpt lat="61.74568" lon="5.1559">
        <ele>68.917633</ele>
        <time>2020-07-28T14:55:27.226Z</time>
      </trkpt>
      <trkpt lat="61.74575" lon="5.15578">
        <ele>68.58776</ele>
        <time>2020-07-28T14:55:28.249Z</time>
      </trkpt>
      <trkpt lat="61.74582" lon="5.15565">
        <ele>68.258099</ele>
        <time>2020-07-28T14:55:29.267Z</time>
      </trkpt>
      <trkpt lat="61.74594" lon="5.15537">
        <ele>67.646095</ele>
        <time>2020-07-28T14:55:31.228Z</time>
      </trkpt>
      <trkpt lat="61.746" lon="5.15505">
        <ele>67.066555</ele>
        <time>2020-07-28T14:55:33.233Z</time>
      </trkpt>
      <trkpt lat="61.74604" lon="5.15475">
        <ele>66.541151</ele>
        <time>2020-07-28T14:55:35.257Z</time>
      </trkpt>
      <trkpt lat="61.74608" lon="5.15446">
        <ele>66.036154</ele>
        <time>2020-07-28T14:55:37.289Z</time>
      </trkpt>
      <trkpt lat="61.74612" lon="5.15418">
        <ele>65.376016</ele>
        <time>2020-07-28T14:55:39.251Z</time>
      </trkpt>
      <trkpt lat="61.74616" lon="5.15393">
        <ele>64.754364</ele>
        <time>2020-07-28T14:55:41.226Z</time>
      </trkpt>
      <trkpt lat="61.7462" lon="5.15365">
        <ele>64.067612</ele>
        <time>2020-07-28T14:55:43.261Z</time>
      </trkpt>
      <trkpt lat="61.74623" lon="5.15335">
        <ele>63.346792</ele>
        <time>2020-07-28T14:55:45.247Z</time>
      </trkpt>
      <trkpt lat="61.74627" lon="5.15301">
        <ele>62.55101</ele>
        <time>2020-07-28T14:55:47.246Z</time>
      </trkpt>
      <trkpt lat="61.74629" lon="5.15283">
        <ele>62.10601</ele>
        <time>2020-07-28T14:55:48.234Z</time>
      </trkpt>
      <trkpt lat="61.74631" lon="5.15264">
        <ele>61.645951</ele>
        <time>2020-07-28T14:55:49.233Z</time>
      </trkpt>
      <trkpt lat="61.74634" lon="5.15244">
        <ele>61.179146</ele>
        <time>2020-07-28T14:55:50.236Z</time>
      </trkpt>
      <trkpt lat="61.74636" lon="5.15225">
        <ele>60.722824</ele>
        <time>2020-07-28T14:55:51.295Z</time>
      </trkpt>
      <trkpt lat="61.7464" lon="5.15191">
        <ele>59.885113</ele>
        <time>2020-07-28T14:55:53.239Z</time>
      </trkpt>
      <trkpt lat="61.74644" lon="5.1516">
        <ele>59.160841</ele>
        <time>2020-07-28T14:55:55.233Z</time>
      </trkpt>
      <trkpt lat="61.74647" lon="5.15136">
        <ele>58.568208</ele>
        <time>2020-07-28T14:55:57.231Z</time>
      </trkpt>
      <trkpt lat="61.74649" lon="5.15116">
        <ele>58.101469</ele>
        <time>2020-07-28T14:55:59.235Z</time>
      </trkpt>
      <trkpt lat="61.74653" lon="5.15093">
        <ele>57.528907</ele>
        <time>2020-07-28T14:56:02.272Z</time>
      </trkpt>
      <trkpt lat="61.74658" lon="5.15075">
        <ele>57.252665</ele>
        <time>2020-07-28T14:56:05.232Z</time>
      </trkpt>
      <trkpt lat="61.74663" lon="5.15058">
        <ele>57.819818</ele>
        <time>2020-07-28T14:56:09.247Z</time>
      </trkpt>
      <trkpt lat="61.74671" lon="5.15046">
        <ele>58.361975</ele>
        <time>2020-07-28T14:56:13.260Z</time>
      </trkpt>
      <trkpt lat="61.74678" lon="5.15032">
        <ele>58.931635</ele>
        <time>2020-07-28T14:56:17.241Z</time>
      </trkpt>
      <trkpt lat="61.74687" lon="5.15019">
        <ele>59.559165</ele>
        <time>2020-07-28T14:56:21.249Z</time>
      </trkpt>
      <trkpt lat="61.74698" lon="5.15007">
        <ele>60.241632</ele>
        <time>2020-07-28T14:56:25.257Z</time>
      </trkpt>
      <trkpt lat="61.74708" lon="5.15">
        <ele>60.833244</ele>
        <time>2020-07-28T14:56:28.236Z</time>
      </trkpt>
      <trkpt lat="61.74721" lon="5.14994">
        <ele>61.601559</ele>
        <time>2020-07-28T14:56:31.243Z</time>
      </trkpt>
      <trkpt lat="61.74731" lon="5.14994">
        <ele>62.214456</ele>
        <time>2020-07-28T14:56:33.252Z</time>
      </trkpt>
      <trkpt lat="61.74743" lon="5.14999">
        <ele>62.880235</ele>
        <time>2020-07-28T14:56:35.237Z</time>
      </trkpt>
      <trkpt lat="61.74756" lon="5.15004">
        <ele>63.627832</ele>
        <time>2020-07-28T14:56:37.255Z</time>
      </trkpt>
      <trkpt lat="61.74769" lon="5.1501">
        <ele>64.391771</ele>
        <time>2020-07-28T14:56:39.278Z</time>
      </trkpt>
      <trkpt lat="61.74781" lon="5.15014">
        <ele>65.101098</ele>
        <time>2020-07-28T14:56:41.248Z</time>
      </trkpt>
      <trkpt lat="61.74791" lon="5.15018">
        <ele>65.667677</ele>
        <time>2020-07-28T14:56:43.258Z</time>
      </trkpt>
      <trkpt lat="61.74803" lon="5.15024">
        <ele>66.394507</ele>
        <time>2020-07-28T14:56:46.273Z</time>
      </trkpt>
      <trkpt lat="61.74814" lon="5.15029">
        <ele>67.010393</ele>
        <time>2020-07-28T14:56:49.241Z</time>
      </trkpt>
      <trkpt lat="61.74823" lon="5.15032">
        <ele>67.724394</ele>
        <time>2020-07-28T14:56:52.281Z</time>
      </trkpt>
      <trkpt lat="61.74835" lon="5.15034">
        <ele>69.089961</ele>
        <time>2020-07-28T14:56:56.247Z</time>
      </trkpt>
      <trkpt lat="61.74844" lon="5.15037">
        <ele>70.220421</ele>
        <time>2020-07-28T14:56:59.242Z</time>
      </trkpt>
      <trkpt lat="61.74855" lon="5.15041">
        <ele>71.560404</ele>
        <time>2020-07-28T14:57:03.261Z</time>
      </trkpt>
      <trkpt lat="61.74867" lon="5.15045">
        <ele>72.930558</ele>
        <time>2020-07-28T14:57:07.271Z</time>
      </trkpt>
      <trkpt lat="61.74877" lon="5.15048">
        <ele>74.169631</ele>
        <time>2020-07-28T14:57:11.267Z</time>
      </trkpt>
      <trkpt lat="61.74887" lon="5.15051">
        <ele>75.382903</ele>
        <time>2020-07-28T14:57:15.270Z</time>
      </trkpt>
      <trkpt lat="61.74898" lon="5.15054">
        <ele>76.759102</ele>
        <time>2020-07-28T14:57:19.270Z</time>
      </trkpt>
      <trkpt lat="61.74908" lon="5.15061">
        <ele>77.998709</ele>
        <time>2020-07-28T14:57:23.267Z</time>
      </trkpt>
      <trkpt lat="61.74918" lon="5.15066">
        <ele>79.164799</ele>
        <time>2020-07-28T14:57:27.239Z</time>
      </trkpt>
      <trkpt lat="61.74928" lon="5.15073">
        <ele>80.479429</ele>
        <time>2020-07-28T14:57:32.238Z</time>
      </trkpt>
      <trkpt lat="61.74938" lon="5.15076">
        <ele>81.613897</ele>
        <time>2020-07-28T14:57:36.260Z</time>
      </trkpt>
      <trkpt lat="61.74948" lon="5.15078">
        <ele>82.882425</ele>
        <time>2020-07-28T14:57:40.253Z</time>
      </trkpt>
      <trkpt lat="61.74959" lon="5.15084">
        <ele>84.224166</ele>
        <time>2020-07-28T14:57:44.237Z</time>
      </trkpt>
      <trkpt lat="61.74968" lon="5.15085">
        <ele>85.311399</ele>
        <time>2020-07-28T14:57:47.229Z</time>
      </trkpt>
      <trkpt lat="61.74978" lon="5.15089">
        <ele>86.544543</ele>
        <time>2020-07-28T14:57:50.241Z</time>
      </trkpt>
      <trkpt lat="61.74991" lon="5.15088">
        <ele>87.999594</ele>
        <time>2020-07-28T14:57:53.269Z</time>
      </trkpt>
      <trkpt lat="61.75" lon="5.15086">
        <ele>88.858285</ele>
        <time>2020-07-28T14:57:55.269Z</time>
      </trkpt>
      <trkpt lat="61.75009" lon="5.15084">
        <ele>88.697964</ele>
        <time>2020-07-28T14:57:57.229Z</time>
      </trkpt>
      <trkpt lat="61.75022" lon="5.15078">
        <ele>88.470728</ele>
        <time>2020-07-28T14:58:00.251Z</time>
      </trkpt>
      <trkpt lat="61.75032" lon="5.15073">
        <ele>88.301346</ele>
        <time>2020-07-28T14:58:02.241Z</time>
      </trkpt>
      <trkpt lat="61.75043" lon="5.1507">
        <ele>88.109548</ele>
        <time>2020-07-28T14:58:04.278Z</time>
      </trkpt>
      <trkpt lat="61.75054" lon="5.15066">
        <ele>87.928893</ele>
        <time>2020-07-28T14:58:06.219Z</time>
      </trkpt>
      <trkpt lat="61.75064" lon="5.15064">
        <ele>87.755285</ele>
        <time>2020-07-28T14:58:08.261Z</time>
      </trkpt>
      <trkpt lat="61.75076" lon="5.15059">
        <ele>87.545856</ele>
        <time>2020-07-28T14:58:11.230Z</time>
      </trkpt>
      <trkpt lat="61.75087" lon="5.1506">
        <ele>87.35099</ele>
        <time>2020-07-28T14:58:14.251Z</time>
      </trkpt>
      <trkpt lat="61.75098" lon="5.15064">
        <ele>87.169199</ele>
        <time>2020-07-28T14:58:17.221Z</time>
      </trkpt>
      <trkpt lat="61.75108" lon="5.15068">
        <ele>86.996632</ele>
        <time>2020-07-28T14:58:20.239Z</time>
      </trkpt>
      <trkpt lat="61.75118" lon="5.15069">
        <ele>86.816779</ele>
        <time>2020-07-28T14:58:24.240Z</time>
      </trkpt>
      <trkpt lat="61.75127" lon="5.15073">
        <ele>86.655482</ele>
        <time>2020-07-28T14:58:28.233Z</time>
      </trkpt>
      <trkpt lat="61.75136" lon="5.15078">
        <ele>86.497887</ele>
        <time>2020-07-28T14:58:32.241Z</time>
      </trkpt>
      <trkpt lat="61.75146" lon="5.15082">
        <ele>86.324995</ele>
        <time>2020-07-28T14:58:36.253Z</time>
      </trkpt>
      <trkpt lat="61.75157" lon="5.1508">
        <ele>86.136312</ele>
        <time>2020-07-28T14:58:42.252Z</time>
      </trkpt>
      <trkpt lat="61.75168" lon="5.15081">
        <ele>85.951564</ele>
        <time>2020-07-28T14:58:47.236Z</time>
      </trkpt>
      <trkpt lat="61.75178" lon="5.15082">
        <ele>85.83825</ele>
        <time>2020-07-28T14:58:53.250Z</time>
      </trkpt>
      <trkpt lat="61.75187" lon="5.15083">
        <ele>85.908302</ele>
        <time>2020-07-28T14:58:58.275Z</time>
      </trkpt>
      <trkpt lat="61.75198" lon="5.15084">
        <ele>85.989881</ele>
        <time>2020-07-28T14:59:04.283Z</time>
      </trkpt>
      <trkpt lat="61.75208" lon="5.15087">
        <ele>86.070275</ele>
        <time>2020-07-28T14:59:09.279Z</time>
      </trkpt>
      <trkpt lat="61.75218" lon="5.1509">
        <ele>86.150732</ele>
        <time>2020-07-28T14:59:13.233Z</time>
      </trkpt>
      <trkpt lat="61.75229" lon="5.15094">
        <ele>86.237224</ele>
        <time>2020-07-28T14:59:17.232Z</time>
      </trkpt>
      <trkpt lat="61.75238" lon="5.15101">
        <ele>86.312579</ele>
        <time>2020-07-28T14:59:20.233Z</time>
      </trkpt>
      <trkpt lat="61.7525" lon="5.15108">
        <ele>86.408996</ele>
        <time>2020-07-28T14:59:23.244Z</time>
      </trkpt>
      <trkpt lat="61.75259" lon="5.15117">
        <ele>86.485484</ele>
        <time>2020-07-28T14:59:25.241Z</time>
      </trkpt>
      <trkpt lat="61.7527" lon="5.15129">
        <ele>86.58029</ele>
        <time>2020-07-28T14:59:27.237Z</time>
      </trkpt>
      <trkpt lat="61.75281" lon="5.15143">
        <ele>86.680618</ele>
        <time>2020-07-28T14:59:29.235Z</time>
      </trkpt>
      <trkpt lat="61.75291" lon="5.1516">
        <ele>86.779405</ele>
        <time>2020-07-28T14:59:31.229Z</time>
      </trkpt>
      <trkpt lat="61.75302" lon="5.15181">
        <ele>86.891152</ele>
        <time>2020-07-28T14:59:33.219Z</time>
      </trkpt>
      <trkpt lat="61.75313" lon="5.15203">
        <ele>87.011907</ele>
        <time>2020-07-28T14:59:35.263Z</time>
      </trkpt>
      <trkpt lat="61.75325" lon="5.15225">
        <ele>87.1362</ele>
        <time>2020-07-28T14:59:37.234Z</time>
      </trkpt>
      <trkpt lat="61.75337" lon="5.15247">
        <ele>86.937627</ele>
        <time>2020-07-28T14:59:39.222Z</time>
      </trkpt>
      <trkpt lat="61.75349" lon="5.15269">
        <ele>86.174856</ele>
        <time>2020-07-28T14:59:41.280Z</time>
      </trkpt>
      <trkpt lat="61.75361" lon="5.1529">
        <ele>85.442934</ele>
        <time>2020-07-28T14:59:43.253Z</time>
      </trkpt>
      <trkpt lat="61.75371" lon="5.1531">
        <ele>84.763121</ele>
        <time>2020-07-28T14:59:45.250Z</time>
      </trkpt>
      <trkpt lat="61.7538" lon="5.1533">
        <ele>84.114252</ele>
        <time>2020-07-28T14:59:47.247Z</time>
      </trkpt>
      <trkpt lat="61.7539" lon="5.15349">
        <ele>83.481959</ele>
        <time>2020-07-28T14:59:49.221Z</time>
      </trkpt>
      <trkpt lat="61.75399" lon="5.15367">
        <ele>82.880767</ele>
        <time>2020-07-28T14:59:51.225Z</time>
      </trkpt>
      <trkpt lat="61.75408" lon="5.15384">
        <ele>82.298853</ele>
        <time>2020-07-28T14:59:53.248Z</time>
      </trkpt>
      <trkpt lat="61.75416" lon="5.154">
        <ele>81.782002</ele>
        <time>2020-07-28T14:59:55.222Z</time>
      </trkpt>
      <trkpt lat="61.75423" lon="5.15416">
        <ele>81.285105</ele>
        <time>2020-07-28T14:59:57.262Z</time>
      </trkpt>
      <trkpt lat="61.75429" lon="5.15434">
        <ele>80.766186</ele>
        <time>2020-07-28T14:59:59.255Z</time>
      </trkpt>
      <trkpt lat="61.75435" lon="5.15453">
        <ele>80.272782</ele>
        <time>2020-07-28T15:00:01.251Z</time>
      </trkpt>
      <trkpt lat="61.75441" lon="5.15473">
        <ele>79.732391</ele>
        <time>2020-07-28T15:00:03.225Z</time>
      </trkpt>
      <trkpt lat="61.75447" lon="5.15494">
        <ele>79.165025</ele>
        <time>2020-07-28T15:00:05.259Z</time>
      </trkpt>
      <trkpt lat="61.75453" lon="5.15518">
        <ele>78.553967</ele>
        <time>2020-07-28T15:00:07.230Z</time>
      </trkpt>
      <trkpt lat="61.75459" lon="5.15544">
        <ele>78.534919</ele>
        <time>2020-07-28T15:00:09.248Z</time>
      </trkpt>
      <trkpt lat="61.75466" lon="5.15574">
        <ele>78.513082</ele>
        <time>2020-07-28T15:00:11.239Z</time>
      </trkpt>
      <trkpt lat="61.75473" lon="5.15607">
        <ele>78.489042</ele>
        <time>2020-07-28T15:00:13.259Z</time>
      </trkpt>
      <trkpt lat="61.7548" lon="5.15641">
        <ele>78.464937</ele>
        <time>2020-07-28T15:00:15.230Z</time>
      </trkpt>
      <trkpt lat="61.75485" lon="5.15673">
        <ele>78.442332</ele>
        <time>2020-07-28T15:00:17.235Z</time>
      </trkpt>
      <trkpt lat="61.75491" lon="5.15705">
        <ele>78.420315</ele>
        <time>2020-07-28T15:00:19.277Z</time>
      </trkpt>
      <trkpt lat="61.75497" lon="5.15735">
        <ele>78.399145</ele>
        <time>2020-07-28T15:00:21.232Z</time>
      </trkpt>
      <trkpt lat="61.75503" lon="5.15762">
        <ele>78.379261</ele>
        <time>2020-07-28T15:00:23.254Z</time>
      </trkpt>
      <trkpt lat="61.75509" lon="5.15788">
        <ele>78.360022</ele>
        <time>2020-07-28T15:00:25.240Z</time>
      </trkpt>
      <trkpt lat="61.75516" lon="5.15812">
        <ele>78.341306</ele>
        <time>2020-07-28T15:00:27.244Z</time>
      </trkpt>
      <trkpt lat="61.75524" lon="5.15834">
        <ele>78.323385</ele>
        <time>2020-07-28T15:00:29.235Z</time>
      </trkpt>
      <trkpt lat="61.75532" lon="5.15852">
        <ele>78.306979</ele>
        <time>2020-07-28T15:00:31.229Z</time>
      </trkpt>
      <trkpt lat="61.7554" lon="5.15868">
        <ele>78.203054</ele>
        <time>2020-07-28T15:00:33.257Z</time>
      </trkpt>
      <trkpt lat="61.75549" lon="5.15882">
        <ele>78.082636</ele>
        <time>2020-07-28T15:00:35.239Z</time>
      </trkpt>
      <trkpt lat="61.75559" lon="5.15897">
        <ele>77.943626</ele>
        <time>2020-07-28T15:00:37.262Z</time>
      </trkpt>
      <trkpt lat="61.7557" lon="5.15913">
        <ele>77.804309</ele>
        <time>2020-07-28T15:00:39.228Z</time>
      </trkpt>
      <trkpt lat="61.75577" lon="5.15928">
        <ele>77.689198</ele>
        <time>2020-07-28T15:00:41.263Z</time>
      </trkpt>
      <trkpt lat="61.75586" lon="5.15943">
        <ele>77.56965</ele>
        <time>2020-07-28T15:00:43.234Z</time>
      </trkpt>
      <trkpt lat="61.75596" lon="5.1596">
        <ele>77.421248</ele>
        <time>2020-07-28T15:00:45.239Z</time>
      </trkpt>
      <trkpt lat="61.75608" lon="5.1598">
        <ele>77.258324</ele>
        <time>2020-07-28T15:00:47.240Z</time>
      </trkpt>
      <trkpt lat="61.75618" lon="5.16">
        <ele>77.103762</ele>
        <time>2020-07-28T15:00:49.238Z</time>
      </trkpt>
      <trkpt lat="61.75629" lon="5.16022">
        <ele>76.941604</ele>
        <time>2020-07-28T15:00:51.249Z</time>
      </trkpt>
      <trkpt lat="61.75636" lon="5.16035">
        <ele>76.841274</ele>
        <time>2020-07-28T15:00:52.268Z</time>
      </trkpt>
      <trkpt lat="61.75643" lon="5.16048">
        <ele>76.733479</ele>
        <time>2020-07-28T15:00:53.264Z</time>
      </trkpt>
      <trkpt lat="61.75652" lon="5.16064">
        <ele>76.601875</ele>
        <time>2020-07-28T15:00:54.251Z</time>
      </trkpt>
      <trkpt lat="61.75662" lon="5.16082">
        <ele>76.464771</ele>
        <time>2020-07-28T15:00:55.242Z</time>
      </trkpt>
      <trkpt lat="61.7567" lon="5.16097">
        <ele>76.342879</ele>
        <time>2020-07-28T15:00:56.271Z</time>
      </trkpt>
      <trkpt lat="61.75679" lon="5.16112">
        <ele>76.044565</ele>
        <time>2020-07-28T15:00:57.243Z</time>
      </trkpt>
      <trkpt lat="61.75687" lon="5.16126">
        <ele>75.742308</ele>
        <time>2020-07-28T15:00:58.231Z</time>
      </trkpt>
      <trkpt lat="61.75695" lon="5.1614">
        <ele>75.443624</ele>
        <time>2020-07-28T15:00:59.271Z</time>
      </trkpt>
      <trkpt lat="61.75703" lon="5.16154">
        <ele>75.144431</ele>
        <time>2020-07-28T15:01:00.268Z</time>
      </trkpt>
      <trkpt lat="61.75712" lon="5.16168">
        <ele>74.838785</ele>
        <time>2020-07-28T15:01:01.252Z</time>
      </trkpt>
      <trkpt lat="61.75719" lon="5.16181">
        <ele>74.574438</ele>
        <time>2020-07-28T15:01:02.235Z</time>
      </trkpt>
      <trkpt lat="61.75731" lon="5.16206">
        <ele>74.095204</ele>
        <time>2020-07-28T15:01:04.233Z</time>
      </trkpt>
      <trkpt lat="61.75742" lon="5.16228">
        <ele>73.662723</ele>
        <time>2020-07-28T15:01:06.267Z</time>
      </trkpt>
      <trkpt lat="61.7575" lon="5.16246">
        <ele>73.326156</ele>
        <time>2020-07-28T15:01:08.252Z</time>
      </trkpt>
      <trkpt lat="61.7576" lon="5.16261">
        <ele>72.983329</ele>
        <time>2020-07-28T15:01:11.265Z</time>
      </trkpt>
      <trkpt lat="61.75768" lon="5.16276">
        <ele>72.674121</ele>
        <time>2020-07-28T15:01:15.237Z</time>
      </trkpt>
      <trkpt lat="61.75774" lon="5.1629">
        <ele>72.415874</ele>
        <time>2020-07-28T15:01:19.232Z</time>
      </trkpt>
      <trkpt lat="61.75782" lon="5.16305">
        <ele>72.105429</ele>
        <time>2020-07-28T15:01:24.232Z</time>
      </trkpt>
      <trkpt lat="61.75791" lon="5.1632">
        <ele>71.804546</ele>
        <time>2020-07-28T15:01:29.251Z</time>
      </trkpt>
      <trkpt lat="61.75797" lon="5.16335">
        <ele>71.523718</ele>
        <time>2020-07-28T15:01:34.270Z</time>
      </trkpt>
      <trkpt lat="61.75805" lon="5.16351">
        <ele>71.219444</ele>
        <time>2020-07-28T15:01:39.243Z</time>
      </trkpt>
      <trkpt lat="61.75811" lon="5.1637">
        <ele>71.28522</ele>
        <time>2020-07-28T15:01:44.241Z</time>
      </trkpt>
      <trkpt lat="61.75817" lon="5.16388">
        <ele>71.366813</ele>
        <time>2020-07-28T15:01:49.244Z</time>
      </trkpt>
      <trkpt lat="61.75824" lon="5.16406">
        <ele>71.447486</ele>
        <time>2020-07-28T15:01:53.256Z</time>
      </trkpt>
      <trkpt lat="61.7583" lon="5.16421">
        <ele>71.515309</ele>
        <time>2020-07-28T15:01:56.243Z</time>
      </trkpt>
      <trkpt lat="61.75835" lon="5.1644">
        <ele>71.592917</ele>
        <time>2020-07-28T15:01:59.272Z</time>
      </trkpt>
      <trkpt lat="61.75843" lon="5.16464">
        <ele>71.697109</ele>
        <time>2020-07-28T15:02:02.267Z</time>
      </trkpt>
      <trkpt lat="61.7585" lon="5.16483">
        <ele>71.781654</ele>
        <time>2020-07-28T15:02:04.229Z</time>
      </trkpt>
      <trkpt lat="61.75857" lon="5.16505">
        <ele>71.875461</ele>
        <time>2020-07-28T15:02:06.260Z</time>
      </trkpt>
      <trkpt lat="61.75864" lon="5.16527">
        <ele>71.968961</ele>
        <time>2020-07-28T15:02:08.233Z</time>
      </trkpt>
      <trkpt lat="61.75872" lon="5.16549">
        <ele>72.067084</ele>
        <time>2020-07-28T15:02:10.238Z</time>
      </trkpt>
      <trkpt lat="61.7588" lon="5.16571">
        <ele>72.163789</ele>
        <time>2020-07-28T15:02:12.238Z</time>
      </trkpt>
      <trkpt lat="61.75887" lon="5.16591">
        <ele>72.253902</ele>
        <time>2020-07-28T15:02:14.241Z</time>
      </trkpt>
      <trkpt lat="61.75893" lon="5.1661">
        <ele>72.335858</ele>
        <time>2020-07-28T15:02:16.243Z</time>
      </trkpt>
      <trkpt lat="61.75899" lon="5.16629">
        <ele>72.417371</ele>
        <time>2020-07-28T15:02:18.233Z</time>
      </trkpt>
      <trkpt lat="61.75905" lon="5.16645">
        <ele>72.486219</ele>
        <time>2020-07-28T15:02:20.271Z</time>
      </trkpt>
      <trkpt lat="61.7591" lon="5.16666">
        <ele>72.594456</ele>
        <time>2020-07-28T15:02:23.248Z</time>
      </trkpt>
      <trkpt lat="61.75914" lon="5.16684">
        <ele>72.761189</ele>
        <time>2020-07-28T15:02:27.289Z</time>
      </trkpt>
      <trkpt lat="61.75921" lon="5.16702">
        <ele>72.946537</ele>
        <time>2020-07-28T15:02:33.247Z</time>
      </trkpt>
      <trkpt lat="61.75926" lon="5.1672">
        <ele>73.119261</ele>
        <time>2020-07-28T15:02:39.286Z</time>
      </trkpt>
      <trkpt lat="61.75932" lon="5.16737">
        <ele>73.289043</ele>
        <time>2020-07-28T15:02:46.234Z</time>
      </trkpt>
      <trkpt lat="61.75937" lon="5.16756">
        <ele>73.46689</ele>
        <time>2020-07-28T15:02:53.236Z</time>
      </trkpt>
      <trkpt lat="61.75941" lon="5.16776">
        <ele>73.645316</ele>
        <time>2020-07-28T15:03:00.245Z</time>
      </trkpt>
      <trkpt lat="61.75942" lon="5.16795">
        <ele>73.801273</ele>
        <time>2020-07-28T15:03:05.243Z</time>
      </trkpt>
      <trkpt lat="61.75941" lon="5.16817">
        <ele>73.986916</ele>
        <time>2020-07-28T15:03:11.235Z</time>
      </trkpt>
      <trkpt lat="61.75938" lon="5.16837">
        <ele>74.152532</ele>
        <time>2020-07-28T15:03:16.235Z</time>
      </trkpt>
      <trkpt lat="61.75936" lon="5.16857">
        <ele>74.32549</ele>
        <time>2020-07-28T15:03:21.237Z</time>
      </trkpt>
      <trkpt lat="61.75931" lon="5.16875">
        <ele>74.489901</ele>
        <time>2020-07-28T15:03:25.259Z</time>
      </trkpt>
      <trkpt lat="61.75924" lon="5.16893">
        <ele>74.68009</ele>
        <time>2020-07-28T15:03:29.236Z</time>
      </trkpt>
      <trkpt lat="61.75917" lon="5.16907">
        <ele>74.851453</ele>
        <time>2020-07-28T15:03:32.278Z</time>
      </trkpt>
      <trkpt lat="61.75906" lon="5.16919">
        <ele>75.059977</ele>
        <time>2020-07-28T15:03:35.230Z</time>
      </trkpt>
      <trkpt lat="61.75894" lon="5.1693">
        <ele>75.300397</ele>
        <time>2020-07-28T15:03:38.256Z</time>
      </trkpt>
      <trkpt lat="61.75881" lon="5.16936">
        <ele>75.51889</ele>
        <time>2020-07-28T15:03:40.238Z</time>
      </trkpt>
      <trkpt lat="61.75867" lon="5.16942">
        <ele>75.306953</ele>
        <time>2020-07-28T15:03:42.241Z</time>
      </trkpt>
      <trkpt lat="61.7585" lon="5.16949">
        <ele>74.345706</ele>
        <time>2020-07-28T15:03:44.232Z</time>
      </trkpt>
      <trkpt lat="61.75841" lon="5.16956">
        <ele>73.799239</ele>
        <time>2020-07-28T15:03:45.231Z</time>
      </trkpt>
      <trkpt lat="61.75831" lon="5.16966">
        <ele>73.201346</ele>
        <time>2020-07-28T15:03:46.240Z</time>
      </trkpt>
      <trkpt lat="61.75822" lon="5.16979">
        <ele>72.576119</ele>
        <time>2020-07-28T15:03:47.238Z</time>
      </trkpt>
      <trkpt lat="61.75813" lon="5.16994">
        <ele>71.93148</ele>
        <time>2020-07-28T15:03:48.241Z</time>
      </trkpt>
      <trkpt lat="61.75805" lon="5.17012">
        <ele>71.278882</ele>
        <time>2020-07-28T15:03:49.240Z</time>
      </trkpt>
      <trkpt lat="61.75799" lon="5.17031">
        <ele>70.664611</ele>
        <time>2020-07-28T15:03:50.254Z</time>
      </trkpt>
      <trkpt lat="61.75795" lon="5.17051">
        <ele>70.079012</ele>
        <time>2020-07-28T15:03:51.243Z</time>
      </trkpt>
      <trkpt lat="61.75792" lon="5.17071">
        <ele>69.512502</ele>
        <time>2020-07-28T15:03:52.264Z</time>
      </trkpt>
      <trkpt lat="61.75789" lon="5.1709">
        <ele>68.988478</ele>
        <time>2020-07-28T15:03:53.249Z</time>
      </trkpt>
      <trkpt lat="61.75789" lon="5.17127">
        <ele>68.012555</ele>
        <time>2020-07-28T15:03:55.239Z</time>
      </trkpt>
      <trkpt lat="61.7579" lon="5.17162">
        <ele>67.068276</ele>
        <time>2020-07-28T15:03:57.239Z</time>
      </trkpt>
      <trkpt lat="61.7579" lon="5.17196">
        <ele>66.172515</ele>
        <time>2020-07-28T15:03:59.242Z</time>
      </trkpt>
      <trkpt lat="61.7579" lon="5.17228">
        <ele>65.489008</ele>
        <time>2020-07-28T15:04:01.256Z</time>
      </trkpt>
      <trkpt lat="61.7579" lon="5.1726">
        <ele>65.322669</ele>
        <time>2020-07-28T15:04:03.242Z</time>
      </trkpt>
      <trkpt lat="61.75791" lon="5.1729">
        <ele>65.16448</ele>
        <time>2020-07-28T15:04:05.276Z</time>
      </trkpt>
      <trkpt lat="61.75793" lon="5.17319">
        <ele>65.011282</ele>
        <time>2020-07-28T15:04:07.263Z</time>
      </trkpt>
      <trkpt lat="61.75794" lon="5.17346">
        <ele>64.869803</ele>
        <time>2020-07-28T15:04:09.270Z</time>
      </trkpt>
      <trkpt lat="61.75796" lon="5.17369">
        <ele>64.745033</ele>
        <time>2020-07-28T15:04:11.233Z</time>
      </trkpt>
      <trkpt lat="61.75797" lon="5.17389">
        <ele>64.640426</ele>
        <time>2020-07-28T15:04:13.241Z</time>
      </trkpt>
      <trkpt lat="61.75798" lon="5.17415">
        <ele>64.502308</ele>
        <time>2020-07-28T15:04:16.262Z</time>
      </trkpt>
      <trkpt lat="61.75799" lon="5.17439">
        <ele>64.375675</ele>
        <time>2020-07-28T15:04:19.225Z</time>
      </trkpt>
      <trkpt lat="61.75801" lon="5.17461">
        <ele>64.260516</ele>
        <time>2020-07-28T15:04:22.268Z</time>
      </trkpt>
      <trkpt lat="61.75802" lon="5.1748">
        <ele>64.160077</ele>
        <time>2020-07-28T15:04:25.275Z</time>
      </trkpt>
      <trkpt lat="61.75804" lon="5.17502">
        <ele>64.043638</ele>
        <time>2020-07-28T15:04:29.287Z</time>
      </trkpt>
      <trkpt lat="61.75808" lon="5.17523">
        <ele>63.924875</ele>
        <time>2020-07-28T15:04:33.238Z</time>
      </trkpt>
      <trkpt lat="61.7581" lon="5.17541">
        <ele>63.824605</ele>
        <time>2020-07-28T15:04:37.235Z</time>
      </trkpt>
      <trkpt lat="61.75813" lon="5.17561">
        <ele>63.717352</ele>
        <time>2020-07-28T15:04:41.278Z</time>
      </trkpt>
      <trkpt lat="61.75816" lon="5.17583">
        <ele>63.596713</ele>
        <time>2020-07-28T15:04:46.253Z</time>
      </trkpt>
      <trkpt lat="61.7582" lon="5.17602">
        <ele>63.731607</ele>
        <time>2020-07-28T15:04:50.252Z</time>
      </trkpt>
      <trkpt lat="61.75824" lon="5.17623">
        <ele>64.176869</ele>
        <time>2020-07-28T15:04:55.244Z</time>
      </trkpt>
      <trkpt lat="61.75828" lon="5.17641">
        <ele>64.586206</ele>
        <time>2020-07-28T15:05:00.269Z</time>
      </trkpt>
      <trkpt lat="61.75832" lon="5.17662">
        <ele>65.036417</ele>
        <time>2020-07-28T15:05:05.250Z</time>
      </trkpt>
      <trkpt lat="61.75837" lon="5.17682">
        <ele>65.496738</ele>
        <time>2020-07-28T15:05:10.238Z</time>
      </trkpt>
      <trkpt lat="61.75842" lon="5.177">
        <ele>65.891595</ele>
        <time>2020-07-28T15:05:14.248Z</time>
      </trkpt>
      <trkpt lat="61.75847" lon="5.1772">
        <ele>66.353765</ele>
        <time>2020-07-28T15:05:19.276Z</time>
      </trkpt>
      <trkpt lat="61.75852" lon="5.17738">
        <ele>66.75764</ele>
        <time>2020-07-28T15:05:23.236Z</time>
      </trkpt>
      <trkpt lat="61.75856" lon="5.17755">
        <ele>67.136772</ele>
        <time>2020-07-28T15:05:27.242Z</time>
      </trkpt>
      <trkpt lat="61.7586" lon="5.17774">
        <ele>67.567615</ele>
        <time>2020-07-28T15:05:31.296Z</time>
      </trkpt>
      <trkpt lat="61.75866" lon="5.17796">
        <ele>68.060267</ele>
        <time>2020-07-28T15:05:35.257Z</time>
      </trkpt>
      <trkpt lat="61.75872" lon="5.17813">
        <ele>68.479993</ele>
        <time>2020-07-28T15:05:38.237Z</time>
      </trkpt>
      <trkpt lat="61.75877" lon="5.1783">
        <ele>68.891539</ele>
        <time>2020-07-28T15:05:41.235Z</time>
      </trkpt>
      <trkpt lat="61.75882" lon="5.17848">
        <ele>69.2949</ele>
        <time>2020-07-28T15:05:44.231Z</time>
      </trkpt>
      <trkpt lat="61.75889" lon="5.17868">
        <ele>69.791892</ele>
        <time>2020-07-28T15:05:47.233Z</time>
      </trkpt>
      <trkpt lat="61.75897" lon="5.1789">
        <ele>70.338488</ele>
        <time>2020-07-28T15:05:50.284Z</time>
      </trkpt>
      <trkpt lat="61.75902" lon="5.17907">
        <ele>70.751767</ele>
        <time>2020-07-28T15:05:52.227Z</time>
      </trkpt>
      <trkpt lat="61.75908" lon="5.17927">
        <ele>71.056275</ele>
        <time>2020-07-28T15:05:54.231Z</time>
      </trkpt>
      <trkpt lat="61.75916" lon="5.17951">
        <ele>70.73133</ele>
        <time>2020-07-28T15:05:56.250Z</time>
      </trkpt>
      <trkpt lat="61.75925" lon="5.17977">
        <ele>70.378902</ele>
        <time>2020-07-28T15:05:58.249Z</time>
      </trkpt>
      <trkpt lat="61.75933" lon="5.18004">
        <ele>70.016579</ele>
        <time>2020-07-28T15:06:00.236Z</time>
      </trkpt>
      <trkpt lat="61.75941" lon="5.18031">
        <ele>69.652962</ele>
        <time>2020-07-28T15:06:02.253Z</time>
      </trkpt>
      <trkpt lat="61.75949" lon="5.18057">
        <ele>69.304586</ele>
        <time>2020-07-28T15:06:04.230Z</time>
      </trkpt>
      <trkpt lat="61.75955" lon="5.18081">
        <ele>69.000921</ele>
        <time>2020-07-28T15:06:06.230Z</time>
      </trkpt>
      <trkpt lat="61.75961" lon="5.18101">
        <ele>68.745392</ele>
        <time>2020-07-28T15:06:08.257Z</time>
      </trkpt>
      <trkpt lat="61.75966" lon="5.18122">
        <ele>68.473448</ele>
        <time>2020-07-28T15:06:11.247Z</time>
      </trkpt>
      <trkpt lat="61.75969" lon="5.1814">
        <ele>68.253081</ele>
        <time>2020-07-28T15:06:14.241Z</time>
      </trkpt>
      <trkpt lat="61.75972" lon="5.18161">
        <ele>68.015524</ele>
        <time>2020-07-28T15:06:17.256Z</time>
      </trkpt>
      <trkpt lat="61.75972" lon="5.18184">
        <ele>67.759349</ele>
        <time>2020-07-28T15:06:20.223Z</time>
      </trkpt>
      <trkpt lat="61.7597" lon="5.18208">
        <ele>67.483648</ele>
        <time>2020-07-28T15:06:23.229Z</time>
      </trkpt>
      <trkpt lat="61.75967" lon="5.18233">
        <ele>67.193423</ele>
        <time>2020-07-28T15:06:26.261Z</time>
      </trkpt>
      <trkpt lat="61.75959" lon="5.18256">
        <ele>66.875341</ele>
        <time>2020-07-28T15:06:29.240Z</time>
      </trkpt>
      <trkpt lat="61.75951" lon="5.18272">
        <ele>66.868423</ele>
        <time>2020-07-28T15:06:31.241Z</time>
      </trkpt>
      <trkpt lat="61.75941" lon="5.18285">
        <ele>66.886849</ele>
        <time>2020-07-28T15:06:33.242Z</time>
      </trkpt>
      <trkpt lat="61.75928" lon="5.18293">
        <ele>66.907841</ele>
        <time>2020-07-28T15:06:35.241Z</time>
      </trkpt>
      <trkpt lat="61.75914" lon="5.18299">
        <ele>66.930302</ele>
        <time>2020-07-28T15:06:37.260Z</time>
      </trkpt>
      <trkpt lat="61.759" lon="5.18309">
        <ele>66.953972</ele>
        <time>2020-07-28T15:06:39.235Z</time>
      </trkpt>
      <trkpt lat="61.75886" lon="5.18327">
        <ele>66.979251</ele>
        <time>2020-07-28T15:06:41.220Z</time>
      </trkpt>
      <trkpt lat="61.7588" lon="5.18341">
        <ele>66.993447</ele>
        <time>2020-07-28T15:06:42.223Z</time>
      </trkpt>
      <trkpt lat="61.75875" lon="5.18357">
        <ele>67.008208</ele>
        <time>2020-07-28T15:06:43.235Z</time>
      </trkpt>
      <trkpt lat="61.7587" lon="5.18374">
        <ele>67.02288</ele>
        <time>2020-07-28T15:06:44.249Z</time>
      </trkpt>
      <trkpt lat="61.75867" lon="5.18393">
        <ele>67.037254</ele>
        <time>2020-07-28T15:06:45.233Z</time>
      </trkpt>
      <trkpt lat="61.75865" lon="5.18411">
        <ele>67.051414</ele>
        <time>2020-07-28T15:06:46.221Z</time>
      </trkpt>
      <trkpt lat="61.75865" lon="5.18447">
        <ele>67.078141</ele>
        <time>2020-07-28T15:06:48.234Z</time>
      </trkpt>
      <trkpt lat="61.75869" lon="5.18476">
        <ele>67.100195</ele>
        <time>2020-07-28T15:06:50.263Z</time>
      </trkpt>
      <trkpt lat="61.75876" lon="5.18499">
        <ele>67.120128</ele>
        <time>2020-07-28T15:06:52.297Z</time>
      </trkpt>
      <trkpt lat="61.75884" lon="5.18514">
        <ele>67.135363</ele>
        <time>2020-07-28T15:06:54.227Z</time>
      </trkpt>
      <trkpt lat="61.75893" lon="5.18531">
        <ele>67.142827</ele>
        <time>2020-07-28T15:06:57.229Z</time>
      </trkpt>
      <trkpt lat="61.759" lon="5.18545">
        <ele>67.148768</ele>
        <time>2020-07-28T15:07:00.295Z</time>
      </trkpt>
      <trkpt lat="61.75909" lon="5.18559">
        <ele>67.155621</ele>
        <time>2020-07-28T15:07:04.251Z</time>
      </trkpt>
      <trkpt lat="61.75918" lon="5.18574">
        <ele>67.162298</ele>
        <time>2020-07-28T15:07:08.270Z</time>
      </trkpt>
      <trkpt lat="61.75925" lon="5.18592">
        <ele>67.169206</ele>
        <time>2020-07-28T15:07:12.240Z</time>
      </trkpt>
      <trkpt lat="61.75933" lon="5.18612">
        <ele>67.176527</ele>
        <time>2020-07-28T15:07:16.239Z</time>
      </trkpt>
      <trkpt lat="61.7594" lon="5.18628">
        <ele>67.182826</ele>
        <time>2020-07-28T15:07:19.256Z</time>
      </trkpt>
      <trkpt lat="61.75946" lon="5.18644">
        <ele>67.188983</ele>
        <time>2020-07-28T15:07:22.275Z</time>
      </trkpt>
      <trkpt lat="61.75952" lon="5.1866">
        <ele>67.194692</ele>
        <time>2020-07-28T15:07:25.241Z</time>
      </trkpt>
      <trkpt lat="61.75959" lon="5.18678">
        <ele>67.201198</ele>
        <time>2020-07-28T15:07:28.245Z</time>
      </trkpt>
      <trkpt lat="61.75963" lon="5.18697">
        <ele>67.207481</ele>
        <time>2020-07-28T15:07:31.288Z</time>
      </trkpt>
      <trkpt lat="61.75969" lon="5.1872">
        <ele>67.214822</ele>
        <time>2020-07-28T15:07:34.236Z</time>
      </trkpt>
      <trkpt lat="61.75972" lon="5.18744">
        <ele>67.222002</ele>
        <time>2020-07-28T15:07:37.234Z</time>
      </trkpt>
      <trkpt lat="61.75975" lon="5.1877">
        <ele>67.229808</ele>
        <time>2020-07-28T15:07:40.278Z</time>
      </trkpt>
      <trkpt lat="61.75977" lon="5.18794">
        <ele>67.236673</ele>
        <time>2020-07-28T15:07:42.251Z</time>
      </trkpt>
      <trkpt lat="61.75976" lon="5.1882">
        <ele>67.24902</ele>
        <time>2020-07-28T15:07:44.260Z</time>
      </trkpt>
      <trkpt lat="61.75974" lon="5.18849">
        <ele>67.344752</ele>
        <time>2020-07-28T15:07:46.242Z</time>
      </trkpt>
      <trkpt lat="61.7597" lon="5.1888">
        <ele>67.452086</ele>
        <time>2020-07-28T15:07:48.255Z</time>
      </trkpt>
      <trkpt lat="61.75965" lon="5.18911">
        <ele>67.562762</ele>
        <time>2020-07-28T15:07:50.286Z</time>
      </trkpt>
      <trkpt lat="61.7596" lon="5.18944">
        <ele>67.679093</ele>
        <time>2020-07-28T15:07:52.233Z</time>
      </trkpt>
      <trkpt lat="61.75955" lon="5.18975">
        <ele>67.790244</ele>
        <time>2020-07-28T15:07:54.236Z</time>
      </trkpt>
      <trkpt lat="61.7595" lon="5.19004">
        <ele>67.894675</ele>
        <time>2020-07-28T15:07:56.247Z</time>
      </trkpt>
      <trkpt lat="61.75945" lon="5.19029">
        <ele>67.984365</ele>
        <time>2020-07-28T15:07:58.267Z</time>
      </trkpt>
      <trkpt lat="61.75941" lon="5.19049">
        <ele>68.057462</ele>
        <time>2020-07-28T15:08:00.242Z</time>
      </trkpt>
      <trkpt lat="61.75937" lon="5.19075">
        <ele>68.149462</ele>
        <time>2020-07-28T15:08:03.268Z</time>
      </trkpt>
      <trkpt lat="61.75932" lon="5.19096">
        <ele>68.226858</ele>
        <time>2020-07-28T15:08:06.270Z</time>
      </trkpt>
      <trkpt lat="61.75928" lon="5.19114">
        <ele>68.293629</ele>
        <time>2020-07-28T15:08:09.253Z</time>
      </trkpt>
      <trkpt lat="61.75925" lon="5.19139">
        <ele>68.379651</ele>
        <time>2020-07-28T15:08:13.267Z</time>
      </trkpt>
      <trkpt lat="61.75921" lon="5.19159">
        <ele>68.453753</ele>
        <time>2020-07-28T15:08:16.273Z</time>
      </trkpt>
      <trkpt lat="61.75916" lon="5.1918">
        <ele>68.412322</ele>
        <time>2020-07-28T15:08:19.275Z</time>
      </trkpt>
      <trkpt lat="61.75912" lon="5.19203">
        <ele>67.724102</ele>
        <time>2020-07-28T15:08:22.231Z</time>
      </trkpt>
      <trkpt lat="61.75907" lon="5.1922">
        <ele>67.170882</ele>
        <time>2020-07-28T15:08:24.247Z</time>
      </trkpt>
      <trkpt lat="61.75902" lon="5.19241">
        <ele>66.531305</ele>
        <time>2020-07-28T15:08:26.241Z</time>
      </trkpt>
      <trkpt lat="61.75896" lon="5.19264">
        <ele>65.774877</ele>
        <time>2020-07-28T15:08:28.244Z</time>
      </trkpt>
      <trkpt lat="61.75888" lon="5.19291">
        <ele>64.882695</ele>
        <time>2020-07-28T15:08:30.237Z</time>
      </trkpt>
      <trkpt lat="61.75879" lon="5.19317">
        <ele>63.972106</ele>
        <time>2020-07-28T15:08:32.247Z</time>
      </trkpt>
      <trkpt lat="61.75871" lon="5.19347">
        <ele>63.011745</ele>
        <time>2020-07-28T15:08:34.262Z</time>
      </trkpt>
      <trkpt lat="61.75862" lon="5.19376">
        <ele>62.036399</ele>
        <time>2020-07-28T15:08:36.247Z</time>
      </trkpt>
      <trkpt lat="61.75853" lon="5.19404">
        <ele>61.118599</ele>
        <time>2020-07-28T15:08:38.251Z</time>
      </trkpt>
      <trkpt lat="61.75846" lon="5.19428">
        <ele>60.322112</ele>
        <time>2020-07-28T15:08:40.274Z</time>
      </trkpt>
      <trkpt lat="61.7584" lon="5.19449">
        <ele>59.630038</ele>
        <time>2020-07-28T15:08:42.251Z</time>
      </trkpt>
      <trkpt lat="61.75835" lon="5.19466">
        <ele>59.038288</ele>
        <time>2020-07-28T15:08:44.252Z</time>
      </trkpt>
      <trkpt lat="61.75827" lon="5.19488">
        <ele>58.275061</ele>
        <time>2020-07-28T15:08:47.255Z</time>
      </trkpt>
      <trkpt lat="61.75819" lon="5.19509">
        <ele>57.868826</ele>
        <time>2020-07-28T15:08:50.252Z</time>
      </trkpt>
      <trkpt lat="61.75812" lon="5.19531">
        <ele>57.899892</ele>
        <time>2020-07-28T15:08:53.244Z</time>
      </trkpt>
      <trkpt lat="61.75805" lon="5.19556">
        <ele>57.932625</ele>
        <time>2020-07-28T15:08:56.271Z</time>
      </trkpt>
      <trkpt lat="61.75801" lon="5.19574">
        <ele>57.955712</ele>
        <time>2020-07-28T15:08:58.239Z</time>
      </trkpt>
      <trkpt lat="61.75796" lon="5.19592">
        <ele>57.979748</ele>
        <time>2020-07-28T15:09:00.260Z</time>
      </trkpt>
      <trkpt lat="61.75791" lon="5.19611">
        <ele>58.004388</ele>
        <time>2020-07-28T15:09:02.258Z</time>
      </trkpt>
      <trkpt lat="61.75786" lon="5.19632">
        <ele>58.031112</ele>
        <time>2020-07-28T15:09:04.265Z</time>
      </trkpt>
      <trkpt lat="61.75781" lon="5.19655">
        <ele>58.059963</ele>
        <time>2020-07-28T15:09:06.240Z</time>
      </trkpt>
      <trkpt lat="61.75776" lon="5.19679">
        <ele>58.090287</ele>
        <time>2020-07-28T15:09:08.265Z</time>
      </trkpt>
      <trkpt lat="61.75771" lon="5.19705">
        <ele>58.122393</ele>
        <time>2020-07-28T15:09:10.242Z</time>
      </trkpt>
      <trkpt lat="61.75767" lon="5.19732">
        <ele>58.155017</ele>
        <time>2020-07-28T15:09:12.250Z</time>
      </trkpt>
      <trkpt lat="61.75763" lon="5.19759">
        <ele>58.187242</ele>
        <time>2020-07-28T15:09:14.247Z</time>
      </trkpt>
      <trkpt lat="61.7576" lon="5.19785">
        <ele>58.218027</ele>
        <time>2020-07-28T15:09:16.231Z</time>
      </trkpt>
      <trkpt lat="61.75757" lon="5.1981">
        <ele>58.247311</ele>
        <time>2020-07-28T15:09:18.302Z</time>
      </trkpt>
      <trkpt lat="61.75754" lon="5.19833">
        <ele>58.274197</ele>
        <time>2020-07-28T15:09:20.253Z</time>
      </trkpt>
      <trkpt lat="61.75752" lon="5.19855">
        <ele>58.366848</ele>
        <time>2020-07-28T15:09:22.252Z</time>
      </trkpt>
      <trkpt lat="61.7575" lon="5.19876">
        <ele>58.571923</ele>
        <time>2020-07-28T15:09:24.264Z</time>
      </trkpt>
      <trkpt lat="61.75748" lon="5.19897">
        <ele>58.779356</ele>
        <time>2020-07-28T15:09:26.244Z</time>
      </trkpt>
      <trkpt lat="61.75745" lon="5.19917">
        <ele>58.988263</ele>
        <time>2020-07-28T15:09:28.240Z</time>
      </trkpt>
      <trkpt lat="61.75742" lon="5.19939">
        <ele>59.205126</ele>
        <time>2020-07-28T15:09:30.287Z</time>
      </trkpt>
      <trkpt lat="61.75739" lon="5.19962">
        <ele>59.432353</ele>
        <time>2020-07-28T15:09:32.247Z</time>
      </trkpt>
      <trkpt lat="61.75736" lon="5.19986">
        <ele>59.673881</ele>
        <time>2020-07-28T15:09:34.253Z</time>
      </trkpt>
      <trkpt lat="61.75733" lon="5.20011">
        <ele>59.917272</ele>
        <time>2020-07-28T15:09:36.233Z</time>
      </trkpt>
      <trkpt lat="61.75731" lon="5.20034">
        <ele>60.148488</ele>
        <time>2020-07-28T15:09:38.218Z</time>
      </trkpt>
      <trkpt lat="61.75728" lon="5.20057">
        <ele>60.369874</ele>
        <time>2020-07-28T15:09:40.240Z</time>
      </trkpt>
      <trkpt lat="61.75726" lon="5.20076">
        <ele>60.55812</ele>
        <time>2020-07-28T15:09:42.281Z</time>
      </trkpt>
      <trkpt lat="61.75724" lon="5.201">
        <ele>60.799286</ele>
        <time>2020-07-28T15:09:45.233Z</time>
      </trkpt>
      <trkpt lat="61.75724" lon="5.20122">
        <ele>61.009303</ele>
        <time>2020-07-28T15:09:48.258Z</time>
      </trkpt>
      <trkpt lat="61.75724" lon="5.20143">
        <ele>61.20455</ele>
        <time>2020-07-28T15:09:51.270Z</time>
      </trkpt>
      <trkpt lat="61.75725" lon="5.20167">
        <ele>61.440097</ele>
        <time>2020-07-28T15:09:55.239Z</time>
      </trkpt>
      <trkpt lat="61.75726" lon="5.20191">
        <ele>61.677691</ele>
        <time>2020-07-28T15:09:59.250Z</time>
      </trkpt>
      <trkpt lat="61.75727" lon="5.20215">
        <ele>61.90636</ele>
        <time>2020-07-28T15:10:03.260Z</time>
      </trkpt>
      <trkpt lat="61.75728" lon="5.20238">
        <ele>62.484411</ele>
        <time>2020-07-28T15:10:07.252Z</time>
      </trkpt>
      <trkpt lat="61.7573" lon="5.20259">
        <ele>63.109544</ele>
        <time>2020-07-28T15:10:11.242Z</time>
      </trkpt>
      <trkpt lat="61.75731" lon="5.2028">
        <ele>63.69979</ele>
        <time>2020-07-28T15:10:15.251Z</time>
      </trkpt>
      <trkpt lat="61.75733" lon="5.203">
        <ele>64.29311</ele>
        <time>2020-07-28T15:10:19.260Z</time>
      </trkpt>
      <trkpt lat="61.75735" lon="5.20318">
        <ele>64.842641</ele>
        <time>2020-07-28T15:10:23.255Z</time>
      </trkpt>
      <trkpt lat="61.75738" lon="5.20341">
        <ele>65.524026</ele>
        <time>2020-07-28T15:10:28.265Z</time>
      </trkpt>
      <trkpt lat="61.75742" lon="5.20361">
        <ele>66.157232</ele>
        <time>2020-07-28T15:10:33.271Z</time>
      </trkpt>
      <trkpt lat="61.75744" lon="5.20382">
        <ele>66.784145</ele>
        <time>2020-07-28T15:10:38.262Z</time>
      </trkpt>
      <trkpt lat="61.75748" lon="5.204">
        <ele>67.338801</ele>
        <time>2020-07-28T15:10:42.266Z</time>
      </trkpt>
      <trkpt lat="61.75752" lon="5.20418">
        <ele>67.911747</ele>
        <time>2020-07-28T15:10:46.242Z</time>
      </trkpt>
      <trkpt lat="61.75757" lon="5.20434">
        <ele>68.460382</ele>
        <time>2020-07-28T15:10:50.242Z</time>
      </trkpt>
      <trkpt lat="61.75761" lon="5.20452">
        <ele>69.025665</ele>
        <time>2020-07-28T15:10:54.253Z</time>
      </trkpt>
      <trkpt lat="61.75765" lon="5.20471">
        <ele>69.635543</ele>
        <time>2020-07-28T15:10:58.239Z</time>
      </trkpt>
      <trkpt lat="61.75769" lon="5.2049">
        <ele>70.221445</ele>
        <time>2020-07-28T15:11:02.242Z</time>
      </trkpt>
      <trkpt lat="61.75774" lon="5.20507">
        <ele>70.794887</ele>
        <time>2020-07-28T15:11:06.260Z</time>
      </trkpt>
      <trkpt lat="61.75778" lon="5.20524">
        <ele>71.350572</ele>
        <time>2020-07-28T15:11:10.258Z</time>
      </trkpt>
      <trkpt lat="61.75784" lon="5.20544">
        <ele>72.011992</ele>
        <time>2020-07-28T15:11:15.224Z</time>
      </trkpt>
      <trkpt lat="61.75788" lon="5.20562">
        <ele>72.590153</ele>
        <time>2020-07-28T15:11:19.249Z</time>
      </trkpt>
      <trkpt lat="61.75793" lon="5.20582">
        <ele>73.216673</ele>
        <time>2020-07-28T15:11:24.242Z</time>
      </trkpt>
      <trkpt lat="61.75797" lon="5.20599">
        <ele>73.72022</ele>
        <time>2020-07-28T15:11:28.232Z</time>
      </trkpt>
      <trkpt lat="61.75802" lon="5.20617">
        <ele>74.275298</ele>
        <time>2020-07-28T15:11:32.245Z</time>
      </trkpt>
      <trkpt lat="61.75807" lon="5.20635">
        <ele>74.819155</ele>
        <time>2020-07-28T15:11:36.240Z</time>
      </trkpt>
      <trkpt lat="61.75813" lon="5.20653">
        <ele>75.365191</ele>
        <time>2020-07-28T15:11:40.260Z</time>
      </trkpt>
      <trkpt lat="61.75818" lon="5.20671">
        <ele>75.925333</ele>
        <time>2020-07-28T15:11:44.241Z</time>
      </trkpt>
      <trkpt lat="61.75823" lon="5.20691">
        <ele>76.523148</ele>
        <time>2020-07-28T15:11:48.242Z</time>
      </trkpt>
      <trkpt lat="61.7583" lon="5.20708">
        <ele>77.118496</ele>
        <time>2020-07-28T15:11:52.239Z</time>
      </trkpt>
      <trkpt lat="61.75837" lon="5.20726">
        <ele>77.731479</ele>
        <time>2020-07-28T15:11:56.268Z</time>
      </trkpt>
      <trkpt lat="61.75845" lon="5.20743">
        <ele>78.335166</ele>
        <time>2020-07-28T15:12:00.236Z</time>
      </trkpt>
      <trkpt lat="61.75853" lon="5.20757">
        <ele>78.915256</ele>
        <time>2020-07-28T15:12:04.273Z</time>
      </trkpt>
      <trkpt lat="61.75861" lon="5.20768">
        <ele>79.43769</ele>
        <time>2020-07-28T15:12:08.259Z</time>
      </trkpt>
      <trkpt lat="61.75869" lon="5.2078">
        <ele>79.973766</ele>
        <time>2020-07-28T15:12:12.222Z</time>
      </trkpt>
      <trkpt lat="61.75877" lon="5.20792">
        <ele>80.521638</ele>
        <time>2020-07-28T15:12:16.234Z</time>
      </trkpt>
      <trkpt lat="61.75885" lon="5.20804">
        <ele>81.045452</ele>
        <time>2020-07-28T15:12:20.248Z</time>
      </trkpt>
      <trkpt lat="61.75894" lon="5.20817">
        <ele>81.655146</ele>
        <time>2020-07-28T15:12:25.235Z</time>
      </trkpt>
      <trkpt lat="61.75902" lon="5.20832">
        <ele>82.243481</ele>
        <time>2020-07-28T15:12:29.261Z</time>
      </trkpt>
      <trkpt lat="61.75908" lon="5.20845">
        <ele>82.748189</ele>
        <time>2020-07-28T15:12:32.238Z</time>
      </trkpt>
      <trkpt lat="61.75915" lon="5.20861">
        <ele>82.274139</ele>
        <time>2020-07-28T15:12:35.259Z</time>
      </trkpt>
      <trkpt lat="61.75922" lon="5.20877">
        <ele>81.621339</ele>
        <time>2020-07-28T15:12:38.255Z</time>
      </trkpt>
      <trkpt lat="61.75927" lon="5.20898">
        <ele>80.898835</ele>
        <time>2020-07-28T15:12:41.227Z</time>
      </trkpt>
      <trkpt lat="61.75933" lon="5.20922">
        <ele>80.075441</ele>
        <time>2020-07-28T15:12:44.232Z</time>
      </trkpt>
      <trkpt lat="61.75937" lon="5.20942">
        <ele>79.421937</ele>
        <time>2020-07-28T15:12:46.238Z</time>
      </trkpt>
      <trkpt lat="61.7594" lon="5.20965">
        <ele>78.691038</ele>
        <time>2020-07-28T15:12:48.230Z</time>
      </trkpt>
      <trkpt lat="61.75942" lon="5.2099">
        <ele>77.926969</ele>
        <time>2020-07-28T15:12:50.256Z</time>
      </trkpt>
      <trkpt lat="61.75943" lon="5.21017">
        <ele>77.088301</ele>
        <time>2020-07-28T15:12:52.255Z</time>
      </trkpt>
      <trkpt lat="61.75942" lon="5.21047">
        <ele>76.190672</ele>
        <time>2020-07-28T15:12:54.250Z</time>
      </trkpt>
      <trkpt lat="61.75938" lon="5.21079">
        <ele>75.18571</ele>
        <time>2020-07-28T15:12:56.247Z</time>
      </trkpt>
      <trkpt lat="61.75934" lon="5.21112">
        <ele>74.137854</ele>
        <time>2020-07-28T15:12:58.232Z</time>
      </trkpt>
      <trkpt lat="61.7593" lon="5.21148">
        <ele>73.022839</ele>
        <time>2020-07-28T15:13:00.278Z</time>
      </trkpt>
      <trkpt lat="61.75927" lon="5.21166">
        <ele>72.434001</ele>
        <time>2020-07-28T15:13:01.270Z</time>
      </trkpt>
      <trkpt lat="61.75925" lon="5.21185">
        <ele>71.833806</ele>
        <time>2020-07-28T15:13:02.252Z</time>
      </trkpt>
      <trkpt lat="61.75922" lon="5.21205">
        <ele>71.236358</ele>
        <time>2020-07-28T15:13:03.248Z</time>
      </trkpt>
      <trkpt lat="61.7592" lon="5.21226">
        <ele>70.989968</ele>
        <time>2020-07-28T15:13:04.250Z</time>
      </trkpt>
      <trkpt lat="61.75918" lon="5.21247">
        <ele>70.738486</ele>
        <time>2020-07-28T15:13:05.231Z</time>
      </trkpt>
      <trkpt lat="61.75915" lon="5.21267">
        <ele>70.492704</ele>
        <time>2020-07-28T15:13:06.231Z</time>
      </trkpt>
      <trkpt lat="61.75913" lon="5.21288">
        <ele>70.241744</ele>
        <time>2020-07-28T15:13:07.276Z</time>
      </trkpt>
      <trkpt lat="61.75912" lon="5.21311">
        <ele>69.977004</ele>
        <time>2020-07-28T15:13:08.232Z</time>
      </trkpt>
      <trkpt lat="61.75911" lon="5.21333">
        <ele>69.712528</ele>
        <time>2020-07-28T15:13:09.227Z</time>
      </trkpt>
      <trkpt lat="61.7591" lon="5.21355">
        <ele>69.458374</ele>
        <time>2020-07-28T15:13:10.250Z</time>
      </trkpt>
      <trkpt lat="61.7591" lon="5.21376">
        <ele>69.213695</ele>
        <time>2020-07-28T15:13:11.235Z</time>
      </trkpt>
      <trkpt lat="61.7591" lon="5.21396">
        <ele>68.978681</ele>
        <time>2020-07-28T15:13:12.235Z</time>
      </trkpt>
      <trkpt lat="61.7591" lon="5.21415">
        <ele>68.750683</ele>
        <time>2020-07-28T15:13:13.267Z</time>
      </trkpt>
      <trkpt lat="61.75912" lon="5.2145">
        <ele>68.34574</ele>
        <time>2020-07-28T15:13:15.236Z</time>
      </trkpt>
      <trkpt lat="61.75914" lon="5.21479">
        <ele>67.993454</ele>
        <time>2020-07-28T15:13:17.250Z</time>
      </trkpt>
      <trkpt lat="61.75917" lon="5.21503">
        <ele>67.710687</ele>
        <time>2020-07-28T15:13:19.243Z</time>
      </trkpt>
      <trkpt lat="61.75919" lon="5.21523">
        <ele>67.472423</ele>
        <time>2020-07-28T15:13:21.230Z</time>
      </trkpt>
      <trkpt lat="61.75923" lon="5.21547">
        <ele>67.172074</ele>
        <time>2020-07-28T15:13:24.229Z</time>
      </trkpt>
      <trkpt lat="61.75926" lon="5.21567">
        <ele>66.932947</ele>
        <time>2020-07-28T15:13:27.222Z</time>
      </trkpt>
      <trkpt lat="61.75928" lon="5.21586">
        <ele>67.075551</ele>
        <time>2020-07-28T15:13:30.241Z</time>
      </trkpt>
      <trkpt lat="61.75933" lon="5.21606">
        <ele>67.732593</ele>
        <time>2020-07-28T15:13:34.233Z</time>
      </trkpt>
      <trkpt lat="61.75938" lon="5.21624">
        <ele>68.313554</ele>
        <time>2020-07-28T15:13:38.227Z</time>
      </trkpt>
      <trkpt lat="61.75944" lon="5.2164">
        <ele>68.900938</ele>
        <time>2020-07-28T15:13:42.235Z</time>
      </trkpt>
      <trkpt lat="61.7595" lon="5.21659">
        <ele>69.556459</ele>
        <time>2020-07-28T15:13:47.260Z</time>
      </trkpt>
      <trkpt lat="61.75955" lon="5.21675">
        <ele>70.112918</ele>
        <time>2020-07-28T15:13:51.251Z</time>
      </trkpt>
      <trkpt lat="61.75961" lon="5.21692">
        <ele>70.724657</ele>
        <time>2020-07-28T15:13:56.233Z</time>
      </trkpt>
      <trkpt lat="61.75966" lon="5.21709">
        <ele>71.309472</ele>
        <time>2020-07-28T15:14:02.233Z</time>
      </trkpt>
      <trkpt lat="61.7597" lon="5.2173">
        <ele>71.975067</ele>
        <time>2020-07-28T15:14:08.250Z</time>
      </trkpt>
      <trkpt lat="61.75975" lon="5.21748">
        <ele>72.569062</ele>
        <time>2020-07-28T15:14:14.236Z</time>
      </trkpt>
      <trkpt lat="61.75979" lon="5.21765">
        <ele>73.132325</ele>
        <time>2020-07-28T15:14:19.230Z</time>
      </trkpt>
      <trkpt lat="61.75985" lon="5.21783">
        <ele>73.748695</ele>
        <time>2020-07-28T15:14:24.248Z</time>
      </trkpt>
      <trkpt lat="61.75991" lon="5.218">
        <ele>74.364094</ele>
        <time>2020-07-28T15:14:29.269Z</time>
      </trkpt>
      <trkpt lat="61.75997" lon="5.21816">
        <ele>74.983965</ele>
        <time>2020-07-28T15:14:34.270Z</time>
      </trkpt>
      <trkpt lat="61.76003" lon="5.21833">
        <ele>75.575913</ele>
        <time>2020-07-28T15:14:39.243Z</time>
      </trkpt>
      <trkpt lat="61.76009" lon="5.21849">
        <ele>76.179881</ele>
        <time>2020-07-28T15:14:45.231Z</time>
      </trkpt>
      <trkpt lat="61.76015" lon="5.21865">
        <ele>76.758178</ele>
        <time>2020-07-28T15:14:51.270Z</time>
      </trkpt>
      <trkpt lat="61.76022" lon="5.21883">
        <ele>77.415009</ele>
        <time>2020-07-28T15:14:57.296Z</time>
      </trkpt>
      <trkpt lat="61.76027" lon="5.21899">
        <ele>77.864634</ele>
        <time>2020-07-28T15:15:02.232Z</time>
      </trkpt>
      <trkpt lat="61.76033" lon="5.21917">
        <ele>78.151406</ele>
        <time>2020-07-28T15:15:08.263Z</time>
      </trkpt>
      <trkpt lat="61.76039" lon="5.21936">
        <ele>78.442859</ele>
        <time>2020-07-28T15:15:14.233Z</time>
      </trkpt>
      <trkpt lat="61.76045" lon="5.21951">
        <ele>78.708535</ele>
        <time>2020-07-28T15:15:19.246Z</time>
      </trkpt>
      <trkpt lat="61.76051" lon="5.21969">
        <ele>78.99194</ele>
        <time>2020-07-28T15:15:24.249Z</time>
      </trkpt>
      <trkpt lat="61.76055" lon="5.21988">
        <ele>79.279585</ele>
        <time>2020-07-28T15:15:28.238Z</time>
      </trkpt>
      <trkpt lat="61.76062" lon="5.22008">
        <ele>79.595945</ele>
        <time>2020-07-28T15:15:32.279Z</time>
      </trkpt>
      <trkpt lat="61.76067" lon="5.22028">
        <ele>79.887543</ele>
        <time>2020-07-28T15:15:35.244Z</time>
      </trkpt>
      <trkpt lat="61.76072" lon="5.22048">
        <ele>80.196287</ele>
        <time>2020-07-28T15:15:38.266Z</time>
      </trkpt>
      <trkpt lat="61.76077" lon="5.22071">
        <ele>80.530102</ele>
        <time>2020-07-28T15:15:41.252Z</time>
      </trkpt>
      <trkpt lat="61.76082" lon="5.2209">
        <ele>80.815091</ele>
        <time>2020-07-28T15:15:43.257Z</time>
      </trkpt>
      <trkpt lat="61.76088" lon="5.22109">
        <ele>81.108466</ele>
        <time>2020-07-28T15:15:45.279Z</time>
      </trkpt>
      <trkpt lat="61.76094" lon="5.22128">
        <ele>81.414971</ele>
        <time>2020-07-28T15:15:47.252Z</time>
      </trkpt>
      <trkpt lat="61.76102" lon="5.22148">
        <ele>81.75147</ele>
        <time>2020-07-28T15:15:49.251Z</time>
      </trkpt>
      <trkpt lat="61.76107" lon="5.2217">
        <ele>82.067987</ele>
        <time>2020-07-28T15:15:51.288Z</time>
      </trkpt>
      <trkpt lat="61.76112" lon="5.2219">
        <ele>82.372441</ele>
        <time>2020-07-28T15:15:53.252Z</time>
      </trkpt>
      <trkpt lat="61.76119" lon="5.2221">
        <ele>82.697655</ele>
        <time>2020-07-28T15:15:55.230Z</time>
      </trkpt>
      <trkpt lat="61.76125" lon="5.2223">
        <ele>82.65792</ele>
        <time>2020-07-28T15:15:57.247Z</time>
      </trkpt>
      <trkpt lat="61.76132" lon="5.22249">
        <ele>82.512669</ele>
        <time>2020-07-28T15:15:59.249Z</time>
      </trkpt>
      <trkpt lat="61.76137" lon="5.22268">
        <ele>82.376702</ele>
        <time>2020-07-28T15:16:01.233Z</time>
      </trkpt>
      <trkpt lat="61.76143" lon="5.22287">
        <ele>82.239009</ele>
        <time>2020-07-28T15:16:03.239Z</time>
      </trkpt>
      <trkpt lat="61.76149" lon="5.22309">
        <ele>82.083859</ele>
        <time>2020-07-28T15:16:05.268Z</time>
      </trkpt>
      <trkpt lat="61.76155" lon="5.22331">
        <ele>81.930487</ele>
        <time>2020-07-28T15:16:07.256Z</time>
      </trkpt>
      <trkpt lat="61.76159" lon="5.22354">
        <ele>81.783489</ele>
        <time>2020-07-28T15:16:09.245Z</time>
      </trkpt>
      <trkpt lat="61.76161" lon="5.22377">
        <ele>81.635781</ele>
        <time>2020-07-28T15:16:11.248Z</time>
      </trkpt>
      <trkpt lat="61.76163" lon="5.22401">
        <ele>81.489867</ele>
        <time>2020-07-28T15:16:13.275Z</time>
      </trkpt>
      <trkpt lat="61.76165" lon="5.22426">
        <ele>81.33579</ele>
        <time>2020-07-28T15:16:15.243Z</time>
      </trkpt>
      <trkpt lat="61.76166" lon="5.22449">
        <ele>81.191127</ele>
        <time>2020-07-28T15:16:17.269Z</time>
      </trkpt>
      <trkpt lat="61.76166" lon="5.22472">
        <ele>81.049598</ele>
        <time>2020-07-28T15:16:19.240Z</time>
      </trkpt>
      <trkpt lat="61.76167" lon="5.22496">
        <ele>80.905561</ele>
        <time>2020-07-28T15:16:21.248Z</time>
      </trkpt>
      <trkpt lat="61.76167" lon="5.22519">
        <ele>80.762339</ele>
        <time>2020-07-28T15:16:23.240Z</time>
      </trkpt>
      <trkpt lat="61.76166" lon="5.22543">
        <ele>80.618417</ele>
        <time>2020-07-28T15:16:25.263Z</time>
      </trkpt>
      <trkpt lat="61.76165" lon="5.22569">
        <ele>80.453659</ele>
        <time>2020-07-28T15:16:27.243Z</time>
      </trkpt>
      <trkpt lat="61.76164" lon="5.22599">
        <ele>80.083402</ele>
        <time>2020-07-28T15:16:29.275Z</time>
      </trkpt>
      <trkpt lat="61.76164" lon="5.22633">
        <ele>79.660169</ele>
        <time>2020-07-28T15:16:31.243Z</time>
      </trkpt>
      <trkpt lat="61.76163" lon="5.22668">
        <ele>79.204984</ele>
        <time>2020-07-28T15:16:33.239Z</time>
      </trkpt>
      <trkpt lat="61.76161" lon="5.22703">
        <ele>78.759098</ele>
        <time>2020-07-28T15:16:35.279Z</time>
      </trkpt>
      <trkpt lat="61.7616" lon="5.22738">
        <ele>78.321014</ele>
        <time>2020-07-28T15:16:37.231Z</time>
      </trkpt>
      <trkpt lat="61.7616" lon="5.22771">
        <ele>77.905395</ele>
        <time>2020-07-28T15:16:39.250Z</time>
      </trkpt>
      <trkpt lat="61.76159" lon="5.22801">
        <ele>77.513768</ele>
        <time>2020-07-28T15:16:41.225Z</time>
      </trkpt>
      <trkpt lat="61.76158" lon="5.22832">
        <ele>77.127811</ele>
        <time>2020-07-28T15:16:43.243Z</time>
      </trkpt>
      <trkpt lat="61.76157" lon="5.2286">
        <ele>76.769918</ele>
        <time>2020-07-28T15:16:45.257Z</time>
      </trkpt>
      <trkpt lat="61.76155" lon="5.22885">
        <ele>76.448601</ele>
        <time>2020-07-28T15:16:47.251Z</time>
      </trkpt>
      <trkpt lat="61.76154" lon="5.22907">
        <ele>76.170677</ele>
        <time>2020-07-28T15:16:49.243Z</time>
      </trkpt>
      <trkpt lat="61.76154" lon="5.22933">
        <ele>75.831573</ele>
        <time>2020-07-28T15:16:52.245Z</time>
      </trkpt>
      <trkpt lat="61.76155" lon="5.22954">
        <ele>75.638587</ele>
        <time>2020-07-28T15:16:55.273Z</time>
      </trkpt>
      <trkpt lat="61.76153" lon="5.22975">
        <ele>75.807019</ele>
        <time>2020-07-28T15:16:58.233Z</time>
      </trkpt>
      <trkpt lat="61.76152" lon="5.22998">
        <ele>75.978659</ele>
        <time>2020-07-28T15:17:01.259Z</time>
      </trkpt>
      <trkpt lat="61.76151" lon="5.2302">
        <ele>76.153903</ele>
        <time>2020-07-28T15:17:04.230Z</time>
      </trkpt>
      <trkpt lat="61.76149" lon="5.23046">
        <ele>76.354551</ele>
        <time>2020-07-28T15:17:07.245Z</time>
      </trkpt>
      <trkpt lat="61.76147" lon="5.23074">
        <ele>76.564877</ele>
        <time>2020-07-28T15:17:10.281Z</time>
      </trkpt>
      <trkpt lat="61.76146" lon="5.23099">
        <ele>76.759625</ele>
        <time>2020-07-28T15:17:13.259Z</time>
      </trkpt>
      <trkpt lat="61.76147" lon="5.23122">
        <ele>76.935546</ele>
        <time>2020-07-28T15:17:16.242Z</time>
      </trkpt>
      <trkpt lat="61.76148" lon="5.23144">
        <ele>77.102726</ele>
        <time>2020-07-28T15:17:19.233Z</time>
      </trkpt>
      <trkpt lat="61.76147" lon="5.23164">
        <ele>77.257248</ele>
        <time>2020-07-28T15:17:22.273Z</time>
      </trkpt>
      <trkpt lat="61.76145" lon="5.23183">
        <ele>77.404942</ele>
        <time>2020-07-28T15:17:25.248Z</time>
      </trkpt>
      <trkpt lat="61.76144" lon="5.23202">
        <ele>77.552629</ele>
        <time>2020-07-28T15:17:28.250Z</time>
      </trkpt>
      <trkpt lat="61.76144" lon="5.23226">
        <ele>77.735429</ele>
        <time>2020-07-28T15:17:32.235Z</time>
      </trkpt>
      <trkpt lat="61.76143" lon="5.23247">
        <ele>77.89383</ele>
        <time>2020-07-28T15:17:36.241Z</time>
      </trkpt>
      <trkpt lat="61.76143" lon="5.23267">
        <ele>78.047647</ele>
        <time>2020-07-28T15:17:41.272Z</time>
      </trkpt>
      <trkpt lat="61.76141" lon="5.23287">
        <ele>78.210991</ele>
        <time>2020-07-28T15:17:47.227Z</time>
      </trkpt>
      <trkpt lat="61.76139" lon="5.23308">
        <ele>78.369594</ele>
        <time>2020-07-28T15:17:53.243Z</time>
      </trkpt>
      <trkpt lat="61.7614" lon="5.2333">
        <ele>78.547942</ele>
        <time>2020-07-28T15:17:58.241Z</time>
      </trkpt>
      <trkpt lat="61.76139" lon="5.23351">
        <ele>78.756386</ele>
        <time>2020-07-28T15:18:04.268Z</time>
      </trkpt>
      <trkpt lat="61.76138" lon="5.2337">
        <ele>78.952376</ele>
        <time>2020-07-28T15:18:09.258Z</time>
      </trkpt>
      <trkpt lat="61.76137" lon="5.23389">
        <ele>79.146781</ele>
        <time>2020-07-28T15:18:14.235Z</time>
      </trkpt>
      <trkpt lat="61.76136" lon="5.23408">
        <ele>79.344227</ele>
        <time>2020-07-28T15:18:18.263Z</time>
      </trkpt>
      <trkpt lat="61.76133" lon="5.23431">
        <ele>79.586673</ele>
        <time>2020-07-28T15:18:22.234Z</time>
      </trkpt>
      <trkpt lat="61.76132" lon="5.23452">
        <ele>79.800465</ele>
        <time>2020-07-28T15:18:25.290Z</time>
      </trkpt>
      <trkpt lat="61.7613" lon="5.23476">
        <ele>80.053926</ele>
        <time>2020-07-28T15:18:28.248Z</time>
      </trkpt>
      <trkpt lat="61.76128" lon="5.23505">
        <ele>80.347383</ele>
        <time>2020-07-28T15:18:31.248Z</time>
      </trkpt>
      <trkpt lat="61.76126" lon="5.23525">
        <ele>80.560487</ele>
        <time>2020-07-28T15:18:33.229Z</time>
      </trkpt>
      <trkpt lat="61.76124" lon="5.23547">
        <ele>80.789744</ele>
        <time>2020-07-28T15:18:35.277Z</time>
      </trkpt>
      <trkpt lat="61.76122" lon="5.2357">
        <ele>81.026393</ele>
        <time>2020-07-28T15:18:37.234Z</time>
      </trkpt>
      <trkpt lat="61.7612" lon="5.23591">
        <ele>81.242664</ele>
        <time>2020-07-28T15:18:39.239Z</time>
      </trkpt>
      <trkpt lat="61.76118" lon="5.2361">
        <ele>81.44633</ele>
        <time>2020-07-28T15:18:41.236Z</time>
      </trkpt>
      <trkpt lat="61.76115" lon="5.23636">
        <ele>81.721032</ele>
        <time>2020-07-28T15:18:44.248Z</time>
      </trkpt>
      <trkpt lat="61.76113" lon="5.23659">
        <ele>81.951159</ele>
        <time>2020-07-28T15:18:47.234Z</time>
      </trkpt>
      <trkpt lat="61.76112" lon="5.23679">
        <ele>82.163275</ele>
        <time>2020-07-28T15:18:50.239Z</time>
      </trkpt>
      <trkpt lat="61.7611" lon="5.23703">
        <ele>82.413694</ele>
        <time>2020-07-28T15:18:54.235Z</time>
      </trkpt>
      <trkpt lat="61.76108" lon="5.23722">
        <ele>82.656994</ele>
        <time>2020-07-28T15:18:57.238Z</time>
      </trkpt>
      <trkpt lat="61.76105" lon="5.2374">
        <ele>82.899093</ele>
        <time>2020-07-28T15:19:00.234Z</time>
      </trkpt>
      <trkpt lat="61.76104" lon="5.23763">
        <ele>83.197013</ele>
        <time>2020-07-28T15:19:04.287Z</time>
      </trkpt>
      <trkpt lat="61.7607" lon="5.23988">
        <ele>86.193036</ele>
        <time>2020-07-28T15:19:35.362Z</time>
      </trkpt>
      <trkpt lat="61.76077" lon="5.23954">
        <ele>86.664532</ele>
        <time>2020-07-28T15:19:36.259Z</time>
      </trkpt>
      <trkpt lat="61.76082" lon="5.23973">
        <ele>86.935504</ele>
        <time>2020-07-28T15:19:40.247Z</time>
      </trkpt>
      <trkpt lat="61.76079" lon="5.23992">
        <ele>87.183089</ele>
        <time>2020-07-28T15:19:43.237Z</time>
      </trkpt>
      <trkpt lat="61.76077" lon="5.24013">
        <ele>87.259451</ele>
        <time>2020-07-28T15:19:46.264Z</time>
      </trkpt>
      <trkpt lat="61.76076" lon="5.24034">
        <ele>87.300732</ele>
        <time>2020-07-28T15:19:49.246Z</time>
      </trkpt>
      <trkpt lat="61.76074" lon="5.24055">
        <ele>87.342089</ele>
        <time>2020-07-28T15:19:52.255Z</time>
      </trkpt>
      <trkpt lat="61.76073" lon="5.24075">
        <ele>87.380249</ele>
        <time>2020-07-28T15:19:55.250Z</time>
      </trkpt>
      <trkpt lat="61.76072" lon="5.24095">
        <ele>87.42015</ele>
        <time>2020-07-28T15:19:58.271Z</time>
      </trkpt>
      <trkpt lat="61.76071" lon="5.24115">
        <ele>87.459093</ele>
        <time>2020-07-28T15:20:01.282Z</time>
      </trkpt>
      <trkpt lat="61.76071" lon="5.24134">
        <ele>87.49576</ele>
        <time>2020-07-28T15:20:04.251Z</time>
      </trkpt>
      <trkpt lat="61.76072" lon="5.24153">
        <ele>87.532981</ele>
        <time>2020-07-28T15:20:07.228Z</time>
      </trkpt>
      <trkpt lat="61.76072" lon="5.24172">
        <ele>87.570676</ele>
        <time>2020-07-28T15:20:10.239Z</time>
      </trkpt>
      <trkpt lat="61.76074" lon="5.24196">
        <ele>87.61696</ele>
        <time>2020-07-28T15:20:14.253Z</time>
      </trkpt>
      <trkpt lat="61.76075" lon="5.24217">
        <ele>87.65807</ele>
        <time>2020-07-28T15:20:18.247Z</time>
      </trkpt>
      <trkpt lat="61.76078" lon="5.24239">
        <ele>87.701345</ele>
        <time>2020-07-28T15:20:23.230Z</time>
      </trkpt>
      <trkpt lat="61.76081" lon="5.2426">
        <ele>87.74395</ele>
        <time>2020-07-28T15:20:28.262Z</time>
      </trkpt>
      <trkpt lat="61.76084" lon="5.2428">
        <ele>87.784659</ele>
        <time>2020-07-28T15:20:33.278Z</time>
      </trkpt>
      <trkpt lat="61.76089" lon="5.24297">
        <ele>87.824832</ele>
        <time>2020-07-28T15:20:38.251Z</time>
      </trkpt>
      <trkpt lat="61.76095" lon="5.24315">
        <ele>87.866827</ele>
        <time>2020-07-28T15:20:43.259Z</time>
      </trkpt>
      <trkpt lat="61.76101" lon="5.24333">
        <ele>87.909691</ele>
        <time>2020-07-28T15:20:48.244Z</time>
      </trkpt>
      <trkpt lat="61.76106" lon="5.24354">
        <ele>87.953264</ele>
        <time>2020-07-28T15:20:53.270Z</time>
      </trkpt>
      <trkpt lat="61.76109" lon="5.24372">
        <ele>88.313195</ele>
        <time>2020-07-28T15:20:57.261Z</time>
      </trkpt>
      <trkpt lat="61.76113" lon="5.24394">
        <ele>88.809865</ele>
        <time>2020-07-28T15:21:01.234Z</time>
      </trkpt>
      <trkpt lat="61.76117" lon="5.24413">
        <ele>89.270249</ele>
        <time>2020-07-28T15:21:04.244Z</time>
      </trkpt>
      <trkpt lat="61.76119" lon="5.24437">
        <ele>89.810447</ele>
        <time>2020-07-28T15:21:07.236Z</time>
      </trkpt>
      <trkpt lat="61.76123" lon="5.24463">
        <ele>90.395701</ele>
        <time>2020-07-28T15:21:10.238Z</time>
      </trkpt>
      <trkpt lat="61.76125" lon="5.24484">
        <ele>90.856694</ele>
        <time>2020-07-28T15:21:13.282Z</time>
      </trkpt>
      <trkpt lat="61.7613" lon="5.24503">
        <ele>91.351741</ele>
        <time>2020-07-28T15:21:16.228Z</time>
      </trkpt>
      <trkpt lat="61.76135" lon="5.2452">
        <ele>91.783928</ele>
        <time>2020-07-28T15:21:19.283Z</time>
      </trkpt>
      <trkpt lat="61.76141" lon="5.24539">
        <ele>92.263897</ele>
        <time>2020-07-28T15:21:23.240Z</time>
      </trkpt>
      <trkpt lat="61.76145" lon="5.24558">
        <ele>92.710602</ele>
        <time>2020-07-28T15:21:27.260Z</time>
      </trkpt>
      <trkpt lat="61.76149" lon="5.24578">
        <ele>93.204352</ele>
        <time>2020-07-28T15:21:32.240Z</time>
      </trkpt>
      <trkpt lat="61.76154" lon="5.24597">
        <ele>93.654933</ele>
        <time>2020-07-28T15:21:37.249Z</time>
      </trkpt>
      <trkpt lat="61.76159" lon="5.24616">
        <ele>94.142861</ele>
        <time>2020-07-28T15:21:43.247Z</time>
      </trkpt>
      <trkpt lat="61.76163" lon="5.24635">
        <ele>94.603368</ele>
        <time>2020-07-28T15:21:49.253Z</time>
      </trkpt>
      <trkpt lat="61.76166" lon="5.24656">
        <ele>95.072399</ele>
        <time>2020-07-28T15:21:54.246Z</time>
      </trkpt>
      <trkpt lat="61.7617" lon="5.24678">
        <ele>95.582893</ele>
        <time>2020-07-28T15:21:59.250Z</time>
      </trkpt>
      <trkpt lat="61.76174" lon="5.24697">
        <ele>96.04559</ele>
        <time>2020-07-28T15:22:03.258Z</time>
      </trkpt>
      <trkpt lat="61.76177" lon="5.24717">
        <ele>96.451104</ele>
        <time>2020-07-28T15:22:07.235Z</time>
      </trkpt>
      <trkpt lat="61.76178" lon="5.24736">
        <ele>96.808251</ele>
        <time>2020-07-28T15:22:11.255Z</time>
      </trkpt>
      <trkpt lat="61.76181" lon="5.24759">
        <ele>97.266192</ele>
        <time>2020-07-28T15:22:15.252Z</time>
      </trkpt>
      <trkpt lat="61.76185" lon="5.24783">
        <ele>97.733486</ele>
        <time>2020-07-28T15:22:19.265Z</time>
      </trkpt>
      <trkpt lat="61.76188" lon="5.24805">
        <ele>98.154317</ele>
        <time>2020-07-28T15:22:23.263Z</time>
      </trkpt>
      <trkpt lat="61.76192" lon="5.24825">
        <ele>98.570175</ele>
        <time>2020-07-28T15:22:27.240Z</time>
      </trkpt>
      <trkpt lat="61.76196" lon="5.24846">
        <ele>98.987625</ele>
        <time>2020-07-28T15:22:31.238Z</time>
      </trkpt>
      <trkpt lat="61.76201" lon="5.24864">
        <ele>99.391986</ele>
        <time>2020-07-28T15:22:36.270Z</time>
      </trkpt>
      <trkpt lat="61.76206" lon="5.24882">
        <ele>99.769321</ele>
        <time>2020-07-28T15:22:41.244Z</time>
      </trkpt>
      <trkpt lat="61.76213" lon="5.24899">
        <ele>100.187748</ele>
        <time>2020-07-28T15:22:47.250Z</time>
      </trkpt>
      <trkpt lat="61.76219" lon="5.24917">
        <ele>100.592648</ele>
        <time>2020-07-28T15:22:52.245Z</time>
      </trkpt>
      <trkpt lat="61.76226" lon="5.24931">
        <ele>100.97866</ele>
        <time>2020-07-28T15:22:58.238Z</time>
      </trkpt>
      <trkpt lat="61.76233" lon="5.24948">
        <ele>101.394606</ele>
        <time>2020-07-28T15:23:04.248Z</time>
      </trkpt>
      <trkpt lat="61.76239" lon="5.24965">
        <ele>101.805413</ele>
        <time>2020-07-28T15:23:10.249Z</time>
      </trkpt>
      <trkpt lat="61.76244" lon="5.24984">
        <ele>102.211026</ele>
        <time>2020-07-28T15:23:16.243Z</time>
      </trkpt>
      <trkpt lat="61.76246" lon="5.25004">
        <ele>102.591365</ele>
        <time>2020-07-28T15:23:22.282Z</time>
      </trkpt>
      <trkpt lat="61.76247" lon="5.25025">
        <ele>102.978962</ele>
        <time>2020-07-28T15:23:29.248Z</time>
      </trkpt>
      <trkpt lat="61.76247" lon="5.25046">
        <ele>103.379376</ele>
        <time>2020-07-28T15:23:35.255Z</time>
      </trkpt>
      <trkpt lat="61.76248" lon="5.25066">
        <ele>103.918298</ele>
        <time>2020-07-28T15:23:41.229Z</time>
      </trkpt>
      <trkpt lat="61.76248" lon="5.25088">
        <ele>104.504067</ele>
        <time>2020-07-28T15:23:47.252Z</time>
      </trkpt>
      <trkpt lat="61.76247" lon="5.2511">
        <ele>105.084245</ele>
        <time>2020-07-28T15:23:52.242Z</time>
      </trkpt>
      <trkpt lat="61.76249" lon="5.2513">
        <ele>105.614714</ele>
        <time>2020-07-28T15:23:57.244Z</time>
      </trkpt>
      <trkpt lat="61.76251" lon="5.25151">
        <ele>106.167056</ele>
        <time>2020-07-28T15:24:02.235Z</time>
      </trkpt>
      <trkpt lat="61.76251" lon="5.25173">
        <ele>106.758618</ele>
        <time>2020-07-28T15:24:07.236Z</time>
      </trkpt>
      <trkpt lat="61.76253" lon="5.25194">
        <ele>107.324662</ele>
        <time>2020-07-28T15:24:13.248Z</time>
      </trkpt>
      <trkpt lat="61.76253" lon="5.25215">
        <ele>107.867847</ele>
        <time>2020-07-28T15:24:20.231Z</time>
      </trkpt>
      <trkpt lat="61.76253" lon="5.25237">
        <ele>108.440251</ele>
        <time>2020-07-28T15:24:27.239Z</time>
      </trkpt>
      <trkpt lat="61.76258" lon="5.25257">
        <ele>109.031342</ele>
        <time>2020-07-28T15:24:34.251Z</time>
      </trkpt>
      <trkpt lat="61.76264" lon="5.25273">
        <ele>109.575187</ele>
        <time>2020-07-28T15:24:39.274Z</time>
      </trkpt>
      <trkpt lat="61.76269" lon="5.25289">
        <ele>110.082659</ele>
        <time>2020-07-28T15:24:44.273Z</time>
      </trkpt>
      <trkpt lat="61.76274" lon="5.25307">
        <ele>110.643902</ele>
        <time>2020-07-28T15:24:50.256Z</time>
      </trkpt>
      <trkpt lat="61.76281" lon="5.25324">
        <ele>111.216721</ele>
        <time>2020-07-28T15:24:56.251Z</time>
      </trkpt>
      <trkpt lat="61.76287" lon="5.25339">
        <ele>111.73793</ele>
        <time>2020-07-28T15:25:03.235Z</time>
      </trkpt>
      <trkpt lat="61.76293" lon="5.25352">
        <ele>112.253792</ele>
        <time>2020-07-28T15:25:08.279Z</time>
      </trkpt>
      <trkpt lat="61.763" lon="5.25368">
        <ele>112.789441</ele>
        <time>2020-07-28T15:25:14.229Z</time>
      </trkpt>
      <trkpt lat="61.76306" lon="5.25381">
        <ele>113.296295</ele>
        <time>2020-07-28T15:25:19.247Z</time>
      </trkpt>
      <trkpt lat="61.76314" lon="5.25394">
        <ele>113.533082</ele>
        <time>2020-07-28T15:25:25.236Z</time>
      </trkpt>
      <trkpt lat="61.76321" lon="5.25406">
        <ele>113.713519</ele>
        <time>2020-07-28T15:25:31.238Z</time>
      </trkpt>
      <trkpt lat="61.76329" lon="5.25413">
        <ele>113.899606</ele>
        <time>2020-07-28T15:25:39.231Z</time>
      </trkpt>
      <trkpt lat="61.76338" lon="5.25425">
        <ele>114.105363</ele>
        <time>2020-07-28T15:25:46.242Z</time>
      </trkpt>
      <trkpt lat="61.76347" lon="5.25432">
        <ele>114.301304</ele>
        <time>2020-07-28T15:25:53.255Z</time>
      </trkpt>
      <trkpt lat="61.76357" lon="5.25439">
        <ele>114.511971</ele>
        <time>2020-07-28T15:25:59.248Z</time>
      </trkpt>
      <trkpt lat="61.76366" lon="5.25444">
        <ele>114.695724</ele>
        <time>2020-07-28T15:26:05.234Z</time>
      </trkpt>
      <trkpt lat="61.76376" lon="5.25449">
        <ele>114.898046</ele>
        <time>2020-07-28T15:26:12.260Z</time>
      </trkpt>
      <trkpt lat="61.76386" lon="5.25448">
        <ele>115.094104</ele>
        <time>2020-07-28T15:26:18.236Z</time>
      </trkpt>
      <trkpt lat="61.76396" lon="5.25447">
        <ele>115.297947</ele>
        <time>2020-07-28T15:26:24.240Z</time>
      </trkpt>
      <trkpt lat="61.76405" lon="5.25449">
        <ele>115.476536</ele>
        <time>2020-07-28T15:26:30.249Z</time>
      </trkpt>
      <trkpt lat="61.76414" lon="5.25444">
        <ele>115.661294</ele>
        <time>2020-07-28T15:26:36.249Z</time>
      </trkpt>
      <trkpt lat="61.76425" lon="5.2544">
        <ele>115.87976</ele>
        <time>2020-07-28T15:26:42.252Z</time>
      </trkpt>
      <trkpt lat="61.76434" lon="5.2544">
        <ele>116.06947</ele>
        <time>2020-07-28T15:26:48.272Z</time>
      </trkpt>
      <trkpt lat="61.76444" lon="5.2544">
        <ele>116.263058</ele>
        <time>2020-07-28T15:26:55.283Z</time>
      </trkpt>
      <trkpt lat="61.76454" lon="5.25444">
        <ele>116.46044</ele>
        <time>2020-07-28T15:27:01.232Z</time>
      </trkpt>
      <trkpt lat="61.76464" lon="5.25445">
        <ele>116.658038</ele>
        <time>2020-07-28T15:27:07.237Z</time>
      </trkpt>
      <trkpt lat="61.76472" lon="5.25449">
        <ele>116.839596</ele>
        <time>2020-07-28T15:27:12.275Z</time>
      </trkpt>
      <trkpt lat="61.76481" lon="5.25457">
        <ele>116.952619</ele>
        <time>2020-07-28T15:27:17.259Z</time>
      </trkpt>
      <trkpt lat="61.7649" lon="5.25469">
        <ele>116.952619</ele>
        <time>2020-07-28T15:27:23.243Z</time>
      </trkpt>
      <trkpt lat="61.76498" lon="5.2548">
        <ele>116.952619</ele>
        <time>2020-07-28T15:27:29.239Z</time>
      </trkpt>
      <trkpt lat="61.76507" lon="5.25488">
        <ele>116.952619</ele>
        <time>2020-07-28T15:27:36.243Z</time>
      </trkpt>
      <trkpt lat="61.76517" lon="5.25499">
        <ele>116.952619</ele>
        <time>2020-07-28T15:27:42.230Z</time>
      </trkpt>
      <trkpt lat="61.7652" lon="5.25519">
        <ele>116.952619</ele>
        <time>2020-07-28T15:27:48.248Z</time>
      </trkpt>
      <trkpt lat="61.76523" lon="5.2554">
        <ele>116.952619</ele>
        <time>2020-07-28T15:27:54.264Z</time>
      </trkpt>
      <trkpt lat="61.76527" lon="5.25559">
        <ele>116.952619</ele>
        <time>2020-07-28T15:28:00.248Z</time>
      </trkpt>
      <trkpt lat="61.76532" lon="5.25579">
        <ele>116.952619</ele>
        <time>2020-07-28T15:28:06.264Z</time>
      </trkpt>
      <trkpt lat="61.76534" lon="5.256">
        <ele>116.952619</ele>
        <time>2020-07-28T15:28:12.267Z</time>
      </trkpt>
      <trkpt lat="61.76535" lon="5.25621">
        <ele>116.952619</ele>
        <time>2020-07-28T15:28:19.292Z</time>
      </trkpt>
      <trkpt lat="61.76533" lon="5.2564">
        <ele>116.952619</ele>
        <time>2020-07-28T15:28:25.251Z</time>
      </trkpt>
      <trkpt lat="61.76531" lon="5.25661">
        <ele>116.952619</ele>
        <time>2020-07-28T15:28:31.248Z</time>
      </trkpt>
      <trkpt lat="61.76531" lon="5.25681">
        <ele>116.952619</ele>
        <time>2020-07-28T15:28:37.255Z</time>
      </trkpt>
      <trkpt lat="61.76528" lon="5.257">
        <ele>116.952619</ele>
        <time>2020-07-28T15:28:41.240Z</time>
      </trkpt>
      <trkpt lat="61.76525" lon="5.2572">
        <ele>116.952619</ele>
        <time>2020-07-28T15:28:45.257Z</time>
      </trkpt>
      <trkpt lat="61.76522" lon="5.25738">
        <ele>116.952619</ele>
        <time>2020-07-28T15:28:49.259Z</time>
      </trkpt>
      <trkpt lat="61.76517" lon="5.25756">
        <ele>116.952619</ele>
        <time>2020-07-28T15:28:54.248Z</time>
      </trkpt>
      <trkpt lat="61.76512" lon="5.25774">
        <ele>116.952619</ele>
        <time>2020-07-28T15:28:59.242Z</time>
      </trkpt>
      <trkpt lat="61.76504" lon="5.25789">
        <ele>116.952619</ele>
        <time>2020-07-28T15:29:03.256Z</time>
      </trkpt>
      <trkpt lat="61.76499" lon="5.25805">
        <ele>116.952619</ele>
        <time>2020-07-28T15:29:07.237Z</time>
      </trkpt>
      <trkpt lat="61.76503" lon="5.25823">
        <ele>116.952619</ele>
        <time>2020-07-28T15:29:13.254Z</time>
      </trkpt>
      <trkpt lat="61.76513" lon="5.25823">
        <ele>116.952619</ele>
        <time>2020-07-28T15:29:19.251Z</time>
      </trkpt>
      <trkpt lat="61.76514" lon="5.25822">
        <ele>116.952619</ele>
        <time>2020-07-28T15:32:13.667Z</time>
      </trkpt>
    </trkseg>
  </trk>
</gpx>